<?xml version="1.0" encoding="UTF-8" standalone="no" ?>
<gpx xmlns="http://www.topografix.com/GPX/1/1" xmlns:xsi="http://www.w3.org/2001/XMLSchema-instance" xsi:schemaLocation="http://www.topografix.com/GPX/1/1 http://www.topografix.com/GPX/1/1/gpx.xsd" version="1.1" creator="VisuGPX - https://www.visugpx.com">
  <metadata>
    <name>Turini - Moulinet</name>
    <desc><![CDATA[Turini - Moulinet du 23-06-2019 , en mode co voiturage, superbe descente en foret , a decouvrir...]]></desc>
  </metadata>
  <trk>
    <name><![CDATA[Turini - Moulinet_1]]></name>
    <trkseg>
      <trkpt lat="43.97734" lon="7.39163">
        <ele>1663.6</ele>
        <time>1982-03-26T09:14:37Z</time>
      </trkpt>
      <trkpt lat="43.9773" lon="7.39162">
        <ele>1662.2</ele>
        <time>1982-03-26T09:14:39Z</time>
      </trkpt>
      <trkpt lat="43.97728" lon="7.39163">
        <ele>1661.7</ele>
        <time>1982-03-26T09:14:40Z</time>
      </trkpt>
      <trkpt lat="43.97726" lon="7.39164">
        <ele>1661.5</ele>
        <time>1982-03-26T09:14:41Z</time>
      </trkpt>
      <trkpt lat="43.97724" lon="7.39165">
        <ele>1660</ele>
        <time>1982-03-26T09:14:42Z</time>
      </trkpt>
      <trkpt lat="43.97723" lon="7.39167">
        <ele>1659.9</ele>
        <time>1982-03-26T09:14:43Z</time>
      </trkpt>
      <trkpt lat="43.97721" lon="7.39169">
        <ele>1661</ele>
        <time>1982-03-26T09:14:44Z</time>
      </trkpt>
      <trkpt lat="43.97718" lon="7.3917">
        <ele>1661.6</ele>
        <time>1982-03-26T09:14:45Z</time>
      </trkpt>
      <trkpt lat="43.97715" lon="7.39172">
        <ele>1661.7</ele>
        <time>1982-03-26T09:14:46Z</time>
      </trkpt>
      <trkpt lat="43.97712" lon="7.39174">
        <ele>1661.9</ele>
        <time>1982-03-26T09:14:47Z</time>
      </trkpt>
      <trkpt lat="43.97709" lon="7.39175">
        <ele>1661.8</ele>
        <time>1982-03-26T09:14:48Z</time>
      </trkpt>
      <trkpt lat="43.97706" lon="7.39174">
        <ele>1662.3</ele>
        <time>1982-03-26T09:14:49Z</time>
      </trkpt>
      <trkpt lat="43.97702" lon="7.39174">
        <ele>1662.6</ele>
        <time>1982-03-26T09:14:50Z</time>
      </trkpt>
      <trkpt lat="43.97699" lon="7.39174">
        <ele>1663</ele>
        <time>1982-03-26T09:14:51Z</time>
      </trkpt>
      <trkpt lat="43.97695" lon="7.39173">
        <ele>1663.3</ele>
        <time>1982-03-26T09:14:52Z</time>
      </trkpt>
      <trkpt lat="43.97692" lon="7.39171">
        <ele>1662.5</ele>
        <time>1982-03-26T09:14:53Z</time>
      </trkpt>
      <trkpt lat="43.97689" lon="7.39168">
        <ele>1662.4</ele>
        <time>1982-03-26T09:14:54Z</time>
      </trkpt>
      <trkpt lat="43.97687" lon="7.39165">
        <ele>1661.9</ele>
        <time>1982-03-26T09:14:55Z</time>
      </trkpt>
      <trkpt lat="43.97684" lon="7.39161">
        <ele>1661.6</ele>
        <time>1982-03-26T09:14:56Z</time>
      </trkpt>
      <trkpt lat="43.97682" lon="7.39157">
        <ele>1662.2</ele>
        <time>1982-03-26T09:14:57Z</time>
      </trkpt>
      <trkpt lat="43.9768" lon="7.39154">
        <ele>1661.9</ele>
        <time>1982-03-26T09:14:58Z</time>
      </trkpt>
      <trkpt lat="43.97678" lon="7.3915">
        <ele>1661.8</ele>
        <time>1982-03-26T09:14:59Z</time>
      </trkpt>
      <trkpt lat="43.97677" lon="7.39146">
        <ele>1662</ele>
        <time>1982-03-26T09:15:00Z</time>
      </trkpt>
      <trkpt lat="43.97676" lon="7.39142">
        <ele>1662.3</ele>
        <time>1982-03-26T09:15:01Z</time>
      </trkpt>
      <trkpt lat="43.97674" lon="7.39137">
        <ele>1662.1</ele>
        <time>1982-03-26T09:15:02Z</time>
      </trkpt>
      <trkpt lat="43.97673" lon="7.39133">
        <ele>1662.6</ele>
        <time>1982-03-26T09:15:03Z</time>
      </trkpt>
      <trkpt lat="43.97672" lon="7.39129">
        <ele>1663.2</ele>
        <time>1982-03-26T09:15:04Z</time>
      </trkpt>
      <trkpt lat="43.97673" lon="7.39125">
        <ele>1662.9</ele>
        <time>1982-03-26T09:15:05Z</time>
      </trkpt>
      <trkpt lat="43.97672" lon="7.39121">
        <ele>1662.5</ele>
        <time>1982-03-26T09:15:06Z</time>
      </trkpt>
      <trkpt lat="43.97672" lon="7.39116">
        <ele>1662.1</ele>
        <time>1982-03-26T09:15:07Z</time>
      </trkpt>
      <trkpt lat="43.97673" lon="7.39111">
        <ele>1662.3</ele>
        <time>1982-03-26T09:15:08Z</time>
      </trkpt>
      <trkpt lat="43.97673" lon="7.39106">
        <ele>1662.6</ele>
        <time>1982-03-26T09:15:09Z</time>
      </trkpt>
      <trkpt lat="43.97674" lon="7.39102">
        <ele>1662.6</ele>
        <time>1982-03-26T09:15:10Z</time>
      </trkpt>
      <trkpt lat="43.97674" lon="7.39098">
        <ele>1662.2</ele>
        <time>1982-03-26T09:15:11Z</time>
      </trkpt>
      <trkpt lat="43.97674" lon="7.39093">
        <ele>1662.1</ele>
        <time>1982-03-26T09:15:12Z</time>
      </trkpt>
      <trkpt lat="43.97675" lon="7.39088">
        <ele>1661.8</ele>
        <time>1982-03-26T09:15:13Z</time>
      </trkpt>
      <trkpt lat="43.97676" lon="7.39084">
        <ele>1661.6</ele>
        <time>1982-03-26T09:15:14Z</time>
      </trkpt>
      <trkpt lat="43.97677" lon="7.39079">
        <ele>1661.7</ele>
        <time>1982-03-26T09:15:15Z</time>
      </trkpt>
      <trkpt lat="43.97678" lon="7.39075">
        <ele>1662.1</ele>
        <time>1982-03-26T09:15:16Z</time>
      </trkpt>
      <trkpt lat="43.97679" lon="7.3907">
        <ele>1662.2</ele>
        <time>1982-03-26T09:15:17Z</time>
      </trkpt>
      <trkpt lat="43.97679" lon="7.39065">
        <ele>1662.8</ele>
        <time>1982-03-26T09:15:18Z</time>
      </trkpt>
      <trkpt lat="43.9768" lon="7.3906">
        <ele>1662.3</ele>
        <time>1982-03-26T09:15:19Z</time>
      </trkpt>
      <trkpt lat="43.9768" lon="7.39055">
        <ele>1661.7</ele>
        <time>1982-03-26T09:15:20Z</time>
      </trkpt>
      <trkpt lat="43.97681" lon="7.3905">
        <ele>1662.2</ele>
        <time>1982-03-26T09:15:21Z</time>
      </trkpt>
      <trkpt lat="43.97681" lon="7.39045">
        <ele>1662.5</ele>
        <time>1982-03-26T09:15:22Z</time>
      </trkpt>
      <trkpt lat="43.97682" lon="7.3904">
        <ele>1662.8</ele>
        <time>1982-03-26T09:15:23Z</time>
      </trkpt>
      <trkpt lat="43.97682" lon="7.39036">
        <ele>1663.5</ele>
        <time>1982-03-26T09:15:24Z</time>
      </trkpt>
      <trkpt lat="43.97682" lon="7.39031">
        <ele>1663.5</ele>
        <time>1982-03-26T09:15:25Z</time>
      </trkpt>
      <trkpt lat="43.97683" lon="7.39026">
        <ele>1663.6</ele>
        <time>1982-03-26T09:15:26Z</time>
      </trkpt>
      <trkpt lat="43.97683" lon="7.39021">
        <ele>1663.7</ele>
        <time>1982-03-26T09:15:27Z</time>
      </trkpt>
      <trkpt lat="43.97682" lon="7.39017">
        <ele>1663.6</ele>
        <time>1982-03-26T09:15:28Z</time>
      </trkpt>
      <trkpt lat="43.97681" lon="7.39012">
        <ele>1664.4</ele>
        <time>1982-03-26T09:15:29Z</time>
      </trkpt>
      <trkpt lat="43.9768" lon="7.39007">
        <ele>1664.9</ele>
        <time>1982-03-26T09:15:30Z</time>
      </trkpt>
      <trkpt lat="43.97679" lon="7.39004">
        <ele>1664.2</ele>
        <time>1982-03-26T09:15:31Z</time>
      </trkpt>
      <trkpt lat="43.97676" lon="7.39001">
        <ele>1663.5</ele>
        <time>1982-03-26T09:15:32Z</time>
      </trkpt>
      <trkpt lat="43.97673" lon="7.38997">
        <ele>1663.2</ele>
        <time>1982-03-26T09:15:33Z</time>
      </trkpt>
      <trkpt lat="43.97671" lon="7.38994">
        <ele>1662.9</ele>
        <time>1982-03-26T09:15:34Z</time>
      </trkpt>
      <trkpt lat="43.97668" lon="7.38991">
        <ele>1662.7</ele>
        <time>1982-03-26T09:15:35Z</time>
      </trkpt>
      <trkpt lat="43.97665" lon="7.38989">
        <ele>1662.7</ele>
        <time>1982-03-26T09:15:36Z</time>
      </trkpt>
      <trkpt lat="43.97662" lon="7.38988">
        <ele>1663.7</ele>
        <time>1982-03-26T09:15:37Z</time>
      </trkpt>
      <trkpt lat="43.97659" lon="7.38988">
        <ele>1664.1</ele>
        <time>1982-03-26T09:15:38Z</time>
      </trkpt>
      <trkpt lat="43.97655" lon="7.38989">
        <ele>1664.6</ele>
        <time>1982-03-26T09:15:39Z</time>
      </trkpt>
      <trkpt lat="43.97652" lon="7.38991">
        <ele>1664.2</ele>
        <time>1982-03-26T09:15:40Z</time>
      </trkpt>
      <trkpt lat="43.97649" lon="7.38992">
        <ele>1664.3</ele>
        <time>1982-03-26T09:15:41Z</time>
      </trkpt>
      <trkpt lat="43.97646" lon="7.38995">
        <ele>1664.4</ele>
        <time>1982-03-26T09:15:42Z</time>
      </trkpt>
      <trkpt lat="43.97643" lon="7.38997">
        <ele>1665</ele>
        <time>1982-03-26T09:15:43Z</time>
      </trkpt>
      <trkpt lat="43.9764" lon="7.38999">
        <ele>1664.2</ele>
        <time>1982-03-26T09:15:44Z</time>
      </trkpt>
      <trkpt lat="43.97637" lon="7.39003">
        <ele>1663.6</ele>
        <time>1982-03-26T09:15:45Z</time>
      </trkpt>
      <trkpt lat="43.97635" lon="7.39006">
        <ele>1663.3</ele>
        <time>1982-03-26T09:15:46Z</time>
      </trkpt>
      <trkpt lat="43.97632" lon="7.39009">
        <ele>1663.8</ele>
        <time>1982-03-26T09:15:47Z</time>
      </trkpt>
      <trkpt lat="43.9763" lon="7.39012">
        <ele>1664.5</ele>
        <time>1982-03-26T09:15:48Z</time>
      </trkpt>
      <trkpt lat="43.97627" lon="7.39015">
        <ele>1664</ele>
        <time>1982-03-26T09:15:49Z</time>
      </trkpt>
      <trkpt lat="43.97624" lon="7.39019">
        <ele>1663.9</ele>
        <time>1982-03-26T09:15:50Z</time>
      </trkpt>
      <trkpt lat="43.97622" lon="7.39023">
        <ele>1662.8</ele>
        <time>1982-03-26T09:15:51Z</time>
      </trkpt>
      <trkpt lat="43.97621" lon="7.39026">
        <ele>1662.1</ele>
        <time>1982-03-26T09:15:52Z</time>
      </trkpt>
      <trkpt lat="43.97619" lon="7.39029">
        <ele>1662.5</ele>
        <time>1982-03-26T09:15:53Z</time>
      </trkpt>
      <trkpt lat="43.97617" lon="7.39033">
        <ele>1662.1</ele>
        <time>1982-03-26T09:15:55Z</time>
      </trkpt>
      <trkpt lat="43.97615" lon="7.39037">
        <ele>1661.3</ele>
        <time>1982-03-26T09:15:57Z</time>
      </trkpt>
      <trkpt lat="43.97613" lon="7.39044">
        <ele>1661</ele>
        <time>1982-03-26T09:15:58Z</time>
      </trkpt>
      <trkpt lat="43.97611" lon="7.39048">
        <ele>1661.2</ele>
        <time>1982-03-26T09:15:58Z</time>
      </trkpt>
      <trkpt lat="43.97608" lon="7.39051">
        <ele>1660.9</ele>
        <time>1982-03-26T09:15:59Z</time>
      </trkpt>
      <trkpt lat="43.97606" lon="7.39055">
        <ele>1660.6</ele>
        <time>1982-03-26T09:16:00Z</time>
      </trkpt>
      <trkpt lat="43.97604" lon="7.39058">
        <ele>1660.7</ele>
        <time>1982-03-26T09:16:01Z</time>
      </trkpt>
      <trkpt lat="43.97602" lon="7.39061">
        <ele>1660</ele>
        <time>1982-03-26T09:16:02Z</time>
      </trkpt>
      <trkpt lat="43.976" lon="7.39063">
        <ele>1659.3</ele>
        <time>1982-03-26T09:16:03Z</time>
      </trkpt>
      <trkpt lat="43.97597" lon="7.39065">
        <ele>1658.6</ele>
        <time>1982-03-26T09:16:04Z</time>
      </trkpt>
      <trkpt lat="43.97595" lon="7.39066">
        <ele>1658.5</ele>
        <time>1982-03-26T09:16:05Z</time>
      </trkpt>
      <trkpt lat="43.97592" lon="7.39067">
        <ele>1658.1</ele>
        <time>1982-03-26T09:16:06Z</time>
      </trkpt>
      <trkpt lat="43.97589" lon="7.39067">
        <ele>1657.8</ele>
        <time>1982-03-26T09:16:07Z</time>
      </trkpt>
      <trkpt lat="43.97587" lon="7.39067">
        <ele>1657.6</ele>
        <time>1982-03-26T09:16:09Z</time>
      </trkpt>
      <trkpt lat="43.97585" lon="7.39067">
        <ele>1657.1</ele>
        <time>1982-03-26T09:16:09Z</time>
      </trkpt>
      <trkpt lat="43.97584" lon="7.39068">
        <ele>1656.5</ele>
        <time>1982-03-26T09:16:10Z</time>
      </trkpt>
      <trkpt lat="43.97583" lon="7.39068">
        <ele>1657.1</ele>
        <time>1982-03-26T09:16:11Z</time>
      </trkpt>
      <trkpt lat="43.97583" lon="7.39068">
        <ele>1657.1</ele>
        <time>1982-03-26T09:16:11Z</time>
      </trkpt>
      <trkpt lat="43.97582" lon="7.39067">
        <ele>1658.4</ele>
        <time>1982-03-26T09:16:13Z</time>
      </trkpt>
      <trkpt lat="43.97581" lon="7.39067">
        <ele>1659.4</ele>
        <time>1982-03-26T09:16:14Z</time>
      </trkpt>
      <trkpt lat="43.9758" lon="7.39067">
        <ele>1659.8</ele>
        <time>1982-03-26T09:16:15Z</time>
      </trkpt>
      <trkpt lat="43.97579" lon="7.39068">
        <ele>1660.1</ele>
        <time>1982-03-26T09:16:17Z</time>
      </trkpt>
      <trkpt lat="43.97579" lon="7.3907">
        <ele>1661.5</ele>
        <time>1982-03-26T09:16:20Z</time>
      </trkpt>
      <trkpt lat="43.97578" lon="7.3907">
        <ele>1662.4</ele>
        <time>1982-03-26T09:16:20Z</time>
      </trkpt>
      <trkpt lat="43.97577" lon="7.39073">
        <ele>1663</ele>
        <time>1982-03-26T09:16:21Z</time>
      </trkpt>
      <trkpt lat="43.97576" lon="7.39076">
        <ele>1664.2</ele>
        <time>1982-03-26T09:16:22Z</time>
      </trkpt>
      <trkpt lat="43.97575" lon="7.39078">
        <ele>1664.3</ele>
        <time>1982-03-26T09:16:23Z</time>
      </trkpt>
      <trkpt lat="43.97575" lon="7.39077">
        <ele>1663.7</ele>
        <time>1982-03-26T09:16:24Z</time>
      </trkpt>
      <trkpt lat="43.97576" lon="7.39076">
        <ele>1663.6</ele>
        <time>1982-03-26T09:16:25Z</time>
      </trkpt>
      <trkpt lat="43.97576" lon="7.39076">
        <ele>1663.6</ele>
        <time>1982-03-26T09:16:28Z</time>
      </trkpt>
      <trkpt lat="43.97577" lon="7.39075">
        <ele>1663.1</ele>
        <time>1982-03-26T09:16:30Z</time>
      </trkpt>
      <trkpt lat="43.97577" lon="7.39076">
        <ele>1663.2</ele>
        <time>1982-03-26T09:16:31Z</time>
      </trkpt>
      <trkpt lat="43.97577" lon="7.39076">
        <ele>1663.2</ele>
        <time>1982-03-26T09:16:35Z</time>
      </trkpt>
      <trkpt lat="43.97576" lon="7.39075">
        <ele>1663.9</ele>
        <time>1982-03-26T09:16:37Z</time>
      </trkpt>
      <trkpt lat="43.97576" lon="7.39074">
        <ele>1664.9</ele>
        <time>1982-03-26T09:16:38Z</time>
      </trkpt>
      <trkpt lat="43.97576" lon="7.39074">
        <ele>1665.7</ele>
        <time>1982-03-26T09:16:39Z</time>
      </trkpt>
      <trkpt lat="43.97576" lon="7.39074">
        <ele>1665.7</ele>
        <time>1982-03-26T09:16:39Z</time>
      </trkpt>
      <trkpt lat="43.97576" lon="7.39074">
        <ele>1665.5</ele>
        <time>1982-03-26T09:16:41Z</time>
      </trkpt>
      <trkpt lat="43.97576" lon="7.39074">
        <ele>1665.5</ele>
        <time>1982-03-26T09:16:41Z</time>
      </trkpt>
      <trkpt lat="43.97576" lon="7.39075">
        <ele>1666.8</ele>
        <time>1982-03-26T09:16:43Z</time>
      </trkpt>
      <trkpt lat="43.97575" lon="7.39075">
        <ele>1666.5</ele>
        <time>1982-03-26T09:16:44Z</time>
      </trkpt>
      <trkpt lat="43.97575" lon="7.39075">
        <ele>1666.5</ele>
        <time>1982-03-26T09:16:46Z</time>
      </trkpt>
      <trkpt lat="43.97575" lon="7.39075">
        <ele>1666.2</ele>
        <time>1982-03-26T09:16:48Z</time>
      </trkpt>
      <trkpt lat="43.97575" lon="7.39075">
        <ele>1666.2</ele>
        <time>1982-03-26T09:17:43Z</time>
      </trkpt>
      <trkpt lat="43.97573" lon="7.39074">
        <ele>1667.2</ele>
        <time>1982-03-26T09:17:45Z</time>
      </trkpt>
      <trkpt lat="43.97571" lon="7.39073">
        <ele>1667.6</ele>
        <time>1982-03-26T09:17:46Z</time>
      </trkpt>
      <trkpt lat="43.9757" lon="7.39073">
        <ele>1667.9</ele>
        <time>1982-03-26T09:17:47Z</time>
      </trkpt>
      <trkpt lat="43.97569" lon="7.39071">
        <ele>1667.8</ele>
        <time>1982-03-26T09:17:48Z</time>
      </trkpt>
      <trkpt lat="43.97567" lon="7.39069">
        <ele>1668.6</ele>
        <time>1982-03-26T09:17:51Z</time>
      </trkpt>
      <trkpt lat="43.97566" lon="7.39069">
        <ele>1668.6</ele>
        <time>1982-03-26T09:17:51Z</time>
      </trkpt>
      <trkpt lat="43.97565" lon="7.39068">
        <ele>1669.1</ele>
        <time>1982-03-26T09:17:52Z</time>
      </trkpt>
      <trkpt lat="43.97564" lon="7.39067">
        <ele>1669.9</ele>
        <time>1982-03-26T09:17:53Z</time>
      </trkpt>
      <trkpt lat="43.97562" lon="7.39067">
        <ele>1669.2</ele>
        <time>1982-03-26T09:17:54Z</time>
      </trkpt>
      <trkpt lat="43.97561" lon="7.39065">
        <ele>1668.9</ele>
        <time>1982-03-26T09:17:55Z</time>
      </trkpt>
      <trkpt lat="43.9756" lon="7.39064">
        <ele>1668.6</ele>
        <time>1982-03-26T09:17:56Z</time>
      </trkpt>
      <trkpt lat="43.97559" lon="7.39063">
        <ele>1668.2</ele>
        <time>1982-03-26T09:17:57Z</time>
      </trkpt>
      <trkpt lat="43.97558" lon="7.39063">
        <ele>1667.5</ele>
        <time>1982-03-26T09:17:58Z</time>
      </trkpt>
      <trkpt lat="43.97557" lon="7.39062">
        <ele>1667.1</ele>
        <time>1982-03-26T09:17:59Z</time>
      </trkpt>
      <trkpt lat="43.97557" lon="7.3906">
        <ele>1667.7</ele>
        <time>1982-03-26T09:18:00Z</time>
      </trkpt>
      <trkpt lat="43.97557" lon="7.3906">
        <ele>1667.7</ele>
        <time>1982-03-26T09:18:01Z</time>
      </trkpt>
      <trkpt lat="43.97554" lon="7.39058">
        <ele>1667.9</ele>
        <time>1982-03-26T09:18:03Z</time>
      </trkpt>
      <trkpt lat="43.97555" lon="7.39056">
        <ele>1669.6</ele>
        <time>1982-03-26T09:18:04Z</time>
      </trkpt>
      <trkpt lat="43.97555" lon="7.39054">
        <ele>1669.4</ele>
        <time>1982-03-26T09:18:05Z</time>
      </trkpt>
      <trkpt lat="43.97555" lon="7.39052">
        <ele>1669.4</ele>
        <time>1982-03-26T09:18:06Z</time>
      </trkpt>
      <trkpt lat="43.97555" lon="7.39049">
        <ele>1669</ele>
        <time>1982-03-26T09:18:07Z</time>
      </trkpt>
      <trkpt lat="43.97554" lon="7.39048">
        <ele>1669.2</ele>
        <time>1982-03-26T09:18:08Z</time>
      </trkpt>
      <trkpt lat="43.97553" lon="7.39047">
        <ele>1669.4</ele>
        <time>1982-03-26T09:18:09Z</time>
      </trkpt>
      <trkpt lat="43.97552" lon="7.39045">
        <ele>1669.3</ele>
        <time>1982-03-26T09:18:10Z</time>
      </trkpt>
      <trkpt lat="43.97552" lon="7.39044">
        <ele>1669.3</ele>
        <time>1982-03-26T09:18:11Z</time>
      </trkpt>
      <trkpt lat="43.97551" lon="7.39043">
        <ele>1669.1</ele>
        <time>1982-03-26T09:18:12Z</time>
      </trkpt>
      <trkpt lat="43.9755" lon="7.39041">
        <ele>1669.1</ele>
        <time>1982-03-26T09:18:13Z</time>
      </trkpt>
      <trkpt lat="43.97549" lon="7.3904">
        <ele>1668.7</ele>
        <time>1982-03-26T09:18:14Z</time>
      </trkpt>
      <trkpt lat="43.9755" lon="7.39037">
        <ele>1667.6</ele>
        <time>1982-03-26T09:18:15Z</time>
      </trkpt>
      <trkpt lat="43.97549" lon="7.39036">
        <ele>1667.7</ele>
        <time>1982-03-26T09:18:16Z</time>
      </trkpt>
      <trkpt lat="43.97549" lon="7.39033">
        <ele>1667.2</ele>
        <time>1982-03-26T09:18:18Z</time>
      </trkpt>
      <trkpt lat="43.97549" lon="7.39031">
        <ele>1666.8</ele>
        <time>1982-03-26T09:18:19Z</time>
      </trkpt>
      <trkpt lat="43.97549" lon="7.39029">
        <ele>1667</ele>
        <time>1982-03-26T09:18:20Z</time>
      </trkpt>
      <trkpt lat="43.97549" lon="7.39027">
        <ele>1667.1</ele>
        <time>1982-03-26T09:18:21Z</time>
      </trkpt>
      <trkpt lat="43.97549" lon="7.39025">
        <ele>1667.3</ele>
        <time>1982-03-26T09:18:22Z</time>
      </trkpt>
      <trkpt lat="43.97549" lon="7.39023">
        <ele>1668.3</ele>
        <time>1982-03-26T09:18:23Z</time>
      </trkpt>
      <trkpt lat="43.97549" lon="7.39022">
        <ele>1668</ele>
        <time>1982-03-26T09:18:24Z</time>
      </trkpt>
      <trkpt lat="43.97548" lon="7.3902">
        <ele>1668.5</ele>
        <time>1982-03-26T09:18:25Z</time>
      </trkpt>
      <trkpt lat="43.97548" lon="7.39018">
        <ele>1668.5</ele>
        <time>1982-03-26T09:18:26Z</time>
      </trkpt>
      <trkpt lat="43.97548" lon="7.39016">
        <ele>1668.8</ele>
        <time>1982-03-26T09:18:27Z</time>
      </trkpt>
      <trkpt lat="43.97548" lon="7.39014">
        <ele>1668.7</ele>
        <time>1982-03-26T09:18:28Z</time>
      </trkpt>
      <trkpt lat="43.97547" lon="7.39011">
        <ele>1669</ele>
        <time>1982-03-26T09:18:29Z</time>
      </trkpt>
      <trkpt lat="43.97548" lon="7.39009">
        <ele>1667.4</ele>
        <time>1982-03-26T09:18:30Z</time>
      </trkpt>
      <trkpt lat="43.97547" lon="7.39009">
        <ele>1667.1</ele>
        <time>1982-03-26T09:18:31Z</time>
      </trkpt>
      <trkpt lat="43.97547" lon="7.39005">
        <ele>1667</ele>
        <time>1982-03-26T09:18:33Z</time>
      </trkpt>
      <trkpt lat="43.97547" lon="7.39004">
        <ele>1667.6</ele>
        <time>1982-03-26T09:18:34Z</time>
      </trkpt>
      <trkpt lat="43.97546" lon="7.39001">
        <ele>1667.3</ele>
        <time>1982-03-26T09:18:35Z</time>
      </trkpt>
      <trkpt lat="43.97546" lon="7.39">
        <ele>1666.5</ele>
        <time>1982-03-26T09:18:36Z</time>
      </trkpt>
      <trkpt lat="43.97546" lon="7.38998">
        <ele>1667.2</ele>
        <time>1982-03-26T09:18:37Z</time>
      </trkpt>
      <trkpt lat="43.97547" lon="7.38996">
        <ele>1667.8</ele>
        <time>1982-03-26T09:18:38Z</time>
      </trkpt>
      <trkpt lat="43.97548" lon="7.38994">
        <ele>1669.2</ele>
        <time>1982-03-26T09:18:39Z</time>
      </trkpt>
      <trkpt lat="43.97548" lon="7.38992">
        <ele>1669.6</ele>
        <time>1982-03-26T09:18:40Z</time>
      </trkpt>
      <trkpt lat="43.97548" lon="7.3899">
        <ele>1671.6</ele>
        <time>1982-03-26T09:18:41Z</time>
      </trkpt>
      <trkpt lat="43.97547" lon="7.3899">
        <ele>1671.6</ele>
        <time>1982-03-26T09:18:42Z</time>
      </trkpt>
      <trkpt lat="43.97546" lon="7.38987">
        <ele>1672.5</ele>
        <time>1982-03-26T09:18:44Z</time>
      </trkpt>
      <trkpt lat="43.97546" lon="7.38985">
        <ele>1673.2</ele>
        <time>1982-03-26T09:18:45Z</time>
      </trkpt>
      <trkpt lat="43.97546" lon="7.38983">
        <ele>1673.5</ele>
        <time>1982-03-26T09:18:46Z</time>
      </trkpt>
      <trkpt lat="43.97545" lon="7.38982">
        <ele>1674.2</ele>
        <time>1982-03-26T09:18:47Z</time>
      </trkpt>
      <trkpt lat="43.97545" lon="7.3898">
        <ele>1674.5</ele>
        <time>1982-03-26T09:18:48Z</time>
      </trkpt>
      <trkpt lat="43.97544" lon="7.38977">
        <ele>1675.5</ele>
        <time>1982-03-26T09:18:50Z</time>
      </trkpt>
      <trkpt lat="43.97543" lon="7.38976">
        <ele>1674.1</ele>
        <time>1982-03-26T09:18:51Z</time>
      </trkpt>
      <trkpt lat="43.97543" lon="7.38975">
        <ele>1673.2</ele>
        <time>1982-03-26T09:18:52Z</time>
      </trkpt>
      <trkpt lat="43.97541" lon="7.38974">
        <ele>1673.5</ele>
        <time>1982-03-26T09:18:53Z</time>
      </trkpt>
      <trkpt lat="43.97541" lon="7.38972">
        <ele>1673.3</ele>
        <time>1982-03-26T09:18:54Z</time>
      </trkpt>
      <trkpt lat="43.97541" lon="7.3897">
        <ele>1673.2</ele>
        <time>1982-03-26T09:18:56Z</time>
      </trkpt>
      <trkpt lat="43.97542" lon="7.38968">
        <ele>1673.5</ele>
        <time>1982-03-26T09:18:58Z</time>
      </trkpt>
      <trkpt lat="43.9754" lon="7.38966">
        <ele>1673.5</ele>
        <time>1982-03-26T09:18:58Z</time>
      </trkpt>
      <trkpt lat="43.9754" lon="7.38963">
        <ele>1673.2</ele>
        <time>1982-03-26T09:18:59Z</time>
      </trkpt>
      <trkpt lat="43.9754" lon="7.38961">
        <ele>1673.3</ele>
        <time>1982-03-26T09:19:00Z</time>
      </trkpt>
      <trkpt lat="43.97539" lon="7.38959">
        <ele>1671.9</ele>
        <time>1982-03-26T09:19:01Z</time>
      </trkpt>
      <trkpt lat="43.97539" lon="7.38957">
        <ele>1671.2</ele>
        <time>1982-03-26T09:19:02Z</time>
      </trkpt>
      <trkpt lat="43.9754" lon="7.38956">
        <ele>1671.2</ele>
        <time>1982-03-26T09:19:03Z</time>
      </trkpt>
      <trkpt lat="43.9754" lon="7.38954">
        <ele>1671</ele>
        <time>1982-03-26T09:19:04Z</time>
      </trkpt>
      <trkpt lat="43.9754" lon="7.38952">
        <ele>1671.7</ele>
        <time>1982-03-26T09:19:05Z</time>
      </trkpt>
      <trkpt lat="43.9754" lon="7.3895">
        <ele>1672.2</ele>
        <time>1982-03-26T09:19:06Z</time>
      </trkpt>
      <trkpt lat="43.97541" lon="7.38948">
        <ele>1671.8</ele>
        <time>1982-03-26T09:19:07Z</time>
      </trkpt>
      <trkpt lat="43.97542" lon="7.38946">
        <ele>1671.3</ele>
        <time>1982-03-26T09:19:08Z</time>
      </trkpt>
      <trkpt lat="43.97542" lon="7.38944">
        <ele>1671.6</ele>
        <time>1982-03-26T09:19:09Z</time>
      </trkpt>
      <trkpt lat="43.97541" lon="7.38942">
        <ele>1673.3</ele>
        <time>1982-03-26T09:19:10Z</time>
      </trkpt>
      <trkpt lat="43.9754" lon="7.3894">
        <ele>1673.8</ele>
        <time>1982-03-26T09:19:11Z</time>
      </trkpt>
      <trkpt lat="43.9754" lon="7.38939">
        <ele>1673.3</ele>
        <time>1982-03-26T09:19:12Z</time>
      </trkpt>
      <trkpt lat="43.97539" lon="7.38937">
        <ele>1673.8</ele>
        <time>1982-03-26T09:19:13Z</time>
      </trkpt>
      <trkpt lat="43.97538" lon="7.38936">
        <ele>1673.5</ele>
        <time>1982-03-26T09:19:14Z</time>
      </trkpt>
      <trkpt lat="43.97538" lon="7.38935">
        <ele>1673.6</ele>
        <time>1982-03-26T09:19:15Z</time>
      </trkpt>
      <trkpt lat="43.97537" lon="7.38934">
        <ele>1673.7</ele>
        <time>1982-03-26T09:19:16Z</time>
      </trkpt>
      <trkpt lat="43.97537" lon="7.38932">
        <ele>1673.4</ele>
        <time>1982-03-26T09:19:17Z</time>
      </trkpt>
      <trkpt lat="43.97537" lon="7.3893">
        <ele>1673.2</ele>
        <time>1982-03-26T09:19:18Z</time>
      </trkpt>
      <trkpt lat="43.97537" lon="7.38927">
        <ele>1673.7</ele>
        <time>1982-03-26T09:19:19Z</time>
      </trkpt>
      <trkpt lat="43.97537" lon="7.38924">
        <ele>1673.3</ele>
        <time>1982-03-26T09:19:20Z</time>
      </trkpt>
      <trkpt lat="43.97537" lon="7.38921">
        <ele>1674</ele>
        <time>1982-03-26T09:19:21Z</time>
      </trkpt>
      <trkpt lat="43.97536" lon="7.38917">
        <ele>1674.3</ele>
        <time>1982-03-26T09:19:22Z</time>
      </trkpt>
      <trkpt lat="43.97538" lon="7.38912">
        <ele>1674.2</ele>
        <time>1982-03-26T09:19:23Z</time>
      </trkpt>
      <trkpt lat="43.9754" lon="7.38907">
        <ele>1673.7</ele>
        <time>1982-03-26T09:19:24Z</time>
      </trkpt>
      <trkpt lat="43.97542" lon="7.389">
        <ele>1673</ele>
        <time>1982-03-26T09:19:25Z</time>
      </trkpt>
      <trkpt lat="43.97544" lon="7.38893">
        <ele>1672.9</ele>
        <time>1982-03-26T09:19:26Z</time>
      </trkpt>
      <trkpt lat="43.97546" lon="7.38886">
        <ele>1672.6</ele>
        <time>1982-03-26T09:19:27Z</time>
      </trkpt>
      <trkpt lat="43.9755" lon="7.38879">
        <ele>1672.3</ele>
        <time>1982-03-26T09:19:28Z</time>
      </trkpt>
      <trkpt lat="43.9755" lon="7.3887">
        <ele>1671.3</ele>
        <time>1982-03-26T09:19:29Z</time>
      </trkpt>
      <trkpt lat="43.97551" lon="7.38861">
        <ele>1670.5</ele>
        <time>1982-03-26T09:19:30Z</time>
      </trkpt>
      <trkpt lat="43.97551" lon="7.38854">
        <ele>1670.2</ele>
        <time>1982-03-26T09:19:31Z</time>
      </trkpt>
      <trkpt lat="43.97549" lon="7.38846">
        <ele>1669.3</ele>
        <time>1982-03-26T09:19:32Z</time>
      </trkpt>
      <trkpt lat="43.97547" lon="7.38838">
        <ele>1669.6</ele>
        <time>1982-03-26T09:19:33Z</time>
      </trkpt>
      <trkpt lat="43.97544" lon="7.38833">
        <ele>1669</ele>
        <time>1982-03-26T09:19:34Z</time>
      </trkpt>
      <trkpt lat="43.97541" lon="7.38827">
        <ele>1667.9</ele>
        <time>1982-03-26T09:19:35Z</time>
      </trkpt>
      <trkpt lat="43.9754" lon="7.38818">
        <ele>1667.6</ele>
        <time>1982-03-26T09:19:36Z</time>
      </trkpt>
      <trkpt lat="43.97539" lon="7.3881">
        <ele>1667.4</ele>
        <time>1982-03-26T09:19:37Z</time>
      </trkpt>
      <trkpt lat="43.97537" lon="7.38804">
        <ele>1669.3</ele>
        <time>1982-03-26T09:19:38Z</time>
      </trkpt>
      <trkpt lat="43.97536" lon="7.388">
        <ele>1671.5</ele>
        <time>1982-03-26T09:19:39Z</time>
      </trkpt>
      <trkpt lat="43.97535" lon="7.38796">
        <ele>1673.1</ele>
        <time>1982-03-26T09:19:40Z</time>
      </trkpt>
      <trkpt lat="43.97535" lon="7.38791">
        <ele>1673.5</ele>
        <time>1982-03-26T09:19:41Z</time>
      </trkpt>
      <trkpt lat="43.97535" lon="7.38787">
        <ele>1674</ele>
        <time>1982-03-26T09:19:42Z</time>
      </trkpt>
      <trkpt lat="43.97535" lon="7.38786">
        <ele>1675.1</ele>
        <time>1982-03-26T09:19:43Z</time>
      </trkpt>
      <trkpt lat="43.97535" lon="7.38783">
        <ele>1675.7</ele>
        <time>1982-03-26T09:19:44Z</time>
      </trkpt>
      <trkpt lat="43.97535" lon="7.38781">
        <ele>1676.4</ele>
        <time>1982-03-26T09:19:45Z</time>
      </trkpt>
      <trkpt lat="43.97534" lon="7.38778">
        <ele>1676.3</ele>
        <time>1982-03-26T09:19:46Z</time>
      </trkpt>
      <trkpt lat="43.97534" lon="7.38775">
        <ele>1675.7</ele>
        <time>1982-03-26T09:19:47Z</time>
      </trkpt>
      <trkpt lat="43.97535" lon="7.38773">
        <ele>1677</ele>
        <time>1982-03-26T09:19:48Z</time>
      </trkpt>
      <trkpt lat="43.97534" lon="7.3877">
        <ele>1678</ele>
        <time>1982-03-26T09:19:49Z</time>
      </trkpt>
      <trkpt lat="43.97532" lon="7.38769">
        <ele>1678</ele>
        <time>1982-03-26T09:19:50Z</time>
      </trkpt>
      <trkpt lat="43.97531" lon="7.38767">
        <ele>1677.5</ele>
        <time>1982-03-26T09:19:51Z</time>
      </trkpt>
      <trkpt lat="43.97534" lon="7.38764">
        <ele>1676.3</ele>
        <time>1982-03-26T09:19:52Z</time>
      </trkpt>
      <trkpt lat="43.97531" lon="7.38762">
        <ele>1678.7</ele>
        <time>1982-03-26T09:19:53Z</time>
      </trkpt>
      <trkpt lat="43.97532" lon="7.38761">
        <ele>1678.6</ele>
        <time>1982-03-26T09:19:54Z</time>
      </trkpt>
      <trkpt lat="43.97531" lon="7.38758">
        <ele>1679.1</ele>
        <time>1982-03-26T09:19:55Z</time>
      </trkpt>
      <trkpt lat="43.97529" lon="7.38755">
        <ele>1679.5</ele>
        <time>1982-03-26T09:19:56Z</time>
      </trkpt>
      <trkpt lat="43.97528" lon="7.38754">
        <ele>1679.9</ele>
        <time>1982-03-26T09:19:57Z</time>
      </trkpt>
      <trkpt lat="43.97527" lon="7.38752">
        <ele>1680.8</ele>
        <time>1982-03-26T09:19:58Z</time>
      </trkpt>
      <trkpt lat="43.97525" lon="7.38749">
        <ele>1680.3</ele>
        <time>1982-03-26T09:19:59Z</time>
      </trkpt>
      <trkpt lat="43.97523" lon="7.38746">
        <ele>1679.6</ele>
        <time>1982-03-26T09:20:00Z</time>
      </trkpt>
      <trkpt lat="43.97522" lon="7.38745">
        <ele>1679.5</ele>
        <time>1982-03-26T09:20:01Z</time>
      </trkpt>
      <trkpt lat="43.9752" lon="7.38744">
        <ele>1678.6</ele>
        <time>1982-03-26T09:20:02Z</time>
      </trkpt>
      <trkpt lat="43.97519" lon="7.3874">
        <ele>1679.1</ele>
        <time>1982-03-26T09:20:03Z</time>
      </trkpt>
      <trkpt lat="43.97518" lon="7.38738">
        <ele>1679.2</ele>
        <time>1982-03-26T09:20:04Z</time>
      </trkpt>
      <trkpt lat="43.97517" lon="7.38737">
        <ele>1678.5</ele>
        <time>1982-03-26T09:20:05Z</time>
      </trkpt>
      <trkpt lat="43.97516" lon="7.38734">
        <ele>1678.9</ele>
        <time>1982-03-26T09:20:06Z</time>
      </trkpt>
      <trkpt lat="43.97514" lon="7.38732">
        <ele>1679.3</ele>
        <time>1982-03-26T09:20:07Z</time>
      </trkpt>
      <trkpt lat="43.97513" lon="7.3873">
        <ele>1679.3</ele>
        <time>1982-03-26T09:20:08Z</time>
      </trkpt>
      <trkpt lat="43.97511" lon="7.38728">
        <ele>1679.8</ele>
        <time>1982-03-26T09:20:09Z</time>
      </trkpt>
      <trkpt lat="43.97511" lon="7.38726">
        <ele>1680.6</ele>
        <time>1982-03-26T09:20:10Z</time>
      </trkpt>
      <trkpt lat="43.9751" lon="7.38724">
        <ele>1680.8</ele>
        <time>1982-03-26T09:20:11Z</time>
      </trkpt>
      <trkpt lat="43.97512" lon="7.38723">
        <ele>1680.5</ele>
        <time>1982-03-26T09:20:12Z</time>
      </trkpt>
      <trkpt lat="43.9751" lon="7.38721">
        <ele>1682.1</ele>
        <time>1982-03-26T09:20:13Z</time>
      </trkpt>
      <trkpt lat="43.97508" lon="7.38719">
        <ele>1682.8</ele>
        <time>1982-03-26T09:20:14Z</time>
      </trkpt>
      <trkpt lat="43.97508" lon="7.38716">
        <ele>1683.1</ele>
        <time>1982-03-26T09:20:15Z</time>
      </trkpt>
      <trkpt lat="43.97507" lon="7.38715">
        <ele>1683.2</ele>
        <time>1982-03-26T09:20:16Z</time>
      </trkpt>
      <trkpt lat="43.97506" lon="7.38712">
        <ele>1684.3</ele>
        <time>1982-03-26T09:20:17Z</time>
      </trkpt>
      <trkpt lat="43.97506" lon="7.38711">
        <ele>1683.6</ele>
        <time>1982-03-26T09:20:18Z</time>
      </trkpt>
      <trkpt lat="43.97506" lon="7.38709">
        <ele>1682.7</ele>
        <time>1982-03-26T09:20:19Z</time>
      </trkpt>
      <trkpt lat="43.97506" lon="7.38708">
        <ele>1682.2</ele>
        <time>1982-03-26T09:20:20Z</time>
      </trkpt>
      <trkpt lat="43.97506" lon="7.38706">
        <ele>1680.9</ele>
        <time>1982-03-26T09:20:21Z</time>
      </trkpt>
      <trkpt lat="43.97506" lon="7.38704">
        <ele>1679.7</ele>
        <time>1982-03-26T09:20:22Z</time>
      </trkpt>
      <trkpt lat="43.97504" lon="7.38702">
        <ele>1680.6</ele>
        <time>1982-03-26T09:20:23Z</time>
      </trkpt>
      <trkpt lat="43.97503" lon="7.38701">
        <ele>1681.9</ele>
        <time>1982-03-26T09:20:24Z</time>
      </trkpt>
      <trkpt lat="43.97502" lon="7.387">
        <ele>1682</ele>
        <time>1982-03-26T09:20:25Z</time>
      </trkpt>
      <trkpt lat="43.97501" lon="7.38699">
        <ele>1682.2</ele>
        <time>1982-03-26T09:20:26Z</time>
      </trkpt>
      <trkpt lat="43.975" lon="7.38697">
        <ele>1682.1</ele>
        <time>1982-03-26T09:20:27Z</time>
      </trkpt>
      <trkpt lat="43.97499" lon="7.38696">
        <ele>1682.7</ele>
        <time>1982-03-26T09:20:28Z</time>
      </trkpt>
      <trkpt lat="43.97497" lon="7.38694">
        <ele>1682.6</ele>
        <time>1982-03-26T09:20:29Z</time>
      </trkpt>
      <trkpt lat="43.97496" lon="7.38693">
        <ele>1683</ele>
        <time>1982-03-26T09:20:30Z</time>
      </trkpt>
      <trkpt lat="43.97495" lon="7.38692">
        <ele>1682.2</ele>
        <time>1982-03-26T09:20:31Z</time>
      </trkpt>
      <trkpt lat="43.97493" lon="7.38691">
        <ele>1681.3</ele>
        <time>1982-03-26T09:20:32Z</time>
      </trkpt>
      <trkpt lat="43.97492" lon="7.38689">
        <ele>1680.7</ele>
        <time>1982-03-26T09:20:33Z</time>
      </trkpt>
      <trkpt lat="43.97489" lon="7.38688">
        <ele>1680.5</ele>
        <time>1982-03-26T09:20:34Z</time>
      </trkpt>
      <trkpt lat="43.97489" lon="7.38687">
        <ele>1680.8</ele>
        <time>1982-03-26T09:20:35Z</time>
      </trkpt>
      <trkpt lat="43.97488" lon="7.38687">
        <ele>1680.7</ele>
        <time>1982-03-26T09:20:36Z</time>
      </trkpt>
      <trkpt lat="43.97487" lon="7.38686">
        <ele>1680</ele>
        <time>1982-03-26T09:20:37Z</time>
      </trkpt>
      <trkpt lat="43.97487" lon="7.38684">
        <ele>1680.1</ele>
        <time>1982-03-26T09:20:38Z</time>
      </trkpt>
      <trkpt lat="43.97486" lon="7.38682">
        <ele>1681.5</ele>
        <time>1982-03-26T09:20:39Z</time>
      </trkpt>
      <trkpt lat="43.97485" lon="7.38681">
        <ele>1681.2</ele>
        <time>1982-03-26T09:20:40Z</time>
      </trkpt>
      <trkpt lat="43.97484" lon="7.38679">
        <ele>1681.2</ele>
        <time>1982-03-26T09:20:41Z</time>
      </trkpt>
      <trkpt lat="43.97483" lon="7.38678">
        <ele>1680.9</ele>
        <time>1982-03-26T09:20:42Z</time>
      </trkpt>
      <trkpt lat="43.97482" lon="7.38677">
        <ele>1680.6</ele>
        <time>1982-03-26T09:20:43Z</time>
      </trkpt>
      <trkpt lat="43.97481" lon="7.38675">
        <ele>1681.4</ele>
        <time>1982-03-26T09:20:44Z</time>
      </trkpt>
      <trkpt lat="43.9748" lon="7.38673">
        <ele>1682.3</ele>
        <time>1982-03-26T09:20:45Z</time>
      </trkpt>
      <trkpt lat="43.97479" lon="7.38672">
        <ele>1683.1</ele>
        <time>1982-03-26T09:20:46Z</time>
      </trkpt>
      <trkpt lat="43.97478" lon="7.38671">
        <ele>1682.9</ele>
        <time>1982-03-26T09:20:47Z</time>
      </trkpt>
      <trkpt lat="43.97477" lon="7.38669">
        <ele>1682.8</ele>
        <time>1982-03-26T09:20:48Z</time>
      </trkpt>
      <trkpt lat="43.97476" lon="7.38668">
        <ele>1683.8</ele>
        <time>1982-03-26T09:20:49Z</time>
      </trkpt>
      <trkpt lat="43.97475" lon="7.38666">
        <ele>1684.5</ele>
        <time>1982-03-26T09:20:50Z</time>
      </trkpt>
      <trkpt lat="43.97474" lon="7.38665">
        <ele>1685.7</ele>
        <time>1982-03-26T09:20:51Z</time>
      </trkpt>
      <trkpt lat="43.97473" lon="7.38663">
        <ele>1685.8</ele>
        <time>1982-03-26T09:20:52Z</time>
      </trkpt>
      <trkpt lat="43.97472" lon="7.38662">
        <ele>1685.5</ele>
        <time>1982-03-26T09:20:53Z</time>
      </trkpt>
      <trkpt lat="43.97471" lon="7.38661">
        <ele>1685.5</ele>
        <time>1982-03-26T09:20:54Z</time>
      </trkpt>
      <trkpt lat="43.9747" lon="7.38659">
        <ele>1685.8</ele>
        <time>1982-03-26T09:20:55Z</time>
      </trkpt>
      <trkpt lat="43.97469" lon="7.38657">
        <ele>1685.3</ele>
        <time>1982-03-26T09:20:56Z</time>
      </trkpt>
      <trkpt lat="43.97467" lon="7.38657">
        <ele>1684.4</ele>
        <time>1982-03-26T09:20:57Z</time>
      </trkpt>
      <trkpt lat="43.97466" lon="7.38655">
        <ele>1684.3</ele>
        <time>1982-03-26T09:20:58Z</time>
      </trkpt>
      <trkpt lat="43.97465" lon="7.38654">
        <ele>1684.6</ele>
        <time>1982-03-26T09:20:59Z</time>
      </trkpt>
      <trkpt lat="43.97464" lon="7.38653">
        <ele>1684.9</ele>
        <time>1982-03-26T09:21:00Z</time>
      </trkpt>
      <trkpt lat="43.97462" lon="7.38652">
        <ele>1683.9</ele>
        <time>1982-03-26T09:21:01Z</time>
      </trkpt>
      <trkpt lat="43.97461" lon="7.3865">
        <ele>1683.3</ele>
        <time>1982-03-26T09:21:02Z</time>
      </trkpt>
      <trkpt lat="43.9746" lon="7.38649">
        <ele>1683.2</ele>
        <time>1982-03-26T09:21:03Z</time>
      </trkpt>
      <trkpt lat="43.97459" lon="7.38649">
        <ele>1682.7</ele>
        <time>1982-03-26T09:21:04Z</time>
      </trkpt>
      <trkpt lat="43.97458" lon="7.38646">
        <ele>1680.9</ele>
        <time>1982-03-26T09:21:06Z</time>
      </trkpt>
      <trkpt lat="43.97458" lon="7.38645">
        <ele>1680.5</ele>
        <time>1982-03-26T09:21:07Z</time>
      </trkpt>
      <trkpt lat="43.97458" lon="7.38643">
        <ele>1680.1</ele>
        <time>1982-03-26T09:21:08Z</time>
      </trkpt>
      <trkpt lat="43.97457" lon="7.38642">
        <ele>1679.2</ele>
        <time>1982-03-26T09:21:09Z</time>
      </trkpt>
      <trkpt lat="43.97457" lon="7.38641">
        <ele>1678.4</ele>
        <time>1982-03-26T09:21:10Z</time>
      </trkpt>
      <trkpt lat="43.97457" lon="7.3864">
        <ele>1678.4</ele>
        <time>1982-03-26T09:21:11Z</time>
      </trkpt>
      <trkpt lat="43.97454" lon="7.38637">
        <ele>1678</ele>
        <time>1982-03-26T09:21:13Z</time>
      </trkpt>
      <trkpt lat="43.97454" lon="7.38636">
        <ele>1678.3</ele>
        <time>1982-03-26T09:21:14Z</time>
      </trkpt>
      <trkpt lat="43.97452" lon="7.38635">
        <ele>1678.2</ele>
        <time>1982-03-26T09:21:15Z</time>
      </trkpt>
      <trkpt lat="43.97451" lon="7.38634">
        <ele>1678.6</ele>
        <time>1982-03-26T09:21:16Z</time>
      </trkpt>
      <trkpt lat="43.97448" lon="7.38632">
        <ele>1679</ele>
        <time>1982-03-26T09:21:17Z</time>
      </trkpt>
      <trkpt lat="43.97447" lon="7.3863">
        <ele>1679.9</ele>
        <time>1982-03-26T09:21:18Z</time>
      </trkpt>
      <trkpt lat="43.97447" lon="7.38627">
        <ele>1681.1</ele>
        <time>1982-03-26T09:21:19Z</time>
      </trkpt>
      <trkpt lat="43.97445" lon="7.38626">
        <ele>1681.4</ele>
        <time>1982-03-26T09:21:20Z</time>
      </trkpt>
      <trkpt lat="43.97445" lon="7.38622">
        <ele>1682.6</ele>
        <time>1982-03-26T09:21:21Z</time>
      </trkpt>
      <trkpt lat="43.97444" lon="7.3862">
        <ele>1684.8</ele>
        <time>1982-03-26T09:21:22Z</time>
      </trkpt>
      <trkpt lat="43.97443" lon="7.38618">
        <ele>1685.6</ele>
        <time>1982-03-26T09:21:23Z</time>
      </trkpt>
      <trkpt lat="43.97441" lon="7.38618">
        <ele>1685.4</ele>
        <time>1982-03-26T09:21:24Z</time>
      </trkpt>
      <trkpt lat="43.97441" lon="7.38615">
        <ele>1686.1</ele>
        <time>1982-03-26T09:21:25Z</time>
      </trkpt>
      <trkpt lat="43.97439" lon="7.38613">
        <ele>1685.8</ele>
        <time>1982-03-26T09:21:26Z</time>
      </trkpt>
      <trkpt lat="43.97435" lon="7.38611">
        <ele>1685.3</ele>
        <time>1982-03-26T09:21:27Z</time>
      </trkpt>
      <trkpt lat="43.97434" lon="7.38608">
        <ele>1684.9</ele>
        <time>1982-03-26T09:21:28Z</time>
      </trkpt>
      <trkpt lat="43.97433" lon="7.38608">
        <ele>1684.6</ele>
        <time>1982-03-26T09:21:29Z</time>
      </trkpt>
      <trkpt lat="43.97433" lon="7.38607">
        <ele>1685</ele>
        <time>1982-03-26T09:21:30Z</time>
      </trkpt>
      <trkpt lat="43.97432" lon="7.38605">
        <ele>1685.3</ele>
        <time>1982-03-26T09:21:31Z</time>
      </trkpt>
      <trkpt lat="43.97431" lon="7.38604">
        <ele>1685.2</ele>
        <time>1982-03-26T09:21:32Z</time>
      </trkpt>
      <trkpt lat="43.9743" lon="7.38604">
        <ele>1685</ele>
        <time>1982-03-26T09:21:33Z</time>
      </trkpt>
      <trkpt lat="43.97429" lon="7.38602">
        <ele>1685</ele>
        <time>1982-03-26T09:21:35Z</time>
      </trkpt>
      <trkpt lat="43.97428" lon="7.386">
        <ele>1685.2</ele>
        <time>1982-03-26T09:21:36Z</time>
      </trkpt>
      <trkpt lat="43.97427" lon="7.38599">
        <ele>1683.8</ele>
        <time>1982-03-26T09:21:37Z</time>
      </trkpt>
      <trkpt lat="43.97426" lon="7.38598">
        <ele>1683.3</ele>
        <time>1982-03-26T09:21:38Z</time>
      </trkpt>
      <trkpt lat="43.97425" lon="7.38596">
        <ele>1683.2</ele>
        <time>1982-03-26T09:21:39Z</time>
      </trkpt>
      <trkpt lat="43.97425" lon="7.38594">
        <ele>1684.2</ele>
        <time>1982-03-26T09:21:40Z</time>
      </trkpt>
      <trkpt lat="43.97424" lon="7.38593">
        <ele>1684.7</ele>
        <time>1982-03-26T09:21:41Z</time>
      </trkpt>
      <trkpt lat="43.97424" lon="7.38592">
        <ele>1685.1</ele>
        <time>1982-03-26T09:21:42Z</time>
      </trkpt>
      <trkpt lat="43.97423" lon="7.3859">
        <ele>1685.2</ele>
        <time>1982-03-26T09:21:43Z</time>
      </trkpt>
      <trkpt lat="43.97422" lon="7.3859">
        <ele>1683.9</ele>
        <time>1982-03-26T09:21:44Z</time>
      </trkpt>
      <trkpt lat="43.97421" lon="7.38589">
        <ele>1684.8</ele>
        <time>1982-03-26T09:21:45Z</time>
      </trkpt>
      <trkpt lat="43.9742" lon="7.38589">
        <ele>1685</ele>
        <time>1982-03-26T09:21:46Z</time>
      </trkpt>
      <trkpt lat="43.9742" lon="7.3859">
        <ele>1685.8</ele>
        <time>1982-03-26T09:21:47Z</time>
      </trkpt>
      <trkpt lat="43.97416" lon="7.38591">
        <ele>1685.9</ele>
        <time>1982-03-26T09:21:49Z</time>
      </trkpt>
      <trkpt lat="43.97416" lon="7.38592">
        <ele>1686.4</ele>
        <time>1982-03-26T09:21:50Z</time>
      </trkpt>
      <trkpt lat="43.97415" lon="7.38594">
        <ele>1686.5</ele>
        <time>1982-03-26T09:21:51Z</time>
      </trkpt>
      <trkpt lat="43.97416" lon="7.38595">
        <ele>1686.8</ele>
        <time>1982-03-26T09:21:52Z</time>
      </trkpt>
      <trkpt lat="43.97416" lon="7.38596">
        <ele>1687.1</ele>
        <time>1982-03-26T09:21:53Z</time>
      </trkpt>
      <trkpt lat="43.97417" lon="7.38598">
        <ele>1687.7</ele>
        <time>1982-03-26T09:21:54Z</time>
      </trkpt>
      <trkpt lat="43.97418" lon="7.38599">
        <ele>1688.9</ele>
        <time>1982-03-26T09:21:55Z</time>
      </trkpt>
      <trkpt lat="43.97419" lon="7.386">
        <ele>1689</ele>
        <time>1982-03-26T09:21:56Z</time>
      </trkpt>
      <trkpt lat="43.97419" lon="7.38602">
        <ele>1689.3</ele>
        <time>1982-03-26T09:21:57Z</time>
      </trkpt>
      <trkpt lat="43.9742" lon="7.38603">
        <ele>1689.4</ele>
        <time>1982-03-26T09:21:58Z</time>
      </trkpt>
      <trkpt lat="43.97421" lon="7.38605">
        <ele>1689.5</ele>
        <time>1982-03-26T09:21:59Z</time>
      </trkpt>
      <trkpt lat="43.97421" lon="7.38606">
        <ele>1689.7</ele>
        <time>1982-03-26T09:22:00Z</time>
      </trkpt>
      <trkpt lat="43.97421" lon="7.38607">
        <ele>1689.4</ele>
        <time>1982-03-26T09:22:01Z</time>
      </trkpt>
      <trkpt lat="43.97422" lon="7.38609">
        <ele>1689.9</ele>
        <time>1982-03-26T09:22:02Z</time>
      </trkpt>
      <trkpt lat="43.97423" lon="7.3861">
        <ele>1690.6</ele>
        <time>1982-03-26T09:22:03Z</time>
      </trkpt>
      <trkpt lat="43.97424" lon="7.38612">
        <ele>1691.4</ele>
        <time>1982-03-26T09:22:04Z</time>
      </trkpt>
      <trkpt lat="43.97425" lon="7.38613">
        <ele>1691.7</ele>
        <time>1982-03-26T09:22:05Z</time>
      </trkpt>
      <trkpt lat="43.97426" lon="7.38614">
        <ele>1692</ele>
        <time>1982-03-26T09:22:06Z</time>
      </trkpt>
      <trkpt lat="43.97427" lon="7.38616">
        <ele>1692.9</ele>
        <time>1982-03-26T09:22:07Z</time>
      </trkpt>
      <trkpt lat="43.97427" lon="7.38617">
        <ele>1692.8</ele>
        <time>1982-03-26T09:22:08Z</time>
      </trkpt>
      <trkpt lat="43.97428" lon="7.38619">
        <ele>1692.8</ele>
        <time>1982-03-26T09:22:09Z</time>
      </trkpt>
      <trkpt lat="43.97429" lon="7.38621">
        <ele>1692.2</ele>
        <time>1982-03-26T09:22:10Z</time>
      </trkpt>
      <trkpt lat="43.97428" lon="7.38622">
        <ele>1691.8</ele>
        <time>1982-03-26T09:22:11Z</time>
      </trkpt>
      <trkpt lat="43.97429" lon="7.38624">
        <ele>1692.4</ele>
        <time>1982-03-26T09:22:12Z</time>
      </trkpt>
      <trkpt lat="43.97429" lon="7.38625">
        <ele>1692.8</ele>
        <time>1982-03-26T09:22:13Z</time>
      </trkpt>
      <trkpt lat="43.9743" lon="7.38627">
        <ele>1692.5</ele>
        <time>1982-03-26T09:22:14Z</time>
      </trkpt>
      <trkpt lat="43.97431" lon="7.38629">
        <ele>1691.9</ele>
        <time>1982-03-26T09:22:15Z</time>
      </trkpt>
      <trkpt lat="43.97432" lon="7.3863">
        <ele>1692.3</ele>
        <time>1982-03-26T09:22:16Z</time>
      </trkpt>
      <trkpt lat="43.97433" lon="7.38631">
        <ele>1692.6</ele>
        <time>1982-03-26T09:22:17Z</time>
      </trkpt>
      <trkpt lat="43.97433" lon="7.38633">
        <ele>1693.5</ele>
        <time>1982-03-26T09:22:18Z</time>
      </trkpt>
      <trkpt lat="43.97434" lon="7.38634">
        <ele>1694.2</ele>
        <time>1982-03-26T09:22:19Z</time>
      </trkpt>
      <trkpt lat="43.97434" lon="7.38636">
        <ele>1694.9</ele>
        <time>1982-03-26T09:22:20Z</time>
      </trkpt>
      <trkpt lat="43.97434" lon="7.38639">
        <ele>1694.2</ele>
        <time>1982-03-26T09:22:21Z</time>
      </trkpt>
      <trkpt lat="43.97434" lon="7.38641">
        <ele>1693.5</ele>
        <time>1982-03-26T09:22:22Z</time>
      </trkpt>
      <trkpt lat="43.97436" lon="7.38642">
        <ele>1692.4</ele>
        <time>1982-03-26T09:22:23Z</time>
      </trkpt>
      <trkpt lat="43.97436" lon="7.38643">
        <ele>1691.9</ele>
        <time>1982-03-26T09:22:24Z</time>
      </trkpt>
      <trkpt lat="43.97437" lon="7.38645">
        <ele>1691.7</ele>
        <time>1982-03-26T09:22:25Z</time>
      </trkpt>
      <trkpt lat="43.97438" lon="7.38647">
        <ele>1692.2</ele>
        <time>1982-03-26T09:22:26Z</time>
      </trkpt>
      <trkpt lat="43.97437" lon="7.38648">
        <ele>1692.5</ele>
        <time>1982-03-26T09:22:27Z</time>
      </trkpt>
      <trkpt lat="43.97438" lon="7.38652">
        <ele>1693.8</ele>
        <time>1982-03-26T09:22:29Z</time>
      </trkpt>
      <trkpt lat="43.97437" lon="7.38653">
        <ele>1693.7</ele>
        <time>1982-03-26T09:22:30Z</time>
      </trkpt>
      <trkpt lat="43.97437" lon="7.38655">
        <ele>1693.4</ele>
        <time>1982-03-26T09:22:31Z</time>
      </trkpt>
      <trkpt lat="43.97437" lon="7.38656">
        <ele>1692.8</ele>
        <time>1982-03-26T09:22:32Z</time>
      </trkpt>
      <trkpt lat="43.97437" lon="7.38658">
        <ele>1692.5</ele>
        <time>1982-03-26T09:22:33Z</time>
      </trkpt>
      <trkpt lat="43.97436" lon="7.38661">
        <ele>1692.3</ele>
        <time>1982-03-26T09:22:34Z</time>
      </trkpt>
      <trkpt lat="43.97436" lon="7.38662">
        <ele>1692</ele>
        <time>1982-03-26T09:22:35Z</time>
      </trkpt>
      <trkpt lat="43.97437" lon="7.38662">
        <ele>1694.3</ele>
        <time>1982-03-26T09:22:36Z</time>
      </trkpt>
      <trkpt lat="43.97438" lon="7.38663">
        <ele>1695.6</ele>
        <time>1982-03-26T09:22:37Z</time>
      </trkpt>
      <trkpt lat="43.97439" lon="7.38664">
        <ele>1696.3</ele>
        <time>1982-03-26T09:22:38Z</time>
      </trkpt>
      <trkpt lat="43.9744" lon="7.38666">
        <ele>1696.1</ele>
        <time>1982-03-26T09:22:39Z</time>
      </trkpt>
      <trkpt lat="43.97439" lon="7.38667">
        <ele>1695.5</ele>
        <time>1982-03-26T09:22:40Z</time>
      </trkpt>
      <trkpt lat="43.9744" lon="7.38671">
        <ele>1695.8</ele>
        <time>1982-03-26T09:22:42Z</time>
      </trkpt>
      <trkpt lat="43.97441" lon="7.38671">
        <ele>1696.2</ele>
        <time>1982-03-26T09:22:43Z</time>
      </trkpt>
      <trkpt lat="43.97442" lon="7.38674">
        <ele>1696.8</ele>
        <time>1982-03-26T09:22:45Z</time>
      </trkpt>
      <trkpt lat="43.97443" lon="7.38676">
        <ele>1698</ele>
        <time>1982-03-26T09:22:46Z</time>
      </trkpt>
      <trkpt lat="43.97444" lon="7.38678">
        <ele>1698.9</ele>
        <time>1982-03-26T09:22:47Z</time>
      </trkpt>
      <trkpt lat="43.97444" lon="7.38679">
        <ele>1700.5</ele>
        <time>1982-03-26T09:22:48Z</time>
      </trkpt>
      <trkpt lat="43.97445" lon="7.38681">
        <ele>1701</ele>
        <time>1982-03-26T09:22:49Z</time>
      </trkpt>
      <trkpt lat="43.97445" lon="7.38682">
        <ele>1700.9</ele>
        <time>1982-03-26T09:22:50Z</time>
      </trkpt>
      <trkpt lat="43.97446" lon="7.38683">
        <ele>1700.8</ele>
        <time>1982-03-26T09:22:51Z</time>
      </trkpt>
      <trkpt lat="43.97446" lon="7.38686">
        <ele>1701.9</ele>
        <time>1982-03-26T09:22:53Z</time>
      </trkpt>
      <trkpt lat="43.97446" lon="7.38688">
        <ele>1701.9</ele>
        <time>1982-03-26T09:22:54Z</time>
      </trkpt>
      <trkpt lat="43.97446" lon="7.3869">
        <ele>1702</ele>
        <time>1982-03-26T09:22:55Z</time>
      </trkpt>
      <trkpt lat="43.97445" lon="7.38691">
        <ele>1702.7</ele>
        <time>1982-03-26T09:22:56Z</time>
      </trkpt>
      <trkpt lat="43.97445" lon="7.38692">
        <ele>1702.3</ele>
        <time>1982-03-26T09:22:57Z</time>
      </trkpt>
      <trkpt lat="43.97446" lon="7.38694">
        <ele>1702.4</ele>
        <time>1982-03-26T09:22:59Z</time>
      </trkpt>
      <trkpt lat="43.97445" lon="7.38695">
        <ele>1701.3</ele>
        <time>1982-03-26T09:23:00Z</time>
      </trkpt>
      <trkpt lat="43.97446" lon="7.38696">
        <ele>1700.5</ele>
        <time>1982-03-26T09:23:01Z</time>
      </trkpt>
      <trkpt lat="43.97446" lon="7.38698">
        <ele>1699.8</ele>
        <time>1982-03-26T09:23:02Z</time>
      </trkpt>
      <trkpt lat="43.97445" lon="7.387">
        <ele>1699.2</ele>
        <time>1982-03-26T09:23:03Z</time>
      </trkpt>
      <trkpt lat="43.97444" lon="7.38701">
        <ele>1699.4</ele>
        <time>1982-03-26T09:23:04Z</time>
      </trkpt>
      <trkpt lat="43.97444" lon="7.38701">
        <ele>1700</ele>
        <time>1982-03-26T09:23:05Z</time>
      </trkpt>
      <trkpt lat="43.97442" lon="7.38704">
        <ele>1699.8</ele>
        <time>1982-03-26T09:23:07Z</time>
      </trkpt>
      <trkpt lat="43.97442" lon="7.38706">
        <ele>1699.5</ele>
        <time>1982-03-26T09:23:08Z</time>
      </trkpt>
      <trkpt lat="43.97442" lon="7.38707">
        <ele>1699.3</ele>
        <time>1982-03-26T09:23:09Z</time>
      </trkpt>
      <trkpt lat="43.9744" lon="7.38707">
        <ele>1699</ele>
        <time>1982-03-26T09:23:10Z</time>
      </trkpt>
      <trkpt lat="43.97439" lon="7.38708">
        <ele>1698.8</ele>
        <time>1982-03-26T09:23:11Z</time>
      </trkpt>
      <trkpt lat="43.97438" lon="7.38709">
        <ele>1698.8</ele>
        <time>1982-03-26T09:23:12Z</time>
      </trkpt>
      <trkpt lat="43.97437" lon="7.3871">
        <ele>1699.7</ele>
        <time>1982-03-26T09:23:13Z</time>
      </trkpt>
      <trkpt lat="43.97437" lon="7.38709">
        <ele>1700.6</ele>
        <time>1982-03-26T09:23:14Z</time>
      </trkpt>
      <trkpt lat="43.97435" lon="7.38708">
        <ele>1701.3</ele>
        <time>1982-03-26T09:23:16Z</time>
      </trkpt>
      <trkpt lat="43.97434" lon="7.38708">
        <ele>1702.1</ele>
        <time>1982-03-26T09:23:17Z</time>
      </trkpt>
      <trkpt lat="43.97434" lon="7.38706">
        <ele>1701.3</ele>
        <time>1982-03-26T09:23:18Z</time>
      </trkpt>
      <trkpt lat="43.97433" lon="7.38705">
        <ele>1702.3</ele>
        <time>1982-03-26T09:23:19Z</time>
      </trkpt>
      <trkpt lat="43.97431" lon="7.38704">
        <ele>1702.4</ele>
        <time>1982-03-26T09:23:20Z</time>
      </trkpt>
      <trkpt lat="43.97431" lon="7.38703">
        <ele>1703.6</ele>
        <time>1982-03-26T09:23:21Z</time>
      </trkpt>
      <trkpt lat="43.9743" lon="7.38702">
        <ele>1704.2</ele>
        <time>1982-03-26T09:23:22Z</time>
      </trkpt>
      <trkpt lat="43.97431" lon="7.387">
        <ele>1704.6</ele>
        <time>1982-03-26T09:23:23Z</time>
      </trkpt>
      <trkpt lat="43.97431" lon="7.38698">
        <ele>1705.6</ele>
        <time>1982-03-26T09:23:24Z</time>
      </trkpt>
      <trkpt lat="43.97429" lon="7.38697">
        <ele>1705.4</ele>
        <time>1982-03-26T09:23:25Z</time>
      </trkpt>
      <trkpt lat="43.97428" lon="7.38697">
        <ele>1704.4</ele>
        <time>1982-03-26T09:23:26Z</time>
      </trkpt>
      <trkpt lat="43.97427" lon="7.38697">
        <ele>1703.5</ele>
        <time>1982-03-26T09:23:27Z</time>
      </trkpt>
      <trkpt lat="43.97426" lon="7.38696">
        <ele>1703.5</ele>
        <time>1982-03-26T09:23:28Z</time>
      </trkpt>
      <trkpt lat="43.97426" lon="7.38696">
        <ele>1704.6</ele>
        <time>1982-03-26T09:23:29Z</time>
      </trkpt>
      <trkpt lat="43.97425" lon="7.38696">
        <ele>1704.8</ele>
        <time>1982-03-26T09:23:30Z</time>
      </trkpt>
      <trkpt lat="43.97425" lon="7.38696">
        <ele>1704.8</ele>
        <time>1982-03-26T09:23:30Z</time>
      </trkpt>
      <trkpt lat="43.97424" lon="7.38696">
        <ele>1704.7</ele>
        <time>1982-03-26T09:23:32Z</time>
      </trkpt>
      <trkpt lat="43.97424" lon="7.38695">
        <ele>1704.9</ele>
        <time>1982-03-26T09:23:34Z</time>
      </trkpt>
      <trkpt lat="43.97424" lon="7.38695">
        <ele>1704.9</ele>
        <time>1982-03-26T09:23:34Z</time>
      </trkpt>
      <trkpt lat="43.97423" lon="7.38695">
        <ele>1704.8</ele>
        <time>1982-03-26T09:23:36Z</time>
      </trkpt>
      <trkpt lat="43.97423" lon="7.38695">
        <ele>1705.1</ele>
        <time>1982-03-26T09:23:38Z</time>
      </trkpt>
      <trkpt lat="43.97423" lon="7.38695">
        <ele>1705.1</ele>
        <time>1982-03-26T09:23:39Z</time>
      </trkpt>
      <trkpt lat="43.97423" lon="7.38693">
        <ele>1705.7</ele>
        <time>1982-03-26T09:23:41Z</time>
      </trkpt>
      <trkpt lat="43.97422" lon="7.38692">
        <ele>1706</ele>
        <time>1982-03-26T09:23:42Z</time>
      </trkpt>
      <trkpt lat="43.9742" lon="7.3869">
        <ele>1706.9</ele>
        <time>1982-03-26T09:23:43Z</time>
      </trkpt>
      <trkpt lat="43.9742" lon="7.3869">
        <ele>1707.4</ele>
        <time>1982-03-26T09:23:44Z</time>
      </trkpt>
      <trkpt lat="43.9742" lon="7.38691">
        <ele>1707.8</ele>
        <time>1982-03-26T09:23:46Z</time>
      </trkpt>
      <trkpt lat="43.9742" lon="7.38691">
        <ele>1707.8</ele>
        <time>1982-03-26T09:23:47Z</time>
      </trkpt>
      <trkpt lat="43.97419" lon="7.38691">
        <ele>1708.4</ele>
        <time>1982-03-26T09:23:51Z</time>
      </trkpt>
      <trkpt lat="43.97419" lon="7.3869">
        <ele>1709</ele>
        <time>1982-03-26T09:23:53Z</time>
      </trkpt>
      <trkpt lat="43.97419" lon="7.3869">
        <ele>1709</ele>
        <time>1982-03-26T09:23:53Z</time>
      </trkpt>
      <trkpt lat="43.97419" lon="7.38689">
        <ele>1708.9</ele>
        <time>1982-03-26T09:23:55Z</time>
      </trkpt>
      <trkpt lat="43.97418" lon="7.38688">
        <ele>1707.3</ele>
        <time>1982-03-26T09:23:56Z</time>
      </trkpt>
      <trkpt lat="43.97417" lon="7.38687">
        <ele>1705.8</ele>
        <time>1982-03-26T09:23:57Z</time>
      </trkpt>
      <trkpt lat="43.97417" lon="7.38686">
        <ele>1706.8</ele>
        <time>1982-03-26T09:23:58Z</time>
      </trkpt>
      <trkpt lat="43.97416" lon="7.38685">
        <ele>1706</ele>
        <time>1982-03-26T09:23:59Z</time>
      </trkpt>
      <trkpt lat="43.97417" lon="7.38685">
        <ele>1705.8</ele>
        <time>1982-03-26T09:24:00Z</time>
      </trkpt>
      <trkpt lat="43.97417" lon="7.38685">
        <ele>1705.8</ele>
        <time>1982-03-26T09:24:01Z</time>
      </trkpt>
      <trkpt lat="43.97417" lon="7.38684">
        <ele>1705.1</ele>
        <time>1982-03-26T09:24:03Z</time>
      </trkpt>
      <trkpt lat="43.97417" lon="7.38684">
        <ele>1705.1</ele>
        <time>1982-03-26T09:24:03Z</time>
      </trkpt>
      <trkpt lat="43.97416" lon="7.38683">
        <ele>1704.1</ele>
        <time>1982-03-26T09:24:05Z</time>
      </trkpt>
      <trkpt lat="43.97416" lon="7.38683">
        <ele>1703.5</ele>
        <time>1982-03-26T09:24:06Z</time>
      </trkpt>
      <trkpt lat="43.97416" lon="7.38683">
        <ele>1703.5</ele>
        <time>1982-03-26T09:24:06Z</time>
      </trkpt>
      <trkpt lat="43.97416" lon="7.38682">
        <ele>1702.9</ele>
        <time>1982-03-26T09:24:08Z</time>
      </trkpt>
      <trkpt lat="43.97416" lon="7.38682">
        <ele>1702.9</ele>
        <time>1982-03-26T09:24:09Z</time>
      </trkpt>
      <trkpt lat="43.97416" lon="7.38682">
        <ele>1702.1</ele>
        <time>1982-03-26T09:24:11Z</time>
      </trkpt>
      <trkpt lat="43.97416" lon="7.38682">
        <ele>1702.1</ele>
        <time>1982-03-26T09:24:13Z</time>
      </trkpt>
      <trkpt lat="43.97416" lon="7.38682">
        <ele>1702.3</ele>
        <time>1982-03-26T09:24:15Z</time>
      </trkpt>
      <trkpt lat="43.97416" lon="7.38682">
        <ele>1702.3</ele>
        <time>1982-03-26T09:24:54Z</time>
      </trkpt>
      <trkpt lat="43.97415" lon="7.38682">
        <ele>1703.8</ele>
        <time>1982-03-26T09:24:56Z</time>
      </trkpt>
      <trkpt lat="43.97413" lon="7.38682">
        <ele>1704.5</ele>
        <time>1982-03-26T09:24:57Z</time>
      </trkpt>
      <trkpt lat="43.97414" lon="7.38681">
        <ele>1704.8</ele>
        <time>1982-03-26T09:24:58Z</time>
      </trkpt>
      <trkpt lat="43.97414" lon="7.38678">
        <ele>1704.5</ele>
        <time>1982-03-26T09:25:00Z</time>
      </trkpt>
      <trkpt lat="43.97414" lon="7.38678">
        <ele>1704.4</ele>
        <time>1982-03-26T09:25:01Z</time>
      </trkpt>
      <trkpt lat="43.97412" lon="7.38676">
        <ele>1705.3</ele>
        <time>1982-03-26T09:25:03Z</time>
      </trkpt>
      <trkpt lat="43.97412" lon="7.38675">
        <ele>1705.5</ele>
        <time>1982-03-26T09:25:04Z</time>
      </trkpt>
      <trkpt lat="43.97412" lon="7.38674">
        <ele>1705.1</ele>
        <time>1982-03-26T09:25:05Z</time>
      </trkpt>
      <trkpt lat="43.97412" lon="7.38671">
        <ele>1705.3</ele>
        <time>1982-03-26T09:25:07Z</time>
      </trkpt>
      <trkpt lat="43.97411" lon="7.38671">
        <ele>1704.9</ele>
        <time>1982-03-26T09:25:08Z</time>
      </trkpt>
      <trkpt lat="43.9741" lon="7.38671">
        <ele>1705.2</ele>
        <time>1982-03-26T09:25:09Z</time>
      </trkpt>
      <trkpt lat="43.9741" lon="7.38671">
        <ele>1705.7</ele>
        <time>1982-03-26T09:25:10Z</time>
      </trkpt>
      <trkpt lat="43.97408" lon="7.3867">
        <ele>1706.5</ele>
        <time>1982-03-26T09:25:12Z</time>
      </trkpt>
      <trkpt lat="43.97408" lon="7.38669">
        <ele>1706.6</ele>
        <time>1982-03-26T09:25:13Z</time>
      </trkpt>
      <trkpt lat="43.97408" lon="7.38669">
        <ele>1707.2</ele>
        <time>1982-03-26T09:25:15Z</time>
      </trkpt>
      <trkpt lat="43.97408" lon="7.38669">
        <ele>1707.2</ele>
        <time>1982-03-26T09:25:15Z</time>
      </trkpt>
      <trkpt lat="43.97408" lon="7.38669">
        <ele>1707.3</ele>
        <time>1982-03-26T09:25:17Z</time>
      </trkpt>
      <trkpt lat="43.97408" lon="7.38669">
        <ele>1707.3</ele>
        <time>1982-03-26T09:25:19Z</time>
      </trkpt>
      <trkpt lat="43.97408" lon="7.38669">
        <ele>1705.7</ele>
        <time>1982-03-26T09:25:21Z</time>
      </trkpt>
      <trkpt lat="43.97408" lon="7.38669">
        <ele>1705.2</ele>
        <time>1982-03-26T09:25:22Z</time>
      </trkpt>
      <trkpt lat="43.97408" lon="7.38669">
        <ele>1705.2</ele>
        <time>1982-03-26T09:25:24Z</time>
      </trkpt>
      <trkpt lat="43.97406" lon="7.38667">
        <ele>1705.4</ele>
        <time>1982-03-26T09:25:26Z</time>
      </trkpt>
      <trkpt lat="43.97406" lon="7.38666">
        <ele>1706.4</ele>
        <time>1982-03-26T09:25:27Z</time>
      </trkpt>
      <trkpt lat="43.97406" lon="7.38665">
        <ele>1706.7</ele>
        <time>1982-03-26T09:25:28Z</time>
      </trkpt>
      <trkpt lat="43.97404" lon="7.38663">
        <ele>1706.3</ele>
        <time>1982-03-26T09:25:30Z</time>
      </trkpt>
      <trkpt lat="43.97404" lon="7.38661">
        <ele>1705.9</ele>
        <time>1982-03-26T09:25:31Z</time>
      </trkpt>
      <trkpt lat="43.97402" lon="7.3866">
        <ele>1706.6</ele>
        <time>1982-03-26T09:25:32Z</time>
      </trkpt>
      <trkpt lat="43.97401" lon="7.38659">
        <ele>1706.4</ele>
        <time>1982-03-26T09:25:33Z</time>
      </trkpt>
      <trkpt lat="43.974" lon="7.38657">
        <ele>1706.6</ele>
        <time>1982-03-26T09:25:34Z</time>
      </trkpt>
      <trkpt lat="43.97399" lon="7.38657">
        <ele>1708.8</ele>
        <time>1982-03-26T09:25:35Z</time>
      </trkpt>
      <trkpt lat="43.97397" lon="7.38655">
        <ele>1708.8</ele>
        <time>1982-03-26T09:25:36Z</time>
      </trkpt>
      <trkpt lat="43.97396" lon="7.38653">
        <ele>1708.8</ele>
        <time>1982-03-26T09:25:37Z</time>
      </trkpt>
      <trkpt lat="43.97396" lon="7.38651">
        <ele>1707.9</ele>
        <time>1982-03-26T09:25:38Z</time>
      </trkpt>
      <trkpt lat="43.97395" lon="7.38649">
        <ele>1708.1</ele>
        <time>1982-03-26T09:25:39Z</time>
      </trkpt>
      <trkpt lat="43.97394" lon="7.38646">
        <ele>1708.7</ele>
        <time>1982-03-26T09:25:40Z</time>
      </trkpt>
      <trkpt lat="43.97394" lon="7.38643">
        <ele>1708.7</ele>
        <time>1982-03-26T09:25:41Z</time>
      </trkpt>
      <trkpt lat="43.97394" lon="7.38641">
        <ele>1707.6</ele>
        <time>1982-03-26T09:25:42Z</time>
      </trkpt>
      <trkpt lat="43.97393" lon="7.38639">
        <ele>1707</ele>
        <time>1982-03-26T09:25:43Z</time>
      </trkpt>
      <trkpt lat="43.97392" lon="7.38638">
        <ele>1706.7</ele>
        <time>1982-03-26T09:25:44Z</time>
      </trkpt>
      <trkpt lat="43.97391" lon="7.38636">
        <ele>1706.8</ele>
        <time>1982-03-26T09:25:45Z</time>
      </trkpt>
      <trkpt lat="43.9739" lon="7.38634">
        <ele>1706.6</ele>
        <time>1982-03-26T09:25:46Z</time>
      </trkpt>
      <trkpt lat="43.97388" lon="7.38631">
        <ele>1707.5</ele>
        <time>1982-03-26T09:25:47Z</time>
      </trkpt>
      <trkpt lat="43.97387" lon="7.38629">
        <ele>1707.5</ele>
        <time>1982-03-26T09:25:48Z</time>
      </trkpt>
      <trkpt lat="43.97387" lon="7.38626">
        <ele>1708.3</ele>
        <time>1982-03-26T09:25:49Z</time>
      </trkpt>
      <trkpt lat="43.97386" lon="7.38624">
        <ele>1708.9</ele>
        <time>1982-03-26T09:25:50Z</time>
      </trkpt>
      <trkpt lat="43.97386" lon="7.38622">
        <ele>1709.8</ele>
        <time>1982-03-26T09:25:51Z</time>
      </trkpt>
      <trkpt lat="43.97385" lon="7.38619">
        <ele>1709.4</ele>
        <time>1982-03-26T09:25:52Z</time>
      </trkpt>
      <trkpt lat="43.97384" lon="7.38616">
        <ele>1709.8</ele>
        <time>1982-03-26T09:25:53Z</time>
      </trkpt>
      <trkpt lat="43.97383" lon="7.38614">
        <ele>1710</ele>
        <time>1982-03-26T09:25:54Z</time>
      </trkpt>
      <trkpt lat="43.97383" lon="7.38612">
        <ele>1709.8</ele>
        <time>1982-03-26T09:25:55Z</time>
      </trkpt>
      <trkpt lat="43.97382" lon="7.3861">
        <ele>1710.1</ele>
        <time>1982-03-26T09:25:56Z</time>
      </trkpt>
      <trkpt lat="43.9738" lon="7.38608">
        <ele>1710.8</ele>
        <time>1982-03-26T09:25:57Z</time>
      </trkpt>
      <trkpt lat="43.9738" lon="7.38607">
        <ele>1711.5</ele>
        <time>1982-03-26T09:25:58Z</time>
      </trkpt>
      <trkpt lat="43.97379" lon="7.38604">
        <ele>1711.9</ele>
        <time>1982-03-26T09:25:59Z</time>
      </trkpt>
      <trkpt lat="43.97379" lon="7.38602">
        <ele>1712.5</ele>
        <time>1982-03-26T09:26:00Z</time>
      </trkpt>
      <trkpt lat="43.97379" lon="7.38599">
        <ele>1712.3</ele>
        <time>1982-03-26T09:26:01Z</time>
      </trkpt>
      <trkpt lat="43.97377" lon="7.38596">
        <ele>1712.5</ele>
        <time>1982-03-26T09:26:02Z</time>
      </trkpt>
      <trkpt lat="43.97377" lon="7.38595">
        <ele>1712</ele>
        <time>1982-03-26T09:26:03Z</time>
      </trkpt>
      <trkpt lat="43.97375" lon="7.38591">
        <ele>1712.2</ele>
        <time>1982-03-26T09:26:04Z</time>
      </trkpt>
      <trkpt lat="43.97375" lon="7.3859">
        <ele>1713.1</ele>
        <time>1982-03-26T09:26:05Z</time>
      </trkpt>
      <trkpt lat="43.97374" lon="7.38587">
        <ele>1712.7</ele>
        <time>1982-03-26T09:26:06Z</time>
      </trkpt>
      <trkpt lat="43.97374" lon="7.38584">
        <ele>1712</ele>
        <time>1982-03-26T09:26:07Z</time>
      </trkpt>
      <trkpt lat="43.97373" lon="7.38582">
        <ele>1712.3</ele>
        <time>1982-03-26T09:26:08Z</time>
      </trkpt>
      <trkpt lat="43.97371" lon="7.3858">
        <ele>1712.4</ele>
        <time>1982-03-26T09:26:09Z</time>
      </trkpt>
      <trkpt lat="43.9737" lon="7.38579">
        <ele>1712.5</ele>
        <time>1982-03-26T09:26:10Z</time>
      </trkpt>
      <trkpt lat="43.9737" lon="7.38575">
        <ele>1713</ele>
        <time>1982-03-26T09:26:11Z</time>
      </trkpt>
      <trkpt lat="43.9737" lon="7.38572">
        <ele>1713.3</ele>
        <time>1982-03-26T09:26:12Z</time>
      </trkpt>
      <trkpt lat="43.97369" lon="7.38569">
        <ele>1715.4</ele>
        <time>1982-03-26T09:26:13Z</time>
      </trkpt>
      <trkpt lat="43.97369" lon="7.38567">
        <ele>1716.5</ele>
        <time>1982-03-26T09:26:14Z</time>
      </trkpt>
      <trkpt lat="43.97368" lon="7.38566">
        <ele>1715.9</ele>
        <time>1982-03-26T09:26:15Z</time>
      </trkpt>
      <trkpt lat="43.97366" lon="7.38565">
        <ele>1715.9</ele>
        <time>1982-03-26T09:26:16Z</time>
      </trkpt>
      <trkpt lat="43.97366" lon="7.38563">
        <ele>1717.1</ele>
        <time>1982-03-26T09:26:17Z</time>
      </trkpt>
      <trkpt lat="43.97364" lon="7.38561">
        <ele>1713.8</ele>
        <time>1982-03-26T09:26:18Z</time>
      </trkpt>
      <trkpt lat="43.97363" lon="7.38559">
        <ele>1714.4</ele>
        <time>1982-03-26T09:26:19Z</time>
      </trkpt>
      <trkpt lat="43.97363" lon="7.38556">
        <ele>1714.1</ele>
        <time>1982-03-26T09:26:20Z</time>
      </trkpt>
      <trkpt lat="43.97362" lon="7.38553">
        <ele>1712.9</ele>
        <time>1982-03-26T09:26:21Z</time>
      </trkpt>
      <trkpt lat="43.9736" lon="7.38551">
        <ele>1712</ele>
        <time>1982-03-26T09:26:22Z</time>
      </trkpt>
      <trkpt lat="43.97357" lon="7.38549">
        <ele>1710.7</ele>
        <time>1982-03-26T09:26:23Z</time>
      </trkpt>
      <trkpt lat="43.97356" lon="7.38546">
        <ele>1710.5</ele>
        <time>1982-03-26T09:26:24Z</time>
      </trkpt>
      <trkpt lat="43.97354" lon="7.38542">
        <ele>1709.4</ele>
        <time>1982-03-26T09:26:25Z</time>
      </trkpt>
      <trkpt lat="43.97353" lon="7.3854">
        <ele>1708.9</ele>
        <time>1982-03-26T09:26:26Z</time>
      </trkpt>
      <trkpt lat="43.97352" lon="7.38537">
        <ele>1709.4</ele>
        <time>1982-03-26T09:26:27Z</time>
      </trkpt>
      <trkpt lat="43.97351" lon="7.38534">
        <ele>1709.6</ele>
        <time>1982-03-26T09:26:28Z</time>
      </trkpt>
      <trkpt lat="43.9735" lon="7.3853">
        <ele>1707.3</ele>
        <time>1982-03-26T09:26:29Z</time>
      </trkpt>
      <trkpt lat="43.97348" lon="7.38528">
        <ele>1707.9</ele>
        <time>1982-03-26T09:26:30Z</time>
      </trkpt>
      <trkpt lat="43.97348" lon="7.38524">
        <ele>1707.6</ele>
        <time>1982-03-26T09:26:31Z</time>
      </trkpt>
      <trkpt lat="43.97346" lon="7.3852">
        <ele>1707</ele>
        <time>1982-03-26T09:26:32Z</time>
      </trkpt>
      <trkpt lat="43.97345" lon="7.38516">
        <ele>1707.8</ele>
        <time>1982-03-26T09:26:33Z</time>
      </trkpt>
      <trkpt lat="43.97345" lon="7.38513">
        <ele>1708.6</ele>
        <time>1982-03-26T09:26:34Z</time>
      </trkpt>
      <trkpt lat="43.97344" lon="7.38509">
        <ele>1708.9</ele>
        <time>1982-03-26T09:26:35Z</time>
      </trkpt>
      <trkpt lat="43.97344" lon="7.38506">
        <ele>1708.7</ele>
        <time>1982-03-26T09:26:36Z</time>
      </trkpt>
      <trkpt lat="43.97344" lon="7.38503">
        <ele>1709.5</ele>
        <time>1982-03-26T09:26:37Z</time>
      </trkpt>
      <trkpt lat="43.97342" lon="7.38499">
        <ele>1710.4</ele>
        <time>1982-03-26T09:26:38Z</time>
      </trkpt>
      <trkpt lat="43.97341" lon="7.38496">
        <ele>1710</ele>
        <time>1982-03-26T09:26:39Z</time>
      </trkpt>
      <trkpt lat="43.97341" lon="7.38493">
        <ele>1711</ele>
        <time>1982-03-26T09:26:40Z</time>
      </trkpt>
      <trkpt lat="43.97339" lon="7.3849">
        <ele>1711.5</ele>
        <time>1982-03-26T09:26:41Z</time>
      </trkpt>
      <trkpt lat="43.97338" lon="7.38488">
        <ele>1711.5</ele>
        <time>1982-03-26T09:26:42Z</time>
      </trkpt>
      <trkpt lat="43.97337" lon="7.38485">
        <ele>1710.1</ele>
        <time>1982-03-26T09:26:43Z</time>
      </trkpt>
      <trkpt lat="43.97336" lon="7.38483">
        <ele>1710.2</ele>
        <time>1982-03-26T09:26:44Z</time>
      </trkpt>
      <trkpt lat="43.97337" lon="7.3848">
        <ele>1711.5</ele>
        <time>1982-03-26T09:26:45Z</time>
      </trkpt>
      <trkpt lat="43.97337" lon="7.38478">
        <ele>1713.5</ele>
        <time>1982-03-26T09:26:46Z</time>
      </trkpt>
      <trkpt lat="43.97336" lon="7.38476">
        <ele>1713.6</ele>
        <time>1982-03-26T09:26:47Z</time>
      </trkpt>
      <trkpt lat="43.97335" lon="7.38474">
        <ele>1712.6</ele>
        <time>1982-03-26T09:26:48Z</time>
      </trkpt>
      <trkpt lat="43.97335" lon="7.38473">
        <ele>1711.3</ele>
        <time>1982-03-26T09:26:49Z</time>
      </trkpt>
      <trkpt lat="43.97334" lon="7.38471">
        <ele>1710</ele>
        <time>1982-03-26T09:26:50Z</time>
      </trkpt>
      <trkpt lat="43.97333" lon="7.38469">
        <ele>1709.8</ele>
        <time>1982-03-26T09:26:51Z</time>
      </trkpt>
      <trkpt lat="43.97332" lon="7.38468">
        <ele>1710.3</ele>
        <time>1982-03-26T09:26:52Z</time>
      </trkpt>
      <trkpt lat="43.97331" lon="7.38466">
        <ele>1710.9</ele>
        <time>1982-03-26T09:26:53Z</time>
      </trkpt>
      <trkpt lat="43.97331" lon="7.38463">
        <ele>1711.4</ele>
        <time>1982-03-26T09:26:54Z</time>
      </trkpt>
      <trkpt lat="43.9733" lon="7.38461">
        <ele>1711.5</ele>
        <time>1982-03-26T09:26:55Z</time>
      </trkpt>
      <trkpt lat="43.97327" lon="7.38462">
        <ele>1711.4</ele>
        <time>1982-03-26T09:26:56Z</time>
      </trkpt>
      <trkpt lat="43.97326" lon="7.38461">
        <ele>1711.4</ele>
        <time>1982-03-26T09:26:57Z</time>
      </trkpt>
      <trkpt lat="43.97324" lon="7.3846">
        <ele>1712</ele>
        <time>1982-03-26T09:26:58Z</time>
      </trkpt>
      <trkpt lat="43.97323" lon="7.38459">
        <ele>1712.1</ele>
        <time>1982-03-26T09:26:59Z</time>
      </trkpt>
      <trkpt lat="43.97322" lon="7.38458">
        <ele>1712.3</ele>
        <time>1982-03-26T09:27:00Z</time>
      </trkpt>
      <trkpt lat="43.97321" lon="7.38457">
        <ele>1712.4</ele>
        <time>1982-03-26T09:27:01Z</time>
      </trkpt>
      <trkpt lat="43.9732" lon="7.38457">
        <ele>1713</ele>
        <time>1982-03-26T09:27:02Z</time>
      </trkpt>
      <trkpt lat="43.97319" lon="7.38456">
        <ele>1712.9</ele>
        <time>1982-03-26T09:27:03Z</time>
      </trkpt>
      <trkpt lat="43.97318" lon="7.38457">
        <ele>1712.4</ele>
        <time>1982-03-26T09:27:04Z</time>
      </trkpt>
      <trkpt lat="43.97317" lon="7.38457">
        <ele>1712.4</ele>
        <time>1982-03-26T09:27:05Z</time>
      </trkpt>
      <trkpt lat="43.97314" lon="7.38458">
        <ele>1713.2</ele>
        <time>1982-03-26T09:27:07Z</time>
      </trkpt>
      <trkpt lat="43.97314" lon="7.38459">
        <ele>1713.6</ele>
        <time>1982-03-26T09:27:08Z</time>
      </trkpt>
      <trkpt lat="43.97313" lon="7.38459">
        <ele>1714.4</ele>
        <time>1982-03-26T09:27:09Z</time>
      </trkpt>
      <trkpt lat="43.97313" lon="7.38461">
        <ele>1715.4</ele>
        <time>1982-03-26T09:27:10Z</time>
      </trkpt>
      <trkpt lat="43.97313" lon="7.38462">
        <ele>1715.5</ele>
        <time>1982-03-26T09:27:11Z</time>
      </trkpt>
      <trkpt lat="43.97311" lon="7.38463">
        <ele>1716.8</ele>
        <time>1982-03-26T09:27:13Z</time>
      </trkpt>
      <trkpt lat="43.97311" lon="7.38465">
        <ele>1717.4</ele>
        <time>1982-03-26T09:27:14Z</time>
      </trkpt>
      <trkpt lat="43.9731" lon="7.38466">
        <ele>1717.3</ele>
        <time>1982-03-26T09:27:15Z</time>
      </trkpt>
      <trkpt lat="43.97309" lon="7.38468">
        <ele>1717</ele>
        <time>1982-03-26T09:27:16Z</time>
      </trkpt>
      <trkpt lat="43.97309" lon="7.3847">
        <ele>1717</ele>
        <time>1982-03-26T09:27:17Z</time>
      </trkpt>
      <trkpt lat="43.97308" lon="7.38471">
        <ele>1717.6</ele>
        <time>1982-03-26T09:27:18Z</time>
      </trkpt>
      <trkpt lat="43.97308" lon="7.38472">
        <ele>1718.5</ele>
        <time>1982-03-26T09:27:19Z</time>
      </trkpt>
      <trkpt lat="43.97308" lon="7.38474">
        <ele>1718.6</ele>
        <time>1982-03-26T09:27:20Z</time>
      </trkpt>
      <trkpt lat="43.97309" lon="7.38475">
        <ele>1719.3</ele>
        <time>1982-03-26T09:27:21Z</time>
      </trkpt>
      <trkpt lat="43.97309" lon="7.38477">
        <ele>1719.5</ele>
        <time>1982-03-26T09:27:22Z</time>
      </trkpt>
      <trkpt lat="43.97309" lon="7.38479">
        <ele>1719.8</ele>
        <time>1982-03-26T09:27:23Z</time>
      </trkpt>
      <trkpt lat="43.9731" lon="7.3848">
        <ele>1719.8</ele>
        <time>1982-03-26T09:27:24Z</time>
      </trkpt>
      <trkpt lat="43.9731" lon="7.38482">
        <ele>1720.1</ele>
        <time>1982-03-26T09:27:25Z</time>
      </trkpt>
      <trkpt lat="43.9731" lon="7.38484">
        <ele>1720.2</ele>
        <time>1982-03-26T09:27:26Z</time>
      </trkpt>
      <trkpt lat="43.97311" lon="7.38485">
        <ele>1720.5</ele>
        <time>1982-03-26T09:27:27Z</time>
      </trkpt>
      <trkpt lat="43.97311" lon="7.38487">
        <ele>1720.7</ele>
        <time>1982-03-26T09:27:28Z</time>
      </trkpt>
      <trkpt lat="43.97311" lon="7.38488">
        <ele>1721.3</ele>
        <time>1982-03-26T09:27:29Z</time>
      </trkpt>
      <trkpt lat="43.97311" lon="7.3849">
        <ele>1722.1</ele>
        <time>1982-03-26T09:27:30Z</time>
      </trkpt>
      <trkpt lat="43.97311" lon="7.38492">
        <ele>1722.9</ele>
        <time>1982-03-26T09:27:31Z</time>
      </trkpt>
      <trkpt lat="43.97312" lon="7.38493">
        <ele>1723.7</ele>
        <time>1982-03-26T09:27:32Z</time>
      </trkpt>
      <trkpt lat="43.97311" lon="7.38495">
        <ele>1724.2</ele>
        <time>1982-03-26T09:27:33Z</time>
      </trkpt>
      <trkpt lat="43.97311" lon="7.38497">
        <ele>1724.7</ele>
        <time>1982-03-26T09:27:34Z</time>
      </trkpt>
      <trkpt lat="43.97311" lon="7.38498">
        <ele>1724.5</ele>
        <time>1982-03-26T09:27:35Z</time>
      </trkpt>
      <trkpt lat="43.97312" lon="7.385">
        <ele>1724.8</ele>
        <time>1982-03-26T09:27:36Z</time>
      </trkpt>
      <trkpt lat="43.97312" lon="7.38502">
        <ele>1725</ele>
        <time>1982-03-26T09:27:37Z</time>
      </trkpt>
      <trkpt lat="43.97312" lon="7.38504">
        <ele>1725.2</ele>
        <time>1982-03-26T09:27:38Z</time>
      </trkpt>
      <trkpt lat="43.97312" lon="7.38506">
        <ele>1725.3</ele>
        <time>1982-03-26T09:27:39Z</time>
      </trkpt>
      <trkpt lat="43.97311" lon="7.38509">
        <ele>1723.6</ele>
        <time>1982-03-26T09:27:40Z</time>
      </trkpt>
      <trkpt lat="43.97312" lon="7.38511">
        <ele>1722.7</ele>
        <time>1982-03-26T09:27:41Z</time>
      </trkpt>
      <trkpt lat="43.97311" lon="7.38512">
        <ele>1722.4</ele>
        <time>1982-03-26T09:27:42Z</time>
      </trkpt>
      <trkpt lat="43.9731" lon="7.38514">
        <ele>1722</ele>
        <time>1982-03-26T09:27:43Z</time>
      </trkpt>
      <trkpt lat="43.9731" lon="7.38518">
        <ele>1721.7</ele>
        <time>1982-03-26T09:27:44Z</time>
      </trkpt>
      <trkpt lat="43.97312" lon="7.38519">
        <ele>1721.5</ele>
        <time>1982-03-26T09:27:45Z</time>
      </trkpt>
      <trkpt lat="43.97311" lon="7.38519">
        <ele>1721.6</ele>
        <time>1982-03-26T09:27:46Z</time>
      </trkpt>
      <trkpt lat="43.97311" lon="7.38525">
        <ele>1721.4</ele>
        <time>1982-03-26T09:27:48Z</time>
      </trkpt>
      <trkpt lat="43.97312" lon="7.38527">
        <ele>1722</ele>
        <time>1982-03-26T09:27:49Z</time>
      </trkpt>
      <trkpt lat="43.97311" lon="7.38528">
        <ele>1721.9</ele>
        <time>1982-03-26T09:27:50Z</time>
      </trkpt>
      <trkpt lat="43.97312" lon="7.3853">
        <ele>1720.8</ele>
        <time>1982-03-26T09:27:51Z</time>
      </trkpt>
      <trkpt lat="43.97311" lon="7.38532">
        <ele>1721.9</ele>
        <time>1982-03-26T09:27:52Z</time>
      </trkpt>
      <trkpt lat="43.97313" lon="7.38534">
        <ele>1722.6</ele>
        <time>1982-03-26T09:27:53Z</time>
      </trkpt>
      <trkpt lat="43.97313" lon="7.38535">
        <ele>1723.5</ele>
        <time>1982-03-26T09:27:55Z</time>
      </trkpt>
      <trkpt lat="43.97313" lon="7.38537">
        <ele>1724.2</ele>
        <time>1982-03-26T09:27:55Z</time>
      </trkpt>
      <trkpt lat="43.97316" lon="7.38539">
        <ele>1723.3</ele>
        <time>1982-03-26T09:27:56Z</time>
      </trkpt>
      <trkpt lat="43.97318" lon="7.38541">
        <ele>1722.3</ele>
        <time>1982-03-26T09:27:57Z</time>
      </trkpt>
      <trkpt lat="43.97318" lon="7.38542">
        <ele>1722.3</ele>
        <time>1982-03-26T09:27:58Z</time>
      </trkpt>
      <trkpt lat="43.97317" lon="7.38544">
        <ele>1723.1</ele>
        <time>1982-03-26T09:27:59Z</time>
      </trkpt>
      <trkpt lat="43.97314" lon="7.38546">
        <ele>1724.6</ele>
        <time>1982-03-26T09:28:00Z</time>
      </trkpt>
      <trkpt lat="43.97314" lon="7.38548">
        <ele>1725.4</ele>
        <time>1982-03-26T09:28:01Z</time>
      </trkpt>
      <trkpt lat="43.97314" lon="7.38549">
        <ele>1726.1</ele>
        <time>1982-03-26T09:28:02Z</time>
      </trkpt>
      <trkpt lat="43.97314" lon="7.3855">
        <ele>1727.9</ele>
        <time>1982-03-26T09:28:03Z</time>
      </trkpt>
      <trkpt lat="43.97313" lon="7.38552">
        <ele>1728.5</ele>
        <time>1982-03-26T09:28:04Z</time>
      </trkpt>
      <trkpt lat="43.97313" lon="7.38554">
        <ele>1729.4</ele>
        <time>1982-03-26T09:28:05Z</time>
      </trkpt>
      <trkpt lat="43.97318" lon="7.38551">
        <ele>1727.4</ele>
        <time>1982-03-26T09:28:06Z</time>
      </trkpt>
      <trkpt lat="43.97318" lon="7.38554">
        <ele>1727.7</ele>
        <time>1982-03-26T09:28:07Z</time>
      </trkpt>
      <trkpt lat="43.97318" lon="7.38556">
        <ele>1728.5</ele>
        <time>1982-03-26T09:28:08Z</time>
      </trkpt>
      <trkpt lat="43.97318" lon="7.38558">
        <ele>1728.7</ele>
        <time>1982-03-26T09:28:09Z</time>
      </trkpt>
      <trkpt lat="43.97318" lon="7.3856">
        <ele>1731</ele>
        <time>1982-03-26T09:28:10Z</time>
      </trkpt>
      <trkpt lat="43.97316" lon="7.38562">
        <ele>1730.7</ele>
        <time>1982-03-26T09:28:11Z</time>
      </trkpt>
      <trkpt lat="43.97315" lon="7.38564">
        <ele>1730.9</ele>
        <time>1982-03-26T09:28:12Z</time>
      </trkpt>
      <trkpt lat="43.97314" lon="7.38567">
        <ele>1731.1</ele>
        <time>1982-03-26T09:28:13Z</time>
      </trkpt>
      <trkpt lat="43.97312" lon="7.3857">
        <ele>1731.3</ele>
        <time>1982-03-26T09:28:14Z</time>
      </trkpt>
      <trkpt lat="43.97313" lon="7.3857">
        <ele>1730.7</ele>
        <time>1982-03-26T09:28:15Z</time>
      </trkpt>
      <trkpt lat="43.97312" lon="7.38575">
        <ele>1730.8</ele>
        <time>1982-03-26T09:28:17Z</time>
      </trkpt>
      <trkpt lat="43.97312" lon="7.38577">
        <ele>1730.4</ele>
        <time>1982-03-26T09:28:18Z</time>
      </trkpt>
      <trkpt lat="43.97311" lon="7.38579">
        <ele>1730</ele>
        <time>1982-03-26T09:28:19Z</time>
      </trkpt>
      <trkpt lat="43.97311" lon="7.38581">
        <ele>1729.8</ele>
        <time>1982-03-26T09:28:20Z</time>
      </trkpt>
      <trkpt lat="43.9731" lon="7.38583">
        <ele>1729.9</ele>
        <time>1982-03-26T09:28:21Z</time>
      </trkpt>
      <trkpt lat="43.97311" lon="7.38584">
        <ele>1729.9</ele>
        <time>1982-03-26T09:28:22Z</time>
      </trkpt>
      <trkpt lat="43.97312" lon="7.38587">
        <ele>1730.9</ele>
        <time>1982-03-26T09:28:24Z</time>
      </trkpt>
      <trkpt lat="43.97312" lon="7.38589">
        <ele>1730.6</ele>
        <time>1982-03-26T09:28:25Z</time>
      </trkpt>
      <trkpt lat="43.97313" lon="7.38591">
        <ele>1731.1</ele>
        <time>1982-03-26T09:28:26Z</time>
      </trkpt>
      <trkpt lat="43.97314" lon="7.38593">
        <ele>1731.7</ele>
        <time>1982-03-26T09:28:27Z</time>
      </trkpt>
      <trkpt lat="43.97314" lon="7.38594">
        <ele>1731.4</ele>
        <time>1982-03-26T09:28:28Z</time>
      </trkpt>
      <trkpt lat="43.97315" lon="7.38596">
        <ele>1731.3</ele>
        <time>1982-03-26T09:28:29Z</time>
      </trkpt>
      <trkpt lat="43.97316" lon="7.38597">
        <ele>1731.8</ele>
        <time>1982-03-26T09:28:30Z</time>
      </trkpt>
      <trkpt lat="43.97316" lon="7.38599">
        <ele>1731.7</ele>
        <time>1982-03-26T09:28:31Z</time>
      </trkpt>
      <trkpt lat="43.97316" lon="7.38601">
        <ele>1731.3</ele>
        <time>1982-03-26T09:28:32Z</time>
      </trkpt>
      <trkpt lat="43.97316" lon="7.38602">
        <ele>1730.5</ele>
        <time>1982-03-26T09:28:33Z</time>
      </trkpt>
      <trkpt lat="43.97315" lon="7.38603">
        <ele>1729.8</ele>
        <time>1982-03-26T09:28:34Z</time>
      </trkpt>
      <trkpt lat="43.97315" lon="7.38604">
        <ele>1729.4</ele>
        <time>1982-03-26T09:28:35Z</time>
      </trkpt>
      <trkpt lat="43.97315" lon="7.38608">
        <ele>1728.6</ele>
        <time>1982-03-26T09:28:37Z</time>
      </trkpt>
      <trkpt lat="43.97316" lon="7.3861">
        <ele>1729.3</ele>
        <time>1982-03-26T09:28:38Z</time>
      </trkpt>
      <trkpt lat="43.97317" lon="7.38612">
        <ele>1729.4</ele>
        <time>1982-03-26T09:28:39Z</time>
      </trkpt>
      <trkpt lat="43.97317" lon="7.38614">
        <ele>1729.7</ele>
        <time>1982-03-26T09:28:40Z</time>
      </trkpt>
      <trkpt lat="43.97318" lon="7.38615">
        <ele>1730.3</ele>
        <time>1982-03-26T09:28:41Z</time>
      </trkpt>
      <trkpt lat="43.97318" lon="7.38617">
        <ele>1730.5</ele>
        <time>1982-03-26T09:28:42Z</time>
      </trkpt>
      <trkpt lat="43.97318" lon="7.38618">
        <ele>1730.3</ele>
        <time>1982-03-26T09:28:43Z</time>
      </trkpt>
      <trkpt lat="43.97318" lon="7.3862">
        <ele>1730.2</ele>
        <time>1982-03-26T09:28:44Z</time>
      </trkpt>
      <trkpt lat="43.97318" lon="7.38622">
        <ele>1729.9</ele>
        <time>1982-03-26T09:28:45Z</time>
      </trkpt>
      <trkpt lat="43.97319" lon="7.38623">
        <ele>1729.8</ele>
        <time>1982-03-26T09:28:46Z</time>
      </trkpt>
      <trkpt lat="43.97319" lon="7.38625">
        <ele>1728.7</ele>
        <time>1982-03-26T09:28:47Z</time>
      </trkpt>
      <trkpt lat="43.97319" lon="7.38626">
        <ele>1728.7</ele>
        <time>1982-03-26T09:28:48Z</time>
      </trkpt>
      <trkpt lat="43.97321" lon="7.38629">
        <ele>1727.4</ele>
        <time>1982-03-26T09:28:50Z</time>
      </trkpt>
      <trkpt lat="43.97321" lon="7.38631">
        <ele>1726.7</ele>
        <time>1982-03-26T09:28:51Z</time>
      </trkpt>
      <trkpt lat="43.97322" lon="7.38633">
        <ele>1727.2</ele>
        <time>1982-03-26T09:28:52Z</time>
      </trkpt>
      <trkpt lat="43.97322" lon="7.38635">
        <ele>1727.7</ele>
        <time>1982-03-26T09:28:53Z</time>
      </trkpt>
      <trkpt lat="43.97323" lon="7.38636">
        <ele>1727.9</ele>
        <time>1982-03-26T09:28:54Z</time>
      </trkpt>
      <trkpt lat="43.97324" lon="7.38639">
        <ele>1728.2</ele>
        <time>1982-03-26T09:28:56Z</time>
      </trkpt>
      <trkpt lat="43.97325" lon="7.38641">
        <ele>1730.1</ele>
        <time>1982-03-26T09:28:57Z</time>
      </trkpt>
      <trkpt lat="43.97326" lon="7.38642">
        <ele>1731.3</ele>
        <time>1982-03-26T09:28:58Z</time>
      </trkpt>
      <trkpt lat="43.97326" lon="7.38644">
        <ele>1730.9</ele>
        <time>1982-03-26T09:28:59Z</time>
      </trkpt>
      <trkpt lat="43.97326" lon="7.38646">
        <ele>1731.3</ele>
        <time>1982-03-26T09:29:00Z</time>
      </trkpt>
      <trkpt lat="43.97327" lon="7.38647">
        <ele>1732.1</ele>
        <time>1982-03-26T09:29:01Z</time>
      </trkpt>
      <trkpt lat="43.97326" lon="7.38649">
        <ele>1732.5</ele>
        <time>1982-03-26T09:29:02Z</time>
      </trkpt>
      <trkpt lat="43.97326" lon="7.3865">
        <ele>1732.7</ele>
        <time>1982-03-26T09:29:03Z</time>
      </trkpt>
      <trkpt lat="43.97326" lon="7.38652">
        <ele>1733.4</ele>
        <time>1982-03-26T09:29:04Z</time>
      </trkpt>
      <trkpt lat="43.97325" lon="7.38654">
        <ele>1734.6</ele>
        <time>1982-03-26T09:29:05Z</time>
      </trkpt>
      <trkpt lat="43.97326" lon="7.38656">
        <ele>1735.2</ele>
        <time>1982-03-26T09:29:06Z</time>
      </trkpt>
      <trkpt lat="43.97326" lon="7.38658">
        <ele>1735.4</ele>
        <time>1982-03-26T09:29:07Z</time>
      </trkpt>
      <trkpt lat="43.97326" lon="7.3866">
        <ele>1735.5</ele>
        <time>1982-03-26T09:29:08Z</time>
      </trkpt>
      <trkpt lat="43.97327" lon="7.38662">
        <ele>1733.9</ele>
        <time>1982-03-26T09:29:09Z</time>
      </trkpt>
      <trkpt lat="43.97326" lon="7.38664">
        <ele>1732.7</ele>
        <time>1982-03-26T09:29:10Z</time>
      </trkpt>
      <trkpt lat="43.97327" lon="7.38665">
        <ele>1732.8</ele>
        <time>1982-03-26T09:29:11Z</time>
      </trkpt>
      <trkpt lat="43.97327" lon="7.38667">
        <ele>1734.1</ele>
        <time>1982-03-26T09:29:12Z</time>
      </trkpt>
      <trkpt lat="43.97327" lon="7.38669">
        <ele>1734.2</ele>
        <time>1982-03-26T09:29:13Z</time>
      </trkpt>
      <trkpt lat="43.97327" lon="7.3867">
        <ele>1734.5</ele>
        <time>1982-03-26T09:29:14Z</time>
      </trkpt>
      <trkpt lat="43.97327" lon="7.38672">
        <ele>1735.2</ele>
        <time>1982-03-26T09:29:15Z</time>
      </trkpt>
      <trkpt lat="43.97328" lon="7.38674">
        <ele>1734.8</ele>
        <time>1982-03-26T09:29:16Z</time>
      </trkpt>
      <trkpt lat="43.97328" lon="7.38676">
        <ele>1733.8</ele>
        <time>1982-03-26T09:29:17Z</time>
      </trkpt>
      <trkpt lat="43.97329" lon="7.38677">
        <ele>1733.7</ele>
        <time>1982-03-26T09:29:18Z</time>
      </trkpt>
      <trkpt lat="43.9733" lon="7.38678">
        <ele>1734</ele>
        <time>1982-03-26T09:29:19Z</time>
      </trkpt>
      <trkpt lat="43.9733" lon="7.3868">
        <ele>1734.3</ele>
        <time>1982-03-26T09:29:20Z</time>
      </trkpt>
      <trkpt lat="43.97331" lon="7.38682">
        <ele>1735.5</ele>
        <time>1982-03-26T09:29:21Z</time>
      </trkpt>
      <trkpt lat="43.97331" lon="7.38683">
        <ele>1735.9</ele>
        <time>1982-03-26T09:29:22Z</time>
      </trkpt>
      <trkpt lat="43.97332" lon="7.38685">
        <ele>1736.1</ele>
        <time>1982-03-26T09:29:23Z</time>
      </trkpt>
      <trkpt lat="43.97333" lon="7.38687">
        <ele>1736.5</ele>
        <time>1982-03-26T09:29:24Z</time>
      </trkpt>
      <trkpt lat="43.97334" lon="7.38689">
        <ele>1736.7</ele>
        <time>1982-03-26T09:29:25Z</time>
      </trkpt>
      <trkpt lat="43.97333" lon="7.3869">
        <ele>1736.7</ele>
        <time>1982-03-26T09:29:26Z</time>
      </trkpt>
      <trkpt lat="43.97334" lon="7.38692">
        <ele>1736.5</ele>
        <time>1982-03-26T09:29:27Z</time>
      </trkpt>
      <trkpt lat="43.97334" lon="7.38694">
        <ele>1736.4</ele>
        <time>1982-03-26T09:29:28Z</time>
      </trkpt>
      <trkpt lat="43.97334" lon="7.38696">
        <ele>1736.9</ele>
        <time>1982-03-26T09:29:29Z</time>
      </trkpt>
      <trkpt lat="43.97335" lon="7.38698">
        <ele>1737.4</ele>
        <time>1982-03-26T09:29:30Z</time>
      </trkpt>
      <trkpt lat="43.97334" lon="7.387">
        <ele>1737.8</ele>
        <time>1982-03-26T09:29:31Z</time>
      </trkpt>
      <trkpt lat="43.97335" lon="7.38702">
        <ele>1738.2</ele>
        <time>1982-03-26T09:29:32Z</time>
      </trkpt>
      <trkpt lat="43.97335" lon="7.38703">
        <ele>1738.4</ele>
        <time>1982-03-26T09:29:33Z</time>
      </trkpt>
      <trkpt lat="43.97335" lon="7.38705">
        <ele>1738.2</ele>
        <time>1982-03-26T09:29:34Z</time>
      </trkpt>
      <trkpt lat="43.97333" lon="7.38706">
        <ele>1738.3</ele>
        <time>1982-03-26T09:29:35Z</time>
      </trkpt>
      <trkpt lat="43.97332" lon="7.38706">
        <ele>1739.4</ele>
        <time>1982-03-26T09:29:36Z</time>
      </trkpt>
      <trkpt lat="43.97333" lon="7.38706">
        <ele>1740.1</ele>
        <time>1982-03-26T09:29:37Z</time>
      </trkpt>
      <trkpt lat="43.97333" lon="7.38706">
        <ele>1740.1</ele>
        <time>1982-03-26T09:29:44Z</time>
      </trkpt>
      <trkpt lat="43.97332" lon="7.38708">
        <ele>1740.5</ele>
        <time>1982-03-26T09:29:46Z</time>
      </trkpt>
      <trkpt lat="43.97332" lon="7.38708">
        <ele>1740.7</ele>
        <time>1982-03-26T09:29:47Z</time>
      </trkpt>
      <trkpt lat="43.97332" lon="7.38708">
        <ele>1740.7</ele>
        <time>1982-03-26T09:30:26Z</time>
      </trkpt>
      <trkpt lat="43.97329" lon="7.38708">
        <ele>1741</ele>
        <time>1982-03-26T09:30:28Z</time>
      </trkpt>
      <trkpt lat="43.97328" lon="7.38707">
        <ele>1741.1</ele>
        <time>1982-03-26T09:30:29Z</time>
      </trkpt>
      <trkpt lat="43.97326" lon="7.38706">
        <ele>1741.1</ele>
        <time>1982-03-26T09:30:30Z</time>
      </trkpt>
      <trkpt lat="43.97325" lon="7.38704">
        <ele>1740.9</ele>
        <time>1982-03-26T09:30:31Z</time>
      </trkpt>
      <trkpt lat="43.97324" lon="7.38702">
        <ele>1741.4</ele>
        <time>1982-03-26T09:30:32Z</time>
      </trkpt>
      <trkpt lat="43.97323" lon="7.38701">
        <ele>1741.7</ele>
        <time>1982-03-26T09:30:33Z</time>
      </trkpt>
      <trkpt lat="43.97323" lon="7.387">
        <ele>1740.9</ele>
        <time>1982-03-26T09:30:34Z</time>
      </trkpt>
      <trkpt lat="43.97322" lon="7.38698">
        <ele>1741.1</ele>
        <time>1982-03-26T09:30:35Z</time>
      </trkpt>
      <trkpt lat="43.97321" lon="7.38697">
        <ele>1741</ele>
        <time>1982-03-26T09:30:36Z</time>
      </trkpt>
      <trkpt lat="43.97321" lon="7.38696">
        <ele>1740.3</ele>
        <time>1982-03-26T09:30:37Z</time>
      </trkpt>
      <trkpt lat="43.9732" lon="7.38695">
        <ele>1740.3</ele>
        <time>1982-03-26T09:30:38Z</time>
      </trkpt>
      <trkpt lat="43.9732" lon="7.38693">
        <ele>1740.5</ele>
        <time>1982-03-26T09:30:39Z</time>
      </trkpt>
      <trkpt lat="43.97319" lon="7.38692">
        <ele>1740.9</ele>
        <time>1982-03-26T09:30:40Z</time>
      </trkpt>
      <trkpt lat="43.97317" lon="7.38691">
        <ele>1740.1</ele>
        <time>1982-03-26T09:30:41Z</time>
      </trkpt>
      <trkpt lat="43.97316" lon="7.3869">
        <ele>1738.4</ele>
        <time>1982-03-26T09:30:42Z</time>
      </trkpt>
      <trkpt lat="43.97316" lon="7.38689">
        <ele>1737.2</ele>
        <time>1982-03-26T09:30:43Z</time>
      </trkpt>
      <trkpt lat="43.97316" lon="7.38687">
        <ele>1736.5</ele>
        <time>1982-03-26T09:30:44Z</time>
      </trkpt>
      <trkpt lat="43.97316" lon="7.38685">
        <ele>1735.6</ele>
        <time>1982-03-26T09:30:45Z</time>
      </trkpt>
      <trkpt lat="43.97315" lon="7.38683">
        <ele>1735.5</ele>
        <time>1982-03-26T09:30:46Z</time>
      </trkpt>
      <trkpt lat="43.97314" lon="7.38682">
        <ele>1735.5</ele>
        <time>1982-03-26T09:30:47Z</time>
      </trkpt>
      <trkpt lat="43.97314" lon="7.3868">
        <ele>1735.5</ele>
        <time>1982-03-26T09:30:48Z</time>
      </trkpt>
      <trkpt lat="43.97313" lon="7.38679">
        <ele>1736</ele>
        <time>1982-03-26T09:30:49Z</time>
      </trkpt>
      <trkpt lat="43.97312" lon="7.38677">
        <ele>1736.4</ele>
        <time>1982-03-26T09:30:50Z</time>
      </trkpt>
      <trkpt lat="43.97311" lon="7.38675">
        <ele>1737.1</ele>
        <time>1982-03-26T09:30:51Z</time>
      </trkpt>
      <trkpt lat="43.97309" lon="7.38673">
        <ele>1737.4</ele>
        <time>1982-03-26T09:30:52Z</time>
      </trkpt>
      <trkpt lat="43.97309" lon="7.38671">
        <ele>1737.7</ele>
        <time>1982-03-26T09:30:53Z</time>
      </trkpt>
      <trkpt lat="43.97308" lon="7.38671">
        <ele>1738.5</ele>
        <time>1982-03-26T09:30:54Z</time>
      </trkpt>
      <trkpt lat="43.97307" lon="7.38668">
        <ele>1738.4</ele>
        <time>1982-03-26T09:30:55Z</time>
      </trkpt>
      <trkpt lat="43.97307" lon="7.38665">
        <ele>1738.4</ele>
        <time>1982-03-26T09:30:56Z</time>
      </trkpt>
      <trkpt lat="43.97306" lon="7.38663">
        <ele>1739.3</ele>
        <time>1982-03-26T09:30:57Z</time>
      </trkpt>
      <trkpt lat="43.97307" lon="7.38662">
        <ele>1740</ele>
        <time>1982-03-26T09:30:58Z</time>
      </trkpt>
      <trkpt lat="43.97305" lon="7.3866">
        <ele>1740</ele>
        <time>1982-03-26T09:30:59Z</time>
      </trkpt>
      <trkpt lat="43.97305" lon="7.38658">
        <ele>1740.4</ele>
        <time>1982-03-26T09:31:01Z</time>
      </trkpt>
      <trkpt lat="43.97304" lon="7.38656">
        <ele>1743.6</ele>
        <time>1982-03-26T09:31:01Z</time>
      </trkpt>
      <trkpt lat="43.97302" lon="7.38657">
        <ele>1741.8</ele>
        <time>1982-03-26T09:31:02Z</time>
      </trkpt>
      <trkpt lat="43.97301" lon="7.38657">
        <ele>1742.4</ele>
        <time>1982-03-26T09:31:03Z</time>
      </trkpt>
      <trkpt lat="43.97299" lon="7.38657">
        <ele>1739.7</ele>
        <time>1982-03-26T09:31:04Z</time>
      </trkpt>
      <trkpt lat="43.97297" lon="7.38656">
        <ele>1739.7</ele>
        <time>1982-03-26T09:31:05Z</time>
      </trkpt>
      <trkpt lat="43.97297" lon="7.38655">
        <ele>1739.7</ele>
        <time>1982-03-26T09:31:06Z</time>
      </trkpt>
      <trkpt lat="43.97294" lon="7.38652">
        <ele>1739</ele>
        <time>1982-03-26T09:31:09Z</time>
      </trkpt>
      <trkpt lat="43.97293" lon="7.38649">
        <ele>1740</ele>
        <time>1982-03-26T09:31:09Z</time>
      </trkpt>
      <trkpt lat="43.97292" lon="7.38648">
        <ele>1740.6</ele>
        <time>1982-03-26T09:31:10Z</time>
      </trkpt>
      <trkpt lat="43.9729" lon="7.38648">
        <ele>1740.1</ele>
        <time>1982-03-26T09:31:11Z</time>
      </trkpt>
      <trkpt lat="43.97289" lon="7.38648">
        <ele>1739.3</ele>
        <time>1982-03-26T09:31:12Z</time>
      </trkpt>
      <trkpt lat="43.97288" lon="7.38647">
        <ele>1739.8</ele>
        <time>1982-03-26T09:31:13Z</time>
      </trkpt>
      <trkpt lat="43.97288" lon="7.38648">
        <ele>1740</ele>
        <time>1982-03-26T09:31:14Z</time>
      </trkpt>
      <trkpt lat="43.97288" lon="7.38648">
        <ele>1740</ele>
        <time>1982-03-26T09:31:18Z</time>
      </trkpt>
      <trkpt lat="43.97287" lon="7.38648">
        <ele>1740.6</ele>
        <time>1982-03-26T09:31:20Z</time>
      </trkpt>
      <trkpt lat="43.97286" lon="7.38648">
        <ele>1740.9</ele>
        <time>1982-03-26T09:31:21Z</time>
      </trkpt>
      <trkpt lat="43.97286" lon="7.38648">
        <ele>1740.9</ele>
        <time>1982-03-26T09:31:23Z</time>
      </trkpt>
      <trkpt lat="43.97286" lon="7.38648">
        <ele>1741.6</ele>
        <time>1982-03-26T09:31:25Z</time>
      </trkpt>
      <trkpt lat="43.97286" lon="7.38648">
        <ele>1741.6</ele>
        <time>1982-03-26T09:32:56Z</time>
      </trkpt>
      <trkpt lat="43.97286" lon="7.38648">
        <ele>1742.2</ele>
        <time>1982-03-26T09:32:58Z</time>
      </trkpt>
      <trkpt lat="43.97286" lon="7.38648">
        <ele>1742.2</ele>
        <time>1982-03-26T09:34:55Z</time>
      </trkpt>
      <trkpt lat="43.97286" lon="7.38648">
        <ele>1742.7</ele>
        <time>1982-03-26T09:34:57Z</time>
      </trkpt>
      <trkpt lat="43.97286" lon="7.38648">
        <ele>1742.7</ele>
        <time>1982-03-26T09:35:48Z</time>
      </trkpt>
      <trkpt lat="43.97285" lon="7.38644">
        <ele>1744</ele>
        <time>1982-03-26T09:35:50Z</time>
      </trkpt>
      <trkpt lat="43.97284" lon="7.38643">
        <ele>1744.5</ele>
        <time>1982-03-26T09:35:51Z</time>
      </trkpt>
      <trkpt lat="43.97283" lon="7.38644">
        <ele>1742.3</ele>
        <time>1982-03-26T09:35:52Z</time>
      </trkpt>
      <trkpt lat="43.97282" lon="7.38643">
        <ele>1741.6</ele>
        <time>1982-03-26T09:35:53Z</time>
      </trkpt>
      <trkpt lat="43.97282" lon="7.38642">
        <ele>1740.9</ele>
        <time>1982-03-26T09:35:54Z</time>
      </trkpt>
      <trkpt lat="43.97281" lon="7.38641">
        <ele>1740.9</ele>
        <time>1982-03-26T09:35:55Z</time>
      </trkpt>
      <trkpt lat="43.97281" lon="7.38637">
        <ele>1741.7</ele>
        <time>1982-03-26T09:35:57Z</time>
      </trkpt>
      <trkpt lat="43.9728" lon="7.38635">
        <ele>1741.6</ele>
        <time>1982-03-26T09:35:58Z</time>
      </trkpt>
      <trkpt lat="43.97279" lon="7.38634">
        <ele>1742.1</ele>
        <time>1982-03-26T09:35:59Z</time>
      </trkpt>
      <trkpt lat="43.97278" lon="7.38631">
        <ele>1742.9</ele>
        <time>1982-03-26T09:36:00Z</time>
      </trkpt>
      <trkpt lat="43.97278" lon="7.38629">
        <ele>1743.1</ele>
        <time>1982-03-26T09:36:01Z</time>
      </trkpt>
      <trkpt lat="43.97276" lon="7.38627">
        <ele>1744</ele>
        <time>1982-03-26T09:36:02Z</time>
      </trkpt>
      <trkpt lat="43.97275" lon="7.38625">
        <ele>1744.1</ele>
        <time>1982-03-26T09:36:03Z</time>
      </trkpt>
      <trkpt lat="43.97273" lon="7.38622">
        <ele>1745.1</ele>
        <time>1982-03-26T09:36:04Z</time>
      </trkpt>
      <trkpt lat="43.97272" lon="7.38619">
        <ele>1745.8</ele>
        <time>1982-03-26T09:36:05Z</time>
      </trkpt>
      <trkpt lat="43.97273" lon="7.38616">
        <ele>1747.4</ele>
        <time>1982-03-26T09:36:06Z</time>
      </trkpt>
      <trkpt lat="43.97273" lon="7.38613">
        <ele>1749.3</ele>
        <time>1982-03-26T09:36:07Z</time>
      </trkpt>
      <trkpt lat="43.97273" lon="7.38611">
        <ele>1750.9</ele>
        <time>1982-03-26T09:36:08Z</time>
      </trkpt>
      <trkpt lat="43.97273" lon="7.38609">
        <ele>1751.4</ele>
        <time>1982-03-26T09:36:09Z</time>
      </trkpt>
      <trkpt lat="43.97273" lon="7.38606">
        <ele>1750.2</ele>
        <time>1982-03-26T09:36:10Z</time>
      </trkpt>
      <trkpt lat="43.97274" lon="7.38604">
        <ele>1751.1</ele>
        <time>1982-03-26T09:36:11Z</time>
      </trkpt>
      <trkpt lat="43.97274" lon="7.38601">
        <ele>1751</ele>
        <time>1982-03-26T09:36:12Z</time>
      </trkpt>
      <trkpt lat="43.97273" lon="7.386">
        <ele>1751</ele>
        <time>1982-03-26T09:36:13Z</time>
      </trkpt>
      <trkpt lat="43.97273" lon="7.38598">
        <ele>1751.5</ele>
        <time>1982-03-26T09:36:14Z</time>
      </trkpt>
      <trkpt lat="43.97273" lon="7.38596">
        <ele>1752</ele>
        <time>1982-03-26T09:36:15Z</time>
      </trkpt>
      <trkpt lat="43.97271" lon="7.38592">
        <ele>1751.8</ele>
        <time>1982-03-26T09:36:16Z</time>
      </trkpt>
      <trkpt lat="43.97272" lon="7.38591">
        <ele>1752.3</ele>
        <time>1982-03-26T09:36:17Z</time>
      </trkpt>
      <trkpt lat="43.97273" lon="7.38589">
        <ele>1752.4</ele>
        <time>1982-03-26T09:36:18Z</time>
      </trkpt>
      <trkpt lat="43.97273" lon="7.38587">
        <ele>1753.5</ele>
        <time>1982-03-26T09:36:19Z</time>
      </trkpt>
      <trkpt lat="43.97274" lon="7.38585">
        <ele>1753.6</ele>
        <time>1982-03-26T09:36:20Z</time>
      </trkpt>
      <trkpt lat="43.97275" lon="7.38583">
        <ele>1753.8</ele>
        <time>1982-03-26T09:36:21Z</time>
      </trkpt>
      <trkpt lat="43.97274" lon="7.38582">
        <ele>1752.9</ele>
        <time>1982-03-26T09:36:22Z</time>
      </trkpt>
      <trkpt lat="43.97274" lon="7.3858">
        <ele>1753.3</ele>
        <time>1982-03-26T09:36:23Z</time>
      </trkpt>
      <trkpt lat="43.97274" lon="7.38578">
        <ele>1754.5</ele>
        <time>1982-03-26T09:36:24Z</time>
      </trkpt>
      <trkpt lat="43.97274" lon="7.38575">
        <ele>1754.9</ele>
        <time>1982-03-26T09:36:25Z</time>
      </trkpt>
      <trkpt lat="43.97274" lon="7.38573">
        <ele>1754.8</ele>
        <time>1982-03-26T09:36:26Z</time>
      </trkpt>
      <trkpt lat="43.97274" lon="7.38571">
        <ele>1755.3</ele>
        <time>1982-03-26T09:36:27Z</time>
      </trkpt>
      <trkpt lat="43.97274" lon="7.38569">
        <ele>1753.5</ele>
        <time>1982-03-26T09:36:28Z</time>
      </trkpt>
      <trkpt lat="43.97273" lon="7.38568">
        <ele>1752.7</ele>
        <time>1982-03-26T09:36:29Z</time>
      </trkpt>
      <trkpt lat="43.97273" lon="7.38566">
        <ele>1754</ele>
        <time>1982-03-26T09:36:30Z</time>
      </trkpt>
      <trkpt lat="43.97273" lon="7.38564">
        <ele>1755.6</ele>
        <time>1982-03-26T09:36:31Z</time>
      </trkpt>
      <trkpt lat="43.97272" lon="7.38561">
        <ele>1756.1</ele>
        <time>1982-03-26T09:36:32Z</time>
      </trkpt>
      <trkpt lat="43.97274" lon="7.38559">
        <ele>1757.4</ele>
        <time>1982-03-26T09:36:33Z</time>
      </trkpt>
      <trkpt lat="43.97273" lon="7.38557">
        <ele>1756.6</ele>
        <time>1982-03-26T09:36:34Z</time>
      </trkpt>
      <trkpt lat="43.97274" lon="7.38555">
        <ele>1756.6</ele>
        <time>1982-03-26T09:36:35Z</time>
      </trkpt>
      <trkpt lat="43.97273" lon="7.38553">
        <ele>1756.1</ele>
        <time>1982-03-26T09:36:36Z</time>
      </trkpt>
      <trkpt lat="43.97273" lon="7.38552">
        <ele>1755.7</ele>
        <time>1982-03-26T09:36:37Z</time>
      </trkpt>
      <trkpt lat="43.97272" lon="7.3855">
        <ele>1755.9</ele>
        <time>1982-03-26T09:36:38Z</time>
      </trkpt>
      <trkpt lat="43.97271" lon="7.38549">
        <ele>1755.7</ele>
        <time>1982-03-26T09:36:39Z</time>
      </trkpt>
      <trkpt lat="43.97271" lon="7.38547">
        <ele>1755.9</ele>
        <time>1982-03-26T09:36:40Z</time>
      </trkpt>
      <trkpt lat="43.97271" lon="7.38545">
        <ele>1756</ele>
        <time>1982-03-26T09:36:41Z</time>
      </trkpt>
      <trkpt lat="43.97271" lon="7.38542">
        <ele>1756</ele>
        <time>1982-03-26T09:36:42Z</time>
      </trkpt>
      <trkpt lat="43.9727" lon="7.3854">
        <ele>1755.7</ele>
        <time>1982-03-26T09:36:43Z</time>
      </trkpt>
      <trkpt lat="43.97271" lon="7.38538">
        <ele>1754.8</ele>
        <time>1982-03-26T09:36:44Z</time>
      </trkpt>
      <trkpt lat="43.9727" lon="7.38535">
        <ele>1755</ele>
        <time>1982-03-26T09:36:45Z</time>
      </trkpt>
      <trkpt lat="43.97271" lon="7.38533">
        <ele>1755</ele>
        <time>1982-03-26T09:36:46Z</time>
      </trkpt>
      <trkpt lat="43.9727" lon="7.38531">
        <ele>1755.8</ele>
        <time>1982-03-26T09:36:47Z</time>
      </trkpt>
      <trkpt lat="43.9727" lon="7.3853">
        <ele>1755.5</ele>
        <time>1982-03-26T09:36:48Z</time>
      </trkpt>
      <trkpt lat="43.97268" lon="7.38528">
        <ele>1753.6</ele>
        <time>1982-03-26T09:36:50Z</time>
      </trkpt>
      <trkpt lat="43.97268" lon="7.38526">
        <ele>1752.9</ele>
        <time>1982-03-26T09:36:51Z</time>
      </trkpt>
      <trkpt lat="43.97268" lon="7.38524">
        <ele>1753</ele>
        <time>1982-03-26T09:36:52Z</time>
      </trkpt>
      <trkpt lat="43.97268" lon="7.38522">
        <ele>1754.2</ele>
        <time>1982-03-26T09:36:53Z</time>
      </trkpt>
      <trkpt lat="43.97268" lon="7.3852">
        <ele>1754.4</ele>
        <time>1982-03-26T09:36:54Z</time>
      </trkpt>
      <trkpt lat="43.97268" lon="7.38518">
        <ele>1754.8</ele>
        <time>1982-03-26T09:36:55Z</time>
      </trkpt>
      <trkpt lat="43.97267" lon="7.38516">
        <ele>1754.6</ele>
        <time>1982-03-26T09:36:56Z</time>
      </trkpt>
      <trkpt lat="43.97267" lon="7.38514">
        <ele>1754.9</ele>
        <time>1982-03-26T09:36:57Z</time>
      </trkpt>
      <trkpt lat="43.97266" lon="7.38513">
        <ele>1754.8</ele>
        <time>1982-03-26T09:36:58Z</time>
      </trkpt>
      <trkpt lat="43.97265" lon="7.38511">
        <ele>1754.9</ele>
        <time>1982-03-26T09:36:59Z</time>
      </trkpt>
      <trkpt lat="43.97265" lon="7.38509">
        <ele>1754.6</ele>
        <time>1982-03-26T09:37:00Z</time>
      </trkpt>
      <trkpt lat="43.97265" lon="7.38507">
        <ele>1755.3</ele>
        <time>1982-03-26T09:37:01Z</time>
      </trkpt>
      <trkpt lat="43.97265" lon="7.38505">
        <ele>1754.6</ele>
        <time>1982-03-26T09:37:02Z</time>
      </trkpt>
      <trkpt lat="43.97264" lon="7.38503">
        <ele>1754.5</ele>
        <time>1982-03-26T09:37:03Z</time>
      </trkpt>
      <trkpt lat="43.97263" lon="7.38502">
        <ele>1754</ele>
        <time>1982-03-26T09:37:04Z</time>
      </trkpt>
      <trkpt lat="43.97263" lon="7.385">
        <ele>1754.1</ele>
        <time>1982-03-26T09:37:05Z</time>
      </trkpt>
      <trkpt lat="43.97263" lon="7.38498">
        <ele>1754.6</ele>
        <time>1982-03-26T09:37:06Z</time>
      </trkpt>
      <trkpt lat="43.97263" lon="7.38497">
        <ele>1755.1</ele>
        <time>1982-03-26T09:37:07Z</time>
      </trkpt>
      <trkpt lat="43.97262" lon="7.38496">
        <ele>1755.4</ele>
        <time>1982-03-26T09:37:08Z</time>
      </trkpt>
      <trkpt lat="43.97261" lon="7.38492">
        <ele>1756.1</ele>
        <time>1982-03-26T09:37:10Z</time>
      </trkpt>
      <trkpt lat="43.97261" lon="7.3849">
        <ele>1755.5</ele>
        <time>1982-03-26T09:37:11Z</time>
      </trkpt>
      <trkpt lat="43.97261" lon="7.38488">
        <ele>1755.2</ele>
        <time>1982-03-26T09:37:12Z</time>
      </trkpt>
      <trkpt lat="43.97261" lon="7.38486">
        <ele>1754.7</ele>
        <time>1982-03-26T09:37:13Z</time>
      </trkpt>
      <trkpt lat="43.9726" lon="7.38484">
        <ele>1754.4</ele>
        <time>1982-03-26T09:37:14Z</time>
      </trkpt>
      <trkpt lat="43.9726" lon="7.38482">
        <ele>1754.2</ele>
        <time>1982-03-26T09:37:15Z</time>
      </trkpt>
      <trkpt lat="43.9726" lon="7.38479">
        <ele>1753.7</ele>
        <time>1982-03-26T09:37:16Z</time>
      </trkpt>
      <trkpt lat="43.9726" lon="7.38477">
        <ele>1753.3</ele>
        <time>1982-03-26T09:37:17Z</time>
      </trkpt>
      <trkpt lat="43.97259" lon="7.38476">
        <ele>1752.5</ele>
        <time>1982-03-26T09:37:18Z</time>
      </trkpt>
      <trkpt lat="43.97259" lon="7.38474">
        <ele>1752.9</ele>
        <time>1982-03-26T09:37:19Z</time>
      </trkpt>
      <trkpt lat="43.97259" lon="7.38472">
        <ele>1753.1</ele>
        <time>1982-03-26T09:37:20Z</time>
      </trkpt>
      <trkpt lat="43.97259" lon="7.3847">
        <ele>1753.6</ele>
        <time>1982-03-26T09:37:21Z</time>
      </trkpt>
      <trkpt lat="43.97258" lon="7.38468">
        <ele>1753.5</ele>
        <time>1982-03-26T09:37:22Z</time>
      </trkpt>
      <trkpt lat="43.97258" lon="7.38466">
        <ele>1753.6</ele>
        <time>1982-03-26T09:37:23Z</time>
      </trkpt>
      <trkpt lat="43.97258" lon="7.38464">
        <ele>1753.2</ele>
        <time>1982-03-26T09:37:24Z</time>
      </trkpt>
      <trkpt lat="43.97258" lon="7.38463">
        <ele>1753.7</ele>
        <time>1982-03-26T09:37:25Z</time>
      </trkpt>
      <trkpt lat="43.97258" lon="7.3846">
        <ele>1754</ele>
        <time>1982-03-26T09:37:26Z</time>
      </trkpt>
      <trkpt lat="43.97259" lon="7.38458">
        <ele>1753.8</ele>
        <time>1982-03-26T09:37:27Z</time>
      </trkpt>
      <trkpt lat="43.97257" lon="7.38457">
        <ele>1753.1</ele>
        <time>1982-03-26T09:37:28Z</time>
      </trkpt>
      <trkpt lat="43.97257" lon="7.38456">
        <ele>1752.3</ele>
        <time>1982-03-26T09:37:29Z</time>
      </trkpt>
      <trkpt lat="43.97258" lon="7.38454">
        <ele>1752.4</ele>
        <time>1982-03-26T09:37:30Z</time>
      </trkpt>
      <trkpt lat="43.97258" lon="7.38452">
        <ele>1752.4</ele>
        <time>1982-03-26T09:37:31Z</time>
      </trkpt>
      <trkpt lat="43.97258" lon="7.38451">
        <ele>1752.5</ele>
        <time>1982-03-26T09:37:32Z</time>
      </trkpt>
      <trkpt lat="43.97258" lon="7.38449">
        <ele>1752.5</ele>
        <time>1982-03-26T09:37:33Z</time>
      </trkpt>
      <trkpt lat="43.97258" lon="7.38447">
        <ele>1752.1</ele>
        <time>1982-03-26T09:37:34Z</time>
      </trkpt>
      <trkpt lat="43.97257" lon="7.38445">
        <ele>1751.7</ele>
        <time>1982-03-26T09:37:35Z</time>
      </trkpt>
      <trkpt lat="43.97256" lon="7.38443">
        <ele>1751.8</ele>
        <time>1982-03-26T09:37:36Z</time>
      </trkpt>
      <trkpt lat="43.97257" lon="7.38442">
        <ele>1751.8</ele>
        <time>1982-03-26T09:37:37Z</time>
      </trkpt>
      <trkpt lat="43.97256" lon="7.3844">
        <ele>1752.5</ele>
        <time>1982-03-26T09:37:38Z</time>
      </trkpt>
      <trkpt lat="43.97256" lon="7.38438">
        <ele>1752.4</ele>
        <time>1982-03-26T09:37:39Z</time>
      </trkpt>
      <trkpt lat="43.97255" lon="7.38437">
        <ele>1751.6</ele>
        <time>1982-03-26T09:37:40Z</time>
      </trkpt>
      <trkpt lat="43.97254" lon="7.38436">
        <ele>1750.7</ele>
        <time>1982-03-26T09:37:41Z</time>
      </trkpt>
      <trkpt lat="43.97253" lon="7.38435">
        <ele>1749.8</ele>
        <time>1982-03-26T09:37:42Z</time>
      </trkpt>
      <trkpt lat="43.97253" lon="7.38433">
        <ele>1750.2</ele>
        <time>1982-03-26T09:37:43Z</time>
      </trkpt>
      <trkpt lat="43.97252" lon="7.38431">
        <ele>1749.8</ele>
        <time>1982-03-26T09:37:44Z</time>
      </trkpt>
      <trkpt lat="43.97252" lon="7.38429">
        <ele>1749.8</ele>
        <time>1982-03-26T09:37:45Z</time>
      </trkpt>
      <trkpt lat="43.97251" lon="7.38428">
        <ele>1750.5</ele>
        <time>1982-03-26T09:37:46Z</time>
      </trkpt>
      <trkpt lat="43.97251" lon="7.38426">
        <ele>1751</ele>
        <time>1982-03-26T09:37:47Z</time>
      </trkpt>
      <trkpt lat="43.97251" lon="7.38424">
        <ele>1751.7</ele>
        <time>1982-03-26T09:37:48Z</time>
      </trkpt>
      <trkpt lat="43.9725" lon="7.38422">
        <ele>1752.2</ele>
        <time>1982-03-26T09:37:49Z</time>
      </trkpt>
      <trkpt lat="43.97249" lon="7.3842">
        <ele>1751.1</ele>
        <time>1982-03-26T09:37:50Z</time>
      </trkpt>
      <trkpt lat="43.97248" lon="7.38419">
        <ele>1751</ele>
        <time>1982-03-26T09:37:51Z</time>
      </trkpt>
      <trkpt lat="43.97249" lon="7.38416">
        <ele>1751.4</ele>
        <time>1982-03-26T09:37:52Z</time>
      </trkpt>
      <trkpt lat="43.97249" lon="7.38414">
        <ele>1751.9</ele>
        <time>1982-03-26T09:37:53Z</time>
      </trkpt>
      <trkpt lat="43.97249" lon="7.38412">
        <ele>1753.2</ele>
        <time>1982-03-26T09:37:54Z</time>
      </trkpt>
      <trkpt lat="43.97248" lon="7.38411">
        <ele>1752.6</ele>
        <time>1982-03-26T09:37:55Z</time>
      </trkpt>
      <trkpt lat="43.97248" lon="7.38408">
        <ele>1753.3</ele>
        <time>1982-03-26T09:37:56Z</time>
      </trkpt>
      <trkpt lat="43.97248" lon="7.38406">
        <ele>1754.6</ele>
        <time>1982-03-26T09:37:57Z</time>
      </trkpt>
      <trkpt lat="43.97249" lon="7.38404">
        <ele>1755.2</ele>
        <time>1982-03-26T09:37:58Z</time>
      </trkpt>
      <trkpt lat="43.97249" lon="7.38402">
        <ele>1754.8</ele>
        <time>1982-03-26T09:37:59Z</time>
      </trkpt>
      <trkpt lat="43.97249" lon="7.384">
        <ele>1754.9</ele>
        <time>1982-03-26T09:38:00Z</time>
      </trkpt>
      <trkpt lat="43.97248" lon="7.38398">
        <ele>1755.6</ele>
        <time>1982-03-26T09:38:01Z</time>
      </trkpt>
      <trkpt lat="43.97247" lon="7.38396">
        <ele>1755.5</ele>
        <time>1982-03-26T09:38:02Z</time>
      </trkpt>
      <trkpt lat="43.97247" lon="7.38394">
        <ele>1756.7</ele>
        <time>1982-03-26T09:38:03Z</time>
      </trkpt>
      <trkpt lat="43.97247" lon="7.38393">
        <ele>1757.3</ele>
        <time>1982-03-26T09:38:04Z</time>
      </trkpt>
      <trkpt lat="43.97247" lon="7.3839">
        <ele>1757.9</ele>
        <time>1982-03-26T09:38:05Z</time>
      </trkpt>
      <trkpt lat="43.97246" lon="7.38389">
        <ele>1758.7</ele>
        <time>1982-03-26T09:38:06Z</time>
      </trkpt>
      <trkpt lat="43.97246" lon="7.38387">
        <ele>1758.6</ele>
        <time>1982-03-26T09:38:07Z</time>
      </trkpt>
      <trkpt lat="43.97245" lon="7.38386">
        <ele>1758.6</ele>
        <time>1982-03-26T09:38:08Z</time>
      </trkpt>
      <trkpt lat="43.97244" lon="7.38385">
        <ele>1758.5</ele>
        <time>1982-03-26T09:38:09Z</time>
      </trkpt>
      <trkpt lat="43.97243" lon="7.38383">
        <ele>1758.6</ele>
        <time>1982-03-26T09:38:10Z</time>
      </trkpt>
      <trkpt lat="43.97243" lon="7.38381">
        <ele>1758.6</ele>
        <time>1982-03-26T09:38:11Z</time>
      </trkpt>
      <trkpt lat="43.97243" lon="7.38379">
        <ele>1759</ele>
        <time>1982-03-26T09:38:12Z</time>
      </trkpt>
      <trkpt lat="43.97243" lon="7.38377">
        <ele>1758.9</ele>
        <time>1982-03-26T09:38:13Z</time>
      </trkpt>
      <trkpt lat="43.97243" lon="7.38375">
        <ele>1759.4</ele>
        <time>1982-03-26T09:38:14Z</time>
      </trkpt>
      <trkpt lat="43.97243" lon="7.38373">
        <ele>1759.6</ele>
        <time>1982-03-26T09:38:15Z</time>
      </trkpt>
      <trkpt lat="43.97242" lon="7.38372">
        <ele>1759.6</ele>
        <time>1982-03-26T09:38:16Z</time>
      </trkpt>
      <trkpt lat="43.97242" lon="7.38369">
        <ele>1760.7</ele>
        <time>1982-03-26T09:38:18Z</time>
      </trkpt>
      <trkpt lat="43.97243" lon="7.38368">
        <ele>1761</ele>
        <time>1982-03-26T09:38:19Z</time>
      </trkpt>
      <trkpt lat="43.97242" lon="7.38366">
        <ele>1761.1</ele>
        <time>1982-03-26T09:38:20Z</time>
      </trkpt>
      <trkpt lat="43.97242" lon="7.38365">
        <ele>1761.8</ele>
        <time>1982-03-26T09:38:21Z</time>
      </trkpt>
      <trkpt lat="43.97242" lon="7.38362">
        <ele>1762.7</ele>
        <time>1982-03-26T09:38:22Z</time>
      </trkpt>
      <trkpt lat="43.97242" lon="7.3836">
        <ele>1763.2</ele>
        <time>1982-03-26T09:38:23Z</time>
      </trkpt>
      <trkpt lat="43.97242" lon="7.38357">
        <ele>1763.6</ele>
        <time>1982-03-26T09:38:24Z</time>
      </trkpt>
      <trkpt lat="43.97242" lon="7.38355">
        <ele>1765.9</ele>
        <time>1982-03-26T09:38:25Z</time>
      </trkpt>
      <trkpt lat="43.97242" lon="7.38353">
        <ele>1766.6</ele>
        <time>1982-03-26T09:38:26Z</time>
      </trkpt>
      <trkpt lat="43.97242" lon="7.38351">
        <ele>1767.5</ele>
        <time>1982-03-26T09:38:27Z</time>
      </trkpt>
      <trkpt lat="43.97241" lon="7.3835">
        <ele>1767</ele>
        <time>1982-03-26T09:38:28Z</time>
      </trkpt>
      <trkpt lat="43.9724" lon="7.38349">
        <ele>1766.6</ele>
        <time>1982-03-26T09:38:29Z</time>
      </trkpt>
      <trkpt lat="43.97239" lon="7.38347">
        <ele>1766.8</ele>
        <time>1982-03-26T09:38:30Z</time>
      </trkpt>
      <trkpt lat="43.97239" lon="7.38345">
        <ele>1767.4</ele>
        <time>1982-03-26T09:38:31Z</time>
      </trkpt>
      <trkpt lat="43.97238" lon="7.38344">
        <ele>1768.3</ele>
        <time>1982-03-26T09:38:32Z</time>
      </trkpt>
      <trkpt lat="43.97237" lon="7.38342">
        <ele>1768.9</ele>
        <time>1982-03-26T09:38:33Z</time>
      </trkpt>
      <trkpt lat="43.97237" lon="7.38341">
        <ele>1769.2</ele>
        <time>1982-03-26T09:38:34Z</time>
      </trkpt>
      <trkpt lat="43.97235" lon="7.38339">
        <ele>1768.7</ele>
        <time>1982-03-26T09:38:35Z</time>
      </trkpt>
      <trkpt lat="43.97234" lon="7.38338">
        <ele>1768.9</ele>
        <time>1982-03-26T09:38:36Z</time>
      </trkpt>
      <trkpt lat="43.97233" lon="7.38337">
        <ele>1769.3</ele>
        <time>1982-03-26T09:38:37Z</time>
      </trkpt>
      <trkpt lat="43.97233" lon="7.38335">
        <ele>1769.4</ele>
        <time>1982-03-26T09:38:38Z</time>
      </trkpt>
      <trkpt lat="43.97231" lon="7.38334">
        <ele>1769.6</ele>
        <time>1982-03-26T09:38:39Z</time>
      </trkpt>
      <trkpt lat="43.97231" lon="7.38332">
        <ele>1769.6</ele>
        <time>1982-03-26T09:38:40Z</time>
      </trkpt>
      <trkpt lat="43.97229" lon="7.3833">
        <ele>1769.7</ele>
        <time>1982-03-26T09:38:41Z</time>
      </trkpt>
      <trkpt lat="43.97228" lon="7.38329">
        <ele>1770.1</ele>
        <time>1982-03-26T09:38:42Z</time>
      </trkpt>
      <trkpt lat="43.97228" lon="7.38327">
        <ele>1769.7</ele>
        <time>1982-03-26T09:38:43Z</time>
      </trkpt>
      <trkpt lat="43.97227" lon="7.38326">
        <ele>1769.4</ele>
        <time>1982-03-26T09:38:44Z</time>
      </trkpt>
      <trkpt lat="43.97225" lon="7.38325">
        <ele>1768.6</ele>
        <time>1982-03-26T09:38:45Z</time>
      </trkpt>
      <trkpt lat="43.97224" lon="7.38324">
        <ele>1768.3</ele>
        <time>1982-03-26T09:38:46Z</time>
      </trkpt>
      <trkpt lat="43.97223" lon="7.38323">
        <ele>1768.9</ele>
        <time>1982-03-26T09:38:47Z</time>
      </trkpt>
      <trkpt lat="43.97222" lon="7.38321">
        <ele>1769.6</ele>
        <time>1982-03-26T09:38:48Z</time>
      </trkpt>
      <trkpt lat="43.97222" lon="7.3832">
        <ele>1769.4</ele>
        <time>1982-03-26T09:38:49Z</time>
      </trkpt>
      <trkpt lat="43.97221" lon="7.38319">
        <ele>1770.2</ele>
        <time>1982-03-26T09:38:50Z</time>
      </trkpt>
      <trkpt lat="43.97219" lon="7.38318">
        <ele>1770</ele>
        <time>1982-03-26T09:38:51Z</time>
      </trkpt>
      <trkpt lat="43.97218" lon="7.38318">
        <ele>1770</ele>
        <time>1982-03-26T09:38:52Z</time>
      </trkpt>
      <trkpt lat="43.97216" lon="7.38316">
        <ele>1770.6</ele>
        <time>1982-03-26T09:38:54Z</time>
      </trkpt>
      <trkpt lat="43.97215" lon="7.38315">
        <ele>1771.6</ele>
        <time>1982-03-26T09:38:55Z</time>
      </trkpt>
      <trkpt lat="43.97215" lon="7.38314">
        <ele>1771.6</ele>
        <time>1982-03-26T09:38:56Z</time>
      </trkpt>
      <trkpt lat="43.97214" lon="7.38313">
        <ele>1771.5</ele>
        <time>1982-03-26T09:38:57Z</time>
      </trkpt>
      <trkpt lat="43.97212" lon="7.38312">
        <ele>1772</ele>
        <time>1982-03-26T09:38:59Z</time>
      </trkpt>
      <trkpt lat="43.9721" lon="7.38311">
        <ele>1772.4</ele>
        <time>1982-03-26T09:39:00Z</time>
      </trkpt>
      <trkpt lat="43.97209" lon="7.3831">
        <ele>1772.6</ele>
        <time>1982-03-26T09:39:01Z</time>
      </trkpt>
      <trkpt lat="43.97208" lon="7.3831">
        <ele>1772.7</ele>
        <time>1982-03-26T09:39:02Z</time>
      </trkpt>
      <trkpt lat="43.97207" lon="7.38309">
        <ele>1773.1</ele>
        <time>1982-03-26T09:39:03Z</time>
      </trkpt>
      <trkpt lat="43.97206" lon="7.38308">
        <ele>1773.4</ele>
        <time>1982-03-26T09:39:04Z</time>
      </trkpt>
      <trkpt lat="43.97204" lon="7.38308">
        <ele>1773.5</ele>
        <time>1982-03-26T09:39:05Z</time>
      </trkpt>
      <trkpt lat="43.97203" lon="7.38307">
        <ele>1772.9</ele>
        <time>1982-03-26T09:39:06Z</time>
      </trkpt>
      <trkpt lat="43.97202" lon="7.38307">
        <ele>1772.8</ele>
        <time>1982-03-26T09:39:07Z</time>
      </trkpt>
      <trkpt lat="43.97201" lon="7.38306">
        <ele>1772.7</ele>
        <time>1982-03-26T09:39:08Z</time>
      </trkpt>
      <trkpt lat="43.972" lon="7.38305">
        <ele>1772.9</ele>
        <time>1982-03-26T09:39:09Z</time>
      </trkpt>
      <trkpt lat="43.97199" lon="7.38305">
        <ele>1773.2</ele>
        <time>1982-03-26T09:39:10Z</time>
      </trkpt>
      <trkpt lat="43.97198" lon="7.38305">
        <ele>1773</ele>
        <time>1982-03-26T09:39:11Z</time>
      </trkpt>
      <trkpt lat="43.97197" lon="7.38305">
        <ele>1772.7</ele>
        <time>1982-03-26T09:39:12Z</time>
      </trkpt>
      <trkpt lat="43.97195" lon="7.38305">
        <ele>1772.5</ele>
        <time>1982-03-26T09:39:14Z</time>
      </trkpt>
      <trkpt lat="43.97195" lon="7.38305">
        <ele>1772.6</ele>
        <time>1982-03-26T09:39:15Z</time>
      </trkpt>
      <trkpt lat="43.97195" lon="7.38305">
        <ele>1772.6</ele>
        <time>1982-03-26T09:39:20Z</time>
      </trkpt>
      <trkpt lat="43.97196" lon="7.38305">
        <ele>1773.5</ele>
        <time>1982-03-26T09:39:22Z</time>
      </trkpt>
      <trkpt lat="43.97196" lon="7.38305">
        <ele>1774.2</ele>
        <time>1982-03-26T09:39:23Z</time>
      </trkpt>
      <trkpt lat="43.97196" lon="7.38305">
        <ele>1774.2</ele>
        <time>1982-03-26T09:39:30Z</time>
      </trkpt>
      <trkpt lat="43.97196" lon="7.38304">
        <ele>1774.4</ele>
        <time>1982-03-26T09:39:32Z</time>
      </trkpt>
      <trkpt lat="43.97196" lon="7.38304">
        <ele>1774.4</ele>
        <time>1982-03-26T09:40:04Z</time>
      </trkpt>
      <trkpt lat="43.97193" lon="7.38304">
        <ele>1775.9</ele>
        <time>1982-03-26T09:40:06Z</time>
      </trkpt>
      <trkpt lat="43.97192" lon="7.38304">
        <ele>1776.9</ele>
        <time>1982-03-26T09:40:07Z</time>
      </trkpt>
      <trkpt lat="43.97191" lon="7.38305">
        <ele>1776.8</ele>
        <time>1982-03-26T09:40:08Z</time>
      </trkpt>
      <trkpt lat="43.97189" lon="7.38303">
        <ele>1776.7</ele>
        <time>1982-03-26T09:40:09Z</time>
      </trkpt>
      <trkpt lat="43.97187" lon="7.38301">
        <ele>1776.2</ele>
        <time>1982-03-26T09:40:10Z</time>
      </trkpt>
      <trkpt lat="43.97185" lon="7.383">
        <ele>1775.9</ele>
        <time>1982-03-26T09:40:11Z</time>
      </trkpt>
      <trkpt lat="43.97184" lon="7.38299">
        <ele>1775.6</ele>
        <time>1982-03-26T09:40:12Z</time>
      </trkpt>
      <trkpt lat="43.97183" lon="7.38299">
        <ele>1775.2</ele>
        <time>1982-03-26T09:40:13Z</time>
      </trkpt>
      <trkpt lat="43.97181" lon="7.38298">
        <ele>1775.4</ele>
        <time>1982-03-26T09:40:14Z</time>
      </trkpt>
      <trkpt lat="43.97181" lon="7.38297">
        <ele>1776.1</ele>
        <time>1982-03-26T09:40:15Z</time>
      </trkpt>
      <trkpt lat="43.9718" lon="7.38295">
        <ele>1775.2</ele>
        <time>1982-03-26T09:40:16Z</time>
      </trkpt>
      <trkpt lat="43.97179" lon="7.38293">
        <ele>1774.4</ele>
        <time>1982-03-26T09:40:17Z</time>
      </trkpt>
      <trkpt lat="43.97179" lon="7.38291">
        <ele>1773.8</ele>
        <time>1982-03-26T09:40:18Z</time>
      </trkpt>
      <trkpt lat="43.97178" lon="7.38289">
        <ele>1773.2</ele>
        <time>1982-03-26T09:40:19Z</time>
      </trkpt>
      <trkpt lat="43.97176" lon="7.38288">
        <ele>1773.4</ele>
        <time>1982-03-26T09:40:20Z</time>
      </trkpt>
      <trkpt lat="43.97175" lon="7.38287">
        <ele>1772.7</ele>
        <time>1982-03-26T09:40:21Z</time>
      </trkpt>
      <trkpt lat="43.97174" lon="7.38285">
        <ele>1772.1</ele>
        <time>1982-03-26T09:40:22Z</time>
      </trkpt>
      <trkpt lat="43.97174" lon="7.38283">
        <ele>1771.9</ele>
        <time>1982-03-26T09:40:23Z</time>
      </trkpt>
      <trkpt lat="43.97173" lon="7.38281">
        <ele>1771.4</ele>
        <time>1982-03-26T09:40:24Z</time>
      </trkpt>
      <trkpt lat="43.97172" lon="7.38278">
        <ele>1771.6</ele>
        <time>1982-03-26T09:40:25Z</time>
      </trkpt>
      <trkpt lat="43.97172" lon="7.38276">
        <ele>1772.3</ele>
        <time>1982-03-26T09:40:26Z</time>
      </trkpt>
      <trkpt lat="43.97171" lon="7.38273">
        <ele>1772.8</ele>
        <time>1982-03-26T09:40:27Z</time>
      </trkpt>
      <trkpt lat="43.97171" lon="7.3827">
        <ele>1773.3</ele>
        <time>1982-03-26T09:40:28Z</time>
      </trkpt>
      <trkpt lat="43.97169" lon="7.38269">
        <ele>1772.7</ele>
        <time>1982-03-26T09:40:29Z</time>
      </trkpt>
      <trkpt lat="43.97169" lon="7.38266">
        <ele>1772.8</ele>
        <time>1982-03-26T09:40:30Z</time>
      </trkpt>
      <trkpt lat="43.97169" lon="7.38263">
        <ele>1773.1</ele>
        <time>1982-03-26T09:40:31Z</time>
      </trkpt>
      <trkpt lat="43.97168" lon="7.38259">
        <ele>1773.2</ele>
        <time>1982-03-26T09:40:32Z</time>
      </trkpt>
      <trkpt lat="43.97167" lon="7.38254">
        <ele>1772.8</ele>
        <time>1982-03-26T09:40:33Z</time>
      </trkpt>
      <trkpt lat="43.97166" lon="7.3825">
        <ele>1772.2</ele>
        <time>1982-03-26T09:40:34Z</time>
      </trkpt>
      <trkpt lat="43.97165" lon="7.38246">
        <ele>1772.9</ele>
        <time>1982-03-26T09:40:35Z</time>
      </trkpt>
      <trkpt lat="43.97164" lon="7.38241">
        <ele>1773.2</ele>
        <time>1982-03-26T09:40:36Z</time>
      </trkpt>
      <trkpt lat="43.97163" lon="7.38236">
        <ele>1772.9</ele>
        <time>1982-03-26T09:40:37Z</time>
      </trkpt>
      <trkpt lat="43.97163" lon="7.38231">
        <ele>1773.4</ele>
        <time>1982-03-26T09:40:38Z</time>
      </trkpt>
      <trkpt lat="43.97164" lon="7.38225">
        <ele>1774.6</ele>
        <time>1982-03-26T09:40:39Z</time>
      </trkpt>
      <trkpt lat="43.97164" lon="7.38222">
        <ele>1774</ele>
        <time>1982-03-26T09:40:40Z</time>
      </trkpt>
      <trkpt lat="43.97163" lon="7.38217">
        <ele>1773.4</ele>
        <time>1982-03-26T09:40:41Z</time>
      </trkpt>
      <trkpt lat="43.97162" lon="7.38213">
        <ele>1772.6</ele>
        <time>1982-03-26T09:40:42Z</time>
      </trkpt>
      <trkpt lat="43.97161" lon="7.3821">
        <ele>1771.7</ele>
        <time>1982-03-26T09:40:43Z</time>
      </trkpt>
      <trkpt lat="43.97161" lon="7.38207">
        <ele>1771.6</ele>
        <time>1982-03-26T09:40:44Z</time>
      </trkpt>
      <trkpt lat="43.9716" lon="7.38204">
        <ele>1771.5</ele>
        <time>1982-03-26T09:40:45Z</time>
      </trkpt>
      <trkpt lat="43.97159" lon="7.38202">
        <ele>1771.1</ele>
        <time>1982-03-26T09:40:46Z</time>
      </trkpt>
      <trkpt lat="43.97158" lon="7.38198">
        <ele>1771.7</ele>
        <time>1982-03-26T09:40:47Z</time>
      </trkpt>
      <trkpt lat="43.97156" lon="7.38196">
        <ele>1770.4</ele>
        <time>1982-03-26T09:40:48Z</time>
      </trkpt>
      <trkpt lat="43.97154" lon="7.38193">
        <ele>1770.3</ele>
        <time>1982-03-26T09:40:49Z</time>
      </trkpt>
      <trkpt lat="43.97152" lon="7.38189">
        <ele>1770.8</ele>
        <time>1982-03-26T09:40:50Z</time>
      </trkpt>
      <trkpt lat="43.9715" lon="7.38186">
        <ele>1770.8</ele>
        <time>1982-03-26T09:40:51Z</time>
      </trkpt>
      <trkpt lat="43.97148" lon="7.38183">
        <ele>1770.8</ele>
        <time>1982-03-26T09:40:52Z</time>
      </trkpt>
      <trkpt lat="43.97146" lon="7.3818">
        <ele>1770.8</ele>
        <time>1982-03-26T09:40:53Z</time>
      </trkpt>
      <trkpt lat="43.97144" lon="7.38178">
        <ele>1771.2</ele>
        <time>1982-03-26T09:40:54Z</time>
      </trkpt>
      <trkpt lat="43.97142" lon="7.38174">
        <ele>1770.5</ele>
        <time>1982-03-26T09:40:55Z</time>
      </trkpt>
      <trkpt lat="43.9714" lon="7.3817">
        <ele>1771</ele>
        <time>1982-03-26T09:40:56Z</time>
      </trkpt>
      <trkpt lat="43.97137" lon="7.38166">
        <ele>1771.4</ele>
        <time>1982-03-26T09:40:57Z</time>
      </trkpt>
      <trkpt lat="43.97134" lon="7.38163">
        <ele>1770.5</ele>
        <time>1982-03-26T09:40:58Z</time>
      </trkpt>
      <trkpt lat="43.9713" lon="7.38161">
        <ele>1770.2</ele>
        <time>1982-03-26T09:40:59Z</time>
      </trkpt>
      <trkpt lat="43.97126" lon="7.3816">
        <ele>1770.2</ele>
        <time>1982-03-26T09:41:00Z</time>
      </trkpt>
      <trkpt lat="43.97123" lon="7.38159">
        <ele>1769.6</ele>
        <time>1982-03-26T09:41:01Z</time>
      </trkpt>
      <trkpt lat="43.97119" lon="7.3816">
        <ele>1769.3</ele>
        <time>1982-03-26T09:41:02Z</time>
      </trkpt>
      <trkpt lat="43.97116" lon="7.3816">
        <ele>1768.6</ele>
        <time>1982-03-26T09:41:03Z</time>
      </trkpt>
      <trkpt lat="43.97112" lon="7.3816">
        <ele>1768.6</ele>
        <time>1982-03-26T09:41:04Z</time>
      </trkpt>
      <trkpt lat="43.97108" lon="7.38161">
        <ele>1769.1</ele>
        <time>1982-03-26T09:41:05Z</time>
      </trkpt>
      <trkpt lat="43.97104" lon="7.38162">
        <ele>1769.4</ele>
        <time>1982-03-26T09:41:06Z</time>
      </trkpt>
      <trkpt lat="43.97099" lon="7.38162">
        <ele>1769.9</ele>
        <time>1982-03-26T09:41:07Z</time>
      </trkpt>
      <trkpt lat="43.97092" lon="7.38162">
        <ele>1767.7</ele>
        <time>1982-03-26T09:41:08Z</time>
      </trkpt>
      <trkpt lat="43.97087" lon="7.38161">
        <ele>1765.9</ele>
        <time>1982-03-26T09:41:09Z</time>
      </trkpt>
      <trkpt lat="43.97081" lon="7.3816">
        <ele>1765.1</ele>
        <time>1982-03-26T09:41:10Z</time>
      </trkpt>
      <trkpt lat="43.97074" lon="7.38159">
        <ele>1764.3</ele>
        <time>1982-03-26T09:41:11Z</time>
      </trkpt>
      <trkpt lat="43.97069" lon="7.38158">
        <ele>1763.7</ele>
        <time>1982-03-26T09:41:12Z</time>
      </trkpt>
      <trkpt lat="43.97062" lon="7.38157">
        <ele>1762.9</ele>
        <time>1982-03-26T09:41:13Z</time>
      </trkpt>
      <trkpt lat="43.97056" lon="7.38154">
        <ele>1762.8</ele>
        <time>1982-03-26T09:41:14Z</time>
      </trkpt>
      <trkpt lat="43.9705" lon="7.38152">
        <ele>1762.5</ele>
        <time>1982-03-26T09:41:15Z</time>
      </trkpt>
      <trkpt lat="43.97044" lon="7.38151">
        <ele>1762.4</ele>
        <time>1982-03-26T09:41:16Z</time>
      </trkpt>
      <trkpt lat="43.97038" lon="7.38151">
        <ele>1762.5</ele>
        <time>1982-03-26T09:41:17Z</time>
      </trkpt>
      <trkpt lat="43.97031" lon="7.38152">
        <ele>1762.5</ele>
        <time>1982-03-26T09:41:18Z</time>
      </trkpt>
      <trkpt lat="43.97023" lon="7.38155">
        <ele>1762.4</ele>
        <time>1982-03-26T09:41:19Z</time>
      </trkpt>
      <trkpt lat="43.97017" lon="7.38161">
        <ele>1760.7</ele>
        <time>1982-03-26T09:41:20Z</time>
      </trkpt>
      <trkpt lat="43.97009" lon="7.38164">
        <ele>1759.7</ele>
        <time>1982-03-26T09:41:21Z</time>
      </trkpt>
      <trkpt lat="43.97" lon="7.38166">
        <ele>1759.4</ele>
        <time>1982-03-26T09:41:22Z</time>
      </trkpt>
      <trkpt lat="43.96993" lon="7.38167">
        <ele>1759.7</ele>
        <time>1982-03-26T09:41:23Z</time>
      </trkpt>
      <trkpt lat="43.96985" lon="7.38167">
        <ele>1759.6</ele>
        <time>1982-03-26T09:41:24Z</time>
      </trkpt>
      <trkpt lat="43.96977" lon="7.38168">
        <ele>1759</ele>
        <time>1982-03-26T09:41:25Z</time>
      </trkpt>
      <trkpt lat="43.9697" lon="7.3817">
        <ele>1759.2</ele>
        <time>1982-03-26T09:41:26Z</time>
      </trkpt>
      <trkpt lat="43.96964" lon="7.38171">
        <ele>1760</ele>
        <time>1982-03-26T09:41:27Z</time>
      </trkpt>
      <trkpt lat="43.96958" lon="7.38172">
        <ele>1760.2</ele>
        <time>1982-03-26T09:41:28Z</time>
      </trkpt>
      <trkpt lat="43.96957" lon="7.38173">
        <ele>1760.4</ele>
        <time>1982-03-26T09:41:29Z</time>
      </trkpt>
      <trkpt lat="43.96954" lon="7.38173">
        <ele>1761.2</ele>
        <time>1982-03-26T09:41:30Z</time>
      </trkpt>
      <trkpt lat="43.96951" lon="7.38171">
        <ele>1761.6</ele>
        <time>1982-03-26T09:41:31Z</time>
      </trkpt>
      <trkpt lat="43.96948" lon="7.38171">
        <ele>1762.3</ele>
        <time>1982-03-26T09:41:32Z</time>
      </trkpt>
      <trkpt lat="43.96945" lon="7.3817">
        <ele>1763</ele>
        <time>1982-03-26T09:41:33Z</time>
      </trkpt>
      <trkpt lat="43.96943" lon="7.38171">
        <ele>1764</ele>
        <time>1982-03-26T09:41:34Z</time>
      </trkpt>
      <trkpt lat="43.96941" lon="7.38172">
        <ele>1764</ele>
        <time>1982-03-26T09:41:35Z</time>
      </trkpt>
      <trkpt lat="43.96938" lon="7.38171">
        <ele>1764.2</ele>
        <time>1982-03-26T09:41:36Z</time>
      </trkpt>
      <trkpt lat="43.96936" lon="7.38171">
        <ele>1763.5</ele>
        <time>1982-03-26T09:41:37Z</time>
      </trkpt>
      <trkpt lat="43.96933" lon="7.3817">
        <ele>1764.1</ele>
        <time>1982-03-26T09:41:38Z</time>
      </trkpt>
      <trkpt lat="43.96931" lon="7.38169">
        <ele>1764.4</ele>
        <time>1982-03-26T09:41:39Z</time>
      </trkpt>
      <trkpt lat="43.96927" lon="7.38169">
        <ele>1763.3</ele>
        <time>1982-03-26T09:41:40Z</time>
      </trkpt>
      <trkpt lat="43.96925" lon="7.3817">
        <ele>1762.7</ele>
        <time>1982-03-26T09:41:41Z</time>
      </trkpt>
      <trkpt lat="43.96922" lon="7.3817">
        <ele>1763</ele>
        <time>1982-03-26T09:41:42Z</time>
      </trkpt>
      <trkpt lat="43.9692" lon="7.3817">
        <ele>1763.7</ele>
        <time>1982-03-26T09:41:43Z</time>
      </trkpt>
      <trkpt lat="43.96917" lon="7.3817">
        <ele>1765.1</ele>
        <time>1982-03-26T09:41:44Z</time>
      </trkpt>
      <trkpt lat="43.96915" lon="7.3817">
        <ele>1764.9</ele>
        <time>1982-03-26T09:41:45Z</time>
      </trkpt>
      <trkpt lat="43.96913" lon="7.3817">
        <ele>1765.4</ele>
        <time>1982-03-26T09:41:46Z</time>
      </trkpt>
      <trkpt lat="43.96911" lon="7.3817">
        <ele>1766.1</ele>
        <time>1982-03-26T09:41:47Z</time>
      </trkpt>
      <trkpt lat="43.9691" lon="7.38172">
        <ele>1765.6</ele>
        <time>1982-03-26T09:41:48Z</time>
      </trkpt>
      <trkpt lat="43.96908" lon="7.38173">
        <ele>1765.7</ele>
        <time>1982-03-26T09:41:49Z</time>
      </trkpt>
      <trkpt lat="43.96906" lon="7.38173">
        <ele>1764.5</ele>
        <time>1982-03-26T09:41:50Z</time>
      </trkpt>
      <trkpt lat="43.96904" lon="7.38173">
        <ele>1763.5</ele>
        <time>1982-03-26T09:41:51Z</time>
      </trkpt>
      <trkpt lat="43.96902" lon="7.38173">
        <ele>1762.6</ele>
        <time>1982-03-26T09:41:52Z</time>
      </trkpt>
      <trkpt lat="43.96901" lon="7.38174">
        <ele>1764.7</ele>
        <time>1982-03-26T09:41:53Z</time>
      </trkpt>
      <trkpt lat="43.96898" lon="7.38174">
        <ele>1764.9</ele>
        <time>1982-03-26T09:41:54Z</time>
      </trkpt>
      <trkpt lat="43.96896" lon="7.38175">
        <ele>1765</ele>
        <time>1982-03-26T09:41:55Z</time>
      </trkpt>
      <trkpt lat="43.96894" lon="7.38175">
        <ele>1763.6</ele>
        <time>1982-03-26T09:41:56Z</time>
      </trkpt>
      <trkpt lat="43.96892" lon="7.38175">
        <ele>1763.8</ele>
        <time>1982-03-26T09:41:57Z</time>
      </trkpt>
      <trkpt lat="43.9689" lon="7.38174">
        <ele>1762.8</ele>
        <time>1982-03-26T09:41:58Z</time>
      </trkpt>
      <trkpt lat="43.96887" lon="7.38175">
        <ele>1761.4</ele>
        <time>1982-03-26T09:41:59Z</time>
      </trkpt>
      <trkpt lat="43.96885" lon="7.38175">
        <ele>1760.8</ele>
        <time>1982-03-26T09:42:00Z</time>
      </trkpt>
      <trkpt lat="43.96884" lon="7.38175">
        <ele>1760.7</ele>
        <time>1982-03-26T09:42:01Z</time>
      </trkpt>
      <trkpt lat="43.96881" lon="7.38175">
        <ele>1760.2</ele>
        <time>1982-03-26T09:42:02Z</time>
      </trkpt>
      <trkpt lat="43.96879" lon="7.38175">
        <ele>1759.8</ele>
        <time>1982-03-26T09:42:03Z</time>
      </trkpt>
      <trkpt lat="43.96877" lon="7.38176">
        <ele>1760.3</ele>
        <time>1982-03-26T09:42:04Z</time>
      </trkpt>
      <trkpt lat="43.96875" lon="7.38176">
        <ele>1760.7</ele>
        <time>1982-03-26T09:42:05Z</time>
      </trkpt>
      <trkpt lat="43.96873" lon="7.38175">
        <ele>1760.7</ele>
        <time>1982-03-26T09:42:06Z</time>
      </trkpt>
      <trkpt lat="43.9687" lon="7.38176">
        <ele>1760.3</ele>
        <time>1982-03-26T09:42:07Z</time>
      </trkpt>
      <trkpt lat="43.96867" lon="7.38175">
        <ele>1760.9</ele>
        <time>1982-03-26T09:42:08Z</time>
      </trkpt>
      <trkpt lat="43.96862" lon="7.38173">
        <ele>1760.5</ele>
        <time>1982-03-26T09:42:09Z</time>
      </trkpt>
      <trkpt lat="43.96858" lon="7.38172">
        <ele>1760.6</ele>
        <time>1982-03-26T09:42:10Z</time>
      </trkpt>
      <trkpt lat="43.96854" lon="7.38169">
        <ele>1761.6</ele>
        <time>1982-03-26T09:42:11Z</time>
      </trkpt>
      <trkpt lat="43.9685" lon="7.38167">
        <ele>1762.3</ele>
        <time>1982-03-26T09:42:12Z</time>
      </trkpt>
      <trkpt lat="43.96846" lon="7.38165">
        <ele>1762.5</ele>
        <time>1982-03-26T09:42:13Z</time>
      </trkpt>
      <trkpt lat="43.96842" lon="7.38162">
        <ele>1762.8</ele>
        <time>1982-03-26T09:42:14Z</time>
      </trkpt>
      <trkpt lat="43.96838" lon="7.38155">
        <ele>1764.7</ele>
        <time>1982-03-26T09:42:15Z</time>
      </trkpt>
      <trkpt lat="43.96833" lon="7.38151">
        <ele>1764.1</ele>
        <time>1982-03-26T09:42:16Z</time>
      </trkpt>
      <trkpt lat="43.96829" lon="7.38147">
        <ele>1763.7</ele>
        <time>1982-03-26T09:42:17Z</time>
      </trkpt>
      <trkpt lat="43.96825" lon="7.38141">
        <ele>1764.9</ele>
        <time>1982-03-26T09:42:18Z</time>
      </trkpt>
      <trkpt lat="43.96822" lon="7.38135">
        <ele>1765.7</ele>
        <time>1982-03-26T09:42:19Z</time>
      </trkpt>
      <trkpt lat="43.96818" lon="7.3813">
        <ele>1764.5</ele>
        <time>1982-03-26T09:42:20Z</time>
      </trkpt>
      <trkpt lat="43.96815" lon="7.38124">
        <ele>1763.6</ele>
        <time>1982-03-26T09:42:21Z</time>
      </trkpt>
      <trkpt lat="43.96814" lon="7.38116">
        <ele>1763.9</ele>
        <time>1982-03-26T09:42:22Z</time>
      </trkpt>
      <trkpt lat="43.96812" lon="7.38111">
        <ele>1764</ele>
        <time>1982-03-26T09:42:23Z</time>
      </trkpt>
      <trkpt lat="43.9681" lon="7.38105">
        <ele>1764.2</ele>
        <time>1982-03-26T09:42:24Z</time>
      </trkpt>
      <trkpt lat="43.96809" lon="7.38101">
        <ele>1764.7</ele>
        <time>1982-03-26T09:42:25Z</time>
      </trkpt>
      <trkpt lat="43.96807" lon="7.38096">
        <ele>1764.5</ele>
        <time>1982-03-26T09:42:26Z</time>
      </trkpt>
      <trkpt lat="43.96805" lon="7.38093">
        <ele>1763.9</ele>
        <time>1982-03-26T09:42:27Z</time>
      </trkpt>
      <trkpt lat="43.96804" lon="7.38089">
        <ele>1763.8</ele>
        <time>1982-03-26T09:42:28Z</time>
      </trkpt>
      <trkpt lat="43.96802" lon="7.38086">
        <ele>1763.5</ele>
        <time>1982-03-26T09:42:29Z</time>
      </trkpt>
      <trkpt lat="43.96801" lon="7.38083">
        <ele>1763.8</ele>
        <time>1982-03-26T09:42:30Z</time>
      </trkpt>
      <trkpt lat="43.96801" lon="7.3808">
        <ele>1762.4</ele>
        <time>1982-03-26T09:42:31Z</time>
      </trkpt>
      <trkpt lat="43.96799" lon="7.38078">
        <ele>1762.3</ele>
        <time>1982-03-26T09:42:32Z</time>
      </trkpt>
      <trkpt lat="43.96798" lon="7.38075">
        <ele>1761.6</ele>
        <time>1982-03-26T09:42:33Z</time>
      </trkpt>
      <trkpt lat="43.96797" lon="7.38071">
        <ele>1761.6</ele>
        <time>1982-03-26T09:42:34Z</time>
      </trkpt>
      <trkpt lat="43.96795" lon="7.3807">
        <ele>1761.1</ele>
        <time>1982-03-26T09:42:35Z</time>
      </trkpt>
      <trkpt lat="43.96793" lon="7.38067">
        <ele>1760.5</ele>
        <time>1982-03-26T09:42:36Z</time>
      </trkpt>
      <trkpt lat="43.96791" lon="7.38065">
        <ele>1760.6</ele>
        <time>1982-03-26T09:42:37Z</time>
      </trkpt>
      <trkpt lat="43.9679" lon="7.38063">
        <ele>1760.5</ele>
        <time>1982-03-26T09:42:38Z</time>
      </trkpt>
      <trkpt lat="43.96789" lon="7.3806">
        <ele>1761.5</ele>
        <time>1982-03-26T09:42:39Z</time>
      </trkpt>
      <trkpt lat="43.96788" lon="7.38057">
        <ele>1761.7</ele>
        <time>1982-03-26T09:42:40Z</time>
      </trkpt>
      <trkpt lat="43.96788" lon="7.38054">
        <ele>1762.2</ele>
        <time>1982-03-26T09:42:41Z</time>
      </trkpt>
      <trkpt lat="43.96786" lon="7.38051">
        <ele>1762.7</ele>
        <time>1982-03-26T09:42:42Z</time>
      </trkpt>
      <trkpt lat="43.96785" lon="7.38048">
        <ele>1762.9</ele>
        <time>1982-03-26T09:42:43Z</time>
      </trkpt>
      <trkpt lat="43.96784" lon="7.38046">
        <ele>1763.1</ele>
        <time>1982-03-26T09:42:44Z</time>
      </trkpt>
      <trkpt lat="43.96783" lon="7.38043">
        <ele>1762.8</ele>
        <time>1982-03-26T09:42:45Z</time>
      </trkpt>
      <trkpt lat="43.96781" lon="7.38039">
        <ele>1762.7</ele>
        <time>1982-03-26T09:42:46Z</time>
      </trkpt>
      <trkpt lat="43.9678" lon="7.38035">
        <ele>1763.4</ele>
        <time>1982-03-26T09:42:47Z</time>
      </trkpt>
      <trkpt lat="43.96779" lon="7.38032">
        <ele>1763.3</ele>
        <time>1982-03-26T09:42:48Z</time>
      </trkpt>
      <trkpt lat="43.96778" lon="7.38028">
        <ele>1763.5</ele>
        <time>1982-03-26T09:42:49Z</time>
      </trkpt>
      <trkpt lat="43.96777" lon="7.38026">
        <ele>1763.3</ele>
        <time>1982-03-26T09:42:50Z</time>
      </trkpt>
      <trkpt lat="43.96776" lon="7.38022">
        <ele>1763</ele>
        <time>1982-03-26T09:42:51Z</time>
      </trkpt>
      <trkpt lat="43.96775" lon="7.38019">
        <ele>1762.9</ele>
        <time>1982-03-26T09:42:52Z</time>
      </trkpt>
      <trkpt lat="43.96774" lon="7.38016">
        <ele>1763.3</ele>
        <time>1982-03-26T09:42:53Z</time>
      </trkpt>
      <trkpt lat="43.96773" lon="7.38012">
        <ele>1763.5</ele>
        <time>1982-03-26T09:42:54Z</time>
      </trkpt>
      <trkpt lat="43.96771" lon="7.38009">
        <ele>1763.8</ele>
        <time>1982-03-26T09:42:55Z</time>
      </trkpt>
      <trkpt lat="43.96771" lon="7.38005">
        <ele>1764.1</ele>
        <time>1982-03-26T09:42:56Z</time>
      </trkpt>
      <trkpt lat="43.9677" lon="7.38002">
        <ele>1764.1</ele>
        <time>1982-03-26T09:42:57Z</time>
      </trkpt>
      <trkpt lat="43.96769" lon="7.37999">
        <ele>1764.5</ele>
        <time>1982-03-26T09:42:58Z</time>
      </trkpt>
      <trkpt lat="43.96768" lon="7.37997">
        <ele>1762.6</ele>
        <time>1982-03-26T09:42:59Z</time>
      </trkpt>
      <trkpt lat="43.96767" lon="7.37994">
        <ele>1761.8</ele>
        <time>1982-03-26T09:43:00Z</time>
      </trkpt>
      <trkpt lat="43.96766" lon="7.3799">
        <ele>1761.2</ele>
        <time>1982-03-26T09:43:01Z</time>
      </trkpt>
      <trkpt lat="43.96765" lon="7.37987">
        <ele>1761.3</ele>
        <time>1982-03-26T09:43:02Z</time>
      </trkpt>
      <trkpt lat="43.96764" lon="7.37983">
        <ele>1762.2</ele>
        <time>1982-03-26T09:43:03Z</time>
      </trkpt>
      <trkpt lat="43.96762" lon="7.37979">
        <ele>1762.3</ele>
        <time>1982-03-26T09:43:04Z</time>
      </trkpt>
      <trkpt lat="43.96761" lon="7.37975">
        <ele>1762.8</ele>
        <time>1982-03-26T09:43:05Z</time>
      </trkpt>
      <trkpt lat="43.96761" lon="7.37972">
        <ele>1763.4</ele>
        <time>1982-03-26T09:43:06Z</time>
      </trkpt>
      <trkpt lat="43.9676" lon="7.37969">
        <ele>1763.7</ele>
        <time>1982-03-26T09:43:07Z</time>
      </trkpt>
      <trkpt lat="43.96757" lon="7.37968">
        <ele>1764.4</ele>
        <time>1982-03-26T09:43:08Z</time>
      </trkpt>
      <trkpt lat="43.96756" lon="7.3797">
        <ele>1764.3</ele>
        <time>1982-03-26T09:43:09Z</time>
      </trkpt>
      <trkpt lat="43.96754" lon="7.37971">
        <ele>1764.6</ele>
        <time>1982-03-26T09:43:10Z</time>
      </trkpt>
      <trkpt lat="43.96752" lon="7.37971">
        <ele>1764.8</ele>
        <time>1982-03-26T09:43:11Z</time>
      </trkpt>
      <trkpt lat="43.96751" lon="7.37973">
        <ele>1765.3</ele>
        <time>1982-03-26T09:43:12Z</time>
      </trkpt>
      <trkpt lat="43.96749" lon="7.37975">
        <ele>1765.6</ele>
        <time>1982-03-26T09:43:13Z</time>
      </trkpt>
      <trkpt lat="43.96747" lon="7.37976">
        <ele>1765.7</ele>
        <time>1982-03-26T09:43:14Z</time>
      </trkpt>
      <trkpt lat="43.96747" lon="7.37977">
        <ele>1766.3</ele>
        <time>1982-03-26T09:43:15Z</time>
      </trkpt>
      <trkpt lat="43.96746" lon="7.37978">
        <ele>1766.9</ele>
        <time>1982-03-26T09:43:16Z</time>
      </trkpt>
      <trkpt lat="43.96745" lon="7.3798">
        <ele>1767.4</ele>
        <time>1982-03-26T09:43:17Z</time>
      </trkpt>
      <trkpt lat="43.96743" lon="7.37981">
        <ele>1767.5</ele>
        <time>1982-03-26T09:43:18Z</time>
      </trkpt>
      <trkpt lat="43.96742" lon="7.37982">
        <ele>1768.5</ele>
        <time>1982-03-26T09:43:21Z</time>
      </trkpt>
      <trkpt lat="43.9674" lon="7.37984">
        <ele>1769.5</ele>
        <time>1982-03-26T09:43:22Z</time>
      </trkpt>
      <trkpt lat="43.96739" lon="7.37984">
        <ele>1770.6</ele>
        <time>1982-03-26T09:43:23Z</time>
      </trkpt>
      <trkpt lat="43.96738" lon="7.37983">
        <ele>1771.3</ele>
        <time>1982-03-26T09:43:23Z</time>
      </trkpt>
      <trkpt lat="43.96736" lon="7.37983">
        <ele>1771.5</ele>
        <time>1982-03-26T09:43:24Z</time>
      </trkpt>
      <trkpt lat="43.96735" lon="7.37983">
        <ele>1771.8</ele>
        <time>1982-03-26T09:43:25Z</time>
      </trkpt>
      <trkpt lat="43.96732" lon="7.37985">
        <ele>1771.7</ele>
        <time>1982-03-26T09:43:28Z</time>
      </trkpt>
      <trkpt lat="43.9673" lon="7.37987">
        <ele>1771.8</ele>
        <time>1982-03-26T09:43:28Z</time>
      </trkpt>
      <trkpt lat="43.96728" lon="7.37989">
        <ele>1771.5</ele>
        <time>1982-03-26T09:43:29Z</time>
      </trkpt>
      <trkpt lat="43.96727" lon="7.3799">
        <ele>1771.1</ele>
        <time>1982-03-26T09:43:30Z</time>
      </trkpt>
      <trkpt lat="43.96725" lon="7.37991">
        <ele>1771.2</ele>
        <time>1982-03-26T09:43:31Z</time>
      </trkpt>
      <trkpt lat="43.96724" lon="7.37992">
        <ele>1770.5</ele>
        <time>1982-03-26T09:43:32Z</time>
      </trkpt>
      <trkpt lat="43.96723" lon="7.37994">
        <ele>1770.4</ele>
        <time>1982-03-26T09:43:33Z</time>
      </trkpt>
      <trkpt lat="43.96722" lon="7.37995">
        <ele>1769.6</ele>
        <time>1982-03-26T09:43:34Z</time>
      </trkpt>
      <trkpt lat="43.96718" lon="7.37999">
        <ele>1769.8</ele>
        <time>1982-03-26T09:43:37Z</time>
      </trkpt>
      <trkpt lat="43.96716" lon="7.38001">
        <ele>1770.5</ele>
        <time>1982-03-26T09:43:38Z</time>
      </trkpt>
      <trkpt lat="43.96714" lon="7.38001">
        <ele>1771.1</ele>
        <time>1982-03-26T09:43:39Z</time>
      </trkpt>
      <trkpt lat="43.96713" lon="7.38002">
        <ele>1770.5</ele>
        <time>1982-03-26T09:43:40Z</time>
      </trkpt>
      <trkpt lat="43.96709" lon="7.38004">
        <ele>1770.6</ele>
        <time>1982-03-26T09:43:42Z</time>
      </trkpt>
      <trkpt lat="43.96708" lon="7.38004">
        <ele>1770.5</ele>
        <time>1982-03-26T09:43:43Z</time>
      </trkpt>
      <trkpt lat="43.96707" lon="7.38005">
        <ele>1771.7</ele>
        <time>1982-03-26T09:43:44Z</time>
      </trkpt>
      <trkpt lat="43.96705" lon="7.38006">
        <ele>1772.3</ele>
        <time>1982-03-26T09:43:45Z</time>
      </trkpt>
      <trkpt lat="43.96703" lon="7.38008">
        <ele>1772.5</ele>
        <time>1982-03-26T09:43:46Z</time>
      </trkpt>
      <trkpt lat="43.96702" lon="7.3801">
        <ele>1772.2</ele>
        <time>1982-03-26T09:43:47Z</time>
      </trkpt>
      <trkpt lat="43.967" lon="7.38011">
        <ele>1772.3</ele>
        <time>1982-03-26T09:43:48Z</time>
      </trkpt>
      <trkpt lat="43.96698" lon="7.38012">
        <ele>1772.6</ele>
        <time>1982-03-26T09:43:49Z</time>
      </trkpt>
      <trkpt lat="43.96697" lon="7.38012">
        <ele>1772.5</ele>
        <time>1982-03-26T09:43:50Z</time>
      </trkpt>
      <trkpt lat="43.96696" lon="7.38012">
        <ele>1771.4</ele>
        <time>1982-03-26T09:43:51Z</time>
      </trkpt>
      <trkpt lat="43.96694" lon="7.38013">
        <ele>1770.6</ele>
        <time>1982-03-26T09:43:52Z</time>
      </trkpt>
      <trkpt lat="43.96692" lon="7.38014">
        <ele>1770.3</ele>
        <time>1982-03-26T09:43:53Z</time>
      </trkpt>
      <trkpt lat="43.9669" lon="7.38015">
        <ele>1770.1</ele>
        <time>1982-03-26T09:43:54Z</time>
      </trkpt>
      <trkpt lat="43.96691" lon="7.38014">
        <ele>1769.6</ele>
        <time>1982-03-26T09:43:56Z</time>
      </trkpt>
      <trkpt lat="43.96691" lon="7.38014">
        <ele>1770.2</ele>
        <time>1982-03-26T09:43:57Z</time>
      </trkpt>
      <trkpt lat="43.96691" lon="7.38014">
        <ele>1770.2</ele>
        <time>1982-03-26T09:43:59Z</time>
      </trkpt>
      <trkpt lat="43.9669" lon="7.38014">
        <ele>1770.7</ele>
        <time>1982-03-26T09:44:00Z</time>
      </trkpt>
      <trkpt lat="43.9669" lon="7.38014">
        <ele>1770.7</ele>
        <time>1982-03-26T09:44:04Z</time>
      </trkpt>
      <trkpt lat="43.9669" lon="7.38013">
        <ele>1771.2</ele>
        <time>1982-03-26T09:44:07Z</time>
      </trkpt>
      <trkpt lat="43.9669" lon="7.38013">
        <ele>1771.2</ele>
        <time>1982-03-26T09:44:14Z</time>
      </trkpt>
      <trkpt lat="43.96687" lon="7.38012">
        <ele>1771.7</ele>
        <time>1982-03-26T09:44:15Z</time>
      </trkpt>
      <trkpt lat="43.96685" lon="7.38011">
        <ele>1772.1</ele>
        <time>1982-03-26T09:44:16Z</time>
      </trkpt>
      <trkpt lat="43.96679" lon="7.38008">
        <ele>1771.9</ele>
        <time>1982-03-26T09:44:17Z</time>
      </trkpt>
      <trkpt lat="43.96674" lon="7.38008">
        <ele>1772.2</ele>
        <time>1982-03-26T09:44:19Z</time>
      </trkpt>
      <trkpt lat="43.96667" lon="7.3801">
        <ele>1771.6</ele>
        <time>1982-03-26T09:44:19Z</time>
      </trkpt>
      <trkpt lat="43.96662" lon="7.38012">
        <ele>1771.6</ele>
        <time>1982-03-26T09:44:20Z</time>
      </trkpt>
      <trkpt lat="43.96658" lon="7.38012">
        <ele>1771.6</ele>
        <time>1982-03-26T09:44:21Z</time>
      </trkpt>
      <trkpt lat="43.96655" lon="7.3801">
        <ele>1772.6</ele>
        <time>1982-03-26T09:44:22Z</time>
      </trkpt>
      <trkpt lat="43.96651" lon="7.38009">
        <ele>1771.4</ele>
        <time>1982-03-26T09:44:24Z</time>
      </trkpt>
      <trkpt lat="43.96648" lon="7.38009">
        <ele>1771.1</ele>
        <time>1982-03-26T09:44:24Z</time>
      </trkpt>
      <trkpt lat="43.9665" lon="7.38011">
        <ele>1771.2</ele>
        <time>1982-03-26T09:44:26Z</time>
      </trkpt>
      <trkpt lat="43.96649" lon="7.3801">
        <ele>1772.3</ele>
        <time>1982-03-26T09:44:27Z</time>
      </trkpt>
      <trkpt lat="43.96649" lon="7.3801">
        <ele>1772.8</ele>
        <time>1982-03-26T09:44:27Z</time>
      </trkpt>
      <trkpt lat="43.96649" lon="7.3801">
        <ele>1772.8</ele>
        <time>1982-03-26T09:44:27Z</time>
      </trkpt>
      <trkpt lat="43.96648" lon="7.3801">
        <ele>1773.5</ele>
        <time>1982-03-26T09:44:30Z</time>
      </trkpt>
      <trkpt lat="43.96649" lon="7.3801">
        <ele>1773.3</ele>
        <time>1982-03-26T09:44:31Z</time>
      </trkpt>
      <trkpt lat="43.96649" lon="7.3801">
        <ele>1773.3</ele>
        <time>1982-03-26T09:44:31Z</time>
      </trkpt>
      <trkpt lat="43.96648" lon="7.38009">
        <ele>1772.4</ele>
        <time>1982-03-26T09:44:32Z</time>
      </trkpt>
      <trkpt lat="43.96648" lon="7.38009">
        <ele>1771.7</ele>
        <time>1982-03-26T09:44:33Z</time>
      </trkpt>
      <trkpt lat="43.96648" lon="7.38009">
        <ele>1771.7</ele>
        <time>1982-03-26T09:44:34Z</time>
      </trkpt>
      <trkpt lat="43.96648" lon="7.38008">
        <ele>1769.8</ele>
        <time>1982-03-26T09:44:36Z</time>
      </trkpt>
      <trkpt lat="43.96648" lon="7.38008">
        <ele>1769.1</ele>
        <time>1982-03-26T09:44:37Z</time>
      </trkpt>
      <trkpt lat="43.96648" lon="7.38008">
        <ele>1769.1</ele>
        <time>1982-03-26T09:44:37Z</time>
      </trkpt>
      <trkpt lat="43.96647" lon="7.38008">
        <ele>1768</ele>
        <time>1982-03-26T09:44:39Z</time>
      </trkpt>
      <trkpt lat="43.96647" lon="7.38008">
        <ele>1767.5</ele>
        <time>1982-03-26T09:44:40Z</time>
      </trkpt>
      <trkpt lat="43.96647" lon="7.38008">
        <ele>1767.5</ele>
        <time>1982-03-26T09:44:43Z</time>
      </trkpt>
      <trkpt lat="43.96647" lon="7.38009">
        <ele>1767.8</ele>
        <time>1982-03-26T09:44:45Z</time>
      </trkpt>
      <trkpt lat="43.96647" lon="7.38009">
        <ele>1767.8</ele>
        <time>1982-03-26T09:44:47Z</time>
      </trkpt>
      <trkpt lat="43.96646" lon="7.38009">
        <ele>1768.8</ele>
        <time>1982-03-26T09:44:49Z</time>
      </trkpt>
      <trkpt lat="43.96647" lon="7.38009">
        <ele>1768.9</ele>
        <time>1982-03-26T09:44:50Z</time>
      </trkpt>
      <trkpt lat="43.96647" lon="7.38009">
        <ele>1768.9</ele>
        <time>1982-03-26T09:44:51Z</time>
      </trkpt>
      <trkpt lat="43.96649" lon="7.3801">
        <ele>1767.5</ele>
        <time>1982-03-26T09:44:53Z</time>
      </trkpt>
      <trkpt lat="43.9665" lon="7.38011">
        <ele>1767.3</ele>
        <time>1982-03-26T09:44:54Z</time>
      </trkpt>
      <trkpt lat="43.96651" lon="7.38012">
        <ele>1767.2</ele>
        <time>1982-03-26T09:44:55Z</time>
      </trkpt>
      <trkpt lat="43.96651" lon="7.38012">
        <ele>1766.5</ele>
        <time>1982-03-26T09:44:56Z</time>
      </trkpt>
      <trkpt lat="43.96653" lon="7.38013">
        <ele>1766.2</ele>
        <time>1982-03-26T09:44:58Z</time>
      </trkpt>
      <trkpt lat="43.96653" lon="7.38012">
        <ele>1766.6</ele>
        <time>1982-03-26T09:44:59Z</time>
      </trkpt>
      <trkpt lat="43.96655" lon="7.38014">
        <ele>1767.5</ele>
        <time>1982-03-26T09:45:01Z</time>
      </trkpt>
      <trkpt lat="43.96654" lon="7.38014">
        <ele>1767.9</ele>
        <time>1982-03-26T09:45:02Z</time>
      </trkpt>
      <trkpt lat="43.96654" lon="7.38014">
        <ele>1767.9</ele>
        <time>1982-03-26T09:45:03Z</time>
      </trkpt>
      <trkpt lat="43.96654" lon="7.38014">
        <ele>1768.6</ele>
        <time>1982-03-26T09:45:05Z</time>
      </trkpt>
      <trkpt lat="43.96655" lon="7.38014">
        <ele>1769.1</ele>
        <time>1982-03-26T09:45:08Z</time>
      </trkpt>
      <trkpt lat="43.96655" lon="7.38014">
        <ele>1769.1</ele>
        <time>1982-03-26T09:45:10Z</time>
      </trkpt>
      <trkpt lat="43.96655" lon="7.38014">
        <ele>1769.7</ele>
        <time>1982-03-26T09:45:12Z</time>
      </trkpt>
      <trkpt lat="43.96655" lon="7.38014">
        <ele>1769.7</ele>
        <time>1982-03-26T09:45:12Z</time>
      </trkpt>
      <trkpt lat="43.96656" lon="7.38014">
        <ele>1770</ele>
        <time>1982-03-26T09:45:13Z</time>
      </trkpt>
      <trkpt lat="43.96656" lon="7.38014">
        <ele>1770</ele>
        <time>1982-03-26T09:45:19Z</time>
      </trkpt>
      <trkpt lat="43.9666" lon="7.38013">
        <ele>1771.2</ele>
        <time>1982-03-26T09:45:21Z</time>
      </trkpt>
      <trkpt lat="43.96663" lon="7.38013">
        <ele>1771.3</ele>
        <time>1982-03-26T09:45:22Z</time>
      </trkpt>
      <trkpt lat="43.96666" lon="7.38014">
        <ele>1770.9</ele>
        <time>1982-03-26T09:45:23Z</time>
      </trkpt>
      <trkpt lat="43.96669" lon="7.38013">
        <ele>1770.8</ele>
        <time>1982-03-26T09:45:24Z</time>
      </trkpt>
      <trkpt lat="43.96672" lon="7.38013">
        <ele>1770.5</ele>
        <time>1982-03-26T09:45:25Z</time>
      </trkpt>
      <trkpt lat="43.96677" lon="7.38011">
        <ele>1772.4</ele>
        <time>1982-03-26T09:45:26Z</time>
      </trkpt>
      <trkpt lat="43.96681" lon="7.3801">
        <ele>1773.4</ele>
        <time>1982-03-26T09:45:27Z</time>
      </trkpt>
      <trkpt lat="43.96684" lon="7.3801">
        <ele>1773.9</ele>
        <time>1982-03-26T09:45:28Z</time>
      </trkpt>
      <trkpt lat="43.96687" lon="7.3801">
        <ele>1774.1</ele>
        <time>1982-03-26T09:45:29Z</time>
      </trkpt>
      <trkpt lat="43.96684" lon="7.38011">
        <ele>1774.3</ele>
        <time>1982-03-26T09:45:30Z</time>
      </trkpt>
      <trkpt lat="43.96685" lon="7.38012">
        <ele>1774.5</ele>
        <time>1982-03-26T09:45:31Z</time>
      </trkpt>
      <trkpt lat="43.96687" lon="7.38011">
        <ele>1775.5</ele>
        <time>1982-03-26T09:45:33Z</time>
      </trkpt>
      <trkpt lat="43.96688" lon="7.38012">
        <ele>1775.9</ele>
        <time>1982-03-26T09:45:34Z</time>
      </trkpt>
      <trkpt lat="43.9669" lon="7.38014">
        <ele>1776.3</ele>
        <time>1982-03-26T09:45:35Z</time>
      </trkpt>
      <trkpt lat="43.96691" lon="7.38014">
        <ele>1776.8</ele>
        <time>1982-03-26T09:45:36Z</time>
      </trkpt>
      <trkpt lat="43.96693" lon="7.38015">
        <ele>1776.8</ele>
        <time>1982-03-26T09:45:37Z</time>
      </trkpt>
      <trkpt lat="43.96695" lon="7.38014">
        <ele>1776.7</ele>
        <time>1982-03-26T09:45:38Z</time>
      </trkpt>
      <trkpt lat="43.96693" lon="7.38013">
        <ele>1776</ele>
        <time>1982-03-26T09:45:39Z</time>
      </trkpt>
      <trkpt lat="43.96693" lon="7.38012">
        <ele>1775.2</ele>
        <time>1982-03-26T09:45:40Z</time>
      </trkpt>
      <trkpt lat="43.96685" lon="7.38018">
        <ele>1775.2</ele>
        <time>1982-03-26T09:45:42Z</time>
      </trkpt>
      <trkpt lat="43.96683" lon="7.38018">
        <ele>1774.5</ele>
        <time>1982-03-26T09:45:43Z</time>
      </trkpt>
      <trkpt lat="43.96681" lon="7.38019">
        <ele>1774.3</ele>
        <time>1982-03-26T09:45:44Z</time>
      </trkpt>
      <trkpt lat="43.96679" lon="7.38018">
        <ele>1774.9</ele>
        <time>1982-03-26T09:45:45Z</time>
      </trkpt>
      <trkpt lat="43.96677" lon="7.38017">
        <ele>1774.9</ele>
        <time>1982-03-26T09:45:46Z</time>
      </trkpt>
      <trkpt lat="43.96674" lon="7.38015">
        <ele>1772.2</ele>
        <time>1982-03-26T09:45:47Z</time>
      </trkpt>
      <trkpt lat="43.96673" lon="7.38015">
        <ele>1771.6</ele>
        <time>1982-03-26T09:45:48Z</time>
      </trkpt>
      <trkpt lat="43.96671" lon="7.38014">
        <ele>1770.9</ele>
        <time>1982-03-26T09:45:49Z</time>
      </trkpt>
      <trkpt lat="43.96669" lon="7.38014">
        <ele>1769.9</ele>
        <time>1982-03-26T09:45:50Z</time>
      </trkpt>
      <trkpt lat="43.96666" lon="7.38013">
        <ele>1769.8</ele>
        <time>1982-03-26T09:45:51Z</time>
      </trkpt>
      <trkpt lat="43.96662" lon="7.38011">
        <ele>1769.4</ele>
        <time>1982-03-26T09:45:52Z</time>
      </trkpt>
      <trkpt lat="43.96659" lon="7.3801">
        <ele>1769.6</ele>
        <time>1982-03-26T09:45:53Z</time>
      </trkpt>
      <trkpt lat="43.96656" lon="7.3801">
        <ele>1770.9</ele>
        <time>1982-03-26T09:45:54Z</time>
      </trkpt>
      <trkpt lat="43.96654" lon="7.38011">
        <ele>1770.8</ele>
        <time>1982-03-26T09:45:55Z</time>
      </trkpt>
      <trkpt lat="43.96652" lon="7.38011">
        <ele>1770.7</ele>
        <time>1982-03-26T09:45:56Z</time>
      </trkpt>
      <trkpt lat="43.9665" lon="7.3801">
        <ele>1770.9</ele>
        <time>1982-03-26T09:45:57Z</time>
      </trkpt>
      <trkpt lat="43.96647" lon="7.38009">
        <ele>1771</ele>
        <time>1982-03-26T09:45:58Z</time>
      </trkpt>
      <trkpt lat="43.96644" lon="7.38008">
        <ele>1770.8</ele>
        <time>1982-03-26T09:45:59Z</time>
      </trkpt>
      <trkpt lat="43.96643" lon="7.38007">
        <ele>1770.4</ele>
        <time>1982-03-26T09:46:00Z</time>
      </trkpt>
      <trkpt lat="43.96642" lon="7.38007">
        <ele>1770.2</ele>
        <time>1982-03-26T09:46:01Z</time>
      </trkpt>
      <trkpt lat="43.96645" lon="7.38006">
        <ele>1770.5</ele>
        <time>1982-03-26T09:46:02Z</time>
      </trkpt>
      <trkpt lat="43.96644" lon="7.38006">
        <ele>1770.7</ele>
        <time>1982-03-26T09:46:03Z</time>
      </trkpt>
      <trkpt lat="43.96644" lon="7.38006">
        <ele>1770.7</ele>
        <time>1982-03-26T09:46:07Z</time>
      </trkpt>
      <trkpt lat="43.96643" lon="7.38006">
        <ele>1770</ele>
        <time>1982-03-26T09:46:08Z</time>
      </trkpt>
      <trkpt lat="43.96641" lon="7.38006">
        <ele>1769.3</ele>
        <time>1982-03-26T09:46:09Z</time>
      </trkpt>
      <trkpt lat="43.9664" lon="7.38005">
        <ele>1769.3</ele>
        <time>1982-03-26T09:46:10Z</time>
      </trkpt>
      <trkpt lat="43.96637" lon="7.38005">
        <ele>1769.2</ele>
        <time>1982-03-26T09:46:11Z</time>
      </trkpt>
      <trkpt lat="43.96635" lon="7.38004">
        <ele>1768.8</ele>
        <time>1982-03-26T09:46:12Z</time>
      </trkpt>
      <trkpt lat="43.96633" lon="7.38002">
        <ele>1769.3</ele>
        <time>1982-03-26T09:46:13Z</time>
      </trkpt>
      <trkpt lat="43.96626" lon="7.38">
        <ele>1767.7</ele>
        <time>1982-03-26T09:46:14Z</time>
      </trkpt>
      <trkpt lat="43.96622" lon="7.37997">
        <ele>1766.8</ele>
        <time>1982-03-26T09:46:15Z</time>
      </trkpt>
      <trkpt lat="43.96617" lon="7.37995">
        <ele>1766.1</ele>
        <time>1982-03-26T09:46:16Z</time>
      </trkpt>
      <trkpt lat="43.96612" lon="7.37993">
        <ele>1765.6</ele>
        <time>1982-03-26T09:46:17Z</time>
      </trkpt>
      <trkpt lat="43.96607" lon="7.37991">
        <ele>1766.2</ele>
        <time>1982-03-26T09:46:18Z</time>
      </trkpt>
      <trkpt lat="43.96603" lon="7.37989">
        <ele>1766.6</ele>
        <time>1982-03-26T09:46:19Z</time>
      </trkpt>
      <trkpt lat="43.966" lon="7.37988">
        <ele>1767</ele>
        <time>1982-03-26T09:46:20Z</time>
      </trkpt>
      <trkpt lat="43.96597" lon="7.37986">
        <ele>1766.6</ele>
        <time>1982-03-26T09:46:21Z</time>
      </trkpt>
      <trkpt lat="43.96602" lon="7.37986">
        <ele>1768</ele>
        <time>1982-03-26T09:46:22Z</time>
      </trkpt>
      <trkpt lat="43.96601" lon="7.37986">
        <ele>1768.4</ele>
        <time>1982-03-26T09:46:23Z</time>
      </trkpt>
      <trkpt lat="43.96601" lon="7.37986">
        <ele>1768.4</ele>
        <time>1982-03-26T09:46:23Z</time>
      </trkpt>
      <trkpt lat="43.966" lon="7.37985">
        <ele>1769.5</ele>
        <time>1982-03-26T09:46:25Z</time>
      </trkpt>
      <trkpt lat="43.966" lon="7.37986">
        <ele>1769.5</ele>
        <time>1982-03-26T09:46:26Z</time>
      </trkpt>
      <trkpt lat="43.966" lon="7.37986">
        <ele>1769.5</ele>
        <time>1982-03-26T09:46:26Z</time>
      </trkpt>
      <trkpt lat="43.966" lon="7.37985">
        <ele>1769.2</ele>
        <time>1982-03-26T09:46:28Z</time>
      </trkpt>
      <trkpt lat="43.966" lon="7.37985">
        <ele>1769.2</ele>
        <time>1982-03-26T09:46:29Z</time>
      </trkpt>
      <trkpt lat="43.96599" lon="7.37985">
        <ele>1769</ele>
        <time>1982-03-26T09:46:31Z</time>
      </trkpt>
      <trkpt lat="43.96598" lon="7.37985">
        <ele>1768.9</ele>
        <time>1982-03-26T09:46:32Z</time>
      </trkpt>
      <trkpt lat="43.96596" lon="7.37984">
        <ele>1767.9</ele>
        <time>1982-03-26T09:46:34Z</time>
      </trkpt>
      <trkpt lat="43.96594" lon="7.37983">
        <ele>1765.1</ele>
        <time>1982-03-26T09:46:35Z</time>
      </trkpt>
      <trkpt lat="43.96594" lon="7.37982">
        <ele>1765.3</ele>
        <time>1982-03-26T09:46:36Z</time>
      </trkpt>
      <trkpt lat="43.96593" lon="7.37981">
        <ele>1764</ele>
        <time>1982-03-26T09:46:38Z</time>
      </trkpt>
      <trkpt lat="43.96592" lon="7.3798">
        <ele>1764.2</ele>
        <time>1982-03-26T09:46:39Z</time>
      </trkpt>
      <trkpt lat="43.96592" lon="7.3798">
        <ele>1764.2</ele>
        <time>1982-03-26T09:46:39Z</time>
      </trkpt>
      <trkpt lat="43.96592" lon="7.3798">
        <ele>1764.4</ele>
        <time>1982-03-26T09:46:41Z</time>
      </trkpt>
      <trkpt lat="43.96592" lon="7.3798">
        <ele>1764.4</ele>
        <time>1982-03-26T09:46:42Z</time>
      </trkpt>
      <trkpt lat="43.96592" lon="7.37979">
        <ele>1764.8</ele>
        <time>1982-03-26T09:46:44Z</time>
      </trkpt>
      <trkpt lat="43.96592" lon="7.37979">
        <ele>1764.8</ele>
        <time>1982-03-26T09:47:34Z</time>
      </trkpt>
      <trkpt lat="43.96589" lon="7.37979">
        <ele>1763.4</ele>
        <time>1982-03-26T09:47:36Z</time>
      </trkpt>
      <trkpt lat="43.96588" lon="7.37979">
        <ele>1763.3</ele>
        <time>1982-03-26T09:47:37Z</time>
      </trkpt>
      <trkpt lat="43.96586" lon="7.37979">
        <ele>1762.7</ele>
        <time>1982-03-26T09:47:38Z</time>
      </trkpt>
      <trkpt lat="43.96585" lon="7.37977">
        <ele>1762.7</ele>
        <time>1982-03-26T09:47:39Z</time>
      </trkpt>
      <trkpt lat="43.96583" lon="7.37978">
        <ele>1761.1</ele>
        <time>1982-03-26T09:47:40Z</time>
      </trkpt>
      <trkpt lat="43.96582" lon="7.37978">
        <ele>1760.2</ele>
        <time>1982-03-26T09:47:41Z</time>
      </trkpt>
      <trkpt lat="43.96581" lon="7.37977">
        <ele>1759.7</ele>
        <time>1982-03-26T09:47:42Z</time>
      </trkpt>
      <trkpt lat="43.96581" lon="7.37976">
        <ele>1761.5</ele>
        <time>1982-03-26T09:47:43Z</time>
      </trkpt>
      <trkpt lat="43.9658" lon="7.37975">
        <ele>1760</ele>
        <time>1982-03-26T09:47:44Z</time>
      </trkpt>
      <trkpt lat="43.9658" lon="7.37975">
        <ele>1761.3</ele>
        <time>1982-03-26T09:47:45Z</time>
      </trkpt>
      <trkpt lat="43.96579" lon="7.37974">
        <ele>1760.8</ele>
        <time>1982-03-26T09:47:46Z</time>
      </trkpt>
      <trkpt lat="43.96577" lon="7.37973">
        <ele>1760.6</ele>
        <time>1982-03-26T09:47:47Z</time>
      </trkpt>
      <trkpt lat="43.96577" lon="7.37972">
        <ele>1760</ele>
        <time>1982-03-26T09:47:48Z</time>
      </trkpt>
      <trkpt lat="43.96576" lon="7.37972">
        <ele>1759.9</ele>
        <time>1982-03-26T09:47:50Z</time>
      </trkpt>
      <trkpt lat="43.96575" lon="7.37971">
        <ele>1759.6</ele>
        <time>1982-03-26T09:47:51Z</time>
      </trkpt>
      <trkpt lat="43.96575" lon="7.37971">
        <ele>1761.9</ele>
        <time>1982-03-26T09:47:52Z</time>
      </trkpt>
      <trkpt lat="43.96575" lon="7.37971">
        <ele>1762.4</ele>
        <time>1982-03-26T09:47:53Z</time>
      </trkpt>
      <trkpt lat="43.96574" lon="7.37969">
        <ele>1763.4</ele>
        <time>1982-03-26T09:47:55Z</time>
      </trkpt>
      <trkpt lat="43.96573" lon="7.37967">
        <ele>1764</ele>
        <time>1982-03-26T09:47:56Z</time>
      </trkpt>
      <trkpt lat="43.96571" lon="7.37969">
        <ele>1763.5</ele>
        <time>1982-03-26T09:47:57Z</time>
      </trkpt>
      <trkpt lat="43.96571" lon="7.3797">
        <ele>1763.6</ele>
        <time>1982-03-26T09:47:58Z</time>
      </trkpt>
      <trkpt lat="43.9657" lon="7.37971">
        <ele>1764.1</ele>
        <time>1982-03-26T09:48:00Z</time>
      </trkpt>
      <trkpt lat="43.96569" lon="7.37971">
        <ele>1764.3</ele>
        <time>1982-03-26T09:48:01Z</time>
      </trkpt>
      <trkpt lat="43.96569" lon="7.37969">
        <ele>1764.2</ele>
        <time>1982-03-26T09:48:04Z</time>
      </trkpt>
      <trkpt lat="43.96569" lon="7.37968">
        <ele>1764.1</ele>
        <time>1982-03-26T09:48:04Z</time>
      </trkpt>
      <trkpt lat="43.96569" lon="7.37968">
        <ele>1764.1</ele>
        <time>1982-03-26T09:48:06Z</time>
      </trkpt>
      <trkpt lat="43.96568" lon="7.37968">
        <ele>1763.8</ele>
        <time>1982-03-26T09:48:08Z</time>
      </trkpt>
      <trkpt lat="43.96568" lon="7.37968">
        <ele>1763.8</ele>
        <time>1982-03-26T09:48:09Z</time>
      </trkpt>
      <trkpt lat="43.96568" lon="7.37968">
        <ele>1763.6</ele>
        <time>1982-03-26T09:48:11Z</time>
      </trkpt>
      <trkpt lat="43.96568" lon="7.37968">
        <ele>1763.6</ele>
        <time>1982-03-26T09:48:28Z</time>
      </trkpt>
      <trkpt lat="43.96564" lon="7.37967">
        <ele>1762.7</ele>
        <time>1982-03-26T09:48:30Z</time>
      </trkpt>
      <trkpt lat="43.96563" lon="7.37967">
        <ele>1763.4</ele>
        <time>1982-03-26T09:48:31Z</time>
      </trkpt>
      <trkpt lat="43.96559" lon="7.37967">
        <ele>1763.3</ele>
        <time>1982-03-26T09:48:32Z</time>
      </trkpt>
      <trkpt lat="43.96556" lon="7.37966">
        <ele>1762.9</ele>
        <time>1982-03-26T09:48:33Z</time>
      </trkpt>
      <trkpt lat="43.96552" lon="7.37965">
        <ele>1762.9</ele>
        <time>1982-03-26T09:48:34Z</time>
      </trkpt>
      <trkpt lat="43.96549" lon="7.37963">
        <ele>1763.6</ele>
        <time>1982-03-26T09:48:35Z</time>
      </trkpt>
      <trkpt lat="43.96545" lon="7.37961">
        <ele>1763.1</ele>
        <time>1982-03-26T09:48:36Z</time>
      </trkpt>
      <trkpt lat="43.96541" lon="7.37957">
        <ele>1762.5</ele>
        <time>1982-03-26T09:48:37Z</time>
      </trkpt>
      <trkpt lat="43.96537" lon="7.3795">
        <ele>1761.8</ele>
        <time>1982-03-26T09:48:38Z</time>
      </trkpt>
      <trkpt lat="43.96532" lon="7.37947">
        <ele>1760.8</ele>
        <time>1982-03-26T09:48:39Z</time>
      </trkpt>
      <trkpt lat="43.96528" lon="7.37944">
        <ele>1759.9</ele>
        <time>1982-03-26T09:48:40Z</time>
      </trkpt>
      <trkpt lat="43.96524" lon="7.37942">
        <ele>1759.6</ele>
        <time>1982-03-26T09:48:41Z</time>
      </trkpt>
      <trkpt lat="43.96522" lon="7.3794">
        <ele>1759.7</ele>
        <time>1982-03-26T09:48:42Z</time>
      </trkpt>
      <trkpt lat="43.96518" lon="7.37938">
        <ele>1759.6</ele>
        <time>1982-03-26T09:48:43Z</time>
      </trkpt>
      <trkpt lat="43.96515" lon="7.37937">
        <ele>1759.5</ele>
        <time>1982-03-26T09:48:44Z</time>
      </trkpt>
      <trkpt lat="43.96512" lon="7.37936">
        <ele>1758.8</ele>
        <time>1982-03-26T09:48:45Z</time>
      </trkpt>
      <trkpt lat="43.96509" lon="7.37936">
        <ele>1758.9</ele>
        <time>1982-03-26T09:48:46Z</time>
      </trkpt>
      <trkpt lat="43.96506" lon="7.37936">
        <ele>1758.7</ele>
        <time>1982-03-26T09:48:47Z</time>
      </trkpt>
      <trkpt lat="43.96504" lon="7.37936">
        <ele>1758</ele>
        <time>1982-03-26T09:48:48Z</time>
      </trkpt>
      <trkpt lat="43.96503" lon="7.37935">
        <ele>1758.2</ele>
        <time>1982-03-26T09:48:49Z</time>
      </trkpt>
      <trkpt lat="43.96502" lon="7.37935">
        <ele>1757.3</ele>
        <time>1982-03-26T09:48:50Z</time>
      </trkpt>
      <trkpt lat="43.96502" lon="7.37934">
        <ele>1756.9</ele>
        <time>1982-03-26T09:48:51Z</time>
      </trkpt>
      <trkpt lat="43.96502" lon="7.37934">
        <ele>1756.9</ele>
        <time>1982-03-26T09:48:53Z</time>
      </trkpt>
      <trkpt lat="43.96501" lon="7.37932">
        <ele>1755.6</ele>
        <time>1982-03-26T09:48:55Z</time>
      </trkpt>
      <trkpt lat="43.965" lon="7.37933">
        <ele>1754.4</ele>
        <time>1982-03-26T09:48:56Z</time>
      </trkpt>
      <trkpt lat="43.965" lon="7.37932">
        <ele>1753.2</ele>
        <time>1982-03-26T09:48:57Z</time>
      </trkpt>
      <trkpt lat="43.965" lon="7.37932">
        <ele>1753.2</ele>
        <time>1982-03-26T09:48:58Z</time>
      </trkpt>
      <trkpt lat="43.96498" lon="7.37932">
        <ele>1753.7</ele>
        <time>1982-03-26T09:49:00Z</time>
      </trkpt>
      <trkpt lat="43.96498" lon="7.37933">
        <ele>1753.8</ele>
        <time>1982-03-26T09:49:01Z</time>
      </trkpt>
      <trkpt lat="43.96498" lon="7.37933">
        <ele>1753.8</ele>
        <time>1982-03-26T09:49:07Z</time>
      </trkpt>
      <trkpt lat="43.96498" lon="7.37932">
        <ele>1754.8</ele>
        <time>1982-03-26T09:49:09Z</time>
      </trkpt>
      <trkpt lat="43.96498" lon="7.37932">
        <ele>1755</ele>
        <time>1982-03-26T09:49:10Z</time>
      </trkpt>
      <trkpt lat="43.96498" lon="7.37932">
        <ele>1755</ele>
        <time>1982-03-26T09:50:36Z</time>
      </trkpt>
      <trkpt lat="43.96498" lon="7.37932">
        <ele>1756.1</ele>
        <time>1982-03-26T09:50:38Z</time>
      </trkpt>
      <trkpt lat="43.96497" lon="7.37932">
        <ele>1757.2</ele>
        <time>1982-03-26T09:50:39Z</time>
      </trkpt>
      <trkpt lat="43.96497" lon="7.37931">
        <ele>1757.6</ele>
        <time>1982-03-26T09:50:40Z</time>
      </trkpt>
      <trkpt lat="43.96497" lon="7.37931">
        <ele>1757.6</ele>
        <time>1982-03-26T09:50:58Z</time>
      </trkpt>
      <trkpt lat="43.96497" lon="7.37931">
        <ele>1759.1</ele>
        <time>1982-03-26T09:51:00Z</time>
      </trkpt>
      <trkpt lat="43.96497" lon="7.37932">
        <ele>1758.8</ele>
        <time>1982-03-26T09:51:01Z</time>
      </trkpt>
      <trkpt lat="43.96497" lon="7.37932">
        <ele>1758.8</ele>
        <time>1982-03-26T09:51:04Z</time>
      </trkpt>
      <trkpt lat="43.96496" lon="7.37931">
        <ele>1758.3</ele>
        <time>1982-03-26T09:51:06Z</time>
      </trkpt>
      <trkpt lat="43.96496" lon="7.37931">
        <ele>1758.3</ele>
        <time>1982-03-26T09:51:06Z</time>
      </trkpt>
      <trkpt lat="43.96496" lon="7.37931">
        <ele>1758.2</ele>
        <time>1982-03-26T09:51:08Z</time>
      </trkpt>
      <trkpt lat="43.96496" lon="7.37931">
        <ele>1758.2</ele>
        <time>1982-03-26T09:52:57Z</time>
      </trkpt>
      <trkpt lat="43.96496" lon="7.37933">
        <ele>1758.1</ele>
        <time>1982-03-26T09:52:59Z</time>
      </trkpt>
      <trkpt lat="43.96495" lon="7.37932">
        <ele>1758.4</ele>
        <time>1982-03-26T09:53:00Z</time>
      </trkpt>
      <trkpt lat="43.96495" lon="7.37932">
        <ele>1758.4</ele>
        <time>1982-03-26T09:53:01Z</time>
      </trkpt>
      <trkpt lat="43.96495" lon="7.37932">
        <ele>1758.5</ele>
        <time>1982-03-26T09:53:03Z</time>
      </trkpt>
      <trkpt lat="43.96495" lon="7.37932">
        <ele>1758.5</ele>
        <time>1982-03-26T09:53:06Z</time>
      </trkpt>
      <trkpt lat="43.96495" lon="7.37931">
        <ele>1758.1</ele>
        <time>1982-03-26T09:53:08Z</time>
      </trkpt>
      <trkpt lat="43.96495" lon="7.37931">
        <ele>1758.1</ele>
        <time>1982-03-26T09:53:32Z</time>
      </trkpt>
      <trkpt lat="43.96492" lon="7.37931">
        <ele>1756.5</ele>
        <time>1982-03-26T09:53:34Z</time>
      </trkpt>
      <trkpt lat="43.9649" lon="7.37931">
        <ele>1756.7</ele>
        <time>1982-03-26T09:53:35Z</time>
      </trkpt>
      <trkpt lat="43.96482" lon="7.37927">
        <ele>1754.9</ele>
        <time>1982-03-26T09:53:36Z</time>
      </trkpt>
      <trkpt lat="43.96479" lon="7.37925">
        <ele>1753.6</ele>
        <time>1982-03-26T09:53:37Z</time>
      </trkpt>
      <trkpt lat="43.96474" lon="7.37925">
        <ele>1752.4</ele>
        <time>1982-03-26T09:53:38Z</time>
      </trkpt>
      <trkpt lat="43.9647" lon="7.37924">
        <ele>1752.1</ele>
        <time>1982-03-26T09:53:39Z</time>
      </trkpt>
      <trkpt lat="43.96465" lon="7.37919">
        <ele>1754.7</ele>
        <time>1982-03-26T09:53:40Z</time>
      </trkpt>
      <trkpt lat="43.9646" lon="7.37916">
        <ele>1755.9</ele>
        <time>1982-03-26T09:53:41Z</time>
      </trkpt>
      <trkpt lat="43.96456" lon="7.37915">
        <ele>1757.3</ele>
        <time>1982-03-26T09:53:42Z</time>
      </trkpt>
      <trkpt lat="43.9645" lon="7.37912">
        <ele>1757.5</ele>
        <time>1982-03-26T09:53:43Z</time>
      </trkpt>
      <trkpt lat="43.96445" lon="7.37908">
        <ele>1754.6</ele>
        <time>1982-03-26T09:53:44Z</time>
      </trkpt>
      <trkpt lat="43.96442" lon="7.37904">
        <ele>1753.7</ele>
        <time>1982-03-26T09:53:45Z</time>
      </trkpt>
      <trkpt lat="43.96435" lon="7.37901">
        <ele>1752.8</ele>
        <time>1982-03-26T09:53:46Z</time>
      </trkpt>
      <trkpt lat="43.96427" lon="7.37897">
        <ele>1751.3</ele>
        <time>1982-03-26T09:53:47Z</time>
      </trkpt>
      <trkpt lat="43.9642" lon="7.37895">
        <ele>1750.7</ele>
        <time>1982-03-26T09:53:48Z</time>
      </trkpt>
      <trkpt lat="43.96418" lon="7.37891">
        <ele>1750.2</ele>
        <time>1982-03-26T09:53:49Z</time>
      </trkpt>
      <trkpt lat="43.96415" lon="7.37889">
        <ele>1750.3</ele>
        <time>1982-03-26T09:53:50Z</time>
      </trkpt>
      <trkpt lat="43.96412" lon="7.37887">
        <ele>1751.1</ele>
        <time>1982-03-26T09:53:51Z</time>
      </trkpt>
      <trkpt lat="43.96415" lon="7.37888">
        <ele>1752.1</ele>
        <time>1982-03-26T09:53:52Z</time>
      </trkpt>
      <trkpt lat="43.96415" lon="7.37887">
        <ele>1752.8</ele>
        <time>1982-03-26T09:53:53Z</time>
      </trkpt>
      <trkpt lat="43.96414" lon="7.37886">
        <ele>1752.9</ele>
        <time>1982-03-26T09:53:54Z</time>
      </trkpt>
      <trkpt lat="43.96414" lon="7.37884">
        <ele>1753.6</ele>
        <time>1982-03-26T09:53:56Z</time>
      </trkpt>
      <trkpt lat="43.96412" lon="7.37884">
        <ele>1754.1</ele>
        <time>1982-03-26T09:53:57Z</time>
      </trkpt>
      <trkpt lat="43.96412" lon="7.37883">
        <ele>1754.7</ele>
        <time>1982-03-26T09:53:58Z</time>
      </trkpt>
      <trkpt lat="43.9641" lon="7.37882">
        <ele>1755.4</ele>
        <time>1982-03-26T09:53:59Z</time>
      </trkpt>
      <trkpt lat="43.96409" lon="7.37884">
        <ele>1755.2</ele>
        <time>1982-03-26T09:54:00Z</time>
      </trkpt>
      <trkpt lat="43.96408" lon="7.37884">
        <ele>1755.2</ele>
        <time>1982-03-26T09:54:01Z</time>
      </trkpt>
      <trkpt lat="43.96407" lon="7.37883">
        <ele>1755</ele>
        <time>1982-03-26T09:54:02Z</time>
      </trkpt>
      <trkpt lat="43.96406" lon="7.37882">
        <ele>1755.3</ele>
        <time>1982-03-26T09:54:03Z</time>
      </trkpt>
      <trkpt lat="43.96405" lon="7.37882">
        <ele>1755.4</ele>
        <time>1982-03-26T09:54:04Z</time>
      </trkpt>
      <trkpt lat="43.96405" lon="7.3788">
        <ele>1756.2</ele>
        <time>1982-03-26T09:54:05Z</time>
      </trkpt>
      <trkpt lat="43.96404" lon="7.37881">
        <ele>1756.6</ele>
        <time>1982-03-26T09:54:07Z</time>
      </trkpt>
      <trkpt lat="43.96404" lon="7.37881">
        <ele>1758.3</ele>
        <time>1982-03-26T09:54:09Z</time>
      </trkpt>
      <trkpt lat="43.96404" lon="7.37881">
        <ele>1758.1</ele>
        <time>1982-03-26T09:54:10Z</time>
      </trkpt>
      <trkpt lat="43.96404" lon="7.37881">
        <ele>1758.1</ele>
        <time>1982-03-26T09:54:10Z</time>
      </trkpt>
      <trkpt lat="43.96404" lon="7.37878">
        <ele>1761.7</ele>
        <time>1982-03-26T09:54:12Z</time>
      </trkpt>
      <trkpt lat="43.96404" lon="7.37876">
        <ele>1763.2</ele>
        <time>1982-03-26T09:54:13Z</time>
      </trkpt>
      <trkpt lat="43.96404" lon="7.37875">
        <ele>1764.2</ele>
        <time>1982-03-26T09:54:14Z</time>
      </trkpt>
      <trkpt lat="43.96404" lon="7.37874">
        <ele>1765.2</ele>
        <time>1982-03-26T09:54:15Z</time>
      </trkpt>
      <trkpt lat="43.96403" lon="7.37875">
        <ele>1765.3</ele>
        <time>1982-03-26T09:54:17Z</time>
      </trkpt>
      <trkpt lat="43.96402" lon="7.37875">
        <ele>1763.4</ele>
        <time>1982-03-26T09:54:17Z</time>
      </trkpt>
      <trkpt lat="43.96403" lon="7.37876">
        <ele>1763.5</ele>
        <time>1982-03-26T09:54:18Z</time>
      </trkpt>
      <trkpt lat="43.96404" lon="7.37876">
        <ele>1763.6</ele>
        <time>1982-03-26T09:54:19Z</time>
      </trkpt>
      <trkpt lat="43.96404" lon="7.37876">
        <ele>1763.6</ele>
        <time>1982-03-26T09:54:19Z</time>
      </trkpt>
      <trkpt lat="43.96405" lon="7.37877">
        <ele>1763.7</ele>
        <time>1982-03-26T09:54:21Z</time>
      </trkpt>
      <trkpt lat="43.96405" lon="7.37877">
        <ele>1763.8</ele>
        <time>1982-03-26T09:54:22Z</time>
      </trkpt>
      <trkpt lat="43.96405" lon="7.37877">
        <ele>1763.8</ele>
        <time>1982-03-26T09:54:23Z</time>
      </trkpt>
      <trkpt lat="43.96406" lon="7.37877">
        <ele>1764.2</ele>
        <time>1982-03-26T09:54:25Z</time>
      </trkpt>
      <trkpt lat="43.96406" lon="7.37877">
        <ele>1764.2</ele>
        <time>1982-03-26T09:55:03Z</time>
      </trkpt>
      <trkpt lat="43.96406" lon="7.37877">
        <ele>1764.5</ele>
        <time>1982-03-26T09:55:05Z</time>
      </trkpt>
      <trkpt lat="43.96406" lon="7.37877">
        <ele>1764.5</ele>
        <time>1982-03-26T09:56:25Z</time>
      </trkpt>
      <trkpt lat="43.96406" lon="7.37876">
        <ele>1762.5</ele>
        <time>1982-03-26T09:56:27Z</time>
      </trkpt>
      <trkpt lat="43.96404" lon="7.37876">
        <ele>1762.2</ele>
        <time>1982-03-26T09:56:28Z</time>
      </trkpt>
      <trkpt lat="43.96402" lon="7.37876">
        <ele>1761</ele>
        <time>1982-03-26T09:56:29Z</time>
      </trkpt>
      <trkpt lat="43.964" lon="7.37874">
        <ele>1761</ele>
        <time>1982-03-26T09:56:30Z</time>
      </trkpt>
      <trkpt lat="43.96397" lon="7.37873">
        <ele>1760.4</ele>
        <time>1982-03-26T09:56:31Z</time>
      </trkpt>
      <trkpt lat="43.96394" lon="7.37871">
        <ele>1759.4</ele>
        <time>1982-03-26T09:56:32Z</time>
      </trkpt>
      <trkpt lat="43.96391" lon="7.3787">
        <ele>1758.5</ele>
        <time>1982-03-26T09:56:33Z</time>
      </trkpt>
      <trkpt lat="43.96388" lon="7.37868">
        <ele>1757.9</ele>
        <time>1982-03-26T09:56:34Z</time>
      </trkpt>
      <trkpt lat="43.96382" lon="7.37866">
        <ele>1756.8</ele>
        <time>1982-03-26T09:56:35Z</time>
      </trkpt>
      <trkpt lat="43.96379" lon="7.37865">
        <ele>1756.6</ele>
        <time>1982-03-26T09:56:36Z</time>
      </trkpt>
      <trkpt lat="43.96374" lon="7.37863">
        <ele>1756.4</ele>
        <time>1982-03-26T09:56:37Z</time>
      </trkpt>
      <trkpt lat="43.9637" lon="7.37859">
        <ele>1755.4</ele>
        <time>1982-03-26T09:56:38Z</time>
      </trkpt>
      <trkpt lat="43.96364" lon="7.37858">
        <ele>1755.5</ele>
        <time>1982-03-26T09:56:39Z</time>
      </trkpt>
      <trkpt lat="43.96358" lon="7.37856">
        <ele>1755.3</ele>
        <time>1982-03-26T09:56:40Z</time>
      </trkpt>
      <trkpt lat="43.96351" lon="7.37853">
        <ele>1754.9</ele>
        <time>1982-03-26T09:56:41Z</time>
      </trkpt>
      <trkpt lat="43.96345" lon="7.37847">
        <ele>1753.7</ele>
        <time>1982-03-26T09:56:42Z</time>
      </trkpt>
      <trkpt lat="43.96341" lon="7.37845">
        <ele>1753.2</ele>
        <time>1982-03-26T09:56:43Z</time>
      </trkpt>
      <trkpt lat="43.96338" lon="7.37844">
        <ele>1753.5</ele>
        <time>1982-03-26T09:56:44Z</time>
      </trkpt>
      <trkpt lat="43.96336" lon="7.37845">
        <ele>1753.9</ele>
        <time>1982-03-26T09:56:45Z</time>
      </trkpt>
      <trkpt lat="43.9633" lon="7.37847">
        <ele>1754.8</ele>
        <time>1982-03-26T09:56:46Z</time>
      </trkpt>
      <trkpt lat="43.96331" lon="7.37848">
        <ele>1753.9</ele>
        <time>1982-03-26T09:56:47Z</time>
      </trkpt>
      <trkpt lat="43.96329" lon="7.37847">
        <ele>1754.1</ele>
        <time>1982-03-26T09:56:48Z</time>
      </trkpt>
      <trkpt lat="43.96329" lon="7.37845">
        <ele>1754.1</ele>
        <time>1982-03-26T09:56:49Z</time>
      </trkpt>
      <trkpt lat="43.96328" lon="7.37846">
        <ele>1752.3</ele>
        <time>1982-03-26T09:56:50Z</time>
      </trkpt>
      <trkpt lat="43.96328" lon="7.37847">
        <ele>1750.9</ele>
        <time>1982-03-26T09:56:51Z</time>
      </trkpt>
      <trkpt lat="43.96328" lon="7.37848">
        <ele>1750</ele>
        <time>1982-03-26T09:56:52Z</time>
      </trkpt>
      <trkpt lat="43.96329" lon="7.37848">
        <ele>1749.2</ele>
        <time>1982-03-26T09:56:53Z</time>
      </trkpt>
      <trkpt lat="43.9633" lon="7.37848">
        <ele>1749.1</ele>
        <time>1982-03-26T09:56:54Z</time>
      </trkpt>
      <trkpt lat="43.9633" lon="7.37848">
        <ele>1749.1</ele>
        <time>1982-03-26T09:56:54Z</time>
      </trkpt>
      <trkpt lat="43.9633" lon="7.37847">
        <ele>1749.7</ele>
        <time>1982-03-26T09:56:56Z</time>
      </trkpt>
      <trkpt lat="43.96331" lon="7.37847">
        <ele>1750.5</ele>
        <time>1982-03-26T09:56:57Z</time>
      </trkpt>
      <trkpt lat="43.96331" lon="7.37846">
        <ele>1750.9</ele>
        <time>1982-03-26T09:56:58Z</time>
      </trkpt>
      <trkpt lat="43.96331" lon="7.37846">
        <ele>1750.9</ele>
        <time>1982-03-26T09:56:59Z</time>
      </trkpt>
      <trkpt lat="43.96332" lon="7.37844">
        <ele>1751.8</ele>
        <time>1982-03-26T09:57:01Z</time>
      </trkpt>
      <trkpt lat="43.96331" lon="7.37844">
        <ele>1752.4</ele>
        <time>1982-03-26T09:57:02Z</time>
      </trkpt>
      <trkpt lat="43.96331" lon="7.37844">
        <ele>1752.4</ele>
        <time>1982-03-26T09:57:02Z</time>
      </trkpt>
      <trkpt lat="43.96332" lon="7.37843">
        <ele>1753.2</ele>
        <time>1982-03-26T09:57:04Z</time>
      </trkpt>
      <trkpt lat="43.96332" lon="7.37843">
        <ele>1753.2</ele>
        <time>1982-03-26T09:57:12Z</time>
      </trkpt>
      <trkpt lat="43.96332" lon="7.37843">
        <ele>1753.7</ele>
        <time>1982-03-26T09:57:14Z</time>
      </trkpt>
      <trkpt lat="43.96332" lon="7.37843">
        <ele>1753.7</ele>
        <time>1982-03-26T09:58:01Z</time>
      </trkpt>
      <trkpt lat="43.96332" lon="7.37843">
        <ele>1754.3</ele>
        <time>1982-03-26T09:58:03Z</time>
      </trkpt>
      <trkpt lat="43.96332" lon="7.37843">
        <ele>1754.3</ele>
        <time>1982-03-26T09:58:44Z</time>
      </trkpt>
      <trkpt lat="43.96332" lon="7.37842">
        <ele>1754.9</ele>
        <time>1982-03-26T09:58:46Z</time>
      </trkpt>
      <trkpt lat="43.96332" lon="7.37842">
        <ele>1754.9</ele>
        <time>1982-03-26T09:59:22Z</time>
      </trkpt>
      <trkpt lat="43.96332" lon="7.37842">
        <ele>1755.5</ele>
        <time>1982-03-26T09:59:24Z</time>
      </trkpt>
      <trkpt lat="43.96332" lon="7.37842">
        <ele>1755.5</ele>
        <time>1982-03-26T10:00:00Z</time>
      </trkpt>
      <trkpt lat="43.96332" lon="7.37842">
        <ele>1756</ele>
        <time>1982-03-26T10:00:02Z</time>
      </trkpt>
      <trkpt lat="43.96332" lon="7.37842">
        <ele>1756</ele>
        <time>1982-03-26T10:00:45Z</time>
      </trkpt>
      <trkpt lat="43.96331" lon="7.3784">
        <ele>1756.8</ele>
        <time>1982-03-26T10:00:47Z</time>
      </trkpt>
      <trkpt lat="43.9633" lon="7.37839">
        <ele>1756.4</ele>
        <time>1982-03-26T10:00:48Z</time>
      </trkpt>
      <trkpt lat="43.9633" lon="7.37838">
        <ele>1756.9</ele>
        <time>1982-03-26T10:00:49Z</time>
      </trkpt>
      <trkpt lat="43.9633" lon="7.37838">
        <ele>1756.9</ele>
        <time>1982-03-26T10:00:49Z</time>
      </trkpt>
      <trkpt lat="43.96328" lon="7.37836">
        <ele>1758</ele>
        <time>1982-03-26T10:00:51Z</time>
      </trkpt>
      <trkpt lat="43.96327" lon="7.37836">
        <ele>1758.4</ele>
        <time>1982-03-26T10:00:52Z</time>
      </trkpt>
      <trkpt lat="43.96326" lon="7.37836">
        <ele>1759.3</ele>
        <time>1982-03-26T10:00:53Z</time>
      </trkpt>
      <trkpt lat="43.96325" lon="7.37836">
        <ele>1759.6</ele>
        <time>1982-03-26T10:00:54Z</time>
      </trkpt>
      <trkpt lat="43.96325" lon="7.37836">
        <ele>1759.6</ele>
        <time>1982-03-26T10:00:54Z</time>
      </trkpt>
      <trkpt lat="43.96324" lon="7.37835">
        <ele>1759.8</ele>
        <time>1982-03-26T10:00:56Z</time>
      </trkpt>
      <trkpt lat="43.96324" lon="7.37835">
        <ele>1759.8</ele>
        <time>1982-03-26T10:00:56Z</time>
      </trkpt>
      <trkpt lat="43.96325" lon="7.37835">
        <ele>1759.4</ele>
        <time>1982-03-26T10:00:58Z</time>
      </trkpt>
      <trkpt lat="43.96325" lon="7.37835">
        <ele>1759.4</ele>
        <time>1982-03-26T10:02:29Z</time>
      </trkpt>
      <trkpt lat="43.96325" lon="7.37835">
        <ele>1759.9</ele>
        <time>1982-03-26T10:02:31Z</time>
      </trkpt>
      <trkpt lat="43.96325" lon="7.37835">
        <ele>1759.9</ele>
        <time>1982-03-26T10:02:32Z</time>
      </trkpt>
      <trkpt lat="43.96325" lon="7.37834">
        <ele>1760.4</ele>
        <time>1982-03-26T10:02:34Z</time>
      </trkpt>
      <trkpt lat="43.96325" lon="7.37834">
        <ele>1760.4</ele>
        <time>1982-03-26T10:03:26Z</time>
      </trkpt>
      <trkpt lat="43.96326" lon="7.37834">
        <ele>1761.1</ele>
        <time>1982-03-26T10:03:28Z</time>
      </trkpt>
      <trkpt lat="43.96326" lon="7.37834">
        <ele>1761.1</ele>
        <time>1982-03-26T10:03:56Z</time>
      </trkpt>
      <trkpt lat="43.96326" lon="7.37834">
        <ele>1761.6</ele>
        <time>1982-03-26T10:03:58Z</time>
      </trkpt>
      <trkpt lat="43.96326" lon="7.37834">
        <ele>1761.6</ele>
        <time>1982-03-26T10:04:28Z</time>
      </trkpt>
      <trkpt lat="43.96326" lon="7.37834">
        <ele>1762.1</ele>
        <time>1982-03-26T10:04:30Z</time>
      </trkpt>
      <trkpt lat="43.96326" lon="7.37834">
        <ele>1762.1</ele>
        <time>1982-03-26T10:04:51Z</time>
      </trkpt>
      <trkpt lat="43.96327" lon="7.37834">
        <ele>1762.6</ele>
        <time>1982-03-26T10:04:53Z</time>
      </trkpt>
      <trkpt lat="43.96327" lon="7.37834">
        <ele>1762.6</ele>
        <time>1982-03-26T10:05:23Z</time>
      </trkpt>
      <trkpt lat="43.96327" lon="7.37833">
        <ele>1763.2</ele>
        <time>1982-03-26T10:05:25Z</time>
      </trkpt>
      <trkpt lat="43.96327" lon="7.37833">
        <ele>1763.2</ele>
        <time>1982-03-26T10:06:07Z</time>
      </trkpt>
      <trkpt lat="43.96324" lon="7.37831">
        <ele>1760.8</ele>
        <time>1982-03-26T10:06:09Z</time>
      </trkpt>
      <trkpt lat="43.96321" lon="7.37829">
        <ele>1760.1</ele>
        <time>1982-03-26T10:06:10Z</time>
      </trkpt>
      <trkpt lat="43.96316" lon="7.37829">
        <ele>1758.1</ele>
        <time>1982-03-26T10:06:11Z</time>
      </trkpt>
      <trkpt lat="43.9631" lon="7.3783">
        <ele>1757.9</ele>
        <time>1982-03-26T10:06:12Z</time>
      </trkpt>
      <trkpt lat="43.96305" lon="7.3783">
        <ele>1757.7</ele>
        <time>1982-03-26T10:06:13Z</time>
      </trkpt>
      <trkpt lat="43.96299" lon="7.37828">
        <ele>1757.3</ele>
        <time>1982-03-26T10:06:14Z</time>
      </trkpt>
      <trkpt lat="43.96294" lon="7.37828">
        <ele>1757.9</ele>
        <time>1982-03-26T10:06:15Z</time>
      </trkpt>
      <trkpt lat="43.96284" lon="7.37829">
        <ele>1757.7</ele>
        <time>1982-03-26T10:06:16Z</time>
      </trkpt>
      <trkpt lat="43.96283" lon="7.37826">
        <ele>1758.6</ele>
        <time>1982-03-26T10:06:17Z</time>
      </trkpt>
      <trkpt lat="43.9628" lon="7.37828">
        <ele>1758.5</ele>
        <time>1982-03-26T10:06:18Z</time>
      </trkpt>
      <trkpt lat="43.96275" lon="7.37826">
        <ele>1757.6</ele>
        <time>1982-03-26T10:06:19Z</time>
      </trkpt>
      <trkpt lat="43.96271" lon="7.37828">
        <ele>1756.4</ele>
        <time>1982-03-26T10:06:20Z</time>
      </trkpt>
      <trkpt lat="43.96268" lon="7.37829">
        <ele>1756</ele>
        <time>1982-03-26T10:06:21Z</time>
      </trkpt>
      <trkpt lat="43.96271" lon="7.37828">
        <ele>1758.2</ele>
        <time>1982-03-26T10:06:22Z</time>
      </trkpt>
      <trkpt lat="43.9627" lon="7.37828">
        <ele>1759</ele>
        <time>1982-03-26T10:06:23Z</time>
      </trkpt>
      <trkpt lat="43.96269" lon="7.37826">
        <ele>1759</ele>
        <time>1982-03-26T10:06:25Z</time>
      </trkpt>
      <trkpt lat="43.96269" lon="7.37826">
        <ele>1759.2</ele>
        <time>1982-03-26T10:06:26Z</time>
      </trkpt>
      <trkpt lat="43.96268" lon="7.37829">
        <ele>1757.3</ele>
        <time>1982-03-26T10:06:28Z</time>
      </trkpt>
      <trkpt lat="43.96268" lon="7.37829">
        <ele>1757.4</ele>
        <time>1982-03-26T10:06:29Z</time>
      </trkpt>
      <trkpt lat="43.96268" lon="7.37829">
        <ele>1757.4</ele>
        <time>1982-03-26T10:06:29Z</time>
      </trkpt>
      <trkpt lat="43.96267" lon="7.37828">
        <ele>1758.9</ele>
        <time>1982-03-26T10:06:31Z</time>
      </trkpt>
      <trkpt lat="43.96266" lon="7.37829">
        <ele>1758.7</ele>
        <time>1982-03-26T10:06:32Z</time>
      </trkpt>
      <trkpt lat="43.96263" lon="7.37833">
        <ele>1755.1</ele>
        <time>1982-03-26T10:06:34Z</time>
      </trkpt>
      <trkpt lat="43.96262" lon="7.37834">
        <ele>1755.2</ele>
        <time>1982-03-26T10:06:35Z</time>
      </trkpt>
      <trkpt lat="43.96261" lon="7.37835">
        <ele>1755</ele>
        <time>1982-03-26T10:06:36Z</time>
      </trkpt>
      <trkpt lat="43.96261" lon="7.37836">
        <ele>1754.5</ele>
        <time>1982-03-26T10:06:37Z</time>
      </trkpt>
      <trkpt lat="43.96259" lon="7.37836">
        <ele>1754.5</ele>
        <time>1982-03-26T10:06:38Z</time>
      </trkpt>
      <trkpt lat="43.96258" lon="7.37837">
        <ele>1753.6</ele>
        <time>1982-03-26T10:06:39Z</time>
      </trkpt>
      <trkpt lat="43.96257" lon="7.37838">
        <ele>1751.9</ele>
        <time>1982-03-26T10:06:40Z</time>
      </trkpt>
      <trkpt lat="43.96256" lon="7.37838">
        <ele>1751.1</ele>
        <time>1982-03-26T10:06:41Z</time>
      </trkpt>
      <trkpt lat="43.96254" lon="7.37837">
        <ele>1750.7</ele>
        <time>1982-03-26T10:06:42Z</time>
      </trkpt>
      <trkpt lat="43.96253" lon="7.37837">
        <ele>1751.2</ele>
        <time>1982-03-26T10:06:43Z</time>
      </trkpt>
      <trkpt lat="43.96252" lon="7.37836">
        <ele>1751.6</ele>
        <time>1982-03-26T10:06:44Z</time>
      </trkpt>
      <trkpt lat="43.96252" lon="7.37836">
        <ele>1752.2</ele>
        <time>1982-03-26T10:06:45Z</time>
      </trkpt>
      <trkpt lat="43.96252" lon="7.37836">
        <ele>1752.2</ele>
        <time>1982-03-26T10:06:45Z</time>
      </trkpt>
      <trkpt lat="43.96252" lon="7.37838">
        <ele>1751.2</ele>
        <time>1982-03-26T10:06:47Z</time>
      </trkpt>
      <trkpt lat="43.96252" lon="7.37838">
        <ele>1751.7</ele>
        <time>1982-03-26T10:06:48Z</time>
      </trkpt>
      <trkpt lat="43.96252" lon="7.37838">
        <ele>1751.7</ele>
        <time>1982-03-26T10:06:50Z</time>
      </trkpt>
      <trkpt lat="43.96251" lon="7.37838">
        <ele>1751.7</ele>
        <time>1982-03-26T10:06:52Z</time>
      </trkpt>
      <trkpt lat="43.96251" lon="7.37838">
        <ele>1751.2</ele>
        <time>1982-03-26T10:06:53Z</time>
      </trkpt>
      <trkpt lat="43.96251" lon="7.37838">
        <ele>1751.2</ele>
        <time>1982-03-26T10:07:15Z</time>
      </trkpt>
      <trkpt lat="43.9625" lon="7.37839">
        <ele>1750.7</ele>
        <time>1982-03-26T10:07:17Z</time>
      </trkpt>
      <trkpt lat="43.96249" lon="7.37839">
        <ele>1749.9</ele>
        <time>1982-03-26T10:07:18Z</time>
      </trkpt>
      <trkpt lat="43.96249" lon="7.3784">
        <ele>1749.7</ele>
        <time>1982-03-26T10:07:19Z</time>
      </trkpt>
      <trkpt lat="43.96249" lon="7.3784">
        <ele>1749.7</ele>
        <time>1982-03-26T10:07:23Z</time>
      </trkpt>
      <trkpt lat="43.96248" lon="7.3784">
        <ele>1748.7</ele>
        <time>1982-03-26T10:07:25Z</time>
      </trkpt>
      <trkpt lat="43.96248" lon="7.3784">
        <ele>1748.7</ele>
        <time>1982-03-26T10:07:26Z</time>
      </trkpt>
      <trkpt lat="43.96244" lon="7.37841">
        <ele>1747</ele>
        <time>1982-03-26T10:07:28Z</time>
      </trkpt>
      <trkpt lat="43.96243" lon="7.37843">
        <ele>1746.6</ele>
        <time>1982-03-26T10:07:29Z</time>
      </trkpt>
      <trkpt lat="43.96241" lon="7.37844">
        <ele>1745.1</ele>
        <time>1982-03-26T10:07:30Z</time>
      </trkpt>
      <trkpt lat="43.9624" lon="7.37845">
        <ele>1744</ele>
        <time>1982-03-26T10:07:31Z</time>
      </trkpt>
      <trkpt lat="43.96239" lon="7.37845">
        <ele>1744</ele>
        <time>1982-03-26T10:07:32Z</time>
      </trkpt>
      <trkpt lat="43.96236" lon="7.37845">
        <ele>1743.5</ele>
        <time>1982-03-26T10:07:33Z</time>
      </trkpt>
      <trkpt lat="43.96233" lon="7.37847">
        <ele>1740.7</ele>
        <time>1982-03-26T10:07:34Z</time>
      </trkpt>
      <trkpt lat="43.96232" lon="7.37848">
        <ele>1737.9</ele>
        <time>1982-03-26T10:07:35Z</time>
      </trkpt>
      <trkpt lat="43.9623" lon="7.37848">
        <ele>1736.4</ele>
        <time>1982-03-26T10:07:36Z</time>
      </trkpt>
      <trkpt lat="43.96228" lon="7.37847">
        <ele>1735.1</ele>
        <time>1982-03-26T10:07:37Z</time>
      </trkpt>
      <trkpt lat="43.96226" lon="7.37846">
        <ele>1734.7</ele>
        <time>1982-03-26T10:07:38Z</time>
      </trkpt>
      <trkpt lat="43.96224" lon="7.37844">
        <ele>1734.2</ele>
        <time>1982-03-26T10:07:39Z</time>
      </trkpt>
      <trkpt lat="43.96222" lon="7.3784">
        <ele>1736.2</ele>
        <time>1982-03-26T10:07:40Z</time>
      </trkpt>
      <trkpt lat="43.96219" lon="7.37839">
        <ele>1736.3</ele>
        <time>1982-03-26T10:07:41Z</time>
      </trkpt>
      <trkpt lat="43.96217" lon="7.37837">
        <ele>1737.3</ele>
        <time>1982-03-26T10:07:42Z</time>
      </trkpt>
      <trkpt lat="43.96214" lon="7.37835">
        <ele>1738.1</ele>
        <time>1982-03-26T10:07:43Z</time>
      </trkpt>
      <trkpt lat="43.96212" lon="7.37835">
        <ele>1734.9</ele>
        <time>1982-03-26T10:07:44Z</time>
      </trkpt>
      <trkpt lat="43.96209" lon="7.37833">
        <ele>1733.1</ele>
        <time>1982-03-26T10:07:45Z</time>
      </trkpt>
      <trkpt lat="43.96206" lon="7.37833">
        <ele>1731.6</ele>
        <time>1982-03-26T10:07:46Z</time>
      </trkpt>
      <trkpt lat="43.96204" lon="7.37832">
        <ele>1731.2</ele>
        <time>1982-03-26T10:07:47Z</time>
      </trkpt>
      <trkpt lat="43.96202" lon="7.37832">
        <ele>1730.5</ele>
        <time>1982-03-26T10:07:48Z</time>
      </trkpt>
      <trkpt lat="43.96199" lon="7.37831">
        <ele>1729.9</ele>
        <time>1982-03-26T10:07:49Z</time>
      </trkpt>
      <trkpt lat="43.96197" lon="7.3783">
        <ele>1730.6</ele>
        <time>1982-03-26T10:07:50Z</time>
      </trkpt>
      <trkpt lat="43.96194" lon="7.3783">
        <ele>1730.4</ele>
        <time>1982-03-26T10:07:51Z</time>
      </trkpt>
      <trkpt lat="43.96192" lon="7.37828">
        <ele>1730.2</ele>
        <time>1982-03-26T10:07:52Z</time>
      </trkpt>
      <trkpt lat="43.96189" lon="7.37826">
        <ele>1729.9</ele>
        <time>1982-03-26T10:07:53Z</time>
      </trkpt>
      <trkpt lat="43.96185" lon="7.37825">
        <ele>1729.9</ele>
        <time>1982-03-26T10:07:54Z</time>
      </trkpt>
      <trkpt lat="43.96182" lon="7.37823">
        <ele>1729</ele>
        <time>1982-03-26T10:07:55Z</time>
      </trkpt>
      <trkpt lat="43.96178" lon="7.37826">
        <ele>1729.3</ele>
        <time>1982-03-26T10:07:56Z</time>
      </trkpt>
      <trkpt lat="43.96175" lon="7.37824">
        <ele>1729</ele>
        <time>1982-03-26T10:07:57Z</time>
      </trkpt>
      <trkpt lat="43.96174" lon="7.37825">
        <ele>1727.6</ele>
        <time>1982-03-26T10:07:58Z</time>
      </trkpt>
      <trkpt lat="43.96174" lon="7.37826">
        <ele>1727.3</ele>
        <time>1982-03-26T10:07:59Z</time>
      </trkpt>
      <trkpt lat="43.96175" lon="7.37826">
        <ele>1727.2</ele>
        <time>1982-03-26T10:08:00Z</time>
      </trkpt>
      <trkpt lat="43.96175" lon="7.37826">
        <ele>1727.2</ele>
        <time>1982-03-26T10:08:04Z</time>
      </trkpt>
      <trkpt lat="43.96174" lon="7.37827">
        <ele>1726.6</ele>
        <time>1982-03-26T10:08:06Z</time>
      </trkpt>
      <trkpt lat="43.96174" lon="7.37827">
        <ele>1726.6</ele>
        <time>1982-03-26T10:08:06Z</time>
      </trkpt>
      <trkpt lat="43.96175" lon="7.37827">
        <ele>1726.5</ele>
        <time>1982-03-26T10:08:08Z</time>
      </trkpt>
      <trkpt lat="43.96175" lon="7.37827">
        <ele>1726.5</ele>
        <time>1982-03-26T10:08:50Z</time>
      </trkpt>
      <trkpt lat="43.9617" lon="7.37823">
        <ele>1725.2</ele>
        <time>1982-03-26T10:08:52Z</time>
      </trkpt>
      <trkpt lat="43.96168" lon="7.37822">
        <ele>1726</ele>
        <time>1982-03-26T10:08:53Z</time>
      </trkpt>
      <trkpt lat="43.96165" lon="7.37822">
        <ele>1724.4</ele>
        <time>1982-03-26T10:08:54Z</time>
      </trkpt>
      <trkpt lat="43.9616" lon="7.37822">
        <ele>1722.3</ele>
        <time>1982-03-26T10:08:55Z</time>
      </trkpt>
      <trkpt lat="43.96155" lon="7.37823">
        <ele>1720.5</ele>
        <time>1982-03-26T10:08:56Z</time>
      </trkpt>
      <trkpt lat="43.9615" lon="7.37823">
        <ele>1719.5</ele>
        <time>1982-03-26T10:08:57Z</time>
      </trkpt>
      <trkpt lat="43.96145" lon="7.37822">
        <ele>1717.6</ele>
        <time>1982-03-26T10:08:58Z</time>
      </trkpt>
      <trkpt lat="43.96139" lon="7.3782">
        <ele>1718.9</ele>
        <time>1982-03-26T10:08:59Z</time>
      </trkpt>
      <trkpt lat="43.96133" lon="7.37818">
        <ele>1718.9</ele>
        <time>1982-03-26T10:09:00Z</time>
      </trkpt>
      <trkpt lat="43.96128" lon="7.37817">
        <ele>1719</ele>
        <time>1982-03-26T10:09:01Z</time>
      </trkpt>
      <trkpt lat="43.96122" lon="7.37817">
        <ele>1719.2</ele>
        <time>1982-03-26T10:09:02Z</time>
      </trkpt>
      <trkpt lat="43.96119" lon="7.37815">
        <ele>1719</ele>
        <time>1982-03-26T10:09:03Z</time>
      </trkpt>
      <trkpt lat="43.96116" lon="7.37814">
        <ele>1718.9</ele>
        <time>1982-03-26T10:09:04Z</time>
      </trkpt>
      <trkpt lat="43.96113" lon="7.37811">
        <ele>1719.4</ele>
        <time>1982-03-26T10:09:05Z</time>
      </trkpt>
      <trkpt lat="43.96116" lon="7.3781">
        <ele>1719.4</ele>
        <time>1982-03-26T10:09:06Z</time>
      </trkpt>
      <trkpt lat="43.96114" lon="7.37812">
        <ele>1717.7</ele>
        <time>1982-03-26T10:09:07Z</time>
      </trkpt>
      <trkpt lat="43.96114" lon="7.37812">
        <ele>1717.7</ele>
        <time>1982-03-26T10:09:08Z</time>
      </trkpt>
      <trkpt lat="43.96114" lon="7.37812">
        <ele>1717.7</ele>
        <time>1982-03-26T10:09:10Z</time>
      </trkpt>
      <trkpt lat="43.96113" lon="7.37813">
        <ele>1718.8</ele>
        <time>1982-03-26T10:09:12Z</time>
      </trkpt>
      <trkpt lat="43.96113" lon="7.37812">
        <ele>1718.3</ele>
        <time>1982-03-26T10:09:13Z</time>
      </trkpt>
      <trkpt lat="43.96113" lon="7.37812">
        <ele>1718.3</ele>
        <time>1982-03-26T10:09:14Z</time>
      </trkpt>
      <trkpt lat="43.96113" lon="7.37812">
        <ele>1717.7</ele>
        <time>1982-03-26T10:09:17Z</time>
      </trkpt>
      <trkpt lat="43.96113" lon="7.3781">
        <ele>1717.7</ele>
        <time>1982-03-26T10:09:19Z</time>
      </trkpt>
      <trkpt lat="43.96113" lon="7.3781">
        <ele>1718.2</ele>
        <time>1982-03-26T10:09:20Z</time>
      </trkpt>
      <trkpt lat="43.96113" lon="7.3781">
        <ele>1718.2</ele>
        <time>1982-03-26T10:09:24Z</time>
      </trkpt>
      <trkpt lat="43.96113" lon="7.37809">
        <ele>1718.7</ele>
        <time>1982-03-26T10:09:26Z</time>
      </trkpt>
      <trkpt lat="43.96113" lon="7.37809">
        <ele>1718.7</ele>
        <time>1982-03-26T10:09:27Z</time>
      </trkpt>
      <trkpt lat="43.96112" lon="7.37809">
        <ele>1719.1</ele>
        <time>1982-03-26T10:09:29Z</time>
      </trkpt>
      <trkpt lat="43.96112" lon="7.37809">
        <ele>1719.1</ele>
        <time>1982-03-26T10:09:33Z</time>
      </trkpt>
      <trkpt lat="43.9611" lon="7.37808">
        <ele>1716.8</ele>
        <time>1982-03-26T10:09:35Z</time>
      </trkpt>
      <trkpt lat="43.96109" lon="7.37808">
        <ele>1716</ele>
        <time>1982-03-26T10:09:36Z</time>
      </trkpt>
      <trkpt lat="43.96109" lon="7.37808">
        <ele>1716</ele>
        <time>1982-03-26T10:09:36Z</time>
      </trkpt>
      <trkpt lat="43.96108" lon="7.37809">
        <ele>1717.4</ele>
        <time>1982-03-26T10:09:39Z</time>
      </trkpt>
      <trkpt lat="43.96108" lon="7.3781">
        <ele>1717.6</ele>
        <time>1982-03-26T10:09:40Z</time>
      </trkpt>
      <trkpt lat="43.96108" lon="7.3781">
        <ele>1717.6</ele>
        <time>1982-03-26T10:09:40Z</time>
      </trkpt>
      <trkpt lat="43.96107" lon="7.3781">
        <ele>1717.8</ele>
        <time>1982-03-26T10:09:43Z</time>
      </trkpt>
      <trkpt lat="43.96107" lon="7.37808">
        <ele>1717.7</ele>
        <time>1982-03-26T10:09:45Z</time>
      </trkpt>
      <trkpt lat="43.96106" lon="7.37808">
        <ele>1717.4</ele>
        <time>1982-03-26T10:09:46Z</time>
      </trkpt>
      <trkpt lat="43.96106" lon="7.37808">
        <ele>1717.4</ele>
        <time>1982-03-26T10:09:47Z</time>
      </trkpt>
      <trkpt lat="43.96105" lon="7.37808">
        <ele>1717.5</ele>
        <time>1982-03-26T10:09:49Z</time>
      </trkpt>
      <trkpt lat="43.96105" lon="7.37808">
        <ele>1717.5</ele>
        <time>1982-03-26T10:09:50Z</time>
      </trkpt>
      <trkpt lat="43.96105" lon="7.37807">
        <ele>1717.3</ele>
        <time>1982-03-26T10:09:52Z</time>
      </trkpt>
      <trkpt lat="43.96105" lon="7.37807">
        <ele>1717.3</ele>
        <time>1982-03-26T10:09:56Z</time>
      </trkpt>
      <trkpt lat="43.96101" lon="7.37808">
        <ele>1717.3</ele>
        <time>1982-03-26T10:09:58Z</time>
      </trkpt>
      <trkpt lat="43.96101" lon="7.37807">
        <ele>1716.8</ele>
        <time>1982-03-26T10:09:59Z</time>
      </trkpt>
      <trkpt lat="43.961" lon="7.37806">
        <ele>1715.7</ele>
        <time>1982-03-26T10:10:00Z</time>
      </trkpt>
      <trkpt lat="43.96101" lon="7.37805">
        <ele>1714.5</ele>
        <time>1982-03-26T10:10:01Z</time>
      </trkpt>
      <trkpt lat="43.96101" lon="7.37805">
        <ele>1714.4</ele>
        <time>1982-03-26T10:10:02Z</time>
      </trkpt>
      <trkpt lat="43.96101" lon="7.37805">
        <ele>1714.4</ele>
        <time>1982-03-26T10:10:04Z</time>
      </trkpt>
      <trkpt lat="43.96101" lon="7.37806">
        <ele>1714.4</ele>
        <time>1982-03-26T10:10:06Z</time>
      </trkpt>
      <trkpt lat="43.96098" lon="7.37805">
        <ele>1715.4</ele>
        <time>1982-03-26T10:10:08Z</time>
      </trkpt>
      <trkpt lat="43.96095" lon="7.37806">
        <ele>1714.4</ele>
        <time>1982-03-26T10:10:09Z</time>
      </trkpt>
      <trkpt lat="43.96093" lon="7.37808">
        <ele>1712.2</ele>
        <time>1982-03-26T10:10:10Z</time>
      </trkpt>
      <trkpt lat="43.96091" lon="7.37807">
        <ele>1711.2</ele>
        <time>1982-03-26T10:10:11Z</time>
      </trkpt>
      <trkpt lat="43.9609" lon="7.37808">
        <ele>1711</ele>
        <time>1982-03-26T10:10:12Z</time>
      </trkpt>
      <trkpt lat="43.96089" lon="7.37807">
        <ele>1710.9</ele>
        <time>1982-03-26T10:10:14Z</time>
      </trkpt>
      <trkpt lat="43.96089" lon="7.37808">
        <ele>1709.4</ele>
        <time>1982-03-26T10:10:15Z</time>
      </trkpt>
      <trkpt lat="43.96088" lon="7.37808">
        <ele>1709.6</ele>
        <time>1982-03-26T10:10:16Z</time>
      </trkpt>
      <trkpt lat="43.96086" lon="7.37805">
        <ele>1708.7</ele>
        <time>1982-03-26T10:10:18Z</time>
      </trkpt>
      <trkpt lat="43.96086" lon="7.37805">
        <ele>1708.7</ele>
        <time>1982-03-26T10:10:19Z</time>
      </trkpt>
      <trkpt lat="43.96087" lon="7.37803">
        <ele>1709.1</ele>
        <time>1982-03-26T10:10:21Z</time>
      </trkpt>
      <trkpt lat="43.96088" lon="7.37803">
        <ele>1708.3</ele>
        <time>1982-03-26T10:10:22Z</time>
      </trkpt>
      <trkpt lat="43.96089" lon="7.37803">
        <ele>1708</ele>
        <time>1982-03-26T10:10:23Z</time>
      </trkpt>
      <trkpt lat="43.9609" lon="7.37802">
        <ele>1707.5</ele>
        <time>1982-03-26T10:10:25Z</time>
      </trkpt>
      <trkpt lat="43.9609" lon="7.37801">
        <ele>1707</ele>
        <time>1982-03-26T10:10:26Z</time>
      </trkpt>
      <trkpt lat="43.9609" lon="7.378">
        <ele>1706.7</ele>
        <time>1982-03-26T10:10:28Z</time>
      </trkpt>
      <trkpt lat="43.96089" lon="7.378">
        <ele>1705.4</ele>
        <time>1982-03-26T10:10:29Z</time>
      </trkpt>
      <trkpt lat="43.96089" lon="7.378">
        <ele>1705.2</ele>
        <time>1982-03-26T10:10:30Z</time>
      </trkpt>
      <trkpt lat="43.96089" lon="7.378">
        <ele>1705.2</ele>
        <time>1982-03-26T10:10:39Z</time>
      </trkpt>
      <trkpt lat="43.96088" lon="7.378">
        <ele>1705.3</ele>
        <time>1982-03-26T10:10:41Z</time>
      </trkpt>
      <trkpt lat="43.96088" lon="7.378">
        <ele>1705.3</ele>
        <time>1982-03-26T10:10:41Z</time>
      </trkpt>
      <trkpt lat="43.96087" lon="7.37798">
        <ele>1705</ele>
        <time>1982-03-26T10:10:43Z</time>
      </trkpt>
      <trkpt lat="43.96087" lon="7.37798">
        <ele>1705.6</ele>
        <time>1982-03-26T10:10:45Z</time>
      </trkpt>
      <trkpt lat="43.96086" lon="7.37795">
        <ele>1706.5</ele>
        <time>1982-03-26T10:10:47Z</time>
      </trkpt>
      <trkpt lat="43.96086" lon="7.37795">
        <ele>1706.3</ele>
        <time>1982-03-26T10:10:48Z</time>
      </trkpt>
      <trkpt lat="43.96086" lon="7.37795">
        <ele>1706.3</ele>
        <time>1982-03-26T10:10:53Z</time>
      </trkpt>
      <trkpt lat="43.96084" lon="7.37795">
        <ele>1705.9</ele>
        <time>1982-03-26T10:10:55Z</time>
      </trkpt>
      <trkpt lat="43.96081" lon="7.37797">
        <ele>1703.6</ele>
        <time>1982-03-26T10:10:56Z</time>
      </trkpt>
      <trkpt lat="43.96078" lon="7.37797">
        <ele>1703</ele>
        <time>1982-03-26T10:10:57Z</time>
      </trkpt>
      <trkpt lat="43.96075" lon="7.37797">
        <ele>1702.1</ele>
        <time>1982-03-26T10:10:58Z</time>
      </trkpt>
      <trkpt lat="43.96071" lon="7.37798">
        <ele>1701.5</ele>
        <time>1982-03-26T10:10:59Z</time>
      </trkpt>
      <trkpt lat="43.96068" lon="7.37799">
        <ele>1699.7</ele>
        <time>1982-03-26T10:11:00Z</time>
      </trkpt>
      <trkpt lat="43.96063" lon="7.378">
        <ele>1699.5</ele>
        <time>1982-03-26T10:11:01Z</time>
      </trkpt>
      <trkpt lat="43.96061" lon="7.37801">
        <ele>1698.8</ele>
        <time>1982-03-26T10:11:02Z</time>
      </trkpt>
      <trkpt lat="43.96062" lon="7.37793">
        <ele>1703.8</ele>
        <time>1982-03-26T10:11:03Z</time>
      </trkpt>
      <trkpt lat="43.9606" lon="7.37794">
        <ele>1704.5</ele>
        <time>1982-03-26T10:11:04Z</time>
      </trkpt>
      <trkpt lat="43.96058" lon="7.37791">
        <ele>1706.4</ele>
        <time>1982-03-26T10:11:05Z</time>
      </trkpt>
      <trkpt lat="43.96055" lon="7.37791">
        <ele>1706.3</ele>
        <time>1982-03-26T10:11:06Z</time>
      </trkpt>
      <trkpt lat="43.96053" lon="7.37792">
        <ele>1706.1</ele>
        <time>1982-03-26T10:11:07Z</time>
      </trkpt>
      <trkpt lat="43.96049" lon="7.37791">
        <ele>1706.7</ele>
        <time>1982-03-26T10:11:08Z</time>
      </trkpt>
      <trkpt lat="43.96046" lon="7.3779">
        <ele>1707.1</ele>
        <time>1982-03-26T10:11:09Z</time>
      </trkpt>
      <trkpt lat="43.96041" lon="7.37789">
        <ele>1707.3</ele>
        <time>1982-03-26T10:11:10Z</time>
      </trkpt>
      <trkpt lat="43.96036" lon="7.37787">
        <ele>1705</ele>
        <time>1982-03-26T10:11:11Z</time>
      </trkpt>
      <trkpt lat="43.96034" lon="7.37786">
        <ele>1703.8</ele>
        <time>1982-03-26T10:11:12Z</time>
      </trkpt>
      <trkpt lat="43.96034" lon="7.37784">
        <ele>1703.3</ele>
        <time>1982-03-26T10:11:13Z</time>
      </trkpt>
      <trkpt lat="43.96033" lon="7.37783">
        <ele>1702.9</ele>
        <time>1982-03-26T10:11:14Z</time>
      </trkpt>
      <trkpt lat="43.96034" lon="7.37782">
        <ele>1703.4</ele>
        <time>1982-03-26T10:11:15Z</time>
      </trkpt>
      <trkpt lat="43.96033" lon="7.37783">
        <ele>1701.9</ele>
        <time>1982-03-26T10:11:16Z</time>
      </trkpt>
      <trkpt lat="43.96033" lon="7.37783">
        <ele>1699.9</ele>
        <time>1982-03-26T10:11:17Z</time>
      </trkpt>
      <trkpt lat="43.96032" lon="7.37782">
        <ele>1699.4</ele>
        <time>1982-03-26T10:11:19Z</time>
      </trkpt>
      <trkpt lat="43.96037" lon="7.3778">
        <ele>1698.2</ele>
        <time>1982-03-26T10:11:21Z</time>
      </trkpt>
      <trkpt lat="43.9604" lon="7.37778">
        <ele>1699</ele>
        <time>1982-03-26T10:11:22Z</time>
      </trkpt>
      <trkpt lat="43.96042" lon="7.37777">
        <ele>1698.3</ele>
        <time>1982-03-26T10:11:23Z</time>
      </trkpt>
      <trkpt lat="43.96043" lon="7.37775">
        <ele>1697.4</ele>
        <time>1982-03-26T10:11:24Z</time>
      </trkpt>
      <trkpt lat="43.96044" lon="7.37774">
        <ele>1696.5</ele>
        <time>1982-03-26T10:11:25Z</time>
      </trkpt>
      <trkpt lat="43.96046" lon="7.37773">
        <ele>1695.8</ele>
        <time>1982-03-26T10:11:26Z</time>
      </trkpt>
      <trkpt lat="43.96041" lon="7.37772">
        <ele>1697.2</ele>
        <time>1982-03-26T10:11:27Z</time>
      </trkpt>
      <trkpt lat="43.9604" lon="7.3777">
        <ele>1698</ele>
        <time>1982-03-26T10:11:28Z</time>
      </trkpt>
      <trkpt lat="43.9604" lon="7.3777">
        <ele>1697.9</ele>
        <time>1982-03-26T10:11:29Z</time>
      </trkpt>
      <trkpt lat="43.96036" lon="7.3777">
        <ele>1695.1</ele>
        <time>1982-03-26T10:11:31Z</time>
      </trkpt>
      <trkpt lat="43.96034" lon="7.37771">
        <ele>1693.4</ele>
        <time>1982-03-26T10:11:32Z</time>
      </trkpt>
      <trkpt lat="43.96031" lon="7.37771">
        <ele>1691.2</ele>
        <time>1982-03-26T10:11:33Z</time>
      </trkpt>
      <trkpt lat="43.96029" lon="7.37771">
        <ele>1689.6</ele>
        <time>1982-03-26T10:11:34Z</time>
      </trkpt>
      <trkpt lat="43.96027" lon="7.3777">
        <ele>1688.6</ele>
        <time>1982-03-26T10:11:35Z</time>
      </trkpt>
      <trkpt lat="43.96025" lon="7.37769">
        <ele>1688.2</ele>
        <time>1982-03-26T10:11:36Z</time>
      </trkpt>
      <trkpt lat="43.96021" lon="7.37767">
        <ele>1687.6</ele>
        <time>1982-03-26T10:11:37Z</time>
      </trkpt>
      <trkpt lat="43.96019" lon="7.37763">
        <ele>1688.3</ele>
        <time>1982-03-26T10:11:38Z</time>
      </trkpt>
      <trkpt lat="43.96015" lon="7.3776">
        <ele>1688</ele>
        <time>1982-03-26T10:11:39Z</time>
      </trkpt>
      <trkpt lat="43.96013" lon="7.3776">
        <ele>1688.4</ele>
        <time>1982-03-26T10:11:40Z</time>
      </trkpt>
      <trkpt lat="43.96014" lon="7.37759">
        <ele>1688.7</ele>
        <time>1982-03-26T10:11:41Z</time>
      </trkpt>
      <trkpt lat="43.96009" lon="7.37756">
        <ele>1689.6</ele>
        <time>1982-03-26T10:11:43Z</time>
      </trkpt>
      <trkpt lat="43.96005" lon="7.37753">
        <ele>1689.4</ele>
        <time>1982-03-26T10:11:44Z</time>
      </trkpt>
      <trkpt lat="43.96" lon="7.3775">
        <ele>1688.6</ele>
        <time>1982-03-26T10:11:45Z</time>
      </trkpt>
      <trkpt lat="43.95997" lon="7.37748">
        <ele>1688.8</ele>
        <time>1982-03-26T10:11:46Z</time>
      </trkpt>
      <trkpt lat="43.95994" lon="7.37747">
        <ele>1689.3</ele>
        <time>1982-03-26T10:11:47Z</time>
      </trkpt>
      <trkpt lat="43.9599" lon="7.37743">
        <ele>1688.9</ele>
        <time>1982-03-26T10:11:48Z</time>
      </trkpt>
      <trkpt lat="43.95988" lon="7.37743">
        <ele>1689</ele>
        <time>1982-03-26T10:11:49Z</time>
      </trkpt>
      <trkpt lat="43.95987" lon="7.37742">
        <ele>1688.1</ele>
        <time>1982-03-26T10:11:50Z</time>
      </trkpt>
      <trkpt lat="43.95982" lon="7.3774">
        <ele>1686.3</ele>
        <time>1982-03-26T10:11:51Z</time>
      </trkpt>
      <trkpt lat="43.95977" lon="7.37739">
        <ele>1683.2</ele>
        <time>1982-03-26T10:11:52Z</time>
      </trkpt>
      <trkpt lat="43.95976" lon="7.37738">
        <ele>1681</ele>
        <time>1982-03-26T10:11:53Z</time>
      </trkpt>
      <trkpt lat="43.95975" lon="7.37737">
        <ele>1681.1</ele>
        <time>1982-03-26T10:11:54Z</time>
      </trkpt>
      <trkpt lat="43.95972" lon="7.37735">
        <ele>1680.2</ele>
        <time>1982-03-26T10:11:55Z</time>
      </trkpt>
      <trkpt lat="43.9597" lon="7.37734">
        <ele>1680.3</ele>
        <time>1982-03-26T10:11:56Z</time>
      </trkpt>
      <trkpt lat="43.95963" lon="7.37734">
        <ele>1677.8</ele>
        <time>1982-03-26T10:11:57Z</time>
      </trkpt>
      <trkpt lat="43.95959" lon="7.3773">
        <ele>1677.7</ele>
        <time>1982-03-26T10:11:58Z</time>
      </trkpt>
      <trkpt lat="43.95952" lon="7.37726">
        <ele>1677.5</ele>
        <time>1982-03-26T10:11:59Z</time>
      </trkpt>
      <trkpt lat="43.95947" lon="7.37724">
        <ele>1677.1</ele>
        <time>1982-03-26T10:12:00Z</time>
      </trkpt>
      <trkpt lat="43.95943" lon="7.37721">
        <ele>1677</ele>
        <time>1982-03-26T10:12:01Z</time>
      </trkpt>
      <trkpt lat="43.95936" lon="7.37718">
        <ele>1677.6</ele>
        <time>1982-03-26T10:12:02Z</time>
      </trkpt>
      <trkpt lat="43.95927" lon="7.3772">
        <ele>1677.6</ele>
        <time>1982-03-26T10:12:03Z</time>
      </trkpt>
      <trkpt lat="43.9592" lon="7.37716">
        <ele>1675.9</ele>
        <time>1982-03-26T10:12:04Z</time>
      </trkpt>
      <trkpt lat="43.95915" lon="7.37715">
        <ele>1674</ele>
        <time>1982-03-26T10:12:05Z</time>
      </trkpt>
      <trkpt lat="43.95909" lon="7.37715">
        <ele>1674.3</ele>
        <time>1982-03-26T10:12:06Z</time>
      </trkpt>
      <trkpt lat="43.95904" lon="7.37716">
        <ele>1673.7</ele>
        <time>1982-03-26T10:12:07Z</time>
      </trkpt>
      <trkpt lat="43.95897" lon="7.37716">
        <ele>1672.3</ele>
        <time>1982-03-26T10:12:08Z</time>
      </trkpt>
      <trkpt lat="43.95888" lon="7.37717">
        <ele>1670</ele>
        <time>1982-03-26T10:12:09Z</time>
      </trkpt>
      <trkpt lat="43.95883" lon="7.37715">
        <ele>1670.1</ele>
        <time>1982-03-26T10:12:10Z</time>
      </trkpt>
      <trkpt lat="43.95877" lon="7.37713">
        <ele>1670.4</ele>
        <time>1982-03-26T10:12:11Z</time>
      </trkpt>
      <trkpt lat="43.95872" lon="7.37711">
        <ele>1670.7</ele>
        <time>1982-03-26T10:12:12Z</time>
      </trkpt>
      <trkpt lat="43.95865" lon="7.37712">
        <ele>1672.2</ele>
        <time>1982-03-26T10:12:13Z</time>
      </trkpt>
      <trkpt lat="43.95861" lon="7.37713">
        <ele>1671.9</ele>
        <time>1982-03-26T10:12:14Z</time>
      </trkpt>
      <trkpt lat="43.95858" lon="7.37713">
        <ele>1673</ele>
        <time>1982-03-26T10:12:15Z</time>
      </trkpt>
      <trkpt lat="43.95853" lon="7.37716">
        <ele>1672</ele>
        <time>1982-03-26T10:12:16Z</time>
      </trkpt>
      <trkpt lat="43.95846" lon="7.37716">
        <ele>1671.5</ele>
        <time>1982-03-26T10:12:17Z</time>
      </trkpt>
      <trkpt lat="43.95842" lon="7.37715">
        <ele>1670.7</ele>
        <time>1982-03-26T10:12:18Z</time>
      </trkpt>
      <trkpt lat="43.95835" lon="7.37712">
        <ele>1671.8</ele>
        <time>1982-03-26T10:12:19Z</time>
      </trkpt>
      <trkpt lat="43.95833" lon="7.3771">
        <ele>1671.1</ele>
        <time>1982-03-26T10:12:20Z</time>
      </trkpt>
      <trkpt lat="43.95831" lon="7.37709">
        <ele>1669.8</ele>
        <time>1982-03-26T10:12:21Z</time>
      </trkpt>
      <trkpt lat="43.95828" lon="7.37708">
        <ele>1669.5</ele>
        <time>1982-03-26T10:12:22Z</time>
      </trkpt>
      <trkpt lat="43.95825" lon="7.37708">
        <ele>1669.5</ele>
        <time>1982-03-26T10:12:23Z</time>
      </trkpt>
      <trkpt lat="43.95822" lon="7.37707">
        <ele>1669.7</ele>
        <time>1982-03-26T10:12:24Z</time>
      </trkpt>
      <trkpt lat="43.9582" lon="7.37706">
        <ele>1670.1</ele>
        <time>1982-03-26T10:12:25Z</time>
      </trkpt>
      <trkpt lat="43.95822" lon="7.37705">
        <ele>1669.5</ele>
        <time>1982-03-26T10:12:26Z</time>
      </trkpt>
      <trkpt lat="43.95821" lon="7.37702">
        <ele>1670.3</ele>
        <time>1982-03-26T10:12:27Z</time>
      </trkpt>
      <trkpt lat="43.95821" lon="7.37701">
        <ele>1670.8</ele>
        <time>1982-03-26T10:12:28Z</time>
      </trkpt>
      <trkpt lat="43.95819" lon="7.37701">
        <ele>1671.1</ele>
        <time>1982-03-26T10:12:29Z</time>
      </trkpt>
      <trkpt lat="43.95819" lon="7.37701">
        <ele>1669.9</ele>
        <time>1982-03-26T10:12:30Z</time>
      </trkpt>
      <trkpt lat="43.9582" lon="7.37703">
        <ele>1670.1</ele>
        <time>1982-03-26T10:12:31Z</time>
      </trkpt>
      <trkpt lat="43.9582" lon="7.37704">
        <ele>1670.5</ele>
        <time>1982-03-26T10:12:32Z</time>
      </trkpt>
      <trkpt lat="43.95818" lon="7.37707">
        <ele>1669.2</ele>
        <time>1982-03-26T10:12:34Z</time>
      </trkpt>
      <trkpt lat="43.95817" lon="7.37707">
        <ele>1668.7</ele>
        <time>1982-03-26T10:12:37Z</time>
      </trkpt>
      <trkpt lat="43.95817" lon="7.37707">
        <ele>1668.3</ele>
        <time>1982-03-26T10:12:37Z</time>
      </trkpt>
      <trkpt lat="43.95817" lon="7.37707">
        <ele>1668.3</ele>
        <time>1982-03-26T10:12:40Z</time>
      </trkpt>
      <trkpt lat="43.95817" lon="7.37706">
        <ele>1667.6</ele>
        <time>1982-03-26T10:12:41Z</time>
      </trkpt>
      <trkpt lat="43.95817" lon="7.37706">
        <ele>1667.6</ele>
        <time>1982-03-26T10:12:47Z</time>
      </trkpt>
      <trkpt lat="43.95816" lon="7.37708">
        <ele>1666.9</ele>
        <time>1982-03-26T10:12:49Z</time>
      </trkpt>
      <trkpt lat="43.95814" lon="7.37708">
        <ele>1666.9</ele>
        <time>1982-03-26T10:12:50Z</time>
      </trkpt>
      <trkpt lat="43.95812" lon="7.37709">
        <ele>1667.6</ele>
        <time>1982-03-26T10:12:51Z</time>
      </trkpt>
      <trkpt lat="43.9581" lon="7.3771">
        <ele>1667.6</ele>
        <time>1982-03-26T10:12:52Z</time>
      </trkpt>
      <trkpt lat="43.95808" lon="7.37712">
        <ele>1668.3</ele>
        <time>1982-03-26T10:12:53Z</time>
      </trkpt>
      <trkpt lat="43.95807" lon="7.37714">
        <ele>1668.1</ele>
        <time>1982-03-26T10:12:54Z</time>
      </trkpt>
      <trkpt lat="43.95804" lon="7.37719">
        <ele>1667.1</ele>
        <time>1982-03-26T10:12:55Z</time>
      </trkpt>
      <trkpt lat="43.95808" lon="7.37721">
        <ele>1667.6</ele>
        <time>1982-03-26T10:12:56Z</time>
      </trkpt>
      <trkpt lat="43.95807" lon="7.37722">
        <ele>1667.3</ele>
        <time>1982-03-26T10:12:57Z</time>
      </trkpt>
      <trkpt lat="43.95805" lon="7.37722">
        <ele>1668.3</ele>
        <time>1982-03-26T10:12:58Z</time>
      </trkpt>
      <trkpt lat="43.95804" lon="7.37723">
        <ele>1668.4</ele>
        <time>1982-03-26T10:12:59Z</time>
      </trkpt>
      <trkpt lat="43.95804" lon="7.37723">
        <ele>1671</ele>
        <time>1982-03-26T10:13:01Z</time>
      </trkpt>
      <trkpt lat="43.95804" lon="7.37723">
        <ele>1671.1</ele>
        <time>1982-03-26T10:13:02Z</time>
      </trkpt>
      <trkpt lat="43.95804" lon="7.37723">
        <ele>1671.1</ele>
        <time>1982-03-26T10:13:04Z</time>
      </trkpt>
      <trkpt lat="43.95804" lon="7.37725">
        <ele>1671</ele>
        <time>1982-03-26T10:13:06Z</time>
      </trkpt>
      <trkpt lat="43.95804" lon="7.37726">
        <ele>1670.8</ele>
        <time>1982-03-26T10:13:07Z</time>
      </trkpt>
      <trkpt lat="43.95804" lon="7.37726">
        <ele>1670.8</ele>
        <time>1982-03-26T10:13:10Z</time>
      </trkpt>
      <trkpt lat="43.95804" lon="7.37726">
        <ele>1670.8</ele>
        <time>1982-03-26T10:13:12Z</time>
      </trkpt>
      <trkpt lat="43.95804" lon="7.37726">
        <ele>1670.8</ele>
        <time>1982-03-26T10:13:18Z</time>
      </trkpt>
      <trkpt lat="43.95801" lon="7.37733">
        <ele>1668.3</ele>
        <time>1982-03-26T10:13:20Z</time>
      </trkpt>
      <trkpt lat="43.95801" lon="7.37732">
        <ele>1668.5</ele>
        <time>1982-03-26T10:13:21Z</time>
      </trkpt>
      <trkpt lat="43.95802" lon="7.37729">
        <ele>1668.5</ele>
        <time>1982-03-26T10:13:23Z</time>
      </trkpt>
      <trkpt lat="43.95803" lon="7.37725">
        <ele>1668.8</ele>
        <time>1982-03-26T10:13:24Z</time>
      </trkpt>
      <trkpt lat="43.95809" lon="7.37727">
        <ele>1665.1</ele>
        <time>1982-03-26T10:13:25Z</time>
      </trkpt>
      <trkpt lat="43.95811" lon="7.37725">
        <ele>1664.6</ele>
        <time>1982-03-26T10:13:26Z</time>
      </trkpt>
      <trkpt lat="43.95813" lon="7.37723">
        <ele>1664.3</ele>
        <time>1982-03-26T10:13:27Z</time>
      </trkpt>
      <trkpt lat="43.95816" lon="7.37722">
        <ele>1664.4</ele>
        <time>1982-03-26T10:13:28Z</time>
      </trkpt>
      <trkpt lat="43.95818" lon="7.37719">
        <ele>1664.2</ele>
        <time>1982-03-26T10:13:29Z</time>
      </trkpt>
      <trkpt lat="43.95819" lon="7.37715">
        <ele>1664.5</ele>
        <time>1982-03-26T10:13:30Z</time>
      </trkpt>
      <trkpt lat="43.95822" lon="7.37713">
        <ele>1665</ele>
        <time>1982-03-26T10:13:31Z</time>
      </trkpt>
      <trkpt lat="43.95825" lon="7.37712">
        <ele>1665.1</ele>
        <time>1982-03-26T10:13:32Z</time>
      </trkpt>
      <trkpt lat="43.95828" lon="7.37711">
        <ele>1665.2</ele>
        <time>1982-03-26T10:13:33Z</time>
      </trkpt>
      <trkpt lat="43.95829" lon="7.37709">
        <ele>1664.6</ele>
        <time>1982-03-26T10:13:34Z</time>
      </trkpt>
      <trkpt lat="43.95828" lon="7.37709">
        <ele>1665.2</ele>
        <time>1982-03-26T10:13:35Z</time>
      </trkpt>
      <trkpt lat="43.95827" lon="7.37709">
        <ele>1664.1</ele>
        <time>1982-03-26T10:13:36Z</time>
      </trkpt>
      <trkpt lat="43.95826" lon="7.37709">
        <ele>1664.5</ele>
        <time>1982-03-26T10:13:37Z</time>
      </trkpt>
      <trkpt lat="43.95826" lon="7.37709">
        <ele>1664.5</ele>
        <time>1982-03-26T10:13:38Z</time>
      </trkpt>
      <trkpt lat="43.95826" lon="7.37708">
        <ele>1665.7</ele>
        <time>1982-03-26T10:13:40Z</time>
      </trkpt>
      <trkpt lat="43.95826" lon="7.37707">
        <ele>1665.4</ele>
        <time>1982-03-26T10:13:41Z</time>
      </trkpt>
      <trkpt lat="43.95826" lon="7.37707">
        <ele>1665.4</ele>
        <time>1982-03-26T10:14:08Z</time>
      </trkpt>
      <trkpt lat="43.95824" lon="7.37706">
        <ele>1664.3</ele>
        <time>1982-03-26T10:14:10Z</time>
      </trkpt>
      <trkpt lat="43.95822" lon="7.37706">
        <ele>1663.9</ele>
        <time>1982-03-26T10:14:11Z</time>
      </trkpt>
      <trkpt lat="43.95821" lon="7.37706">
        <ele>1663.4</ele>
        <time>1982-03-26T10:14:12Z</time>
      </trkpt>
      <trkpt lat="43.95821" lon="7.37709">
        <ele>1662.7</ele>
        <time>1982-03-26T10:14:13Z</time>
      </trkpt>
      <trkpt lat="43.95821" lon="7.3771">
        <ele>1662.3</ele>
        <time>1982-03-26T10:14:14Z</time>
      </trkpt>
      <trkpt lat="43.95817" lon="7.37713">
        <ele>1663.6</ele>
        <time>1982-03-26T10:14:16Z</time>
      </trkpt>
      <trkpt lat="43.95815" lon="7.37713">
        <ele>1663</ele>
        <time>1982-03-26T10:14:17Z</time>
      </trkpt>
      <trkpt lat="43.95814" lon="7.37715">
        <ele>1662.9</ele>
        <time>1982-03-26T10:14:18Z</time>
      </trkpt>
      <trkpt lat="43.95814" lon="7.37715">
        <ele>1663</ele>
        <time>1982-03-26T10:14:19Z</time>
      </trkpt>
      <trkpt lat="43.95813" lon="7.37723">
        <ele>1663.5</ele>
        <time>1982-03-26T10:14:21Z</time>
      </trkpt>
      <trkpt lat="43.95812" lon="7.37727">
        <ele>1663.9</ele>
        <time>1982-03-26T10:14:22Z</time>
      </trkpt>
      <trkpt lat="43.95811" lon="7.3773">
        <ele>1663.8</ele>
        <time>1982-03-26T10:14:23Z</time>
      </trkpt>
      <trkpt lat="43.9581" lon="7.37732">
        <ele>1664.3</ele>
        <time>1982-03-26T10:14:24Z</time>
      </trkpt>
      <trkpt lat="43.95809" lon="7.37734">
        <ele>1664.2</ele>
        <time>1982-03-26T10:14:25Z</time>
      </trkpt>
      <trkpt lat="43.95805" lon="7.37741">
        <ele>1663.3</ele>
        <time>1982-03-26T10:14:26Z</time>
      </trkpt>
      <trkpt lat="43.95799" lon="7.37744">
        <ele>1658.1</ele>
        <time>1982-03-26T10:14:27Z</time>
      </trkpt>
      <trkpt lat="43.95795" lon="7.37748">
        <ele>1656.4</ele>
        <time>1982-03-26T10:14:28Z</time>
      </trkpt>
      <trkpt lat="43.95794" lon="7.37754">
        <ele>1656.2</ele>
        <time>1982-03-26T10:14:29Z</time>
      </trkpt>
      <trkpt lat="43.95791" lon="7.37759">
        <ele>1656</ele>
        <time>1982-03-26T10:14:30Z</time>
      </trkpt>
      <trkpt lat="43.9579" lon="7.37762">
        <ele>1655.4</ele>
        <time>1982-03-26T10:14:31Z</time>
      </trkpt>
      <trkpt lat="43.95788" lon="7.37765">
        <ele>1655.3</ele>
        <time>1982-03-26T10:14:32Z</time>
      </trkpt>
      <trkpt lat="43.95786" lon="7.37768">
        <ele>1654.7</ele>
        <time>1982-03-26T10:14:33Z</time>
      </trkpt>
      <trkpt lat="43.95786" lon="7.37771">
        <ele>1654.8</ele>
        <time>1982-03-26T10:14:34Z</time>
      </trkpt>
      <trkpt lat="43.95786" lon="7.37772">
        <ele>1654.8</ele>
        <time>1982-03-26T10:14:35Z</time>
      </trkpt>
      <trkpt lat="43.95786" lon="7.37772">
        <ele>1654.8</ele>
        <time>1982-03-26T10:14:38Z</time>
      </trkpt>
      <trkpt lat="43.95786" lon="7.37773">
        <ele>1655.5</ele>
        <time>1982-03-26T10:14:40Z</time>
      </trkpt>
      <trkpt lat="43.95786" lon="7.37773">
        <ele>1655.5</ele>
        <time>1982-03-26T10:14:44Z</time>
      </trkpt>
      <trkpt lat="43.95787" lon="7.37773">
        <ele>1656.2</ele>
        <time>1982-03-26T10:14:46Z</time>
      </trkpt>
      <trkpt lat="43.95787" lon="7.37773">
        <ele>1656.7</ele>
        <time>1982-03-26T10:14:47Z</time>
      </trkpt>
      <trkpt lat="43.95787" lon="7.37773">
        <ele>1656.7</ele>
        <time>1982-03-26T10:16:22Z</time>
      </trkpt>
      <trkpt lat="43.95787" lon="7.37773">
        <ele>1657.4</ele>
        <time>1982-03-26T10:16:24Z</time>
      </trkpt>
      <trkpt lat="43.95787" lon="7.37773">
        <ele>1657.4</ele>
        <time>1982-03-26T10:17:12Z</time>
      </trkpt>
      <trkpt lat="43.95789" lon="7.37774">
        <ele>1657.2</ele>
        <time>1982-03-26T10:17:14Z</time>
      </trkpt>
      <trkpt lat="43.95789" lon="7.37772">
        <ele>1657.8</ele>
        <time>1982-03-26T10:17:15Z</time>
      </trkpt>
      <trkpt lat="43.95788" lon="7.37771">
        <ele>1658.2</ele>
        <time>1982-03-26T10:17:16Z</time>
      </trkpt>
      <trkpt lat="43.95788" lon="7.3777">
        <ele>1658.1</ele>
        <time>1982-03-26T10:17:17Z</time>
      </trkpt>
      <trkpt lat="43.95788" lon="7.3777">
        <ele>1658.1</ele>
        <time>1982-03-26T10:17:17Z</time>
      </trkpt>
      <trkpt lat="43.95786" lon="7.37769">
        <ele>1656.9</ele>
        <time>1982-03-26T10:17:19Z</time>
      </trkpt>
      <trkpt lat="43.95787" lon="7.37768">
        <ele>1656.3</ele>
        <time>1982-03-26T10:17:20Z</time>
      </trkpt>
      <trkpt lat="43.95787" lon="7.37767">
        <ele>1656.4</ele>
        <time>1982-03-26T10:17:22Z</time>
      </trkpt>
      <trkpt lat="43.95786" lon="7.37767">
        <ele>1657.3</ele>
        <time>1982-03-26T10:17:23Z</time>
      </trkpt>
      <trkpt lat="43.95786" lon="7.37766">
        <ele>1657.5</ele>
        <time>1982-03-26T10:17:25Z</time>
      </trkpt>
      <trkpt lat="43.95786" lon="7.37766">
        <ele>1657.5</ele>
        <time>1982-03-26T10:17:25Z</time>
      </trkpt>
      <trkpt lat="43.95786" lon="7.37765">
        <ele>1657.4</ele>
        <time>1982-03-26T10:17:28Z</time>
      </trkpt>
      <trkpt lat="43.95786" lon="7.37762">
        <ele>1657</ele>
        <time>1982-03-26T10:17:30Z</time>
      </trkpt>
      <trkpt lat="43.95786" lon="7.37758">
        <ele>1656.2</ele>
        <time>1982-03-26T10:17:31Z</time>
      </trkpt>
      <trkpt lat="43.95788" lon="7.37753">
        <ele>1654.7</ele>
        <time>1982-03-26T10:17:33Z</time>
      </trkpt>
      <trkpt lat="43.95789" lon="7.37749">
        <ele>1654.8</ele>
        <time>1982-03-26T10:17:34Z</time>
      </trkpt>
      <trkpt lat="43.9579" lon="7.37747">
        <ele>1655.3</ele>
        <time>1982-03-26T10:17:35Z</time>
      </trkpt>
      <trkpt lat="43.95797" lon="7.37744">
        <ele>1653.9</ele>
        <time>1982-03-26T10:17:36Z</time>
      </trkpt>
      <trkpt lat="43.958" lon="7.37741">
        <ele>1653.7</ele>
        <time>1982-03-26T10:17:37Z</time>
      </trkpt>
      <trkpt lat="43.95803" lon="7.37739">
        <ele>1653.2</ele>
        <time>1982-03-26T10:17:38Z</time>
      </trkpt>
      <trkpt lat="43.95806" lon="7.37735">
        <ele>1653.4</ele>
        <time>1982-03-26T10:17:39Z</time>
      </trkpt>
      <trkpt lat="43.95809" lon="7.37733">
        <ele>1654.1</ele>
        <time>1982-03-26T10:17:40Z</time>
      </trkpt>
      <trkpt lat="43.9581" lon="7.37731">
        <ele>1654.8</ele>
        <time>1982-03-26T10:17:41Z</time>
      </trkpt>
      <trkpt lat="43.95812" lon="7.3773">
        <ele>1654.6</ele>
        <time>1982-03-26T10:17:42Z</time>
      </trkpt>
      <trkpt lat="43.95808" lon="7.37729">
        <ele>1657.2</ele>
        <time>1982-03-26T10:17:43Z</time>
      </trkpt>
      <trkpt lat="43.95797" lon="7.37731">
        <ele>1660.2</ele>
        <time>1982-03-26T10:17:44Z</time>
      </trkpt>
      <trkpt lat="43.95792" lon="7.3773">
        <ele>1659.7</ele>
        <time>1982-03-26T10:17:45Z</time>
      </trkpt>
      <trkpt lat="43.95789" lon="7.37728">
        <ele>1658.9</ele>
        <time>1982-03-26T10:17:46Z</time>
      </trkpt>
      <trkpt lat="43.95784" lon="7.37726">
        <ele>1658.3</ele>
        <time>1982-03-26T10:17:47Z</time>
      </trkpt>
      <trkpt lat="43.95778" lon="7.37722">
        <ele>1657.8</ele>
        <time>1982-03-26T10:17:48Z</time>
      </trkpt>
      <trkpt lat="43.95773" lon="7.3772">
        <ele>1658.1</ele>
        <time>1982-03-26T10:17:49Z</time>
      </trkpt>
      <trkpt lat="43.9577" lon="7.37718">
        <ele>1658.5</ele>
        <time>1982-03-26T10:17:50Z</time>
      </trkpt>
      <trkpt lat="43.95768" lon="7.37714">
        <ele>1658.5</ele>
        <time>1982-03-26T10:17:51Z</time>
      </trkpt>
      <trkpt lat="43.95764" lon="7.37712">
        <ele>1658.9</ele>
        <time>1982-03-26T10:17:52Z</time>
      </trkpt>
      <trkpt lat="43.95764" lon="7.37713">
        <ele>1663.2</ele>
        <time>1982-03-26T10:17:53Z</time>
      </trkpt>
      <trkpt lat="43.95763" lon="7.37711">
        <ele>1665.3</ele>
        <time>1982-03-26T10:17:54Z</time>
      </trkpt>
      <trkpt lat="43.95757" lon="7.37709">
        <ele>1664.9</ele>
        <time>1982-03-26T10:17:55Z</time>
      </trkpt>
      <trkpt lat="43.95754" lon="7.37708">
        <ele>1665.4</ele>
        <time>1982-03-26T10:17:56Z</time>
      </trkpt>
      <trkpt lat="43.95751" lon="7.37705">
        <ele>1665.1</ele>
        <time>1982-03-26T10:17:57Z</time>
      </trkpt>
      <trkpt lat="43.95748" lon="7.37704">
        <ele>1664.8</ele>
        <time>1982-03-26T10:17:58Z</time>
      </trkpt>
      <trkpt lat="43.95747" lon="7.37702">
        <ele>1665.2</ele>
        <time>1982-03-26T10:17:59Z</time>
      </trkpt>
      <trkpt lat="43.95746" lon="7.37699">
        <ele>1665.1</ele>
        <time>1982-03-26T10:18:00Z</time>
      </trkpt>
      <trkpt lat="43.95744" lon="7.37697">
        <ele>1665.4</ele>
        <time>1982-03-26T10:18:01Z</time>
      </trkpt>
      <trkpt lat="43.95742" lon="7.37694">
        <ele>1663.5</ele>
        <time>1982-03-26T10:18:02Z</time>
      </trkpt>
      <trkpt lat="43.9574" lon="7.37691">
        <ele>1662.8</ele>
        <time>1982-03-26T10:18:03Z</time>
      </trkpt>
      <trkpt lat="43.95738" lon="7.37689">
        <ele>1662.4</ele>
        <time>1982-03-26T10:18:04Z</time>
      </trkpt>
      <trkpt lat="43.95735" lon="7.37689">
        <ele>1661.8</ele>
        <time>1982-03-26T10:18:05Z</time>
      </trkpt>
      <trkpt lat="43.95733" lon="7.37688">
        <ele>1660.8</ele>
        <time>1982-03-26T10:18:06Z</time>
      </trkpt>
      <trkpt lat="43.9573" lon="7.37687">
        <ele>1660.7</ele>
        <time>1982-03-26T10:18:07Z</time>
      </trkpt>
      <trkpt lat="43.95727" lon="7.37686">
        <ele>1660.5</ele>
        <time>1982-03-26T10:18:08Z</time>
      </trkpt>
      <trkpt lat="43.95725" lon="7.37685">
        <ele>1660.5</ele>
        <time>1982-03-26T10:18:09Z</time>
      </trkpt>
      <trkpt lat="43.95722" lon="7.37686">
        <ele>1657.2</ele>
        <time>1982-03-26T10:18:10Z</time>
      </trkpt>
      <trkpt lat="43.9572" lon="7.37685">
        <ele>1655.8</ele>
        <time>1982-03-26T10:18:11Z</time>
      </trkpt>
      <trkpt lat="43.95717" lon="7.37684">
        <ele>1655.7</ele>
        <time>1982-03-26T10:18:12Z</time>
      </trkpt>
      <trkpt lat="43.95714" lon="7.37683">
        <ele>1655.6</ele>
        <time>1982-03-26T10:18:13Z</time>
      </trkpt>
      <trkpt lat="43.95711" lon="7.37683">
        <ele>1655.9</ele>
        <time>1982-03-26T10:18:14Z</time>
      </trkpt>
      <trkpt lat="43.95704" lon="7.37683">
        <ele>1654.7</ele>
        <time>1982-03-26T10:18:15Z</time>
      </trkpt>
      <trkpt lat="43.95701" lon="7.37681">
        <ele>1654</ele>
        <time>1982-03-26T10:18:16Z</time>
      </trkpt>
      <trkpt lat="43.95697" lon="7.3768">
        <ele>1655.1</ele>
        <time>1982-03-26T10:18:17Z</time>
      </trkpt>
      <trkpt lat="43.95693" lon="7.3768">
        <ele>1656.7</ele>
        <time>1982-03-26T10:18:18Z</time>
      </trkpt>
      <trkpt lat="43.95689" lon="7.3768">
        <ele>1657.2</ele>
        <time>1982-03-26T10:18:19Z</time>
      </trkpt>
      <trkpt lat="43.95685" lon="7.37681">
        <ele>1658.2</ele>
        <time>1982-03-26T10:18:20Z</time>
      </trkpt>
      <trkpt lat="43.95681" lon="7.37681">
        <ele>1659.1</ele>
        <time>1982-03-26T10:18:21Z</time>
      </trkpt>
      <trkpt lat="43.95678" lon="7.37679">
        <ele>1656</ele>
        <time>1982-03-26T10:18:22Z</time>
      </trkpt>
      <trkpt lat="43.95673" lon="7.37679">
        <ele>1655.3</ele>
        <time>1982-03-26T10:18:23Z</time>
      </trkpt>
      <trkpt lat="43.9567" lon="7.37678">
        <ele>1654.2</ele>
        <time>1982-03-26T10:18:24Z</time>
      </trkpt>
      <trkpt lat="43.95667" lon="7.37678">
        <ele>1654.5</ele>
        <time>1982-03-26T10:18:25Z</time>
      </trkpt>
      <trkpt lat="43.95665" lon="7.37679">
        <ele>1655.2</ele>
        <time>1982-03-26T10:18:26Z</time>
      </trkpt>
      <trkpt lat="43.9566" lon="7.37681">
        <ele>1651.7</ele>
        <time>1982-03-26T10:18:27Z</time>
      </trkpt>
      <trkpt lat="43.95657" lon="7.37681">
        <ele>1652.5</ele>
        <time>1982-03-26T10:18:28Z</time>
      </trkpt>
      <trkpt lat="43.95654" lon="7.37681">
        <ele>1653.6</ele>
        <time>1982-03-26T10:18:29Z</time>
      </trkpt>
      <trkpt lat="43.95651" lon="7.37682">
        <ele>1653.7</ele>
        <time>1982-03-26T10:18:30Z</time>
      </trkpt>
      <trkpt lat="43.95648" lon="7.37683">
        <ele>1654.6</ele>
        <time>1982-03-26T10:18:31Z</time>
      </trkpt>
      <trkpt lat="43.95645" lon="7.37684">
        <ele>1655.4</ele>
        <time>1982-03-26T10:18:32Z</time>
      </trkpt>
      <trkpt lat="43.95645" lon="7.37686">
        <ele>1654.6</ele>
        <time>1982-03-26T10:18:33Z</time>
      </trkpt>
      <trkpt lat="43.95643" lon="7.37687">
        <ele>1654.9</ele>
        <time>1982-03-26T10:18:34Z</time>
      </trkpt>
      <trkpt lat="43.95642" lon="7.37689">
        <ele>1656.7</ele>
        <time>1982-03-26T10:18:35Z</time>
      </trkpt>
      <trkpt lat="43.95641" lon="7.3769">
        <ele>1657.6</ele>
        <time>1982-03-26T10:18:36Z</time>
      </trkpt>
      <trkpt lat="43.95636" lon="7.37688">
        <ele>1654.3</ele>
        <time>1982-03-26T10:18:37Z</time>
      </trkpt>
      <trkpt lat="43.95632" lon="7.37689">
        <ele>1652</ele>
        <time>1982-03-26T10:18:39Z</time>
      </trkpt>
      <trkpt lat="43.9563" lon="7.3769">
        <ele>1651.2</ele>
        <time>1982-03-26T10:18:40Z</time>
      </trkpt>
      <trkpt lat="43.95625" lon="7.37691">
        <ele>1650.4</ele>
        <time>1982-03-26T10:18:42Z</time>
      </trkpt>
      <trkpt lat="43.95619" lon="7.37698">
        <ele>1651.3</ele>
        <time>1982-03-26T10:18:43Z</time>
      </trkpt>
      <trkpt lat="43.95616" lon="7.377">
        <ele>1651.3</ele>
        <time>1982-03-26T10:18:45Z</time>
      </trkpt>
      <trkpt lat="43.95612" lon="7.37702">
        <ele>1654</ele>
        <time>1982-03-26T10:18:47Z</time>
      </trkpt>
      <trkpt lat="43.9561" lon="7.37703">
        <ele>1654.9</ele>
        <time>1982-03-26T10:18:47Z</time>
      </trkpt>
      <trkpt lat="43.95606" lon="7.37704">
        <ele>1654.2</ele>
        <time>1982-03-26T10:18:49Z</time>
      </trkpt>
      <trkpt lat="43.95602" lon="7.37704">
        <ele>1652</ele>
        <time>1982-03-26T10:18:49Z</time>
      </trkpt>
      <trkpt lat="43.95599" lon="7.37705">
        <ele>1652.1</ele>
        <time>1982-03-26T10:18:50Z</time>
      </trkpt>
      <trkpt lat="43.95596" lon="7.37705">
        <ele>1651.5</ele>
        <time>1982-03-26T10:18:51Z</time>
      </trkpt>
      <trkpt lat="43.95594" lon="7.37706">
        <ele>1651.7</ele>
        <time>1982-03-26T10:18:52Z</time>
      </trkpt>
      <trkpt lat="43.95591" lon="7.37708">
        <ele>1651.3</ele>
        <time>1982-03-26T10:18:53Z</time>
      </trkpt>
      <trkpt lat="43.95588" lon="7.3771">
        <ele>1651.5</ele>
        <time>1982-03-26T10:18:54Z</time>
      </trkpt>
      <trkpt lat="43.95586" lon="7.37712">
        <ele>1652.1</ele>
        <time>1982-03-26T10:18:55Z</time>
      </trkpt>
      <trkpt lat="43.9558" lon="7.37719">
        <ele>1651.8</ele>
        <time>1982-03-26T10:18:56Z</time>
      </trkpt>
      <trkpt lat="43.95576" lon="7.37721">
        <ele>1651.4</ele>
        <time>1982-03-26T10:18:57Z</time>
      </trkpt>
      <trkpt lat="43.95573" lon="7.37723">
        <ele>1651.5</ele>
        <time>1982-03-26T10:18:58Z</time>
      </trkpt>
      <trkpt lat="43.9557" lon="7.37726">
        <ele>1651.9</ele>
        <time>1982-03-26T10:18:59Z</time>
      </trkpt>
      <trkpt lat="43.95564" lon="7.37728">
        <ele>1653</ele>
        <time>1982-03-26T10:19:00Z</time>
      </trkpt>
      <trkpt lat="43.95561" lon="7.3773">
        <ele>1651.7</ele>
        <time>1982-03-26T10:19:01Z</time>
      </trkpt>
      <trkpt lat="43.95558" lon="7.37731">
        <ele>1651</ele>
        <time>1982-03-26T10:19:02Z</time>
      </trkpt>
      <trkpt lat="43.95555" lon="7.37733">
        <ele>1649.2</ele>
        <time>1982-03-26T10:19:03Z</time>
      </trkpt>
      <trkpt lat="43.95551" lon="7.37736">
        <ele>1648.9</ele>
        <time>1982-03-26T10:19:04Z</time>
      </trkpt>
      <trkpt lat="43.95548" lon="7.37738">
        <ele>1649</ele>
        <time>1982-03-26T10:19:05Z</time>
      </trkpt>
      <trkpt lat="43.95545" lon="7.37739">
        <ele>1650.3</ele>
        <time>1982-03-26T10:19:06Z</time>
      </trkpt>
      <trkpt lat="43.95543" lon="7.37741">
        <ele>1650.3</ele>
        <time>1982-03-26T10:19:07Z</time>
      </trkpt>
      <trkpt lat="43.9554" lon="7.37746">
        <ele>1648.5</ele>
        <time>1982-03-26T10:19:09Z</time>
      </trkpt>
      <trkpt lat="43.95536" lon="7.37751">
        <ele>1649.3</ele>
        <time>1982-03-26T10:19:09Z</time>
      </trkpt>
      <trkpt lat="43.95532" lon="7.37755">
        <ele>1650.7</ele>
        <time>1982-03-26T10:19:10Z</time>
      </trkpt>
      <trkpt lat="43.95532" lon="7.37759">
        <ele>1652.4</ele>
        <time>1982-03-26T10:19:11Z</time>
      </trkpt>
      <trkpt lat="43.95531" lon="7.37761">
        <ele>1653.8</ele>
        <time>1982-03-26T10:19:12Z</time>
      </trkpt>
      <trkpt lat="43.95529" lon="7.37766">
        <ele>1655.3</ele>
        <time>1982-03-26T10:19:13Z</time>
      </trkpt>
      <trkpt lat="43.95526" lon="7.37772">
        <ele>1654.8</ele>
        <time>1982-03-26T10:19:14Z</time>
      </trkpt>
      <trkpt lat="43.95524" lon="7.37778">
        <ele>1655.3</ele>
        <time>1982-03-26T10:19:15Z</time>
      </trkpt>
      <trkpt lat="43.9552" lon="7.37786">
        <ele>1654.7</ele>
        <time>1982-03-26T10:19:16Z</time>
      </trkpt>
      <trkpt lat="43.95517" lon="7.37794">
        <ele>1654.7</ele>
        <time>1982-03-26T10:19:18Z</time>
      </trkpt>
      <trkpt lat="43.95513" lon="7.37801">
        <ele>1655.3</ele>
        <time>1982-03-26T10:19:18Z</time>
      </trkpt>
      <trkpt lat="43.9551" lon="7.37807">
        <ele>1655.8</ele>
        <time>1982-03-26T10:19:19Z</time>
      </trkpt>
      <trkpt lat="43.95505" lon="7.37813">
        <ele>1654.9</ele>
        <time>1982-03-26T10:19:20Z</time>
      </trkpt>
      <trkpt lat="43.95504" lon="7.3782">
        <ele>1656.1</ele>
        <time>1982-03-26T10:19:21Z</time>
      </trkpt>
      <trkpt lat="43.95502" lon="7.37825">
        <ele>1657.6</ele>
        <time>1982-03-26T10:19:22Z</time>
      </trkpt>
      <trkpt lat="43.95501" lon="7.3783">
        <ele>1657.3</ele>
        <time>1982-03-26T10:19:23Z</time>
      </trkpt>
      <trkpt lat="43.95501" lon="7.37835">
        <ele>1660.3</ele>
        <time>1982-03-26T10:19:24Z</time>
      </trkpt>
      <trkpt lat="43.95503" lon="7.37841">
        <ele>1664.2</ele>
        <time>1982-03-26T10:19:25Z</time>
      </trkpt>
      <trkpt lat="43.95501" lon="7.37845">
        <ele>1664.8</ele>
        <time>1982-03-26T10:19:26Z</time>
      </trkpt>
      <trkpt lat="43.95499" lon="7.3785">
        <ele>1665.3</ele>
        <time>1982-03-26T10:19:27Z</time>
      </trkpt>
      <trkpt lat="43.95497" lon="7.37854">
        <ele>1665.5</ele>
        <time>1982-03-26T10:19:28Z</time>
      </trkpt>
      <trkpt lat="43.95495" lon="7.37859">
        <ele>1666</ele>
        <time>1982-03-26T10:19:30Z</time>
      </trkpt>
      <trkpt lat="43.95496" lon="7.3786">
        <ele>1669.9</ele>
        <time>1982-03-26T10:19:30Z</time>
      </trkpt>
      <trkpt lat="43.95495" lon="7.37863">
        <ele>1670.8</ele>
        <time>1982-03-26T10:19:31Z</time>
      </trkpt>
      <trkpt lat="43.95496" lon="7.37864">
        <ele>1671.1</ele>
        <time>1982-03-26T10:19:32Z</time>
      </trkpt>
      <trkpt lat="43.95496" lon="7.37865">
        <ele>1672.3</ele>
        <time>1982-03-26T10:19:34Z</time>
      </trkpt>
      <trkpt lat="43.95496" lon="7.37865">
        <ele>1672.2</ele>
        <time>1982-03-26T10:19:36Z</time>
      </trkpt>
      <trkpt lat="43.95496" lon="7.37867">
        <ele>1674</ele>
        <time>1982-03-26T10:19:39Z</time>
      </trkpt>
      <trkpt lat="43.95495" lon="7.37868">
        <ele>1673.1</ele>
        <time>1982-03-26T10:19:40Z</time>
      </trkpt>
      <trkpt lat="43.95492" lon="7.37869">
        <ele>1674.1</ele>
        <time>1982-03-26T10:19:41Z</time>
      </trkpt>
      <trkpt lat="43.9549" lon="7.3787">
        <ele>1674.7</ele>
        <time>1982-03-26T10:19:42Z</time>
      </trkpt>
      <trkpt lat="43.95489" lon="7.37869">
        <ele>1674.2</ele>
        <time>1982-03-26T10:19:43Z</time>
      </trkpt>
      <trkpt lat="43.95486" lon="7.3787">
        <ele>1674.2</ele>
        <time>1982-03-26T10:19:44Z</time>
      </trkpt>
      <trkpt lat="43.95485" lon="7.3787">
        <ele>1674.3</ele>
        <time>1982-03-26T10:19:45Z</time>
      </trkpt>
      <trkpt lat="43.95484" lon="7.37869">
        <ele>1674.5</ele>
        <time>1982-03-26T10:19:46Z</time>
      </trkpt>
      <trkpt lat="43.95484" lon="7.3787">
        <ele>1675.1</ele>
        <time>1982-03-26T10:19:47Z</time>
      </trkpt>
      <trkpt lat="43.95483" lon="7.3787">
        <ele>1673.2</ele>
        <time>1982-03-26T10:19:49Z</time>
      </trkpt>
      <trkpt lat="43.95482" lon="7.37872">
        <ele>1673.2</ele>
        <time>1982-03-26T10:19:50Z</time>
      </trkpt>
      <trkpt lat="43.95481" lon="7.37872">
        <ele>1672.7</ele>
        <time>1982-03-26T10:19:52Z</time>
      </trkpt>
      <trkpt lat="43.95481" lon="7.37872">
        <ele>1672.7</ele>
        <time>1982-03-26T10:19:52Z</time>
      </trkpt>
      <trkpt lat="43.95482" lon="7.37872">
        <ele>1672.2</ele>
        <time>1982-03-26T10:19:55Z</time>
      </trkpt>
      <trkpt lat="43.95482" lon="7.37872">
        <ele>1672.2</ele>
        <time>1982-03-26T10:19:55Z</time>
      </trkpt>
      <trkpt lat="43.95481" lon="7.37873">
        <ele>1670.8</ele>
        <time>1982-03-26T10:19:57Z</time>
      </trkpt>
      <trkpt lat="43.95481" lon="7.37873">
        <ele>1670.7</ele>
        <time>1982-03-26T10:20:00Z</time>
      </trkpt>
      <trkpt lat="43.95477" lon="7.37876">
        <ele>1668.8</ele>
        <time>1982-03-26T10:20:03Z</time>
      </trkpt>
      <trkpt lat="43.95475" lon="7.37877">
        <ele>1669</ele>
        <time>1982-03-26T10:20:04Z</time>
      </trkpt>
      <trkpt lat="43.95475" lon="7.37879">
        <ele>1668.9</ele>
        <time>1982-03-26T10:20:05Z</time>
      </trkpt>
      <trkpt lat="43.95473" lon="7.37879">
        <ele>1668.3</ele>
        <time>1982-03-26T10:20:06Z</time>
      </trkpt>
      <trkpt lat="43.95472" lon="7.37881">
        <ele>1669.2</ele>
        <time>1982-03-26T10:20:07Z</time>
      </trkpt>
      <trkpt lat="43.9547" lon="7.37882">
        <ele>1669</ele>
        <time>1982-03-26T10:20:08Z</time>
      </trkpt>
      <trkpt lat="43.95469" lon="7.37881">
        <ele>1668.6</ele>
        <time>1982-03-26T10:20:09Z</time>
      </trkpt>
      <trkpt lat="43.95468" lon="7.37881">
        <ele>1667.9</ele>
        <time>1982-03-26T10:20:10Z</time>
      </trkpt>
      <trkpt lat="43.95467" lon="7.37883">
        <ele>1667.6</ele>
        <time>1982-03-26T10:20:11Z</time>
      </trkpt>
      <trkpt lat="43.95466" lon="7.37884">
        <ele>1667.2</ele>
        <time>1982-03-26T10:20:12Z</time>
      </trkpt>
      <trkpt lat="43.95465" lon="7.37883">
        <ele>1666.9</ele>
        <time>1982-03-26T10:20:14Z</time>
      </trkpt>
      <trkpt lat="43.95463" lon="7.37885">
        <ele>1666.9</ele>
        <time>1982-03-26T10:20:17Z</time>
      </trkpt>
      <trkpt lat="43.95461" lon="7.37886">
        <ele>1666.7</ele>
        <time>1982-03-26T10:20:18Z</time>
      </trkpt>
      <trkpt lat="43.9546" lon="7.37888">
        <ele>1666.5</ele>
        <time>1982-03-26T10:20:19Z</time>
      </trkpt>
      <trkpt lat="43.95459" lon="7.3789">
        <ele>1665.6</ele>
        <time>1982-03-26T10:20:20Z</time>
      </trkpt>
      <trkpt lat="43.95457" lon="7.37892">
        <ele>1665.5</ele>
        <time>1982-03-26T10:20:21Z</time>
      </trkpt>
      <trkpt lat="43.95456" lon="7.37893">
        <ele>1664.6</ele>
        <time>1982-03-26T10:20:22Z</time>
      </trkpt>
      <trkpt lat="43.95455" lon="7.37894">
        <ele>1664.8</ele>
        <time>1982-03-26T10:20:23Z</time>
      </trkpt>
      <trkpt lat="43.95454" lon="7.37896">
        <ele>1665</ele>
        <time>1982-03-26T10:20:24Z</time>
      </trkpt>
      <trkpt lat="43.95453" lon="7.37899">
        <ele>1664.9</ele>
        <time>1982-03-26T10:20:25Z</time>
      </trkpt>
      <trkpt lat="43.95452" lon="7.379">
        <ele>1664.2</ele>
        <time>1982-03-26T10:20:26Z</time>
      </trkpt>
      <trkpt lat="43.9545" lon="7.379">
        <ele>1663.8</ele>
        <time>1982-03-26T10:20:27Z</time>
      </trkpt>
      <trkpt lat="43.95449" lon="7.37899">
        <ele>1663.8</ele>
        <time>1982-03-26T10:20:28Z</time>
      </trkpt>
      <trkpt lat="43.95448" lon="7.379">
        <ele>1663.9</ele>
        <time>1982-03-26T10:20:29Z</time>
      </trkpt>
      <trkpt lat="43.95446" lon="7.37901">
        <ele>1663.4</ele>
        <time>1982-03-26T10:20:30Z</time>
      </trkpt>
      <trkpt lat="43.95446" lon="7.37902">
        <ele>1663.4</ele>
        <time>1982-03-26T10:20:31Z</time>
      </trkpt>
      <trkpt lat="43.95446" lon="7.37902">
        <ele>1663.4</ele>
        <time>1982-03-26T10:20:31Z</time>
      </trkpt>
      <trkpt lat="43.95446" lon="7.37903">
        <ele>1664.4</ele>
        <time>1982-03-26T10:20:33Z</time>
      </trkpt>
      <trkpt lat="43.95446" lon="7.37903">
        <ele>1663.7</ele>
        <time>1982-03-26T10:20:34Z</time>
      </trkpt>
      <trkpt lat="43.95446" lon="7.37903">
        <ele>1663.7</ele>
        <time>1982-03-26T10:20:34Z</time>
      </trkpt>
      <trkpt lat="43.95446" lon="7.37904">
        <ele>1663.3</ele>
        <time>1982-03-26T10:20:36Z</time>
      </trkpt>
      <trkpt lat="43.95446" lon="7.37904">
        <ele>1663.3</ele>
        <time>1982-03-26T10:20:40Z</time>
      </trkpt>
      <trkpt lat="43.95445" lon="7.37904">
        <ele>1663.4</ele>
        <time>1982-03-26T10:20:42Z</time>
      </trkpt>
      <trkpt lat="43.95445" lon="7.37905">
        <ele>1663.1</ele>
        <time>1982-03-26T10:20:43Z</time>
      </trkpt>
      <trkpt lat="43.95445" lon="7.37905">
        <ele>1663.1</ele>
        <time>1982-03-26T10:20:47Z</time>
      </trkpt>
      <trkpt lat="43.95445" lon="7.37905">
        <ele>1663.7</ele>
        <time>1982-03-26T10:20:49Z</time>
      </trkpt>
      <trkpt lat="43.95445" lon="7.37905">
        <ele>1663.7</ele>
        <time>1982-03-26T10:20:52Z</time>
      </trkpt>
      <trkpt lat="43.95445" lon="7.37905">
        <ele>1664.2</ele>
        <time>1982-03-26T10:20:54Z</time>
      </trkpt>
      <trkpt lat="43.95445" lon="7.37905">
        <ele>1664.2</ele>
        <time>1982-03-26T10:24:45Z</time>
      </trkpt>
      <trkpt lat="43.95446" lon="7.37903">
        <ele>1663.8</ele>
        <time>1982-03-26T10:24:47Z</time>
      </trkpt>
      <trkpt lat="43.95446" lon="7.37901">
        <ele>1663.6</ele>
        <time>1982-03-26T10:24:48Z</time>
      </trkpt>
      <trkpt lat="43.95447" lon="7.379">
        <ele>1664.1</ele>
        <time>1982-03-26T10:24:50Z</time>
      </trkpt>
      <trkpt lat="43.95447" lon="7.37899">
        <ele>1664.4</ele>
        <time>1982-03-26T10:24:51Z</time>
      </trkpt>
      <trkpt lat="43.95448" lon="7.37898">
        <ele>1663.9</ele>
        <time>1982-03-26T10:24:53Z</time>
      </trkpt>
      <trkpt lat="43.95448" lon="7.37897">
        <ele>1664</ele>
        <time>1982-03-26T10:24:54Z</time>
      </trkpt>
      <trkpt lat="43.95448" lon="7.37897">
        <ele>1664.1</ele>
        <time>1982-03-26T10:24:56Z</time>
      </trkpt>
      <trkpt lat="43.95448" lon="7.37897">
        <ele>1664.1</ele>
        <time>1982-03-26T10:25:02Z</time>
      </trkpt>
      <trkpt lat="43.95449" lon="7.37897">
        <ele>1664.9</ele>
        <time>1982-03-26T10:25:04Z</time>
      </trkpt>
      <trkpt lat="43.95449" lon="7.37897">
        <ele>1665.6</ele>
        <time>1982-03-26T10:25:07Z</time>
      </trkpt>
      <trkpt lat="43.95446" lon="7.37895">
        <ele>1666.1</ele>
        <time>1982-03-26T10:25:11Z</time>
      </trkpt>
      <trkpt lat="43.95445" lon="7.37894">
        <ele>1667</ele>
        <time>1982-03-26T10:25:12Z</time>
      </trkpt>
      <trkpt lat="43.95443" lon="7.37893">
        <ele>1667.6</ele>
        <time>1982-03-26T10:25:13Z</time>
      </trkpt>
      <trkpt lat="43.95443" lon="7.37891">
        <ele>1667.8</ele>
        <time>1982-03-26T10:25:14Z</time>
      </trkpt>
      <trkpt lat="43.95442" lon="7.3789">
        <ele>1668.4</ele>
        <time>1982-03-26T10:25:15Z</time>
      </trkpt>
      <trkpt lat="43.95442" lon="7.37888">
        <ele>1668.7</ele>
        <time>1982-03-26T10:25:16Z</time>
      </trkpt>
      <trkpt lat="43.95442" lon="7.37886">
        <ele>1667.4</ele>
        <time>1982-03-26T10:25:17Z</time>
      </trkpt>
      <trkpt lat="43.9544" lon="7.37884">
        <ele>1667.3</ele>
        <time>1982-03-26T10:25:18Z</time>
      </trkpt>
      <trkpt lat="43.95439" lon="7.37883">
        <ele>1667.1</ele>
        <time>1982-03-26T10:25:19Z</time>
      </trkpt>
      <trkpt lat="43.95438" lon="7.37881">
        <ele>1667</ele>
        <time>1982-03-26T10:25:20Z</time>
      </trkpt>
      <trkpt lat="43.95437" lon="7.3788">
        <ele>1666</ele>
        <time>1982-03-26T10:25:21Z</time>
      </trkpt>
      <trkpt lat="43.95435" lon="7.37879">
        <ele>1665.3</ele>
        <time>1982-03-26T10:25:22Z</time>
      </trkpt>
      <trkpt lat="43.95433" lon="7.37877">
        <ele>1665.1</ele>
        <time>1982-03-26T10:25:23Z</time>
      </trkpt>
      <trkpt lat="43.95431" lon="7.37876">
        <ele>1665.3</ele>
        <time>1982-03-26T10:25:24Z</time>
      </trkpt>
      <trkpt lat="43.95428" lon="7.37871">
        <ele>1665.4</ele>
        <time>1982-03-26T10:25:25Z</time>
      </trkpt>
      <trkpt lat="43.95426" lon="7.37868">
        <ele>1665.6</ele>
        <time>1982-03-26T10:25:26Z</time>
      </trkpt>
      <trkpt lat="43.95423" lon="7.37865">
        <ele>1664.6</ele>
        <time>1982-03-26T10:25:27Z</time>
      </trkpt>
      <trkpt lat="43.95422" lon="7.37862">
        <ele>1663.1</ele>
        <time>1982-03-26T10:25:28Z</time>
      </trkpt>
      <trkpt lat="43.95419" lon="7.37859">
        <ele>1663</ele>
        <time>1982-03-26T10:25:29Z</time>
      </trkpt>
      <trkpt lat="43.95416" lon="7.37856">
        <ele>1662.6</ele>
        <time>1982-03-26T10:25:30Z</time>
      </trkpt>
      <trkpt lat="43.95412" lon="7.37853">
        <ele>1662.1</ele>
        <time>1982-03-26T10:25:31Z</time>
      </trkpt>
      <trkpt lat="43.95408" lon="7.3785">
        <ele>1662.1</ele>
        <time>1982-03-26T10:25:32Z</time>
      </trkpt>
      <trkpt lat="43.95406" lon="7.3785">
        <ele>1662.2</ele>
        <time>1982-03-26T10:25:33Z</time>
      </trkpt>
      <trkpt lat="43.95403" lon="7.37847">
        <ele>1662.1</ele>
        <time>1982-03-26T10:25:34Z</time>
      </trkpt>
      <trkpt lat="43.954" lon="7.37842">
        <ele>1660.9</ele>
        <time>1982-03-26T10:25:35Z</time>
      </trkpt>
      <trkpt lat="43.95397" lon="7.37839">
        <ele>1662.4</ele>
        <time>1982-03-26T10:25:37Z</time>
      </trkpt>
      <trkpt lat="43.95394" lon="7.37833">
        <ele>1662.4</ele>
        <time>1982-03-26T10:25:37Z</time>
      </trkpt>
      <trkpt lat="43.95389" lon="7.37828">
        <ele>1662.3</ele>
        <time>1982-03-26T10:25:38Z</time>
      </trkpt>
      <trkpt lat="43.95384" lon="7.37823">
        <ele>1662.8</ele>
        <time>1982-03-26T10:25:39Z</time>
      </trkpt>
      <trkpt lat="43.9538" lon="7.37819">
        <ele>1663.3</ele>
        <time>1982-03-26T10:25:40Z</time>
      </trkpt>
      <trkpt lat="43.95382" lon="7.37813">
        <ele>1662.6</ele>
        <time>1982-03-26T10:25:41Z</time>
      </trkpt>
      <trkpt lat="43.95382" lon="7.37807">
        <ele>1663</ele>
        <time>1982-03-26T10:25:42Z</time>
      </trkpt>
      <trkpt lat="43.95384" lon="7.37803">
        <ele>1664</ele>
        <time>1982-03-26T10:25:43Z</time>
      </trkpt>
      <trkpt lat="43.95384" lon="7.37799">
        <ele>1664.4</ele>
        <time>1982-03-26T10:25:44Z</time>
      </trkpt>
      <trkpt lat="43.95385" lon="7.37796">
        <ele>1665</ele>
        <time>1982-03-26T10:25:45Z</time>
      </trkpt>
      <trkpt lat="43.95388" lon="7.37794">
        <ele>1664</ele>
        <time>1982-03-26T10:25:46Z</time>
      </trkpt>
      <trkpt lat="43.9539" lon="7.37791">
        <ele>1664.2</ele>
        <time>1982-03-26T10:25:47Z</time>
      </trkpt>
      <trkpt lat="43.95391" lon="7.37788">
        <ele>1663.9</ele>
        <time>1982-03-26T10:25:48Z</time>
      </trkpt>
      <trkpt lat="43.95392" lon="7.37786">
        <ele>1664.2</ele>
        <time>1982-03-26T10:25:49Z</time>
      </trkpt>
      <trkpt lat="43.95392" lon="7.37784">
        <ele>1664.1</ele>
        <time>1982-03-26T10:25:50Z</time>
      </trkpt>
      <trkpt lat="43.95393" lon="7.37781">
        <ele>1663.9</ele>
        <time>1982-03-26T10:25:51Z</time>
      </trkpt>
      <trkpt lat="43.95395" lon="7.37778">
        <ele>1664.4</ele>
        <time>1982-03-26T10:25:52Z</time>
      </trkpt>
      <trkpt lat="43.95396" lon="7.37776">
        <ele>1664.4</ele>
        <time>1982-03-26T10:25:53Z</time>
      </trkpt>
      <trkpt lat="43.95397" lon="7.37773">
        <ele>1664.3</ele>
        <time>1982-03-26T10:25:54Z</time>
      </trkpt>
      <trkpt lat="43.95396" lon="7.3777">
        <ele>1665</ele>
        <time>1982-03-26T10:25:55Z</time>
      </trkpt>
      <trkpt lat="43.95397" lon="7.37767">
        <ele>1665.3</ele>
        <time>1982-03-26T10:25:56Z</time>
      </trkpt>
      <trkpt lat="43.95397" lon="7.37763">
        <ele>1665</ele>
        <time>1982-03-26T10:25:57Z</time>
      </trkpt>
      <trkpt lat="43.95397" lon="7.3776">
        <ele>1664.9</ele>
        <time>1982-03-26T10:25:58Z</time>
      </trkpt>
      <trkpt lat="43.95397" lon="7.37756">
        <ele>1664.6</ele>
        <time>1982-03-26T10:25:59Z</time>
      </trkpt>
      <trkpt lat="43.95394" lon="7.37753">
        <ele>1665.4</ele>
        <time>1982-03-26T10:26:00Z</time>
      </trkpt>
      <trkpt lat="43.95392" lon="7.37749">
        <ele>1665.5</ele>
        <time>1982-03-26T10:26:01Z</time>
      </trkpt>
      <trkpt lat="43.95391" lon="7.37746">
        <ele>1665.2</ele>
        <time>1982-03-26T10:26:02Z</time>
      </trkpt>
      <trkpt lat="43.9539" lon="7.37742">
        <ele>1665.2</ele>
        <time>1982-03-26T10:26:03Z</time>
      </trkpt>
      <trkpt lat="43.95389" lon="7.37739">
        <ele>1665.2</ele>
        <time>1982-03-26T10:26:04Z</time>
      </trkpt>
      <trkpt lat="43.95385" lon="7.37737">
        <ele>1664</ele>
        <time>1982-03-26T10:26:05Z</time>
      </trkpt>
      <trkpt lat="43.95382" lon="7.37734">
        <ele>1664.6</ele>
        <time>1982-03-26T10:26:06Z</time>
      </trkpt>
      <trkpt lat="43.95379" lon="7.37732">
        <ele>1665.3</ele>
        <time>1982-03-26T10:26:07Z</time>
      </trkpt>
      <trkpt lat="43.95376" lon="7.37729">
        <ele>1665.5</ele>
        <time>1982-03-26T10:26:08Z</time>
      </trkpt>
      <trkpt lat="43.95373" lon="7.37726">
        <ele>1665.6</ele>
        <time>1982-03-26T10:26:09Z</time>
      </trkpt>
      <trkpt lat="43.95373" lon="7.37723">
        <ele>1664.6</ele>
        <time>1982-03-26T10:26:10Z</time>
      </trkpt>
      <trkpt lat="43.95371" lon="7.37719">
        <ele>1664.5</ele>
        <time>1982-03-26T10:26:11Z</time>
      </trkpt>
      <trkpt lat="43.95369" lon="7.37715">
        <ele>1664.4</ele>
        <time>1982-03-26T10:26:12Z</time>
      </trkpt>
      <trkpt lat="43.95367" lon="7.3771">
        <ele>1664.7</ele>
        <time>1982-03-26T10:26:13Z</time>
      </trkpt>
      <trkpt lat="43.95365" lon="7.37706">
        <ele>1665.2</ele>
        <time>1982-03-26T10:26:14Z</time>
      </trkpt>
      <trkpt lat="43.95363" lon="7.37701">
        <ele>1665.6</ele>
        <time>1982-03-26T10:26:15Z</time>
      </trkpt>
      <trkpt lat="43.9536" lon="7.37697">
        <ele>1666.1</ele>
        <time>1982-03-26T10:26:16Z</time>
      </trkpt>
      <trkpt lat="43.95357" lon="7.37692">
        <ele>1666.4</ele>
        <time>1982-03-26T10:26:17Z</time>
      </trkpt>
      <trkpt lat="43.95355" lon="7.37686">
        <ele>1666.8</ele>
        <time>1982-03-26T10:26:18Z</time>
      </trkpt>
      <trkpt lat="43.95353" lon="7.3768">
        <ele>1666.9</ele>
        <time>1982-03-26T10:26:19Z</time>
      </trkpt>
      <trkpt lat="43.95352" lon="7.37673">
        <ele>1666.8</ele>
        <time>1982-03-26T10:26:20Z</time>
      </trkpt>
      <trkpt lat="43.95354" lon="7.37666">
        <ele>1666.7</ele>
        <time>1982-03-26T10:26:21Z</time>
      </trkpt>
      <trkpt lat="43.95356" lon="7.37658">
        <ele>1666.5</ele>
        <time>1982-03-26T10:26:22Z</time>
      </trkpt>
      <trkpt lat="43.95358" lon="7.37651">
        <ele>1666.3</ele>
        <time>1982-03-26T10:26:23Z</time>
      </trkpt>
      <trkpt lat="43.95357" lon="7.37644">
        <ele>1666</ele>
        <time>1982-03-26T10:26:24Z</time>
      </trkpt>
      <trkpt lat="43.95355" lon="7.37639">
        <ele>1665.9</ele>
        <time>1982-03-26T10:26:25Z</time>
      </trkpt>
      <trkpt lat="43.9535" lon="7.37638">
        <ele>1664.3</ele>
        <time>1982-03-26T10:26:26Z</time>
      </trkpt>
      <trkpt lat="43.95346" lon="7.37634">
        <ele>1665.6</ele>
        <time>1982-03-26T10:26:27Z</time>
      </trkpt>
      <trkpt lat="43.95341" lon="7.37634">
        <ele>1667.8</ele>
        <time>1982-03-26T10:26:28Z</time>
      </trkpt>
      <trkpt lat="43.95337" lon="7.3763">
        <ele>1667.8</ele>
        <time>1982-03-26T10:26:29Z</time>
      </trkpt>
      <trkpt lat="43.95334" lon="7.37626">
        <ele>1668.1</ele>
        <time>1982-03-26T10:26:30Z</time>
      </trkpt>
      <trkpt lat="43.95331" lon="7.37623">
        <ele>1668.2</ele>
        <time>1982-03-26T10:26:31Z</time>
      </trkpt>
      <trkpt lat="43.95328" lon="7.3762">
        <ele>1668</ele>
        <time>1982-03-26T10:26:32Z</time>
      </trkpt>
      <trkpt lat="43.95327" lon="7.37617">
        <ele>1669.1</ele>
        <time>1982-03-26T10:26:33Z</time>
      </trkpt>
      <trkpt lat="43.95323" lon="7.37615">
        <ele>1670</ele>
        <time>1982-03-26T10:26:34Z</time>
      </trkpt>
      <trkpt lat="43.95319" lon="7.37612">
        <ele>1670.8</ele>
        <time>1982-03-26T10:26:35Z</time>
      </trkpt>
      <trkpt lat="43.95317" lon="7.3761">
        <ele>1670.5</ele>
        <time>1982-03-26T10:26:36Z</time>
      </trkpt>
      <trkpt lat="43.95314" lon="7.37607">
        <ele>1671.3</ele>
        <time>1982-03-26T10:26:37Z</time>
      </trkpt>
      <trkpt lat="43.95311" lon="7.37605">
        <ele>1671.4</ele>
        <time>1982-03-26T10:26:38Z</time>
      </trkpt>
      <trkpt lat="43.95309" lon="7.37603">
        <ele>1670.5</ele>
        <time>1982-03-26T10:26:39Z</time>
      </trkpt>
      <trkpt lat="43.95307" lon="7.37602">
        <ele>1670.6</ele>
        <time>1982-03-26T10:26:40Z</time>
      </trkpt>
      <trkpt lat="43.95304" lon="7.37601">
        <ele>1671.2</ele>
        <time>1982-03-26T10:26:41Z</time>
      </trkpt>
      <trkpt lat="43.95302" lon="7.37599">
        <ele>1670.9</ele>
        <time>1982-03-26T10:26:42Z</time>
      </trkpt>
      <trkpt lat="43.95299" lon="7.37599">
        <ele>1671.2</ele>
        <time>1982-03-26T10:26:43Z</time>
      </trkpt>
      <trkpt lat="43.95297" lon="7.37599">
        <ele>1671.5</ele>
        <time>1982-03-26T10:26:44Z</time>
      </trkpt>
      <trkpt lat="43.95295" lon="7.37597">
        <ele>1671.5</ele>
        <time>1982-03-26T10:26:45Z</time>
      </trkpt>
      <trkpt lat="43.95292" lon="7.37595">
        <ele>1671.2</ele>
        <time>1982-03-26T10:26:46Z</time>
      </trkpt>
      <trkpt lat="43.95289" lon="7.37593">
        <ele>1671.1</ele>
        <time>1982-03-26T10:26:47Z</time>
      </trkpt>
      <trkpt lat="43.95288" lon="7.37589">
        <ele>1669.6</ele>
        <time>1982-03-26T10:26:48Z</time>
      </trkpt>
      <trkpt lat="43.95285" lon="7.37588">
        <ele>1669.4</ele>
        <time>1982-03-26T10:26:49Z</time>
      </trkpt>
      <trkpt lat="43.95282" lon="7.37585">
        <ele>1669.3</ele>
        <time>1982-03-26T10:26:50Z</time>
      </trkpt>
      <trkpt lat="43.95281" lon="7.3758">
        <ele>1668.4</ele>
        <time>1982-03-26T10:26:51Z</time>
      </trkpt>
      <trkpt lat="43.95277" lon="7.37577">
        <ele>1669.1</ele>
        <time>1982-03-26T10:26:52Z</time>
      </trkpt>
      <trkpt lat="43.95273" lon="7.37574">
        <ele>1668.9</ele>
        <time>1982-03-26T10:26:53Z</time>
      </trkpt>
      <trkpt lat="43.95273" lon="7.37568">
        <ele>1668.4</ele>
        <time>1982-03-26T10:26:54Z</time>
      </trkpt>
      <trkpt lat="43.95272" lon="7.37562">
        <ele>1668.7</ele>
        <time>1982-03-26T10:26:55Z</time>
      </trkpt>
      <trkpt lat="43.95272" lon="7.37561">
        <ele>1671.5</ele>
        <time>1982-03-26T10:26:56Z</time>
      </trkpt>
      <trkpt lat="43.95271" lon="7.37558">
        <ele>1672.2</ele>
        <time>1982-03-26T10:26:57Z</time>
      </trkpt>
      <trkpt lat="43.9527" lon="7.37556">
        <ele>1672.6</ele>
        <time>1982-03-26T10:26:58Z</time>
      </trkpt>
      <trkpt lat="43.95271" lon="7.37554">
        <ele>1671.2</ele>
        <time>1982-03-26T10:26:59Z</time>
      </trkpt>
      <trkpt lat="43.95271" lon="7.37553">
        <ele>1671.4</ele>
        <time>1982-03-26T10:27:00Z</time>
      </trkpt>
      <trkpt lat="43.95271" lon="7.37553">
        <ele>1671.9</ele>
        <time>1982-03-26T10:27:01Z</time>
      </trkpt>
      <trkpt lat="43.95271" lon="7.37553">
        <ele>1671.9</ele>
        <time>1982-03-26T10:27:26Z</time>
      </trkpt>
      <trkpt lat="43.9527" lon="7.37552">
        <ele>1675.4</ele>
        <time>1982-03-26T10:27:28Z</time>
      </trkpt>
      <trkpt lat="43.95269" lon="7.37549">
        <ele>1676.2</ele>
        <time>1982-03-26T10:27:28Z</time>
      </trkpt>
      <trkpt lat="43.95269" lon="7.37546">
        <ele>1676.7</ele>
        <time>1982-03-26T10:27:29Z</time>
      </trkpt>
      <trkpt lat="43.95269" lon="7.37545">
        <ele>1677</ele>
        <time>1982-03-26T10:27:31Z</time>
      </trkpt>
      <trkpt lat="43.95268" lon="7.37538">
        <ele>1677.9</ele>
        <time>1982-03-26T10:27:31Z</time>
      </trkpt>
      <trkpt lat="43.95266" lon="7.3753">
        <ele>1673.9</ele>
        <time>1982-03-26T10:27:32Z</time>
      </trkpt>
      <trkpt lat="43.95264" lon="7.37526">
        <ele>1673</ele>
        <time>1982-03-26T10:27:33Z</time>
      </trkpt>
      <trkpt lat="43.95262" lon="7.37523">
        <ele>1673.6</ele>
        <time>1982-03-26T10:27:35Z</time>
      </trkpt>
      <trkpt lat="43.95262" lon="7.37521">
        <ele>1674.6</ele>
        <time>1982-03-26T10:27:36Z</time>
      </trkpt>
      <trkpt lat="43.95262" lon="7.37518">
        <ele>1675.6</ele>
        <time>1982-03-26T10:27:37Z</time>
      </trkpt>
      <trkpt lat="43.95262" lon="7.37515">
        <ele>1676.5</ele>
        <time>1982-03-26T10:27:37Z</time>
      </trkpt>
      <trkpt lat="43.95262" lon="7.37513">
        <ele>1677</ele>
        <time>1982-03-26T10:27:38Z</time>
      </trkpt>
      <trkpt lat="43.95263" lon="7.37511">
        <ele>1677.3</ele>
        <time>1982-03-26T10:27:39Z</time>
      </trkpt>
      <trkpt lat="43.95263" lon="7.37509">
        <ele>1677.7</ele>
        <time>1982-03-26T10:27:40Z</time>
      </trkpt>
      <trkpt lat="43.95262" lon="7.37507">
        <ele>1678.1</ele>
        <time>1982-03-26T10:27:41Z</time>
      </trkpt>
      <trkpt lat="43.95261" lon="7.37507">
        <ele>1678</ele>
        <time>1982-03-26T10:27:42Z</time>
      </trkpt>
      <trkpt lat="43.9526" lon="7.37503">
        <ele>1678.7</ele>
        <time>1982-03-26T10:27:44Z</time>
      </trkpt>
      <trkpt lat="43.95258" lon="7.37499">
        <ele>1679.5</ele>
        <time>1982-03-26T10:27:45Z</time>
      </trkpt>
      <trkpt lat="43.95256" lon="7.37499">
        <ele>1679</ele>
        <time>1982-03-26T10:27:46Z</time>
      </trkpt>
      <trkpt lat="43.95254" lon="7.37495">
        <ele>1678.3</ele>
        <time>1982-03-26T10:27:48Z</time>
      </trkpt>
      <trkpt lat="43.95252" lon="7.3749">
        <ele>1678.7</ele>
        <time>1982-03-26T10:27:48Z</time>
      </trkpt>
      <trkpt lat="43.95251" lon="7.37489">
        <ele>1678.1</ele>
        <time>1982-03-26T10:27:50Z</time>
      </trkpt>
      <trkpt lat="43.95247" lon="7.37483">
        <ele>1679.5</ele>
        <time>1982-03-26T10:27:50Z</time>
      </trkpt>
      <trkpt lat="43.95246" lon="7.37484">
        <ele>1679.4</ele>
        <time>1982-03-26T10:27:51Z</time>
      </trkpt>
      <trkpt lat="43.95241" lon="7.37482">
        <ele>1680.7</ele>
        <time>1982-03-26T10:27:52Z</time>
      </trkpt>
      <trkpt lat="43.95236" lon="7.37474">
        <ele>1678</ele>
        <time>1982-03-26T10:27:53Z</time>
      </trkpt>
      <trkpt lat="43.95231" lon="7.37474">
        <ele>1677.9</ele>
        <time>1982-03-26T10:27:54Z</time>
      </trkpt>
      <trkpt lat="43.9523" lon="7.37472">
        <ele>1675.7</ele>
        <time>1982-03-26T10:27:55Z</time>
      </trkpt>
      <trkpt lat="43.95228" lon="7.3747">
        <ele>1673.1</ele>
        <time>1982-03-26T10:27:56Z</time>
      </trkpt>
      <trkpt lat="43.95226" lon="7.37468">
        <ele>1673.5</ele>
        <time>1982-03-26T10:27:57Z</time>
      </trkpt>
      <trkpt lat="43.95224" lon="7.37468">
        <ele>1671.8</ele>
        <time>1982-03-26T10:27:58Z</time>
      </trkpt>
      <trkpt lat="43.95222" lon="7.37469">
        <ele>1671.8</ele>
        <time>1982-03-26T10:27:59Z</time>
      </trkpt>
      <trkpt lat="43.9522" lon="7.37467">
        <ele>1671.5</ele>
        <time>1982-03-26T10:28:00Z</time>
      </trkpt>
      <trkpt lat="43.9522" lon="7.37466">
        <ele>1670</ele>
        <time>1982-03-26T10:28:01Z</time>
      </trkpt>
      <trkpt lat="43.95219" lon="7.37464">
        <ele>1669.5</ele>
        <time>1982-03-26T10:28:02Z</time>
      </trkpt>
      <trkpt lat="43.95217" lon="7.37463">
        <ele>1670.1</ele>
        <time>1982-03-26T10:28:03Z</time>
      </trkpt>
      <trkpt lat="43.95215" lon="7.3746">
        <ele>1671.8</ele>
        <time>1982-03-26T10:28:04Z</time>
      </trkpt>
      <trkpt lat="43.95214" lon="7.37458">
        <ele>1672</ele>
        <time>1982-03-26T10:28:05Z</time>
      </trkpt>
      <trkpt lat="43.95213" lon="7.37455">
        <ele>1671.9</ele>
        <time>1982-03-26T10:28:06Z</time>
      </trkpt>
      <trkpt lat="43.95212" lon="7.37455">
        <ele>1672.7</ele>
        <time>1982-03-26T10:28:07Z</time>
      </trkpt>
      <trkpt lat="43.95208" lon="7.37453">
        <ele>1671.2</ele>
        <time>1982-03-26T10:28:08Z</time>
      </trkpt>
      <trkpt lat="43.95206" lon="7.37451">
        <ele>1671.9</ele>
        <time>1982-03-26T10:28:09Z</time>
      </trkpt>
      <trkpt lat="43.95204" lon="7.3745">
        <ele>1672.2</ele>
        <time>1982-03-26T10:28:10Z</time>
      </trkpt>
      <trkpt lat="43.95204" lon="7.37448">
        <ele>1672.8</ele>
        <time>1982-03-26T10:28:11Z</time>
      </trkpt>
      <trkpt lat="43.95203" lon="7.37447">
        <ele>1673.9</ele>
        <time>1982-03-26T10:28:12Z</time>
      </trkpt>
      <trkpt lat="43.95203" lon="7.37445">
        <ele>1674.4</ele>
        <time>1982-03-26T10:28:13Z</time>
      </trkpt>
      <trkpt lat="43.95203" lon="7.37444">
        <ele>1674.4</ele>
        <time>1982-03-26T10:28:15Z</time>
      </trkpt>
      <trkpt lat="43.95203" lon="7.37443">
        <ele>1676.1</ele>
        <time>1982-03-26T10:28:17Z</time>
      </trkpt>
      <trkpt lat="43.95203" lon="7.37443">
        <ele>1676.3</ele>
        <time>1982-03-26T10:28:18Z</time>
      </trkpt>
      <trkpt lat="43.95203" lon="7.37443">
        <ele>1676.3</ele>
        <time>1982-03-26T10:28:24Z</time>
      </trkpt>
      <trkpt lat="43.95203" lon="7.37444">
        <ele>1676.3</ele>
        <time>1982-03-26T10:28:26Z</time>
      </trkpt>
      <trkpt lat="43.95203" lon="7.37444">
        <ele>1676.3</ele>
        <time>1982-03-26T10:28:26Z</time>
      </trkpt>
      <trkpt lat="43.95203" lon="7.37444">
        <ele>1676.5</ele>
        <time>1982-03-26T10:28:28Z</time>
      </trkpt>
      <trkpt lat="43.95203" lon="7.37444">
        <ele>1676.5</ele>
        <time>1982-03-26T10:29:21Z</time>
      </trkpt>
      <trkpt lat="43.95204" lon="7.37445">
        <ele>1680.2</ele>
        <time>1982-03-26T10:29:23Z</time>
      </trkpt>
      <trkpt lat="43.95204" lon="7.37445">
        <ele>1681.2</ele>
        <time>1982-03-26T10:29:24Z</time>
      </trkpt>
      <trkpt lat="43.95204" lon="7.37445">
        <ele>1681.1</ele>
        <time>1982-03-26T10:29:25Z</time>
      </trkpt>
      <trkpt lat="43.95204" lon="7.37445">
        <ele>1681.1</ele>
        <time>1982-03-26T10:29:25Z</time>
      </trkpt>
      <trkpt lat="43.95204" lon="7.37445">
        <ele>1682.9</ele>
        <time>1982-03-26T10:29:27Z</time>
      </trkpt>
      <trkpt lat="43.95204" lon="7.37444">
        <ele>1683.8</ele>
        <time>1982-03-26T10:29:28Z</time>
      </trkpt>
      <trkpt lat="43.95204" lon="7.37444">
        <ele>1683.8</ele>
        <time>1982-03-26T10:29:28Z</time>
      </trkpt>
      <trkpt lat="43.95204" lon="7.37445">
        <ele>1685.9</ele>
        <time>1982-03-26T10:29:30Z</time>
      </trkpt>
      <trkpt lat="43.95205" lon="7.37445">
        <ele>1686.3</ele>
        <time>1982-03-26T10:29:31Z</time>
      </trkpt>
      <trkpt lat="43.95205" lon="7.37445">
        <ele>1686.3</ele>
        <time>1982-03-26T10:29:31Z</time>
      </trkpt>
      <trkpt lat="43.95205" lon="7.37445">
        <ele>1686.8</ele>
        <time>1982-03-26T10:29:33Z</time>
      </trkpt>
      <trkpt lat="43.95205" lon="7.37445">
        <ele>1686.8</ele>
        <time>1982-03-26T10:29:51Z</time>
      </trkpt>
      <trkpt lat="43.95206" lon="7.37448">
        <ele>1684.6</ele>
        <time>1982-03-26T10:29:53Z</time>
      </trkpt>
      <trkpt lat="43.95208" lon="7.37453">
        <ele>1683.8</ele>
        <time>1982-03-26T10:29:54Z</time>
      </trkpt>
      <trkpt lat="43.9521" lon="7.37457">
        <ele>1683.7</ele>
        <time>1982-03-26T10:29:55Z</time>
      </trkpt>
      <trkpt lat="43.95212" lon="7.37462">
        <ele>1684.5</ele>
        <time>1982-03-26T10:29:56Z</time>
      </trkpt>
      <trkpt lat="43.95212" lon="7.37466">
        <ele>1683.4</ele>
        <time>1982-03-26T10:29:57Z</time>
      </trkpt>
      <trkpt lat="43.95214" lon="7.37467">
        <ele>1682.5</ele>
        <time>1982-03-26T10:29:58Z</time>
      </trkpt>
      <trkpt lat="43.95216" lon="7.3747">
        <ele>1681.5</ele>
        <time>1982-03-26T10:29:59Z</time>
      </trkpt>
      <trkpt lat="43.9522" lon="7.3747">
        <ele>1680.8</ele>
        <time>1982-03-26T10:30:00Z</time>
      </trkpt>
      <trkpt lat="43.95224" lon="7.37473">
        <ele>1680.4</ele>
        <time>1982-03-26T10:30:01Z</time>
      </trkpt>
      <trkpt lat="43.95225" lon="7.37474">
        <ele>1680</ele>
        <time>1982-03-26T10:30:02Z</time>
      </trkpt>
      <trkpt lat="43.95229" lon="7.37478">
        <ele>1680</ele>
        <time>1982-03-26T10:30:03Z</time>
      </trkpt>
      <trkpt lat="43.95233" lon="7.37481">
        <ele>1679.7</ele>
        <time>1982-03-26T10:30:04Z</time>
      </trkpt>
      <trkpt lat="43.95238" lon="7.37483">
        <ele>1679.6</ele>
        <time>1982-03-26T10:30:05Z</time>
      </trkpt>
      <trkpt lat="43.95242" lon="7.37484">
        <ele>1677.7</ele>
        <time>1982-03-26T10:30:06Z</time>
      </trkpt>
      <trkpt lat="43.95246" lon="7.37485">
        <ele>1678.6</ele>
        <time>1982-03-26T10:30:07Z</time>
      </trkpt>
      <trkpt lat="43.95249" lon="7.37487">
        <ele>1677.7</ele>
        <time>1982-03-26T10:30:08Z</time>
      </trkpt>
      <trkpt lat="43.95252" lon="7.37489">
        <ele>1676.6</ele>
        <time>1982-03-26T10:30:09Z</time>
      </trkpt>
      <trkpt lat="43.95254" lon="7.37493">
        <ele>1676.3</ele>
        <time>1982-03-26T10:30:10Z</time>
      </trkpt>
      <trkpt lat="43.95255" lon="7.37496">
        <ele>1675.4</ele>
        <time>1982-03-26T10:30:11Z</time>
      </trkpt>
      <trkpt lat="43.95261" lon="7.37502">
        <ele>1670.7</ele>
        <time>1982-03-26T10:30:12Z</time>
      </trkpt>
      <trkpt lat="43.95264" lon="7.37506">
        <ele>1667.9</ele>
        <time>1982-03-26T10:30:13Z</time>
      </trkpt>
      <trkpt lat="43.95266" lon="7.37512">
        <ele>1666.7</ele>
        <time>1982-03-26T10:30:14Z</time>
      </trkpt>
      <trkpt lat="43.95267" lon="7.37516">
        <ele>1665.9</ele>
        <time>1982-03-26T10:30:15Z</time>
      </trkpt>
      <trkpt lat="43.95268" lon="7.37523">
        <ele>1665</ele>
        <time>1982-03-26T10:30:16Z</time>
      </trkpt>
      <trkpt lat="43.95266" lon="7.37526">
        <ele>1667.7</ele>
        <time>1982-03-26T10:30:17Z</time>
      </trkpt>
      <trkpt lat="43.95267" lon="7.37528">
        <ele>1668</ele>
        <time>1982-03-26T10:30:18Z</time>
      </trkpt>
      <trkpt lat="43.95267" lon="7.3753">
        <ele>1667.6</ele>
        <time>1982-03-26T10:30:19Z</time>
      </trkpt>
      <trkpt lat="43.95268" lon="7.37532">
        <ele>1667.5</ele>
        <time>1982-03-26T10:30:20Z</time>
      </trkpt>
      <trkpt lat="43.95268" lon="7.37533">
        <ele>1667.5</ele>
        <time>1982-03-26T10:30:21Z</time>
      </trkpt>
      <trkpt lat="43.95268" lon="7.37533">
        <ele>1668.1</ele>
        <time>1982-03-26T10:30:23Z</time>
      </trkpt>
      <trkpt lat="43.95268" lon="7.37536">
        <ele>1669.7</ele>
        <time>1982-03-26T10:30:26Z</time>
      </trkpt>
      <trkpt lat="43.95268" lon="7.37538">
        <ele>1670.5</ele>
        <time>1982-03-26T10:30:27Z</time>
      </trkpt>
      <trkpt lat="43.95268" lon="7.37538">
        <ele>1669.5</ele>
        <time>1982-03-26T10:30:28Z</time>
      </trkpt>
      <trkpt lat="43.95269" lon="7.37539">
        <ele>1669.7</ele>
        <time>1982-03-26T10:30:29Z</time>
      </trkpt>
      <trkpt lat="43.95269" lon="7.37539">
        <ele>1669.7</ele>
        <time>1982-03-26T10:30:30Z</time>
      </trkpt>
      <trkpt lat="43.95268" lon="7.3754">
        <ele>1669.2</ele>
        <time>1982-03-26T10:30:32Z</time>
      </trkpt>
      <trkpt lat="43.95268" lon="7.3754">
        <ele>1669.7</ele>
        <time>1982-03-26T10:30:33Z</time>
      </trkpt>
      <trkpt lat="43.95268" lon="7.3754">
        <ele>1669.7</ele>
        <time>1982-03-26T10:30:42Z</time>
      </trkpt>
      <trkpt lat="43.95268" lon="7.3754">
        <ele>1670.1</ele>
        <time>1982-03-26T10:30:45Z</time>
      </trkpt>
      <trkpt lat="43.95265" lon="7.37539">
        <ele>1670.1</ele>
        <time>1982-03-26T10:30:47Z</time>
      </trkpt>
      <trkpt lat="43.95263" lon="7.37539">
        <ele>1670.6</ele>
        <time>1982-03-26T10:30:48Z</time>
      </trkpt>
      <trkpt lat="43.95261" lon="7.37538">
        <ele>1670.8</ele>
        <time>1982-03-26T10:30:49Z</time>
      </trkpt>
      <trkpt lat="43.95261" lon="7.37536">
        <ele>1670.3</ele>
        <time>1982-03-26T10:30:50Z</time>
      </trkpt>
      <trkpt lat="43.9526" lon="7.37535">
        <ele>1668.9</ele>
        <time>1982-03-26T10:30:51Z</time>
      </trkpt>
      <trkpt lat="43.95259" lon="7.37533">
        <ele>1668</ele>
        <time>1982-03-26T10:30:52Z</time>
      </trkpt>
      <trkpt lat="43.95256" lon="7.37532">
        <ele>1670.7</ele>
        <time>1982-03-26T10:30:53Z</time>
      </trkpt>
      <trkpt lat="43.95254" lon="7.3753">
        <ele>1672.7</ele>
        <time>1982-03-26T10:30:54Z</time>
      </trkpt>
      <trkpt lat="43.95252" lon="7.37528">
        <ele>1673.4</ele>
        <time>1982-03-26T10:30:55Z</time>
      </trkpt>
      <trkpt lat="43.95253" lon="7.37527">
        <ele>1676.9</ele>
        <time>1982-03-26T10:30:56Z</time>
      </trkpt>
      <trkpt lat="43.9525" lon="7.37526">
        <ele>1679.6</ele>
        <time>1982-03-26T10:30:57Z</time>
      </trkpt>
      <trkpt lat="43.95247" lon="7.37525">
        <ele>1681.3</ele>
        <time>1982-03-26T10:30:58Z</time>
      </trkpt>
      <trkpt lat="43.95244" lon="7.37525">
        <ele>1683.5</ele>
        <time>1982-03-26T10:30:59Z</time>
      </trkpt>
      <trkpt lat="43.95242" lon="7.37524">
        <ele>1683.5</ele>
        <time>1982-03-26T10:31:00Z</time>
      </trkpt>
      <trkpt lat="43.95241" lon="7.37522">
        <ele>1683</ele>
        <time>1982-03-26T10:31:01Z</time>
      </trkpt>
      <trkpt lat="43.95241" lon="7.37523">
        <ele>1683.2</ele>
        <time>1982-03-26T10:31:02Z</time>
      </trkpt>
      <trkpt lat="43.95234" lon="7.37517">
        <ele>1682.5</ele>
        <time>1982-03-26T10:31:04Z</time>
      </trkpt>
      <trkpt lat="43.95232" lon="7.37515">
        <ele>1680.3</ele>
        <time>1982-03-26T10:31:05Z</time>
      </trkpt>
      <trkpt lat="43.95231" lon="7.37512">
        <ele>1678.9</ele>
        <time>1982-03-26T10:31:06Z</time>
      </trkpt>
      <trkpt lat="43.9523" lon="7.37511">
        <ele>1677.6</ele>
        <time>1982-03-26T10:31:07Z</time>
      </trkpt>
      <trkpt lat="43.95228" lon="7.3751">
        <ele>1677.6</ele>
        <time>1982-03-26T10:31:08Z</time>
      </trkpt>
      <trkpt lat="43.95228" lon="7.37509">
        <ele>1677.2</ele>
        <time>1982-03-26T10:31:09Z</time>
      </trkpt>
      <trkpt lat="43.95226" lon="7.37508">
        <ele>1675.2</ele>
        <time>1982-03-26T10:31:11Z</time>
      </trkpt>
      <trkpt lat="43.95225" lon="7.37507">
        <ele>1673.3</ele>
        <time>1982-03-26T10:31:12Z</time>
      </trkpt>
      <trkpt lat="43.95223" lon="7.37506">
        <ele>1671.8</ele>
        <time>1982-03-26T10:31:13Z</time>
      </trkpt>
      <trkpt lat="43.95222" lon="7.37505">
        <ele>1670.2</ele>
        <time>1982-03-26T10:31:14Z</time>
      </trkpt>
      <trkpt lat="43.95219" lon="7.37505">
        <ele>1669.1</ele>
        <time>1982-03-26T10:31:15Z</time>
      </trkpt>
      <trkpt lat="43.95219" lon="7.37505">
        <ele>1667.7</ele>
        <time>1982-03-26T10:31:16Z</time>
      </trkpt>
      <trkpt lat="43.95219" lon="7.37505">
        <ele>1668</ele>
        <time>1982-03-26T10:31:17Z</time>
      </trkpt>
      <trkpt lat="43.9522" lon="7.37504">
        <ele>1667.5</ele>
        <time>1982-03-26T10:31:18Z</time>
      </trkpt>
      <trkpt lat="43.9522" lon="7.37504">
        <ele>1667.5</ele>
        <time>1982-03-26T10:31:25Z</time>
      </trkpt>
      <trkpt lat="43.9522" lon="7.37504">
        <ele>1667.1</ele>
        <time>1982-03-26T10:31:26Z</time>
      </trkpt>
      <trkpt lat="43.9522" lon="7.37504">
        <ele>1667.1</ele>
        <time>1982-03-26T10:31:56Z</time>
      </trkpt>
      <trkpt lat="43.95219" lon="7.37501">
        <ele>1667.1</ele>
        <time>1982-03-26T10:31:58Z</time>
      </trkpt>
      <trkpt lat="43.95221" lon="7.37502">
        <ele>1666.7</ele>
        <time>1982-03-26T10:31:59Z</time>
      </trkpt>
      <trkpt lat="43.95222" lon="7.37502">
        <ele>1666.6</ele>
        <time>1982-03-26T10:32:00Z</time>
      </trkpt>
      <trkpt lat="43.95224" lon="7.37497">
        <ele>1663</ele>
        <time>1982-03-26T10:32:02Z</time>
      </trkpt>
      <trkpt lat="43.95225" lon="7.37496">
        <ele>1663.5</ele>
        <time>1982-03-26T10:32:03Z</time>
      </trkpt>
      <trkpt lat="43.95225" lon="7.37497">
        <ele>1662.1</ele>
        <time>1982-03-26T10:32:05Z</time>
      </trkpt>
      <trkpt lat="43.95225" lon="7.37497">
        <ele>1661.9</ele>
        <time>1982-03-26T10:32:06Z</time>
      </trkpt>
      <trkpt lat="43.95225" lon="7.37497">
        <ele>1661.9</ele>
        <time>1982-03-26T10:32:07Z</time>
      </trkpt>
      <trkpt lat="43.95225" lon="7.37498">
        <ele>1661</ele>
        <time>1982-03-26T10:32:09Z</time>
      </trkpt>
      <trkpt lat="43.95225" lon="7.37499">
        <ele>1662.7</ele>
        <time>1982-03-26T10:32:10Z</time>
      </trkpt>
      <trkpt lat="43.95225" lon="7.375">
        <ele>1662.7</ele>
        <time>1982-03-26T10:32:11Z</time>
      </trkpt>
      <trkpt lat="43.95225" lon="7.375">
        <ele>1662.7</ele>
        <time>1982-03-26T10:32:14Z</time>
      </trkpt>
      <trkpt lat="43.95226" lon="7.375">
        <ele>1661.9</ele>
        <time>1982-03-26T10:32:16Z</time>
      </trkpt>
      <trkpt lat="43.95226" lon="7.375">
        <ele>1662.2</ele>
        <time>1982-03-26T10:32:18Z</time>
      </trkpt>
      <trkpt lat="43.95228" lon="7.37499">
        <ele>1660.9</ele>
        <time>1982-03-26T10:32:21Z</time>
      </trkpt>
      <trkpt lat="43.95229" lon="7.37498">
        <ele>1661.5</ele>
        <time>1982-03-26T10:32:22Z</time>
      </trkpt>
      <trkpt lat="43.95229" lon="7.37499">
        <ele>1662.1</ele>
        <time>1982-03-26T10:32:24Z</time>
      </trkpt>
      <trkpt lat="43.9523" lon="7.375">
        <ele>1661.9</ele>
        <time>1982-03-26T10:32:26Z</time>
      </trkpt>
      <trkpt lat="43.9523" lon="7.375">
        <ele>1661.9</ele>
        <time>1982-03-26T10:32:26Z</time>
      </trkpt>
      <trkpt lat="43.95231" lon="7.375">
        <ele>1662</ele>
        <time>1982-03-26T10:32:28Z</time>
      </trkpt>
      <trkpt lat="43.95231" lon="7.375">
        <ele>1662.4</ele>
        <time>1982-03-26T10:32:29Z</time>
      </trkpt>
      <trkpt lat="43.95231" lon="7.375">
        <ele>1662.4</ele>
        <time>1982-03-26T10:32:31Z</time>
      </trkpt>
      <trkpt lat="43.95232" lon="7.375">
        <ele>1663.3</ele>
        <time>1982-03-26T10:32:33Z</time>
      </trkpt>
      <trkpt lat="43.95232" lon="7.375">
        <ele>1663.1</ele>
        <time>1982-03-26T10:32:34Z</time>
      </trkpt>
      <trkpt lat="43.95232" lon="7.375">
        <ele>1663.1</ele>
        <time>1982-03-26T10:32:38Z</time>
      </trkpt>
      <trkpt lat="43.95235" lon="7.375">
        <ele>1662.6</ele>
        <time>1982-03-26T10:32:40Z</time>
      </trkpt>
      <trkpt lat="43.95235" lon="7.375">
        <ele>1662.8</ele>
        <time>1982-03-26T10:32:41Z</time>
      </trkpt>
      <trkpt lat="43.95235" lon="7.375">
        <ele>1662.8</ele>
        <time>1982-03-26T10:32:43Z</time>
      </trkpt>
      <trkpt lat="43.95237" lon="7.375">
        <ele>1664.2</ele>
        <time>1982-03-26T10:32:45Z</time>
      </trkpt>
      <trkpt lat="43.95237" lon="7.375">
        <ele>1664</ele>
        <time>1982-03-26T10:32:46Z</time>
      </trkpt>
      <trkpt lat="43.95238" lon="7.37501">
        <ele>1664</ele>
        <time>1982-03-26T10:32:48Z</time>
      </trkpt>
      <trkpt lat="43.95238" lon="7.37502">
        <ele>1664.2</ele>
        <time>1982-03-26T10:32:49Z</time>
      </trkpt>
      <trkpt lat="43.95238" lon="7.37502">
        <ele>1664.2</ele>
        <time>1982-03-26T10:32:50Z</time>
      </trkpt>
      <trkpt lat="43.95239" lon="7.37502">
        <ele>1664.9</ele>
        <time>1982-03-26T10:32:52Z</time>
      </trkpt>
      <trkpt lat="43.9524" lon="7.37502">
        <ele>1664.8</ele>
        <time>1982-03-26T10:32:53Z</time>
      </trkpt>
      <trkpt lat="43.9524" lon="7.37502">
        <ele>1664.8</ele>
        <time>1982-03-26T10:33:01Z</time>
      </trkpt>
      <trkpt lat="43.95243" lon="7.37506">
        <ele>1662.8</ele>
        <time>1982-03-26T10:33:03Z</time>
      </trkpt>
      <trkpt lat="43.95245" lon="7.37508">
        <ele>1662.7</ele>
        <time>1982-03-26T10:33:04Z</time>
      </trkpt>
      <trkpt lat="43.95248" lon="7.37511">
        <ele>1663.2</ele>
        <time>1982-03-26T10:33:05Z</time>
      </trkpt>
      <trkpt lat="43.95249" lon="7.37511">
        <ele>1663.2</ele>
        <time>1982-03-26T10:33:06Z</time>
      </trkpt>
      <trkpt lat="43.9525" lon="7.37511">
        <ele>1663</ele>
        <time>1982-03-26T10:33:07Z</time>
      </trkpt>
      <trkpt lat="43.9525" lon="7.37511">
        <ele>1663.8</ele>
        <time>1982-03-26T10:33:08Z</time>
      </trkpt>
      <trkpt lat="43.9525" lon="7.37511">
        <ele>1663.8</ele>
        <time>1982-03-26T10:33:10Z</time>
      </trkpt>
      <trkpt lat="43.95254" lon="7.37514">
        <ele>1662.4</ele>
        <time>1982-03-26T10:33:12Z</time>
      </trkpt>
      <trkpt lat="43.95253" lon="7.37515">
        <ele>1662.1</ele>
        <time>1982-03-26T10:33:13Z</time>
      </trkpt>
      <trkpt lat="43.95254" lon="7.37516">
        <ele>1660.9</ele>
        <time>1982-03-26T10:33:14Z</time>
      </trkpt>
      <trkpt lat="43.95255" lon="7.37517">
        <ele>1661.2</ele>
        <time>1982-03-26T10:33:15Z</time>
      </trkpt>
      <trkpt lat="43.95255" lon="7.37518">
        <ele>1660.8</ele>
        <time>1982-03-26T10:33:17Z</time>
      </trkpt>
      <trkpt lat="43.95258" lon="7.37519">
        <ele>1659.4</ele>
        <time>1982-03-26T10:33:19Z</time>
      </trkpt>
      <trkpt lat="43.95258" lon="7.37521">
        <ele>1660</ele>
        <time>1982-03-26T10:33:20Z</time>
      </trkpt>
      <trkpt lat="43.95258" lon="7.37521">
        <ele>1659</ele>
        <time>1982-03-26T10:33:21Z</time>
      </trkpt>
      <trkpt lat="43.95259" lon="7.37522">
        <ele>1659.3</ele>
        <time>1982-03-26T10:33:22Z</time>
      </trkpt>
      <trkpt lat="43.9526" lon="7.37524">
        <ele>1659.4</ele>
        <time>1982-03-26T10:33:24Z</time>
      </trkpt>
      <trkpt lat="43.9526" lon="7.37524">
        <ele>1659.5</ele>
        <time>1982-03-26T10:33:26Z</time>
      </trkpt>
      <trkpt lat="43.95261" lon="7.37526">
        <ele>1660.5</ele>
        <time>1982-03-26T10:33:28Z</time>
      </trkpt>
      <trkpt lat="43.95262" lon="7.37527">
        <ele>1661</ele>
        <time>1982-03-26T10:33:29Z</time>
      </trkpt>
      <trkpt lat="43.95262" lon="7.37527">
        <ele>1661.6</ele>
        <time>1982-03-26T10:33:30Z</time>
      </trkpt>
      <trkpt lat="43.95262" lon="7.37528">
        <ele>1663.2</ele>
        <time>1982-03-26T10:33:31Z</time>
      </trkpt>
      <trkpt lat="43.95263" lon="7.37529">
        <ele>1663.7</ele>
        <time>1982-03-26T10:33:32Z</time>
      </trkpt>
      <trkpt lat="43.95262" lon="7.37529">
        <ele>1664.1</ele>
        <time>1982-03-26T10:33:33Z</time>
      </trkpt>
      <trkpt lat="43.95262" lon="7.37529">
        <ele>1664.1</ele>
        <time>1982-03-26T10:33:33Z</time>
      </trkpt>
      <trkpt lat="43.95263" lon="7.37531">
        <ele>1664.6</ele>
        <time>1982-03-26T10:33:35Z</time>
      </trkpt>
      <trkpt lat="43.95263" lon="7.37531">
        <ele>1664.5</ele>
        <time>1982-03-26T10:33:36Z</time>
      </trkpt>
      <trkpt lat="43.95263" lon="7.37531">
        <ele>1664.5</ele>
        <time>1982-03-26T10:33:36Z</time>
      </trkpt>
      <trkpt lat="43.95263" lon="7.37531">
        <ele>1665.8</ele>
        <time>1982-03-26T10:33:38Z</time>
      </trkpt>
      <trkpt lat="43.95263" lon="7.37532">
        <ele>1665.6</ele>
        <time>1982-03-26T10:33:39Z</time>
      </trkpt>
      <trkpt lat="43.95263" lon="7.37532">
        <ele>1665.6</ele>
        <time>1982-03-26T10:33:42Z</time>
      </trkpt>
      <trkpt lat="43.95263" lon="7.37533">
        <ele>1665.5</ele>
        <time>1982-03-26T10:33:45Z</time>
      </trkpt>
      <trkpt lat="43.95264" lon="7.37536">
        <ele>1665.7</ele>
        <time>1982-03-26T10:33:47Z</time>
      </trkpt>
      <trkpt lat="43.95266" lon="7.37536">
        <ele>1665.4</ele>
        <time>1982-03-26T10:33:48Z</time>
      </trkpt>
      <trkpt lat="43.95266" lon="7.37536">
        <ele>1666</ele>
        <time>1982-03-26T10:33:49Z</time>
      </trkpt>
      <trkpt lat="43.95266" lon="7.37537">
        <ele>1667.3</ele>
        <time>1982-03-26T10:33:51Z</time>
      </trkpt>
      <trkpt lat="43.95266" lon="7.37537">
        <ele>1667.6</ele>
        <time>1982-03-26T10:33:53Z</time>
      </trkpt>
      <trkpt lat="43.95266" lon="7.37537">
        <ele>1667.6</ele>
        <time>1982-03-26T10:33:54Z</time>
      </trkpt>
      <trkpt lat="43.95267" lon="7.37537">
        <ele>1667.7</ele>
        <time>1982-03-26T10:33:56Z</time>
      </trkpt>
      <trkpt lat="43.95267" lon="7.37537">
        <ele>1667.7</ele>
        <time>1982-03-26T10:33:56Z</time>
      </trkpt>
      <trkpt lat="43.95267" lon="7.37537">
        <ele>1667.6</ele>
        <time>1982-03-26T10:33:58Z</time>
      </trkpt>
      <trkpt lat="43.95267" lon="7.37537">
        <ele>1667.6</ele>
        <time>1982-03-26T10:34:09Z</time>
      </trkpt>
      <trkpt lat="43.95267" lon="7.37538">
        <ele>1668.6</ele>
        <time>1982-03-26T10:34:11Z</time>
      </trkpt>
      <trkpt lat="43.95267" lon="7.37538">
        <ele>1668.7</ele>
        <time>1982-03-26T10:34:12Z</time>
      </trkpt>
      <trkpt lat="43.95266" lon="7.37538">
        <ele>1669.2</ele>
        <time>1982-03-26T10:34:14Z</time>
      </trkpt>
      <trkpt lat="43.95266" lon="7.37538">
        <ele>1670.8</ele>
        <time>1982-03-26T10:34:18Z</time>
      </trkpt>
      <trkpt lat="43.95266" lon="7.37539">
        <ele>1670.7</ele>
        <time>1982-03-26T10:34:18Z</time>
      </trkpt>
      <trkpt lat="43.95266" lon="7.37539">
        <ele>1670.7</ele>
        <time>1982-03-26T10:34:20Z</time>
      </trkpt>
      <trkpt lat="43.95265" lon="7.37538">
        <ele>1669.1</ele>
        <time>1982-03-26T10:34:22Z</time>
      </trkpt>
      <trkpt lat="43.95267" lon="7.37538">
        <ele>1669</ele>
        <time>1982-03-26T10:34:23Z</time>
      </trkpt>
      <trkpt lat="43.95266" lon="7.37538">
        <ele>1670.2</ele>
        <time>1982-03-26T10:34:24Z</time>
      </trkpt>
      <trkpt lat="43.95265" lon="7.37533">
        <ele>1669.8</ele>
        <time>1982-03-26T10:34:25Z</time>
      </trkpt>
      <trkpt lat="43.95265" lon="7.37531">
        <ele>1668.7</ele>
        <time>1982-03-26T10:34:26Z</time>
      </trkpt>
      <trkpt lat="43.95264" lon="7.37527">
        <ele>1668.8</ele>
        <time>1982-03-26T10:34:27Z</time>
      </trkpt>
      <trkpt lat="43.95267" lon="7.37525">
        <ele>1666.8</ele>
        <time>1982-03-26T10:34:28Z</time>
      </trkpt>
      <trkpt lat="43.95269" lon="7.37523">
        <ele>1665</ele>
        <time>1982-03-26T10:34:29Z</time>
      </trkpt>
      <trkpt lat="43.9527" lon="7.37521">
        <ele>1664.2</ele>
        <time>1982-03-26T10:34:30Z</time>
      </trkpt>
      <trkpt lat="43.95271" lon="7.37518">
        <ele>1663.1</ele>
        <time>1982-03-26T10:34:31Z</time>
      </trkpt>
      <trkpt lat="43.95271" lon="7.37516">
        <ele>1663.5</ele>
        <time>1982-03-26T10:34:32Z</time>
      </trkpt>
      <trkpt lat="43.9527" lon="7.37514">
        <ele>1664.5</ele>
        <time>1982-03-26T10:34:33Z</time>
      </trkpt>
      <trkpt lat="43.95269" lon="7.37514">
        <ele>1665.9</ele>
        <time>1982-03-26T10:34:34Z</time>
      </trkpt>
      <trkpt lat="43.95268" lon="7.37513">
        <ele>1666.5</ele>
        <time>1982-03-26T10:34:35Z</time>
      </trkpt>
      <trkpt lat="43.95267" lon="7.37512">
        <ele>1667.1</ele>
        <time>1982-03-26T10:34:36Z</time>
      </trkpt>
      <trkpt lat="43.95265" lon="7.3751">
        <ele>1668.8</ele>
        <time>1982-03-26T10:34:37Z</time>
      </trkpt>
      <trkpt lat="43.95264" lon="7.37509">
        <ele>1670</ele>
        <time>1982-03-26T10:34:38Z</time>
      </trkpt>
      <trkpt lat="43.95263" lon="7.37509">
        <ele>1670.6</ele>
        <time>1982-03-26T10:34:39Z</time>
      </trkpt>
      <trkpt lat="43.95262" lon="7.37508">
        <ele>1671.1</ele>
        <time>1982-03-26T10:34:40Z</time>
      </trkpt>
      <trkpt lat="43.95258" lon="7.37508">
        <ele>1673.1</ele>
        <time>1982-03-26T10:34:41Z</time>
      </trkpt>
      <trkpt lat="43.95258" lon="7.37506">
        <ele>1672.6</ele>
        <time>1982-03-26T10:34:42Z</time>
      </trkpt>
      <trkpt lat="43.95257" lon="7.37505">
        <ele>1673.2</ele>
        <time>1982-03-26T10:34:43Z</time>
      </trkpt>
      <trkpt lat="43.95256" lon="7.37503">
        <ele>1673.4</ele>
        <time>1982-03-26T10:34:44Z</time>
      </trkpt>
      <trkpt lat="43.95256" lon="7.37502">
        <ele>1675</ele>
        <time>1982-03-26T10:34:45Z</time>
      </trkpt>
      <trkpt lat="43.95254" lon="7.375">
        <ele>1674.9</ele>
        <time>1982-03-26T10:34:46Z</time>
      </trkpt>
      <trkpt lat="43.95251" lon="7.37499">
        <ele>1675.6</ele>
        <time>1982-03-26T10:34:47Z</time>
      </trkpt>
      <trkpt lat="43.95249" lon="7.37498">
        <ele>1676.1</ele>
        <time>1982-03-26T10:34:48Z</time>
      </trkpt>
      <trkpt lat="43.95248" lon="7.37496">
        <ele>1676.2</ele>
        <time>1982-03-26T10:34:49Z</time>
      </trkpt>
      <trkpt lat="43.95247" lon="7.37493">
        <ele>1675.4</ele>
        <time>1982-03-26T10:34:50Z</time>
      </trkpt>
      <trkpt lat="43.95246" lon="7.37491">
        <ele>1675.2</ele>
        <time>1982-03-26T10:34:51Z</time>
      </trkpt>
      <trkpt lat="43.95245" lon="7.3749">
        <ele>1674.8</ele>
        <time>1982-03-26T10:34:52Z</time>
      </trkpt>
      <trkpt lat="43.95245" lon="7.37488">
        <ele>1674.2</ele>
        <time>1982-03-26T10:34:53Z</time>
      </trkpt>
      <trkpt lat="43.95244" lon="7.37486">
        <ele>1673.4</ele>
        <time>1982-03-26T10:34:54Z</time>
      </trkpt>
      <trkpt lat="43.95243" lon="7.37484">
        <ele>1673.2</ele>
        <time>1982-03-26T10:34:55Z</time>
      </trkpt>
      <trkpt lat="43.95243" lon="7.37481">
        <ele>1672.7</ele>
        <time>1982-03-26T10:34:56Z</time>
      </trkpt>
      <trkpt lat="43.95241" lon="7.37479">
        <ele>1673.3</ele>
        <time>1982-03-26T10:34:57Z</time>
      </trkpt>
      <trkpt lat="43.95237" lon="7.37478">
        <ele>1673.6</ele>
        <time>1982-03-26T10:34:58Z</time>
      </trkpt>
      <trkpt lat="43.95234" lon="7.37478">
        <ele>1673.8</ele>
        <time>1982-03-26T10:34:59Z</time>
      </trkpt>
      <trkpt lat="43.95231" lon="7.37476">
        <ele>1674.2</ele>
        <time>1982-03-26T10:35:00Z</time>
      </trkpt>
      <trkpt lat="43.95228" lon="7.37475">
        <ele>1674.8</ele>
        <time>1982-03-26T10:35:01Z</time>
      </trkpt>
      <trkpt lat="43.95226" lon="7.37473">
        <ele>1674.1</ele>
        <time>1982-03-26T10:35:02Z</time>
      </trkpt>
      <trkpt lat="43.95225" lon="7.37471">
        <ele>1674.7</ele>
        <time>1982-03-26T10:35:03Z</time>
      </trkpt>
      <trkpt lat="43.95224" lon="7.37468">
        <ele>1676.2</ele>
        <time>1982-03-26T10:35:04Z</time>
      </trkpt>
      <trkpt lat="43.95223" lon="7.37467">
        <ele>1677.1</ele>
        <time>1982-03-26T10:35:05Z</time>
      </trkpt>
      <trkpt lat="43.95221" lon="7.37468">
        <ele>1676.1</ele>
        <time>1982-03-26T10:35:06Z</time>
      </trkpt>
      <trkpt lat="43.95219" lon="7.37467">
        <ele>1674.8</ele>
        <time>1982-03-26T10:35:07Z</time>
      </trkpt>
      <trkpt lat="43.95217" lon="7.37466">
        <ele>1674.6</ele>
        <time>1982-03-26T10:35:08Z</time>
      </trkpt>
      <trkpt lat="43.95216" lon="7.37464">
        <ele>1675.4</ele>
        <time>1982-03-26T10:35:09Z</time>
      </trkpt>
      <trkpt lat="43.95214" lon="7.37461">
        <ele>1676</ele>
        <time>1982-03-26T10:35:10Z</time>
      </trkpt>
      <trkpt lat="43.95213" lon="7.3746">
        <ele>1676.4</ele>
        <time>1982-03-26T10:35:11Z</time>
      </trkpt>
      <trkpt lat="43.95211" lon="7.37458">
        <ele>1677.1</ele>
        <time>1982-03-26T10:35:12Z</time>
      </trkpt>
      <trkpt lat="43.95209" lon="7.37457">
        <ele>1677.1</ele>
        <time>1982-03-26T10:35:13Z</time>
      </trkpt>
      <trkpt lat="43.95206" lon="7.37455">
        <ele>1677.6</ele>
        <time>1982-03-26T10:35:14Z</time>
      </trkpt>
      <trkpt lat="43.95206" lon="7.37453">
        <ele>1678</ele>
        <time>1982-03-26T10:35:15Z</time>
      </trkpt>
      <trkpt lat="43.95205" lon="7.37452">
        <ele>1677.9</ele>
        <time>1982-03-26T10:35:16Z</time>
      </trkpt>
      <trkpt lat="43.95205" lon="7.37452">
        <ele>1678.6</ele>
        <time>1982-03-26T10:35:17Z</time>
      </trkpt>
      <trkpt lat="43.95205" lon="7.37452">
        <ele>1678.6</ele>
        <time>1982-03-26T10:35:17Z</time>
      </trkpt>
      <trkpt lat="43.95204" lon="7.37452">
        <ele>1679.2</ele>
        <time>1982-03-26T10:35:19Z</time>
      </trkpt>
      <trkpt lat="43.95204" lon="7.37452">
        <ele>1679.5</ele>
        <time>1982-03-26T10:35:20Z</time>
      </trkpt>
      <trkpt lat="43.95204" lon="7.37452">
        <ele>1679.5</ele>
        <time>1982-03-26T10:35:20Z</time>
      </trkpt>
      <trkpt lat="43.95203" lon="7.37451">
        <ele>1680</ele>
        <time>1982-03-26T10:35:22Z</time>
      </trkpt>
      <trkpt lat="43.95203" lon="7.37451">
        <ele>1680</ele>
        <time>1982-03-26T10:35:22Z</time>
      </trkpt>
      <trkpt lat="43.95203" lon="7.3745">
        <ele>1679.9</ele>
        <time>1982-03-26T10:35:24Z</time>
      </trkpt>
      <trkpt lat="43.95203" lon="7.3745">
        <ele>1679.9</ele>
        <time>1982-03-26T10:35:28Z</time>
      </trkpt>
      <trkpt lat="43.95202" lon="7.3745">
        <ele>1680</ele>
        <time>1982-03-26T10:35:30Z</time>
      </trkpt>
      <trkpt lat="43.95202" lon="7.3745">
        <ele>1680</ele>
        <time>1982-03-26T10:36:28Z</time>
      </trkpt>
      <trkpt lat="43.952" lon="7.37449">
        <ele>1681.3</ele>
        <time>1982-03-26T10:36:30Z</time>
      </trkpt>
      <trkpt lat="43.95198" lon="7.37449">
        <ele>1681.2</ele>
        <time>1982-03-26T10:36:31Z</time>
      </trkpt>
      <trkpt lat="43.95195" lon="7.37448">
        <ele>1682.5</ele>
        <time>1982-03-26T10:36:32Z</time>
      </trkpt>
      <trkpt lat="43.95193" lon="7.37447">
        <ele>1683</ele>
        <time>1982-03-26T10:36:33Z</time>
      </trkpt>
      <trkpt lat="43.95192" lon="7.37444">
        <ele>1678.9</ele>
        <time>1982-03-26T10:36:34Z</time>
      </trkpt>
      <trkpt lat="43.9519" lon="7.37442">
        <ele>1675.9</ele>
        <time>1982-03-26T10:36:35Z</time>
      </trkpt>
      <trkpt lat="43.95189" lon="7.37439">
        <ele>1673.6</ele>
        <time>1982-03-26T10:36:36Z</time>
      </trkpt>
      <trkpt lat="43.95186" lon="7.3744">
        <ele>1675.3</ele>
        <time>1982-03-26T10:36:37Z</time>
      </trkpt>
      <trkpt lat="43.95183" lon="7.37439">
        <ele>1675.1</ele>
        <time>1982-03-26T10:36:38Z</time>
      </trkpt>
      <trkpt lat="43.9518" lon="7.37438">
        <ele>1675.7</ele>
        <time>1982-03-26T10:36:39Z</time>
      </trkpt>
      <trkpt lat="43.9518" lon="7.37436">
        <ele>1675.8</ele>
        <time>1982-03-26T10:36:40Z</time>
      </trkpt>
      <trkpt lat="43.95178" lon="7.37435">
        <ele>1676.2</ele>
        <time>1982-03-26T10:36:41Z</time>
      </trkpt>
      <trkpt lat="43.95177" lon="7.37433">
        <ele>1674</ele>
        <time>1982-03-26T10:36:42Z</time>
      </trkpt>
      <trkpt lat="43.95175" lon="7.37431">
        <ele>1672.2</ele>
        <time>1982-03-26T10:36:43Z</time>
      </trkpt>
      <trkpt lat="43.95172" lon="7.3743">
        <ele>1671.7</ele>
        <time>1982-03-26T10:36:44Z</time>
      </trkpt>
      <trkpt lat="43.95168" lon="7.37429">
        <ele>1671.1</ele>
        <time>1982-03-26T10:36:45Z</time>
      </trkpt>
      <trkpt lat="43.95165" lon="7.37427">
        <ele>1670.7</ele>
        <time>1982-03-26T10:36:46Z</time>
      </trkpt>
      <trkpt lat="43.95164" lon="7.37423">
        <ele>1670.5</ele>
        <time>1982-03-26T10:36:47Z</time>
      </trkpt>
      <trkpt lat="43.9516" lon="7.37425">
        <ele>1666</ele>
        <time>1982-03-26T10:36:48Z</time>
      </trkpt>
      <trkpt lat="43.95158" lon="7.37424">
        <ele>1664.7</ele>
        <time>1982-03-26T10:36:49Z</time>
      </trkpt>
      <trkpt lat="43.95157" lon="7.37421">
        <ele>1663.9</ele>
        <time>1982-03-26T10:36:50Z</time>
      </trkpt>
      <trkpt lat="43.95156" lon="7.3742">
        <ele>1662.9</ele>
        <time>1982-03-26T10:36:51Z</time>
      </trkpt>
      <trkpt lat="43.95154" lon="7.37418">
        <ele>1662.8</ele>
        <time>1982-03-26T10:36:52Z</time>
      </trkpt>
      <trkpt lat="43.95152" lon="7.37417">
        <ele>1662.9</ele>
        <time>1982-03-26T10:36:53Z</time>
      </trkpt>
      <trkpt lat="43.95151" lon="7.37414">
        <ele>1663</ele>
        <time>1982-03-26T10:36:54Z</time>
      </trkpt>
      <trkpt lat="43.95151" lon="7.37414">
        <ele>1662.7</ele>
        <time>1982-03-26T10:36:55Z</time>
      </trkpt>
      <trkpt lat="43.95148" lon="7.37413">
        <ele>1663.2</ele>
        <time>1982-03-26T10:36:57Z</time>
      </trkpt>
      <trkpt lat="43.95148" lon="7.37412">
        <ele>1662.4</ele>
        <time>1982-03-26T10:36:58Z</time>
      </trkpt>
      <trkpt lat="43.95148" lon="7.37412">
        <ele>1662.5</ele>
        <time>1982-03-26T10:36:59Z</time>
      </trkpt>
      <trkpt lat="43.95147" lon="7.37409">
        <ele>1660.4</ele>
        <time>1982-03-26T10:37:01Z</time>
      </trkpt>
      <trkpt lat="43.95146" lon="7.37409">
        <ele>1659.3</ele>
        <time>1982-03-26T10:37:02Z</time>
      </trkpt>
      <trkpt lat="43.95145" lon="7.37408">
        <ele>1658.8</ele>
        <time>1982-03-26T10:37:03Z</time>
      </trkpt>
      <trkpt lat="43.95144" lon="7.37407">
        <ele>1658.8</ele>
        <time>1982-03-26T10:37:05Z</time>
      </trkpt>
      <trkpt lat="43.95141" lon="7.37406">
        <ele>1656.2</ele>
        <time>1982-03-26T10:37:07Z</time>
      </trkpt>
      <trkpt lat="43.9514" lon="7.37405">
        <ele>1656.9</ele>
        <time>1982-03-26T10:37:08Z</time>
      </trkpt>
      <trkpt lat="43.95139" lon="7.37404">
        <ele>1656.9</ele>
        <time>1982-03-26T10:37:09Z</time>
      </trkpt>
      <trkpt lat="43.95134" lon="7.37399">
        <ele>1655.3</ele>
        <time>1982-03-26T10:37:10Z</time>
      </trkpt>
      <trkpt lat="43.95128" lon="7.37395">
        <ele>1654.4</ele>
        <time>1982-03-26T10:37:11Z</time>
      </trkpt>
      <trkpt lat="43.95125" lon="7.37393">
        <ele>1654.8</ele>
        <time>1982-03-26T10:37:12Z</time>
      </trkpt>
      <trkpt lat="43.95121" lon="7.37391">
        <ele>1655.4</ele>
        <time>1982-03-26T10:37:13Z</time>
      </trkpt>
      <trkpt lat="43.95119" lon="7.3739">
        <ele>1655.8</ele>
        <time>1982-03-26T10:37:14Z</time>
      </trkpt>
      <trkpt lat="43.95117" lon="7.37388">
        <ele>1656</ele>
        <time>1982-03-26T10:37:15Z</time>
      </trkpt>
      <trkpt lat="43.95114" lon="7.37386">
        <ele>1655.8</ele>
        <time>1982-03-26T10:37:16Z</time>
      </trkpt>
      <trkpt lat="43.95112" lon="7.37383">
        <ele>1655.9</ele>
        <time>1982-03-26T10:37:17Z</time>
      </trkpt>
      <trkpt lat="43.9511" lon="7.37381">
        <ele>1656.3</ele>
        <time>1982-03-26T10:37:18Z</time>
      </trkpt>
      <trkpt lat="43.95107" lon="7.37379">
        <ele>1657.1</ele>
        <time>1982-03-26T10:37:19Z</time>
      </trkpt>
      <trkpt lat="43.95105" lon="7.37379">
        <ele>1658</ele>
        <time>1982-03-26T10:37:20Z</time>
      </trkpt>
      <trkpt lat="43.95103" lon="7.37379">
        <ele>1658.5</ele>
        <time>1982-03-26T10:37:21Z</time>
      </trkpt>
      <trkpt lat="43.95102" lon="7.37372">
        <ele>1658.1</ele>
        <time>1982-03-26T10:37:22Z</time>
      </trkpt>
      <trkpt lat="43.95097" lon="7.37368">
        <ele>1658.4</ele>
        <time>1982-03-26T10:37:23Z</time>
      </trkpt>
      <trkpt lat="43.95096" lon="7.37365">
        <ele>1658.3</ele>
        <time>1982-03-26T10:37:24Z</time>
      </trkpt>
      <trkpt lat="43.95098" lon="7.37363">
        <ele>1659.8</ele>
        <time>1982-03-26T10:37:25Z</time>
      </trkpt>
      <trkpt lat="43.951" lon="7.37358">
        <ele>1659.8</ele>
        <time>1982-03-26T10:37:26Z</time>
      </trkpt>
      <trkpt lat="43.95101" lon="7.37352">
        <ele>1659.1</ele>
        <time>1982-03-26T10:37:27Z</time>
      </trkpt>
      <trkpt lat="43.95099" lon="7.37347">
        <ele>1659.4</ele>
        <time>1982-03-26T10:37:28Z</time>
      </trkpt>
      <trkpt lat="43.95096" lon="7.37343">
        <ele>1659.6</ele>
        <time>1982-03-26T10:37:29Z</time>
      </trkpt>
      <trkpt lat="43.95095" lon="7.37341">
        <ele>1659.1</ele>
        <time>1982-03-26T10:37:30Z</time>
      </trkpt>
      <trkpt lat="43.95095" lon="7.37339">
        <ele>1659.7</ele>
        <time>1982-03-26T10:37:31Z</time>
      </trkpt>
      <trkpt lat="43.95095" lon="7.37336">
        <ele>1659.8</ele>
        <time>1982-03-26T10:37:32Z</time>
      </trkpt>
      <trkpt lat="43.95089" lon="7.37333">
        <ele>1659.7</ele>
        <time>1982-03-26T10:37:33Z</time>
      </trkpt>
      <trkpt lat="43.95088" lon="7.37331">
        <ele>1660.4</ele>
        <time>1982-03-26T10:37:34Z</time>
      </trkpt>
      <trkpt lat="43.95084" lon="7.37328">
        <ele>1660.9</ele>
        <time>1982-03-26T10:37:35Z</time>
      </trkpt>
      <trkpt lat="43.95083" lon="7.37323">
        <ele>1661.8</ele>
        <time>1982-03-26T10:37:36Z</time>
      </trkpt>
      <trkpt lat="43.9508" lon="7.3732">
        <ele>1662</ele>
        <time>1982-03-26T10:37:37Z</time>
      </trkpt>
      <trkpt lat="43.95078" lon="7.37316">
        <ele>1663.5</ele>
        <time>1982-03-26T10:37:38Z</time>
      </trkpt>
      <trkpt lat="43.95075" lon="7.37313">
        <ele>1664.7</ele>
        <time>1982-03-26T10:37:39Z</time>
      </trkpt>
      <trkpt lat="43.95075" lon="7.37307">
        <ele>1663.7</ele>
        <time>1982-03-26T10:37:40Z</time>
      </trkpt>
      <trkpt lat="43.95074" lon="7.37302">
        <ele>1663.9</ele>
        <time>1982-03-26T10:37:41Z</time>
      </trkpt>
      <trkpt lat="43.95073" lon="7.37296">
        <ele>1663.7</ele>
        <time>1982-03-26T10:37:42Z</time>
      </trkpt>
      <trkpt lat="43.95073" lon="7.37289">
        <ele>1663.4</ele>
        <time>1982-03-26T10:37:43Z</time>
      </trkpt>
      <trkpt lat="43.95073" lon="7.37283">
        <ele>1663.3</ele>
        <time>1982-03-26T10:37:44Z</time>
      </trkpt>
      <trkpt lat="43.95073" lon="7.37276">
        <ele>1664.2</ele>
        <time>1982-03-26T10:37:45Z</time>
      </trkpt>
      <trkpt lat="43.95071" lon="7.37271">
        <ele>1664.5</ele>
        <time>1982-03-26T10:37:46Z</time>
      </trkpt>
      <trkpt lat="43.95068" lon="7.37266">
        <ele>1665.1</ele>
        <time>1982-03-26T10:37:47Z</time>
      </trkpt>
      <trkpt lat="43.95067" lon="7.37262">
        <ele>1665.6</ele>
        <time>1982-03-26T10:37:48Z</time>
      </trkpt>
      <trkpt lat="43.95067" lon="7.37259">
        <ele>1666.6</ele>
        <time>1982-03-26T10:37:49Z</time>
      </trkpt>
      <trkpt lat="43.95067" lon="7.37252">
        <ele>1666.2</ele>
        <time>1982-03-26T10:37:50Z</time>
      </trkpt>
      <trkpt lat="43.95067" lon="7.37245">
        <ele>1666.1</ele>
        <time>1982-03-26T10:37:51Z</time>
      </trkpt>
      <trkpt lat="43.95067" lon="7.37238">
        <ele>1666</ele>
        <time>1982-03-26T10:37:52Z</time>
      </trkpt>
      <trkpt lat="43.95068" lon="7.37237">
        <ele>1667.6</ele>
        <time>1982-03-26T10:37:53Z</time>
      </trkpt>
      <trkpt lat="43.95058" lon="7.37233">
        <ele>1667.8</ele>
        <time>1982-03-26T10:37:54Z</time>
      </trkpt>
      <trkpt lat="43.95054" lon="7.3723">
        <ele>1668.5</ele>
        <time>1982-03-26T10:37:55Z</time>
      </trkpt>
      <trkpt lat="43.95043" lon="7.37228">
        <ele>1669.4</ele>
        <time>1982-03-26T10:37:56Z</time>
      </trkpt>
      <trkpt lat="43.95039" lon="7.37223">
        <ele>1670.2</ele>
        <time>1982-03-26T10:37:58Z</time>
      </trkpt>
      <trkpt lat="43.95036" lon="7.37218">
        <ele>1669.6</ele>
        <time>1982-03-26T10:37:58Z</time>
      </trkpt>
      <trkpt lat="43.95033" lon="7.37215">
        <ele>1670.5</ele>
        <time>1982-03-26T10:37:59Z</time>
      </trkpt>
      <trkpt lat="43.9503" lon="7.37219">
        <ele>1671.8</ele>
        <time>1982-03-26T10:38:00Z</time>
      </trkpt>
      <trkpt lat="43.9503" lon="7.37219">
        <ele>1671.1</ele>
        <time>1982-03-26T10:38:01Z</time>
      </trkpt>
      <trkpt lat="43.95023" lon="7.37214">
        <ele>1668.6</ele>
        <time>1982-03-26T10:38:03Z</time>
      </trkpt>
      <trkpt lat="43.9502" lon="7.37216">
        <ele>1668.6</ele>
        <time>1982-03-26T10:38:04Z</time>
      </trkpt>
      <trkpt lat="43.9502" lon="7.37215">
        <ele>1666.9</ele>
        <time>1982-03-26T10:38:05Z</time>
      </trkpt>
      <trkpt lat="43.95017" lon="7.37214">
        <ele>1667.7</ele>
        <time>1982-03-26T10:38:06Z</time>
      </trkpt>
      <trkpt lat="43.95016" lon="7.37212">
        <ele>1667.2</ele>
        <time>1982-03-26T10:38:07Z</time>
      </trkpt>
      <trkpt lat="43.95014" lon="7.37209">
        <ele>1667</ele>
        <time>1982-03-26T10:38:08Z</time>
      </trkpt>
      <trkpt lat="43.95013" lon="7.37206">
        <ele>1666.7</ele>
        <time>1982-03-26T10:38:09Z</time>
      </trkpt>
      <trkpt lat="43.95014" lon="7.37202">
        <ele>1666</ele>
        <time>1982-03-26T10:38:10Z</time>
      </trkpt>
      <trkpt lat="43.95014" lon="7.372">
        <ele>1665.6</ele>
        <time>1982-03-26T10:38:11Z</time>
      </trkpt>
      <trkpt lat="43.95015" lon="7.37198">
        <ele>1664.1</ele>
        <time>1982-03-26T10:38:12Z</time>
      </trkpt>
      <trkpt lat="43.95015" lon="7.37196">
        <ele>1663.6</ele>
        <time>1982-03-26T10:38:13Z</time>
      </trkpt>
      <trkpt lat="43.95016" lon="7.37194">
        <ele>1663.3</ele>
        <time>1982-03-26T10:38:14Z</time>
      </trkpt>
      <trkpt lat="43.95017" lon="7.37191">
        <ele>1662.2</ele>
        <time>1982-03-26T10:38:15Z</time>
      </trkpt>
      <trkpt lat="43.95018" lon="7.37189">
        <ele>1660.9</ele>
        <time>1982-03-26T10:38:16Z</time>
      </trkpt>
      <trkpt lat="43.95018" lon="7.37186">
        <ele>1660.1</ele>
        <time>1982-03-26T10:38:17Z</time>
      </trkpt>
      <trkpt lat="43.95019" lon="7.37184">
        <ele>1660.1</ele>
        <time>1982-03-26T10:38:18Z</time>
      </trkpt>
      <trkpt lat="43.95021" lon="7.37184">
        <ele>1657.6</ele>
        <time>1982-03-26T10:38:19Z</time>
      </trkpt>
      <trkpt lat="43.95021" lon="7.37182">
        <ele>1659</ele>
        <time>1982-03-26T10:38:20Z</time>
      </trkpt>
      <trkpt lat="43.9502" lon="7.3718">
        <ele>1659.2</ele>
        <time>1982-03-26T10:38:21Z</time>
      </trkpt>
      <trkpt lat="43.9502" lon="7.37177">
        <ele>1658.1</ele>
        <time>1982-03-26T10:38:22Z</time>
      </trkpt>
      <trkpt lat="43.9502" lon="7.37176">
        <ele>1657.9</ele>
        <time>1982-03-26T10:38:23Z</time>
      </trkpt>
      <trkpt lat="43.95019" lon="7.37171">
        <ele>1657.5</ele>
        <time>1982-03-26T10:38:25Z</time>
      </trkpt>
      <trkpt lat="43.95016" lon="7.37166">
        <ele>1660.2</ele>
        <time>1982-03-26T10:38:26Z</time>
      </trkpt>
      <trkpt lat="43.95015" lon="7.37163">
        <ele>1659.1</ele>
        <time>1982-03-26T10:38:27Z</time>
      </trkpt>
      <trkpt lat="43.95014" lon="7.3716">
        <ele>1658.1</ele>
        <time>1982-03-26T10:38:28Z</time>
      </trkpt>
      <trkpt lat="43.95013" lon="7.37155">
        <ele>1658.3</ele>
        <time>1982-03-26T10:38:29Z</time>
      </trkpt>
      <trkpt lat="43.95008" lon="7.37152">
        <ele>1658.3</ele>
        <time>1982-03-26T10:38:30Z</time>
      </trkpt>
      <trkpt lat="43.95006" lon="7.3715">
        <ele>1658.5</ele>
        <time>1982-03-26T10:38:31Z</time>
      </trkpt>
      <trkpt lat="43.95005" lon="7.37146">
        <ele>1658</ele>
        <time>1982-03-26T10:38:32Z</time>
      </trkpt>
      <trkpt lat="43.95003" lon="7.37145">
        <ele>1657.8</ele>
        <time>1982-03-26T10:38:33Z</time>
      </trkpt>
      <trkpt lat="43.95001" lon="7.37144">
        <ele>1657.7</ele>
        <time>1982-03-26T10:38:34Z</time>
      </trkpt>
      <trkpt lat="43.95" lon="7.37143">
        <ele>1657.9</ele>
        <time>1982-03-26T10:38:35Z</time>
      </trkpt>
      <trkpt lat="43.94999" lon="7.37141">
        <ele>1657.5</ele>
        <time>1982-03-26T10:38:36Z</time>
      </trkpt>
      <trkpt lat="43.94997" lon="7.37139">
        <ele>1658.9</ele>
        <time>1982-03-26T10:38:37Z</time>
      </trkpt>
      <trkpt lat="43.94996" lon="7.37137">
        <ele>1659.2</ele>
        <time>1982-03-26T10:38:38Z</time>
      </trkpt>
      <trkpt lat="43.94995" lon="7.37135">
        <ele>1659.2</ele>
        <time>1982-03-26T10:38:39Z</time>
      </trkpt>
      <trkpt lat="43.94992" lon="7.37134">
        <ele>1659.7</ele>
        <time>1982-03-26T10:38:40Z</time>
      </trkpt>
      <trkpt lat="43.9499" lon="7.37132">
        <ele>1660.7</ele>
        <time>1982-03-26T10:38:41Z</time>
      </trkpt>
      <trkpt lat="43.94987" lon="7.37129">
        <ele>1661.3</ele>
        <time>1982-03-26T10:38:42Z</time>
      </trkpt>
      <trkpt lat="43.94985" lon="7.37127">
        <ele>1661.7</ele>
        <time>1982-03-26T10:38:43Z</time>
      </trkpt>
      <trkpt lat="43.94983" lon="7.37124">
        <ele>1661.8</ele>
        <time>1982-03-26T10:38:44Z</time>
      </trkpt>
      <trkpt lat="43.94983" lon="7.37121">
        <ele>1662.7</ele>
        <time>1982-03-26T10:38:45Z</time>
      </trkpt>
      <trkpt lat="43.94982" lon="7.37115">
        <ele>1663.2</ele>
        <time>1982-03-26T10:38:46Z</time>
      </trkpt>
      <trkpt lat="43.94981" lon="7.3711">
        <ele>1663.1</ele>
        <time>1982-03-26T10:38:47Z</time>
      </trkpt>
      <trkpt lat="43.94978" lon="7.37105">
        <ele>1663.7</ele>
        <time>1982-03-26T10:38:48Z</time>
      </trkpt>
      <trkpt lat="43.94974" lon="7.37103">
        <ele>1663.7</ele>
        <time>1982-03-26T10:38:49Z</time>
      </trkpt>
      <trkpt lat="43.94972" lon="7.371">
        <ele>1663.9</ele>
        <time>1982-03-26T10:38:50Z</time>
      </trkpt>
      <trkpt lat="43.94969" lon="7.37098">
        <ele>1663.1</ele>
        <time>1982-03-26T10:38:51Z</time>
      </trkpt>
      <trkpt lat="43.94966" lon="7.37095">
        <ele>1662.8</ele>
        <time>1982-03-26T10:38:52Z</time>
      </trkpt>
      <trkpt lat="43.94962" lon="7.37094">
        <ele>1663.1</ele>
        <time>1982-03-26T10:38:53Z</time>
      </trkpt>
      <trkpt lat="43.9496" lon="7.37092">
        <ele>1662.6</ele>
        <time>1982-03-26T10:38:54Z</time>
      </trkpt>
      <trkpt lat="43.94956" lon="7.3709">
        <ele>1661.4</ele>
        <time>1982-03-26T10:38:55Z</time>
      </trkpt>
      <trkpt lat="43.94954" lon="7.37088">
        <ele>1660.4</ele>
        <time>1982-03-26T10:38:56Z</time>
      </trkpt>
      <trkpt lat="43.94952" lon="7.37083">
        <ele>1658.7</ele>
        <time>1982-03-26T10:38:57Z</time>
      </trkpt>
      <trkpt lat="43.9495" lon="7.37077">
        <ele>1657.1</ele>
        <time>1982-03-26T10:38:58Z</time>
      </trkpt>
      <trkpt lat="43.94948" lon="7.37072">
        <ele>1653.6</ele>
        <time>1982-03-26T10:38:59Z</time>
      </trkpt>
      <trkpt lat="43.94946" lon="7.37069">
        <ele>1653.2</ele>
        <time>1982-03-26T10:39:00Z</time>
      </trkpt>
      <trkpt lat="43.94943" lon="7.37068">
        <ele>1652.4</ele>
        <time>1982-03-26T10:39:01Z</time>
      </trkpt>
      <trkpt lat="43.9494" lon="7.37067">
        <ele>1652.8</ele>
        <time>1982-03-26T10:39:02Z</time>
      </trkpt>
      <trkpt lat="43.94938" lon="7.37065">
        <ele>1652.4</ele>
        <time>1982-03-26T10:39:03Z</time>
      </trkpt>
      <trkpt lat="43.94935" lon="7.37064">
        <ele>1652.5</ele>
        <time>1982-03-26T10:39:04Z</time>
      </trkpt>
      <trkpt lat="43.94932" lon="7.37062">
        <ele>1651.7</ele>
        <time>1982-03-26T10:39:05Z</time>
      </trkpt>
      <trkpt lat="43.94929" lon="7.3706">
        <ele>1652.1</ele>
        <time>1982-03-26T10:39:06Z</time>
      </trkpt>
      <trkpt lat="43.94929" lon="7.37058">
        <ele>1650.5</ele>
        <time>1982-03-26T10:39:07Z</time>
      </trkpt>
      <trkpt lat="43.94927" lon="7.37056">
        <ele>1650.4</ele>
        <time>1982-03-26T10:39:08Z</time>
      </trkpt>
      <trkpt lat="43.94926" lon="7.37054">
        <ele>1650.4</ele>
        <time>1982-03-26T10:39:09Z</time>
      </trkpt>
      <trkpt lat="43.94925" lon="7.3705">
        <ele>1649.7</ele>
        <time>1982-03-26T10:39:10Z</time>
      </trkpt>
      <trkpt lat="43.94924" lon="7.37047">
        <ele>1649.5</ele>
        <time>1982-03-26T10:39:11Z</time>
      </trkpt>
      <trkpt lat="43.94923" lon="7.37045">
        <ele>1649.7</ele>
        <time>1982-03-26T10:39:12Z</time>
      </trkpt>
      <trkpt lat="43.94922" lon="7.37042">
        <ele>1647.1</ele>
        <time>1982-03-26T10:39:13Z</time>
      </trkpt>
      <trkpt lat="43.94921" lon="7.3704">
        <ele>1645.4</ele>
        <time>1982-03-26T10:39:14Z</time>
      </trkpt>
      <trkpt lat="43.9492" lon="7.37038">
        <ele>1644.1</ele>
        <time>1982-03-26T10:39:15Z</time>
      </trkpt>
      <trkpt lat="43.94919" lon="7.37036">
        <ele>1643.4</ele>
        <time>1982-03-26T10:39:16Z</time>
      </trkpt>
      <trkpt lat="43.94917" lon="7.37034">
        <ele>1643</ele>
        <time>1982-03-26T10:39:17Z</time>
      </trkpt>
      <trkpt lat="43.94916" lon="7.37032">
        <ele>1643.7</ele>
        <time>1982-03-26T10:39:18Z</time>
      </trkpt>
      <trkpt lat="43.94913" lon="7.3703">
        <ele>1643.7</ele>
        <time>1982-03-26T10:39:19Z</time>
      </trkpt>
      <trkpt lat="43.94905" lon="7.37025">
        <ele>1640.4</ele>
        <time>1982-03-26T10:39:20Z</time>
      </trkpt>
      <trkpt lat="43.94902" lon="7.3702">
        <ele>1639.3</ele>
        <time>1982-03-26T10:39:21Z</time>
      </trkpt>
      <trkpt lat="43.94901" lon="7.37017">
        <ele>1638.7</ele>
        <time>1982-03-26T10:39:22Z</time>
      </trkpt>
      <trkpt lat="43.94897" lon="7.37015">
        <ele>1637.9</ele>
        <time>1982-03-26T10:39:23Z</time>
      </trkpt>
      <trkpt lat="43.94894" lon="7.37014">
        <ele>1637.8</ele>
        <time>1982-03-26T10:39:24Z</time>
      </trkpt>
      <trkpt lat="43.94891" lon="7.37012">
        <ele>1638.9</ele>
        <time>1982-03-26T10:39:25Z</time>
      </trkpt>
      <trkpt lat="43.9489" lon="7.37011">
        <ele>1638.8</ele>
        <time>1982-03-26T10:39:26Z</time>
      </trkpt>
      <trkpt lat="43.94887" lon="7.37011">
        <ele>1640.3</ele>
        <time>1982-03-26T10:39:27Z</time>
      </trkpt>
      <trkpt lat="43.94885" lon="7.3701">
        <ele>1640.5</ele>
        <time>1982-03-26T10:39:28Z</time>
      </trkpt>
      <trkpt lat="43.94881" lon="7.37008">
        <ele>1641.7</ele>
        <time>1982-03-26T10:39:29Z</time>
      </trkpt>
      <trkpt lat="43.9488" lon="7.37006">
        <ele>1641.3</ele>
        <time>1982-03-26T10:39:30Z</time>
      </trkpt>
      <trkpt lat="43.9488" lon="7.37006">
        <ele>1641.7</ele>
        <time>1982-03-26T10:39:31Z</time>
      </trkpt>
      <trkpt lat="43.9488" lon="7.37006">
        <ele>1641.7</ele>
        <time>1982-03-26T10:39:37Z</time>
      </trkpt>
      <trkpt lat="43.94879" lon="7.37007">
        <ele>1641.9</ele>
        <time>1982-03-26T10:39:39Z</time>
      </trkpt>
      <trkpt lat="43.94879" lon="7.37007">
        <ele>1641.7</ele>
        <time>1982-03-26T10:39:40Z</time>
      </trkpt>
      <trkpt lat="43.94879" lon="7.37007">
        <ele>1641.7</ele>
        <time>1982-03-26T10:39:43Z</time>
      </trkpt>
      <trkpt lat="43.94874" lon="7.37003">
        <ele>1641</ele>
        <time>1982-03-26T10:39:45Z</time>
      </trkpt>
      <trkpt lat="43.94873" lon="7.37001">
        <ele>1641.2</ele>
        <time>1982-03-26T10:39:46Z</time>
      </trkpt>
      <trkpt lat="43.94873" lon="7.36998">
        <ele>1641</ele>
        <time>1982-03-26T10:39:47Z</time>
      </trkpt>
      <trkpt lat="43.94873" lon="7.36999">
        <ele>1641.1</ele>
        <time>1982-03-26T10:39:49Z</time>
      </trkpt>
      <trkpt lat="43.94868" lon="7.36995">
        <ele>1642.8</ele>
        <time>1982-03-26T10:39:51Z</time>
      </trkpt>
      <trkpt lat="43.94866" lon="7.36994">
        <ele>1641.2</ele>
        <time>1982-03-26T10:39:52Z</time>
      </trkpt>
      <trkpt lat="43.94863" lon="7.36995">
        <ele>1640.6</ele>
        <time>1982-03-26T10:39:53Z</time>
      </trkpt>
      <trkpt lat="43.94863" lon="7.36993">
        <ele>1639.1</ele>
        <time>1982-03-26T10:39:54Z</time>
      </trkpt>
      <trkpt lat="43.94863" lon="7.36993">
        <ele>1639.6</ele>
        <time>1982-03-26T10:39:55Z</time>
      </trkpt>
      <trkpt lat="43.94863" lon="7.36993">
        <ele>1639.6</ele>
        <time>1982-03-26T10:40:00Z</time>
      </trkpt>
      <trkpt lat="43.94862" lon="7.36994">
        <ele>1640.3</ele>
        <time>1982-03-26T10:40:02Z</time>
      </trkpt>
      <trkpt lat="43.94862" lon="7.36994">
        <ele>1639.9</ele>
        <time>1982-03-26T10:40:02Z</time>
      </trkpt>
      <trkpt lat="43.94862" lon="7.36994">
        <ele>1639.9</ele>
        <time>1982-03-26T10:40:53Z</time>
      </trkpt>
      <trkpt lat="43.94856" lon="7.36992">
        <ele>1637.8</ele>
        <time>1982-03-26T10:40:55Z</time>
      </trkpt>
      <trkpt lat="43.94849" lon="7.36989">
        <ele>1636.4</ele>
        <time>1982-03-26T10:40:56Z</time>
      </trkpt>
      <trkpt lat="43.94846" lon="7.36987">
        <ele>1636.3</ele>
        <time>1982-03-26T10:40:57Z</time>
      </trkpt>
      <trkpt lat="43.94855" lon="7.36985">
        <ele>1634.3</ele>
        <time>1982-03-26T10:40:57Z</time>
      </trkpt>
      <trkpt lat="43.94855" lon="7.36983">
        <ele>1635.4</ele>
        <time>1982-03-26T10:40:59Z</time>
      </trkpt>
      <trkpt lat="43.94855" lon="7.36983">
        <ele>1634.9</ele>
        <time>1982-03-26T10:41:00Z</time>
      </trkpt>
      <trkpt lat="43.94855" lon="7.36983">
        <ele>1634.9</ele>
        <time>1982-03-26T10:41:00Z</time>
      </trkpt>
      <trkpt lat="43.94855" lon="7.36982">
        <ele>1635.1</ele>
        <time>1982-03-26T10:41:01Z</time>
      </trkpt>
      <trkpt lat="43.94855" lon="7.36982">
        <ele>1635.1</ele>
        <time>1982-03-26T10:41:04Z</time>
      </trkpt>
      <trkpt lat="43.94855" lon="7.36982">
        <ele>1635</ele>
        <time>1982-03-26T10:41:06Z</time>
      </trkpt>
      <trkpt lat="43.94855" lon="7.36982">
        <ele>1635</ele>
        <time>1982-03-26T10:41:06Z</time>
      </trkpt>
      <trkpt lat="43.94853" lon="7.36983">
        <ele>1635.1</ele>
        <time>1982-03-26T10:41:07Z</time>
      </trkpt>
      <trkpt lat="43.94854" lon="7.36982">
        <ele>1635.3</ele>
        <time>1982-03-26T10:41:09Z</time>
      </trkpt>
      <trkpt lat="43.94854" lon="7.36982">
        <ele>1635.3</ele>
        <time>1982-03-26T10:41:28Z</time>
      </trkpt>
      <trkpt lat="43.94851" lon="7.36975">
        <ele>1630.7</ele>
        <time>1982-03-26T10:41:31Z</time>
      </trkpt>
      <trkpt lat="43.94853" lon="7.36974">
        <ele>1630.6</ele>
        <time>1982-03-26T10:41:31Z</time>
      </trkpt>
      <trkpt lat="43.94854" lon="7.36973">
        <ele>1630.7</ele>
        <time>1982-03-26T10:41:32Z</time>
      </trkpt>
      <trkpt lat="43.94855" lon="7.36975">
        <ele>1630.7</ele>
        <time>1982-03-26T10:41:35Z</time>
      </trkpt>
      <trkpt lat="43.94854" lon="7.36974">
        <ele>1632.2</ele>
        <time>1982-03-26T10:41:35Z</time>
      </trkpt>
      <trkpt lat="43.94852" lon="7.36974">
        <ele>1632.4</ele>
        <time>1982-03-26T10:41:36Z</time>
      </trkpt>
      <trkpt lat="43.94854" lon="7.36974">
        <ele>1631.8</ele>
        <time>1982-03-26T10:41:37Z</time>
      </trkpt>
      <trkpt lat="43.94854" lon="7.36974">
        <ele>1631.5</ele>
        <time>1982-03-26T10:41:38Z</time>
      </trkpt>
      <trkpt lat="43.94854" lon="7.36974">
        <ele>1631.5</ele>
        <time>1982-03-26T10:41:38Z</time>
      </trkpt>
      <trkpt lat="43.94858" lon="7.36968">
        <ele>1625.9</ele>
        <time>1982-03-26T10:41:41Z</time>
      </trkpt>
      <trkpt lat="43.94858" lon="7.36965">
        <ele>1626.7</ele>
        <time>1982-03-26T10:41:41Z</time>
      </trkpt>
      <trkpt lat="43.94858" lon="7.36962">
        <ele>1627.6</ele>
        <time>1982-03-26T10:41:42Z</time>
      </trkpt>
      <trkpt lat="43.9486" lon="7.36959">
        <ele>1627.6</ele>
        <time>1982-03-26T10:41:43Z</time>
      </trkpt>
      <trkpt lat="43.94861" lon="7.36956">
        <ele>1627.8</ele>
        <time>1982-03-26T10:41:44Z</time>
      </trkpt>
      <trkpt lat="43.94862" lon="7.36954">
        <ele>1627.8</ele>
        <time>1982-03-26T10:41:45Z</time>
      </trkpt>
      <trkpt lat="43.94862" lon="7.36954">
        <ele>1628.7</ele>
        <time>1982-03-26T10:41:46Z</time>
      </trkpt>
      <trkpt lat="43.94862" lon="7.36954">
        <ele>1628.7</ele>
        <time>1982-03-26T10:41:46Z</time>
      </trkpt>
      <trkpt lat="43.94862" lon="7.36953">
        <ele>1629</ele>
        <time>1982-03-26T10:41:48Z</time>
      </trkpt>
      <trkpt lat="43.94862" lon="7.36953">
        <ele>1629</ele>
        <time>1982-03-26T10:41:48Z</time>
      </trkpt>
      <trkpt lat="43.94861" lon="7.36952">
        <ele>1628.9</ele>
        <time>1982-03-26T10:41:50Z</time>
      </trkpt>
      <trkpt lat="43.94861" lon="7.36951">
        <ele>1626.8</ele>
        <time>1982-03-26T10:41:52Z</time>
      </trkpt>
      <trkpt lat="43.9486" lon="7.36951">
        <ele>1628.3</ele>
        <time>1982-03-26T10:41:53Z</time>
      </trkpt>
      <trkpt lat="43.9486" lon="7.3695">
        <ele>1628.8</ele>
        <time>1982-03-26T10:41:55Z</time>
      </trkpt>
      <trkpt lat="43.94857" lon="7.3695">
        <ele>1626.3</ele>
        <time>1982-03-26T10:41:57Z</time>
      </trkpt>
      <trkpt lat="43.94857" lon="7.36951">
        <ele>1626.3</ele>
        <time>1982-03-26T10:41:58Z</time>
      </trkpt>
      <trkpt lat="43.94857" lon="7.36952">
        <ele>1626.2</ele>
        <time>1982-03-26T10:41:59Z</time>
      </trkpt>
      <trkpt lat="43.94857" lon="7.36952">
        <ele>1626.2</ele>
        <time>1982-03-26T10:41:59Z</time>
      </trkpt>
      <trkpt lat="43.94854" lon="7.3695">
        <ele>1626.7</ele>
        <time>1982-03-26T10:42:01Z</time>
      </trkpt>
      <trkpt lat="43.94854" lon="7.3695">
        <ele>1625.6</ele>
        <time>1982-03-26T10:42:02Z</time>
      </trkpt>
      <trkpt lat="43.94854" lon="7.36951">
        <ele>1625.4</ele>
        <time>1982-03-26T10:42:03Z</time>
      </trkpt>
      <trkpt lat="43.94854" lon="7.36951">
        <ele>1625.4</ele>
        <time>1982-03-26T10:42:06Z</time>
      </trkpt>
      <trkpt lat="43.94854" lon="7.36952">
        <ele>1623.2</ele>
        <time>1982-03-26T10:42:09Z</time>
      </trkpt>
      <trkpt lat="43.94854" lon="7.36952">
        <ele>1623.4</ele>
        <time>1982-03-26T10:42:10Z</time>
      </trkpt>
      <trkpt lat="43.94854" lon="7.36952">
        <ele>1623.4</ele>
        <time>1982-03-26T10:42:45Z</time>
      </trkpt>
      <trkpt lat="43.94837" lon="7.36946">
        <ele>1623.9</ele>
        <time>1982-03-26T10:42:47Z</time>
      </trkpt>
      <trkpt lat="43.94829" lon="7.36945">
        <ele>1624.2</ele>
        <time>1982-03-26T10:42:48Z</time>
      </trkpt>
      <trkpt lat="43.94824" lon="7.36945">
        <ele>1624.7</ele>
        <time>1982-03-26T10:42:49Z</time>
      </trkpt>
      <trkpt lat="43.94824" lon="7.36942">
        <ele>1623.7</ele>
        <time>1982-03-26T10:42:50Z</time>
      </trkpt>
      <trkpt lat="43.94821" lon="7.36941">
        <ele>1623.7</ele>
        <time>1982-03-26T10:42:51Z</time>
      </trkpt>
      <trkpt lat="43.94828" lon="7.36942">
        <ele>1625.2</ele>
        <time>1982-03-26T10:42:53Z</time>
      </trkpt>
      <trkpt lat="43.94828" lon="7.3694">
        <ele>1624.6</ele>
        <time>1982-03-26T10:42:53Z</time>
      </trkpt>
      <trkpt lat="43.94828" lon="7.36938">
        <ele>1625.2</ele>
        <time>1982-03-26T10:42:54Z</time>
      </trkpt>
      <trkpt lat="43.94827" lon="7.36937">
        <ele>1625.1</ele>
        <time>1982-03-26T10:42:56Z</time>
      </trkpt>
      <trkpt lat="43.94824" lon="7.36937">
        <ele>1618.8</ele>
        <time>1982-03-26T10:42:58Z</time>
      </trkpt>
      <trkpt lat="43.94824" lon="7.36935">
        <ele>1616</ele>
        <time>1982-03-26T10:42:59Z</time>
      </trkpt>
      <trkpt lat="43.94823" lon="7.36934">
        <ele>1615.7</ele>
        <time>1982-03-26T10:43:00Z</time>
      </trkpt>
      <trkpt lat="43.94815" lon="7.36924">
        <ele>1612.2</ele>
        <time>1982-03-26T10:43:02Z</time>
      </trkpt>
      <trkpt lat="43.94811" lon="7.36921">
        <ele>1610.2</ele>
        <time>1982-03-26T10:43:03Z</time>
      </trkpt>
      <trkpt lat="43.94808" lon="7.36917">
        <ele>1610.3</ele>
        <time>1982-03-26T10:43:04Z</time>
      </trkpt>
      <trkpt lat="43.94802" lon="7.36915">
        <ele>1610.1</ele>
        <time>1982-03-26T10:43:05Z</time>
      </trkpt>
      <trkpt lat="43.94796" lon="7.3691">
        <ele>1609.3</ele>
        <time>1982-03-26T10:43:06Z</time>
      </trkpt>
      <trkpt lat="43.9479" lon="7.36904">
        <ele>1609.8</ele>
        <time>1982-03-26T10:43:07Z</time>
      </trkpt>
      <trkpt lat="43.94784" lon="7.36899">
        <ele>1609.3</ele>
        <time>1982-03-26T10:43:08Z</time>
      </trkpt>
      <trkpt lat="43.94779" lon="7.36895">
        <ele>1609.9</ele>
        <time>1982-03-26T10:43:09Z</time>
      </trkpt>
      <trkpt lat="43.94784" lon="7.36893">
        <ele>1610.1</ele>
        <time>1982-03-26T10:43:10Z</time>
      </trkpt>
      <trkpt lat="43.94782" lon="7.36891">
        <ele>1612.1</ele>
        <time>1982-03-26T10:43:11Z</time>
      </trkpt>
      <trkpt lat="43.94781" lon="7.36889">
        <ele>1612.9</ele>
        <time>1982-03-26T10:43:12Z</time>
      </trkpt>
      <trkpt lat="43.9478" lon="7.3689">
        <ele>1614.3</ele>
        <time>1982-03-26T10:43:13Z</time>
      </trkpt>
      <trkpt lat="43.94779" lon="7.36889">
        <ele>1615</ele>
        <time>1982-03-26T10:43:14Z</time>
      </trkpt>
      <trkpt lat="43.94778" lon="7.36888">
        <ele>1614.6</ele>
        <time>1982-03-26T10:43:16Z</time>
      </trkpt>
      <trkpt lat="43.94777" lon="7.36888">
        <ele>1615.3</ele>
        <time>1982-03-26T10:43:18Z</time>
      </trkpt>
      <trkpt lat="43.94774" lon="7.36888">
        <ele>1614.9</ele>
        <time>1982-03-26T10:43:19Z</time>
      </trkpt>
      <trkpt lat="43.94772" lon="7.36888">
        <ele>1614.3</ele>
        <time>1982-03-26T10:43:20Z</time>
      </trkpt>
      <trkpt lat="43.94772" lon="7.36887">
        <ele>1614.6</ele>
        <time>1982-03-26T10:43:21Z</time>
      </trkpt>
      <trkpt lat="43.94769" lon="7.36885">
        <ele>1614</ele>
        <time>1982-03-26T10:43:23Z</time>
      </trkpt>
      <trkpt lat="43.94765" lon="7.36883">
        <ele>1613.9</ele>
        <time>1982-03-26T10:43:24Z</time>
      </trkpt>
      <trkpt lat="43.94765" lon="7.36881">
        <ele>1613.3</ele>
        <time>1982-03-26T10:43:25Z</time>
      </trkpt>
      <trkpt lat="43.94764" lon="7.36881">
        <ele>1614.1</ele>
        <time>1982-03-26T10:43:27Z</time>
      </trkpt>
      <trkpt lat="43.94766" lon="7.36882">
        <ele>1614</ele>
        <time>1982-03-26T10:43:28Z</time>
      </trkpt>
      <trkpt lat="43.94766" lon="7.36882">
        <ele>1613.9</ele>
        <time>1982-03-26T10:43:29Z</time>
      </trkpt>
      <trkpt lat="43.94766" lon="7.36882">
        <ele>1613.9</ele>
        <time>1982-03-26T10:43:33Z</time>
      </trkpt>
      <trkpt lat="43.94767" lon="7.36882">
        <ele>1612.9</ele>
        <time>1982-03-26T10:43:35Z</time>
      </trkpt>
      <trkpt lat="43.94767" lon="7.36883">
        <ele>1612.9</ele>
        <time>1982-03-26T10:43:36Z</time>
      </trkpt>
      <trkpt lat="43.94767" lon="7.36883">
        <ele>1612.9</ele>
        <time>1982-03-26T10:44:13Z</time>
      </trkpt>
      <trkpt lat="43.94758" lon="7.36879">
        <ele>1615.5</ele>
        <time>1982-03-26T10:44:15Z</time>
      </trkpt>
      <trkpt lat="43.94761" lon="7.36878">
        <ele>1617.8</ele>
        <time>1982-03-26T10:44:18Z</time>
      </trkpt>
      <trkpt lat="43.94762" lon="7.36878">
        <ele>1618.4</ele>
        <time>1982-03-26T10:44:19Z</time>
      </trkpt>
      <trkpt lat="43.94762" lon="7.36878">
        <ele>1618.4</ele>
        <time>1982-03-26T10:44:20Z</time>
      </trkpt>
      <trkpt lat="43.94761" lon="7.36878">
        <ele>1620.1</ele>
        <time>1982-03-26T10:44:22Z</time>
      </trkpt>
      <trkpt lat="43.9476" lon="7.36878">
        <ele>1620.6</ele>
        <time>1982-03-26T10:44:23Z</time>
      </trkpt>
      <trkpt lat="43.9476" lon="7.36879">
        <ele>1620.4</ele>
        <time>1982-03-26T10:44:24Z</time>
      </trkpt>
      <trkpt lat="43.9476" lon="7.36879">
        <ele>1620.4</ele>
        <time>1982-03-26T10:44:33Z</time>
      </trkpt>
      <trkpt lat="43.94755" lon="7.36877">
        <ele>1619.7</ele>
        <time>1982-03-26T10:44:35Z</time>
      </trkpt>
      <trkpt lat="43.94754" lon="7.36877">
        <ele>1619</ele>
        <time>1982-03-26T10:44:36Z</time>
      </trkpt>
      <trkpt lat="43.94753" lon="7.36877">
        <ele>1618.6</ele>
        <time>1982-03-26T10:44:37Z</time>
      </trkpt>
      <trkpt lat="43.94752" lon="7.36876">
        <ele>1618.9</ele>
        <time>1982-03-26T10:44:38Z</time>
      </trkpt>
      <trkpt lat="43.94751" lon="7.36877">
        <ele>1617.5</ele>
        <time>1982-03-26T10:44:39Z</time>
      </trkpt>
      <trkpt lat="43.9475" lon="7.36875">
        <ele>1617.5</ele>
        <time>1982-03-26T10:44:40Z</time>
      </trkpt>
      <trkpt lat="43.94748" lon="7.36875">
        <ele>1616.4</ele>
        <time>1982-03-26T10:44:41Z</time>
      </trkpt>
      <trkpt lat="43.94746" lon="7.36873">
        <ele>1615.5</ele>
        <time>1982-03-26T10:44:42Z</time>
      </trkpt>
      <trkpt lat="43.94744" lon="7.36872">
        <ele>1615.9</ele>
        <time>1982-03-26T10:44:43Z</time>
      </trkpt>
      <trkpt lat="43.94743" lon="7.36869">
        <ele>1616.2</ele>
        <time>1982-03-26T10:44:44Z</time>
      </trkpt>
      <trkpt lat="43.9474" lon="7.36865">
        <ele>1616.2</ele>
        <time>1982-03-26T10:44:45Z</time>
      </trkpt>
      <trkpt lat="43.94739" lon="7.36863">
        <ele>1616.5</ele>
        <time>1982-03-26T10:44:46Z</time>
      </trkpt>
      <trkpt lat="43.94737" lon="7.36863">
        <ele>1616.4</ele>
        <time>1982-03-26T10:44:47Z</time>
      </trkpt>
      <trkpt lat="43.94733" lon="7.36865">
        <ele>1614.6</ele>
        <time>1982-03-26T10:44:48Z</time>
      </trkpt>
      <trkpt lat="43.94727" lon="7.36863">
        <ele>1613.6</ele>
        <time>1982-03-26T10:44:49Z</time>
      </trkpt>
      <trkpt lat="43.94725" lon="7.36861">
        <ele>1613.3</ele>
        <time>1982-03-26T10:44:50Z</time>
      </trkpt>
      <trkpt lat="43.94723" lon="7.3686">
        <ele>1613</ele>
        <time>1982-03-26T10:44:51Z</time>
      </trkpt>
      <trkpt lat="43.94722" lon="7.36859">
        <ele>1612.8</ele>
        <time>1982-03-26T10:44:52Z</time>
      </trkpt>
      <trkpt lat="43.94721" lon="7.36859">
        <ele>1611.3</ele>
        <time>1982-03-26T10:44:53Z</time>
      </trkpt>
      <trkpt lat="43.9472" lon="7.36861">
        <ele>1611</ele>
        <time>1982-03-26T10:44:54Z</time>
      </trkpt>
      <trkpt lat="43.94719" lon="7.3686">
        <ele>1611.2</ele>
        <time>1982-03-26T10:44:55Z</time>
      </trkpt>
      <trkpt lat="43.94719" lon="7.36861">
        <ele>1610.3</ele>
        <time>1982-03-26T10:44:56Z</time>
      </trkpt>
      <trkpt lat="43.94719" lon="7.36861">
        <ele>1610.3</ele>
        <time>1982-03-26T10:44:56Z</time>
      </trkpt>
      <trkpt lat="43.94717" lon="7.3686">
        <ele>1609.2</ele>
        <time>1982-03-26T10:44:58Z</time>
      </trkpt>
      <trkpt lat="43.94715" lon="7.3686">
        <ele>1608.4</ele>
        <time>1982-03-26T10:44:59Z</time>
      </trkpt>
      <trkpt lat="43.94713" lon="7.36859">
        <ele>1607.2</ele>
        <time>1982-03-26T10:45:00Z</time>
      </trkpt>
      <trkpt lat="43.94711" lon="7.36856">
        <ele>1607.3</ele>
        <time>1982-03-26T10:45:01Z</time>
      </trkpt>
      <trkpt lat="43.9471" lon="7.36855">
        <ele>1606.7</ele>
        <time>1982-03-26T10:45:02Z</time>
      </trkpt>
      <trkpt lat="43.94708" lon="7.36854">
        <ele>1606.2</ele>
        <time>1982-03-26T10:45:03Z</time>
      </trkpt>
      <trkpt lat="43.94704" lon="7.36852">
        <ele>1606.7</ele>
        <time>1982-03-26T10:45:04Z</time>
      </trkpt>
      <trkpt lat="43.94698" lon="7.36853">
        <ele>1603.6</ele>
        <time>1982-03-26T10:45:05Z</time>
      </trkpt>
      <trkpt lat="43.94692" lon="7.36853">
        <ele>1602</ele>
        <time>1982-03-26T10:45:06Z</time>
      </trkpt>
      <trkpt lat="43.94686" lon="7.36852">
        <ele>1601</ele>
        <time>1982-03-26T10:45:07Z</time>
      </trkpt>
      <trkpt lat="43.94682" lon="7.3685">
        <ele>1601.2</ele>
        <time>1982-03-26T10:45:08Z</time>
      </trkpt>
      <trkpt lat="43.94677" lon="7.36849">
        <ele>1600.5</ele>
        <time>1982-03-26T10:45:09Z</time>
      </trkpt>
      <trkpt lat="43.94673" lon="7.36848">
        <ele>1600.5</ele>
        <time>1982-03-26T10:45:10Z</time>
      </trkpt>
      <trkpt lat="43.94668" lon="7.36846">
        <ele>1599.5</ele>
        <time>1982-03-26T10:45:11Z</time>
      </trkpt>
      <trkpt lat="43.94664" lon="7.36844">
        <ele>1599.9</ele>
        <time>1982-03-26T10:45:12Z</time>
      </trkpt>
      <trkpt lat="43.9466" lon="7.36843">
        <ele>1599.6</ele>
        <time>1982-03-26T10:45:13Z</time>
      </trkpt>
      <trkpt lat="43.94656" lon="7.36839">
        <ele>1598.6</ele>
        <time>1982-03-26T10:45:14Z</time>
      </trkpt>
      <trkpt lat="43.94648" lon="7.36834">
        <ele>1598.8</ele>
        <time>1982-03-26T10:45:15Z</time>
      </trkpt>
      <trkpt lat="43.94644" lon="7.36835">
        <ele>1598.6</ele>
        <time>1982-03-26T10:45:16Z</time>
      </trkpt>
      <trkpt lat="43.94639" lon="7.36831">
        <ele>1595.4</ele>
        <time>1982-03-26T10:45:17Z</time>
      </trkpt>
      <trkpt lat="43.94636" lon="7.3683">
        <ele>1595</ele>
        <time>1982-03-26T10:45:18Z</time>
      </trkpt>
      <trkpt lat="43.94633" lon="7.36828">
        <ele>1594.9</ele>
        <time>1982-03-26T10:45:19Z</time>
      </trkpt>
      <trkpt lat="43.94628" lon="7.36827">
        <ele>1595.3</ele>
        <time>1982-03-26T10:45:20Z</time>
      </trkpt>
      <trkpt lat="43.94624" lon="7.36826">
        <ele>1595.8</ele>
        <time>1982-03-26T10:45:21Z</time>
      </trkpt>
      <trkpt lat="43.9462" lon="7.36824">
        <ele>1596.1</ele>
        <time>1982-03-26T10:45:22Z</time>
      </trkpt>
      <trkpt lat="43.9461" lon="7.3682">
        <ele>1596.1</ele>
        <time>1982-03-26T10:45:23Z</time>
      </trkpt>
      <trkpt lat="43.94602" lon="7.36817">
        <ele>1595.8</ele>
        <time>1982-03-26T10:45:24Z</time>
      </trkpt>
      <trkpt lat="43.94598" lon="7.36814">
        <ele>1595.3</ele>
        <time>1982-03-26T10:45:25Z</time>
      </trkpt>
      <trkpt lat="43.94591" lon="7.3681">
        <ele>1596.2</ele>
        <time>1982-03-26T10:45:26Z</time>
      </trkpt>
      <trkpt lat="43.94584" lon="7.36808">
        <ele>1596.7</ele>
        <time>1982-03-26T10:45:27Z</time>
      </trkpt>
      <trkpt lat="43.94582" lon="7.36806">
        <ele>1595.3</ele>
        <time>1982-03-26T10:45:28Z</time>
      </trkpt>
      <trkpt lat="43.94578" lon="7.36805">
        <ele>1592.1</ele>
        <time>1982-03-26T10:45:29Z</time>
      </trkpt>
      <trkpt lat="43.94574" lon="7.36805">
        <ele>1589.7</ele>
        <time>1982-03-26T10:45:30Z</time>
      </trkpt>
      <trkpt lat="43.94569" lon="7.36802">
        <ele>1590.2</ele>
        <time>1982-03-26T10:45:31Z</time>
      </trkpt>
      <trkpt lat="43.94564" lon="7.368">
        <ele>1590.9</ele>
        <time>1982-03-26T10:45:32Z</time>
      </trkpt>
      <trkpt lat="43.9456" lon="7.36799">
        <ele>1590.5</ele>
        <time>1982-03-26T10:45:33Z</time>
      </trkpt>
      <trkpt lat="43.94556" lon="7.36796">
        <ele>1590.4</ele>
        <time>1982-03-26T10:45:34Z</time>
      </trkpt>
      <trkpt lat="43.94553" lon="7.36796">
        <ele>1590.5</ele>
        <time>1982-03-26T10:45:35Z</time>
      </trkpt>
      <trkpt lat="43.94546" lon="7.36794">
        <ele>1588.3</ele>
        <time>1982-03-26T10:45:36Z</time>
      </trkpt>
      <trkpt lat="43.94542" lon="7.36793">
        <ele>1587.1</ele>
        <time>1982-03-26T10:45:37Z</time>
      </trkpt>
      <trkpt lat="43.94538" lon="7.36792">
        <ele>1586.8</ele>
        <time>1982-03-26T10:45:38Z</time>
      </trkpt>
      <trkpt lat="43.9453" lon="7.3679">
        <ele>1586</ele>
        <time>1982-03-26T10:45:39Z</time>
      </trkpt>
      <trkpt lat="43.94526" lon="7.36789">
        <ele>1584.8</ele>
        <time>1982-03-26T10:45:40Z</time>
      </trkpt>
      <trkpt lat="43.94522" lon="7.36789">
        <ele>1583.6</ele>
        <time>1982-03-26T10:45:41Z</time>
      </trkpt>
      <trkpt lat="43.94517" lon="7.36786">
        <ele>1582.6</ele>
        <time>1982-03-26T10:45:42Z</time>
      </trkpt>
      <trkpt lat="43.94512" lon="7.36783">
        <ele>1581.9</ele>
        <time>1982-03-26T10:45:43Z</time>
      </trkpt>
      <trkpt lat="43.94508" lon="7.36781">
        <ele>1582</ele>
        <time>1982-03-26T10:45:44Z</time>
      </trkpt>
      <trkpt lat="43.94502" lon="7.36779">
        <ele>1582.6</ele>
        <time>1982-03-26T10:45:45Z</time>
      </trkpt>
      <trkpt lat="43.94495" lon="7.36779">
        <ele>1582.2</ele>
        <time>1982-03-26T10:45:46Z</time>
      </trkpt>
      <trkpt lat="43.94491" lon="7.36777">
        <ele>1582.2</ele>
        <time>1982-03-26T10:45:47Z</time>
      </trkpt>
      <trkpt lat="43.94485" lon="7.36773">
        <ele>1582</ele>
        <time>1982-03-26T10:45:48Z</time>
      </trkpt>
      <trkpt lat="43.9448" lon="7.36771">
        <ele>1581.3</ele>
        <time>1982-03-26T10:45:49Z</time>
      </trkpt>
      <trkpt lat="43.94475" lon="7.36767">
        <ele>1581.2</ele>
        <time>1982-03-26T10:45:50Z</time>
      </trkpt>
      <trkpt lat="43.9447" lon="7.36766">
        <ele>1581.8</ele>
        <time>1982-03-26T10:45:51Z</time>
      </trkpt>
      <trkpt lat="43.94469" lon="7.36765">
        <ele>1582.2</ele>
        <time>1982-03-26T10:45:52Z</time>
      </trkpt>
      <trkpt lat="43.94466" lon="7.36765">
        <ele>1582.3</ele>
        <time>1982-03-26T10:45:54Z</time>
      </trkpt>
      <trkpt lat="43.94461" lon="7.36763">
        <ele>1579.9</ele>
        <time>1982-03-26T10:45:54Z</time>
      </trkpt>
      <trkpt lat="43.94456" lon="7.36762">
        <ele>1579.5</ele>
        <time>1982-03-26T10:45:55Z</time>
      </trkpt>
      <trkpt lat="43.94451" lon="7.3676">
        <ele>1578.8</ele>
        <time>1982-03-26T10:45:56Z</time>
      </trkpt>
      <trkpt lat="43.94448" lon="7.36758">
        <ele>1579.1</ele>
        <time>1982-03-26T10:45:57Z</time>
      </trkpt>
      <trkpt lat="43.94443" lon="7.36757">
        <ele>1580.1</ele>
        <time>1982-03-26T10:45:58Z</time>
      </trkpt>
      <trkpt lat="43.94438" lon="7.36755">
        <ele>1580.1</ele>
        <time>1982-03-26T10:45:59Z</time>
      </trkpt>
      <trkpt lat="43.94433" lon="7.36756">
        <ele>1580.4</ele>
        <time>1982-03-26T10:46:00Z</time>
      </trkpt>
      <trkpt lat="43.94427" lon="7.36756">
        <ele>1580.1</ele>
        <time>1982-03-26T10:46:01Z</time>
      </trkpt>
      <trkpt lat="43.94421" lon="7.36758">
        <ele>1576.9</ele>
        <time>1982-03-26T10:46:02Z</time>
      </trkpt>
      <trkpt lat="43.94415" lon="7.36758">
        <ele>1575.9</ele>
        <time>1982-03-26T10:46:03Z</time>
      </trkpt>
      <trkpt lat="43.94412" lon="7.36759">
        <ele>1575.2</ele>
        <time>1982-03-26T10:46:04Z</time>
      </trkpt>
      <trkpt lat="43.94408" lon="7.36761">
        <ele>1574.4</ele>
        <time>1982-03-26T10:46:05Z</time>
      </trkpt>
      <trkpt lat="43.94406" lon="7.36764">
        <ele>1573</ele>
        <time>1982-03-26T10:46:06Z</time>
      </trkpt>
      <trkpt lat="43.94403" lon="7.36766">
        <ele>1572.1</ele>
        <time>1982-03-26T10:46:07Z</time>
      </trkpt>
      <trkpt lat="43.944" lon="7.36769">
        <ele>1571.6</ele>
        <time>1982-03-26T10:46:08Z</time>
      </trkpt>
      <trkpt lat="43.94393" lon="7.3677">
        <ele>1570.5</ele>
        <time>1982-03-26T10:46:09Z</time>
      </trkpt>
      <trkpt lat="43.94388" lon="7.36771">
        <ele>1570.3</ele>
        <time>1982-03-26T10:46:10Z</time>
      </trkpt>
      <trkpt lat="43.94383" lon="7.36772">
        <ele>1570.6</ele>
        <time>1982-03-26T10:46:11Z</time>
      </trkpt>
      <trkpt lat="43.9438" lon="7.36777">
        <ele>1570.2</ele>
        <time>1982-03-26T10:46:12Z</time>
      </trkpt>
      <trkpt lat="43.94376" lon="7.36781">
        <ele>1570.3</ele>
        <time>1982-03-26T10:46:13Z</time>
      </trkpt>
      <trkpt lat="43.94373" lon="7.36786">
        <ele>1570.4</ele>
        <time>1982-03-26T10:46:14Z</time>
      </trkpt>
      <trkpt lat="43.94371" lon="7.36788">
        <ele>1570.4</ele>
        <time>1982-03-26T10:46:15Z</time>
      </trkpt>
      <trkpt lat="43.94366" lon="7.3679">
        <ele>1570.5</ele>
        <time>1982-03-26T10:46:16Z</time>
      </trkpt>
      <trkpt lat="43.94364" lon="7.36788">
        <ele>1569.6</ele>
        <time>1982-03-26T10:46:17Z</time>
      </trkpt>
      <trkpt lat="43.94359" lon="7.36792">
        <ele>1569.5</ele>
        <time>1982-03-26T10:46:18Z</time>
      </trkpt>
      <trkpt lat="43.94355" lon="7.36795">
        <ele>1569.2</ele>
        <time>1982-03-26T10:46:19Z</time>
      </trkpt>
      <trkpt lat="43.94351" lon="7.36795">
        <ele>1569.2</ele>
        <time>1982-03-26T10:46:20Z</time>
      </trkpt>
      <trkpt lat="43.94347" lon="7.36798">
        <ele>1567.9</ele>
        <time>1982-03-26T10:46:21Z</time>
      </trkpt>
      <trkpt lat="43.94344" lon="7.36801">
        <ele>1568</ele>
        <time>1982-03-26T10:46:22Z</time>
      </trkpt>
      <trkpt lat="43.9434" lon="7.36802">
        <ele>1567.1</ele>
        <time>1982-03-26T10:46:23Z</time>
      </trkpt>
      <trkpt lat="43.94338" lon="7.36806">
        <ele>1565.6</ele>
        <time>1982-03-26T10:46:24Z</time>
      </trkpt>
      <trkpt lat="43.94334" lon="7.3681">
        <ele>1564.4</ele>
        <time>1982-03-26T10:46:25Z</time>
      </trkpt>
      <trkpt lat="43.94331" lon="7.36813">
        <ele>1564</ele>
        <time>1982-03-26T10:46:26Z</time>
      </trkpt>
      <trkpt lat="43.94332" lon="7.36814">
        <ele>1564.3</ele>
        <time>1982-03-26T10:46:27Z</time>
      </trkpt>
      <trkpt lat="43.94332" lon="7.36814">
        <ele>1564.4</ele>
        <time>1982-03-26T10:46:28Z</time>
      </trkpt>
      <trkpt lat="43.94332" lon="7.36814">
        <ele>1564.4</ele>
        <time>1982-03-26T10:46:32Z</time>
      </trkpt>
      <trkpt lat="43.94333" lon="7.36815">
        <ele>1564.6</ele>
        <time>1982-03-26T10:46:34Z</time>
      </trkpt>
      <trkpt lat="43.94333" lon="7.36815">
        <ele>1564.6</ele>
        <time>1982-03-26T10:46:34Z</time>
      </trkpt>
      <trkpt lat="43.94333" lon="7.36816">
        <ele>1565.3</ele>
        <time>1982-03-26T10:46:36Z</time>
      </trkpt>
      <trkpt lat="43.94333" lon="7.36816">
        <ele>1565.3</ele>
        <time>1982-03-26T10:46:37Z</time>
      </trkpt>
      <trkpt lat="43.94332" lon="7.36816">
        <ele>1566.3</ele>
        <time>1982-03-26T10:46:39Z</time>
      </trkpt>
      <trkpt lat="43.94332" lon="7.36816">
        <ele>1566.5</ele>
        <time>1982-03-26T10:46:40Z</time>
      </trkpt>
      <trkpt lat="43.94332" lon="7.36816">
        <ele>1566.5</ele>
        <time>1982-03-26T10:46:42Z</time>
      </trkpt>
      <trkpt lat="43.94331" lon="7.36815">
        <ele>1566.9</ele>
        <time>1982-03-26T10:46:44Z</time>
      </trkpt>
      <trkpt lat="43.94331" lon="7.36815">
        <ele>1567.1</ele>
        <time>1982-03-26T10:46:45Z</time>
      </trkpt>
      <trkpt lat="43.94331" lon="7.36815">
        <ele>1567.1</ele>
        <time>1982-03-26T10:46:45Z</time>
      </trkpt>
      <trkpt lat="43.9433" lon="7.36815">
        <ele>1567.7</ele>
        <time>1982-03-26T10:46:47Z</time>
      </trkpt>
      <trkpt lat="43.9433" lon="7.36814">
        <ele>1568.5</ele>
        <time>1982-03-26T10:46:48Z</time>
      </trkpt>
      <trkpt lat="43.9433" lon="7.36814">
        <ele>1568.5</ele>
        <time>1982-03-26T10:47:34Z</time>
      </trkpt>
      <trkpt lat="43.94327" lon="7.36816">
        <ele>1568.4</ele>
        <time>1982-03-26T10:47:36Z</time>
      </trkpt>
      <trkpt lat="43.94326" lon="7.36817">
        <ele>1568.4</ele>
        <time>1982-03-26T10:47:37Z</time>
      </trkpt>
      <trkpt lat="43.94324" lon="7.3682">
        <ele>1569.3</ele>
        <time>1982-03-26T10:47:38Z</time>
      </trkpt>
      <trkpt lat="43.94323" lon="7.36823">
        <ele>1568.2</ele>
        <time>1982-03-26T10:47:39Z</time>
      </trkpt>
      <trkpt lat="43.94322" lon="7.36825">
        <ele>1568.6</ele>
        <time>1982-03-26T10:47:40Z</time>
      </trkpt>
      <trkpt lat="43.94323" lon="7.36828">
        <ele>1568.7</ele>
        <time>1982-03-26T10:47:41Z</time>
      </trkpt>
      <trkpt lat="43.94325" lon="7.3683">
        <ele>1567</ele>
        <time>1982-03-26T10:47:42Z</time>
      </trkpt>
      <trkpt lat="43.94322" lon="7.36832">
        <ele>1569.2</ele>
        <time>1982-03-26T10:47:43Z</time>
      </trkpt>
      <trkpt lat="43.94322" lon="7.36834">
        <ele>1568.9</ele>
        <time>1982-03-26T10:47:44Z</time>
      </trkpt>
      <trkpt lat="43.94325" lon="7.36836">
        <ele>1568.5</ele>
        <time>1982-03-26T10:47:45Z</time>
      </trkpt>
      <trkpt lat="43.94327" lon="7.36837">
        <ele>1568.3</ele>
        <time>1982-03-26T10:47:46Z</time>
      </trkpt>
      <trkpt lat="43.94328" lon="7.36839">
        <ele>1570.6</ele>
        <time>1982-03-26T10:47:47Z</time>
      </trkpt>
      <trkpt lat="43.94332" lon="7.36839">
        <ele>1569.3</ele>
        <time>1982-03-26T10:47:48Z</time>
      </trkpt>
      <trkpt lat="43.94336" lon="7.36841">
        <ele>1568.5</ele>
        <time>1982-03-26T10:47:49Z</time>
      </trkpt>
      <trkpt lat="43.9434" lon="7.36841">
        <ele>1567.5</ele>
        <time>1982-03-26T10:47:50Z</time>
      </trkpt>
      <trkpt lat="43.94342" lon="7.36845">
        <ele>1566.4</ele>
        <time>1982-03-26T10:47:51Z</time>
      </trkpt>
      <trkpt lat="43.94344" lon="7.36848">
        <ele>1565.6</ele>
        <time>1982-03-26T10:47:52Z</time>
      </trkpt>
      <trkpt lat="43.94347" lon="7.36852">
        <ele>1565.6</ele>
        <time>1982-03-26T10:47:53Z</time>
      </trkpt>
      <trkpt lat="43.9435" lon="7.36856">
        <ele>1564.6</ele>
        <time>1982-03-26T10:47:54Z</time>
      </trkpt>
      <trkpt lat="43.94352" lon="7.3686">
        <ele>1564.1</ele>
        <time>1982-03-26T10:47:55Z</time>
      </trkpt>
      <trkpt lat="43.94356" lon="7.36865">
        <ele>1562.8</ele>
        <time>1982-03-26T10:47:56Z</time>
      </trkpt>
      <trkpt lat="43.94358" lon="7.36869">
        <ele>1562.2</ele>
        <time>1982-03-26T10:47:57Z</time>
      </trkpt>
      <trkpt lat="43.94357" lon="7.36872">
        <ele>1561.7</ele>
        <time>1982-03-26T10:47:58Z</time>
      </trkpt>
      <trkpt lat="43.94357" lon="7.36876">
        <ele>1560.6</ele>
        <time>1982-03-26T10:47:59Z</time>
      </trkpt>
      <trkpt lat="43.94358" lon="7.36881">
        <ele>1559.7</ele>
        <time>1982-03-26T10:48:00Z</time>
      </trkpt>
      <trkpt lat="43.94359" lon="7.36884">
        <ele>1560</ele>
        <time>1982-03-26T10:48:01Z</time>
      </trkpt>
      <trkpt lat="43.94362" lon="7.36891">
        <ele>1559.1</ele>
        <time>1982-03-26T10:48:02Z</time>
      </trkpt>
      <trkpt lat="43.94364" lon="7.36897">
        <ele>1558.3</ele>
        <time>1982-03-26T10:48:03Z</time>
      </trkpt>
      <trkpt lat="43.94363" lon="7.36904">
        <ele>1557.1</ele>
        <time>1982-03-26T10:48:04Z</time>
      </trkpt>
      <trkpt lat="43.94363" lon="7.36911">
        <ele>1555.8</ele>
        <time>1982-03-26T10:48:05Z</time>
      </trkpt>
      <trkpt lat="43.94365" lon="7.36917">
        <ele>1554.6</ele>
        <time>1982-03-26T10:48:06Z</time>
      </trkpt>
      <trkpt lat="43.94367" lon="7.36923">
        <ele>1552.5</ele>
        <time>1982-03-26T10:48:07Z</time>
      </trkpt>
      <trkpt lat="43.94369" lon="7.36931">
        <ele>1551.6</ele>
        <time>1982-03-26T10:48:08Z</time>
      </trkpt>
      <trkpt lat="43.94371" lon="7.36938">
        <ele>1551.2</ele>
        <time>1982-03-26T10:48:09Z</time>
      </trkpt>
      <trkpt lat="43.94373" lon="7.36943">
        <ele>1550.2</ele>
        <time>1982-03-26T10:48:10Z</time>
      </trkpt>
      <trkpt lat="43.94377" lon="7.36948">
        <ele>1549.9</ele>
        <time>1982-03-26T10:48:11Z</time>
      </trkpt>
      <trkpt lat="43.9438" lon="7.36953">
        <ele>1550.5</ele>
        <time>1982-03-26T10:48:12Z</time>
      </trkpt>
      <trkpt lat="43.94382" lon="7.36956">
        <ele>1550.1</ele>
        <time>1982-03-26T10:48:13Z</time>
      </trkpt>
      <trkpt lat="43.94383" lon="7.36959">
        <ele>1550.3</ele>
        <time>1982-03-26T10:48:14Z</time>
      </trkpt>
      <trkpt lat="43.94383" lon="7.36962">
        <ele>1549.7</ele>
        <time>1982-03-26T10:48:15Z</time>
      </trkpt>
      <trkpt lat="43.94382" lon="7.36962">
        <ele>1549.1</ele>
        <time>1982-03-26T10:48:16Z</time>
      </trkpt>
      <trkpt lat="43.9438" lon="7.36961">
        <ele>1548.4</ele>
        <time>1982-03-26T10:48:17Z</time>
      </trkpt>
      <trkpt lat="43.94378" lon="7.36957">
        <ele>1547.9</ele>
        <time>1982-03-26T10:48:18Z</time>
      </trkpt>
      <trkpt lat="43.94376" lon="7.36953">
        <ele>1547.1</ele>
        <time>1982-03-26T10:48:19Z</time>
      </trkpt>
      <trkpt lat="43.94374" lon="7.36949">
        <ele>1546.8</ele>
        <time>1982-03-26T10:48:20Z</time>
      </trkpt>
      <trkpt lat="43.94372" lon="7.36946">
        <ele>1546.6</ele>
        <time>1982-03-26T10:48:21Z</time>
      </trkpt>
      <trkpt lat="43.94371" lon="7.3694">
        <ele>1547</ele>
        <time>1982-03-26T10:48:22Z</time>
      </trkpt>
      <trkpt lat="43.94369" lon="7.36937">
        <ele>1546.9</ele>
        <time>1982-03-26T10:48:23Z</time>
      </trkpt>
      <trkpt lat="43.94367" lon="7.36934">
        <ele>1546.1</ele>
        <time>1982-03-26T10:48:24Z</time>
      </trkpt>
      <trkpt lat="43.94367" lon="7.36927">
        <ele>1545.7</ele>
        <time>1982-03-26T10:48:25Z</time>
      </trkpt>
      <trkpt lat="43.94366" lon="7.36923">
        <ele>1545.9</ele>
        <time>1982-03-26T10:48:26Z</time>
      </trkpt>
      <trkpt lat="43.94352" lon="7.36916">
        <ele>1545.5</ele>
        <time>1982-03-26T10:48:27Z</time>
      </trkpt>
      <trkpt lat="43.94349" lon="7.36913">
        <ele>1545.7</ele>
        <time>1982-03-26T10:48:28Z</time>
      </trkpt>
      <trkpt lat="43.94345" lon="7.3691">
        <ele>1546</ele>
        <time>1982-03-26T10:48:29Z</time>
      </trkpt>
      <trkpt lat="43.94342" lon="7.36915">
        <ele>1543.9</ele>
        <time>1982-03-26T10:48:30Z</time>
      </trkpt>
      <trkpt lat="43.94339" lon="7.36916">
        <ele>1541.7</ele>
        <time>1982-03-26T10:48:31Z</time>
      </trkpt>
      <trkpt lat="43.94334" lon="7.36915">
        <ele>1539.9</ele>
        <time>1982-03-26T10:48:32Z</time>
      </trkpt>
      <trkpt lat="43.9433" lon="7.36916">
        <ele>1538.5</ele>
        <time>1982-03-26T10:48:33Z</time>
      </trkpt>
      <trkpt lat="43.94325" lon="7.36918">
        <ele>1538.5</ele>
        <time>1982-03-26T10:48:34Z</time>
      </trkpt>
      <trkpt lat="43.94316" lon="7.36922">
        <ele>1539.1</ele>
        <time>1982-03-26T10:48:35Z</time>
      </trkpt>
      <trkpt lat="43.94308" lon="7.36927">
        <ele>1540.5</ele>
        <time>1982-03-26T10:48:36Z</time>
      </trkpt>
      <trkpt lat="43.943" lon="7.36933">
        <ele>1539.8</ele>
        <time>1982-03-26T10:48:37Z</time>
      </trkpt>
      <trkpt lat="43.94293" lon="7.36939">
        <ele>1539.6</ele>
        <time>1982-03-26T10:48:38Z</time>
      </trkpt>
      <trkpt lat="43.94291" lon="7.36943">
        <ele>1539.8</ele>
        <time>1982-03-26T10:48:39Z</time>
      </trkpt>
      <trkpt lat="43.9429" lon="7.36948">
        <ele>1539.2</ele>
        <time>1982-03-26T10:48:40Z</time>
      </trkpt>
      <trkpt lat="43.94285" lon="7.36954">
        <ele>1540.3</ele>
        <time>1982-03-26T10:48:41Z</time>
      </trkpt>
      <trkpt lat="43.94279" lon="7.3696">
        <ele>1540.9</ele>
        <time>1982-03-26T10:48:42Z</time>
      </trkpt>
      <trkpt lat="43.94272" lon="7.36965">
        <ele>1540.5</ele>
        <time>1982-03-26T10:48:43Z</time>
      </trkpt>
      <trkpt lat="43.94267" lon="7.36972">
        <ele>1541.3</ele>
        <time>1982-03-26T10:48:44Z</time>
      </trkpt>
      <trkpt lat="43.9426" lon="7.36975">
        <ele>1540.9</ele>
        <time>1982-03-26T10:48:45Z</time>
      </trkpt>
      <trkpt lat="43.94261" lon="7.36979">
        <ele>1541.3</ele>
        <time>1982-03-26T10:48:46Z</time>
      </trkpt>
      <trkpt lat="43.94255" lon="7.36987">
        <ele>1540.5</ele>
        <time>1982-03-26T10:48:47Z</time>
      </trkpt>
      <trkpt lat="43.94248" lon="7.36998">
        <ele>1539.7</ele>
        <time>1982-03-26T10:48:48Z</time>
      </trkpt>
      <trkpt lat="43.94248" lon="7.37007">
        <ele>1539.1</ele>
        <time>1982-03-26T10:48:49Z</time>
      </trkpt>
      <trkpt lat="43.94246" lon="7.37019">
        <ele>1539.1</ele>
        <time>1982-03-26T10:48:50Z</time>
      </trkpt>
      <trkpt lat="43.94244" lon="7.37026">
        <ele>1538.4</ele>
        <time>1982-03-26T10:48:51Z</time>
      </trkpt>
      <trkpt lat="43.94241" lon="7.37035">
        <ele>1537.6</ele>
        <time>1982-03-26T10:48:52Z</time>
      </trkpt>
      <trkpt lat="43.94237" lon="7.37042">
        <ele>1538.8</ele>
        <time>1982-03-26T10:48:53Z</time>
      </trkpt>
      <trkpt lat="43.94235" lon="7.3705">
        <ele>1539.5</ele>
        <time>1982-03-26T10:48:54Z</time>
      </trkpt>
      <trkpt lat="43.94234" lon="7.37058">
        <ele>1539.6</ele>
        <time>1982-03-26T10:48:56Z</time>
      </trkpt>
      <trkpt lat="43.94229" lon="7.37066">
        <ele>1539.4</ele>
        <time>1982-03-26T10:48:56Z</time>
      </trkpt>
      <trkpt lat="43.94226" lon="7.37073">
        <ele>1539</ele>
        <time>1982-03-26T10:48:57Z</time>
      </trkpt>
      <trkpt lat="43.94222" lon="7.37078">
        <ele>1538.8</ele>
        <time>1982-03-26T10:48:58Z</time>
      </trkpt>
      <trkpt lat="43.94216" lon="7.37085">
        <ele>1538.6</ele>
        <time>1982-03-26T10:48:59Z</time>
      </trkpt>
      <trkpt lat="43.94212" lon="7.37091">
        <ele>1538.1</ele>
        <time>1982-03-26T10:49:00Z</time>
      </trkpt>
      <trkpt lat="43.94206" lon="7.37095">
        <ele>1538.1</ele>
        <time>1982-03-26T10:49:01Z</time>
      </trkpt>
      <trkpt lat="43.94202" lon="7.37099">
        <ele>1537.1</ele>
        <time>1982-03-26T10:49:02Z</time>
      </trkpt>
      <trkpt lat="43.94197" lon="7.37102">
        <ele>1537.9</ele>
        <time>1982-03-26T10:49:03Z</time>
      </trkpt>
      <trkpt lat="43.94194" lon="7.37103">
        <ele>1538.9</ele>
        <time>1982-03-26T10:49:04Z</time>
      </trkpt>
      <trkpt lat="43.9419" lon="7.37105">
        <ele>1538.2</ele>
        <time>1982-03-26T10:49:05Z</time>
      </trkpt>
      <trkpt lat="43.94189" lon="7.37107">
        <ele>1538.4</ele>
        <time>1982-03-26T10:49:06Z</time>
      </trkpt>
      <trkpt lat="43.94185" lon="7.37109">
        <ele>1538.1</ele>
        <time>1982-03-26T10:49:07Z</time>
      </trkpt>
      <trkpt lat="43.94182" lon="7.37113">
        <ele>1538.7</ele>
        <time>1982-03-26T10:49:08Z</time>
      </trkpt>
      <trkpt lat="43.94179" lon="7.37115">
        <ele>1537.6</ele>
        <time>1982-03-26T10:49:09Z</time>
      </trkpt>
      <trkpt lat="43.94175" lon="7.37118">
        <ele>1538</ele>
        <time>1982-03-26T10:49:10Z</time>
      </trkpt>
      <trkpt lat="43.94175" lon="7.37121">
        <ele>1538.6</ele>
        <time>1982-03-26T10:49:11Z</time>
      </trkpt>
      <trkpt lat="43.9417" lon="7.37123">
        <ele>1539</ele>
        <time>1982-03-26T10:49:12Z</time>
      </trkpt>
      <trkpt lat="43.94166" lon="7.37125">
        <ele>1538.6</ele>
        <time>1982-03-26T10:49:13Z</time>
      </trkpt>
      <trkpt lat="43.94162" lon="7.37126">
        <ele>1538.5</ele>
        <time>1982-03-26T10:49:14Z</time>
      </trkpt>
      <trkpt lat="43.94157" lon="7.37126">
        <ele>1537.2</ele>
        <time>1982-03-26T10:49:15Z</time>
      </trkpt>
      <trkpt lat="43.94155" lon="7.37127">
        <ele>1536.9</ele>
        <time>1982-03-26T10:49:16Z</time>
      </trkpt>
      <trkpt lat="43.94151" lon="7.37128">
        <ele>1537</ele>
        <time>1982-03-26T10:49:17Z</time>
      </trkpt>
      <trkpt lat="43.94148" lon="7.3713">
        <ele>1537.8</ele>
        <time>1982-03-26T10:49:18Z</time>
      </trkpt>
      <trkpt lat="43.94144" lon="7.37132">
        <ele>1537.7</ele>
        <time>1982-03-26T10:49:19Z</time>
      </trkpt>
      <trkpt lat="43.94141" lon="7.37132">
        <ele>1537.8</ele>
        <time>1982-03-26T10:49:20Z</time>
      </trkpt>
      <trkpt lat="43.94139" lon="7.37134">
        <ele>1538.8</ele>
        <time>1982-03-26T10:49:21Z</time>
      </trkpt>
      <trkpt lat="43.94137" lon="7.37134">
        <ele>1538.7</ele>
        <time>1982-03-26T10:49:22Z</time>
      </trkpt>
      <trkpt lat="43.94135" lon="7.37133">
        <ele>1538.6</ele>
        <time>1982-03-26T10:49:23Z</time>
      </trkpt>
      <trkpt lat="43.94133" lon="7.37133">
        <ele>1537.4</ele>
        <time>1982-03-26T10:49:24Z</time>
      </trkpt>
      <trkpt lat="43.94131" lon="7.37133">
        <ele>1537.4</ele>
        <time>1982-03-26T10:49:25Z</time>
      </trkpt>
      <trkpt lat="43.94128" lon="7.37132">
        <ele>1537.4</ele>
        <time>1982-03-26T10:49:26Z</time>
      </trkpt>
      <trkpt lat="43.94126" lon="7.37131">
        <ele>1537.2</ele>
        <time>1982-03-26T10:49:27Z</time>
      </trkpt>
      <trkpt lat="43.94125" lon="7.3713">
        <ele>1536.1</ele>
        <time>1982-03-26T10:49:28Z</time>
      </trkpt>
      <trkpt lat="43.94124" lon="7.37129">
        <ele>1535.6</ele>
        <time>1982-03-26T10:49:29Z</time>
      </trkpt>
      <trkpt lat="43.94123" lon="7.37128">
        <ele>1534.1</ele>
        <time>1982-03-26T10:49:30Z</time>
      </trkpt>
      <trkpt lat="43.9412" lon="7.37128">
        <ele>1533.3</ele>
        <time>1982-03-26T10:49:31Z</time>
      </trkpt>
      <trkpt lat="43.94119" lon="7.37127">
        <ele>1532.8</ele>
        <time>1982-03-26T10:49:32Z</time>
      </trkpt>
      <trkpt lat="43.94117" lon="7.37126">
        <ele>1532.1</ele>
        <time>1982-03-26T10:49:33Z</time>
      </trkpt>
      <trkpt lat="43.9412" lon="7.37128">
        <ele>1533.4</ele>
        <time>1982-03-26T10:49:34Z</time>
      </trkpt>
      <trkpt lat="43.9412" lon="7.37128">
        <ele>1534</ele>
        <time>1982-03-26T10:49:35Z</time>
      </trkpt>
      <trkpt lat="43.9412" lon="7.37128">
        <ele>1534</ele>
        <time>1982-03-26T10:49:35Z</time>
      </trkpt>
      <trkpt lat="43.9412" lon="7.37128">
        <ele>1534.4</ele>
        <time>1982-03-26T10:49:37Z</time>
      </trkpt>
      <trkpt lat="43.9412" lon="7.37128">
        <ele>1534.4</ele>
        <time>1982-03-26T10:49:38Z</time>
      </trkpt>
      <trkpt lat="43.9412" lon="7.37127">
        <ele>1535.1</ele>
        <time>1982-03-26T10:49:40Z</time>
      </trkpt>
      <trkpt lat="43.9412" lon="7.37127">
        <ele>1535.1</ele>
        <time>1982-03-26T10:49:41Z</time>
      </trkpt>
      <trkpt lat="43.9412" lon="7.37127">
        <ele>1535.8</ele>
        <time>1982-03-26T10:49:43Z</time>
      </trkpt>
      <trkpt lat="43.9412" lon="7.37127">
        <ele>1535.8</ele>
        <time>1982-03-26T10:49:43Z</time>
      </trkpt>
      <trkpt lat="43.9412" lon="7.37127">
        <ele>1536.4</ele>
        <time>1982-03-26T10:49:45Z</time>
      </trkpt>
      <trkpt lat="43.9412" lon="7.37127">
        <ele>1536.4</ele>
        <time>1982-03-26T10:49:47Z</time>
      </trkpt>
      <trkpt lat="43.9412" lon="7.37127">
        <ele>1536.4</ele>
        <time>1982-03-26T10:49:49Z</time>
      </trkpt>
      <trkpt lat="43.9412" lon="7.37127">
        <ele>1536.4</ele>
        <time>1982-03-26T10:49:53Z</time>
      </trkpt>
      <trkpt lat="43.94117" lon="7.37128">
        <ele>1535.7</ele>
        <time>1982-03-26T10:49:55Z</time>
      </trkpt>
      <trkpt lat="43.94113" lon="7.37128">
        <ele>1535.5</ele>
        <time>1982-03-26T10:49:56Z</time>
      </trkpt>
      <trkpt lat="43.94109" lon="7.37127">
        <ele>1535</ele>
        <time>1982-03-26T10:49:57Z</time>
      </trkpt>
      <trkpt lat="43.94105" lon="7.37127">
        <ele>1533.2</ele>
        <time>1982-03-26T10:49:58Z</time>
      </trkpt>
      <trkpt lat="43.941" lon="7.37127">
        <ele>1532.5</ele>
        <time>1982-03-26T10:49:59Z</time>
      </trkpt>
      <trkpt lat="43.94095" lon="7.37127">
        <ele>1531.4</ele>
        <time>1982-03-26T10:50:00Z</time>
      </trkpt>
      <trkpt lat="43.94091" lon="7.37128">
        <ele>1530.7</ele>
        <time>1982-03-26T10:50:01Z</time>
      </trkpt>
      <trkpt lat="43.94085" lon="7.3713">
        <ele>1530.8</ele>
        <time>1982-03-26T10:50:02Z</time>
      </trkpt>
      <trkpt lat="43.94083" lon="7.37139">
        <ele>1531.3</ele>
        <time>1982-03-26T10:50:03Z</time>
      </trkpt>
      <trkpt lat="43.9408" lon="7.37145">
        <ele>1531</ele>
        <time>1982-03-26T10:50:04Z</time>
      </trkpt>
      <trkpt lat="43.94078" lon="7.3715">
        <ele>1531.3</ele>
        <time>1982-03-26T10:50:05Z</time>
      </trkpt>
      <trkpt lat="43.94074" lon="7.37158">
        <ele>1530.9</ele>
        <time>1982-03-26T10:50:06Z</time>
      </trkpt>
      <trkpt lat="43.94075" lon="7.37169">
        <ele>1530.2</ele>
        <time>1982-03-26T10:50:07Z</time>
      </trkpt>
      <trkpt lat="43.94072" lon="7.37178">
        <ele>1530</ele>
        <time>1982-03-26T10:50:08Z</time>
      </trkpt>
      <trkpt lat="43.94071" lon="7.37187">
        <ele>1530.3</ele>
        <time>1982-03-26T10:50:09Z</time>
      </trkpt>
      <trkpt lat="43.94068" lon="7.37197">
        <ele>1531.1</ele>
        <time>1982-03-26T10:50:10Z</time>
      </trkpt>
      <trkpt lat="43.94066" lon="7.37205">
        <ele>1531.1</ele>
        <time>1982-03-26T10:50:11Z</time>
      </trkpt>
      <trkpt lat="43.94063" lon="7.37217">
        <ele>1531.6</ele>
        <time>1982-03-26T10:50:12Z</time>
      </trkpt>
      <trkpt lat="43.94064" lon="7.37227">
        <ele>1531.8</ele>
        <time>1982-03-26T10:50:13Z</time>
      </trkpt>
      <trkpt lat="43.94063" lon="7.37237">
        <ele>1531.5</ele>
        <time>1982-03-26T10:50:14Z</time>
      </trkpt>
      <trkpt lat="43.94062" lon="7.37248">
        <ele>1531.5</ele>
        <time>1982-03-26T10:50:15Z</time>
      </trkpt>
      <trkpt lat="43.94061" lon="7.37258">
        <ele>1531.3</ele>
        <time>1982-03-26T10:50:16Z</time>
      </trkpt>
      <trkpt lat="43.94067" lon="7.37262">
        <ele>1529.7</ele>
        <time>1982-03-26T10:50:17Z</time>
      </trkpt>
      <trkpt lat="43.94065" lon="7.37276">
        <ele>1528.3</ele>
        <time>1982-03-26T10:50:18Z</time>
      </trkpt>
      <trkpt lat="43.94064" lon="7.37283">
        <ele>1528.1</ele>
        <time>1982-03-26T10:50:19Z</time>
      </trkpt>
      <trkpt lat="43.94066" lon="7.3729">
        <ele>1526.8</ele>
        <time>1982-03-26T10:50:20Z</time>
      </trkpt>
      <trkpt lat="43.94063" lon="7.37299">
        <ele>1524.7</ele>
        <time>1982-03-26T10:50:21Z</time>
      </trkpt>
      <trkpt lat="43.94059" lon="7.37308">
        <ele>1522.8</ele>
        <time>1982-03-26T10:50:22Z</time>
      </trkpt>
      <trkpt lat="43.94056" lon="7.37318">
        <ele>1521.2</ele>
        <time>1982-03-26T10:50:23Z</time>
      </trkpt>
      <trkpt lat="43.94054" lon="7.37329">
        <ele>1520.4</ele>
        <time>1982-03-26T10:50:24Z</time>
      </trkpt>
      <trkpt lat="43.94051" lon="7.37339">
        <ele>1521.2</ele>
        <time>1982-03-26T10:50:25Z</time>
      </trkpt>
      <trkpt lat="43.94048" lon="7.37347">
        <ele>1519.6</ele>
        <time>1982-03-26T10:50:26Z</time>
      </trkpt>
      <trkpt lat="43.94047" lon="7.37357">
        <ele>1519.3</ele>
        <time>1982-03-26T10:50:27Z</time>
      </trkpt>
      <trkpt lat="43.94047" lon="7.37367">
        <ele>1519</ele>
        <time>1982-03-26T10:50:28Z</time>
      </trkpt>
      <trkpt lat="43.94047" lon="7.37377">
        <ele>1517.7</ele>
        <time>1982-03-26T10:50:29Z</time>
      </trkpt>
      <trkpt lat="43.94047" lon="7.37385">
        <ele>1517.4</ele>
        <time>1982-03-26T10:50:30Z</time>
      </trkpt>
      <trkpt lat="43.94048" lon="7.37395">
        <ele>1516.9</ele>
        <time>1982-03-26T10:50:31Z</time>
      </trkpt>
      <trkpt lat="43.94052" lon="7.37404">
        <ele>1516.1</ele>
        <time>1982-03-26T10:50:32Z</time>
      </trkpt>
      <trkpt lat="43.9405" lon="7.37409">
        <ele>1515</ele>
        <time>1982-03-26T10:50:33Z</time>
      </trkpt>
      <trkpt lat="43.94051" lon="7.37417">
        <ele>1515.3</ele>
        <time>1982-03-26T10:50:34Z</time>
      </trkpt>
      <trkpt lat="43.94051" lon="7.37425">
        <ele>1513.9</ele>
        <time>1982-03-26T10:50:35Z</time>
      </trkpt>
      <trkpt lat="43.94051" lon="7.37433">
        <ele>1512.9</ele>
        <time>1982-03-26T10:50:36Z</time>
      </trkpt>
      <trkpt lat="43.94052" lon="7.37439">
        <ele>1512.5</ele>
        <time>1982-03-26T10:50:37Z</time>
      </trkpt>
      <trkpt lat="43.94053" lon="7.37442">
        <ele>1512.2</ele>
        <time>1982-03-26T10:50:38Z</time>
      </trkpt>
      <trkpt lat="43.94054" lon="7.37443">
        <ele>1511.9</ele>
        <time>1982-03-26T10:50:39Z</time>
      </trkpt>
      <trkpt lat="43.94061" lon="7.37438">
        <ele>1510.4</ele>
        <time>1982-03-26T10:50:41Z</time>
      </trkpt>
      <trkpt lat="43.94064" lon="7.37436">
        <ele>1510.7</ele>
        <time>1982-03-26T10:50:42Z</time>
      </trkpt>
      <trkpt lat="43.94065" lon="7.37429">
        <ele>1511.3</ele>
        <time>1982-03-26T10:50:43Z</time>
      </trkpt>
      <trkpt lat="43.94067" lon="7.37424">
        <ele>1511.4</ele>
        <time>1982-03-26T10:50:44Z</time>
      </trkpt>
      <trkpt lat="43.94068" lon="7.37419">
        <ele>1510.8</ele>
        <time>1982-03-26T10:50:45Z</time>
      </trkpt>
      <trkpt lat="43.94073" lon="7.3741">
        <ele>1509.2</ele>
        <time>1982-03-26T10:50:46Z</time>
      </trkpt>
      <trkpt lat="43.94076" lon="7.374">
        <ele>1507.3</ele>
        <time>1982-03-26T10:50:47Z</time>
      </trkpt>
      <trkpt lat="43.94078" lon="7.37392">
        <ele>1506.3</ele>
        <time>1982-03-26T10:50:48Z</time>
      </trkpt>
      <trkpt lat="43.9408" lon="7.37382">
        <ele>1506.3</ele>
        <time>1982-03-26T10:50:49Z</time>
      </trkpt>
      <trkpt lat="43.94082" lon="7.37373">
        <ele>1504.9</ele>
        <time>1982-03-26T10:50:50Z</time>
      </trkpt>
      <trkpt lat="43.94085" lon="7.37363">
        <ele>1503.7</ele>
        <time>1982-03-26T10:50:51Z</time>
      </trkpt>
      <trkpt lat="43.94087" lon="7.37353">
        <ele>1503</ele>
        <time>1982-03-26T10:50:52Z</time>
      </trkpt>
      <trkpt lat="43.94091" lon="7.37342">
        <ele>1501.7</ele>
        <time>1982-03-26T10:50:53Z</time>
      </trkpt>
      <trkpt lat="43.94095" lon="7.37337">
        <ele>1501</ele>
        <time>1982-03-26T10:50:54Z</time>
      </trkpt>
      <trkpt lat="43.94097" lon="7.37329">
        <ele>1501</ele>
        <time>1982-03-26T10:50:55Z</time>
      </trkpt>
      <trkpt lat="43.94099" lon="7.37321">
        <ele>1500.1</ele>
        <time>1982-03-26T10:50:56Z</time>
      </trkpt>
      <trkpt lat="43.94101" lon="7.37315">
        <ele>1499.3</ele>
        <time>1982-03-26T10:50:57Z</time>
      </trkpt>
      <trkpt lat="43.94104" lon="7.37308">
        <ele>1499.2</ele>
        <time>1982-03-26T10:50:58Z</time>
      </trkpt>
      <trkpt lat="43.94108" lon="7.37301">
        <ele>1498.6</ele>
        <time>1982-03-26T10:50:59Z</time>
      </trkpt>
      <trkpt lat="43.94108" lon="7.37291">
        <ele>1497.1</ele>
        <time>1982-03-26T10:51:00Z</time>
      </trkpt>
      <trkpt lat="43.94109" lon="7.37283">
        <ele>1496.1</ele>
        <time>1982-03-26T10:51:01Z</time>
      </trkpt>
      <trkpt lat="43.94109" lon="7.37272">
        <ele>1495.2</ele>
        <time>1982-03-26T10:51:02Z</time>
      </trkpt>
      <trkpt lat="43.9411" lon="7.37262">
        <ele>1495</ele>
        <time>1982-03-26T10:51:03Z</time>
      </trkpt>
      <trkpt lat="43.9411" lon="7.37253">
        <ele>1494.7</ele>
        <time>1982-03-26T10:51:04Z</time>
      </trkpt>
      <trkpt lat="43.94111" lon="7.37245">
        <ele>1495.7</ele>
        <time>1982-03-26T10:51:05Z</time>
      </trkpt>
      <trkpt lat="43.9411" lon="7.3724">
        <ele>1496</ele>
        <time>1982-03-26T10:51:06Z</time>
      </trkpt>
      <trkpt lat="43.94108" lon="7.37236">
        <ele>1497.5</ele>
        <time>1982-03-26T10:51:07Z</time>
      </trkpt>
      <trkpt lat="43.94111" lon="7.37229">
        <ele>1496.8</ele>
        <time>1982-03-26T10:51:08Z</time>
      </trkpt>
      <trkpt lat="43.94115" lon="7.37232">
        <ele>1495.8</ele>
        <time>1982-03-26T10:51:09Z</time>
      </trkpt>
      <trkpt lat="43.94117" lon="7.37231">
        <ele>1495.8</ele>
        <time>1982-03-26T10:51:10Z</time>
      </trkpt>
      <trkpt lat="43.94117" lon="7.37236">
        <ele>1493.4</ele>
        <time>1982-03-26T10:51:11Z</time>
      </trkpt>
      <trkpt lat="43.94118" lon="7.37241">
        <ele>1491.9</ele>
        <time>1982-03-26T10:51:12Z</time>
      </trkpt>
      <trkpt lat="43.94118" lon="7.37248">
        <ele>1490.3</ele>
        <time>1982-03-26T10:51:13Z</time>
      </trkpt>
      <trkpt lat="43.94115" lon="7.37256">
        <ele>1488.5</ele>
        <time>1982-03-26T10:51:14Z</time>
      </trkpt>
      <trkpt lat="43.94117" lon="7.37263">
        <ele>1487.9</ele>
        <time>1982-03-26T10:51:15Z</time>
      </trkpt>
      <trkpt lat="43.94117" lon="7.37269">
        <ele>1485.9</ele>
        <time>1982-03-26T10:51:16Z</time>
      </trkpt>
      <trkpt lat="43.94119" lon="7.37276">
        <ele>1485.5</ele>
        <time>1982-03-26T10:51:17Z</time>
      </trkpt>
      <trkpt lat="43.94121" lon="7.37283">
        <ele>1484.8</ele>
        <time>1982-03-26T10:51:18Z</time>
      </trkpt>
      <trkpt lat="43.94125" lon="7.37288">
        <ele>1483.5</ele>
        <time>1982-03-26T10:51:19Z</time>
      </trkpt>
      <trkpt lat="43.94129" lon="7.37295">
        <ele>1483</ele>
        <time>1982-03-26T10:51:20Z</time>
      </trkpt>
      <trkpt lat="43.94131" lon="7.37301">
        <ele>1482.7</ele>
        <time>1982-03-26T10:51:21Z</time>
      </trkpt>
      <trkpt lat="43.94134" lon="7.37307">
        <ele>1482.6</ele>
        <time>1982-03-26T10:51:22Z</time>
      </trkpt>
      <trkpt lat="43.94135" lon="7.37318">
        <ele>1481.4</ele>
        <time>1982-03-26T10:51:23Z</time>
      </trkpt>
      <trkpt lat="43.94137" lon="7.3733">
        <ele>1480.3</ele>
        <time>1982-03-26T10:51:24Z</time>
      </trkpt>
      <trkpt lat="43.94134" lon="7.37339">
        <ele>1479.2</ele>
        <time>1982-03-26T10:51:25Z</time>
      </trkpt>
      <trkpt lat="43.94134" lon="7.37348">
        <ele>1479</ele>
        <time>1982-03-26T10:51:26Z</time>
      </trkpt>
      <trkpt lat="43.94136" lon="7.37358">
        <ele>1478.3</ele>
        <time>1982-03-26T10:51:27Z</time>
      </trkpt>
      <trkpt lat="43.94133" lon="7.37367">
        <ele>1477.8</ele>
        <time>1982-03-26T10:51:28Z</time>
      </trkpt>
      <trkpt lat="43.94132" lon="7.37376">
        <ele>1478.1</ele>
        <time>1982-03-26T10:51:29Z</time>
      </trkpt>
      <trkpt lat="43.9413" lon="7.3738">
        <ele>1477</ele>
        <time>1982-03-26T10:51:30Z</time>
      </trkpt>
      <trkpt lat="43.9413" lon="7.37387">
        <ele>1474.9</ele>
        <time>1982-03-26T10:51:31Z</time>
      </trkpt>
      <trkpt lat="43.9413" lon="7.37391">
        <ele>1474.6</ele>
        <time>1982-03-26T10:51:32Z</time>
      </trkpt>
      <trkpt lat="43.94133" lon="7.37394">
        <ele>1473.6</ele>
        <time>1982-03-26T10:51:33Z</time>
      </trkpt>
      <trkpt lat="43.94135" lon="7.37395">
        <ele>1473.5</ele>
        <time>1982-03-26T10:51:34Z</time>
      </trkpt>
      <trkpt lat="43.94137" lon="7.37395">
        <ele>1473</ele>
        <time>1982-03-26T10:51:35Z</time>
      </trkpt>
      <trkpt lat="43.9414" lon="7.37393">
        <ele>1472.2</ele>
        <time>1982-03-26T10:51:36Z</time>
      </trkpt>
      <trkpt lat="43.94142" lon="7.3739">
        <ele>1472.3</ele>
        <time>1982-03-26T10:51:37Z</time>
      </trkpt>
      <trkpt lat="43.94142" lon="7.37386">
        <ele>1471.3</ele>
        <time>1982-03-26T10:51:38Z</time>
      </trkpt>
      <trkpt lat="43.94142" lon="7.37381">
        <ele>1471.1</ele>
        <time>1982-03-26T10:51:39Z</time>
      </trkpt>
      <trkpt lat="43.94141" lon="7.37377">
        <ele>1470.8</ele>
        <time>1982-03-26T10:51:40Z</time>
      </trkpt>
      <trkpt lat="43.9414" lon="7.37371">
        <ele>1469.7</ele>
        <time>1982-03-26T10:51:41Z</time>
      </trkpt>
      <trkpt lat="43.9414" lon="7.37366">
        <ele>1469.7</ele>
        <time>1982-03-26T10:51:42Z</time>
      </trkpt>
      <trkpt lat="43.94139" lon="7.3736">
        <ele>1469.7</ele>
        <time>1982-03-26T10:51:43Z</time>
      </trkpt>
      <trkpt lat="43.94136" lon="7.37356">
        <ele>1468.7</ele>
        <time>1982-03-26T10:51:44Z</time>
      </trkpt>
      <trkpt lat="43.94135" lon="7.37348">
        <ele>1468.4</ele>
        <time>1982-03-26T10:51:45Z</time>
      </trkpt>
      <trkpt lat="43.94135" lon="7.37341">
        <ele>1467.7</ele>
        <time>1982-03-26T10:51:46Z</time>
      </trkpt>
      <trkpt lat="43.94135" lon="7.37333">
        <ele>1467.5</ele>
        <time>1982-03-26T10:51:47Z</time>
      </trkpt>
      <trkpt lat="43.94135" lon="7.37328">
        <ele>1467.7</ele>
        <time>1982-03-26T10:51:48Z</time>
      </trkpt>
      <trkpt lat="43.94138" lon="7.37325">
        <ele>1467.8</ele>
        <time>1982-03-26T10:51:49Z</time>
      </trkpt>
      <trkpt lat="43.94139" lon="7.37322">
        <ele>1468.1</ele>
        <time>1982-03-26T10:51:51Z</time>
      </trkpt>
      <trkpt lat="43.94143" lon="7.37324">
        <ele>1468.7</ele>
        <time>1982-03-26T10:51:51Z</time>
      </trkpt>
      <trkpt lat="43.94147" lon="7.37326">
        <ele>1468.6</ele>
        <time>1982-03-26T10:51:52Z</time>
      </trkpt>
      <trkpt lat="43.94149" lon="7.37329">
        <ele>1468.3</ele>
        <time>1982-03-26T10:51:53Z</time>
      </trkpt>
      <trkpt lat="43.94151" lon="7.37335">
        <ele>1467.8</ele>
        <time>1982-03-26T10:51:54Z</time>
      </trkpt>
      <trkpt lat="43.94152" lon="7.3734">
        <ele>1467.5</ele>
        <time>1982-03-26T10:51:55Z</time>
      </trkpt>
      <trkpt lat="43.9415" lon="7.37347">
        <ele>1466.6</ele>
        <time>1982-03-26T10:51:56Z</time>
      </trkpt>
      <trkpt lat="43.94149" lon="7.3735">
        <ele>1465.8</ele>
        <time>1982-03-26T10:51:57Z</time>
      </trkpt>
      <trkpt lat="43.9415" lon="7.37356">
        <ele>1465</ele>
        <time>1982-03-26T10:51:58Z</time>
      </trkpt>
      <trkpt lat="43.9415" lon="7.3736">
        <ele>1464.3</ele>
        <time>1982-03-26T10:51:59Z</time>
      </trkpt>
      <trkpt lat="43.9415" lon="7.37365">
        <ele>1463.2</ele>
        <time>1982-03-26T10:52:00Z</time>
      </trkpt>
      <trkpt lat="43.94153" lon="7.3737">
        <ele>1462.8</ele>
        <time>1982-03-26T10:52:01Z</time>
      </trkpt>
      <trkpt lat="43.94157" lon="7.37375">
        <ele>1462.4</ele>
        <time>1982-03-26T10:52:02Z</time>
      </trkpt>
      <trkpt lat="43.94157" lon="7.3738">
        <ele>1461.4</ele>
        <time>1982-03-26T10:52:03Z</time>
      </trkpt>
      <trkpt lat="43.94156" lon="7.37384">
        <ele>1460.1</ele>
        <time>1982-03-26T10:52:04Z</time>
      </trkpt>
      <trkpt lat="43.94157" lon="7.37391">
        <ele>1459</ele>
        <time>1982-03-26T10:52:05Z</time>
      </trkpt>
      <trkpt lat="43.94156" lon="7.37396">
        <ele>1458</ele>
        <time>1982-03-26T10:52:06Z</time>
      </trkpt>
      <trkpt lat="43.94154" lon="7.37404">
        <ele>1458.6</ele>
        <time>1982-03-26T10:52:07Z</time>
      </trkpt>
      <trkpt lat="43.94149" lon="7.37411">
        <ele>1459.5</ele>
        <time>1982-03-26T10:52:08Z</time>
      </trkpt>
      <trkpt lat="43.94146" lon="7.37417">
        <ele>1459.6</ele>
        <time>1982-03-26T10:52:09Z</time>
      </trkpt>
      <trkpt lat="43.94142" lon="7.37423">
        <ele>1459</ele>
        <time>1982-03-26T10:52:10Z</time>
      </trkpt>
      <trkpt lat="43.94141" lon="7.37429">
        <ele>1457.6</ele>
        <time>1982-03-26T10:52:11Z</time>
      </trkpt>
      <trkpt lat="43.94138" lon="7.37438">
        <ele>1456.9</ele>
        <time>1982-03-26T10:52:12Z</time>
      </trkpt>
      <trkpt lat="43.94136" lon="7.37445">
        <ele>1457.3</ele>
        <time>1982-03-26T10:52:13Z</time>
      </trkpt>
      <trkpt lat="43.94135" lon="7.37453">
        <ele>1456.9</ele>
        <time>1982-03-26T10:52:14Z</time>
      </trkpt>
      <trkpt lat="43.94132" lon="7.37466">
        <ele>1457.2</ele>
        <time>1982-03-26T10:52:15Z</time>
      </trkpt>
      <trkpt lat="43.94132" lon="7.37477">
        <ele>1456.8</ele>
        <time>1982-03-26T10:52:16Z</time>
      </trkpt>
      <trkpt lat="43.94131" lon="7.37485">
        <ele>1455.9</ele>
        <time>1982-03-26T10:52:17Z</time>
      </trkpt>
      <trkpt lat="43.94131" lon="7.37493">
        <ele>1455.4</ele>
        <time>1982-03-26T10:52:18Z</time>
      </trkpt>
      <trkpt lat="43.94128" lon="7.375">
        <ele>1454.4</ele>
        <time>1982-03-26T10:52:19Z</time>
      </trkpt>
      <trkpt lat="43.94127" lon="7.37509">
        <ele>1453.6</ele>
        <time>1982-03-26T10:52:20Z</time>
      </trkpt>
      <trkpt lat="43.94127" lon="7.37517">
        <ele>1453.2</ele>
        <time>1982-03-26T10:52:21Z</time>
      </trkpt>
      <trkpt lat="43.94127" lon="7.37526">
        <ele>1452.2</ele>
        <time>1982-03-26T10:52:22Z</time>
      </trkpt>
      <trkpt lat="43.94127" lon="7.37533">
        <ele>1452</ele>
        <time>1982-03-26T10:52:23Z</time>
      </trkpt>
      <trkpt lat="43.94126" lon="7.37538">
        <ele>1452.2</ele>
        <time>1982-03-26T10:52:24Z</time>
      </trkpt>
      <trkpt lat="43.94121" lon="7.37545">
        <ele>1450.8</ele>
        <time>1982-03-26T10:52:25Z</time>
      </trkpt>
      <trkpt lat="43.94117" lon="7.37552">
        <ele>1449.6</ele>
        <time>1982-03-26T10:52:26Z</time>
      </trkpt>
      <trkpt lat="43.94114" lon="7.37558">
        <ele>1448.8</ele>
        <time>1982-03-26T10:52:27Z</time>
      </trkpt>
      <trkpt lat="43.94111" lon="7.37562">
        <ele>1448.4</ele>
        <time>1982-03-26T10:52:28Z</time>
      </trkpt>
      <trkpt lat="43.94108" lon="7.37567">
        <ele>1447.7</ele>
        <time>1982-03-26T10:52:29Z</time>
      </trkpt>
      <trkpt lat="43.94101" lon="7.37566">
        <ele>1447.4</ele>
        <time>1982-03-26T10:52:30Z</time>
      </trkpt>
      <trkpt lat="43.94094" lon="7.37568">
        <ele>1446</ele>
        <time>1982-03-26T10:52:31Z</time>
      </trkpt>
      <trkpt lat="43.9409" lon="7.37569">
        <ele>1445.6</ele>
        <time>1982-03-26T10:52:32Z</time>
      </trkpt>
      <trkpt lat="43.94083" lon="7.37569">
        <ele>1444.4</ele>
        <time>1982-03-26T10:52:33Z</time>
      </trkpt>
      <trkpt lat="43.94079" lon="7.37567">
        <ele>1443.6</ele>
        <time>1982-03-26T10:52:34Z</time>
      </trkpt>
      <trkpt lat="43.94073" lon="7.37565">
        <ele>1443.1</ele>
        <time>1982-03-26T10:52:35Z</time>
      </trkpt>
      <trkpt lat="43.94066" lon="7.37563">
        <ele>1442.7</ele>
        <time>1982-03-26T10:52:36Z</time>
      </trkpt>
      <trkpt lat="43.9406" lon="7.37561">
        <ele>1443.3</ele>
        <time>1982-03-26T10:52:37Z</time>
      </trkpt>
      <trkpt lat="43.94054" lon="7.37558">
        <ele>1443</ele>
        <time>1982-03-26T10:52:38Z</time>
      </trkpt>
      <trkpt lat="43.94048" lon="7.37555">
        <ele>1442.4</ele>
        <time>1982-03-26T10:52:39Z</time>
      </trkpt>
      <trkpt lat="43.94042" lon="7.37551">
        <ele>1440.9</ele>
        <time>1982-03-26T10:52:40Z</time>
      </trkpt>
      <trkpt lat="43.94037" lon="7.37551">
        <ele>1440.4</ele>
        <time>1982-03-26T10:52:41Z</time>
      </trkpt>
      <trkpt lat="43.94031" lon="7.37551">
        <ele>1440.5</ele>
        <time>1982-03-26T10:52:42Z</time>
      </trkpt>
      <trkpt lat="43.94026" lon="7.37551">
        <ele>1440.7</ele>
        <time>1982-03-26T10:52:43Z</time>
      </trkpt>
      <trkpt lat="43.94021" lon="7.3755">
        <ele>1441.4</ele>
        <time>1982-03-26T10:52:44Z</time>
      </trkpt>
      <trkpt lat="43.94015" lon="7.37553">
        <ele>1440.4</ele>
        <time>1982-03-26T10:52:45Z</time>
      </trkpt>
      <trkpt lat="43.94013" lon="7.37553">
        <ele>1440.5</ele>
        <time>1982-03-26T10:52:46Z</time>
      </trkpt>
      <trkpt lat="43.94013" lon="7.37555">
        <ele>1440</ele>
        <time>1982-03-26T10:52:47Z</time>
      </trkpt>
      <trkpt lat="43.94011" lon="7.37555">
        <ele>1439.1</ele>
        <time>1982-03-26T10:52:48Z</time>
      </trkpt>
      <trkpt lat="43.94011" lon="7.37554">
        <ele>1438.5</ele>
        <time>1982-03-26T10:52:49Z</time>
      </trkpt>
      <trkpt lat="43.94011" lon="7.37554">
        <ele>1438.5</ele>
        <time>1982-03-26T10:52:50Z</time>
      </trkpt>
      <trkpt lat="43.9401" lon="7.37554">
        <ele>1438.9</ele>
        <time>1982-03-26T10:52:52Z</time>
      </trkpt>
      <trkpt lat="43.94009" lon="7.37555">
        <ele>1439.8</ele>
        <time>1982-03-26T10:52:53Z</time>
      </trkpt>
      <trkpt lat="43.94009" lon="7.37555">
        <ele>1440.2</ele>
        <time>1982-03-26T10:52:54Z</time>
      </trkpt>
      <trkpt lat="43.94009" lon="7.37555">
        <ele>1440.2</ele>
        <time>1982-03-26T10:54:10Z</time>
      </trkpt>
      <trkpt lat="43.94009" lon="7.37556">
        <ele>1440.7</ele>
        <time>1982-03-26T10:54:12Z</time>
      </trkpt>
      <trkpt lat="43.94009" lon="7.37556">
        <ele>1440.7</ele>
        <time>1982-03-26T10:55:04Z</time>
      </trkpt>
      <trkpt lat="43.94009" lon="7.37556">
        <ele>1441.3</ele>
        <time>1982-03-26T10:55:06Z</time>
      </trkpt>
      <trkpt lat="43.94009" lon="7.37556">
        <ele>1441.3</ele>
        <time>1982-03-26T10:56:07Z</time>
      </trkpt>
      <trkpt lat="43.94009" lon="7.37556">
        <ele>1441.8</ele>
        <time>1982-03-26T10:56:11Z</time>
      </trkpt>
      <trkpt lat="43.94009" lon="7.37556">
        <ele>1441.8</ele>
        <time>1982-03-26T10:57:06Z</time>
      </trkpt>
      <trkpt lat="43.94004" lon="7.37558">
        <ele>1441.4</ele>
        <time>1982-03-26T10:57:08Z</time>
      </trkpt>
      <trkpt lat="43.94001" lon="7.37557">
        <ele>1441.4</ele>
        <time>1982-03-26T10:57:09Z</time>
      </trkpt>
      <trkpt lat="43.93999" lon="7.37558">
        <ele>1441.2</ele>
        <time>1982-03-26T10:57:10Z</time>
      </trkpt>
      <trkpt lat="43.93997" lon="7.37558">
        <ele>1441.4</ele>
        <time>1982-03-26T10:57:11Z</time>
      </trkpt>
      <trkpt lat="43.93993" lon="7.37558">
        <ele>1441.1</ele>
        <time>1982-03-26T10:57:12Z</time>
      </trkpt>
      <trkpt lat="43.9399" lon="7.37556">
        <ele>1441</ele>
        <time>1982-03-26T10:57:13Z</time>
      </trkpt>
      <trkpt lat="43.93985" lon="7.37554">
        <ele>1440.8</ele>
        <time>1982-03-26T10:57:14Z</time>
      </trkpt>
      <trkpt lat="43.93982" lon="7.37554">
        <ele>1441.2</ele>
        <time>1982-03-26T10:57:15Z</time>
      </trkpt>
      <trkpt lat="43.93979" lon="7.37553">
        <ele>1441.1</ele>
        <time>1982-03-26T10:57:16Z</time>
      </trkpt>
      <trkpt lat="43.93978" lon="7.3755">
        <ele>1441.2</ele>
        <time>1982-03-26T10:57:17Z</time>
      </trkpt>
      <trkpt lat="43.93975" lon="7.37549">
        <ele>1441.2</ele>
        <time>1982-03-26T10:57:18Z</time>
      </trkpt>
      <trkpt lat="43.93972" lon="7.37549">
        <ele>1441.2</ele>
        <time>1982-03-26T10:57:19Z</time>
      </trkpt>
      <trkpt lat="43.93969" lon="7.3755">
        <ele>1440.1</ele>
        <time>1982-03-26T10:57:20Z</time>
      </trkpt>
      <trkpt lat="43.93965" lon="7.3755">
        <ele>1440.8</ele>
        <time>1982-03-26T10:57:21Z</time>
      </trkpt>
      <trkpt lat="43.93963" lon="7.37552">
        <ele>1439.8</ele>
        <time>1982-03-26T10:57:22Z</time>
      </trkpt>
      <trkpt lat="43.9396" lon="7.37552">
        <ele>1440</ele>
        <time>1982-03-26T10:57:23Z</time>
      </trkpt>
      <trkpt lat="43.93957" lon="7.37552">
        <ele>1440</ele>
        <time>1982-03-26T10:57:24Z</time>
      </trkpt>
      <trkpt lat="43.93954" lon="7.37552">
        <ele>1439.9</ele>
        <time>1982-03-26T10:57:25Z</time>
      </trkpt>
      <trkpt lat="43.93952" lon="7.37555">
        <ele>1440.5</ele>
        <time>1982-03-26T10:57:26Z</time>
      </trkpt>
      <trkpt lat="43.93948" lon="7.3756">
        <ele>1441.2</ele>
        <time>1982-03-26T10:57:27Z</time>
      </trkpt>
      <trkpt lat="43.93949" lon="7.37571">
        <ele>1441.3</ele>
        <time>1982-03-26T10:57:28Z</time>
      </trkpt>
      <trkpt lat="43.93948" lon="7.37574">
        <ele>1439.7</ele>
        <time>1982-03-26T10:57:29Z</time>
      </trkpt>
      <trkpt lat="43.93947" lon="7.37578">
        <ele>1439.8</ele>
        <time>1982-03-26T10:57:30Z</time>
      </trkpt>
      <trkpt lat="43.93945" lon="7.37583">
        <ele>1438.3</ele>
        <time>1982-03-26T10:57:31Z</time>
      </trkpt>
      <trkpt lat="43.93943" lon="7.37588">
        <ele>1437.4</ele>
        <time>1982-03-26T10:57:32Z</time>
      </trkpt>
      <trkpt lat="43.93943" lon="7.37593">
        <ele>1436.6</ele>
        <time>1982-03-26T10:57:33Z</time>
      </trkpt>
      <trkpt lat="43.93938" lon="7.37598">
        <ele>1436.2</ele>
        <time>1982-03-26T10:57:34Z</time>
      </trkpt>
      <trkpt lat="43.93938" lon="7.37602">
        <ele>1435.5</ele>
        <time>1982-03-26T10:57:35Z</time>
      </trkpt>
      <trkpt lat="43.93935" lon="7.37605">
        <ele>1433.6</ele>
        <time>1982-03-26T10:57:36Z</time>
      </trkpt>
      <trkpt lat="43.9393" lon="7.37609">
        <ele>1434.7</ele>
        <time>1982-03-26T10:57:37Z</time>
      </trkpt>
      <trkpt lat="43.93928" lon="7.37615">
        <ele>1433.9</ele>
        <time>1982-03-26T10:57:38Z</time>
      </trkpt>
      <trkpt lat="43.93922" lon="7.3762">
        <ele>1434.4</ele>
        <time>1982-03-26T10:57:39Z</time>
      </trkpt>
      <trkpt lat="43.9392" lon="7.37628">
        <ele>1434.8</ele>
        <time>1982-03-26T10:57:40Z</time>
      </trkpt>
      <trkpt lat="43.93918" lon="7.37632">
        <ele>1435.8</ele>
        <time>1982-03-26T10:57:41Z</time>
      </trkpt>
      <trkpt lat="43.93915" lon="7.37636">
        <ele>1435.6</ele>
        <time>1982-03-26T10:57:42Z</time>
      </trkpt>
      <trkpt lat="43.93913" lon="7.3764">
        <ele>1435.9</ele>
        <time>1982-03-26T10:57:43Z</time>
      </trkpt>
      <trkpt lat="43.9391" lon="7.37646">
        <ele>1436.4</ele>
        <time>1982-03-26T10:57:44Z</time>
      </trkpt>
      <trkpt lat="43.93909" lon="7.37654">
        <ele>1436.6</ele>
        <time>1982-03-26T10:57:45Z</time>
      </trkpt>
      <trkpt lat="43.93907" lon="7.37659">
        <ele>1437.5</ele>
        <time>1982-03-26T10:57:46Z</time>
      </trkpt>
      <trkpt lat="43.93902" lon="7.37667">
        <ele>1437.3</ele>
        <time>1982-03-26T10:57:47Z</time>
      </trkpt>
      <trkpt lat="43.939" lon="7.37675">
        <ele>1438</ele>
        <time>1982-03-26T10:57:48Z</time>
      </trkpt>
      <trkpt lat="43.939" lon="7.37682">
        <ele>1438.4</ele>
        <time>1982-03-26T10:57:49Z</time>
      </trkpt>
      <trkpt lat="43.93901" lon="7.3769">
        <ele>1437.1</ele>
        <time>1982-03-26T10:57:50Z</time>
      </trkpt>
      <trkpt lat="43.93902" lon="7.37702">
        <ele>1436.9</ele>
        <time>1982-03-26T10:57:51Z</time>
      </trkpt>
      <trkpt lat="43.93902" lon="7.37711">
        <ele>1436.5</ele>
        <time>1982-03-26T10:57:52Z</time>
      </trkpt>
      <trkpt lat="43.93914" lon="7.3772">
        <ele>1435.4</ele>
        <time>1982-03-26T10:57:53Z</time>
      </trkpt>
      <trkpt lat="43.93917" lon="7.3773">
        <ele>1435.1</ele>
        <time>1982-03-26T10:57:54Z</time>
      </trkpt>
      <trkpt lat="43.93921" lon="7.37736">
        <ele>1435.2</ele>
        <time>1982-03-26T10:57:55Z</time>
      </trkpt>
      <trkpt lat="43.93925" lon="7.37742">
        <ele>1434.3</ele>
        <time>1982-03-26T10:57:56Z</time>
      </trkpt>
      <trkpt lat="43.93927" lon="7.37746">
        <ele>1433.5</ele>
        <time>1982-03-26T10:57:57Z</time>
      </trkpt>
      <trkpt lat="43.9393" lon="7.3775">
        <ele>1432.6</ele>
        <time>1982-03-26T10:57:58Z</time>
      </trkpt>
      <trkpt lat="43.93944" lon="7.37755">
        <ele>1433.6</ele>
        <time>1982-03-26T10:57:59Z</time>
      </trkpt>
      <trkpt lat="43.9395" lon="7.37759">
        <ele>1434.6</ele>
        <time>1982-03-26T10:58:00Z</time>
      </trkpt>
      <trkpt lat="43.93954" lon="7.37767">
        <ele>1434.6</ele>
        <time>1982-03-26T10:58:01Z</time>
      </trkpt>
      <trkpt lat="43.93961" lon="7.37773">
        <ele>1435</ele>
        <time>1982-03-26T10:58:02Z</time>
      </trkpt>
      <trkpt lat="43.93958" lon="7.37782">
        <ele>1435.3</ele>
        <time>1982-03-26T10:58:03Z</time>
      </trkpt>
      <trkpt lat="43.93961" lon="7.37787">
        <ele>1435.9</ele>
        <time>1982-03-26T10:58:04Z</time>
      </trkpt>
      <trkpt lat="43.93963" lon="7.37797">
        <ele>1433.6</ele>
        <time>1982-03-26T10:58:05Z</time>
      </trkpt>
      <trkpt lat="43.93964" lon="7.37806">
        <ele>1433.3</ele>
        <time>1982-03-26T10:58:06Z</time>
      </trkpt>
      <trkpt lat="43.93967" lon="7.37814">
        <ele>1433.3</ele>
        <time>1982-03-26T10:58:07Z</time>
      </trkpt>
      <trkpt lat="43.93965" lon="7.37821">
        <ele>1432.1</ele>
        <time>1982-03-26T10:58:08Z</time>
      </trkpt>
      <trkpt lat="43.93964" lon="7.37829">
        <ele>1430.2</ele>
        <time>1982-03-26T10:58:09Z</time>
      </trkpt>
      <trkpt lat="43.93966" lon="7.37838">
        <ele>1430.2</ele>
        <time>1982-03-26T10:58:10Z</time>
      </trkpt>
      <trkpt lat="43.93969" lon="7.37844">
        <ele>1430.3</ele>
        <time>1982-03-26T10:58:11Z</time>
      </trkpt>
      <trkpt lat="43.9397" lon="7.37852">
        <ele>1428.8</ele>
        <time>1982-03-26T10:58:12Z</time>
      </trkpt>
      <trkpt lat="43.93973" lon="7.37858">
        <ele>1428.7</ele>
        <time>1982-03-26T10:58:13Z</time>
      </trkpt>
      <trkpt lat="43.93974" lon="7.37865">
        <ele>1427.4</ele>
        <time>1982-03-26T10:58:14Z</time>
      </trkpt>
      <trkpt lat="43.93973" lon="7.37869">
        <ele>1426.5</ele>
        <time>1982-03-26T10:58:15Z</time>
      </trkpt>
      <trkpt lat="43.93972" lon="7.37872">
        <ele>1424</ele>
        <time>1982-03-26T10:58:16Z</time>
      </trkpt>
      <trkpt lat="43.93973" lon="7.3788">
        <ele>1422.6</ele>
        <time>1982-03-26T10:58:17Z</time>
      </trkpt>
      <trkpt lat="43.93975" lon="7.37884">
        <ele>1421.2</ele>
        <time>1982-03-26T10:58:18Z</time>
      </trkpt>
      <trkpt lat="43.93976" lon="7.3789">
        <ele>1420</ele>
        <time>1982-03-26T10:58:19Z</time>
      </trkpt>
      <trkpt lat="43.93977" lon="7.37895">
        <ele>1419.4</ele>
        <time>1982-03-26T10:58:20Z</time>
      </trkpt>
      <trkpt lat="43.93979" lon="7.37898">
        <ele>1419.6</ele>
        <time>1982-03-26T10:58:21Z</time>
      </trkpt>
      <trkpt lat="43.93979" lon="7.37902">
        <ele>1418.8</ele>
        <time>1982-03-26T10:58:22Z</time>
      </trkpt>
      <trkpt lat="43.9398" lon="7.37905">
        <ele>1418.1</ele>
        <time>1982-03-26T10:58:23Z</time>
      </trkpt>
      <trkpt lat="43.93981" lon="7.37909">
        <ele>1418.2</ele>
        <time>1982-03-26T10:58:24Z</time>
      </trkpt>
      <trkpt lat="43.93979" lon="7.37912">
        <ele>1417.4</ele>
        <time>1982-03-26T10:58:25Z</time>
      </trkpt>
      <trkpt lat="43.93974" lon="7.37914">
        <ele>1416.3</ele>
        <time>1982-03-26T10:58:26Z</time>
      </trkpt>
      <trkpt lat="43.93974" lon="7.37918">
        <ele>1416.6</ele>
        <time>1982-03-26T10:58:27Z</time>
      </trkpt>
      <trkpt lat="43.9397" lon="7.37919">
        <ele>1416.6</ele>
        <time>1982-03-26T10:58:28Z</time>
      </trkpt>
      <trkpt lat="43.93967" lon="7.3792">
        <ele>1416.7</ele>
        <time>1982-03-26T10:58:29Z</time>
      </trkpt>
      <trkpt lat="43.93961" lon="7.37921">
        <ele>1416.8</ele>
        <time>1982-03-26T10:58:30Z</time>
      </trkpt>
      <trkpt lat="43.93956" lon="7.37922">
        <ele>1416.5</ele>
        <time>1982-03-26T10:58:31Z</time>
      </trkpt>
      <trkpt lat="43.93951" lon="7.37925">
        <ele>1417.4</ele>
        <time>1982-03-26T10:58:32Z</time>
      </trkpt>
      <trkpt lat="43.93946" lon="7.37927">
        <ele>1416.2</ele>
        <time>1982-03-26T10:58:33Z</time>
      </trkpt>
      <trkpt lat="43.93939" lon="7.37929">
        <ele>1415.3</ele>
        <time>1982-03-26T10:58:34Z</time>
      </trkpt>
      <trkpt lat="43.93934" lon="7.37931">
        <ele>1414.9</ele>
        <time>1982-03-26T10:58:35Z</time>
      </trkpt>
      <trkpt lat="43.93928" lon="7.37933">
        <ele>1414.5</ele>
        <time>1982-03-26T10:58:36Z</time>
      </trkpt>
      <trkpt lat="43.93922" lon="7.37934">
        <ele>1414.2</ele>
        <time>1982-03-26T10:58:37Z</time>
      </trkpt>
      <trkpt lat="43.93918" lon="7.37941">
        <ele>1413</ele>
        <time>1982-03-26T10:58:38Z</time>
      </trkpt>
      <trkpt lat="43.93912" lon="7.37946">
        <ele>1412.4</ele>
        <time>1982-03-26T10:58:39Z</time>
      </trkpt>
      <trkpt lat="43.93907" lon="7.3795">
        <ele>1412.2</ele>
        <time>1982-03-26T10:58:40Z</time>
      </trkpt>
      <trkpt lat="43.93903" lon="7.37954">
        <ele>1411.9</ele>
        <time>1982-03-26T10:58:41Z</time>
      </trkpt>
      <trkpt lat="43.93901" lon="7.37958">
        <ele>1411.1</ele>
        <time>1982-03-26T10:58:42Z</time>
      </trkpt>
      <trkpt lat="43.93897" lon="7.37961">
        <ele>1410.9</ele>
        <time>1982-03-26T10:58:43Z</time>
      </trkpt>
      <trkpt lat="43.93888" lon="7.37964">
        <ele>1410.6</ele>
        <time>1982-03-26T10:58:44Z</time>
      </trkpt>
      <trkpt lat="43.93881" lon="7.37967">
        <ele>1410</ele>
        <time>1982-03-26T10:58:45Z</time>
      </trkpt>
      <trkpt lat="43.93876" lon="7.37976">
        <ele>1408</ele>
        <time>1982-03-26T10:58:46Z</time>
      </trkpt>
      <trkpt lat="43.93869" lon="7.37982">
        <ele>1407.4</ele>
        <time>1982-03-26T10:58:47Z</time>
      </trkpt>
      <trkpt lat="43.93864" lon="7.37987">
        <ele>1406.8</ele>
        <time>1982-03-26T10:58:48Z</time>
      </trkpt>
      <trkpt lat="43.9386" lon="7.37993">
        <ele>1406.8</ele>
        <time>1982-03-26T10:58:49Z</time>
      </trkpt>
      <trkpt lat="43.93854" lon="7.37999">
        <ele>1407</ele>
        <time>1982-03-26T10:58:50Z</time>
      </trkpt>
      <trkpt lat="43.93849" lon="7.38004">
        <ele>1406.9</ele>
        <time>1982-03-26T10:58:51Z</time>
      </trkpt>
      <trkpt lat="43.93844" lon="7.38008">
        <ele>1406.6</ele>
        <time>1982-03-26T10:58:52Z</time>
      </trkpt>
      <trkpt lat="43.93837" lon="7.38014">
        <ele>1406.7</ele>
        <time>1982-03-26T10:58:53Z</time>
      </trkpt>
      <trkpt lat="43.93834" lon="7.38019">
        <ele>1407.2</ele>
        <time>1982-03-26T10:58:54Z</time>
      </trkpt>
      <trkpt lat="43.93831" lon="7.38025">
        <ele>1407.5</ele>
        <time>1982-03-26T10:58:55Z</time>
      </trkpt>
      <trkpt lat="43.93829" lon="7.38032">
        <ele>1407.9</ele>
        <time>1982-03-26T10:58:56Z</time>
      </trkpt>
      <trkpt lat="43.93826" lon="7.3804">
        <ele>1407.5</ele>
        <time>1982-03-26T10:58:57Z</time>
      </trkpt>
      <trkpt lat="43.93831" lon="7.38049">
        <ele>1406</ele>
        <time>1982-03-26T10:58:58Z</time>
      </trkpt>
      <trkpt lat="43.9383" lon="7.38058">
        <ele>1406.1</ele>
        <time>1982-03-26T10:58:59Z</time>
      </trkpt>
      <trkpt lat="43.93832" lon="7.38069">
        <ele>1405.2</ele>
        <time>1982-03-26T10:59:00Z</time>
      </trkpt>
      <trkpt lat="43.93835" lon="7.38078">
        <ele>1405.1</ele>
        <time>1982-03-26T10:59:01Z</time>
      </trkpt>
      <trkpt lat="43.93836" lon="7.38088">
        <ele>1404.6</ele>
        <time>1982-03-26T10:59:02Z</time>
      </trkpt>
      <trkpt lat="43.93838" lon="7.38097">
        <ele>1404.6</ele>
        <time>1982-03-26T10:59:03Z</time>
      </trkpt>
      <trkpt lat="43.93839" lon="7.38109">
        <ele>1404.9</ele>
        <time>1982-03-26T10:59:04Z</time>
      </trkpt>
      <trkpt lat="43.93838" lon="7.38118">
        <ele>1404.4</ele>
        <time>1982-03-26T10:59:05Z</time>
      </trkpt>
      <trkpt lat="43.93838" lon="7.38127">
        <ele>1403.6</ele>
        <time>1982-03-26T10:59:06Z</time>
      </trkpt>
      <trkpt lat="43.93837" lon="7.38138">
        <ele>1403.2</ele>
        <time>1982-03-26T10:59:07Z</time>
      </trkpt>
      <trkpt lat="43.93836" lon="7.38149">
        <ele>1402.7</ele>
        <time>1982-03-26T10:59:08Z</time>
      </trkpt>
      <trkpt lat="43.93834" lon="7.3816">
        <ele>1403</ele>
        <time>1982-03-26T10:59:09Z</time>
      </trkpt>
      <trkpt lat="43.93833" lon="7.3817">
        <ele>1403.1</ele>
        <time>1982-03-26T10:59:10Z</time>
      </trkpt>
      <trkpt lat="43.93833" lon="7.38177">
        <ele>1403.3</ele>
        <time>1982-03-26T10:59:11Z</time>
      </trkpt>
      <trkpt lat="43.93835" lon="7.38185">
        <ele>1403.1</ele>
        <time>1982-03-26T10:59:12Z</time>
      </trkpt>
      <trkpt lat="43.93844" lon="7.38187">
        <ele>1404.8</ele>
        <time>1982-03-26T10:59:13Z</time>
      </trkpt>
      <trkpt lat="43.9385" lon="7.38192">
        <ele>1405.5</ele>
        <time>1982-03-26T10:59:14Z</time>
      </trkpt>
      <trkpt lat="43.93855" lon="7.38197">
        <ele>1406.3</ele>
        <time>1982-03-26T10:59:15Z</time>
      </trkpt>
      <trkpt lat="43.93855" lon="7.38205">
        <ele>1405.3</ele>
        <time>1982-03-26T10:59:16Z</time>
      </trkpt>
      <trkpt lat="43.93857" lon="7.38213">
        <ele>1404.2</ele>
        <time>1982-03-26T10:59:17Z</time>
      </trkpt>
      <trkpt lat="43.9386" lon="7.38219">
        <ele>1404.2</ele>
        <time>1982-03-26T10:59:18Z</time>
      </trkpt>
      <trkpt lat="43.93861" lon="7.38225">
        <ele>1403.5</ele>
        <time>1982-03-26T10:59:19Z</time>
      </trkpt>
      <trkpt lat="43.93863" lon="7.38233">
        <ele>1402.5</ele>
        <time>1982-03-26T10:59:20Z</time>
      </trkpt>
      <trkpt lat="43.9386" lon="7.38238">
        <ele>1400.6</ele>
        <time>1982-03-26T10:59:21Z</time>
      </trkpt>
      <trkpt lat="43.93857" lon="7.38244">
        <ele>1399.1</ele>
        <time>1982-03-26T10:59:22Z</time>
      </trkpt>
      <trkpt lat="43.93857" lon="7.3825">
        <ele>1398.7</ele>
        <time>1982-03-26T10:59:23Z</time>
      </trkpt>
      <trkpt lat="43.93857" lon="7.38258">
        <ele>1397.6</ele>
        <time>1982-03-26T10:59:24Z</time>
      </trkpt>
      <trkpt lat="43.93853" lon="7.38262">
        <ele>1395</ele>
        <time>1982-03-26T10:59:25Z</time>
      </trkpt>
      <trkpt lat="43.93849" lon="7.38268">
        <ele>1394.8</ele>
        <time>1982-03-26T10:59:26Z</time>
      </trkpt>
      <trkpt lat="43.93848" lon="7.38272">
        <ele>1394.2</ele>
        <time>1982-03-26T10:59:27Z</time>
      </trkpt>
      <trkpt lat="43.93847" lon="7.38273">
        <ele>1394</ele>
        <time>1982-03-26T10:59:28Z</time>
      </trkpt>
      <trkpt lat="43.93847" lon="7.38277">
        <ele>1394.5</ele>
        <time>1982-03-26T10:59:29Z</time>
      </trkpt>
      <trkpt lat="43.9385" lon="7.38281">
        <ele>1394.5</ele>
        <time>1982-03-26T10:59:30Z</time>
      </trkpt>
      <trkpt lat="43.9385" lon="7.38281">
        <ele>1395.1</ele>
        <time>1982-03-26T10:59:31Z</time>
      </trkpt>
      <trkpt lat="43.9385" lon="7.38281">
        <ele>1395.1</ele>
        <time>1982-03-26T10:59:32Z</time>
      </trkpt>
      <trkpt lat="43.9385" lon="7.38281">
        <ele>1395.1</ele>
        <time>1982-03-26T10:59:35Z</time>
      </trkpt>
      <trkpt lat="43.9385" lon="7.38281">
        <ele>1395.1</ele>
        <time>1982-03-26T10:59:36Z</time>
      </trkpt>
      <trkpt lat="43.9385" lon="7.3828">
        <ele>1394.9</ele>
        <time>1982-03-26T10:59:38Z</time>
      </trkpt>
      <trkpt lat="43.9385" lon="7.3828">
        <ele>1394.9</ele>
        <time>1982-03-26T10:59:38Z</time>
      </trkpt>
      <trkpt lat="43.9385" lon="7.3828">
        <ele>1395.3</ele>
        <time>1982-03-26T10:59:39Z</time>
      </trkpt>
      <trkpt lat="43.9385" lon="7.3828">
        <ele>1395.3</ele>
        <time>1982-03-26T11:01:33Z</time>
      </trkpt>
      <trkpt lat="43.9385" lon="7.38287">
        <ele>1394.9</ele>
        <time>1982-03-26T11:01:35Z</time>
      </trkpt>
      <trkpt lat="43.9385" lon="7.3829">
        <ele>1394</ele>
        <time>1982-03-26T11:01:36Z</time>
      </trkpt>
      <trkpt lat="43.9385" lon="7.38293">
        <ele>1393.7</ele>
        <time>1982-03-26T11:01:37Z</time>
      </trkpt>
      <trkpt lat="43.93846" lon="7.38293">
        <ele>1391.8</ele>
        <time>1982-03-26T11:01:38Z</time>
      </trkpt>
      <trkpt lat="43.93845" lon="7.38294">
        <ele>1390.5</ele>
        <time>1982-03-26T11:01:39Z</time>
      </trkpt>
      <trkpt lat="43.93845" lon="7.38299">
        <ele>1390.3</ele>
        <time>1982-03-26T11:01:40Z</time>
      </trkpt>
      <trkpt lat="43.93845" lon="7.38303">
        <ele>1390.3</ele>
        <time>1982-03-26T11:01:41Z</time>
      </trkpt>
      <trkpt lat="43.93846" lon="7.38306">
        <ele>1390.5</ele>
        <time>1982-03-26T11:01:42Z</time>
      </trkpt>
      <trkpt lat="43.93846" lon="7.38307">
        <ele>1390.5</ele>
        <time>1982-03-26T11:01:43Z</time>
      </trkpt>
      <trkpt lat="43.9385" lon="7.38307">
        <ele>1390.4</ele>
        <time>1982-03-26T11:01:45Z</time>
      </trkpt>
      <trkpt lat="43.93851" lon="7.38304">
        <ele>1389.8</ele>
        <time>1982-03-26T11:01:46Z</time>
      </trkpt>
      <trkpt lat="43.93854" lon="7.38303">
        <ele>1389.1</ele>
        <time>1982-03-26T11:01:47Z</time>
      </trkpt>
      <trkpt lat="43.93856" lon="7.383">
        <ele>1388.2</ele>
        <time>1982-03-26T11:01:48Z</time>
      </trkpt>
      <trkpt lat="43.93857" lon="7.38296">
        <ele>1387.5</ele>
        <time>1982-03-26T11:01:49Z</time>
      </trkpt>
      <trkpt lat="43.9386" lon="7.38294">
        <ele>1386.9</ele>
        <time>1982-03-26T11:01:50Z</time>
      </trkpt>
      <trkpt lat="43.93864" lon="7.38288">
        <ele>1385.4</ele>
        <time>1982-03-26T11:01:51Z</time>
      </trkpt>
      <trkpt lat="43.93868" lon="7.38284">
        <ele>1385.6</ele>
        <time>1982-03-26T11:01:52Z</time>
      </trkpt>
      <trkpt lat="43.93867" lon="7.38277">
        <ele>1383.7</ele>
        <time>1982-03-26T11:01:53Z</time>
      </trkpt>
      <trkpt lat="43.93868" lon="7.38271">
        <ele>1383.9</ele>
        <time>1982-03-26T11:01:54Z</time>
      </trkpt>
      <trkpt lat="43.93868" lon="7.38267">
        <ele>1383.7</ele>
        <time>1982-03-26T11:01:55Z</time>
      </trkpt>
      <trkpt lat="43.93867" lon="7.38261">
        <ele>1381.3</ele>
        <time>1982-03-26T11:01:56Z</time>
      </trkpt>
      <trkpt lat="43.93869" lon="7.38257">
        <ele>1380.3</ele>
        <time>1982-03-26T11:01:57Z</time>
      </trkpt>
      <trkpt lat="43.93869" lon="7.38251">
        <ele>1379.4</ele>
        <time>1982-03-26T11:01:58Z</time>
      </trkpt>
      <trkpt lat="43.93868" lon="7.38247">
        <ele>1379.5</ele>
        <time>1982-03-26T11:01:59Z</time>
      </trkpt>
      <trkpt lat="43.93868" lon="7.38245">
        <ele>1377.6</ele>
        <time>1982-03-26T11:02:00Z</time>
      </trkpt>
      <trkpt lat="43.93871" lon="7.38241">
        <ele>1376.6</ele>
        <time>1982-03-26T11:02:01Z</time>
      </trkpt>
      <trkpt lat="43.93872" lon="7.38239">
        <ele>1376.9</ele>
        <time>1982-03-26T11:02:02Z</time>
      </trkpt>
      <trkpt lat="43.93873" lon="7.38236">
        <ele>1376.8</ele>
        <time>1982-03-26T11:02:03Z</time>
      </trkpt>
      <trkpt lat="43.93875" lon="7.38233">
        <ele>1376.8</ele>
        <time>1982-03-26T11:02:04Z</time>
      </trkpt>
      <trkpt lat="43.93876" lon="7.38235">
        <ele>1376.7</ele>
        <time>1982-03-26T11:02:05Z</time>
      </trkpt>
      <trkpt lat="43.93876" lon="7.38236">
        <ele>1376.3</ele>
        <time>1982-03-26T11:02:06Z</time>
      </trkpt>
      <trkpt lat="43.93875" lon="7.38239">
        <ele>1376.3</ele>
        <time>1982-03-26T11:02:07Z</time>
      </trkpt>
      <trkpt lat="43.93875" lon="7.38243">
        <ele>1376.1</ele>
        <time>1982-03-26T11:02:08Z</time>
      </trkpt>
      <trkpt lat="43.93875" lon="7.38246">
        <ele>1376.5</ele>
        <time>1982-03-26T11:02:10Z</time>
      </trkpt>
      <trkpt lat="43.93873" lon="7.38252">
        <ele>1376.6</ele>
        <time>1982-03-26T11:02:10Z</time>
      </trkpt>
      <trkpt lat="43.93873" lon="7.38258">
        <ele>1376.8</ele>
        <time>1982-03-26T11:02:11Z</time>
      </trkpt>
      <trkpt lat="43.93874" lon="7.38262">
        <ele>1374.8</ele>
        <time>1982-03-26T11:02:12Z</time>
      </trkpt>
      <trkpt lat="43.93873" lon="7.38265">
        <ele>1373.9</ele>
        <time>1982-03-26T11:02:13Z</time>
      </trkpt>
      <trkpt lat="43.9387" lon="7.38267">
        <ele>1373.4</ele>
        <time>1982-03-26T11:02:14Z</time>
      </trkpt>
      <trkpt lat="43.93869" lon="7.38268">
        <ele>1373</ele>
        <time>1982-03-26T11:02:15Z</time>
      </trkpt>
      <trkpt lat="43.93869" lon="7.38272">
        <ele>1372</ele>
        <time>1982-03-26T11:02:16Z</time>
      </trkpt>
      <trkpt lat="43.93868" lon="7.38276">
        <ele>1371.4</ele>
        <time>1982-03-26T11:02:17Z</time>
      </trkpt>
      <trkpt lat="43.93868" lon="7.3828">
        <ele>1370.6</ele>
        <time>1982-03-26T11:02:18Z</time>
      </trkpt>
      <trkpt lat="43.9387" lon="7.38278">
        <ele>1369.4</ele>
        <time>1982-03-26T11:02:19Z</time>
      </trkpt>
      <trkpt lat="43.93871" lon="7.3828">
        <ele>1368.2</ele>
        <time>1982-03-26T11:02:20Z</time>
      </trkpt>
      <trkpt lat="43.9387" lon="7.38281">
        <ele>1367.1</ele>
        <time>1982-03-26T11:02:21Z</time>
      </trkpt>
      <trkpt lat="43.93871" lon="7.3828">
        <ele>1366.7</ele>
        <time>1982-03-26T11:02:22Z</time>
      </trkpt>
      <trkpt lat="43.93871" lon="7.38276">
        <ele>1366.3</ele>
        <time>1982-03-26T11:02:23Z</time>
      </trkpt>
      <trkpt lat="43.93873" lon="7.38274">
        <ele>1365.3</ele>
        <time>1982-03-26T11:02:24Z</time>
      </trkpt>
      <trkpt lat="43.93875" lon="7.38273">
        <ele>1365.9</ele>
        <time>1982-03-26T11:02:25Z</time>
      </trkpt>
      <trkpt lat="43.93877" lon="7.38272">
        <ele>1366.2</ele>
        <time>1982-03-26T11:02:26Z</time>
      </trkpt>
      <trkpt lat="43.93882" lon="7.38277">
        <ele>1363.5</ele>
        <time>1982-03-26T11:02:27Z</time>
      </trkpt>
      <trkpt lat="43.93884" lon="7.38278">
        <ele>1363.5</ele>
        <time>1982-03-26T11:02:28Z</time>
      </trkpt>
      <trkpt lat="43.93885" lon="7.38281">
        <ele>1362.7</ele>
        <time>1982-03-26T11:02:29Z</time>
      </trkpt>
      <trkpt lat="43.93886" lon="7.38283">
        <ele>1361.5</ele>
        <time>1982-03-26T11:02:30Z</time>
      </trkpt>
      <trkpt lat="43.93888" lon="7.38286">
        <ele>1361.2</ele>
        <time>1982-03-26T11:02:31Z</time>
      </trkpt>
      <trkpt lat="43.93889" lon="7.38288">
        <ele>1361.7</ele>
        <time>1982-03-26T11:02:32Z</time>
      </trkpt>
      <trkpt lat="43.93891" lon="7.38289">
        <ele>1362.1</ele>
        <time>1982-03-26T11:02:33Z</time>
      </trkpt>
      <trkpt lat="43.93891" lon="7.3829">
        <ele>1360.9</ele>
        <time>1982-03-26T11:02:34Z</time>
      </trkpt>
      <trkpt lat="43.93893" lon="7.38291">
        <ele>1360.5</ele>
        <time>1982-03-26T11:02:35Z</time>
      </trkpt>
      <trkpt lat="43.93895" lon="7.38291">
        <ele>1360.1</ele>
        <time>1982-03-26T11:02:36Z</time>
      </trkpt>
      <trkpt lat="43.93896" lon="7.38292">
        <ele>1359.8</ele>
        <time>1982-03-26T11:02:37Z</time>
      </trkpt>
      <trkpt lat="43.93897" lon="7.38295">
        <ele>1359.2</ele>
        <time>1982-03-26T11:02:38Z</time>
      </trkpt>
      <trkpt lat="43.93899" lon="7.38296">
        <ele>1359.3</ele>
        <time>1982-03-26T11:02:39Z</time>
      </trkpt>
      <trkpt lat="43.93902" lon="7.383">
        <ele>1359.8</ele>
        <time>1982-03-26T11:02:40Z</time>
      </trkpt>
      <trkpt lat="43.93903" lon="7.38305">
        <ele>1359.8</ele>
        <time>1982-03-26T11:02:41Z</time>
      </trkpt>
      <trkpt lat="43.93907" lon="7.38301">
        <ele>1356.6</ele>
        <time>1982-03-26T11:02:42Z</time>
      </trkpt>
      <trkpt lat="43.9391" lon="7.383">
        <ele>1355.3</ele>
        <time>1982-03-26T11:02:43Z</time>
      </trkpt>
      <trkpt lat="43.93913" lon="7.38299">
        <ele>1355.4</ele>
        <time>1982-03-26T11:02:44Z</time>
      </trkpt>
      <trkpt lat="43.93914" lon="7.38295">
        <ele>1356</ele>
        <time>1982-03-26T11:02:45Z</time>
      </trkpt>
      <trkpt lat="43.93915" lon="7.38291">
        <ele>1356.2</ele>
        <time>1982-03-26T11:02:46Z</time>
      </trkpt>
      <trkpt lat="43.93914" lon="7.38286">
        <ele>1355</ele>
        <time>1982-03-26T11:02:47Z</time>
      </trkpt>
      <trkpt lat="43.93915" lon="7.38283">
        <ele>1354</ele>
        <time>1982-03-26T11:02:48Z</time>
      </trkpt>
      <trkpt lat="43.93915" lon="7.38279">
        <ele>1355</ele>
        <time>1982-03-26T11:02:49Z</time>
      </trkpt>
      <trkpt lat="43.93917" lon="7.38278">
        <ele>1357.9</ele>
        <time>1982-03-26T11:02:50Z</time>
      </trkpt>
      <trkpt lat="43.93917" lon="7.38275">
        <ele>1358.1</ele>
        <time>1982-03-26T11:02:51Z</time>
      </trkpt>
      <trkpt lat="43.93917" lon="7.3827">
        <ele>1357.1</ele>
        <time>1982-03-26T11:02:52Z</time>
      </trkpt>
      <trkpt lat="43.93919" lon="7.38267">
        <ele>1358.1</ele>
        <time>1982-03-26T11:02:53Z</time>
      </trkpt>
      <trkpt lat="43.93919" lon="7.38266">
        <ele>1357.8</ele>
        <time>1982-03-26T11:02:54Z</time>
      </trkpt>
      <trkpt lat="43.9392" lon="7.38266">
        <ele>1357.6</ele>
        <time>1982-03-26T11:02:55Z</time>
      </trkpt>
      <trkpt lat="43.93921" lon="7.38269">
        <ele>1356.6</ele>
        <time>1982-03-26T11:02:57Z</time>
      </trkpt>
      <trkpt lat="43.93921" lon="7.38273">
        <ele>1356.2</ele>
        <time>1982-03-26T11:02:58Z</time>
      </trkpt>
      <trkpt lat="43.9392" lon="7.38276">
        <ele>1353</ele>
        <time>1982-03-26T11:02:59Z</time>
      </trkpt>
      <trkpt lat="43.9392" lon="7.38279">
        <ele>1351.5</ele>
        <time>1982-03-26T11:03:00Z</time>
      </trkpt>
      <trkpt lat="43.93919" lon="7.38282">
        <ele>1350.4</ele>
        <time>1982-03-26T11:03:01Z</time>
      </trkpt>
      <trkpt lat="43.93918" lon="7.38286">
        <ele>1348.9</ele>
        <time>1982-03-26T11:03:02Z</time>
      </trkpt>
      <trkpt lat="43.93919" lon="7.3829">
        <ele>1348.9</ele>
        <time>1982-03-26T11:03:03Z</time>
      </trkpt>
      <trkpt lat="43.9392" lon="7.38295">
        <ele>1348.1</ele>
        <time>1982-03-26T11:03:04Z</time>
      </trkpt>
      <trkpt lat="43.93921" lon="7.38301">
        <ele>1348.6</ele>
        <time>1982-03-26T11:03:05Z</time>
      </trkpt>
      <trkpt lat="43.9392" lon="7.38303">
        <ele>1350</ele>
        <time>1982-03-26T11:03:06Z</time>
      </trkpt>
      <trkpt lat="43.9392" lon="7.38306">
        <ele>1350.9</ele>
        <time>1982-03-26T11:03:07Z</time>
      </trkpt>
      <trkpt lat="43.93923" lon="7.38301">
        <ele>1348.9</ele>
        <time>1982-03-26T11:03:08Z</time>
      </trkpt>
      <trkpt lat="43.93924" lon="7.38301">
        <ele>1347.6</ele>
        <time>1982-03-26T11:03:09Z</time>
      </trkpt>
      <trkpt lat="43.93925" lon="7.383">
        <ele>1346.7</ele>
        <time>1982-03-26T11:03:10Z</time>
      </trkpt>
      <trkpt lat="43.93926" lon="7.38298">
        <ele>1346.2</ele>
        <time>1982-03-26T11:03:11Z</time>
      </trkpt>
      <trkpt lat="43.93928" lon="7.38295">
        <ele>1345.8</ele>
        <time>1982-03-26T11:03:12Z</time>
      </trkpt>
      <trkpt lat="43.93929" lon="7.38292">
        <ele>1344.4</ele>
        <time>1982-03-26T11:03:13Z</time>
      </trkpt>
      <trkpt lat="43.9393" lon="7.3829">
        <ele>1344.1</ele>
        <time>1982-03-26T11:03:14Z</time>
      </trkpt>
      <trkpt lat="43.93931" lon="7.38288">
        <ele>1344.3</ele>
        <time>1982-03-26T11:03:15Z</time>
      </trkpt>
      <trkpt lat="43.93933" lon="7.38286">
        <ele>1342.9</ele>
        <time>1982-03-26T11:03:16Z</time>
      </trkpt>
      <trkpt lat="43.93935" lon="7.38285">
        <ele>1342.1</ele>
        <time>1982-03-26T11:03:17Z</time>
      </trkpt>
      <trkpt lat="43.93937" lon="7.38284">
        <ele>1341.6</ele>
        <time>1982-03-26T11:03:18Z</time>
      </trkpt>
      <trkpt lat="43.93938" lon="7.38284">
        <ele>1341.8</ele>
        <time>1982-03-26T11:03:19Z</time>
      </trkpt>
      <trkpt lat="43.93939" lon="7.38284">
        <ele>1342.2</ele>
        <time>1982-03-26T11:03:20Z</time>
      </trkpt>
      <trkpt lat="43.93941" lon="7.38279">
        <ele>1341.1</ele>
        <time>1982-03-26T11:03:22Z</time>
      </trkpt>
      <trkpt lat="43.93944" lon="7.38274">
        <ele>1339.7</ele>
        <time>1982-03-26T11:03:23Z</time>
      </trkpt>
      <trkpt lat="43.93946" lon="7.38262">
        <ele>1336.5</ele>
        <time>1982-03-26T11:03:24Z</time>
      </trkpt>
      <trkpt lat="43.93945" lon="7.38257">
        <ele>1336</ele>
        <time>1982-03-26T11:03:25Z</time>
      </trkpt>
      <trkpt lat="43.93946" lon="7.38251">
        <ele>1336.1</ele>
        <time>1982-03-26T11:03:26Z</time>
      </trkpt>
      <trkpt lat="43.93949" lon="7.38249">
        <ele>1336.2</ele>
        <time>1982-03-26T11:03:27Z</time>
      </trkpt>
      <trkpt lat="43.9395" lon="7.38248">
        <ele>1335.3</ele>
        <time>1982-03-26T11:03:28Z</time>
      </trkpt>
      <trkpt lat="43.93951" lon="7.38243">
        <ele>1334.5</ele>
        <time>1982-03-26T11:03:29Z</time>
      </trkpt>
      <trkpt lat="43.93953" lon="7.38241">
        <ele>1334.1</ele>
        <time>1982-03-26T11:03:30Z</time>
      </trkpt>
      <trkpt lat="43.93954" lon="7.38237">
        <ele>1334.4</ele>
        <time>1982-03-26T11:03:31Z</time>
      </trkpt>
      <trkpt lat="43.93949" lon="7.38234">
        <ele>1334.1</ele>
        <time>1982-03-26T11:03:32Z</time>
      </trkpt>
      <trkpt lat="43.93948" lon="7.38231">
        <ele>1332.6</ele>
        <time>1982-03-26T11:03:33Z</time>
      </trkpt>
      <trkpt lat="43.93949" lon="7.38227">
        <ele>1330.1</ele>
        <time>1982-03-26T11:03:34Z</time>
      </trkpt>
      <trkpt lat="43.93947" lon="7.38224">
        <ele>1328.5</ele>
        <time>1982-03-26T11:03:35Z</time>
      </trkpt>
      <trkpt lat="43.93947" lon="7.3822">
        <ele>1326.6</ele>
        <time>1982-03-26T11:03:36Z</time>
      </trkpt>
      <trkpt lat="43.93947" lon="7.38214">
        <ele>1326</ele>
        <time>1982-03-26T11:03:37Z</time>
      </trkpt>
      <trkpt lat="43.93946" lon="7.38208">
        <ele>1325.8</ele>
        <time>1982-03-26T11:03:38Z</time>
      </trkpt>
      <trkpt lat="43.93947" lon="7.38203">
        <ele>1326.6</ele>
        <time>1982-03-26T11:03:39Z</time>
      </trkpt>
      <trkpt lat="43.93947" lon="7.382">
        <ele>1324.2</ele>
        <time>1982-03-26T11:03:40Z</time>
      </trkpt>
      <trkpt lat="43.93947" lon="7.38197">
        <ele>1322.2</ele>
        <time>1982-03-26T11:03:41Z</time>
      </trkpt>
      <trkpt lat="43.93947" lon="7.38193">
        <ele>1320.8</ele>
        <time>1982-03-26T11:03:42Z</time>
      </trkpt>
      <trkpt lat="43.93946" lon="7.3819">
        <ele>1320.9</ele>
        <time>1982-03-26T11:03:43Z</time>
      </trkpt>
      <trkpt lat="43.93948" lon="7.38186">
        <ele>1320.9</ele>
        <time>1982-03-26T11:03:44Z</time>
      </trkpt>
      <trkpt lat="43.93949" lon="7.38183">
        <ele>1320.6</ele>
        <time>1982-03-26T11:03:45Z</time>
      </trkpt>
      <trkpt lat="43.93949" lon="7.38179">
        <ele>1320.5</ele>
        <time>1982-03-26T11:03:46Z</time>
      </trkpt>
      <trkpt lat="43.93949" lon="7.38177">
        <ele>1320.8</ele>
        <time>1982-03-26T11:03:47Z</time>
      </trkpt>
      <trkpt lat="43.93952" lon="7.38176">
        <ele>1321.9</ele>
        <time>1982-03-26T11:03:48Z</time>
      </trkpt>
      <trkpt lat="43.93955" lon="7.38175">
        <ele>1323.3</ele>
        <time>1982-03-26T11:03:49Z</time>
      </trkpt>
      <trkpt lat="43.93958" lon="7.38175">
        <ele>1324</ele>
        <time>1982-03-26T11:03:50Z</time>
      </trkpt>
      <trkpt lat="43.93961" lon="7.38174">
        <ele>1324.3</ele>
        <time>1982-03-26T11:03:51Z</time>
      </trkpt>
      <trkpt lat="43.9396" lon="7.38179">
        <ele>1321.9</ele>
        <time>1982-03-26T11:03:52Z</time>
      </trkpt>
      <trkpt lat="43.93961" lon="7.38182">
        <ele>1321</ele>
        <time>1982-03-26T11:03:53Z</time>
      </trkpt>
      <trkpt lat="43.93962" lon="7.38185">
        <ele>1320.8</ele>
        <time>1982-03-26T11:03:54Z</time>
      </trkpt>
      <trkpt lat="43.93963" lon="7.38187">
        <ele>1320.1</ele>
        <time>1982-03-26T11:03:55Z</time>
      </trkpt>
      <trkpt lat="43.93966" lon="7.38189">
        <ele>1323.6</ele>
        <time>1982-03-26T11:03:56Z</time>
      </trkpt>
      <trkpt lat="43.93968" lon="7.38191">
        <ele>1324.6</ele>
        <time>1982-03-26T11:03:57Z</time>
      </trkpt>
      <trkpt lat="43.93971" lon="7.38194">
        <ele>1325.4</ele>
        <time>1982-03-26T11:03:58Z</time>
      </trkpt>
      <trkpt lat="43.93973" lon="7.38196">
        <ele>1326.4</ele>
        <time>1982-03-26T11:03:59Z</time>
      </trkpt>
      <trkpt lat="43.93976" lon="7.38199">
        <ele>1326.9</ele>
        <time>1982-03-26T11:04:00Z</time>
      </trkpt>
      <trkpt lat="43.93978" lon="7.38201">
        <ele>1327.1</ele>
        <time>1982-03-26T11:04:01Z</time>
      </trkpt>
      <trkpt lat="43.9398" lon="7.38204">
        <ele>1325.4</ele>
        <time>1982-03-26T11:04:02Z</time>
      </trkpt>
      <trkpt lat="43.93983" lon="7.38207">
        <ele>1324.4</ele>
        <time>1982-03-26T11:04:03Z</time>
      </trkpt>
      <trkpt lat="43.93984" lon="7.3821">
        <ele>1324.1</ele>
        <time>1982-03-26T11:04:04Z</time>
      </trkpt>
      <trkpt lat="43.93986" lon="7.38211">
        <ele>1325</ele>
        <time>1982-03-26T11:04:05Z</time>
      </trkpt>
      <trkpt lat="43.93986" lon="7.38208">
        <ele>1322.9</ele>
        <time>1982-03-26T11:04:06Z</time>
      </trkpt>
      <trkpt lat="43.93986" lon="7.38208">
        <ele>1322.6</ele>
        <time>1982-03-26T11:04:07Z</time>
      </trkpt>
      <trkpt lat="43.93989" lon="7.38202">
        <ele>1321.9</ele>
        <time>1982-03-26T11:04:09Z</time>
      </trkpt>
      <trkpt lat="43.93993" lon="7.38197">
        <ele>1322.9</ele>
        <time>1982-03-26T11:04:10Z</time>
      </trkpt>
      <trkpt lat="43.93994" lon="7.38195">
        <ele>1324.4</ele>
        <time>1982-03-26T11:04:11Z</time>
      </trkpt>
      <trkpt lat="43.93992" lon="7.38192">
        <ele>1321.5</ele>
        <time>1982-03-26T11:04:12Z</time>
      </trkpt>
      <trkpt lat="43.9399" lon="7.3819">
        <ele>1319</ele>
        <time>1982-03-26T11:04:13Z</time>
      </trkpt>
      <trkpt lat="43.93991" lon="7.38189">
        <ele>1318.8</ele>
        <time>1982-03-26T11:04:14Z</time>
      </trkpt>
      <trkpt lat="43.9399" lon="7.38187">
        <ele>1318.5</ele>
        <time>1982-03-26T11:04:15Z</time>
      </trkpt>
      <trkpt lat="43.93991" lon="7.38187">
        <ele>1317.6</ele>
        <time>1982-03-26T11:04:16Z</time>
      </trkpt>
      <trkpt lat="43.93991" lon="7.38187">
        <ele>1318.1</ele>
        <time>1982-03-26T11:04:17Z</time>
      </trkpt>
      <trkpt lat="43.93991" lon="7.38187">
        <ele>1318.1</ele>
        <time>1982-03-26T11:04:18Z</time>
      </trkpt>
      <trkpt lat="43.93991" lon="7.38186">
        <ele>1318.2</ele>
        <time>1982-03-26T11:04:20Z</time>
      </trkpt>
      <trkpt lat="43.93992" lon="7.38184">
        <ele>1318.8</ele>
        <time>1982-03-26T11:04:22Z</time>
      </trkpt>
      <trkpt lat="43.93991" lon="7.38185">
        <ele>1318.4</ele>
        <time>1982-03-26T11:04:23Z</time>
      </trkpt>
      <trkpt lat="43.93991" lon="7.38185">
        <ele>1317.8</ele>
        <time>1982-03-26T11:04:24Z</time>
      </trkpt>
      <trkpt lat="43.93991" lon="7.38185">
        <ele>1317.8</ele>
        <time>1982-03-26T11:04:28Z</time>
      </trkpt>
      <trkpt lat="43.93992" lon="7.38185">
        <ele>1317.4</ele>
        <time>1982-03-26T11:04:30Z</time>
      </trkpt>
      <trkpt lat="43.93993" lon="7.38185">
        <ele>1317.7</ele>
        <time>1982-03-26T11:04:31Z</time>
      </trkpt>
      <trkpt lat="43.93993" lon="7.38185">
        <ele>1317.7</ele>
        <time>1982-03-26T11:06:17Z</time>
      </trkpt>
      <trkpt lat="43.93993" lon="7.38185">
        <ele>1318.3</ele>
        <time>1982-03-26T11:06:19Z</time>
      </trkpt>
      <trkpt lat="43.93993" lon="7.38185">
        <ele>1318.3</ele>
        <time>1982-03-26T11:07:00Z</time>
      </trkpt>
      <trkpt lat="43.93994" lon="7.38185">
        <ele>1318.8</ele>
        <time>1982-03-26T11:07:02Z</time>
      </trkpt>
      <trkpt lat="43.93994" lon="7.38185">
        <ele>1318.8</ele>
        <time>1982-03-26T11:08:14Z</time>
      </trkpt>
      <trkpt lat="43.93994" lon="7.38185">
        <ele>1319.3</ele>
        <time>1982-03-26T11:08:16Z</time>
      </trkpt>
      <trkpt lat="43.93994" lon="7.38185">
        <ele>1319.3</ele>
        <time>1982-03-26T11:09:06Z</time>
      </trkpt>
      <trkpt lat="43.93994" lon="7.38185">
        <ele>1319.7</ele>
        <time>1982-03-26T11:09:08Z</time>
      </trkpt>
      <trkpt lat="43.93994" lon="7.38185">
        <ele>1319.7</ele>
        <time>1982-03-26T11:09:11Z</time>
      </trkpt>
      <trkpt lat="43.93993" lon="7.38187">
        <ele>1319.6</ele>
        <time>1982-03-26T11:09:13Z</time>
      </trkpt>
      <trkpt lat="43.93994" lon="7.38187">
        <ele>1320</ele>
        <time>1982-03-26T11:09:14Z</time>
      </trkpt>
      <trkpt lat="43.93994" lon="7.38187">
        <ele>1320</ele>
        <time>1982-03-26T11:09:17Z</time>
      </trkpt>
      <trkpt lat="43.93994" lon="7.38186">
        <ele>1320.8</ele>
        <time>1982-03-26T11:09:19Z</time>
      </trkpt>
      <trkpt lat="43.93994" lon="7.38186">
        <ele>1321.2</ele>
        <time>1982-03-26T11:09:20Z</time>
      </trkpt>
      <trkpt lat="43.93994" lon="7.38186">
        <ele>1321.2</ele>
        <time>1982-03-26T11:09:23Z</time>
      </trkpt>
      <trkpt lat="43.93995" lon="7.38186">
        <ele>1321.9</ele>
        <time>1982-03-26T11:09:25Z</time>
      </trkpt>
      <trkpt lat="43.93996" lon="7.38186">
        <ele>1322.4</ele>
        <time>1982-03-26T11:09:26Z</time>
      </trkpt>
      <trkpt lat="43.93996" lon="7.38186">
        <ele>1322.4</ele>
        <time>1982-03-26T11:09:27Z</time>
      </trkpt>
      <trkpt lat="43.93996" lon="7.38186">
        <ele>1322.4</ele>
        <time>1982-03-26T11:09:29Z</time>
      </trkpt>
      <trkpt lat="43.93996" lon="7.38186">
        <ele>1322.4</ele>
        <time>1982-03-26T11:09:37Z</time>
      </trkpt>
      <trkpt lat="43.93998" lon="7.38191">
        <ele>1321.8</ele>
        <time>1982-03-26T11:09:39Z</time>
      </trkpt>
      <trkpt lat="43.93998" lon="7.38194">
        <ele>1320.3</ele>
        <time>1982-03-26T11:09:40Z</time>
      </trkpt>
      <trkpt lat="43.93999" lon="7.38196">
        <ele>1319.4</ele>
        <time>1982-03-26T11:09:41Z</time>
      </trkpt>
      <trkpt lat="43.93999" lon="7.38198">
        <ele>1318.7</ele>
        <time>1982-03-26T11:09:42Z</time>
      </trkpt>
      <trkpt lat="43.94001" lon="7.38201">
        <ele>1317.2</ele>
        <time>1982-03-26T11:09:43Z</time>
      </trkpt>
      <trkpt lat="43.94006" lon="7.38202">
        <ele>1317.3</ele>
        <time>1982-03-26T11:09:44Z</time>
      </trkpt>
      <trkpt lat="43.94008" lon="7.38204">
        <ele>1317.5</ele>
        <time>1982-03-26T11:09:45Z</time>
      </trkpt>
      <trkpt lat="43.94012" lon="7.38207">
        <ele>1316.6</ele>
        <time>1982-03-26T11:09:46Z</time>
      </trkpt>
      <trkpt lat="43.94015" lon="7.38208">
        <ele>1316.9</ele>
        <time>1982-03-26T11:09:47Z</time>
      </trkpt>
      <trkpt lat="43.94016" lon="7.38213">
        <ele>1316.8</ele>
        <time>1982-03-26T11:09:48Z</time>
      </trkpt>
      <trkpt lat="43.94019" lon="7.38215">
        <ele>1317.4</ele>
        <time>1982-03-26T11:09:49Z</time>
      </trkpt>
      <trkpt lat="43.94016" lon="7.38219">
        <ele>1314.2</ele>
        <time>1982-03-26T11:09:50Z</time>
      </trkpt>
      <trkpt lat="43.94018" lon="7.38223">
        <ele>1312.6</ele>
        <time>1982-03-26T11:09:51Z</time>
      </trkpt>
      <trkpt lat="43.94019" lon="7.38225">
        <ele>1312.4</ele>
        <time>1982-03-26T11:09:52Z</time>
      </trkpt>
      <trkpt lat="43.94019" lon="7.38228">
        <ele>1312.3</ele>
        <time>1982-03-26T11:09:53Z</time>
      </trkpt>
      <trkpt lat="43.94018" lon="7.38233">
        <ele>1311</ele>
        <time>1982-03-26T11:09:54Z</time>
      </trkpt>
      <trkpt lat="43.9402" lon="7.38234">
        <ele>1311</ele>
        <time>1982-03-26T11:09:55Z</time>
      </trkpt>
      <trkpt lat="43.94021" lon="7.38238">
        <ele>1310.5</ele>
        <time>1982-03-26T11:09:56Z</time>
      </trkpt>
      <trkpt lat="43.94022" lon="7.38241">
        <ele>1310</ele>
        <time>1982-03-26T11:09:57Z</time>
      </trkpt>
      <trkpt lat="43.94027" lon="7.38244">
        <ele>1308.8</ele>
        <time>1982-03-26T11:09:58Z</time>
      </trkpt>
      <trkpt lat="43.94029" lon="7.38247">
        <ele>1308.9</ele>
        <time>1982-03-26T11:09:59Z</time>
      </trkpt>
      <trkpt lat="43.9403" lon="7.3825">
        <ele>1308.5</ele>
        <time>1982-03-26T11:10:00Z</time>
      </trkpt>
      <trkpt lat="43.9403" lon="7.38254">
        <ele>1307</ele>
        <time>1982-03-26T11:10:01Z</time>
      </trkpt>
      <trkpt lat="43.94032" lon="7.38257">
        <ele>1306</ele>
        <time>1982-03-26T11:10:02Z</time>
      </trkpt>
      <trkpt lat="43.94024" lon="7.38259">
        <ele>1304</ele>
        <time>1982-03-26T11:10:03Z</time>
      </trkpt>
      <trkpt lat="43.94023" lon="7.38261">
        <ele>1302.9</ele>
        <time>1982-03-26T11:10:04Z</time>
      </trkpt>
      <trkpt lat="43.94024" lon="7.38264">
        <ele>1302.4</ele>
        <time>1982-03-26T11:10:05Z</time>
      </trkpt>
      <trkpt lat="43.94025" lon="7.38266">
        <ele>1302.2</ele>
        <time>1982-03-26T11:10:06Z</time>
      </trkpt>
      <trkpt lat="43.94028" lon="7.3827">
        <ele>1301.7</ele>
        <time>1982-03-26T11:10:07Z</time>
      </trkpt>
      <trkpt lat="43.94031" lon="7.38274">
        <ele>1301.9</ele>
        <time>1982-03-26T11:10:08Z</time>
      </trkpt>
      <trkpt lat="43.94034" lon="7.38278">
        <ele>1302.3</ele>
        <time>1982-03-26T11:10:09Z</time>
      </trkpt>
      <trkpt lat="43.94038" lon="7.38283">
        <ele>1302.6</ele>
        <time>1982-03-26T11:10:10Z</time>
      </trkpt>
      <trkpt lat="43.94042" lon="7.38288">
        <ele>1301.7</ele>
        <time>1982-03-26T11:10:11Z</time>
      </trkpt>
      <trkpt lat="43.94045" lon="7.38293">
        <ele>1300.5</ele>
        <time>1982-03-26T11:10:12Z</time>
      </trkpt>
      <trkpt lat="43.94047" lon="7.38296">
        <ele>1300.1</ele>
        <time>1982-03-26T11:10:13Z</time>
      </trkpt>
      <trkpt lat="43.94049" lon="7.383">
        <ele>1298.6</ele>
        <time>1982-03-26T11:10:14Z</time>
      </trkpt>
      <trkpt lat="43.94051" lon="7.38303">
        <ele>1298.8</ele>
        <time>1982-03-26T11:10:15Z</time>
      </trkpt>
      <trkpt lat="43.94054" lon="7.38306">
        <ele>1299.2</ele>
        <time>1982-03-26T11:10:16Z</time>
      </trkpt>
      <trkpt lat="43.94057" lon="7.38308">
        <ele>1299.1</ele>
        <time>1982-03-26T11:10:17Z</time>
      </trkpt>
      <trkpt lat="43.94057" lon="7.38308">
        <ele>1295.6</ele>
        <time>1982-03-26T11:10:18Z</time>
      </trkpt>
      <trkpt lat="43.94058" lon="7.38311">
        <ele>1294.1</ele>
        <time>1982-03-26T11:10:19Z</time>
      </trkpt>
      <trkpt lat="43.94061" lon="7.38312">
        <ele>1293.3</ele>
        <time>1982-03-26T11:10:20Z</time>
      </trkpt>
      <trkpt lat="43.94063" lon="7.38313">
        <ele>1293</ele>
        <time>1982-03-26T11:10:21Z</time>
      </trkpt>
      <trkpt lat="43.94066" lon="7.38316">
        <ele>1293.1</ele>
        <time>1982-03-26T11:10:22Z</time>
      </trkpt>
      <trkpt lat="43.94074" lon="7.38326">
        <ele>1290.3</ele>
        <time>1982-03-26T11:10:23Z</time>
      </trkpt>
      <trkpt lat="43.94079" lon="7.38329">
        <ele>1291</ele>
        <time>1982-03-26T11:10:24Z</time>
      </trkpt>
      <trkpt lat="43.94082" lon="7.38334">
        <ele>1290.7</ele>
        <time>1982-03-26T11:10:25Z</time>
      </trkpt>
      <trkpt lat="43.94083" lon="7.38338">
        <ele>1286.2</ele>
        <time>1982-03-26T11:10:26Z</time>
      </trkpt>
      <trkpt lat="43.94084" lon="7.38343">
        <ele>1284.5</ele>
        <time>1982-03-26T11:10:27Z</time>
      </trkpt>
      <trkpt lat="43.94084" lon="7.38349">
        <ele>1283.2</ele>
        <time>1982-03-26T11:10:28Z</time>
      </trkpt>
      <trkpt lat="43.94085" lon="7.38355">
        <ele>1282.1</ele>
        <time>1982-03-26T11:10:29Z</time>
      </trkpt>
      <trkpt lat="43.94087" lon="7.38356">
        <ele>1281.8</ele>
        <time>1982-03-26T11:10:30Z</time>
      </trkpt>
      <trkpt lat="43.94089" lon="7.38362">
        <ele>1281.9</ele>
        <time>1982-03-26T11:10:31Z</time>
      </trkpt>
      <trkpt lat="43.94093" lon="7.38369">
        <ele>1281.2</ele>
        <time>1982-03-26T11:10:32Z</time>
      </trkpt>
      <trkpt lat="43.94094" lon="7.38371">
        <ele>1278.1</ele>
        <time>1982-03-26T11:10:33Z</time>
      </trkpt>
      <trkpt lat="43.94096" lon="7.38374">
        <ele>1276.3</ele>
        <time>1982-03-26T11:10:34Z</time>
      </trkpt>
      <trkpt lat="43.94095" lon="7.38378">
        <ele>1274.8</ele>
        <time>1982-03-26T11:10:35Z</time>
      </trkpt>
      <trkpt lat="43.94095" lon="7.38381">
        <ele>1274.4</ele>
        <time>1982-03-26T11:10:36Z</time>
      </trkpt>
      <trkpt lat="43.94097" lon="7.38384">
        <ele>1273</ele>
        <time>1982-03-26T11:10:37Z</time>
      </trkpt>
      <trkpt lat="43.94098" lon="7.38386">
        <ele>1274.3</ele>
        <time>1982-03-26T11:10:38Z</time>
      </trkpt>
      <trkpt lat="43.94098" lon="7.38384">
        <ele>1274.1</ele>
        <time>1982-03-26T11:10:39Z</time>
      </trkpt>
      <trkpt lat="43.94099" lon="7.38382">
        <ele>1273</ele>
        <time>1982-03-26T11:10:40Z</time>
      </trkpt>
      <trkpt lat="43.94101" lon="7.38382">
        <ele>1273.4</ele>
        <time>1982-03-26T11:10:41Z</time>
      </trkpt>
      <trkpt lat="43.94101" lon="7.38378">
        <ele>1272</ele>
        <time>1982-03-26T11:10:42Z</time>
      </trkpt>
      <trkpt lat="43.941" lon="7.38376">
        <ele>1271.7</ele>
        <time>1982-03-26T11:10:43Z</time>
      </trkpt>
      <trkpt lat="43.941" lon="7.38377">
        <ele>1270.8</ele>
        <time>1982-03-26T11:10:44Z</time>
      </trkpt>
      <trkpt lat="43.941" lon="7.38376">
        <ele>1270.9</ele>
        <time>1982-03-26T11:10:45Z</time>
      </trkpt>
      <trkpt lat="43.941" lon="7.38375">
        <ele>1271.9</ele>
        <time>1982-03-26T11:10:47Z</time>
      </trkpt>
      <trkpt lat="43.94101" lon="7.38376">
        <ele>1271.1</ele>
        <time>1982-03-26T11:10:48Z</time>
      </trkpt>
      <trkpt lat="43.94101" lon="7.38376">
        <ele>1270.2</ele>
        <time>1982-03-26T11:10:49Z</time>
      </trkpt>
      <trkpt lat="43.94102" lon="7.38375">
        <ele>1269.7</ele>
        <time>1982-03-26T11:10:50Z</time>
      </trkpt>
      <trkpt lat="43.94103" lon="7.38374">
        <ele>1268.2</ele>
        <time>1982-03-26T11:10:52Z</time>
      </trkpt>
      <trkpt lat="43.94103" lon="7.38374">
        <ele>1268.2</ele>
        <time>1982-03-26T11:10:53Z</time>
      </trkpt>
      <trkpt lat="43.94105" lon="7.38373">
        <ele>1268.1</ele>
        <time>1982-03-26T11:10:55Z</time>
      </trkpt>
      <trkpt lat="43.94108" lon="7.38371">
        <ele>1268.8</ele>
        <time>1982-03-26T11:10:56Z</time>
      </trkpt>
      <trkpt lat="43.94109" lon="7.38369">
        <ele>1268.1</ele>
        <time>1982-03-26T11:10:57Z</time>
      </trkpt>
      <trkpt lat="43.94112" lon="7.38368">
        <ele>1268.4</ele>
        <time>1982-03-26T11:10:58Z</time>
      </trkpt>
      <trkpt lat="43.94115" lon="7.38366">
        <ele>1269.2</ele>
        <time>1982-03-26T11:10:59Z</time>
      </trkpt>
      <trkpt lat="43.94115" lon="7.38363">
        <ele>1267.6</ele>
        <time>1982-03-26T11:11:00Z</time>
      </trkpt>
      <trkpt lat="43.94115" lon="7.3836">
        <ele>1266.3</ele>
        <time>1982-03-26T11:11:01Z</time>
      </trkpt>
      <trkpt lat="43.94115" lon="7.38358">
        <ele>1265.7</ele>
        <time>1982-03-26T11:11:02Z</time>
      </trkpt>
      <trkpt lat="43.94115" lon="7.38355">
        <ele>1264.7</ele>
        <time>1982-03-26T11:11:03Z</time>
      </trkpt>
      <trkpt lat="43.94116" lon="7.38356">
        <ele>1264.1</ele>
        <time>1982-03-26T11:11:04Z</time>
      </trkpt>
      <trkpt lat="43.94117" lon="7.38356">
        <ele>1263.8</ele>
        <time>1982-03-26T11:11:05Z</time>
      </trkpt>
      <trkpt lat="43.94117" lon="7.38354">
        <ele>1263.2</ele>
        <time>1982-03-26T11:11:07Z</time>
      </trkpt>
      <trkpt lat="43.94117" lon="7.38353">
        <ele>1263</ele>
        <time>1982-03-26T11:11:08Z</time>
      </trkpt>
      <trkpt lat="43.94117" lon="7.38353">
        <ele>1263</ele>
        <time>1982-03-26T11:11:09Z</time>
      </trkpt>
      <trkpt lat="43.94118" lon="7.38353">
        <ele>1262.1</ele>
        <time>1982-03-26T11:11:11Z</time>
      </trkpt>
      <trkpt lat="43.94119" lon="7.38353">
        <ele>1261.4</ele>
        <time>1982-03-26T11:11:12Z</time>
      </trkpt>
      <trkpt lat="43.94119" lon="7.38353">
        <ele>1261.4</ele>
        <time>1982-03-26T11:11:21Z</time>
      </trkpt>
      <trkpt lat="43.94119" lon="7.38353">
        <ele>1261.8</ele>
        <time>1982-03-26T11:11:23Z</time>
      </trkpt>
      <trkpt lat="43.94119" lon="7.38351">
        <ele>1262.3</ele>
        <time>1982-03-26T11:11:25Z</time>
      </trkpt>
      <trkpt lat="43.9412" lon="7.38351">
        <ele>1261.9</ele>
        <time>1982-03-26T11:11:26Z</time>
      </trkpt>
      <trkpt lat="43.9412" lon="7.38351">
        <ele>1261.9</ele>
        <time>1982-03-26T11:11:26Z</time>
      </trkpt>
      <trkpt lat="43.9412" lon="7.38352">
        <ele>1262</ele>
        <time>1982-03-26T11:11:29Z</time>
      </trkpt>
      <trkpt lat="43.94122" lon="7.38352">
        <ele>1262.3</ele>
        <time>1982-03-26T11:11:32Z</time>
      </trkpt>
      <trkpt lat="43.94122" lon="7.38351">
        <ele>1262.5</ele>
        <time>1982-03-26T11:11:33Z</time>
      </trkpt>
      <trkpt lat="43.9412" lon="7.38352">
        <ele>1260.3</ele>
        <time>1982-03-26T11:11:35Z</time>
      </trkpt>
      <trkpt lat="43.94121" lon="7.38352">
        <ele>1260.2</ele>
        <time>1982-03-26T11:11:36Z</time>
      </trkpt>
      <trkpt lat="43.94121" lon="7.38352">
        <ele>1260.2</ele>
        <time>1982-03-26T11:11:37Z</time>
      </trkpt>
      <trkpt lat="43.9412" lon="7.38353">
        <ele>1259</ele>
        <time>1982-03-26T11:11:39Z</time>
      </trkpt>
      <trkpt lat="43.9412" lon="7.38354">
        <ele>1258.7</ele>
        <time>1982-03-26T11:11:40Z</time>
      </trkpt>
      <trkpt lat="43.9412" lon="7.38354">
        <ele>1258.7</ele>
        <time>1982-03-26T11:13:19Z</time>
      </trkpt>
      <trkpt lat="43.9412" lon="7.38355">
        <ele>1259.1</ele>
        <time>1982-03-26T11:13:21Z</time>
      </trkpt>
      <trkpt lat="43.9412" lon="7.38355">
        <ele>1259.1</ele>
        <time>1982-03-26T11:14:17Z</time>
      </trkpt>
      <trkpt lat="43.9412" lon="7.38355">
        <ele>1259.6</ele>
        <time>1982-03-26T11:14:19Z</time>
      </trkpt>
      <trkpt lat="43.9412" lon="7.38355">
        <ele>1259.6</ele>
        <time>1982-03-26T11:16:13Z</time>
      </trkpt>
      <trkpt lat="43.94121" lon="7.38356">
        <ele>1260</ele>
        <time>1982-03-26T11:16:14Z</time>
      </trkpt>
      <trkpt lat="43.94121" lon="7.38356">
        <ele>1260</ele>
        <time>1982-03-26T11:18:10Z</time>
      </trkpt>
      <trkpt lat="43.9412" lon="7.38355">
        <ele>1261.3</ele>
        <time>1982-03-26T11:18:12Z</time>
      </trkpt>
      <trkpt lat="43.9412" lon="7.38355">
        <ele>1260.8</ele>
        <time>1982-03-26T11:18:13Z</time>
      </trkpt>
      <trkpt lat="43.9412" lon="7.38355">
        <ele>1260.8</ele>
        <time>1982-03-26T11:18:16Z</time>
      </trkpt>
      <trkpt lat="43.9412" lon="7.38354">
        <ele>1260.6</ele>
        <time>1982-03-26T11:18:18Z</time>
      </trkpt>
      <trkpt lat="43.94121" lon="7.38354">
        <ele>1260.6</ele>
        <time>1982-03-26T11:18:19Z</time>
      </trkpt>
      <trkpt lat="43.94121" lon="7.38354">
        <ele>1260.6</ele>
        <time>1982-03-26T11:18:19Z</time>
      </trkpt>
      <trkpt lat="43.94121" lon="7.38354">
        <ele>1261.7</ele>
        <time>1982-03-26T11:18:21Z</time>
      </trkpt>
      <trkpt lat="43.94118" lon="7.38356">
        <ele>1260.9</ele>
        <time>1982-03-26T11:18:22Z</time>
      </trkpt>
      <trkpt lat="43.94118" lon="7.38355">
        <ele>1262.8</ele>
        <time>1982-03-26T11:18:23Z</time>
      </trkpt>
      <trkpt lat="43.94118" lon="7.38356">
        <ele>1263.3</ele>
        <time>1982-03-26T11:18:24Z</time>
      </trkpt>
      <trkpt lat="43.94118" lon="7.38356">
        <ele>1263.3</ele>
        <time>1982-03-26T11:18:26Z</time>
      </trkpt>
      <trkpt lat="43.94117" lon="7.38356">
        <ele>1263.8</ele>
        <time>1982-03-26T11:18:28Z</time>
      </trkpt>
      <trkpt lat="43.94117" lon="7.38356">
        <ele>1264</ele>
        <time>1982-03-26T11:18:29Z</time>
      </trkpt>
      <trkpt lat="43.94117" lon="7.38356">
        <ele>1264</ele>
        <time>1982-03-26T11:18:32Z</time>
      </trkpt>
      <trkpt lat="43.94118" lon="7.38356">
        <ele>1264.8</ele>
        <time>1982-03-26T11:18:34Z</time>
      </trkpt>
      <trkpt lat="43.94118" lon="7.38356">
        <ele>1264.8</ele>
        <time>1982-03-26T11:18:35Z</time>
      </trkpt>
      <trkpt lat="43.94118" lon="7.38356">
        <ele>1264.8</ele>
        <time>1982-03-26T11:18:35Z</time>
      </trkpt>
      <trkpt lat="43.94119" lon="7.38358">
        <ele>1265.4</ele>
        <time>1982-03-26T11:18:37Z</time>
      </trkpt>
      <trkpt lat="43.94119" lon="7.38357">
        <ele>1265.3</ele>
        <time>1982-03-26T11:18:38Z</time>
      </trkpt>
      <trkpt lat="43.94119" lon="7.38357">
        <ele>1265.3</ele>
        <time>1982-03-26T11:18:51Z</time>
      </trkpt>
      <trkpt lat="43.94119" lon="7.38357">
        <ele>1264.4</ele>
        <time>1982-03-26T11:18:53Z</time>
      </trkpt>
      <trkpt lat="43.94119" lon="7.38357">
        <ele>1264.3</ele>
        <time>1982-03-26T11:18:54Z</time>
      </trkpt>
      <trkpt lat="43.94119" lon="7.38357">
        <ele>1264.3</ele>
        <time>1982-03-26T11:18:59Z</time>
      </trkpt>
      <trkpt lat="43.9412" lon="7.38358">
        <ele>1264.4</ele>
        <time>1982-03-26T11:19:02Z</time>
      </trkpt>
      <trkpt lat="43.9412" lon="7.38358">
        <ele>1264.4</ele>
        <time>1982-03-26T11:20:13Z</time>
      </trkpt>
      <trkpt lat="43.9412" lon="7.38358">
        <ele>1265.1</ele>
        <time>1982-03-26T11:20:16Z</time>
      </trkpt>
      <trkpt lat="43.9412" lon="7.38358">
        <ele>1265.1</ele>
        <time>1982-03-26T11:20:41Z</time>
      </trkpt>
      <trkpt lat="43.94121" lon="7.38358">
        <ele>1265.6</ele>
        <time>1982-03-26T11:20:43Z</time>
      </trkpt>
      <trkpt lat="43.94121" lon="7.38358">
        <ele>1265.6</ele>
        <time>1982-03-26T11:21:26Z</time>
      </trkpt>
      <trkpt lat="43.94121" lon="7.38358">
        <ele>1266.1</ele>
        <time>1982-03-26T11:21:27Z</time>
      </trkpt>
      <trkpt lat="43.94121" lon="7.38358">
        <ele>1266.1</ele>
        <time>1982-03-26T11:22:14Z</time>
      </trkpt>
      <trkpt lat="43.94121" lon="7.38358">
        <ele>1266.8</ele>
        <time>1982-03-26T11:22:15Z</time>
      </trkpt>
      <trkpt lat="43.94121" lon="7.38358">
        <ele>1266.8</ele>
        <time>1982-03-26T11:23:29Z</time>
      </trkpt>
      <trkpt lat="43.94121" lon="7.38358">
        <ele>1267.4</ele>
        <time>1982-03-26T11:23:31Z</time>
      </trkpt>
      <trkpt lat="43.94121" lon="7.38358">
        <ele>1267.4</ele>
        <time>1982-03-26T11:25:16Z</time>
      </trkpt>
      <trkpt lat="43.94122" lon="7.38357">
        <ele>1266.9</ele>
        <time>1982-03-26T11:25:18Z</time>
      </trkpt>
      <trkpt lat="43.94123" lon="7.38357">
        <ele>1267.8</ele>
        <time>1982-03-26T11:25:19Z</time>
      </trkpt>
      <trkpt lat="43.94123" lon="7.38357">
        <ele>1265.7</ele>
        <time>1982-03-26T11:25:20Z</time>
      </trkpt>
      <trkpt lat="43.94123" lon="7.38357">
        <ele>1266.3</ele>
        <time>1982-03-26T11:25:21Z</time>
      </trkpt>
      <trkpt lat="43.94123" lon="7.38357">
        <ele>1266.3</ele>
        <time>1982-03-26T11:25:24Z</time>
      </trkpt>
      <trkpt lat="43.94121" lon="7.38355">
        <ele>1267</ele>
        <time>1982-03-26T11:25:25Z</time>
      </trkpt>
      <trkpt lat="43.94121" lon="7.38355">
        <ele>1266.9</ele>
        <time>1982-03-26T11:25:26Z</time>
      </trkpt>
      <trkpt lat="43.94121" lon="7.38355">
        <ele>1266.9</ele>
        <time>1982-03-26T11:25:27Z</time>
      </trkpt>
      <trkpt lat="43.94121" lon="7.38354">
        <ele>1266.1</ele>
        <time>1982-03-26T11:25:29Z</time>
      </trkpt>
      <trkpt lat="43.9412" lon="7.38354">
        <ele>1266.6</ele>
        <time>1982-03-26T11:25:30Z</time>
      </trkpt>
      <trkpt lat="43.9412" lon="7.38354">
        <ele>1266.6</ele>
        <time>1982-03-26T11:26:13Z</time>
      </trkpt>
      <trkpt lat="43.9412" lon="7.38353">
        <ele>1267.2</ele>
        <time>1982-03-26T11:26:15Z</time>
      </trkpt>
      <trkpt lat="43.9412" lon="7.38353">
        <ele>1267.2</ele>
        <time>1982-03-26T11:26:51Z</time>
      </trkpt>
      <trkpt lat="43.94121" lon="7.38354">
        <ele>1268</ele>
        <time>1982-03-26T11:26:53Z</time>
      </trkpt>
      <trkpt lat="43.94121" lon="7.38354">
        <ele>1268</ele>
        <time>1982-03-26T11:27:26Z</time>
      </trkpt>
      <trkpt lat="43.94121" lon="7.38354">
        <ele>1268.6</ele>
        <time>1982-03-26T11:27:28Z</time>
      </trkpt>
      <trkpt lat="43.94121" lon="7.38354">
        <ele>1268.6</ele>
        <time>1982-03-26T11:28:09Z</time>
      </trkpt>
      <trkpt lat="43.94121" lon="7.38354">
        <ele>1269</ele>
        <time>1982-03-26T11:28:10Z</time>
      </trkpt>
      <trkpt lat="43.94121" lon="7.38354">
        <ele>1269</ele>
        <time>1982-03-26T11:28:19Z</time>
      </trkpt>
      <trkpt lat="43.94122" lon="7.38351">
        <ele>1268.5</ele>
        <time>1982-03-26T11:28:22Z</time>
      </trkpt>
      <trkpt lat="43.94123" lon="7.38351">
        <ele>1269</ele>
        <time>1982-03-26T11:28:24Z</time>
      </trkpt>
      <trkpt lat="43.94122" lon="7.38346">
        <ele>1267.3</ele>
        <time>1982-03-26T11:28:26Z</time>
      </trkpt>
      <trkpt lat="43.94123" lon="7.38343">
        <ele>1265.4</ele>
        <time>1982-03-26T11:28:27Z</time>
      </trkpt>
      <trkpt lat="43.94123" lon="7.38341">
        <ele>1263.1</ele>
        <time>1982-03-26T11:28:28Z</time>
      </trkpt>
      <trkpt lat="43.94124" lon="7.38338">
        <ele>1263.2</ele>
        <time>1982-03-26T11:28:29Z</time>
      </trkpt>
      <trkpt lat="43.94124" lon="7.38336">
        <ele>1263.4</ele>
        <time>1982-03-26T11:28:30Z</time>
      </trkpt>
      <trkpt lat="43.94125" lon="7.38332">
        <ele>1262.2</ele>
        <time>1982-03-26T11:28:31Z</time>
      </trkpt>
      <trkpt lat="43.94126" lon="7.38331">
        <ele>1262.8</ele>
        <time>1982-03-26T11:28:32Z</time>
      </trkpt>
      <trkpt lat="43.94126" lon="7.38329">
        <ele>1263.1</ele>
        <time>1982-03-26T11:28:33Z</time>
      </trkpt>
      <trkpt lat="43.94128" lon="7.38327">
        <ele>1262.1</ele>
        <time>1982-03-26T11:28:34Z</time>
      </trkpt>
      <trkpt lat="43.94128" lon="7.38326">
        <ele>1262.6</ele>
        <time>1982-03-26T11:28:35Z</time>
      </trkpt>
      <trkpt lat="43.94128" lon="7.38327">
        <ele>1262.5</ele>
        <time>1982-03-26T11:28:36Z</time>
      </trkpt>
      <trkpt lat="43.94127" lon="7.38328">
        <ele>1262.3</ele>
        <time>1982-03-26T11:28:39Z</time>
      </trkpt>
      <trkpt lat="43.94127" lon="7.38329">
        <ele>1260.9</ele>
        <time>1982-03-26T11:28:40Z</time>
      </trkpt>
      <trkpt lat="43.94127" lon="7.3833">
        <ele>1260.9</ele>
        <time>1982-03-26T11:28:41Z</time>
      </trkpt>
      <trkpt lat="43.94131" lon="7.38333">
        <ele>1261.5</ele>
        <time>1982-03-26T11:28:43Z</time>
      </trkpt>
      <trkpt lat="43.94131" lon="7.3833">
        <ele>1260.1</ele>
        <time>1982-03-26T11:28:44Z</time>
      </trkpt>
      <trkpt lat="43.94131" lon="7.38331">
        <ele>1259.8</ele>
        <time>1982-03-26T11:28:45Z</time>
      </trkpt>
      <trkpt lat="43.94131" lon="7.38331">
        <ele>1259.8</ele>
        <time>1982-03-26T11:28:46Z</time>
      </trkpt>
      <trkpt lat="43.94131" lon="7.38331">
        <ele>1259.2</ele>
        <time>1982-03-26T11:28:48Z</time>
      </trkpt>
      <trkpt lat="43.94131" lon="7.38331">
        <ele>1259.2</ele>
        <time>1982-03-26T11:28:49Z</time>
      </trkpt>
      <trkpt lat="43.94132" lon="7.38331">
        <ele>1258.4</ele>
        <time>1982-03-26T11:28:51Z</time>
      </trkpt>
      <trkpt lat="43.94131" lon="7.38328">
        <ele>1258.3</ele>
        <time>1982-03-26T11:28:53Z</time>
      </trkpt>
      <trkpt lat="43.94132" lon="7.38327">
        <ele>1256.9</ele>
        <time>1982-03-26T11:28:53Z</time>
      </trkpt>
      <trkpt lat="43.94132" lon="7.38325">
        <ele>1255.8</ele>
        <time>1982-03-26T11:28:54Z</time>
      </trkpt>
      <trkpt lat="43.94133" lon="7.38324">
        <ele>1255.3</ele>
        <time>1982-03-26T11:28:55Z</time>
      </trkpt>
      <trkpt lat="43.94133" lon="7.38322">
        <ele>1255.5</ele>
        <time>1982-03-26T11:28:56Z</time>
      </trkpt>
      <trkpt lat="43.94133" lon="7.38321">
        <ele>1255.9</ele>
        <time>1982-03-26T11:28:57Z</time>
      </trkpt>
      <trkpt lat="43.94134" lon="7.38325">
        <ele>1256.7</ele>
        <time>1982-03-26T11:28:59Z</time>
      </trkpt>
      <trkpt lat="43.94134" lon="7.38325">
        <ele>1255.5</ele>
        <time>1982-03-26T11:29:00Z</time>
      </trkpt>
      <trkpt lat="43.94134" lon="7.38324">
        <ele>1255.5</ele>
        <time>1982-03-26T11:29:01Z</time>
      </trkpt>
      <trkpt lat="43.94135" lon="7.3832">
        <ele>1256.9</ele>
        <time>1982-03-26T11:29:03Z</time>
      </trkpt>
      <trkpt lat="43.94136" lon="7.38317">
        <ele>1256.7</ele>
        <time>1982-03-26T11:29:04Z</time>
      </trkpt>
      <trkpt lat="43.94136" lon="7.38316">
        <ele>1256.2</ele>
        <time>1982-03-26T11:29:05Z</time>
      </trkpt>
      <trkpt lat="43.94135" lon="7.38313">
        <ele>1256.6</ele>
        <time>1982-03-26T11:29:06Z</time>
      </trkpt>
      <trkpt lat="43.94133" lon="7.38308">
        <ele>1257.4</ele>
        <time>1982-03-26T11:29:07Z</time>
      </trkpt>
      <trkpt lat="43.94133" lon="7.38303">
        <ele>1257.5</ele>
        <time>1982-03-26T11:29:08Z</time>
      </trkpt>
      <trkpt lat="43.9413" lon="7.38303">
        <ele>1257.2</ele>
        <time>1982-03-26T11:29:09Z</time>
      </trkpt>
      <trkpt lat="43.94129" lon="7.383">
        <ele>1258.1</ele>
        <time>1982-03-26T11:29:10Z</time>
      </trkpt>
      <trkpt lat="43.94127" lon="7.38297">
        <ele>1257.5</ele>
        <time>1982-03-26T11:29:11Z</time>
      </trkpt>
      <trkpt lat="43.94125" lon="7.38295">
        <ele>1256.6</ele>
        <time>1982-03-26T11:29:12Z</time>
      </trkpt>
      <trkpt lat="43.94124" lon="7.38292">
        <ele>1255.1</ele>
        <time>1982-03-26T11:29:13Z</time>
      </trkpt>
      <trkpt lat="43.94121" lon="7.38289">
        <ele>1254.7</ele>
        <time>1982-03-26T11:29:14Z</time>
      </trkpt>
      <trkpt lat="43.94119" lon="7.38285">
        <ele>1253.8</ele>
        <time>1982-03-26T11:29:15Z</time>
      </trkpt>
      <trkpt lat="43.94118" lon="7.38283">
        <ele>1253.7</ele>
        <time>1982-03-26T11:29:16Z</time>
      </trkpt>
      <trkpt lat="43.94118" lon="7.3828">
        <ele>1251.8</ele>
        <time>1982-03-26T11:29:17Z</time>
      </trkpt>
      <trkpt lat="43.94117" lon="7.38279">
        <ele>1249.6</ele>
        <time>1982-03-26T11:29:18Z</time>
      </trkpt>
      <trkpt lat="43.94117" lon="7.38276">
        <ele>1248.9</ele>
        <time>1982-03-26T11:29:19Z</time>
      </trkpt>
      <trkpt lat="43.94117" lon="7.38273">
        <ele>1248.6</ele>
        <time>1982-03-26T11:29:20Z</time>
      </trkpt>
      <trkpt lat="43.94116" lon="7.3827">
        <ele>1249.2</ele>
        <time>1982-03-26T11:29:21Z</time>
      </trkpt>
      <trkpt lat="43.94115" lon="7.38267">
        <ele>1249.4</ele>
        <time>1982-03-26T11:29:22Z</time>
      </trkpt>
      <trkpt lat="43.94117" lon="7.38265">
        <ele>1250.4</ele>
        <time>1982-03-26T11:29:23Z</time>
      </trkpt>
      <trkpt lat="43.94119" lon="7.38265">
        <ele>1252.8</ele>
        <time>1982-03-26T11:29:24Z</time>
      </trkpt>
      <trkpt lat="43.9412" lon="7.38265">
        <ele>1253.6</ele>
        <time>1982-03-26T11:29:25Z</time>
      </trkpt>
      <trkpt lat="43.94121" lon="7.38265">
        <ele>1253.8</ele>
        <time>1982-03-26T11:29:26Z</time>
      </trkpt>
      <trkpt lat="43.94121" lon="7.38265">
        <ele>1253.8</ele>
        <time>1982-03-26T11:29:26Z</time>
      </trkpt>
      <trkpt lat="43.94125" lon="7.38269">
        <ele>1253.1</ele>
        <time>1982-03-26T11:29:28Z</time>
      </trkpt>
      <trkpt lat="43.94127" lon="7.38271">
        <ele>1251.2</ele>
        <time>1982-03-26T11:29:29Z</time>
      </trkpt>
      <trkpt lat="43.94127" lon="7.38272">
        <ele>1251.4</ele>
        <time>1982-03-26T11:29:30Z</time>
      </trkpt>
      <trkpt lat="43.94129" lon="7.38274">
        <ele>1251.5</ele>
        <time>1982-03-26T11:29:31Z</time>
      </trkpt>
      <trkpt lat="43.94131" lon="7.38275">
        <ele>1251.5</ele>
        <time>1982-03-26T11:29:32Z</time>
      </trkpt>
      <trkpt lat="43.94132" lon="7.38278">
        <ele>1251.8</ele>
        <time>1982-03-26T11:29:33Z</time>
      </trkpt>
      <trkpt lat="43.94132" lon="7.38281">
        <ele>1251.4</ele>
        <time>1982-03-26T11:29:34Z</time>
      </trkpt>
      <trkpt lat="43.94132" lon="7.38282">
        <ele>1252.1</ele>
        <time>1982-03-26T11:29:35Z</time>
      </trkpt>
      <trkpt lat="43.94133" lon="7.38283">
        <ele>1252.3</ele>
        <time>1982-03-26T11:29:36Z</time>
      </trkpt>
      <trkpt lat="43.94135" lon="7.38285">
        <ele>1251.8</ele>
        <time>1982-03-26T11:29:37Z</time>
      </trkpt>
      <trkpt lat="43.94137" lon="7.38287">
        <ele>1251</ele>
        <time>1982-03-26T11:29:38Z</time>
      </trkpt>
      <trkpt lat="43.94141" lon="7.38289">
        <ele>1252.9</ele>
        <time>1982-03-26T11:29:39Z</time>
      </trkpt>
      <trkpt lat="43.94143" lon="7.3829">
        <ele>1254</ele>
        <time>1982-03-26T11:29:40Z</time>
      </trkpt>
      <trkpt lat="43.94147" lon="7.38295">
        <ele>1253.7</ele>
        <time>1982-03-26T11:29:41Z</time>
      </trkpt>
      <trkpt lat="43.9415" lon="7.383">
        <ele>1252.6</ele>
        <time>1982-03-26T11:29:42Z</time>
      </trkpt>
      <trkpt lat="43.94154" lon="7.38305">
        <ele>1252</ele>
        <time>1982-03-26T11:29:43Z</time>
      </trkpt>
      <trkpt lat="43.94157" lon="7.3831">
        <ele>1250.3</ele>
        <time>1982-03-26T11:29:44Z</time>
      </trkpt>
      <trkpt lat="43.9416" lon="7.38316">
        <ele>1248.6</ele>
        <time>1982-03-26T11:29:45Z</time>
      </trkpt>
      <trkpt lat="43.94162" lon="7.3832">
        <ele>1246.9</ele>
        <time>1982-03-26T11:29:46Z</time>
      </trkpt>
      <trkpt lat="43.94162" lon="7.38321">
        <ele>1245.4</ele>
        <time>1982-03-26T11:29:47Z</time>
      </trkpt>
      <trkpt lat="43.94161" lon="7.38324">
        <ele>1244.9</ele>
        <time>1982-03-26T11:29:48Z</time>
      </trkpt>
      <trkpt lat="43.9416" lon="7.38325">
        <ele>1244.4</ele>
        <time>1982-03-26T11:29:49Z</time>
      </trkpt>
      <trkpt lat="43.94161" lon="7.3833">
        <ele>1242.9</ele>
        <time>1982-03-26T11:29:51Z</time>
      </trkpt>
      <trkpt lat="43.94162" lon="7.3833">
        <ele>1241.9</ele>
        <time>1982-03-26T11:29:52Z</time>
      </trkpt>
      <trkpt lat="43.94163" lon="7.38329">
        <ele>1241.4</ele>
        <time>1982-03-26T11:29:53Z</time>
      </trkpt>
      <trkpt lat="43.94164" lon="7.3833">
        <ele>1241.8</ele>
        <time>1982-03-26T11:29:54Z</time>
      </trkpt>
      <trkpt lat="43.94164" lon="7.3833">
        <ele>1241.8</ele>
        <time>1982-03-26T11:29:55Z</time>
      </trkpt>
      <trkpt lat="43.94163" lon="7.38327">
        <ele>1240.6</ele>
        <time>1982-03-26T11:29:57Z</time>
      </trkpt>
      <trkpt lat="43.94164" lon="7.38323">
        <ele>1240.9</ele>
        <time>1982-03-26T11:29:58Z</time>
      </trkpt>
      <trkpt lat="43.94164" lon="7.38318">
        <ele>1240.8</ele>
        <time>1982-03-26T11:29:59Z</time>
      </trkpt>
      <trkpt lat="43.94165" lon="7.38315">
        <ele>1240.6</ele>
        <time>1982-03-26T11:30:00Z</time>
      </trkpt>
      <trkpt lat="43.94164" lon="7.38309">
        <ele>1240.7</ele>
        <time>1982-03-26T11:30:01Z</time>
      </trkpt>
      <trkpt lat="43.94163" lon="7.38305">
        <ele>1240.3</ele>
        <time>1982-03-26T11:30:02Z</time>
      </trkpt>
      <trkpt lat="43.94162" lon="7.383">
        <ele>1239.1</ele>
        <time>1982-03-26T11:30:03Z</time>
      </trkpt>
      <trkpt lat="43.94162" lon="7.38296">
        <ele>1240</ele>
        <time>1982-03-26T11:30:04Z</time>
      </trkpt>
      <trkpt lat="43.94159" lon="7.38294">
        <ele>1239.6</ele>
        <time>1982-03-26T11:30:05Z</time>
      </trkpt>
      <trkpt lat="43.94155" lon="7.38292">
        <ele>1239.4</ele>
        <time>1982-03-26T11:30:06Z</time>
      </trkpt>
      <trkpt lat="43.94155" lon="7.38288">
        <ele>1238.8</ele>
        <time>1982-03-26T11:30:07Z</time>
      </trkpt>
      <trkpt lat="43.94152" lon="7.38286">
        <ele>1239.2</ele>
        <time>1982-03-26T11:30:08Z</time>
      </trkpt>
      <trkpt lat="43.94149" lon="7.38281">
        <ele>1239</ele>
        <time>1982-03-26T11:30:09Z</time>
      </trkpt>
      <trkpt lat="43.94151" lon="7.38275">
        <ele>1236.7</ele>
        <time>1982-03-26T11:30:10Z</time>
      </trkpt>
      <trkpt lat="43.94149" lon="7.38271">
        <ele>1236.7</ele>
        <time>1982-03-26T11:30:11Z</time>
      </trkpt>
      <trkpt lat="43.94147" lon="7.38269">
        <ele>1237.5</ele>
        <time>1982-03-26T11:30:12Z</time>
      </trkpt>
      <trkpt lat="43.94146" lon="7.38267">
        <ele>1239.7</ele>
        <time>1982-03-26T11:30:13Z</time>
      </trkpt>
      <trkpt lat="43.94144" lon="7.38265">
        <ele>1240.4</ele>
        <time>1982-03-26T11:30:14Z</time>
      </trkpt>
      <trkpt lat="43.94145" lon="7.38262">
        <ele>1240.7</ele>
        <time>1982-03-26T11:30:15Z</time>
      </trkpt>
      <trkpt lat="43.94143" lon="7.38258">
        <ele>1241.7</ele>
        <time>1982-03-26T11:30:16Z</time>
      </trkpt>
      <trkpt lat="43.94143" lon="7.38253">
        <ele>1242.7</ele>
        <time>1982-03-26T11:30:17Z</time>
      </trkpt>
      <trkpt lat="43.94144" lon="7.38246">
        <ele>1242.4</ele>
        <time>1982-03-26T11:30:18Z</time>
      </trkpt>
      <trkpt lat="43.94143" lon="7.38242">
        <ele>1242.7</ele>
        <time>1982-03-26T11:30:19Z</time>
      </trkpt>
      <trkpt lat="43.94143" lon="7.38239">
        <ele>1242.4</ele>
        <time>1982-03-26T11:30:20Z</time>
      </trkpt>
      <trkpt lat="43.94143" lon="7.38235">
        <ele>1242.4</ele>
        <time>1982-03-26T11:30:21Z</time>
      </trkpt>
      <trkpt lat="43.94143" lon="7.38232">
        <ele>1242.4</ele>
        <time>1982-03-26T11:30:22Z</time>
      </trkpt>
      <trkpt lat="43.94142" lon="7.38227">
        <ele>1243.5</ele>
        <time>1982-03-26T11:30:23Z</time>
      </trkpt>
      <trkpt lat="43.94141" lon="7.38222">
        <ele>1243.3</ele>
        <time>1982-03-26T11:30:24Z</time>
      </trkpt>
      <trkpt lat="43.94142" lon="7.38217">
        <ele>1242.3</ele>
        <time>1982-03-26T11:30:25Z</time>
      </trkpt>
      <trkpt lat="43.94141" lon="7.38213">
        <ele>1240.9</ele>
        <time>1982-03-26T11:30:26Z</time>
      </trkpt>
      <trkpt lat="43.94141" lon="7.38206">
        <ele>1240.9</ele>
        <time>1982-03-26T11:30:27Z</time>
      </trkpt>
      <trkpt lat="43.9414" lon="7.38203">
        <ele>1239.2</ele>
        <time>1982-03-26T11:30:28Z</time>
      </trkpt>
      <trkpt lat="43.94139" lon="7.38206">
        <ele>1236.9</ele>
        <time>1982-03-26T11:30:29Z</time>
      </trkpt>
      <trkpt lat="43.94137" lon="7.38204">
        <ele>1235.7</ele>
        <time>1982-03-26T11:30:30Z</time>
      </trkpt>
      <trkpt lat="43.94137" lon="7.38204">
        <ele>1234.7</ele>
        <time>1982-03-26T11:30:31Z</time>
      </trkpt>
      <trkpt lat="43.94136" lon="7.38202">
        <ele>1235.2</ele>
        <time>1982-03-26T11:30:32Z</time>
      </trkpt>
      <trkpt lat="43.94133" lon="7.38198">
        <ele>1232.5</ele>
        <time>1982-03-26T11:30:33Z</time>
      </trkpt>
      <trkpt lat="43.94132" lon="7.38196">
        <ele>1230.8</ele>
        <time>1982-03-26T11:30:34Z</time>
      </trkpt>
      <trkpt lat="43.94134" lon="7.38197">
        <ele>1228.9</ele>
        <time>1982-03-26T11:30:35Z</time>
      </trkpt>
      <trkpt lat="43.94134" lon="7.38196">
        <ele>1228</ele>
        <time>1982-03-26T11:30:36Z</time>
      </trkpt>
      <trkpt lat="43.94134" lon="7.38196">
        <ele>1229.9</ele>
        <time>1982-03-26T11:30:37Z</time>
      </trkpt>
      <trkpt lat="43.94134" lon="7.38196">
        <ele>1232</ele>
        <time>1982-03-26T11:30:38Z</time>
      </trkpt>
      <trkpt lat="43.94135" lon="7.38197">
        <ele>1232.7</ele>
        <time>1982-03-26T11:30:39Z</time>
      </trkpt>
      <trkpt lat="43.94136" lon="7.382">
        <ele>1236.8</ele>
        <time>1982-03-26T11:30:41Z</time>
      </trkpt>
      <trkpt lat="43.94137" lon="7.38203">
        <ele>1239.1</ele>
        <time>1982-03-26T11:30:42Z</time>
      </trkpt>
      <trkpt lat="43.9414" lon="7.38203">
        <ele>1241</ele>
        <time>1982-03-26T11:30:43Z</time>
      </trkpt>
      <trkpt lat="43.94143" lon="7.38205">
        <ele>1237.1</ele>
        <time>1982-03-26T11:30:44Z</time>
      </trkpt>
      <trkpt lat="43.94146" lon="7.38208">
        <ele>1234</ele>
        <time>1982-03-26T11:30:45Z</time>
      </trkpt>
      <trkpt lat="43.94147" lon="7.38211">
        <ele>1231.1</ele>
        <time>1982-03-26T11:30:46Z</time>
      </trkpt>
      <trkpt lat="43.94149" lon="7.38214">
        <ele>1229.6</ele>
        <time>1982-03-26T11:30:47Z</time>
      </trkpt>
      <trkpt lat="43.9415" lon="7.38216">
        <ele>1230</ele>
        <time>1982-03-26T11:30:48Z</time>
      </trkpt>
      <trkpt lat="43.9415" lon="7.38218">
        <ele>1227.2</ele>
        <time>1982-03-26T11:30:49Z</time>
      </trkpt>
      <trkpt lat="43.94152" lon="7.38221">
        <ele>1224.1</ele>
        <time>1982-03-26T11:30:50Z</time>
      </trkpt>
      <trkpt lat="43.94154" lon="7.38222">
        <ele>1224.6</ele>
        <time>1982-03-26T11:30:51Z</time>
      </trkpt>
      <trkpt lat="43.94155" lon="7.38225">
        <ele>1225.1</ele>
        <time>1982-03-26T11:30:52Z</time>
      </trkpt>
      <trkpt lat="43.94155" lon="7.38224">
        <ele>1226</ele>
        <time>1982-03-26T11:30:53Z</time>
      </trkpt>
      <trkpt lat="43.94156" lon="7.38223">
        <ele>1226.2</ele>
        <time>1982-03-26T11:30:54Z</time>
      </trkpt>
      <trkpt lat="43.94156" lon="7.38221">
        <ele>1226.2</ele>
        <time>1982-03-26T11:30:55Z</time>
      </trkpt>
      <trkpt lat="43.94154" lon="7.38219">
        <ele>1226.1</ele>
        <time>1982-03-26T11:30:56Z</time>
      </trkpt>
      <trkpt lat="43.94153" lon="7.38218">
        <ele>1225.6</ele>
        <time>1982-03-26T11:30:57Z</time>
      </trkpt>
      <trkpt lat="43.94152" lon="7.38215">
        <ele>1224.9</ele>
        <time>1982-03-26T11:30:58Z</time>
      </trkpt>
      <trkpt lat="43.9415" lon="7.38212">
        <ele>1223.2</ele>
        <time>1982-03-26T11:30:59Z</time>
      </trkpt>
      <trkpt lat="43.94149" lon="7.38209">
        <ele>1221.3</ele>
        <time>1982-03-26T11:31:00Z</time>
      </trkpt>
      <trkpt lat="43.94148" lon="7.38207">
        <ele>1219.9</ele>
        <time>1982-03-26T11:31:01Z</time>
      </trkpt>
      <trkpt lat="43.94147" lon="7.38204">
        <ele>1219.8</ele>
        <time>1982-03-26T11:31:02Z</time>
      </trkpt>
      <trkpt lat="43.94148" lon="7.38205">
        <ele>1219.6</ele>
        <time>1982-03-26T11:31:03Z</time>
      </trkpt>
      <trkpt lat="43.94155" lon="7.38209">
        <ele>1220.3</ele>
        <time>1982-03-26T11:31:06Z</time>
      </trkpt>
      <trkpt lat="43.94157" lon="7.38212">
        <ele>1218.2</ele>
        <time>1982-03-26T11:31:07Z</time>
      </trkpt>
      <trkpt lat="43.94159" lon="7.38213">
        <ele>1217.4</ele>
        <time>1982-03-26T11:31:08Z</time>
      </trkpt>
      <trkpt lat="43.94161" lon="7.38215">
        <ele>1219</ele>
        <time>1982-03-26T11:31:09Z</time>
      </trkpt>
      <trkpt lat="43.94161" lon="7.38216">
        <ele>1219.4</ele>
        <time>1982-03-26T11:31:10Z</time>
      </trkpt>
      <trkpt lat="43.94162" lon="7.38217">
        <ele>1218.2</ele>
        <time>1982-03-26T11:31:11Z</time>
      </trkpt>
      <trkpt lat="43.94165" lon="7.38219">
        <ele>1219.1</ele>
        <time>1982-03-26T11:31:12Z</time>
      </trkpt>
      <trkpt lat="43.94166" lon="7.38219">
        <ele>1222.4</ele>
        <time>1982-03-26T11:31:13Z</time>
      </trkpt>
      <trkpt lat="43.94165" lon="7.38221">
        <ele>1223.8</ele>
        <time>1982-03-26T11:31:14Z</time>
      </trkpt>
      <trkpt lat="43.94167" lon="7.38223">
        <ele>1225.4</ele>
        <time>1982-03-26T11:31:15Z</time>
      </trkpt>
      <trkpt lat="43.94169" lon="7.38225">
        <ele>1226.6</ele>
        <time>1982-03-26T11:31:16Z</time>
      </trkpt>
      <trkpt lat="43.9417" lon="7.38225">
        <ele>1227</ele>
        <time>1982-03-26T11:31:17Z</time>
      </trkpt>
      <trkpt lat="43.94171" lon="7.38227">
        <ele>1225.8</ele>
        <time>1982-03-26T11:31:18Z</time>
      </trkpt>
      <trkpt lat="43.94172" lon="7.38229">
        <ele>1225.9</ele>
        <time>1982-03-26T11:31:19Z</time>
      </trkpt>
      <trkpt lat="43.94174" lon="7.38229">
        <ele>1224.9</ele>
        <time>1982-03-26T11:31:20Z</time>
      </trkpt>
      <trkpt lat="43.94176" lon="7.38228">
        <ele>1219.7</ele>
        <time>1982-03-26T11:31:21Z</time>
      </trkpt>
      <trkpt lat="43.94178" lon="7.38227">
        <ele>1217.8</ele>
        <time>1982-03-26T11:31:22Z</time>
      </trkpt>
      <trkpt lat="43.94179" lon="7.38225">
        <ele>1215.8</ele>
        <time>1982-03-26T11:31:23Z</time>
      </trkpt>
      <trkpt lat="43.94179" lon="7.38222">
        <ele>1214.9</ele>
        <time>1982-03-26T11:31:24Z</time>
      </trkpt>
      <trkpt lat="43.94179" lon="7.38221">
        <ele>1213.4</ele>
        <time>1982-03-26T11:31:25Z</time>
      </trkpt>
      <trkpt lat="43.94178" lon="7.38219">
        <ele>1214.2</ele>
        <time>1982-03-26T11:31:26Z</time>
      </trkpt>
      <trkpt lat="43.94178" lon="7.38217">
        <ele>1214.8</ele>
        <time>1982-03-26T11:31:27Z</time>
      </trkpt>
      <trkpt lat="43.9418" lon="7.38217">
        <ele>1217.2</ele>
        <time>1982-03-26T11:31:28Z</time>
      </trkpt>
      <trkpt lat="43.94182" lon="7.38216">
        <ele>1217.7</ele>
        <time>1982-03-26T11:31:29Z</time>
      </trkpt>
      <trkpt lat="43.94184" lon="7.38217">
        <ele>1217.1</ele>
        <time>1982-03-26T11:31:30Z</time>
      </trkpt>
      <trkpt lat="43.94186" lon="7.38219">
        <ele>1218.4</ele>
        <time>1982-03-26T11:31:31Z</time>
      </trkpt>
      <trkpt lat="43.94187" lon="7.38221">
        <ele>1218.3</ele>
        <time>1982-03-26T11:31:32Z</time>
      </trkpt>
      <trkpt lat="43.94189" lon="7.38223">
        <ele>1217.4</ele>
        <time>1982-03-26T11:31:33Z</time>
      </trkpt>
      <trkpt lat="43.9419" lon="7.38224">
        <ele>1216.3</ele>
        <time>1982-03-26T11:31:34Z</time>
      </trkpt>
      <trkpt lat="43.94193" lon="7.38225">
        <ele>1215.5</ele>
        <time>1982-03-26T11:31:35Z</time>
      </trkpt>
      <trkpt lat="43.94196" lon="7.38224">
        <ele>1215.7</ele>
        <time>1982-03-26T11:31:36Z</time>
      </trkpt>
      <trkpt lat="43.94198" lon="7.38227">
        <ele>1214.7</ele>
        <time>1982-03-26T11:31:37Z</time>
      </trkpt>
      <trkpt lat="43.94202" lon="7.38231">
        <ele>1215.2</ele>
        <time>1982-03-26T11:31:38Z</time>
      </trkpt>
      <trkpt lat="43.94205" lon="7.38235">
        <ele>1213.6</ele>
        <time>1982-03-26T11:31:39Z</time>
      </trkpt>
      <trkpt lat="43.94207" lon="7.38236">
        <ele>1215.6</ele>
        <time>1982-03-26T11:31:40Z</time>
      </trkpt>
      <trkpt lat="43.94208" lon="7.38237">
        <ele>1214.7</ele>
        <time>1982-03-26T11:31:41Z</time>
      </trkpt>
      <trkpt lat="43.9421" lon="7.38238">
        <ele>1212.8</ele>
        <time>1982-03-26T11:31:42Z</time>
      </trkpt>
      <trkpt lat="43.94211" lon="7.3824">
        <ele>1213.4</ele>
        <time>1982-03-26T11:31:43Z</time>
      </trkpt>
      <trkpt lat="43.94215" lon="7.38242">
        <ele>1214.1</ele>
        <time>1982-03-26T11:31:44Z</time>
      </trkpt>
      <trkpt lat="43.94218" lon="7.38245">
        <ele>1212.9</ele>
        <time>1982-03-26T11:31:45Z</time>
      </trkpt>
      <trkpt lat="43.94221" lon="7.38248">
        <ele>1212.8</ele>
        <time>1982-03-26T11:31:46Z</time>
      </trkpt>
      <trkpt lat="43.9422" lon="7.38253">
        <ele>1210.1</ele>
        <time>1982-03-26T11:31:47Z</time>
      </trkpt>
      <trkpt lat="43.94221" lon="7.38257">
        <ele>1208.5</ele>
        <time>1982-03-26T11:31:48Z</time>
      </trkpt>
      <trkpt lat="43.94222" lon="7.38262">
        <ele>1206.7</ele>
        <time>1982-03-26T11:31:49Z</time>
      </trkpt>
      <trkpt lat="43.94223" lon="7.38266">
        <ele>1205.4</ele>
        <time>1982-03-26T11:31:50Z</time>
      </trkpt>
      <trkpt lat="43.94224" lon="7.38271">
        <ele>1205.1</ele>
        <time>1982-03-26T11:31:51Z</time>
      </trkpt>
      <trkpt lat="43.94226" lon="7.38273">
        <ele>1203.9</ele>
        <time>1982-03-26T11:31:52Z</time>
      </trkpt>
      <trkpt lat="43.94229" lon="7.38277">
        <ele>1202.3</ele>
        <time>1982-03-26T11:31:53Z</time>
      </trkpt>
      <trkpt lat="43.94231" lon="7.38281">
        <ele>1202.9</ele>
        <time>1982-03-26T11:31:54Z</time>
      </trkpt>
      <trkpt lat="43.94233" lon="7.38286">
        <ele>1201.8</ele>
        <time>1982-03-26T11:31:55Z</time>
      </trkpt>
      <trkpt lat="43.94235" lon="7.38288">
        <ele>1202</ele>
        <time>1982-03-26T11:31:56Z</time>
      </trkpt>
      <trkpt lat="43.94235" lon="7.3829">
        <ele>1201.7</ele>
        <time>1982-03-26T11:31:57Z</time>
      </trkpt>
      <trkpt lat="43.94237" lon="7.38292">
        <ele>1203.1</ele>
        <time>1982-03-26T11:31:58Z</time>
      </trkpt>
      <trkpt lat="43.94239" lon="7.38294">
        <ele>1201.9</ele>
        <time>1982-03-26T11:31:59Z</time>
      </trkpt>
      <trkpt lat="43.94241" lon="7.38296">
        <ele>1201.2</ele>
        <time>1982-03-26T11:32:00Z</time>
      </trkpt>
      <trkpt lat="43.94241" lon="7.38298">
        <ele>1200.6</ele>
        <time>1982-03-26T11:32:01Z</time>
      </trkpt>
      <trkpt lat="43.94243" lon="7.383">
        <ele>1199.1</ele>
        <time>1982-03-26T11:32:02Z</time>
      </trkpt>
      <trkpt lat="43.94245" lon="7.38302">
        <ele>1197.5</ele>
        <time>1982-03-26T11:32:03Z</time>
      </trkpt>
      <trkpt lat="43.94246" lon="7.38304">
        <ele>1197</ele>
        <time>1982-03-26T11:32:04Z</time>
      </trkpt>
      <trkpt lat="43.94249" lon="7.38306">
        <ele>1196.3</ele>
        <time>1982-03-26T11:32:05Z</time>
      </trkpt>
      <trkpt lat="43.94247" lon="7.38306">
        <ele>1196.7</ele>
        <time>1982-03-26T11:32:06Z</time>
      </trkpt>
      <trkpt lat="43.94246" lon="7.38305">
        <ele>1196.2</ele>
        <time>1982-03-26T11:32:07Z</time>
      </trkpt>
      <trkpt lat="43.94246" lon="7.38305">
        <ele>1196.2</ele>
        <time>1982-03-26T11:32:07Z</time>
      </trkpt>
      <trkpt lat="43.94246" lon="7.38306">
        <ele>1195.4</ele>
        <time>1982-03-26T11:32:09Z</time>
      </trkpt>
      <trkpt lat="43.94246" lon="7.38304">
        <ele>1194.9</ele>
        <time>1982-03-26T11:32:10Z</time>
      </trkpt>
      <trkpt lat="43.94246" lon="7.38303">
        <ele>1194.3</ele>
        <time>1982-03-26T11:32:11Z</time>
      </trkpt>
      <trkpt lat="43.94247" lon="7.38303">
        <ele>1193.8</ele>
        <time>1982-03-26T11:32:12Z</time>
      </trkpt>
      <trkpt lat="43.94247" lon="7.38303">
        <ele>1193.8</ele>
        <time>1982-03-26T11:32:13Z</time>
      </trkpt>
      <trkpt lat="43.94247" lon="7.38302">
        <ele>1192.4</ele>
        <time>1982-03-26T11:32:15Z</time>
      </trkpt>
      <trkpt lat="43.94247" lon="7.38302">
        <ele>1192.3</ele>
        <time>1982-03-26T11:32:16Z</time>
      </trkpt>
      <trkpt lat="43.94247" lon="7.38302">
        <ele>1192.3</ele>
        <time>1982-03-26T11:32:44Z</time>
      </trkpt>
      <trkpt lat="43.94248" lon="7.38309">
        <ele>1190.4</ele>
        <time>1982-03-26T11:32:46Z</time>
      </trkpt>
      <trkpt lat="43.94249" lon="7.38313">
        <ele>1189.9</ele>
        <time>1982-03-26T11:32:47Z</time>
      </trkpt>
      <trkpt lat="43.94249" lon="7.38311">
        <ele>1188.5</ele>
        <time>1982-03-26T11:32:48Z</time>
      </trkpt>
      <trkpt lat="43.94249" lon="7.38311">
        <ele>1188.8</ele>
        <time>1982-03-26T11:32:49Z</time>
      </trkpt>
      <trkpt lat="43.94249" lon="7.38311">
        <ele>1188.8</ele>
        <time>1982-03-26T11:32:49Z</time>
      </trkpt>
      <trkpt lat="43.9425" lon="7.3831">
        <ele>1188.9</ele>
        <time>1982-03-26T11:32:51Z</time>
      </trkpt>
      <trkpt lat="43.9425" lon="7.3831">
        <ele>1188.9</ele>
        <time>1982-03-26T11:32:53Z</time>
      </trkpt>
      <trkpt lat="43.94251" lon="7.38312">
        <ele>1188</ele>
        <time>1982-03-26T11:32:55Z</time>
      </trkpt>
      <trkpt lat="43.9425" lon="7.38312">
        <ele>1187.3</ele>
        <time>1982-03-26T11:32:56Z</time>
      </trkpt>
      <trkpt lat="43.9425" lon="7.38312">
        <ele>1187.3</ele>
        <time>1982-03-26T11:32:57Z</time>
      </trkpt>
      <trkpt lat="43.9425" lon="7.38312">
        <ele>1187.2</ele>
        <time>1982-03-26T11:32:59Z</time>
      </trkpt>
      <trkpt lat="43.9425" lon="7.38312">
        <ele>1187.2</ele>
        <time>1982-03-26T11:32:59Z</time>
      </trkpt>
      <trkpt lat="43.94249" lon="7.38313">
        <ele>1187</ele>
        <time>1982-03-26T11:33:02Z</time>
      </trkpt>
      <trkpt lat="43.9425" lon="7.38314">
        <ele>1187.7</ele>
        <time>1982-03-26T11:33:05Z</time>
      </trkpt>
      <trkpt lat="43.9425" lon="7.38314">
        <ele>1187.7</ele>
        <time>1982-03-26T11:33:06Z</time>
      </trkpt>
      <trkpt lat="43.9425" lon="7.38317">
        <ele>1187.3</ele>
        <time>1982-03-26T11:33:08Z</time>
      </trkpt>
      <trkpt lat="43.9425" lon="7.38316">
        <ele>1187.4</ele>
        <time>1982-03-26T11:33:09Z</time>
      </trkpt>
      <trkpt lat="43.9425" lon="7.38316">
        <ele>1187.4</ele>
        <time>1982-03-26T11:33:10Z</time>
      </trkpt>
      <trkpt lat="43.94251" lon="7.38316">
        <ele>1187.9</ele>
        <time>1982-03-26T11:33:12Z</time>
      </trkpt>
      <trkpt lat="43.94251" lon="7.38316">
        <ele>1187.9</ele>
        <time>1982-03-26T11:33:15Z</time>
      </trkpt>
      <trkpt lat="43.94251" lon="7.38316">
        <ele>1188</ele>
        <time>1982-03-26T11:33:17Z</time>
      </trkpt>
      <trkpt lat="43.94251" lon="7.38316">
        <ele>1188</ele>
        <time>1982-03-26T11:38:03Z</time>
      </trkpt>
      <trkpt lat="43.9425" lon="7.38316">
        <ele>1187.7</ele>
        <time>1982-03-26T11:38:05Z</time>
      </trkpt>
      <trkpt lat="43.9425" lon="7.38317">
        <ele>1187.2</ele>
        <time>1982-03-26T11:38:06Z</time>
      </trkpt>
      <trkpt lat="43.9425" lon="7.38317">
        <ele>1187.2</ele>
        <time>1982-03-26T11:38:15Z</time>
      </trkpt>
      <trkpt lat="43.9425" lon="7.38319">
        <ele>1187.8</ele>
        <time>1982-03-26T11:38:17Z</time>
      </trkpt>
      <trkpt lat="43.9425" lon="7.38318">
        <ele>1187.6</ele>
        <time>1982-03-26T11:38:18Z</time>
      </trkpt>
      <trkpt lat="43.9425" lon="7.38318">
        <ele>1187.6</ele>
        <time>1982-03-26T11:38:19Z</time>
      </trkpt>
      <trkpt lat="43.9425" lon="7.38318">
        <ele>1186.9</ele>
        <time>1982-03-26T11:38:21Z</time>
      </trkpt>
      <trkpt lat="43.9425" lon="7.38318">
        <ele>1186.9</ele>
        <time>1982-03-26T11:38:21Z</time>
      </trkpt>
      <trkpt lat="43.9425" lon="7.3832">
        <ele>1187</ele>
        <time>1982-03-26T11:38:23Z</time>
      </trkpt>
      <trkpt lat="43.9425" lon="7.3832">
        <ele>1186.3</ele>
        <time>1982-03-26T11:38:24Z</time>
      </trkpt>
      <trkpt lat="43.9425" lon="7.3832">
        <ele>1186.3</ele>
        <time>1982-03-26T11:38:24Z</time>
      </trkpt>
      <trkpt lat="43.9425" lon="7.3832">
        <ele>1185.6</ele>
        <time>1982-03-26T11:38:26Z</time>
      </trkpt>
      <trkpt lat="43.9425" lon="7.3832">
        <ele>1185.6</ele>
        <time>1982-03-26T11:38:26Z</time>
      </trkpt>
      <trkpt lat="43.9425" lon="7.38321">
        <ele>1185.2</ele>
        <time>1982-03-26T11:38:28Z</time>
      </trkpt>
      <trkpt lat="43.9425" lon="7.38321">
        <ele>1185.2</ele>
        <time>1982-03-26T11:38:32Z</time>
      </trkpt>
      <trkpt lat="43.94249" lon="7.38321">
        <ele>1184.9</ele>
        <time>1982-03-26T11:38:34Z</time>
      </trkpt>
      <trkpt lat="43.94249" lon="7.38321">
        <ele>1184.9</ele>
        <time>1982-03-26T11:38:45Z</time>
      </trkpt>
      <trkpt lat="43.9425" lon="7.38324">
        <ele>1181.9</ele>
        <time>1982-03-26T11:38:47Z</time>
      </trkpt>
      <trkpt lat="43.94249" lon="7.38327">
        <ele>1181.4</ele>
        <time>1982-03-26T11:38:48Z</time>
      </trkpt>
      <trkpt lat="43.94249" lon="7.38329">
        <ele>1181</ele>
        <time>1982-03-26T11:38:49Z</time>
      </trkpt>
      <trkpt lat="43.94248" lon="7.38332">
        <ele>1181.6</ele>
        <time>1982-03-26T11:38:50Z</time>
      </trkpt>
      <trkpt lat="43.94247" lon="7.38338">
        <ele>1181.1</ele>
        <time>1982-03-26T11:38:51Z</time>
      </trkpt>
      <trkpt lat="43.94245" lon="7.38343">
        <ele>1181.3</ele>
        <time>1982-03-26T11:38:52Z</time>
      </trkpt>
      <trkpt lat="43.94243" lon="7.38347">
        <ele>1181.1</ele>
        <time>1982-03-26T11:38:53Z</time>
      </trkpt>
      <trkpt lat="43.94243" lon="7.38348">
        <ele>1180.5</ele>
        <time>1982-03-26T11:38:54Z</time>
      </trkpt>
      <trkpt lat="43.94243" lon="7.3835">
        <ele>1180.5</ele>
        <time>1982-03-26T11:38:55Z</time>
      </trkpt>
      <trkpt lat="43.9424" lon="7.38354">
        <ele>1180.3</ele>
        <time>1982-03-26T11:38:56Z</time>
      </trkpt>
      <trkpt lat="43.94238" lon="7.38356">
        <ele>1178.2</ele>
        <time>1982-03-26T11:38:57Z</time>
      </trkpt>
      <trkpt lat="43.94237" lon="7.38357">
        <ele>1176.5</ele>
        <time>1982-03-26T11:38:58Z</time>
      </trkpt>
      <trkpt lat="43.94236" lon="7.38359">
        <ele>1175.1</ele>
        <time>1982-03-26T11:38:59Z</time>
      </trkpt>
      <trkpt lat="43.94234" lon="7.38363">
        <ele>1173.8</ele>
        <time>1982-03-26T11:39:00Z</time>
      </trkpt>
      <trkpt lat="43.94237" lon="7.38367">
        <ele>1173.6</ele>
        <time>1982-03-26T11:39:01Z</time>
      </trkpt>
      <trkpt lat="43.94237" lon="7.3837">
        <ele>1174.1</ele>
        <time>1982-03-26T11:39:02Z</time>
      </trkpt>
      <trkpt lat="43.94238" lon="7.38374">
        <ele>1174.3</ele>
        <time>1982-03-26T11:39:03Z</time>
      </trkpt>
      <trkpt lat="43.94235" lon="7.38377">
        <ele>1173.1</ele>
        <time>1982-03-26T11:39:04Z</time>
      </trkpt>
      <trkpt lat="43.94234" lon="7.3838">
        <ele>1173.4</ele>
        <time>1982-03-26T11:39:05Z</time>
      </trkpt>
      <trkpt lat="43.94232" lon="7.38382">
        <ele>1173.8</ele>
        <time>1982-03-26T11:39:06Z</time>
      </trkpt>
      <trkpt lat="43.94231" lon="7.38385">
        <ele>1172.7</ele>
        <time>1982-03-26T11:39:07Z</time>
      </trkpt>
      <trkpt lat="43.94231" lon="7.38387">
        <ele>1171.3</ele>
        <time>1982-03-26T11:39:08Z</time>
      </trkpt>
      <trkpt lat="43.94231" lon="7.38389">
        <ele>1169.9</ele>
        <time>1982-03-26T11:39:09Z</time>
      </trkpt>
      <trkpt lat="43.94228" lon="7.38392">
        <ele>1172.8</ele>
        <time>1982-03-26T11:39:10Z</time>
      </trkpt>
      <trkpt lat="43.94227" lon="7.38396">
        <ele>1172.7</ele>
        <time>1982-03-26T11:39:11Z</time>
      </trkpt>
      <trkpt lat="43.94226" lon="7.384">
        <ele>1171.8</ele>
        <time>1982-03-26T11:39:12Z</time>
      </trkpt>
      <trkpt lat="43.94225" lon="7.38404">
        <ele>1170.7</ele>
        <time>1982-03-26T11:39:13Z</time>
      </trkpt>
      <trkpt lat="43.94223" lon="7.38409">
        <ele>1170.9</ele>
        <time>1982-03-26T11:39:14Z</time>
      </trkpt>
      <trkpt lat="43.94222" lon="7.38412">
        <ele>1168.3</ele>
        <time>1982-03-26T11:39:15Z</time>
      </trkpt>
      <trkpt lat="43.9422" lon="7.38416">
        <ele>1167.5</ele>
        <time>1982-03-26T11:39:16Z</time>
      </trkpt>
      <trkpt lat="43.94217" lon="7.38421">
        <ele>1164.7</ele>
        <time>1982-03-26T11:39:17Z</time>
      </trkpt>
      <trkpt lat="43.94214" lon="7.38425">
        <ele>1163.5</ele>
        <time>1982-03-26T11:39:18Z</time>
      </trkpt>
      <trkpt lat="43.94211" lon="7.38429">
        <ele>1163.1</ele>
        <time>1982-03-26T11:39:19Z</time>
      </trkpt>
      <trkpt lat="43.94209" lon="7.38434">
        <ele>1164.8</ele>
        <time>1982-03-26T11:39:20Z</time>
      </trkpt>
      <trkpt lat="43.94206" lon="7.38439">
        <ele>1165.7</ele>
        <time>1982-03-26T11:39:21Z</time>
      </trkpt>
      <trkpt lat="43.94206" lon="7.38441">
        <ele>1166.5</ele>
        <time>1982-03-26T11:39:22Z</time>
      </trkpt>
      <trkpt lat="43.94206" lon="7.38445">
        <ele>1167.5</ele>
        <time>1982-03-26T11:39:23Z</time>
      </trkpt>
      <trkpt lat="43.94204" lon="7.38448">
        <ele>1168.2</ele>
        <time>1982-03-26T11:39:24Z</time>
      </trkpt>
      <trkpt lat="43.94204" lon="7.38451">
        <ele>1169.5</ele>
        <time>1982-03-26T11:39:25Z</time>
      </trkpt>
      <trkpt lat="43.94205" lon="7.38454">
        <ele>1169.5</ele>
        <time>1982-03-26T11:39:26Z</time>
      </trkpt>
      <trkpt lat="43.94205" lon="7.38456">
        <ele>1169.6</ele>
        <time>1982-03-26T11:39:27Z</time>
      </trkpt>
      <trkpt lat="43.94205" lon="7.38458">
        <ele>1169.3</ele>
        <time>1982-03-26T11:39:28Z</time>
      </trkpt>
      <trkpt lat="43.94206" lon="7.38461">
        <ele>1169.7</ele>
        <time>1982-03-26T11:39:29Z</time>
      </trkpt>
      <trkpt lat="43.94205" lon="7.38465">
        <ele>1169.6</ele>
        <time>1982-03-26T11:39:30Z</time>
      </trkpt>
      <trkpt lat="43.94202" lon="7.3847">
        <ele>1173.4</ele>
        <time>1982-03-26T11:39:31Z</time>
      </trkpt>
      <trkpt lat="43.94201" lon="7.38474">
        <ele>1174.1</ele>
        <time>1982-03-26T11:39:32Z</time>
      </trkpt>
      <trkpt lat="43.942" lon="7.38477">
        <ele>1174.8</ele>
        <time>1982-03-26T11:39:33Z</time>
      </trkpt>
      <trkpt lat="43.94198" lon="7.38482">
        <ele>1175.2</ele>
        <time>1982-03-26T11:39:34Z</time>
      </trkpt>
      <trkpt lat="43.94196" lon="7.38487">
        <ele>1175.5</ele>
        <time>1982-03-26T11:39:35Z</time>
      </trkpt>
      <trkpt lat="43.94195" lon="7.38488">
        <ele>1172.3</ele>
        <time>1982-03-26T11:39:36Z</time>
      </trkpt>
      <trkpt lat="43.94194" lon="7.38492">
        <ele>1170</ele>
        <time>1982-03-26T11:39:37Z</time>
      </trkpt>
      <trkpt lat="43.94194" lon="7.38496">
        <ele>1167.9</ele>
        <time>1982-03-26T11:39:38Z</time>
      </trkpt>
      <trkpt lat="43.94195" lon="7.385">
        <ele>1166.1</ele>
        <time>1982-03-26T11:39:39Z</time>
      </trkpt>
      <trkpt lat="43.94196" lon="7.38503">
        <ele>1164.6</ele>
        <time>1982-03-26T11:39:40Z</time>
      </trkpt>
      <trkpt lat="43.94195" lon="7.38506">
        <ele>1164.7</ele>
        <time>1982-03-26T11:39:41Z</time>
      </trkpt>
      <trkpt lat="43.94194" lon="7.38509">
        <ele>1164.6</ele>
        <time>1982-03-26T11:39:42Z</time>
      </trkpt>
      <trkpt lat="43.94196" lon="7.38511">
        <ele>1169.4</ele>
        <time>1982-03-26T11:39:43Z</time>
      </trkpt>
      <trkpt lat="43.94196" lon="7.38514">
        <ele>1171.9</ele>
        <time>1982-03-26T11:39:44Z</time>
      </trkpt>
      <trkpt lat="43.94198" lon="7.38518">
        <ele>1172.6</ele>
        <time>1982-03-26T11:39:45Z</time>
      </trkpt>
      <trkpt lat="43.94198" lon="7.38522">
        <ele>1173.6</ele>
        <time>1982-03-26T11:39:46Z</time>
      </trkpt>
      <trkpt lat="43.94194" lon="7.38526">
        <ele>1172.5</ele>
        <time>1982-03-26T11:39:47Z</time>
      </trkpt>
      <trkpt lat="43.94192" lon="7.38529">
        <ele>1172.1</ele>
        <time>1982-03-26T11:39:48Z</time>
      </trkpt>
      <trkpt lat="43.94192" lon="7.38533">
        <ele>1170.8</ele>
        <time>1982-03-26T11:39:49Z</time>
      </trkpt>
      <trkpt lat="43.94191" lon="7.38538">
        <ele>1170.1</ele>
        <time>1982-03-26T11:39:50Z</time>
      </trkpt>
      <trkpt lat="43.94192" lon="7.38541">
        <ele>1168.4</ele>
        <time>1982-03-26T11:39:51Z</time>
      </trkpt>
      <trkpt lat="43.94193" lon="7.38545">
        <ele>1166.8</ele>
        <time>1982-03-26T11:39:52Z</time>
      </trkpt>
      <trkpt lat="43.94193" lon="7.38548">
        <ele>1165.2</ele>
        <time>1982-03-26T11:39:53Z</time>
      </trkpt>
      <trkpt lat="43.94192" lon="7.38552">
        <ele>1164.2</ele>
        <time>1982-03-26T11:39:54Z</time>
      </trkpt>
      <trkpt lat="43.94193" lon="7.38553">
        <ele>1163.9</ele>
        <time>1982-03-26T11:39:55Z</time>
      </trkpt>
      <trkpt lat="43.94192" lon="7.38559">
        <ele>1162.4</ele>
        <time>1982-03-26T11:39:56Z</time>
      </trkpt>
      <trkpt lat="43.94192" lon="7.38563">
        <ele>1161.5</ele>
        <time>1982-03-26T11:39:57Z</time>
      </trkpt>
      <trkpt lat="43.94192" lon="7.38567">
        <ele>1160.8</ele>
        <time>1982-03-26T11:39:58Z</time>
      </trkpt>
      <trkpt lat="43.9419" lon="7.3857">
        <ele>1160.9</ele>
        <time>1982-03-26T11:39:59Z</time>
      </trkpt>
      <trkpt lat="43.94191" lon="7.38574">
        <ele>1159.3</ele>
        <time>1982-03-26T11:40:00Z</time>
      </trkpt>
      <trkpt lat="43.94189" lon="7.38578">
        <ele>1158.7</ele>
        <time>1982-03-26T11:40:01Z</time>
      </trkpt>
      <trkpt lat="43.94187" lon="7.38583">
        <ele>1157.8</ele>
        <time>1982-03-26T11:40:02Z</time>
      </trkpt>
      <trkpt lat="43.94187" lon="7.38581">
        <ele>1155.7</ele>
        <time>1982-03-26T11:40:03Z</time>
      </trkpt>
      <trkpt lat="43.94184" lon="7.38582">
        <ele>1154.7</ele>
        <time>1982-03-26T11:40:04Z</time>
      </trkpt>
      <trkpt lat="43.94182" lon="7.38584">
        <ele>1153.6</ele>
        <time>1982-03-26T11:40:05Z</time>
      </trkpt>
      <trkpt lat="43.94183" lon="7.38585">
        <ele>1150.1</ele>
        <time>1982-03-26T11:40:06Z</time>
      </trkpt>
      <trkpt lat="43.9418" lon="7.38584">
        <ele>1148.3</ele>
        <time>1982-03-26T11:40:07Z</time>
      </trkpt>
      <trkpt lat="43.94178" lon="7.38586">
        <ele>1146.7</ele>
        <time>1982-03-26T11:40:08Z</time>
      </trkpt>
      <trkpt lat="43.94176" lon="7.38587">
        <ele>1146.6</ele>
        <time>1982-03-26T11:40:09Z</time>
      </trkpt>
      <trkpt lat="43.94174" lon="7.38587">
        <ele>1145.6</ele>
        <time>1982-03-26T11:40:10Z</time>
      </trkpt>
      <trkpt lat="43.94173" lon="7.38588">
        <ele>1145.8</ele>
        <time>1982-03-26T11:40:11Z</time>
      </trkpt>
      <trkpt lat="43.94169" lon="7.38587">
        <ele>1145.7</ele>
        <time>1982-03-26T11:40:12Z</time>
      </trkpt>
      <trkpt lat="43.94167" lon="7.38586">
        <ele>1145.1</ele>
        <time>1982-03-26T11:40:13Z</time>
      </trkpt>
      <trkpt lat="43.94166" lon="7.38588">
        <ele>1144.7</ele>
        <time>1982-03-26T11:40:14Z</time>
      </trkpt>
      <trkpt lat="43.94164" lon="7.38587">
        <ele>1144.1</ele>
        <time>1982-03-26T11:40:15Z</time>
      </trkpt>
      <trkpt lat="43.94162" lon="7.38588">
        <ele>1143.8</ele>
        <time>1982-03-26T11:40:16Z</time>
      </trkpt>
      <trkpt lat="43.9416" lon="7.3859">
        <ele>1144.1</ele>
        <time>1982-03-26T11:40:17Z</time>
      </trkpt>
      <trkpt lat="43.94158" lon="7.3859">
        <ele>1144.3</ele>
        <time>1982-03-26T11:40:18Z</time>
      </trkpt>
      <trkpt lat="43.94161" lon="7.3859">
        <ele>1145.4</ele>
        <time>1982-03-26T11:40:19Z</time>
      </trkpt>
      <trkpt lat="43.94161" lon="7.38592">
        <ele>1146.8</ele>
        <time>1982-03-26T11:40:20Z</time>
      </trkpt>
      <trkpt lat="43.94159" lon="7.38594">
        <ele>1147.5</ele>
        <time>1982-03-26T11:40:21Z</time>
      </trkpt>
      <trkpt lat="43.94158" lon="7.38595">
        <ele>1147.8</ele>
        <time>1982-03-26T11:40:22Z</time>
      </trkpt>
      <trkpt lat="43.94158" lon="7.38595">
        <ele>1147.8</ele>
        <time>1982-03-26T11:40:22Z</time>
      </trkpt>
      <trkpt lat="43.94157" lon="7.38598">
        <ele>1148.1</ele>
        <time>1982-03-26T11:40:24Z</time>
      </trkpt>
      <trkpt lat="43.94157" lon="7.38601">
        <ele>1150.9</ele>
        <time>1982-03-26T11:40:25Z</time>
      </trkpt>
      <trkpt lat="43.94157" lon="7.38605">
        <ele>1151.5</ele>
        <time>1982-03-26T11:40:26Z</time>
      </trkpt>
      <trkpt lat="43.94158" lon="7.38606">
        <ele>1149.6</ele>
        <time>1982-03-26T11:40:27Z</time>
      </trkpt>
      <trkpt lat="43.94158" lon="7.38608">
        <ele>1150.9</ele>
        <time>1982-03-26T11:40:28Z</time>
      </trkpt>
      <trkpt lat="43.94159" lon="7.38611">
        <ele>1149.7</ele>
        <time>1982-03-26T11:40:29Z</time>
      </trkpt>
      <trkpt lat="43.94158" lon="7.38614">
        <ele>1148.5</ele>
        <time>1982-03-26T11:40:30Z</time>
      </trkpt>
      <trkpt lat="43.94159" lon="7.38617">
        <ele>1147.2</ele>
        <time>1982-03-26T11:40:31Z</time>
      </trkpt>
      <trkpt lat="43.9416" lon="7.38619">
        <ele>1145.7</ele>
        <time>1982-03-26T11:40:32Z</time>
      </trkpt>
      <trkpt lat="43.94159" lon="7.38622">
        <ele>1145</ele>
        <time>1982-03-26T11:40:33Z</time>
      </trkpt>
      <trkpt lat="43.94161" lon="7.38623">
        <ele>1145.4</ele>
        <time>1982-03-26T11:40:34Z</time>
      </trkpt>
      <trkpt lat="43.94161" lon="7.38624">
        <ele>1145.5</ele>
        <time>1982-03-26T11:40:35Z</time>
      </trkpt>
      <trkpt lat="43.94162" lon="7.38628">
        <ele>1143.8</ele>
        <time>1982-03-26T11:40:37Z</time>
      </trkpt>
      <trkpt lat="43.94163" lon="7.38631">
        <ele>1142.7</ele>
        <time>1982-03-26T11:40:38Z</time>
      </trkpt>
      <trkpt lat="43.94164" lon="7.38632">
        <ele>1141.9</ele>
        <time>1982-03-26T11:40:39Z</time>
      </trkpt>
      <trkpt lat="43.94164" lon="7.38635">
        <ele>1144</ele>
        <time>1982-03-26T11:40:40Z</time>
      </trkpt>
      <trkpt lat="43.94165" lon="7.38638">
        <ele>1144.3</ele>
        <time>1982-03-26T11:40:41Z</time>
      </trkpt>
      <trkpt lat="43.94164" lon="7.38641">
        <ele>1144.8</ele>
        <time>1982-03-26T11:40:42Z</time>
      </trkpt>
      <trkpt lat="43.94164" lon="7.38645">
        <ele>1145.5</ele>
        <time>1982-03-26T11:40:43Z</time>
      </trkpt>
      <trkpt lat="43.94164" lon="7.38649">
        <ele>1144.7</ele>
        <time>1982-03-26T11:40:44Z</time>
      </trkpt>
      <trkpt lat="43.94161" lon="7.38648">
        <ele>1144.1</ele>
        <time>1982-03-26T11:40:45Z</time>
      </trkpt>
      <trkpt lat="43.94161" lon="7.3865">
        <ele>1143.3</ele>
        <time>1982-03-26T11:40:46Z</time>
      </trkpt>
      <trkpt lat="43.94161" lon="7.38651">
        <ele>1143</ele>
        <time>1982-03-26T11:40:47Z</time>
      </trkpt>
      <trkpt lat="43.94162" lon="7.38658">
        <ele>1146.3</ele>
        <time>1982-03-26T11:40:49Z</time>
      </trkpt>
      <trkpt lat="43.94163" lon="7.38661">
        <ele>1146.7</ele>
        <time>1982-03-26T11:40:50Z</time>
      </trkpt>
      <trkpt lat="43.94163" lon="7.38665">
        <ele>1147</ele>
        <time>1982-03-26T11:40:51Z</time>
      </trkpt>
      <trkpt lat="43.94163" lon="7.38668">
        <ele>1147.8</ele>
        <time>1982-03-26T11:40:52Z</time>
      </trkpt>
      <trkpt lat="43.94164" lon="7.38669">
        <ele>1146</ele>
        <time>1982-03-26T11:40:53Z</time>
      </trkpt>
      <trkpt lat="43.94165" lon="7.3867">
        <ele>1147.2</ele>
        <time>1982-03-26T11:40:54Z</time>
      </trkpt>
      <trkpt lat="43.94164" lon="7.3867">
        <ele>1147.4</ele>
        <time>1982-03-26T11:40:55Z</time>
      </trkpt>
      <trkpt lat="43.94164" lon="7.3867">
        <ele>1147.4</ele>
        <time>1982-03-26T11:40:58Z</time>
      </trkpt>
      <trkpt lat="43.94164" lon="7.38671">
        <ele>1147.7</ele>
        <time>1982-03-26T11:41:00Z</time>
      </trkpt>
      <trkpt lat="43.94163" lon="7.38671">
        <ele>1147.8</ele>
        <time>1982-03-26T11:41:01Z</time>
      </trkpt>
      <trkpt lat="43.94163" lon="7.38671">
        <ele>1147.8</ele>
        <time>1982-03-26T11:41:05Z</time>
      </trkpt>
      <trkpt lat="43.94163" lon="7.38672">
        <ele>1148.5</ele>
        <time>1982-03-26T11:41:07Z</time>
      </trkpt>
      <trkpt lat="43.94163" lon="7.38672">
        <ele>1148.5</ele>
        <time>1982-03-26T11:41:25Z</time>
      </trkpt>
      <trkpt lat="43.94163" lon="7.38672">
        <ele>1149.1</ele>
        <time>1982-03-26T11:41:27Z</time>
      </trkpt>
      <trkpt lat="43.94163" lon="7.38672">
        <ele>1149.1</ele>
        <time>1982-03-26T11:43:33Z</time>
      </trkpt>
      <trkpt lat="43.94163" lon="7.38675">
        <ele>1145.5</ele>
        <time>1982-03-26T11:43:35Z</time>
      </trkpt>
      <trkpt lat="43.94161" lon="7.38678">
        <ele>1144.1</ele>
        <time>1982-03-26T11:43:36Z</time>
      </trkpt>
      <trkpt lat="43.94161" lon="7.38679">
        <ele>1142.8</ele>
        <time>1982-03-26T11:43:37Z</time>
      </trkpt>
      <trkpt lat="43.9416" lon="7.38686">
        <ele>1141.3</ele>
        <time>1982-03-26T11:43:38Z</time>
      </trkpt>
      <trkpt lat="43.94158" lon="7.38692">
        <ele>1140</ele>
        <time>1982-03-26T11:43:39Z</time>
      </trkpt>
      <trkpt lat="43.94156" lon="7.38696">
        <ele>1139.1</ele>
        <time>1982-03-26T11:43:40Z</time>
      </trkpt>
      <trkpt lat="43.94154" lon="7.38701">
        <ele>1137.4</ele>
        <time>1982-03-26T11:43:41Z</time>
      </trkpt>
      <trkpt lat="43.94151" lon="7.38707">
        <ele>1136</ele>
        <time>1982-03-26T11:43:42Z</time>
      </trkpt>
      <trkpt lat="43.9415" lon="7.38711">
        <ele>1135.1</ele>
        <time>1982-03-26T11:43:43Z</time>
      </trkpt>
      <trkpt lat="43.94147" lon="7.38716">
        <ele>1135.1</ele>
        <time>1982-03-26T11:43:44Z</time>
      </trkpt>
      <trkpt lat="43.94144" lon="7.38721">
        <ele>1134.5</ele>
        <time>1982-03-26T11:43:45Z</time>
      </trkpt>
      <trkpt lat="43.94141" lon="7.38726">
        <ele>1134.3</ele>
        <time>1982-03-26T11:43:46Z</time>
      </trkpt>
      <trkpt lat="43.9414" lon="7.38731">
        <ele>1133.9</ele>
        <time>1982-03-26T11:43:47Z</time>
      </trkpt>
      <trkpt lat="43.9414" lon="7.38732">
        <ele>1132.8</ele>
        <time>1982-03-26T11:43:48Z</time>
      </trkpt>
      <trkpt lat="43.94139" lon="7.38734">
        <ele>1132.8</ele>
        <time>1982-03-26T11:43:49Z</time>
      </trkpt>
      <trkpt lat="43.94137" lon="7.38736">
        <ele>1132.5</ele>
        <time>1982-03-26T11:43:50Z</time>
      </trkpt>
      <trkpt lat="43.94137" lon="7.38735">
        <ele>1132.4</ele>
        <time>1982-03-26T11:43:51Z</time>
      </trkpt>
      <trkpt lat="43.94137" lon="7.38735">
        <ele>1132.4</ele>
        <time>1982-03-26T11:43:53Z</time>
      </trkpt>
      <trkpt lat="43.94136" lon="7.38736">
        <ele>1131.5</ele>
        <time>1982-03-26T11:43:55Z</time>
      </trkpt>
      <trkpt lat="43.94136" lon="7.38736">
        <ele>1131.2</ele>
        <time>1982-03-26T11:43:57Z</time>
      </trkpt>
      <trkpt lat="43.94134" lon="7.38741">
        <ele>1130.7</ele>
        <time>1982-03-26T11:43:59Z</time>
      </trkpt>
      <trkpt lat="43.94133" lon="7.38744">
        <ele>1130.4</ele>
        <time>1982-03-26T11:44:00Z</time>
      </trkpt>
      <trkpt lat="43.94133" lon="7.38747">
        <ele>1130.3</ele>
        <time>1982-03-26T11:44:01Z</time>
      </trkpt>
      <trkpt lat="43.94134" lon="7.38749">
        <ele>1130.3</ele>
        <time>1982-03-26T11:44:02Z</time>
      </trkpt>
      <trkpt lat="43.94134" lon="7.38751">
        <ele>1130.9</ele>
        <time>1982-03-26T11:44:03Z</time>
      </trkpt>
      <trkpt lat="43.94133" lon="7.38753">
        <ele>1131.8</ele>
        <time>1982-03-26T11:44:04Z</time>
      </trkpt>
      <trkpt lat="43.94132" lon="7.38757">
        <ele>1131.6</ele>
        <time>1982-03-26T11:44:05Z</time>
      </trkpt>
      <trkpt lat="43.94133" lon="7.3876">
        <ele>1126.9</ele>
        <time>1982-03-26T11:44:06Z</time>
      </trkpt>
      <trkpt lat="43.94132" lon="7.38762">
        <ele>1125.3</ele>
        <time>1982-03-26T11:44:07Z</time>
      </trkpt>
      <trkpt lat="43.94131" lon="7.38764">
        <ele>1124.7</ele>
        <time>1982-03-26T11:44:08Z</time>
      </trkpt>
      <trkpt lat="43.94129" lon="7.38766">
        <ele>1123.6</ele>
        <time>1982-03-26T11:44:09Z</time>
      </trkpt>
      <trkpt lat="43.94128" lon="7.38768">
        <ele>1123.9</ele>
        <time>1982-03-26T11:44:10Z</time>
      </trkpt>
      <trkpt lat="43.94127" lon="7.38769">
        <ele>1122.5</ele>
        <time>1982-03-26T11:44:11Z</time>
      </trkpt>
      <trkpt lat="43.94127" lon="7.38769">
        <ele>1123.1</ele>
        <time>1982-03-26T11:44:12Z</time>
      </trkpt>
      <trkpt lat="43.94127" lon="7.38769">
        <ele>1123.1</ele>
        <time>1982-03-26T11:44:14Z</time>
      </trkpt>
      <trkpt lat="43.94127" lon="7.3877">
        <ele>1123.9</ele>
        <time>1982-03-26T11:44:16Z</time>
      </trkpt>
      <trkpt lat="43.94127" lon="7.3877">
        <ele>1123.9</ele>
        <time>1982-03-26T11:44:16Z</time>
      </trkpt>
      <trkpt lat="43.94128" lon="7.3877">
        <ele>1124</ele>
        <time>1982-03-26T11:44:20Z</time>
      </trkpt>
      <trkpt lat="43.94127" lon="7.38775">
        <ele>1124.1</ele>
        <time>1982-03-26T11:44:23Z</time>
      </trkpt>
      <trkpt lat="43.94126" lon="7.38778">
        <ele>1122.5</ele>
        <time>1982-03-26T11:44:24Z</time>
      </trkpt>
      <trkpt lat="43.94125" lon="7.3878">
        <ele>1121.9</ele>
        <time>1982-03-26T11:44:25Z</time>
      </trkpt>
      <trkpt lat="43.94124" lon="7.38784">
        <ele>1121.4</ele>
        <time>1982-03-26T11:44:26Z</time>
      </trkpt>
      <trkpt lat="43.94123" lon="7.38788">
        <ele>1121.6</ele>
        <time>1982-03-26T11:44:27Z</time>
      </trkpt>
      <trkpt lat="43.94123" lon="7.38793">
        <ele>1120.3</ele>
        <time>1982-03-26T11:44:28Z</time>
      </trkpt>
      <trkpt lat="43.94122" lon="7.38797">
        <ele>1119.9</ele>
        <time>1982-03-26T11:44:29Z</time>
      </trkpt>
      <trkpt lat="43.94124" lon="7.388">
        <ele>1113.6</ele>
        <time>1982-03-26T11:44:30Z</time>
      </trkpt>
      <trkpt lat="43.94123" lon="7.38804">
        <ele>1111.2</ele>
        <time>1982-03-26T11:44:31Z</time>
      </trkpt>
      <trkpt lat="43.94124" lon="7.38806">
        <ele>1108.8</ele>
        <time>1982-03-26T11:44:32Z</time>
      </trkpt>
      <trkpt lat="43.94123" lon="7.3881">
        <ele>1106.2</ele>
        <time>1982-03-26T11:44:33Z</time>
      </trkpt>
      <trkpt lat="43.9412" lon="7.38813">
        <ele>1107.4</ele>
        <time>1982-03-26T11:44:34Z</time>
      </trkpt>
      <trkpt lat="43.94119" lon="7.38815">
        <ele>1108</ele>
        <time>1982-03-26T11:44:35Z</time>
      </trkpt>
      <trkpt lat="43.94116" lon="7.38817">
        <ele>1108.2</ele>
        <time>1982-03-26T11:44:36Z</time>
      </trkpt>
      <trkpt lat="43.94114" lon="7.38819">
        <ele>1108.3</ele>
        <time>1982-03-26T11:44:37Z</time>
      </trkpt>
      <trkpt lat="43.94112" lon="7.38821">
        <ele>1108.9</ele>
        <time>1982-03-26T11:44:38Z</time>
      </trkpt>
      <trkpt lat="43.9411" lon="7.3882">
        <ele>1109.1</ele>
        <time>1982-03-26T11:44:39Z</time>
      </trkpt>
      <trkpt lat="43.94105" lon="7.38821">
        <ele>1110.2</ele>
        <time>1982-03-26T11:44:40Z</time>
      </trkpt>
      <trkpt lat="43.941" lon="7.38822">
        <ele>1112.8</ele>
        <time>1982-03-26T11:44:41Z</time>
      </trkpt>
      <trkpt lat="43.94096" lon="7.38822">
        <ele>1113.9</ele>
        <time>1982-03-26T11:44:42Z</time>
      </trkpt>
      <trkpt lat="43.94093" lon="7.38821">
        <ele>1114.7</ele>
        <time>1982-03-26T11:44:43Z</time>
      </trkpt>
      <trkpt lat="43.9409" lon="7.38821">
        <ele>1115.9</ele>
        <time>1982-03-26T11:44:44Z</time>
      </trkpt>
      <trkpt lat="43.94087" lon="7.3882">
        <ele>1117.2</ele>
        <time>1982-03-26T11:44:45Z</time>
      </trkpt>
      <trkpt lat="43.94083" lon="7.38816">
        <ele>1115.8</ele>
        <time>1982-03-26T11:44:46Z</time>
      </trkpt>
      <trkpt lat="43.94079" lon="7.38814">
        <ele>1116.2</ele>
        <time>1982-03-26T11:44:47Z</time>
      </trkpt>
      <trkpt lat="43.94075" lon="7.38812">
        <ele>1114.2</ele>
        <time>1982-03-26T11:44:48Z</time>
      </trkpt>
      <trkpt lat="43.94072" lon="7.3881">
        <ele>1113</ele>
        <time>1982-03-26T11:44:49Z</time>
      </trkpt>
      <trkpt lat="43.94068" lon="7.38808">
        <ele>1112.1</ele>
        <time>1982-03-26T11:44:50Z</time>
      </trkpt>
      <trkpt lat="43.94066" lon="7.38808">
        <ele>1111.4</ele>
        <time>1982-03-26T11:44:51Z</time>
      </trkpt>
      <trkpt lat="43.94065" lon="7.3881">
        <ele>1111.4</ele>
        <time>1982-03-26T11:44:52Z</time>
      </trkpt>
      <trkpt lat="43.94065" lon="7.38812">
        <ele>1111.3</ele>
        <time>1982-03-26T11:44:53Z</time>
      </trkpt>
      <trkpt lat="43.94069" lon="7.38816">
        <ele>1113.5</ele>
        <time>1982-03-26T11:44:54Z</time>
      </trkpt>
      <trkpt lat="43.94069" lon="7.38818">
        <ele>1114.7</ele>
        <time>1982-03-26T11:44:55Z</time>
      </trkpt>
      <trkpt lat="43.9407" lon="7.38819">
        <ele>1115.1</ele>
        <time>1982-03-26T11:44:56Z</time>
      </trkpt>
      <trkpt lat="43.94075" lon="7.38827">
        <ele>1113</ele>
        <time>1982-03-26T11:44:58Z</time>
      </trkpt>
      <trkpt lat="43.94077" lon="7.38832">
        <ele>1112.4</ele>
        <time>1982-03-26T11:44:59Z</time>
      </trkpt>
      <trkpt lat="43.94079" lon="7.38835">
        <ele>1112.3</ele>
        <time>1982-03-26T11:45:00Z</time>
      </trkpt>
      <trkpt lat="43.94081" lon="7.38838">
        <ele>1111.7</ele>
        <time>1982-03-26T11:45:01Z</time>
      </trkpt>
      <trkpt lat="43.94082" lon="7.38843">
        <ele>1112.4</ele>
        <time>1982-03-26T11:45:02Z</time>
      </trkpt>
      <trkpt lat="43.94084" lon="7.38847">
        <ele>1112.2</ele>
        <time>1982-03-26T11:45:03Z</time>
      </trkpt>
      <trkpt lat="43.94086" lon="7.38848">
        <ele>1112.6</ele>
        <time>1982-03-26T11:45:04Z</time>
      </trkpt>
      <trkpt lat="43.94083" lon="7.38855">
        <ele>1119</ele>
        <time>1982-03-26T11:45:05Z</time>
      </trkpt>
      <trkpt lat="43.94082" lon="7.38859">
        <ele>1122.4</ele>
        <time>1982-03-26T11:45:06Z</time>
      </trkpt>
      <trkpt lat="43.94083" lon="7.38864">
        <ele>1122.6</ele>
        <time>1982-03-26T11:45:07Z</time>
      </trkpt>
      <trkpt lat="43.94083" lon="7.38868">
        <ele>1123.7</ele>
        <time>1982-03-26T11:45:08Z</time>
      </trkpt>
      <trkpt lat="43.94088" lon="7.38871">
        <ele>1125.7</ele>
        <time>1982-03-26T11:45:09Z</time>
      </trkpt>
      <trkpt lat="43.94091" lon="7.38874">
        <ele>1126.3</ele>
        <time>1982-03-26T11:45:10Z</time>
      </trkpt>
      <trkpt lat="43.94092" lon="7.38877">
        <ele>1127.5</ele>
        <time>1982-03-26T11:45:11Z</time>
      </trkpt>
      <trkpt lat="43.94095" lon="7.3888">
        <ele>1127.1</ele>
        <time>1982-03-26T11:45:12Z</time>
      </trkpt>
      <trkpt lat="43.94097" lon="7.38883">
        <ele>1127.5</ele>
        <time>1982-03-26T11:45:13Z</time>
      </trkpt>
      <trkpt lat="43.94099" lon="7.38885">
        <ele>1132.1</ele>
        <time>1982-03-26T11:45:14Z</time>
      </trkpt>
      <trkpt lat="43.941" lon="7.38888">
        <ele>1134.2</ele>
        <time>1982-03-26T11:45:15Z</time>
      </trkpt>
      <trkpt lat="43.94103" lon="7.38894">
        <ele>1132.7</ele>
        <time>1982-03-26T11:45:16Z</time>
      </trkpt>
      <trkpt lat="43.94106" lon="7.38899">
        <ele>1132.4</ele>
        <time>1982-03-26T11:45:17Z</time>
      </trkpt>
      <trkpt lat="43.9411" lon="7.38903">
        <ele>1132.2</ele>
        <time>1982-03-26T11:45:18Z</time>
      </trkpt>
      <trkpt lat="43.94112" lon="7.38908">
        <ele>1130.7</ele>
        <time>1982-03-26T11:45:19Z</time>
      </trkpt>
      <trkpt lat="43.94115" lon="7.38913">
        <ele>1129.9</ele>
        <time>1982-03-26T11:45:20Z</time>
      </trkpt>
      <trkpt lat="43.94115" lon="7.38919">
        <ele>1128.4</ele>
        <time>1982-03-26T11:45:21Z</time>
      </trkpt>
      <trkpt lat="43.94112" lon="7.3892">
        <ele>1127.4</ele>
        <time>1982-03-26T11:45:22Z</time>
      </trkpt>
      <trkpt lat="43.9411" lon="7.38923">
        <ele>1128.4</ele>
        <time>1982-03-26T11:45:23Z</time>
      </trkpt>
      <trkpt lat="43.94109" lon="7.38927">
        <ele>1127.8</ele>
        <time>1982-03-26T11:45:24Z</time>
      </trkpt>
      <trkpt lat="43.94108" lon="7.38929">
        <ele>1128.3</ele>
        <time>1982-03-26T11:45:25Z</time>
      </trkpt>
      <trkpt lat="43.94107" lon="7.3893">
        <ele>1122.4</ele>
        <time>1982-03-26T11:45:26Z</time>
      </trkpt>
      <trkpt lat="43.94106" lon="7.38932">
        <ele>1117.7</ele>
        <time>1982-03-26T11:45:27Z</time>
      </trkpt>
      <trkpt lat="43.94106" lon="7.38934">
        <ele>1111.7</ele>
        <time>1982-03-26T11:45:28Z</time>
      </trkpt>
      <trkpt lat="43.94105" lon="7.38937">
        <ele>1106.3</ele>
        <time>1982-03-26T11:45:29Z</time>
      </trkpt>
      <trkpt lat="43.94104" lon="7.3894">
        <ele>1103.3</ele>
        <time>1982-03-26T11:45:30Z</time>
      </trkpt>
      <trkpt lat="43.94102" lon="7.38943">
        <ele>1101.4</ele>
        <time>1982-03-26T11:45:31Z</time>
      </trkpt>
      <trkpt lat="43.94099" lon="7.38945">
        <ele>1100.9</ele>
        <time>1982-03-26T11:45:32Z</time>
      </trkpt>
      <trkpt lat="43.94098" lon="7.38947">
        <ele>1101.7</ele>
        <time>1982-03-26T11:45:33Z</time>
      </trkpt>
      <trkpt lat="43.94095" lon="7.38949">
        <ele>1101.1</ele>
        <time>1982-03-26T11:45:34Z</time>
      </trkpt>
      <trkpt lat="43.94094" lon="7.38947">
        <ele>1102.9</ele>
        <time>1982-03-26T11:45:35Z</time>
      </trkpt>
      <trkpt lat="43.94093" lon="7.38947">
        <ele>1103.6</ele>
        <time>1982-03-26T11:45:36Z</time>
      </trkpt>
      <trkpt lat="43.94092" lon="7.3895">
        <ele>1103.3</ele>
        <time>1982-03-26T11:45:37Z</time>
      </trkpt>
      <trkpt lat="43.94091" lon="7.38953">
        <ele>1103</ele>
        <time>1982-03-26T11:45:38Z</time>
      </trkpt>
      <trkpt lat="43.9409" lon="7.38955">
        <ele>1106.3</ele>
        <time>1982-03-26T11:45:39Z</time>
      </trkpt>
      <trkpt lat="43.9409" lon="7.38958">
        <ele>1107.5</ele>
        <time>1982-03-26T11:45:40Z</time>
      </trkpt>
      <trkpt lat="43.94089" lon="7.3896">
        <ele>1109</ele>
        <time>1982-03-26T11:45:41Z</time>
      </trkpt>
      <trkpt lat="43.94088" lon="7.38964">
        <ele>1109</ele>
        <time>1982-03-26T11:45:42Z</time>
      </trkpt>
      <trkpt lat="43.94085" lon="7.38968">
        <ele>1109.8</ele>
        <time>1982-03-26T11:45:43Z</time>
      </trkpt>
      <trkpt lat="43.94085" lon="7.38972">
        <ele>1104.3</ele>
        <time>1982-03-26T11:45:44Z</time>
      </trkpt>
      <trkpt lat="43.94085" lon="7.38975">
        <ele>1101</ele>
        <time>1982-03-26T11:45:45Z</time>
      </trkpt>
      <trkpt lat="43.94082" lon="7.3898">
        <ele>1099</ele>
        <time>1982-03-26T11:45:46Z</time>
      </trkpt>
      <trkpt lat="43.9408" lon="7.38984">
        <ele>1097.3</ele>
        <time>1982-03-26T11:45:47Z</time>
      </trkpt>
      <trkpt lat="43.94078" lon="7.38988">
        <ele>1095.4</ele>
        <time>1982-03-26T11:45:48Z</time>
      </trkpt>
      <trkpt lat="43.94076" lon="7.38991">
        <ele>1094</ele>
        <time>1982-03-26T11:45:49Z</time>
      </trkpt>
      <trkpt lat="43.94075" lon="7.38995">
        <ele>1093.3</ele>
        <time>1982-03-26T11:45:50Z</time>
      </trkpt>
      <trkpt lat="43.94074" lon="7.38999">
        <ele>1093.3</ele>
        <time>1982-03-26T11:45:51Z</time>
      </trkpt>
      <trkpt lat="43.94072" lon="7.38998">
        <ele>1094.8</ele>
        <time>1982-03-26T11:45:52Z</time>
      </trkpt>
      <trkpt lat="43.9407" lon="7.39001">
        <ele>1091.5</ele>
        <time>1982-03-26T11:45:53Z</time>
      </trkpt>
      <trkpt lat="43.9407" lon="7.39003">
        <ele>1089.7</ele>
        <time>1982-03-26T11:45:54Z</time>
      </trkpt>
      <trkpt lat="43.9407" lon="7.39006">
        <ele>1088.1</ele>
        <time>1982-03-26T11:45:55Z</time>
      </trkpt>
      <trkpt lat="43.94068" lon="7.39007">
        <ele>1092.9</ele>
        <time>1982-03-26T11:45:56Z</time>
      </trkpt>
      <trkpt lat="43.94067" lon="7.39008">
        <ele>1095.1</ele>
        <time>1982-03-26T11:45:57Z</time>
      </trkpt>
      <trkpt lat="43.94066" lon="7.39011">
        <ele>1096</ele>
        <time>1982-03-26T11:45:58Z</time>
      </trkpt>
      <trkpt lat="43.94065" lon="7.39014">
        <ele>1095.9</ele>
        <time>1982-03-26T11:45:59Z</time>
      </trkpt>
      <trkpt lat="43.94065" lon="7.39021">
        <ele>1096.1</ele>
        <time>1982-03-26T11:46:00Z</time>
      </trkpt>
      <trkpt lat="43.94064" lon="7.39026">
        <ele>1096.5</ele>
        <time>1982-03-26T11:46:01Z</time>
      </trkpt>
      <trkpt lat="43.94063" lon="7.3903">
        <ele>1097.5</ele>
        <time>1982-03-26T11:46:02Z</time>
      </trkpt>
      <trkpt lat="43.94062" lon="7.39035">
        <ele>1097.7</ele>
        <time>1982-03-26T11:46:03Z</time>
      </trkpt>
      <trkpt lat="43.94061" lon="7.39037">
        <ele>1099</ele>
        <time>1982-03-26T11:46:04Z</time>
      </trkpt>
      <trkpt lat="43.94058" lon="7.39042">
        <ele>1096.1</ele>
        <time>1982-03-26T11:46:05Z</time>
      </trkpt>
      <trkpt lat="43.94058" lon="7.39047">
        <ele>1093.3</ele>
        <time>1982-03-26T11:46:06Z</time>
      </trkpt>
      <trkpt lat="43.94058" lon="7.39052">
        <ele>1091.4</ele>
        <time>1982-03-26T11:46:07Z</time>
      </trkpt>
      <trkpt lat="43.94058" lon="7.39057">
        <ele>1094.6</ele>
        <time>1982-03-26T11:46:08Z</time>
      </trkpt>
      <trkpt lat="43.94058" lon="7.39061">
        <ele>1097.1</ele>
        <time>1982-03-26T11:46:09Z</time>
      </trkpt>
      <trkpt lat="43.94057" lon="7.39064">
        <ele>1099.7</ele>
        <time>1982-03-26T11:46:10Z</time>
      </trkpt>
      <trkpt lat="43.94057" lon="7.39068">
        <ele>1101.4</ele>
        <time>1982-03-26T11:46:11Z</time>
      </trkpt>
      <trkpt lat="43.94056" lon="7.39072">
        <ele>1102.1</ele>
        <time>1982-03-26T11:46:12Z</time>
      </trkpt>
      <trkpt lat="43.94056" lon="7.39075">
        <ele>1105.4</ele>
        <time>1982-03-26T11:46:13Z</time>
      </trkpt>
      <trkpt lat="43.94057" lon="7.39079">
        <ele>1107.9</ele>
        <time>1982-03-26T11:46:14Z</time>
      </trkpt>
      <trkpt lat="43.94057" lon="7.39083">
        <ele>1109.1</ele>
        <time>1982-03-26T11:46:15Z</time>
      </trkpt>
      <trkpt lat="43.94058" lon="7.39087">
        <ele>1109.9</ele>
        <time>1982-03-26T11:46:16Z</time>
      </trkpt>
      <trkpt lat="43.94057" lon="7.39092">
        <ele>1110.9</ele>
        <time>1982-03-26T11:46:17Z</time>
      </trkpt>
      <trkpt lat="43.94056" lon="7.39099">
        <ele>1110.7</ele>
        <time>1982-03-26T11:46:18Z</time>
      </trkpt>
      <trkpt lat="43.94054" lon="7.39104">
        <ele>1110.9</ele>
        <time>1982-03-26T11:46:19Z</time>
      </trkpt>
      <trkpt lat="43.94052" lon="7.39108">
        <ele>1110.3</ele>
        <time>1982-03-26T11:46:20Z</time>
      </trkpt>
      <trkpt lat="43.94051" lon="7.39113">
        <ele>1109.9</ele>
        <time>1982-03-26T11:46:21Z</time>
      </trkpt>
      <trkpt lat="43.94049" lon="7.39115">
        <ele>1109.7</ele>
        <time>1982-03-26T11:46:22Z</time>
      </trkpt>
      <trkpt lat="43.94046" lon="7.39116">
        <ele>1109.6</ele>
        <time>1982-03-26T11:46:23Z</time>
      </trkpt>
      <trkpt lat="43.94043" lon="7.39117">
        <ele>1106.9</ele>
        <time>1982-03-26T11:46:24Z</time>
      </trkpt>
      <trkpt lat="43.94042" lon="7.3912">
        <ele>1106.6</ele>
        <time>1982-03-26T11:46:25Z</time>
      </trkpt>
      <trkpt lat="43.94042" lon="7.39117">
        <ele>1106.3</ele>
        <time>1982-03-26T11:46:26Z</time>
      </trkpt>
      <trkpt lat="43.94042" lon="7.39116">
        <ele>1106.2</ele>
        <time>1982-03-26T11:46:27Z</time>
      </trkpt>
      <trkpt lat="43.94042" lon="7.39116">
        <ele>1106.2</ele>
        <time>1982-03-26T11:46:27Z</time>
      </trkpt>
      <trkpt lat="43.94042" lon="7.39117">
        <ele>1105.8</ele>
        <time>1982-03-26T11:46:30Z</time>
      </trkpt>
      <trkpt lat="43.94042" lon="7.39117">
        <ele>1105.8</ele>
        <time>1982-03-26T11:46:30Z</time>
      </trkpt>
      <trkpt lat="43.94041" lon="7.39118">
        <ele>1106.3</ele>
        <time>1982-03-26T11:46:31Z</time>
      </trkpt>
      <trkpt lat="43.94041" lon="7.39118">
        <ele>1106.3</ele>
        <time>1982-03-26T11:48:13Z</time>
      </trkpt>
      <trkpt lat="43.94041" lon="7.39119">
        <ele>1106.5</ele>
        <time>1982-03-26T11:48:15Z</time>
      </trkpt>
      <trkpt lat="43.94039" lon="7.3912">
        <ele>1106.9</ele>
        <time>1982-03-26T11:48:16Z</time>
      </trkpt>
      <trkpt lat="43.94037" lon="7.39121">
        <ele>1107</ele>
        <time>1982-03-26T11:48:17Z</time>
      </trkpt>
      <trkpt lat="43.94035" lon="7.3912">
        <ele>1106.9</ele>
        <time>1982-03-26T11:48:18Z</time>
      </trkpt>
      <trkpt lat="43.94033" lon="7.39118">
        <ele>1106.9</ele>
        <time>1982-03-26T11:48:19Z</time>
      </trkpt>
      <trkpt lat="43.9403" lon="7.39119">
        <ele>1107.1</ele>
        <time>1982-03-26T11:48:20Z</time>
      </trkpt>
      <trkpt lat="43.94027" lon="7.3912">
        <ele>1107</ele>
        <time>1982-03-26T11:48:21Z</time>
      </trkpt>
      <trkpt lat="43.94024" lon="7.39121">
        <ele>1106.4</ele>
        <time>1982-03-26T11:48:22Z</time>
      </trkpt>
      <trkpt lat="43.94023" lon="7.39123">
        <ele>1106</ele>
        <time>1982-03-26T11:48:23Z</time>
      </trkpt>
      <trkpt lat="43.94021" lon="7.39124">
        <ele>1105.3</ele>
        <time>1982-03-26T11:48:24Z</time>
      </trkpt>
      <trkpt lat="43.9402" lon="7.39124">
        <ele>1108.1</ele>
        <time>1982-03-26T11:48:25Z</time>
      </trkpt>
      <trkpt lat="43.94019" lon="7.39125">
        <ele>1109.3</ele>
        <time>1982-03-26T11:48:26Z</time>
      </trkpt>
      <trkpt lat="43.94017" lon="7.39126">
        <ele>1110.2</ele>
        <time>1982-03-26T11:48:27Z</time>
      </trkpt>
      <trkpt lat="43.94014" lon="7.39127">
        <ele>1110.3</ele>
        <time>1982-03-26T11:48:28Z</time>
      </trkpt>
      <trkpt lat="43.94011" lon="7.39128">
        <ele>1110.3</ele>
        <time>1982-03-26T11:48:29Z</time>
      </trkpt>
      <trkpt lat="43.94008" lon="7.3913">
        <ele>1109.9</ele>
        <time>1982-03-26T11:48:30Z</time>
      </trkpt>
      <trkpt lat="43.94005" lon="7.39131">
        <ele>1109.2</ele>
        <time>1982-03-26T11:48:31Z</time>
      </trkpt>
      <trkpt lat="43.94003" lon="7.39133">
        <ele>1109.2</ele>
        <time>1982-03-26T11:48:32Z</time>
      </trkpt>
      <trkpt lat="43.94001" lon="7.39135">
        <ele>1108.6</ele>
        <time>1982-03-26T11:48:33Z</time>
      </trkpt>
      <trkpt lat="43.93999" lon="7.39135">
        <ele>1108.8</ele>
        <time>1982-03-26T11:48:34Z</time>
      </trkpt>
      <trkpt lat="43.94" lon="7.39135">
        <ele>1100.9</ele>
        <time>1982-03-26T11:48:35Z</time>
      </trkpt>
      <trkpt lat="43.93999" lon="7.39136">
        <ele>1098.9</ele>
        <time>1982-03-26T11:48:36Z</time>
      </trkpt>
      <trkpt lat="43.93998" lon="7.39137">
        <ele>1097.5</ele>
        <time>1982-03-26T11:48:37Z</time>
      </trkpt>
      <trkpt lat="43.93995" lon="7.39136">
        <ele>1098.2</ele>
        <time>1982-03-26T11:48:38Z</time>
      </trkpt>
      <trkpt lat="43.93994" lon="7.39137">
        <ele>1098</ele>
        <time>1982-03-26T11:48:39Z</time>
      </trkpt>
      <trkpt lat="43.93991" lon="7.39139">
        <ele>1098.7</ele>
        <time>1982-03-26T11:48:40Z</time>
      </trkpt>
      <trkpt lat="43.93989" lon="7.3914">
        <ele>1096.5</ele>
        <time>1982-03-26T11:48:41Z</time>
      </trkpt>
      <trkpt lat="43.93986" lon="7.39142">
        <ele>1095.3</ele>
        <time>1982-03-26T11:48:42Z</time>
      </trkpt>
      <trkpt lat="43.93984" lon="7.39143">
        <ele>1094.7</ele>
        <time>1982-03-26T11:48:43Z</time>
      </trkpt>
      <trkpt lat="43.93981" lon="7.39143">
        <ele>1094.4</ele>
        <time>1982-03-26T11:48:44Z</time>
      </trkpt>
      <trkpt lat="43.93977" lon="7.39143">
        <ele>1103.9</ele>
        <time>1982-03-26T11:48:45Z</time>
      </trkpt>
      <trkpt lat="43.93974" lon="7.39143">
        <ele>1106.8</ele>
        <time>1982-03-26T11:48:46Z</time>
      </trkpt>
      <trkpt lat="43.93971" lon="7.39143">
        <ele>1109.5</ele>
        <time>1982-03-26T11:48:47Z</time>
      </trkpt>
      <trkpt lat="43.93968" lon="7.39145">
        <ele>1111.3</ele>
        <time>1982-03-26T11:48:48Z</time>
      </trkpt>
      <trkpt lat="43.93965" lon="7.39144">
        <ele>1111.8</ele>
        <time>1982-03-26T11:48:49Z</time>
      </trkpt>
      <trkpt lat="43.93964" lon="7.39142">
        <ele>1110.5</ele>
        <time>1982-03-26T11:48:50Z</time>
      </trkpt>
      <trkpt lat="43.93963" lon="7.3914">
        <ele>1112.9</ele>
        <time>1982-03-26T11:48:51Z</time>
      </trkpt>
      <trkpt lat="43.93961" lon="7.39139">
        <ele>1114.9</ele>
        <time>1982-03-26T11:48:52Z</time>
      </trkpt>
      <trkpt lat="43.93959" lon="7.39139">
        <ele>1116.4</ele>
        <time>1982-03-26T11:48:53Z</time>
      </trkpt>
      <trkpt lat="43.93958" lon="7.39139">
        <ele>1117.1</ele>
        <time>1982-03-26T11:48:54Z</time>
      </trkpt>
      <trkpt lat="43.93957" lon="7.39139">
        <ele>1116.3</ele>
        <time>1982-03-26T11:48:55Z</time>
      </trkpt>
      <trkpt lat="43.93955" lon="7.3914">
        <ele>1116.2</ele>
        <time>1982-03-26T11:48:56Z</time>
      </trkpt>
      <trkpt lat="43.93954" lon="7.3914">
        <ele>1114.7</ele>
        <time>1982-03-26T11:48:57Z</time>
      </trkpt>
      <trkpt lat="43.93953" lon="7.3914">
        <ele>1114.4</ele>
        <time>1982-03-26T11:48:58Z</time>
      </trkpt>
      <trkpt lat="43.93951" lon="7.39139">
        <ele>1113.7</ele>
        <time>1982-03-26T11:48:59Z</time>
      </trkpt>
      <trkpt lat="43.9395" lon="7.39139">
        <ele>1113.3</ele>
        <time>1982-03-26T11:49:00Z</time>
      </trkpt>
      <trkpt lat="43.9395" lon="7.3914">
        <ele>1112.2</ele>
        <time>1982-03-26T11:49:01Z</time>
      </trkpt>
      <trkpt lat="43.93949" lon="7.39141">
        <ele>1111.6</ele>
        <time>1982-03-26T11:49:02Z</time>
      </trkpt>
      <trkpt lat="43.93948" lon="7.39142">
        <ele>1111.6</ele>
        <time>1982-03-26T11:49:03Z</time>
      </trkpt>
      <trkpt lat="43.93948" lon="7.39142">
        <ele>1111.2</ele>
        <time>1982-03-26T11:49:04Z</time>
      </trkpt>
      <trkpt lat="43.93948" lon="7.39142">
        <ele>1111.2</ele>
        <time>1982-03-26T11:49:04Z</time>
      </trkpt>
      <trkpt lat="43.93946" lon="7.39143">
        <ele>1109.3</ele>
        <time>1982-03-26T11:49:06Z</time>
      </trkpt>
      <trkpt lat="43.93946" lon="7.39142">
        <ele>1108.9</ele>
        <time>1982-03-26T11:49:07Z</time>
      </trkpt>
      <trkpt lat="43.93946" lon="7.39142">
        <ele>1108.9</ele>
        <time>1982-03-26T11:49:08Z</time>
      </trkpt>
      <trkpt lat="43.93945" lon="7.39143">
        <ele>1107</ele>
        <time>1982-03-26T11:49:10Z</time>
      </trkpt>
      <trkpt lat="43.93944" lon="7.39142">
        <ele>1106.4</ele>
        <time>1982-03-26T11:49:11Z</time>
      </trkpt>
      <trkpt lat="43.93943" lon="7.39141">
        <ele>1102.2</ele>
        <time>1982-03-26T11:49:12Z</time>
      </trkpt>
      <trkpt lat="43.93941" lon="7.3914">
        <ele>1099.7</ele>
        <time>1982-03-26T11:49:13Z</time>
      </trkpt>
      <trkpt lat="43.93939" lon="7.3914">
        <ele>1098.2</ele>
        <time>1982-03-26T11:49:14Z</time>
      </trkpt>
      <trkpt lat="43.93938" lon="7.39142">
        <ele>1100.9</ele>
        <time>1982-03-26T11:49:15Z</time>
      </trkpt>
      <trkpt lat="43.93937" lon="7.39143">
        <ele>1101.8</ele>
        <time>1982-03-26T11:49:16Z</time>
      </trkpt>
      <trkpt lat="43.93934" lon="7.39143">
        <ele>1102.7</ele>
        <time>1982-03-26T11:49:17Z</time>
      </trkpt>
      <trkpt lat="43.93933" lon="7.39143">
        <ele>1102.5</ele>
        <time>1982-03-26T11:49:18Z</time>
      </trkpt>
      <trkpt lat="43.93931" lon="7.39143">
        <ele>1101.9</ele>
        <time>1982-03-26T11:49:19Z</time>
      </trkpt>
      <trkpt lat="43.9393" lon="7.39144">
        <ele>1102.6</ele>
        <time>1982-03-26T11:49:20Z</time>
      </trkpt>
      <trkpt lat="43.93928" lon="7.39143">
        <ele>1102.2</ele>
        <time>1982-03-26T11:49:21Z</time>
      </trkpt>
      <trkpt lat="43.93926" lon="7.39143">
        <ele>1101.5</ele>
        <time>1982-03-26T11:49:22Z</time>
      </trkpt>
      <trkpt lat="43.93924" lon="7.39142">
        <ele>1100.8</ele>
        <time>1982-03-26T11:49:23Z</time>
      </trkpt>
      <trkpt lat="43.93922" lon="7.39142">
        <ele>1101.3</ele>
        <time>1982-03-26T11:49:24Z</time>
      </trkpt>
      <trkpt lat="43.9392" lon="7.39141">
        <ele>1100.8</ele>
        <time>1982-03-26T11:49:25Z</time>
      </trkpt>
      <trkpt lat="43.93919" lon="7.3914">
        <ele>1099.4</ele>
        <time>1982-03-26T11:49:26Z</time>
      </trkpt>
      <trkpt lat="43.93918" lon="7.39139">
        <ele>1099.1</ele>
        <time>1982-03-26T11:49:27Z</time>
      </trkpt>
      <trkpt lat="43.93917" lon="7.39138">
        <ele>1098.3</ele>
        <time>1982-03-26T11:49:28Z</time>
      </trkpt>
      <trkpt lat="43.93916" lon="7.39137">
        <ele>1098.2</ele>
        <time>1982-03-26T11:49:29Z</time>
      </trkpt>
      <trkpt lat="43.93912" lon="7.39137">
        <ele>1099.3</ele>
        <time>1982-03-26T11:49:30Z</time>
      </trkpt>
      <trkpt lat="43.93911" lon="7.39136">
        <ele>1101.1</ele>
        <time>1982-03-26T11:49:31Z</time>
      </trkpt>
      <trkpt lat="43.9391" lon="7.39135">
        <ele>1101.7</ele>
        <time>1982-03-26T11:49:32Z</time>
      </trkpt>
      <trkpt lat="43.93908" lon="7.39133">
        <ele>1102.2</ele>
        <time>1982-03-26T11:49:33Z</time>
      </trkpt>
      <trkpt lat="43.93907" lon="7.39132">
        <ele>1103.1</ele>
        <time>1982-03-26T11:49:34Z</time>
      </trkpt>
      <trkpt lat="43.93906" lon="7.39132">
        <ele>1103.5</ele>
        <time>1982-03-26T11:49:35Z</time>
      </trkpt>
      <trkpt lat="43.93905" lon="7.39131">
        <ele>1103.6</ele>
        <time>1982-03-26T11:49:36Z</time>
      </trkpt>
      <trkpt lat="43.93903" lon="7.39136">
        <ele>1113.9</ele>
        <time>1982-03-26T11:49:38Z</time>
      </trkpt>
      <trkpt lat="43.93902" lon="7.39137">
        <ele>1115.1</ele>
        <time>1982-03-26T11:49:39Z</time>
      </trkpt>
      <trkpt lat="43.93901" lon="7.39138">
        <ele>1115.6</ele>
        <time>1982-03-26T11:49:40Z</time>
      </trkpt>
      <trkpt lat="43.93901" lon="7.39137">
        <ele>1115.9</ele>
        <time>1982-03-26T11:49:42Z</time>
      </trkpt>
      <trkpt lat="43.939" lon="7.39138">
        <ele>1116.5</ele>
        <time>1982-03-26T11:49:44Z</time>
      </trkpt>
      <trkpt lat="43.939" lon="7.39139">
        <ele>1116.8</ele>
        <time>1982-03-26T11:49:45Z</time>
      </trkpt>
      <trkpt lat="43.939" lon="7.39139">
        <ele>1116.8</ele>
        <time>1982-03-26T11:49:48Z</time>
      </trkpt>
      <trkpt lat="43.939" lon="7.39139">
        <ele>1117.9</ele>
        <time>1982-03-26T11:49:50Z</time>
      </trkpt>
      <trkpt lat="43.93901" lon="7.39138">
        <ele>1118.7</ele>
        <time>1982-03-26T11:49:51Z</time>
      </trkpt>
      <trkpt lat="43.93904" lon="7.39136">
        <ele>1119.2</ele>
        <time>1982-03-26T11:49:52Z</time>
      </trkpt>
      <trkpt lat="43.93906" lon="7.39136">
        <ele>1119.4</ele>
        <time>1982-03-26T11:49:53Z</time>
      </trkpt>
      <trkpt lat="43.93907" lon="7.39136">
        <ele>1119.7</ele>
        <time>1982-03-26T11:49:54Z</time>
      </trkpt>
      <trkpt lat="43.93908" lon="7.39134">
        <ele>1120</ele>
        <time>1982-03-26T11:49:55Z</time>
      </trkpt>
      <trkpt lat="43.9391" lon="7.39133">
        <ele>1119.8</ele>
        <time>1982-03-26T11:49:56Z</time>
      </trkpt>
      <trkpt lat="43.93909" lon="7.39132">
        <ele>1119.8</ele>
        <time>1982-03-26T11:49:57Z</time>
      </trkpt>
      <trkpt lat="43.93908" lon="7.39132">
        <ele>1120</ele>
        <time>1982-03-26T11:49:58Z</time>
      </trkpt>
      <trkpt lat="43.93908" lon="7.39132">
        <ele>1120</ele>
        <time>1982-03-26T11:49:58Z</time>
      </trkpt>
      <trkpt lat="43.93907" lon="7.39131">
        <ele>1121.1</ele>
        <time>1982-03-26T11:50:00Z</time>
      </trkpt>
      <trkpt lat="43.93908" lon="7.39131">
        <ele>1121.9</ele>
        <time>1982-03-26T11:50:01Z</time>
      </trkpt>
      <trkpt lat="43.93908" lon="7.3913">
        <ele>1122.1</ele>
        <time>1982-03-26T11:50:02Z</time>
      </trkpt>
      <trkpt lat="43.93908" lon="7.3913">
        <ele>1122.1</ele>
        <time>1982-03-26T11:50:03Z</time>
      </trkpt>
      <trkpt lat="43.93908" lon="7.39129">
        <ele>1121.9</ele>
        <time>1982-03-26T11:50:05Z</time>
      </trkpt>
      <trkpt lat="43.93908" lon="7.39129">
        <ele>1121.9</ele>
        <time>1982-03-26T11:50:14Z</time>
      </trkpt>
      <trkpt lat="43.93909" lon="7.39129">
        <ele>1121.9</ele>
        <time>1982-03-26T11:50:16Z</time>
      </trkpt>
      <trkpt lat="43.93911" lon="7.39134">
        <ele>1123.1</ele>
        <time>1982-03-26T11:50:18Z</time>
      </trkpt>
      <trkpt lat="43.93911" lon="7.39134">
        <ele>1123.8</ele>
        <time>1982-03-26T11:50:19Z</time>
      </trkpt>
      <trkpt lat="43.93913" lon="7.39134">
        <ele>1124.8</ele>
        <time>1982-03-26T11:50:21Z</time>
      </trkpt>
      <trkpt lat="43.93914" lon="7.39134">
        <ele>1125.4</ele>
        <time>1982-03-26T11:50:22Z</time>
      </trkpt>
      <trkpt lat="43.93916" lon="7.39134">
        <ele>1126.6</ele>
        <time>1982-03-26T11:50:23Z</time>
      </trkpt>
      <trkpt lat="43.93917" lon="7.39133">
        <ele>1127.3</ele>
        <time>1982-03-26T11:50:24Z</time>
      </trkpt>
      <trkpt lat="43.93917" lon="7.39132">
        <ele>1127.1</ele>
        <time>1982-03-26T11:50:25Z</time>
      </trkpt>
      <trkpt lat="43.93917" lon="7.39132">
        <ele>1127.1</ele>
        <time>1982-03-26T11:50:25Z</time>
      </trkpt>
      <trkpt lat="43.93915" lon="7.39132">
        <ele>1127.2</ele>
        <time>1982-03-26T11:50:27Z</time>
      </trkpt>
      <trkpt lat="43.93914" lon="7.39132">
        <ele>1127.3</ele>
        <time>1982-03-26T11:50:28Z</time>
      </trkpt>
      <trkpt lat="43.93914" lon="7.39132">
        <ele>1127.3</ele>
        <time>1982-03-26T11:50:28Z</time>
      </trkpt>
      <trkpt lat="43.93914" lon="7.39131">
        <ele>1127.4</ele>
        <time>1982-03-26T11:50:30Z</time>
      </trkpt>
      <trkpt lat="43.93914" lon="7.39131">
        <ele>1127.5</ele>
        <time>1982-03-26T11:50:31Z</time>
      </trkpt>
      <trkpt lat="43.93914" lon="7.39131">
        <ele>1127.5</ele>
        <time>1982-03-26T11:50:31Z</time>
      </trkpt>
      <trkpt lat="43.93913" lon="7.39131">
        <ele>1127.7</ele>
        <time>1982-03-26T11:50:33Z</time>
      </trkpt>
      <trkpt lat="43.93913" lon="7.39131">
        <ele>1127.7</ele>
        <time>1982-03-26T11:50:39Z</time>
      </trkpt>
      <trkpt lat="43.93915" lon="7.39132">
        <ele>1128.1</ele>
        <time>1982-03-26T11:50:41Z</time>
      </trkpt>
      <trkpt lat="43.93915" lon="7.39133">
        <ele>1128.4</ele>
        <time>1982-03-26T11:50:42Z</time>
      </trkpt>
      <trkpt lat="43.93915" lon="7.39133">
        <ele>1128.4</ele>
        <time>1982-03-26T11:50:43Z</time>
      </trkpt>
      <trkpt lat="43.93915" lon="7.39133">
        <ele>1129.7</ele>
        <time>1982-03-26T11:50:45Z</time>
      </trkpt>
      <trkpt lat="43.93915" lon="7.39133">
        <ele>1129.7</ele>
        <time>1982-03-26T11:50:46Z</time>
      </trkpt>
      <trkpt lat="43.93915" lon="7.39133">
        <ele>1129.7</ele>
        <time>1982-03-26T11:50:51Z</time>
      </trkpt>
      <trkpt lat="43.93915" lon="7.39133">
        <ele>1130.7</ele>
        <time>1982-03-26T11:50:53Z</time>
      </trkpt>
      <trkpt lat="43.93915" lon="7.39133">
        <ele>1130.7</ele>
        <time>1982-03-26T11:50:55Z</time>
      </trkpt>
      <trkpt lat="43.93915" lon="7.39133">
        <ele>1131.3</ele>
        <time>1982-03-26T11:50:57Z</time>
      </trkpt>
      <trkpt lat="43.93915" lon="7.39133">
        <ele>1131.3</ele>
        <time>1982-03-26T11:51:17Z</time>
      </trkpt>
      <trkpt lat="43.93915" lon="7.39132">
        <ele>1133.6</ele>
        <time>1982-03-26T11:51:19Z</time>
      </trkpt>
      <trkpt lat="43.93915" lon="7.39132">
        <ele>1134.2</ele>
        <time>1982-03-26T11:51:20Z</time>
      </trkpt>
      <trkpt lat="43.93915" lon="7.39132">
        <ele>1134.2</ele>
        <time>1982-03-26T11:51:26Z</time>
      </trkpt>
      <trkpt lat="43.93915" lon="7.39132">
        <ele>1134.9</ele>
        <time>1982-03-26T11:51:28Z</time>
      </trkpt>
      <trkpt lat="43.93915" lon="7.39132">
        <ele>1134.9</ele>
        <time>1982-03-26T11:51:32Z</time>
      </trkpt>
      <trkpt lat="43.93915" lon="7.39132">
        <ele>1135.5</ele>
        <time>1982-03-26T11:51:34Z</time>
      </trkpt>
      <trkpt lat="43.93915" lon="7.39132">
        <ele>1135.5</ele>
        <time>1982-03-26T11:51:50Z</time>
      </trkpt>
      <trkpt lat="43.93915" lon="7.39132">
        <ele>1136.3</ele>
        <time>1982-03-26T11:51:52Z</time>
      </trkpt>
      <trkpt lat="43.93915" lon="7.39132">
        <ele>1136.3</ele>
        <time>1982-03-26T11:51:59Z</time>
      </trkpt>
      <trkpt lat="43.93915" lon="7.39132">
        <ele>1137</ele>
        <time>1982-03-26T11:52:01Z</time>
      </trkpt>
      <trkpt lat="43.93915" lon="7.39132">
        <ele>1137</ele>
        <time>1982-03-26T11:52:16Z</time>
      </trkpt>
      <trkpt lat="43.93915" lon="7.39132">
        <ele>1137.6</ele>
        <time>1982-03-26T11:52:18Z</time>
      </trkpt>
      <trkpt lat="43.93915" lon="7.39132">
        <ele>1137.6</ele>
        <time>1982-03-26T11:52:28Z</time>
      </trkpt>
      <trkpt lat="43.93915" lon="7.39132">
        <ele>1138.1</ele>
        <time>1982-03-26T11:52:30Z</time>
      </trkpt>
      <trkpt lat="43.93915" lon="7.39132">
        <ele>1138.1</ele>
        <time>1982-03-26T11:52:33Z</time>
      </trkpt>
      <trkpt lat="43.93915" lon="7.39132">
        <ele>1138.8</ele>
        <time>1982-03-26T11:52:35Z</time>
      </trkpt>
      <trkpt lat="43.93915" lon="7.39132">
        <ele>1138.8</ele>
        <time>1982-03-26T11:52:41Z</time>
      </trkpt>
      <trkpt lat="43.93913" lon="7.39134">
        <ele>1138.9</ele>
        <time>1982-03-26T11:52:43Z</time>
      </trkpt>
      <trkpt lat="43.93913" lon="7.39135">
        <ele>1138.8</ele>
        <time>1982-03-26T11:52:44Z</time>
      </trkpt>
      <trkpt lat="43.93918" lon="7.39133">
        <ele>1138.1</ele>
        <time>1982-03-26T11:52:46Z</time>
      </trkpt>
      <trkpt lat="43.93921" lon="7.39137">
        <ele>1138.2</ele>
        <time>1982-03-26T11:52:47Z</time>
      </trkpt>
      <trkpt lat="43.93921" lon="7.39135">
        <ele>1138.1</ele>
        <time>1982-03-26T11:52:48Z</time>
      </trkpt>
      <trkpt lat="43.9392" lon="7.39134">
        <ele>1137.7</ele>
        <time>1982-03-26T11:52:49Z</time>
      </trkpt>
      <trkpt lat="43.9392" lon="7.39134">
        <ele>1137.7</ele>
        <time>1982-03-26T11:52:50Z</time>
      </trkpt>
      <trkpt lat="43.9392" lon="7.39135">
        <ele>1138.4</ele>
        <time>1982-03-26T11:52:52Z</time>
      </trkpt>
      <trkpt lat="43.93922" lon="7.39135">
        <ele>1138.2</ele>
        <time>1982-03-26T11:52:53Z</time>
      </trkpt>
      <trkpt lat="43.93922" lon="7.39136">
        <ele>1137.9</ele>
        <time>1982-03-26T11:52:54Z</time>
      </trkpt>
      <trkpt lat="43.93921" lon="7.39139">
        <ele>1137.8</ele>
        <time>1982-03-26T11:52:56Z</time>
      </trkpt>
      <trkpt lat="43.93921" lon="7.39139">
        <ele>1135.7</ele>
        <time>1982-03-26T11:52:57Z</time>
      </trkpt>
      <trkpt lat="43.9392" lon="7.39137">
        <ele>1134.4</ele>
        <time>1982-03-26T11:52:58Z</time>
      </trkpt>
      <trkpt lat="43.9392" lon="7.39139">
        <ele>1133.8</ele>
        <time>1982-03-26T11:52:59Z</time>
      </trkpt>
      <trkpt lat="43.93921" lon="7.39139">
        <ele>1133.7</ele>
        <time>1982-03-26T11:53:00Z</time>
      </trkpt>
      <trkpt lat="43.93922" lon="7.39138">
        <ele>1131.4</ele>
        <time>1982-03-26T11:53:01Z</time>
      </trkpt>
      <trkpt lat="43.93924" lon="7.39139">
        <ele>1129.6</ele>
        <time>1982-03-26T11:53:02Z</time>
      </trkpt>
      <trkpt lat="43.93925" lon="7.39139">
        <ele>1128.1</ele>
        <time>1982-03-26T11:53:03Z</time>
      </trkpt>
      <trkpt lat="43.93923" lon="7.39141">
        <ele>1126.2</ele>
        <time>1982-03-26T11:53:04Z</time>
      </trkpt>
      <trkpt lat="43.93923" lon="7.39141">
        <ele>1126.5</ele>
        <time>1982-03-26T11:53:05Z</time>
      </trkpt>
      <trkpt lat="43.93922" lon="7.39142">
        <ele>1126.6</ele>
        <time>1982-03-26T11:53:07Z</time>
      </trkpt>
      <trkpt lat="43.93922" lon="7.39142">
        <ele>1126.6</ele>
        <time>1982-03-26T11:53:08Z</time>
      </trkpt>
      <trkpt lat="43.93925" lon="7.39148">
        <ele>1127</ele>
        <time>1982-03-26T11:53:10Z</time>
      </trkpt>
      <trkpt lat="43.93926" lon="7.39148">
        <ele>1127</ele>
        <time>1982-03-26T11:53:11Z</time>
      </trkpt>
      <trkpt lat="43.93929" lon="7.39147">
        <ele>1126.8</ele>
        <time>1982-03-26T11:53:12Z</time>
      </trkpt>
      <trkpt lat="43.93928" lon="7.39147">
        <ele>1128.5</ele>
        <time>1982-03-26T11:53:13Z</time>
      </trkpt>
      <trkpt lat="43.93928" lon="7.39147">
        <ele>1128.9</ele>
        <time>1982-03-26T11:53:14Z</time>
      </trkpt>
      <trkpt lat="43.93928" lon="7.39151">
        <ele>1127.7</ele>
        <time>1982-03-26T11:53:16Z</time>
      </trkpt>
      <trkpt lat="43.93929" lon="7.39151">
        <ele>1127.7</ele>
        <time>1982-03-26T11:53:17Z</time>
      </trkpt>
      <trkpt lat="43.93929" lon="7.3915">
        <ele>1129.7</ele>
        <time>1982-03-26T11:53:20Z</time>
      </trkpt>
      <trkpt lat="43.93929" lon="7.3915">
        <ele>1130.1</ele>
        <time>1982-03-26T11:53:21Z</time>
      </trkpt>
      <trkpt lat="43.93929" lon="7.3915">
        <ele>1130.1</ele>
        <time>1982-03-26T11:53:23Z</time>
      </trkpt>
      <trkpt lat="43.93932" lon="7.39151">
        <ele>1129.5</ele>
        <time>1982-03-26T11:53:25Z</time>
      </trkpt>
      <trkpt lat="43.93936" lon="7.3915">
        <ele>1129.2</ele>
        <time>1982-03-26T11:53:26Z</time>
      </trkpt>
      <trkpt lat="43.93937" lon="7.39153">
        <ele>1129.2</ele>
        <time>1982-03-26T11:53:27Z</time>
      </trkpt>
      <trkpt lat="43.93941" lon="7.39158">
        <ele>1128.4</ele>
        <time>1982-03-26T11:53:28Z</time>
      </trkpt>
      <trkpt lat="43.93941" lon="7.39163">
        <ele>1126.5</ele>
        <time>1982-03-26T11:53:29Z</time>
      </trkpt>
      <trkpt lat="43.93944" lon="7.39168">
        <ele>1126.6</ele>
        <time>1982-03-26T11:53:30Z</time>
      </trkpt>
      <trkpt lat="43.93947" lon="7.39173">
        <ele>1126.3</ele>
        <time>1982-03-26T11:53:31Z</time>
      </trkpt>
      <trkpt lat="43.93949" lon="7.39175">
        <ele>1125.9</ele>
        <time>1982-03-26T11:53:32Z</time>
      </trkpt>
      <trkpt lat="43.9395" lon="7.39182">
        <ele>1122.5</ele>
        <time>1982-03-26T11:53:33Z</time>
      </trkpt>
      <trkpt lat="43.93952" lon="7.39185">
        <ele>1122.2</ele>
        <time>1982-03-26T11:53:34Z</time>
      </trkpt>
      <trkpt lat="43.93949" lon="7.3919">
        <ele>1121.1</ele>
        <time>1982-03-26T11:53:35Z</time>
      </trkpt>
      <trkpt lat="43.9395" lon="7.39194">
        <ele>1120.6</ele>
        <time>1982-03-26T11:53:36Z</time>
      </trkpt>
      <trkpt lat="43.93952" lon="7.39197">
        <ele>1121.1</ele>
        <time>1982-03-26T11:53:37Z</time>
      </trkpt>
      <trkpt lat="43.93951" lon="7.39201">
        <ele>1119.9</ele>
        <time>1982-03-26T11:53:38Z</time>
      </trkpt>
      <trkpt lat="43.9395" lon="7.39204">
        <ele>1121.7</ele>
        <time>1982-03-26T11:53:39Z</time>
      </trkpt>
      <trkpt lat="43.93952" lon="7.39208">
        <ele>1119</ele>
        <time>1982-03-26T11:53:40Z</time>
      </trkpt>
      <trkpt lat="43.93956" lon="7.39211">
        <ele>1117.7</ele>
        <time>1982-03-26T11:53:41Z</time>
      </trkpt>
      <trkpt lat="43.93958" lon="7.39213">
        <ele>1115.9</ele>
        <time>1982-03-26T11:53:42Z</time>
      </trkpt>
      <trkpt lat="43.9396" lon="7.39218">
        <ele>1109.2</ele>
        <time>1982-03-26T11:53:43Z</time>
      </trkpt>
      <trkpt lat="43.93962" lon="7.39224">
        <ele>1107.4</ele>
        <time>1982-03-26T11:53:44Z</time>
      </trkpt>
      <trkpt lat="43.93962" lon="7.39229">
        <ele>1102.1</ele>
        <time>1982-03-26T11:53:45Z</time>
      </trkpt>
      <trkpt lat="43.93964" lon="7.39235">
        <ele>1100.1</ele>
        <time>1982-03-26T11:53:46Z</time>
      </trkpt>
      <trkpt lat="43.93966" lon="7.39241">
        <ele>1097.3</ele>
        <time>1982-03-26T11:53:47Z</time>
      </trkpt>
      <trkpt lat="43.93965" lon="7.39246">
        <ele>1098.5</ele>
        <time>1982-03-26T11:53:48Z</time>
      </trkpt>
      <trkpt lat="43.93964" lon="7.39251">
        <ele>1095.4</ele>
        <time>1982-03-26T11:53:49Z</time>
      </trkpt>
      <trkpt lat="43.93963" lon="7.39254">
        <ele>1091.8</ele>
        <time>1982-03-26T11:53:50Z</time>
      </trkpt>
      <trkpt lat="43.93961" lon="7.39257">
        <ele>1091.7</ele>
        <time>1982-03-26T11:53:51Z</time>
      </trkpt>
      <trkpt lat="43.93959" lon="7.39261">
        <ele>1090.1</ele>
        <time>1982-03-26T11:53:52Z</time>
      </trkpt>
      <trkpt lat="43.93957" lon="7.39264">
        <ele>1088.3</ele>
        <time>1982-03-26T11:53:53Z</time>
      </trkpt>
      <trkpt lat="43.93955" lon="7.39266">
        <ele>1079.6</ele>
        <time>1982-03-26T11:53:54Z</time>
      </trkpt>
      <trkpt lat="43.93953" lon="7.39269">
        <ele>1075.6</ele>
        <time>1982-03-26T11:53:55Z</time>
      </trkpt>
      <trkpt lat="43.93951" lon="7.39272">
        <ele>1071.6</ele>
        <time>1982-03-26T11:53:56Z</time>
      </trkpt>
      <trkpt lat="43.93948" lon="7.39273">
        <ele>1071.5</ele>
        <time>1982-03-26T11:53:57Z</time>
      </trkpt>
      <trkpt lat="43.93945" lon="7.39275">
        <ele>1068.5</ele>
        <time>1982-03-26T11:53:58Z</time>
      </trkpt>
      <trkpt lat="43.93944" lon="7.39279">
        <ele>1062.1</ele>
        <time>1982-03-26T11:53:59Z</time>
      </trkpt>
      <trkpt lat="43.93942" lon="7.39282">
        <ele>1058.4</ele>
        <time>1982-03-26T11:54:00Z</time>
      </trkpt>
      <trkpt lat="43.9394" lon="7.39286">
        <ele>1054.9</ele>
        <time>1982-03-26T11:54:01Z</time>
      </trkpt>
      <trkpt lat="43.93938" lon="7.39289">
        <ele>1052.5</ele>
        <time>1982-03-26T11:54:02Z</time>
      </trkpt>
      <trkpt lat="43.93934" lon="7.39293">
        <ele>1052</ele>
        <time>1982-03-26T11:54:03Z</time>
      </trkpt>
      <trkpt lat="43.9393" lon="7.39298">
        <ele>1050.1</ele>
        <time>1982-03-26T11:54:04Z</time>
      </trkpt>
      <trkpt lat="43.93925" lon="7.39304">
        <ele>1048.4</ele>
        <time>1982-03-26T11:54:05Z</time>
      </trkpt>
      <trkpt lat="43.93919" lon="7.3931">
        <ele>1052.6</ele>
        <time>1982-03-26T11:54:06Z</time>
      </trkpt>
      <trkpt lat="43.93915" lon="7.39314">
        <ele>1052.1</ele>
        <time>1982-03-26T11:54:07Z</time>
      </trkpt>
      <trkpt lat="43.93911" lon="7.39319">
        <ele>1051.2</ele>
        <time>1982-03-26T11:54:08Z</time>
      </trkpt>
      <trkpt lat="43.93907" lon="7.39322">
        <ele>1050.8</ele>
        <time>1982-03-26T11:54:09Z</time>
      </trkpt>
      <trkpt lat="43.93903" lon="7.39326">
        <ele>1050.6</ele>
        <time>1982-03-26T11:54:10Z</time>
      </trkpt>
      <trkpt lat="43.93898" lon="7.3933">
        <ele>1051.4</ele>
        <time>1982-03-26T11:54:11Z</time>
      </trkpt>
      <trkpt lat="43.93896" lon="7.39336">
        <ele>1051</ele>
        <time>1982-03-26T11:54:12Z</time>
      </trkpt>
      <trkpt lat="43.93893" lon="7.3934">
        <ele>1049.8</ele>
        <time>1982-03-26T11:54:13Z</time>
      </trkpt>
      <trkpt lat="43.93889" lon="7.39343">
        <ele>1049.3</ele>
        <time>1982-03-26T11:54:14Z</time>
      </trkpt>
      <trkpt lat="43.93887" lon="7.39348">
        <ele>1042.8</ele>
        <time>1982-03-26T11:54:15Z</time>
      </trkpt>
      <trkpt lat="43.93885" lon="7.39352">
        <ele>1039.9</ele>
        <time>1982-03-26T11:54:16Z</time>
      </trkpt>
      <trkpt lat="43.93885" lon="7.39351">
        <ele>1037.8</ele>
        <time>1982-03-26T11:54:17Z</time>
      </trkpt>
      <trkpt lat="43.93883" lon="7.39354">
        <ele>1040.5</ele>
        <time>1982-03-26T11:54:18Z</time>
      </trkpt>
      <trkpt lat="43.93882" lon="7.39359">
        <ele>1041.2</ele>
        <time>1982-03-26T11:54:19Z</time>
      </trkpt>
      <trkpt lat="43.93882" lon="7.39362">
        <ele>1043.9</ele>
        <time>1982-03-26T11:54:20Z</time>
      </trkpt>
      <trkpt lat="43.93881" lon="7.39366">
        <ele>1045.6</ele>
        <time>1982-03-26T11:54:21Z</time>
      </trkpt>
      <trkpt lat="43.9388" lon="7.39369">
        <ele>1046.5</ele>
        <time>1982-03-26T11:54:22Z</time>
      </trkpt>
      <trkpt lat="43.9388" lon="7.39373">
        <ele>1047.8</ele>
        <time>1982-03-26T11:54:23Z</time>
      </trkpt>
      <trkpt lat="43.93877" lon="7.39378">
        <ele>1049.1</ele>
        <time>1982-03-26T11:54:24Z</time>
      </trkpt>
      <trkpt lat="43.93876" lon="7.39383">
        <ele>1049</ele>
        <time>1982-03-26T11:54:25Z</time>
      </trkpt>
      <trkpt lat="43.93874" lon="7.39387">
        <ele>1048.3</ele>
        <time>1982-03-26T11:54:26Z</time>
      </trkpt>
      <trkpt lat="43.93872" lon="7.39392">
        <ele>1046.5</ele>
        <time>1982-03-26T11:54:27Z</time>
      </trkpt>
      <trkpt lat="43.93871" lon="7.39396">
        <ele>1044.3</ele>
        <time>1982-03-26T11:54:28Z</time>
      </trkpt>
      <trkpt lat="43.9387" lon="7.39401">
        <ele>1043.5</ele>
        <time>1982-03-26T11:54:29Z</time>
      </trkpt>
      <trkpt lat="43.93868" lon="7.39404">
        <ele>1042.4</ele>
        <time>1982-03-26T11:54:30Z</time>
      </trkpt>
      <trkpt lat="43.93867" lon="7.39408">
        <ele>1041.6</ele>
        <time>1982-03-26T11:54:31Z</time>
      </trkpt>
      <trkpt lat="43.93866" lon="7.39411">
        <ele>1041.1</ele>
        <time>1982-03-26T11:54:32Z</time>
      </trkpt>
      <trkpt lat="43.93866" lon="7.39413">
        <ele>1039.8</ele>
        <time>1982-03-26T11:54:33Z</time>
      </trkpt>
      <trkpt lat="43.93865" lon="7.39416">
        <ele>1038.1</ele>
        <time>1982-03-26T11:54:34Z</time>
      </trkpt>
      <trkpt lat="43.93864" lon="7.3942">
        <ele>1036.2</ele>
        <time>1982-03-26T11:54:35Z</time>
      </trkpt>
      <trkpt lat="43.93863" lon="7.39423">
        <ele>1034.7</ele>
        <time>1982-03-26T11:54:36Z</time>
      </trkpt>
      <trkpt lat="43.93862" lon="7.39427">
        <ele>1033.8</ele>
        <time>1982-03-26T11:54:37Z</time>
      </trkpt>
      <trkpt lat="43.93861" lon="7.39429">
        <ele>1032.9</ele>
        <time>1982-03-26T11:54:38Z</time>
      </trkpt>
      <trkpt lat="43.93859" lon="7.39432">
        <ele>1033.6</ele>
        <time>1982-03-26T11:54:39Z</time>
      </trkpt>
      <trkpt lat="43.93857" lon="7.39435">
        <ele>1032.7</ele>
        <time>1982-03-26T11:54:40Z</time>
      </trkpt>
      <trkpt lat="43.93856" lon="7.39437">
        <ele>1031.9</ele>
        <time>1982-03-26T11:54:41Z</time>
      </trkpt>
      <trkpt lat="43.93854" lon="7.39437">
        <ele>1031.4</ele>
        <time>1982-03-26T11:54:42Z</time>
      </trkpt>
      <trkpt lat="43.93851" lon="7.39441">
        <ele>1031.1</ele>
        <time>1982-03-26T11:54:43Z</time>
      </trkpt>
      <trkpt lat="43.93848" lon="7.39444">
        <ele>1030.3</ele>
        <time>1982-03-26T11:54:44Z</time>
      </trkpt>
      <trkpt lat="43.93846" lon="7.39447">
        <ele>1030</ele>
        <time>1982-03-26T11:54:45Z</time>
      </trkpt>
      <trkpt lat="43.93844" lon="7.39449">
        <ele>1029.8</ele>
        <time>1982-03-26T11:54:46Z</time>
      </trkpt>
      <trkpt lat="43.93841" lon="7.39451">
        <ele>1029.2</ele>
        <time>1982-03-26T11:54:47Z</time>
      </trkpt>
      <trkpt lat="43.93839" lon="7.39453">
        <ele>1028.6</ele>
        <time>1982-03-26T11:54:48Z</time>
      </trkpt>
      <trkpt lat="43.93837" lon="7.39454">
        <ele>1028.4</ele>
        <time>1982-03-26T11:54:49Z</time>
      </trkpt>
      <trkpt lat="43.93835" lon="7.39455">
        <ele>1028.7</ele>
        <time>1982-03-26T11:54:50Z</time>
      </trkpt>
      <trkpt lat="43.93833" lon="7.39456">
        <ele>1028.5</ele>
        <time>1982-03-26T11:54:51Z</time>
      </trkpt>
      <trkpt lat="43.93831" lon="7.3946">
        <ele>1028.3</ele>
        <time>1982-03-26T11:54:52Z</time>
      </trkpt>
      <trkpt lat="43.93828" lon="7.39463">
        <ele>1028.7</ele>
        <time>1982-03-26T11:54:53Z</time>
      </trkpt>
      <trkpt lat="43.93826" lon="7.39464">
        <ele>1029.4</ele>
        <time>1982-03-26T11:54:54Z</time>
      </trkpt>
      <trkpt lat="43.93825" lon="7.39462">
        <ele>1024.4</ele>
        <time>1982-03-26T11:54:55Z</time>
      </trkpt>
      <trkpt lat="43.93823" lon="7.39463">
        <ele>1022.9</ele>
        <time>1982-03-26T11:54:56Z</time>
      </trkpt>
      <trkpt lat="43.93822" lon="7.39464">
        <ele>1021</ele>
        <time>1982-03-26T11:54:57Z</time>
      </trkpt>
      <trkpt lat="43.9382" lon="7.39467">
        <ele>1019.6</ele>
        <time>1982-03-26T11:54:58Z</time>
      </trkpt>
      <trkpt lat="43.93819" lon="7.3947">
        <ele>1019</ele>
        <time>1982-03-26T11:54:59Z</time>
      </trkpt>
      <trkpt lat="43.93819" lon="7.39477">
        <ele>1021.5</ele>
        <time>1982-03-26T11:55:00Z</time>
      </trkpt>
      <trkpt lat="43.93819" lon="7.39479">
        <ele>1022</ele>
        <time>1982-03-26T11:55:01Z</time>
      </trkpt>
      <trkpt lat="43.93818" lon="7.39482">
        <ele>1021.3</ele>
        <time>1982-03-26T11:55:02Z</time>
      </trkpt>
      <trkpt lat="43.93817" lon="7.39485">
        <ele>1020.9</ele>
        <time>1982-03-26T11:55:03Z</time>
      </trkpt>
      <trkpt lat="43.93815" lon="7.39489">
        <ele>1021.2</ele>
        <time>1982-03-26T11:55:04Z</time>
      </trkpt>
      <trkpt lat="43.93814" lon="7.39492">
        <ele>1021</ele>
        <time>1982-03-26T11:55:05Z</time>
      </trkpt>
      <trkpt lat="43.93811" lon="7.39498">
        <ele>1021.1</ele>
        <time>1982-03-26T11:55:06Z</time>
      </trkpt>
      <trkpt lat="43.93807" lon="7.39504">
        <ele>1020.4</ele>
        <time>1982-03-26T11:55:07Z</time>
      </trkpt>
      <trkpt lat="43.93804" lon="7.3951">
        <ele>1020.1</ele>
        <time>1982-03-26T11:55:08Z</time>
      </trkpt>
      <trkpt lat="43.93799" lon="7.39514">
        <ele>1019.7</ele>
        <time>1982-03-26T11:55:09Z</time>
      </trkpt>
      <trkpt lat="43.93795" lon="7.3952">
        <ele>1019.2</ele>
        <time>1982-03-26T11:55:10Z</time>
      </trkpt>
      <trkpt lat="43.93793" lon="7.39527">
        <ele>1019.9</ele>
        <time>1982-03-26T11:55:11Z</time>
      </trkpt>
      <trkpt lat="43.93789" lon="7.3953">
        <ele>1019.2</ele>
        <time>1982-03-26T11:55:12Z</time>
      </trkpt>
      <trkpt lat="43.93786" lon="7.39532">
        <ele>1018.5</ele>
        <time>1982-03-26T11:55:13Z</time>
      </trkpt>
      <trkpt lat="43.93782" lon="7.39535">
        <ele>1019</ele>
        <time>1982-03-26T11:55:14Z</time>
      </trkpt>
      <trkpt lat="43.93779" lon="7.39543">
        <ele>1019.9</ele>
        <time>1982-03-26T11:55:15Z</time>
      </trkpt>
      <trkpt lat="43.93778" lon="7.39543">
        <ele>1019.3</ele>
        <time>1982-03-26T11:55:16Z</time>
      </trkpt>
      <trkpt lat="43.93773" lon="7.39551">
        <ele>1014.5</ele>
        <time>1982-03-26T11:55:17Z</time>
      </trkpt>
      <trkpt lat="43.93769" lon="7.3956">
        <ele>1014.1</ele>
        <time>1982-03-26T11:55:18Z</time>
      </trkpt>
      <trkpt lat="43.93764" lon="7.39567">
        <ele>1015.2</ele>
        <time>1982-03-26T11:55:19Z</time>
      </trkpt>
      <trkpt lat="43.93761" lon="7.39574">
        <ele>1014.4</ele>
        <time>1982-03-26T11:55:20Z</time>
      </trkpt>
      <trkpt lat="43.93756" lon="7.39578">
        <ele>1015.4</ele>
        <time>1982-03-26T11:55:21Z</time>
      </trkpt>
      <trkpt lat="43.93753" lon="7.39576">
        <ele>1015.5</ele>
        <time>1982-03-26T11:55:22Z</time>
      </trkpt>
      <trkpt lat="43.9375" lon="7.39574">
        <ele>1016.1</ele>
        <time>1982-03-26T11:55:23Z</time>
      </trkpt>
      <trkpt lat="43.93747" lon="7.39575">
        <ele>1013</ele>
        <time>1982-03-26T11:55:24Z</time>
      </trkpt>
      <trkpt lat="43.93745" lon="7.39577">
        <ele>1012.2</ele>
        <time>1982-03-26T11:55:25Z</time>
      </trkpt>
      <trkpt lat="43.93745" lon="7.39579">
        <ele>1010.9</ele>
        <time>1982-03-26T11:55:26Z</time>
      </trkpt>
      <trkpt lat="43.93745" lon="7.39579">
        <ele>1010</ele>
        <time>1982-03-26T11:55:27Z</time>
      </trkpt>
      <trkpt lat="43.93744" lon="7.3958">
        <ele>1009.5</ele>
        <time>1982-03-26T11:55:28Z</time>
      </trkpt>
      <trkpt lat="43.93742" lon="7.39583">
        <ele>1008.9</ele>
        <time>1982-03-26T11:55:29Z</time>
      </trkpt>
      <trkpt lat="43.93745" lon="7.39587">
        <ele>1013.2</ele>
        <time>1982-03-26T11:55:30Z</time>
      </trkpt>
      <trkpt lat="43.93746" lon="7.3959">
        <ele>1015.2</ele>
        <time>1982-03-26T11:55:31Z</time>
      </trkpt>
      <trkpt lat="43.93747" lon="7.39593">
        <ele>1016.8</ele>
        <time>1982-03-26T11:55:32Z</time>
      </trkpt>
      <trkpt lat="43.93748" lon="7.39593">
        <ele>1022.1</ele>
        <time>1982-03-26T11:55:33Z</time>
      </trkpt>
      <trkpt lat="43.93749" lon="7.39593">
        <ele>1023.5</ele>
        <time>1982-03-26T11:55:34Z</time>
      </trkpt>
      <trkpt lat="43.9375" lon="7.39593">
        <ele>1023.8</ele>
        <time>1982-03-26T11:55:35Z</time>
      </trkpt>
      <trkpt lat="43.9375" lon="7.39593">
        <ele>1023.9</ele>
        <time>1982-03-26T11:55:36Z</time>
      </trkpt>
      <trkpt lat="43.9375" lon="7.39593">
        <ele>1023.9</ele>
        <time>1982-03-26T11:55:36Z</time>
      </trkpt>
      <trkpt lat="43.9375" lon="7.39594">
        <ele>1024.8</ele>
        <time>1982-03-26T11:55:38Z</time>
      </trkpt>
      <trkpt lat="43.9375" lon="7.39595">
        <ele>1024.5</ele>
        <time>1982-03-26T11:55:39Z</time>
      </trkpt>
      <trkpt lat="43.9375" lon="7.39595">
        <ele>1024.5</ele>
        <time>1982-03-26T11:55:45Z</time>
      </trkpt>
      <trkpt lat="43.9375" lon="7.39594">
        <ele>1023.8</ele>
        <time>1982-03-26T11:55:47Z</time>
      </trkpt>
      <trkpt lat="43.93749" lon="7.39594">
        <ele>1024.2</ele>
        <time>1982-03-26T11:55:48Z</time>
      </trkpt>
      <trkpt lat="43.93749" lon="7.39594">
        <ele>1024.2</ele>
        <time>1982-03-26T11:57:49Z</time>
      </trkpt>
      <trkpt lat="43.93749" lon="7.39594">
        <ele>1024.6</ele>
        <time>1982-03-26T11:57:52Z</time>
      </trkpt>
      <trkpt lat="43.93749" lon="7.39594">
        <ele>1024.6</ele>
        <time>1982-03-26T11:58:38Z</time>
      </trkpt>
      <trkpt lat="43.93748" lon="7.39593">
        <ele>1024.8</ele>
        <time>1982-03-26T11:58:40Z</time>
      </trkpt>
      <trkpt lat="43.93748" lon="7.39593">
        <ele>1024.8</ele>
        <time>1982-03-26T12:00:31Z</time>
      </trkpt>
      <trkpt lat="43.93746" lon="7.39593">
        <ele>1024.6</ele>
        <time>1982-03-26T12:00:33Z</time>
      </trkpt>
      <trkpt lat="43.93746" lon="7.39592">
        <ele>1024.5</ele>
        <time>1982-03-26T12:00:34Z</time>
      </trkpt>
      <trkpt lat="43.93746" lon="7.39592">
        <ele>1024.5</ele>
        <time>1982-03-26T12:00:38Z</time>
      </trkpt>
      <trkpt lat="43.93747" lon="7.39593">
        <ele>1027.3</ele>
        <time>1982-03-26T12:00:40Z</time>
      </trkpt>
      <trkpt lat="43.93749" lon="7.39593">
        <ele>1026.5</ele>
        <time>1982-03-26T12:00:41Z</time>
      </trkpt>
      <trkpt lat="43.93752" lon="7.39595">
        <ele>1025.1</ele>
        <time>1982-03-26T12:00:42Z</time>
      </trkpt>
      <trkpt lat="43.93755" lon="7.39599">
        <ele>1022.1</ele>
        <time>1982-03-26T12:00:43Z</time>
      </trkpt>
      <trkpt lat="43.93758" lon="7.39602">
        <ele>1020.1</ele>
        <time>1982-03-26T12:00:44Z</time>
      </trkpt>
      <trkpt lat="43.93759" lon="7.39605">
        <ele>1019.2</ele>
        <time>1982-03-26T12:00:45Z</time>
      </trkpt>
      <trkpt lat="43.93761" lon="7.39607">
        <ele>1018.8</ele>
        <time>1982-03-26T12:00:46Z</time>
      </trkpt>
      <trkpt lat="43.93759" lon="7.39613">
        <ele>1017.9</ele>
        <time>1982-03-26T12:00:47Z</time>
      </trkpt>
      <trkpt lat="43.9376" lon="7.39616">
        <ele>1017.1</ele>
        <time>1982-03-26T12:00:48Z</time>
      </trkpt>
      <trkpt lat="43.93761" lon="7.39619">
        <ele>1016.3</ele>
        <time>1982-03-26T12:00:49Z</time>
      </trkpt>
      <trkpt lat="43.93762" lon="7.39623">
        <ele>1015.7</ele>
        <time>1982-03-26T12:00:50Z</time>
      </trkpt>
      <trkpt lat="43.93762" lon="7.39627">
        <ele>1015</ele>
        <time>1982-03-26T12:00:51Z</time>
      </trkpt>
      <trkpt lat="43.93763" lon="7.39633">
        <ele>1014.1</ele>
        <time>1982-03-26T12:00:52Z</time>
      </trkpt>
      <trkpt lat="43.93763" lon="7.39637">
        <ele>1013.9</ele>
        <time>1982-03-26T12:00:53Z</time>
      </trkpt>
      <trkpt lat="43.93764" lon="7.3964">
        <ele>1013.5</ele>
        <time>1982-03-26T12:00:54Z</time>
      </trkpt>
      <trkpt lat="43.93765" lon="7.39642">
        <ele>1012.7</ele>
        <time>1982-03-26T12:00:55Z</time>
      </trkpt>
      <trkpt lat="43.93766" lon="7.39646">
        <ele>1012.9</ele>
        <time>1982-03-26T12:00:56Z</time>
      </trkpt>
      <trkpt lat="43.93768" lon="7.39647">
        <ele>1012.4</ele>
        <time>1982-03-26T12:00:57Z</time>
      </trkpt>
      <trkpt lat="43.93767" lon="7.39653">
        <ele>1014.9</ele>
        <time>1982-03-26T12:00:58Z</time>
      </trkpt>
      <trkpt lat="43.93767" lon="7.39657">
        <ele>1015.2</ele>
        <time>1982-03-26T12:00:59Z</time>
      </trkpt>
      <trkpt lat="43.93767" lon="7.39659">
        <ele>1015.3</ele>
        <time>1982-03-26T12:01:00Z</time>
      </trkpt>
      <trkpt lat="43.93768" lon="7.39662">
        <ele>1020.6</ele>
        <time>1982-03-26T12:01:01Z</time>
      </trkpt>
      <trkpt lat="43.93769" lon="7.39665">
        <ele>1022.9</ele>
        <time>1982-03-26T12:01:02Z</time>
      </trkpt>
      <trkpt lat="43.9377" lon="7.39667">
        <ele>1025.1</ele>
        <time>1982-03-26T12:01:03Z</time>
      </trkpt>
      <trkpt lat="43.93771" lon="7.39671">
        <ele>1026.2</ele>
        <time>1982-03-26T12:01:04Z</time>
      </trkpt>
      <trkpt lat="43.93773" lon="7.39674">
        <ele>1027.1</ele>
        <time>1982-03-26T12:01:05Z</time>
      </trkpt>
      <trkpt lat="43.93773" lon="7.39675">
        <ele>1027.9</ele>
        <time>1982-03-26T12:01:06Z</time>
      </trkpt>
      <trkpt lat="43.93772" lon="7.39674">
        <ele>1028</ele>
        <time>1982-03-26T12:01:07Z</time>
      </trkpt>
      <trkpt lat="43.93772" lon="7.39673">
        <ele>1027.7</ele>
        <time>1982-03-26T12:01:08Z</time>
      </trkpt>
      <trkpt lat="43.93775" lon="7.39673">
        <ele>1027</ele>
        <time>1982-03-26T12:01:09Z</time>
      </trkpt>
      <trkpt lat="43.93775" lon="7.39673">
        <ele>1027.1</ele>
        <time>1982-03-26T12:01:10Z</time>
      </trkpt>
      <trkpt lat="43.93776" lon="7.39677">
        <ele>1027.8</ele>
        <time>1982-03-26T12:01:12Z</time>
      </trkpt>
      <trkpt lat="43.93777" lon="7.39681">
        <ele>1028.2</ele>
        <time>1982-03-26T12:01:13Z</time>
      </trkpt>
      <trkpt lat="43.93778" lon="7.39685">
        <ele>1028.6</ele>
        <time>1982-03-26T12:01:14Z</time>
      </trkpt>
      <trkpt lat="43.9378" lon="7.39689">
        <ele>1029.5</ele>
        <time>1982-03-26T12:01:15Z</time>
      </trkpt>
      <trkpt lat="43.93781" lon="7.39695">
        <ele>1030.6</ele>
        <time>1982-03-26T12:01:16Z</time>
      </trkpt>
      <trkpt lat="43.93782" lon="7.39699">
        <ele>1031.2</ele>
        <time>1982-03-26T12:01:17Z</time>
      </trkpt>
      <trkpt lat="43.93781" lon="7.39705">
        <ele>1031.7</ele>
        <time>1982-03-26T12:01:18Z</time>
      </trkpt>
      <trkpt lat="43.93783" lon="7.39709">
        <ele>1032.3</ele>
        <time>1982-03-26T12:01:19Z</time>
      </trkpt>
      <trkpt lat="43.93784" lon="7.39712">
        <ele>1032.9</ele>
        <time>1982-03-26T12:01:20Z</time>
      </trkpt>
      <trkpt lat="43.93786" lon="7.39714">
        <ele>1033.6</ele>
        <time>1982-03-26T12:01:21Z</time>
      </trkpt>
      <trkpt lat="43.93786" lon="7.39716">
        <ele>1034.2</ele>
        <time>1982-03-26T12:01:22Z</time>
      </trkpt>
      <trkpt lat="43.93788" lon="7.39718">
        <ele>1034.1</ele>
        <time>1982-03-26T12:01:23Z</time>
      </trkpt>
      <trkpt lat="43.93791" lon="7.39717">
        <ele>1034.3</ele>
        <time>1982-03-26T12:01:24Z</time>
      </trkpt>
      <trkpt lat="43.93792" lon="7.3972">
        <ele>1034.7</ele>
        <time>1982-03-26T12:01:25Z</time>
      </trkpt>
      <trkpt lat="43.93796" lon="7.39719">
        <ele>1034.7</ele>
        <time>1982-03-26T12:01:26Z</time>
      </trkpt>
      <trkpt lat="43.93798" lon="7.39719">
        <ele>1035.1</ele>
        <time>1982-03-26T12:01:27Z</time>
      </trkpt>
      <trkpt lat="43.93802" lon="7.39718">
        <ele>1035.4</ele>
        <time>1982-03-26T12:01:28Z</time>
      </trkpt>
      <trkpt lat="43.93806" lon="7.39719">
        <ele>1035.4</ele>
        <time>1982-03-26T12:01:29Z</time>
      </trkpt>
      <trkpt lat="43.93809" lon="7.39721">
        <ele>1035.2</ele>
        <time>1982-03-26T12:01:30Z</time>
      </trkpt>
      <trkpt lat="43.93812" lon="7.39721">
        <ele>1035.4</ele>
        <time>1982-03-26T12:01:31Z</time>
      </trkpt>
      <trkpt lat="43.93817" lon="7.39722">
        <ele>1035.1</ele>
        <time>1982-03-26T12:01:32Z</time>
      </trkpt>
      <trkpt lat="43.93819" lon="7.39722">
        <ele>1035.1</ele>
        <time>1982-03-26T12:01:33Z</time>
      </trkpt>
      <trkpt lat="43.93824" lon="7.39721">
        <ele>1035</ele>
        <time>1982-03-26T12:01:34Z</time>
      </trkpt>
      <trkpt lat="43.93826" lon="7.39719">
        <ele>1035</ele>
        <time>1982-03-26T12:01:35Z</time>
      </trkpt>
      <trkpt lat="43.93828" lon="7.39716">
        <ele>1034.9</ele>
        <time>1982-03-26T12:01:36Z</time>
      </trkpt>
      <trkpt lat="43.93831" lon="7.39713">
        <ele>1034.7</ele>
        <time>1982-03-26T12:01:37Z</time>
      </trkpt>
      <trkpt lat="43.93835" lon="7.39714">
        <ele>1034.5</ele>
        <time>1982-03-26T12:01:38Z</time>
      </trkpt>
      <trkpt lat="43.93838" lon="7.39715">
        <ele>1032.8</ele>
        <time>1982-03-26T12:01:39Z</time>
      </trkpt>
      <trkpt lat="43.93841" lon="7.39719">
        <ele>1033.1</ele>
        <time>1982-03-26T12:01:40Z</time>
      </trkpt>
      <trkpt lat="43.93844" lon="7.39719">
        <ele>1032.9</ele>
        <time>1982-03-26T12:01:41Z</time>
      </trkpt>
      <trkpt lat="43.93847" lon="7.39722">
        <ele>1033.5</ele>
        <time>1982-03-26T12:01:42Z</time>
      </trkpt>
      <trkpt lat="43.93849" lon="7.39733">
        <ele>1033.9</ele>
        <time>1982-03-26T12:01:43Z</time>
      </trkpt>
      <trkpt lat="43.93851" lon="7.39734">
        <ele>1033.6</ele>
        <time>1982-03-26T12:01:44Z</time>
      </trkpt>
      <trkpt lat="43.93854" lon="7.39737">
        <ele>1035.4</ele>
        <time>1982-03-26T12:01:45Z</time>
      </trkpt>
      <trkpt lat="43.93856" lon="7.39738">
        <ele>1035.8</ele>
        <time>1982-03-26T12:01:46Z</time>
      </trkpt>
      <trkpt lat="43.93858" lon="7.39743">
        <ele>1037</ele>
        <time>1982-03-26T12:01:47Z</time>
      </trkpt>
      <trkpt lat="43.93858" lon="7.39743">
        <ele>1036.8</ele>
        <time>1982-03-26T12:01:48Z</time>
      </trkpt>
      <trkpt lat="43.9386" lon="7.3975">
        <ele>1036.9</ele>
        <time>1982-03-26T12:01:50Z</time>
      </trkpt>
      <trkpt lat="43.93862" lon="7.39748">
        <ele>1037</ele>
        <time>1982-03-26T12:01:51Z</time>
      </trkpt>
      <trkpt lat="43.93864" lon="7.39748">
        <ele>1037</ele>
        <time>1982-03-26T12:01:52Z</time>
      </trkpt>
      <trkpt lat="43.93868" lon="7.39754">
        <ele>1036.9</ele>
        <time>1982-03-26T12:01:53Z</time>
      </trkpt>
      <trkpt lat="43.9387" lon="7.39756">
        <ele>1036.8</ele>
        <time>1982-03-26T12:01:54Z</time>
      </trkpt>
      <trkpt lat="43.93876" lon="7.39755">
        <ele>1037.1</ele>
        <time>1982-03-26T12:01:55Z</time>
      </trkpt>
      <trkpt lat="43.93879" lon="7.39758">
        <ele>1036.7</ele>
        <time>1982-03-26T12:01:56Z</time>
      </trkpt>
      <trkpt lat="43.93881" lon="7.3976">
        <ele>1036.9</ele>
        <time>1982-03-26T12:01:57Z</time>
      </trkpt>
      <trkpt lat="43.93884" lon="7.39767">
        <ele>1036.8</ele>
        <time>1982-03-26T12:01:58Z</time>
      </trkpt>
      <trkpt lat="43.93889" lon="7.39769">
        <ele>1037.3</ele>
        <time>1982-03-26T12:01:59Z</time>
      </trkpt>
      <trkpt lat="43.93892" lon="7.39772">
        <ele>1037.5</ele>
        <time>1982-03-26T12:02:00Z</time>
      </trkpt>
      <trkpt lat="43.93895" lon="7.39781">
        <ele>1036.7</ele>
        <time>1982-03-26T12:02:01Z</time>
      </trkpt>
      <trkpt lat="43.93898" lon="7.39788">
        <ele>1036.9</ele>
        <time>1982-03-26T12:02:02Z</time>
      </trkpt>
      <trkpt lat="43.93901" lon="7.39794">
        <ele>1036.6</ele>
        <time>1982-03-26T12:02:03Z</time>
      </trkpt>
      <trkpt lat="43.93903" lon="7.39798">
        <ele>1037.4</ele>
        <time>1982-03-26T12:02:04Z</time>
      </trkpt>
      <trkpt lat="43.93903" lon="7.39804">
        <ele>1036.4</ele>
        <time>1982-03-26T12:02:05Z</time>
      </trkpt>
      <trkpt lat="43.93908" lon="7.39806">
        <ele>1035.8</ele>
        <time>1982-03-26T12:02:06Z</time>
      </trkpt>
      <trkpt lat="43.93914" lon="7.3981">
        <ele>1035.5</ele>
        <time>1982-03-26T12:02:07Z</time>
      </trkpt>
      <trkpt lat="43.93917" lon="7.39816">
        <ele>1035.4</ele>
        <time>1982-03-26T12:02:08Z</time>
      </trkpt>
      <trkpt lat="43.93918" lon="7.39823">
        <ele>1035.9</ele>
        <time>1982-03-26T12:02:09Z</time>
      </trkpt>
      <trkpt lat="43.93916" lon="7.39829">
        <ele>1035.2</ele>
        <time>1982-03-26T12:02:10Z</time>
      </trkpt>
      <trkpt lat="43.93918" lon="7.39834">
        <ele>1035</ele>
        <time>1982-03-26T12:02:11Z</time>
      </trkpt>
      <trkpt lat="43.93919" lon="7.39838">
        <ele>1034.1</ele>
        <time>1982-03-26T12:02:12Z</time>
      </trkpt>
      <trkpt lat="43.9392" lon="7.39843">
        <ele>1033.1</ele>
        <time>1982-03-26T12:02:13Z</time>
      </trkpt>
      <trkpt lat="43.93921" lon="7.39848">
        <ele>1031.2</ele>
        <time>1982-03-26T12:02:14Z</time>
      </trkpt>
      <trkpt lat="43.93923" lon="7.39853">
        <ele>1029.3</ele>
        <time>1982-03-26T12:02:15Z</time>
      </trkpt>
      <trkpt lat="43.93924" lon="7.39859">
        <ele>1027.8</ele>
        <time>1982-03-26T12:02:16Z</time>
      </trkpt>
      <trkpt lat="43.93921" lon="7.39865">
        <ele>1027.4</ele>
        <time>1982-03-26T12:02:17Z</time>
      </trkpt>
      <trkpt lat="43.93921" lon="7.39863">
        <ele>1026.6</ele>
        <time>1982-03-26T12:02:18Z</time>
      </trkpt>
      <trkpt lat="43.93921" lon="7.39866">
        <ele>1024.8</ele>
        <time>1982-03-26T12:02:19Z</time>
      </trkpt>
      <trkpt lat="43.9392" lon="7.39867">
        <ele>1024.5</ele>
        <time>1982-03-26T12:02:20Z</time>
      </trkpt>
      <trkpt lat="43.93919" lon="7.39873">
        <ele>1026.7</ele>
        <time>1982-03-26T12:02:22Z</time>
      </trkpt>
      <trkpt lat="43.93919" lon="7.39876">
        <ele>1021.6</ele>
        <time>1982-03-26T12:02:23Z</time>
      </trkpt>
      <trkpt lat="43.93919" lon="7.39877">
        <ele>1019.5</ele>
        <time>1982-03-26T12:02:24Z</time>
      </trkpt>
      <trkpt lat="43.93919" lon="7.39877">
        <ele>1018.1</ele>
        <time>1982-03-26T12:02:25Z</time>
      </trkpt>
      <trkpt lat="43.9392" lon="7.39877">
        <ele>1016.8</ele>
        <time>1982-03-26T12:02:26Z</time>
      </trkpt>
      <trkpt lat="43.93919" lon="7.39878">
        <ele>1014.4</ele>
        <time>1982-03-26T12:02:27Z</time>
      </trkpt>
      <trkpt lat="43.93919" lon="7.39878">
        <ele>1013.5</ele>
        <time>1982-03-26T12:02:28Z</time>
      </trkpt>
      <trkpt lat="43.93919" lon="7.39878">
        <ele>1013.5</ele>
        <time>1982-03-26T12:02:28Z</time>
      </trkpt>
      <trkpt lat="43.93919" lon="7.39879">
        <ele>1013.2</ele>
        <time>1982-03-26T12:02:30Z</time>
      </trkpt>
      <trkpt lat="43.93919" lon="7.39879">
        <ele>1013.2</ele>
        <time>1982-03-26T12:02:30Z</time>
      </trkpt>
      <trkpt lat="43.93919" lon="7.39879">
        <ele>1012.5</ele>
        <time>1982-03-26T12:02:32Z</time>
      </trkpt>
      <trkpt lat="43.93919" lon="7.39879">
        <ele>1012.5</ele>
        <time>1982-03-26T12:02:32Z</time>
      </trkpt>
      <trkpt lat="43.93919" lon="7.3988">
        <ele>1011.4</ele>
        <time>1982-03-26T12:02:34Z</time>
      </trkpt>
      <trkpt lat="43.93919" lon="7.39881">
        <ele>1010.8</ele>
        <time>1982-03-26T12:02:35Z</time>
      </trkpt>
      <trkpt lat="43.93919" lon="7.39881">
        <ele>1010.8</ele>
        <time>1982-03-26T12:02:39Z</time>
      </trkpt>
      <trkpt lat="43.9392" lon="7.39883">
        <ele>1008.9</ele>
        <time>1982-03-26T12:02:41Z</time>
      </trkpt>
      <trkpt lat="43.93919" lon="7.39887">
        <ele>1005.9</ele>
        <time>1982-03-26T12:02:42Z</time>
      </trkpt>
      <trkpt lat="43.9392" lon="7.39891">
        <ele>1004</ele>
        <time>1982-03-26T12:02:43Z</time>
      </trkpt>
      <trkpt lat="43.93922" lon="7.39893">
        <ele>1001.4</ele>
        <time>1982-03-26T12:02:44Z</time>
      </trkpt>
      <trkpt lat="43.93923" lon="7.39897">
        <ele>1000.1</ele>
        <time>1982-03-26T12:02:45Z</time>
      </trkpt>
      <trkpt lat="43.93925" lon="7.39901">
        <ele>998.2</ele>
        <time>1982-03-26T12:02:46Z</time>
      </trkpt>
      <trkpt lat="43.93926" lon="7.399">
        <ele>996.5</ele>
        <time>1982-03-26T12:02:47Z</time>
      </trkpt>
      <trkpt lat="43.93926" lon="7.39902">
        <ele>994.6</ele>
        <time>1982-03-26T12:02:48Z</time>
      </trkpt>
      <trkpt lat="43.93926" lon="7.39903">
        <ele>994.3</ele>
        <time>1982-03-26T12:02:49Z</time>
      </trkpt>
      <trkpt lat="43.93927" lon="7.39906">
        <ele>994.1</ele>
        <time>1982-03-26T12:02:50Z</time>
      </trkpt>
      <trkpt lat="43.93928" lon="7.39909">
        <ele>991.8</ele>
        <time>1982-03-26T12:02:51Z</time>
      </trkpt>
      <trkpt lat="43.93926" lon="7.39912">
        <ele>989</ele>
        <time>1982-03-26T12:02:52Z</time>
      </trkpt>
      <trkpt lat="43.93925" lon="7.39916">
        <ele>987.3</ele>
        <time>1982-03-26T12:02:53Z</time>
      </trkpt>
      <trkpt lat="43.93925" lon="7.39919">
        <ele>985.5</ele>
        <time>1982-03-26T12:02:54Z</time>
      </trkpt>
      <trkpt lat="43.93926" lon="7.39922">
        <ele>984.4</ele>
        <time>1982-03-26T12:02:55Z</time>
      </trkpt>
      <trkpt lat="43.93927" lon="7.39925">
        <ele>984.2</ele>
        <time>1982-03-26T12:02:56Z</time>
      </trkpt>
      <trkpt lat="43.93928" lon="7.39927">
        <ele>983</ele>
        <time>1982-03-26T12:02:57Z</time>
      </trkpt>
      <trkpt lat="43.93929" lon="7.3993">
        <ele>982.2</ele>
        <time>1982-03-26T12:02:58Z</time>
      </trkpt>
      <trkpt lat="43.93929" lon="7.39934">
        <ele>980.7</ele>
        <time>1982-03-26T12:02:59Z</time>
      </trkpt>
      <trkpt lat="43.93928" lon="7.39937">
        <ele>978.5</ele>
        <time>1982-03-26T12:03:00Z</time>
      </trkpt>
      <trkpt lat="43.93926" lon="7.3994">
        <ele>974.8</ele>
        <time>1982-03-26T12:03:01Z</time>
      </trkpt>
      <trkpt lat="43.93924" lon="7.39944">
        <ele>973</ele>
        <time>1982-03-26T12:03:02Z</time>
      </trkpt>
      <trkpt lat="43.93923" lon="7.39947">
        <ele>971.9</ele>
        <time>1982-03-26T12:03:03Z</time>
      </trkpt>
      <trkpt lat="43.93921" lon="7.39951">
        <ele>970.9</ele>
        <time>1982-03-26T12:03:04Z</time>
      </trkpt>
      <trkpt lat="43.9392" lon="7.39953">
        <ele>969</ele>
        <time>1982-03-26T12:03:05Z</time>
      </trkpt>
      <trkpt lat="43.9392" lon="7.39955">
        <ele>970.4</ele>
        <time>1982-03-26T12:03:06Z</time>
      </trkpt>
      <trkpt lat="43.93919" lon="7.39956">
        <ele>967.6</ele>
        <time>1982-03-26T12:03:07Z</time>
      </trkpt>
      <trkpt lat="43.93917" lon="7.39957">
        <ele>965.4</ele>
        <time>1982-03-26T12:03:08Z</time>
      </trkpt>
      <trkpt lat="43.93916" lon="7.39958">
        <ele>963.9</ele>
        <time>1982-03-26T12:03:09Z</time>
      </trkpt>
      <trkpt lat="43.93915" lon="7.3996">
        <ele>961</ele>
        <time>1982-03-26T12:03:10Z</time>
      </trkpt>
      <trkpt lat="43.93913" lon="7.39962">
        <ele>955.5</ele>
        <time>1982-03-26T12:03:11Z</time>
      </trkpt>
      <trkpt lat="43.93911" lon="7.39963">
        <ele>952</ele>
        <time>1982-03-26T12:03:12Z</time>
      </trkpt>
      <trkpt lat="43.9391" lon="7.39967">
        <ele>947</ele>
        <time>1982-03-26T12:03:13Z</time>
      </trkpt>
      <trkpt lat="43.93908" lon="7.39969">
        <ele>945.1</ele>
        <time>1982-03-26T12:03:14Z</time>
      </trkpt>
      <trkpt lat="43.93906" lon="7.3997">
        <ele>945</ele>
        <time>1982-03-26T12:03:15Z</time>
      </trkpt>
      <trkpt lat="43.93904" lon="7.39972">
        <ele>944.2</ele>
        <time>1982-03-26T12:03:16Z</time>
      </trkpt>
      <trkpt lat="43.93902" lon="7.39973">
        <ele>942.4</ele>
        <time>1982-03-26T12:03:17Z</time>
      </trkpt>
      <trkpt lat="43.93901" lon="7.39973">
        <ele>940</ele>
        <time>1982-03-26T12:03:18Z</time>
      </trkpt>
      <trkpt lat="43.939" lon="7.39974">
        <ele>936.6</ele>
        <time>1982-03-26T12:03:19Z</time>
      </trkpt>
      <trkpt lat="43.939" lon="7.39977">
        <ele>933.7</ele>
        <time>1982-03-26T12:03:20Z</time>
      </trkpt>
      <trkpt lat="43.93899" lon="7.39979">
        <ele>932.3</ele>
        <time>1982-03-26T12:03:21Z</time>
      </trkpt>
      <trkpt lat="43.93898" lon="7.39981">
        <ele>931.7</ele>
        <time>1982-03-26T12:03:22Z</time>
      </trkpt>
      <trkpt lat="43.93897" lon="7.39983">
        <ele>929.9</ele>
        <time>1982-03-26T12:03:23Z</time>
      </trkpt>
      <trkpt lat="43.93895" lon="7.39986">
        <ele>928.8</ele>
        <time>1982-03-26T12:03:24Z</time>
      </trkpt>
      <trkpt lat="43.93894" lon="7.39988">
        <ele>930</ele>
        <time>1982-03-26T12:03:25Z</time>
      </trkpt>
      <trkpt lat="43.9389" lon="7.39991">
        <ele>930.9</ele>
        <time>1982-03-26T12:03:26Z</time>
      </trkpt>
      <trkpt lat="43.93888" lon="7.39992">
        <ele>930.8</ele>
        <time>1982-03-26T12:03:27Z</time>
      </trkpt>
      <trkpt lat="43.93886" lon="7.39994">
        <ele>930</ele>
        <time>1982-03-26T12:03:28Z</time>
      </trkpt>
      <trkpt lat="43.93883" lon="7.39995">
        <ele>930.4</ele>
        <time>1982-03-26T12:03:29Z</time>
      </trkpt>
      <trkpt lat="43.9388" lon="7.39996">
        <ele>929.7</ele>
        <time>1982-03-26T12:03:30Z</time>
      </trkpt>
      <trkpt lat="43.93877" lon="7.39997">
        <ele>930.7</ele>
        <time>1982-03-26T12:03:31Z</time>
      </trkpt>
      <trkpt lat="43.93875" lon="7.39999">
        <ele>928.8</ele>
        <time>1982-03-26T12:03:32Z</time>
      </trkpt>
      <trkpt lat="43.93872" lon="7.40001">
        <ele>928.7</ele>
        <time>1982-03-26T12:03:33Z</time>
      </trkpt>
      <trkpt lat="43.9387" lon="7.40001">
        <ele>928.5</ele>
        <time>1982-03-26T12:03:34Z</time>
      </trkpt>
      <trkpt lat="43.93869" lon="7.40001">
        <ele>928.1</ele>
        <time>1982-03-26T12:03:35Z</time>
      </trkpt>
      <trkpt lat="43.93869" lon="7.40001">
        <ele>928.6</ele>
        <time>1982-03-26T12:03:36Z</time>
      </trkpt>
      <trkpt lat="43.93869" lon="7.40001">
        <ele>928.6</ele>
        <time>1982-03-26T12:03:38Z</time>
      </trkpt>
      <trkpt lat="43.93868" lon="7.40001">
        <ele>928.6</ele>
        <time>1982-03-26T12:03:40Z</time>
      </trkpt>
      <trkpt lat="43.93868" lon="7.40001">
        <ele>928.6</ele>
        <time>1982-03-26T12:03:43Z</time>
      </trkpt>
      <trkpt lat="43.93868" lon="7.40001">
        <ele>927.9</ele>
        <time>1982-03-26T12:03:45Z</time>
      </trkpt>
      <trkpt lat="43.93868" lon="7.40001">
        <ele>927.9</ele>
        <time>1982-03-26T12:03:45Z</time>
      </trkpt>
      <trkpt lat="43.93869" lon="7.4">
        <ele>927</ele>
        <time>1982-03-26T12:03:47Z</time>
      </trkpt>
      <trkpt lat="43.93869" lon="7.4">
        <ele>927</ele>
        <time>1982-03-26T12:03:48Z</time>
      </trkpt>
      <trkpt lat="43.93869" lon="7.4">
        <ele>927</ele>
        <time>1982-03-26T12:03:55Z</time>
      </trkpt>
      <trkpt lat="43.93869" lon="7.39999">
        <ele>928.6</ele>
        <time>1982-03-26T12:03:57Z</time>
      </trkpt>
      <trkpt lat="43.93869" lon="7.4">
        <ele>929.1</ele>
        <time>1982-03-26T12:03:59Z</time>
      </trkpt>
      <trkpt lat="43.93868" lon="7.39999">
        <ele>928.8</ele>
        <time>1982-03-26T12:04:01Z</time>
      </trkpt>
      <trkpt lat="43.93868" lon="7.39999">
        <ele>928.8</ele>
        <time>1982-03-26T12:04:02Z</time>
      </trkpt>
      <trkpt lat="43.93867" lon="7.39999">
        <ele>927.9</ele>
        <time>1982-03-26T12:04:04Z</time>
      </trkpt>
      <trkpt lat="43.93867" lon="7.39999">
        <ele>927.9</ele>
        <time>1982-03-26T12:04:05Z</time>
      </trkpt>
      <trkpt lat="43.93867" lon="7.39999">
        <ele>927.9</ele>
        <time>1982-03-26T12:04:16Z</time>
      </trkpt>
      <trkpt lat="43.93866" lon="7.4">
        <ele>927.4</ele>
        <time>1982-03-26T12:04:18Z</time>
      </trkpt>
      <trkpt lat="43.93866" lon="7.40001">
        <ele>927.4</ele>
        <time>1982-03-26T12:04:20Z</time>
      </trkpt>
      <trkpt lat="43.93867" lon="7.4">
        <ele>926.9</ele>
        <time>1982-03-26T12:04:22Z</time>
      </trkpt>
      <trkpt lat="43.93867" lon="7.40002">
        <ele>926.5</ele>
        <time>1982-03-26T12:04:24Z</time>
      </trkpt>
      <trkpt lat="43.93867" lon="7.40002">
        <ele>926</ele>
        <time>1982-03-26T12:04:25Z</time>
      </trkpt>
      <trkpt lat="43.93867" lon="7.40002">
        <ele>926</ele>
        <time>1982-03-26T12:04:25Z</time>
      </trkpt>
      <trkpt lat="43.93866" lon="7.40002">
        <ele>929.1</ele>
        <time>1982-03-26T12:04:27Z</time>
      </trkpt>
      <trkpt lat="43.93866" lon="7.40003">
        <ele>929.5</ele>
        <time>1982-03-26T12:04:29Z</time>
      </trkpt>
      <trkpt lat="43.93869" lon="7.4">
        <ele>926</ele>
        <time>1982-03-26T12:04:31Z</time>
      </trkpt>
      <trkpt lat="43.9387" lon="7.4">
        <ele>926.6</ele>
        <time>1982-03-26T12:04:32Z</time>
      </trkpt>
      <trkpt lat="43.93871" lon="7.39999">
        <ele>927.1</ele>
        <time>1982-03-26T12:04:33Z</time>
      </trkpt>
      <trkpt lat="43.93871" lon="7.39999">
        <ele>925.8</ele>
        <time>1982-03-26T12:04:34Z</time>
      </trkpt>
      <trkpt lat="43.93872" lon="7.39999">
        <ele>927.5</ele>
        <time>1982-03-26T12:04:35Z</time>
      </trkpt>
      <trkpt lat="43.93872" lon="7.39997">
        <ele>926</ele>
        <time>1982-03-26T12:04:36Z</time>
      </trkpt>
      <trkpt lat="43.93873" lon="7.39997">
        <ele>925.5</ele>
        <time>1982-03-26T12:04:37Z</time>
      </trkpt>
      <trkpt lat="43.93873" lon="7.39997">
        <ele>924.8</ele>
        <time>1982-03-26T12:04:38Z</time>
      </trkpt>
      <trkpt lat="43.93874" lon="7.39996">
        <ele>925.6</ele>
        <time>1982-03-26T12:04:39Z</time>
      </trkpt>
      <trkpt lat="43.93874" lon="7.39996">
        <ele>926</ele>
        <time>1982-03-26T12:04:42Z</time>
      </trkpt>
      <trkpt lat="43.93877" lon="7.39996">
        <ele>925.6</ele>
        <time>1982-03-26T12:04:46Z</time>
      </trkpt>
      <trkpt lat="43.93878" lon="7.39997">
        <ele>925.7</ele>
        <time>1982-03-26T12:04:48Z</time>
      </trkpt>
      <trkpt lat="43.93877" lon="7.39997">
        <ele>927.4</ele>
        <time>1982-03-26T12:04:50Z</time>
      </trkpt>
      <trkpt lat="43.93877" lon="7.39996">
        <ele>927.7</ele>
        <time>1982-03-26T12:04:51Z</time>
      </trkpt>
      <trkpt lat="43.93877" lon="7.39996">
        <ele>927.7</ele>
        <time>1982-03-26T12:04:57Z</time>
      </trkpt>
      <trkpt lat="43.93877" lon="7.39996">
        <ele>928.5</ele>
        <time>1982-03-26T12:04:59Z</time>
      </trkpt>
      <trkpt lat="43.93877" lon="7.39996">
        <ele>928.5</ele>
        <time>1982-03-26T12:05:11Z</time>
      </trkpt>
      <trkpt lat="43.93877" lon="7.39996">
        <ele>929</ele>
        <time>1982-03-26T12:05:13Z</time>
      </trkpt>
      <trkpt lat="43.93877" lon="7.39996">
        <ele>929</ele>
        <time>1982-03-26T12:06:46Z</time>
      </trkpt>
      <trkpt lat="43.93877" lon="7.39996">
        <ele>929.7</ele>
        <time>1982-03-26T12:06:48Z</time>
      </trkpt>
      <trkpt lat="43.93877" lon="7.39996">
        <ele>929.7</ele>
        <time>1982-03-26T12:07:24Z</time>
      </trkpt>
      <trkpt lat="43.93877" lon="7.39996">
        <ele>930.4</ele>
        <time>1982-03-26T12:07:26Z</time>
      </trkpt>
      <trkpt lat="43.93877" lon="7.39996">
        <ele>930.4</ele>
        <time>1982-03-26T12:08:28Z</time>
      </trkpt>
      <trkpt lat="43.93877" lon="7.39996">
        <ele>931</ele>
        <time>1982-03-26T12:08:30Z</time>
      </trkpt>
      <trkpt lat="43.93877" lon="7.39996">
        <ele>931</ele>
        <time>1982-03-26T12:09:33Z</time>
      </trkpt>
      <trkpt lat="43.93877" lon="7.39996">
        <ele>931.6</ele>
        <time>1982-03-26T12:09:35Z</time>
      </trkpt>
      <trkpt lat="43.93877" lon="7.39996">
        <ele>931.6</ele>
        <time>1982-03-26T12:10:39Z</time>
      </trkpt>
      <trkpt lat="43.93877" lon="7.39996">
        <ele>932.3</ele>
        <time>1982-03-26T12:10:41Z</time>
      </trkpt>
      <trkpt lat="43.93877" lon="7.39996">
        <ele>932.3</ele>
        <time>1982-03-26T12:11:52Z</time>
      </trkpt>
      <trkpt lat="43.93878" lon="7.39996">
        <ele>932.9</ele>
        <time>1982-03-26T12:11:54Z</time>
      </trkpt>
      <trkpt lat="43.93878" lon="7.39996">
        <ele>932.9</ele>
        <time>1982-03-26T12:12:57Z</time>
      </trkpt>
      <trkpt lat="43.93878" lon="7.39997">
        <ele>933.6</ele>
        <time>1982-03-26T12:12:59Z</time>
      </trkpt>
      <trkpt lat="43.93878" lon="7.39997">
        <ele>933.6</ele>
        <time>1982-03-26T12:14:09Z</time>
      </trkpt>
      <trkpt lat="43.93878" lon="7.39997">
        <ele>934.3</ele>
        <time>1982-03-26T12:14:11Z</time>
      </trkpt>
      <trkpt lat="43.93878" lon="7.39997">
        <ele>934.3</ele>
        <time>1982-03-26T12:15:26Z</time>
      </trkpt>
      <trkpt lat="43.93878" lon="7.39997">
        <ele>935</ele>
        <time>1982-03-26T12:15:28Z</time>
      </trkpt>
      <trkpt lat="43.93878" lon="7.39997">
        <ele>935</ele>
        <time>1982-03-26T12:17:59Z</time>
      </trkpt>
      <trkpt lat="43.93878" lon="7.39997">
        <ele>935.6</ele>
        <time>1982-03-26T12:18:01Z</time>
      </trkpt>
      <trkpt lat="43.93878" lon="7.39997">
        <ele>935.6</ele>
        <time>1982-03-26T12:19:03Z</time>
      </trkpt>
      <trkpt lat="43.93878" lon="7.39997">
        <ele>936.4</ele>
        <time>1982-03-26T12:19:05Z</time>
      </trkpt>
      <trkpt lat="43.93878" lon="7.39997">
        <ele>936.4</ele>
        <time>1982-03-26T12:21:21Z</time>
      </trkpt>
      <trkpt lat="43.93878" lon="7.39997">
        <ele>936.9</ele>
        <time>1982-03-26T12:21:23Z</time>
      </trkpt>
      <trkpt lat="43.93878" lon="7.39997">
        <ele>936.9</ele>
        <time>1982-03-26T12:23:01Z</time>
      </trkpt>
      <trkpt lat="43.93878" lon="7.39998">
        <ele>937.6</ele>
        <time>1982-03-26T12:23:03Z</time>
      </trkpt>
      <trkpt lat="43.93878" lon="7.39998">
        <ele>937.6</ele>
        <time>1982-03-26T12:23:46Z</time>
      </trkpt>
      <trkpt lat="43.93878" lon="7.39998">
        <ele>938.3</ele>
        <time>1982-03-26T12:23:48Z</time>
      </trkpt>
      <trkpt lat="43.93878" lon="7.39998">
        <ele>938.3</ele>
        <time>1982-03-26T12:24:42Z</time>
      </trkpt>
      <trkpt lat="43.93878" lon="7.39998">
        <ele>938.9</ele>
        <time>1982-03-26T12:24:44Z</time>
      </trkpt>
      <trkpt lat="43.93878" lon="7.39998">
        <ele>938.9</ele>
        <time>1982-03-26T12:25:45Z</time>
      </trkpt>
      <trkpt lat="43.93878" lon="7.39998">
        <ele>939.7</ele>
        <time>1982-03-26T12:25:47Z</time>
      </trkpt>
      <trkpt lat="43.93878" lon="7.39998">
        <ele>939.7</ele>
        <time>1982-03-26T12:26:34Z</time>
      </trkpt>
      <trkpt lat="43.93878" lon="7.39998">
        <ele>940.2</ele>
        <time>1982-03-26T12:26:36Z</time>
      </trkpt>
      <trkpt lat="43.93878" lon="7.39998">
        <ele>940.2</ele>
        <time>1982-03-26T12:27:42Z</time>
      </trkpt>
      <trkpt lat="43.93878" lon="7.39998">
        <ele>940.9</ele>
        <time>1982-03-26T12:27:44Z</time>
      </trkpt>
      <trkpt lat="43.93878" lon="7.39998">
        <ele>940.9</ele>
        <time>1982-03-26T12:29:30Z</time>
      </trkpt>
      <trkpt lat="43.93878" lon="7.39998">
        <ele>941.6</ele>
        <time>1982-03-26T12:29:32Z</time>
      </trkpt>
      <trkpt lat="43.93878" lon="7.39998">
        <ele>941.6</ele>
        <time>1982-03-26T12:30:36Z</time>
      </trkpt>
      <trkpt lat="43.93878" lon="7.39998">
        <ele>942.3</ele>
        <time>1982-03-26T12:30:38Z</time>
      </trkpt>
      <trkpt lat="43.93878" lon="7.39998">
        <ele>942.3</ele>
        <time>1982-03-26T12:32:08Z</time>
      </trkpt>
      <trkpt lat="43.93878" lon="7.39998">
        <ele>942.9</ele>
        <time>1982-03-26T12:32:10Z</time>
      </trkpt>
      <trkpt lat="43.93878" lon="7.39998">
        <ele>942.9</ele>
        <time>1982-03-26T12:34:05Z</time>
      </trkpt>
      <trkpt lat="43.93878" lon="7.39998">
        <ele>943.6</ele>
        <time>1982-03-26T12:34:07Z</time>
      </trkpt>
      <trkpt lat="43.93878" lon="7.39998">
        <ele>943.6</ele>
        <time>1982-03-26T12:35:30Z</time>
      </trkpt>
      <trkpt lat="43.93878" lon="7.39998">
        <ele>944.1</ele>
        <time>1982-03-26T12:35:32Z</time>
      </trkpt>
      <trkpt lat="43.93878" lon="7.39998">
        <ele>944.1</ele>
        <time>1982-03-26T12:36:15Z</time>
      </trkpt>
      <trkpt lat="43.93877" lon="7.40001">
        <ele>942.4</ele>
        <time>1982-03-26T12:36:17Z</time>
      </trkpt>
      <trkpt lat="43.93876" lon="7.4">
        <ele>942.1</ele>
        <time>1982-03-26T12:36:18Z</time>
      </trkpt>
      <trkpt lat="43.93876" lon="7.40002">
        <ele>942.1</ele>
        <time>1982-03-26T12:36:19Z</time>
      </trkpt>
      <trkpt lat="43.93875" lon="7.40002">
        <ele>942.2</ele>
        <time>1982-03-26T12:36:21Z</time>
      </trkpt>
      <trkpt lat="43.93875" lon="7.40002">
        <ele>942.2</ele>
        <time>1982-03-26T12:36:25Z</time>
      </trkpt>
      <trkpt lat="43.93872" lon="7.40004">
        <ele>940.6</ele>
        <time>1982-03-26T12:36:27Z</time>
      </trkpt>
      <trkpt lat="43.93871" lon="7.40005">
        <ele>939.6</ele>
        <time>1982-03-26T12:36:28Z</time>
      </trkpt>
      <trkpt lat="43.9387" lon="7.40004">
        <ele>938.2</ele>
        <time>1982-03-26T12:36:29Z</time>
      </trkpt>
      <trkpt lat="43.93871" lon="7.40007">
        <ele>937.8</ele>
        <time>1982-03-26T12:36:30Z</time>
      </trkpt>
      <trkpt lat="43.93871" lon="7.40008">
        <ele>936.7</ele>
        <time>1982-03-26T12:36:31Z</time>
      </trkpt>
      <trkpt lat="43.9387" lon="7.40008">
        <ele>936.8</ele>
        <time>1982-03-26T12:36:32Z</time>
      </trkpt>
      <trkpt lat="43.9387" lon="7.40008">
        <ele>936.8</ele>
        <time>1982-03-26T12:36:33Z</time>
      </trkpt>
      <trkpt lat="43.9387" lon="7.40008">
        <ele>936.8</ele>
        <time>1982-03-26T12:36:35Z</time>
      </trkpt>
      <trkpt lat="43.9387" lon="7.40008">
        <ele>936.8</ele>
        <time>1982-03-26T12:36:35Z</time>
      </trkpt>
      <trkpt lat="43.9387" lon="7.40006">
        <ele>936.4</ele>
        <time>1982-03-26T12:36:37Z</time>
      </trkpt>
      <trkpt lat="43.93869" lon="7.40005">
        <ele>936.2</ele>
        <time>1982-03-26T12:36:38Z</time>
      </trkpt>
      <trkpt lat="43.93869" lon="7.40005">
        <ele>936.2</ele>
        <time>1982-03-26T12:36:40Z</time>
      </trkpt>
      <trkpt lat="43.93869" lon="7.40005">
        <ele>936.2</ele>
        <time>1982-03-26T12:36:42Z</time>
      </trkpt>
      <trkpt lat="43.93868" lon="7.40005">
        <ele>935.1</ele>
        <time>1982-03-26T12:36:44Z</time>
      </trkpt>
      <trkpt lat="43.93868" lon="7.40006">
        <ele>934.5</ele>
        <time>1982-03-26T12:36:45Z</time>
      </trkpt>
      <trkpt lat="43.93867" lon="7.40007">
        <ele>934.8</ele>
        <time>1982-03-26T12:36:46Z</time>
      </trkpt>
      <trkpt lat="43.93867" lon="7.40006">
        <ele>934.2</ele>
        <time>1982-03-26T12:36:48Z</time>
      </trkpt>
      <trkpt lat="43.93867" lon="7.40006">
        <ele>934.2</ele>
        <time>1982-03-26T12:36:49Z</time>
      </trkpt>
      <trkpt lat="43.93867" lon="7.40011">
        <ele>935</ele>
        <time>1982-03-26T12:36:51Z</time>
      </trkpt>
      <trkpt lat="43.93866" lon="7.4001">
        <ele>936.4</ele>
        <time>1982-03-26T12:36:52Z</time>
      </trkpt>
      <trkpt lat="43.93867" lon="7.40011">
        <ele>936.2</ele>
        <time>1982-03-26T12:36:53Z</time>
      </trkpt>
      <trkpt lat="43.93865" lon="7.4001">
        <ele>936.2</ele>
        <time>1982-03-26T12:36:54Z</time>
      </trkpt>
      <trkpt lat="43.93864" lon="7.40009">
        <ele>937.9</ele>
        <time>1982-03-26T12:36:55Z</time>
      </trkpt>
      <trkpt lat="43.93862" lon="7.40006">
        <ele>939.4</ele>
        <time>1982-03-26T12:36:56Z</time>
      </trkpt>
      <trkpt lat="43.93862" lon="7.40006">
        <ele>939.5</ele>
        <time>1982-03-26T12:36:57Z</time>
      </trkpt>
      <trkpt lat="43.93861" lon="7.40006">
        <ele>939.6</ele>
        <time>1982-03-26T12:36:59Z</time>
      </trkpt>
      <trkpt lat="43.93861" lon="7.40008">
        <ele>939.1</ele>
        <time>1982-03-26T12:37:00Z</time>
      </trkpt>
      <trkpt lat="43.9386" lon="7.40009">
        <ele>939.1</ele>
        <time>1982-03-26T12:37:01Z</time>
      </trkpt>
      <trkpt lat="43.93859" lon="7.40008">
        <ele>938.3</ele>
        <time>1982-03-26T12:37:03Z</time>
      </trkpt>
      <trkpt lat="43.93859" lon="7.40007">
        <ele>938.6</ele>
        <time>1982-03-26T12:37:04Z</time>
      </trkpt>
      <trkpt lat="43.93858" lon="7.40008">
        <ele>938.3</ele>
        <time>1982-03-26T12:37:05Z</time>
      </trkpt>
      <trkpt lat="43.93858" lon="7.40008">
        <ele>938.3</ele>
        <time>1982-03-26T12:37:06Z</time>
      </trkpt>
      <trkpt lat="43.93857" lon="7.40008">
        <ele>938.2</ele>
        <time>1982-03-26T12:37:08Z</time>
      </trkpt>
      <trkpt lat="43.93857" lon="7.40009">
        <ele>938.2</ele>
        <time>1982-03-26T12:37:09Z</time>
      </trkpt>
      <trkpt lat="43.93856" lon="7.4001">
        <ele>937.7</ele>
        <time>1982-03-26T12:37:11Z</time>
      </trkpt>
      <trkpt lat="43.93856" lon="7.4001">
        <ele>937.8</ele>
        <time>1982-03-26T12:37:12Z</time>
      </trkpt>
      <trkpt lat="43.93856" lon="7.4001">
        <ele>937.8</ele>
        <time>1982-03-26T12:37:15Z</time>
      </trkpt>
      <trkpt lat="43.93855" lon="7.4001">
        <ele>938.1</ele>
        <time>1982-03-26T12:37:17Z</time>
      </trkpt>
      <trkpt lat="43.93855" lon="7.4001">
        <ele>938.1</ele>
        <time>1982-03-26T12:37:36Z</time>
      </trkpt>
      <trkpt lat="43.93853" lon="7.4001">
        <ele>939</ele>
        <time>1982-03-26T12:37:38Z</time>
      </trkpt>
      <trkpt lat="43.93852" lon="7.4001">
        <ele>939.3</ele>
        <time>1982-03-26T12:37:39Z</time>
      </trkpt>
      <trkpt lat="43.93852" lon="7.4001">
        <ele>939.2</ele>
        <time>1982-03-26T12:37:40Z</time>
      </trkpt>
      <trkpt lat="43.93849" lon="7.40009">
        <ele>939.5</ele>
        <time>1982-03-26T12:37:42Z</time>
      </trkpt>
      <trkpt lat="43.93849" lon="7.40008">
        <ele>938.7</ele>
        <time>1982-03-26T12:37:43Z</time>
      </trkpt>
      <trkpt lat="43.93849" lon="7.40008">
        <ele>938.7</ele>
        <time>1982-03-26T12:37:44Z</time>
      </trkpt>
      <trkpt lat="43.93849" lon="7.40009">
        <ele>939</ele>
        <time>1982-03-26T12:37:46Z</time>
      </trkpt>
      <trkpt lat="43.93849" lon="7.40009">
        <ele>939</ele>
        <time>1982-03-26T12:37:48Z</time>
      </trkpt>
      <trkpt lat="43.93849" lon="7.40009">
        <ele>939.4</ele>
        <time>1982-03-26T12:37:50Z</time>
      </trkpt>
      <trkpt lat="43.93849" lon="7.40009">
        <ele>939.4</ele>
        <time>1982-03-26T12:38:33Z</time>
      </trkpt>
      <trkpt lat="43.93845" lon="7.40014">
        <ele>939.7</ele>
        <time>1982-03-26T12:38:35Z</time>
      </trkpt>
      <trkpt lat="43.93844" lon="7.40016">
        <ele>939.3</ele>
        <time>1982-03-26T12:38:36Z</time>
      </trkpt>
      <trkpt lat="43.93843" lon="7.40019">
        <ele>937.9</ele>
        <time>1982-03-26T12:38:37Z</time>
      </trkpt>
      <trkpt lat="43.93842" lon="7.40021">
        <ele>937.3</ele>
        <time>1982-03-26T12:38:38Z</time>
      </trkpt>
      <trkpt lat="43.9384" lon="7.40024">
        <ele>937</ele>
        <time>1982-03-26T12:38:39Z</time>
      </trkpt>
      <trkpt lat="43.93839" lon="7.40026">
        <ele>935.9</ele>
        <time>1982-03-26T12:38:40Z</time>
      </trkpt>
      <trkpt lat="43.93837" lon="7.40029">
        <ele>935.4</ele>
        <time>1982-03-26T12:38:41Z</time>
      </trkpt>
      <trkpt lat="43.93833" lon="7.40031">
        <ele>935.2</ele>
        <time>1982-03-26T12:38:42Z</time>
      </trkpt>
      <trkpt lat="43.9383" lon="7.40033">
        <ele>934.4</ele>
        <time>1982-03-26T12:38:43Z</time>
      </trkpt>
      <trkpt lat="43.93828" lon="7.40034">
        <ele>934.3</ele>
        <time>1982-03-26T12:38:44Z</time>
      </trkpt>
      <trkpt lat="43.93825" lon="7.40036">
        <ele>933.7</ele>
        <time>1982-03-26T12:38:45Z</time>
      </trkpt>
      <trkpt lat="43.93823" lon="7.40038">
        <ele>933.5</ele>
        <time>1982-03-26T12:38:46Z</time>
      </trkpt>
      <trkpt lat="43.9382" lon="7.4004">
        <ele>933.3</ele>
        <time>1982-03-26T12:38:47Z</time>
      </trkpt>
      <trkpt lat="43.93817" lon="7.40038">
        <ele>933.5</ele>
        <time>1982-03-26T12:38:48Z</time>
      </trkpt>
      <trkpt lat="43.93813" lon="7.40038">
        <ele>933.8</ele>
        <time>1982-03-26T12:38:49Z</time>
      </trkpt>
      <trkpt lat="43.93812" lon="7.40037">
        <ele>933.7</ele>
        <time>1982-03-26T12:38:50Z</time>
      </trkpt>
      <trkpt lat="43.9381" lon="7.40035">
        <ele>933.6</ele>
        <time>1982-03-26T12:38:51Z</time>
      </trkpt>
      <trkpt lat="43.9381" lon="7.40035">
        <ele>934.1</ele>
        <time>1982-03-26T12:38:52Z</time>
      </trkpt>
      <trkpt lat="43.9381" lon="7.40035">
        <ele>934.1</ele>
        <time>1982-03-26T12:39:09Z</time>
      </trkpt>
      <trkpt lat="43.93808" lon="7.40033">
        <ele>934.5</ele>
        <time>1982-03-26T12:39:11Z</time>
      </trkpt>
      <trkpt lat="43.93807" lon="7.40032">
        <ele>934.6</ele>
        <time>1982-03-26T12:39:12Z</time>
      </trkpt>
      <trkpt lat="43.93806" lon="7.4003">
        <ele>935.5</ele>
        <time>1982-03-26T12:39:13Z</time>
      </trkpt>
      <trkpt lat="43.93804" lon="7.4003">
        <ele>936.2</ele>
        <time>1982-03-26T12:39:14Z</time>
      </trkpt>
      <trkpt lat="43.93803" lon="7.40029">
        <ele>937.4</ele>
        <time>1982-03-26T12:39:15Z</time>
      </trkpt>
      <trkpt lat="43.93801" lon="7.40027">
        <ele>937.6</ele>
        <time>1982-03-26T12:39:16Z</time>
      </trkpt>
      <trkpt lat="43.93801" lon="7.40025">
        <ele>937.1</ele>
        <time>1982-03-26T12:39:17Z</time>
      </trkpt>
      <trkpt lat="43.938" lon="7.40025">
        <ele>936.7</ele>
        <time>1982-03-26T12:39:18Z</time>
      </trkpt>
      <trkpt lat="43.938" lon="7.40023">
        <ele>937.1</ele>
        <time>1982-03-26T12:39:20Z</time>
      </trkpt>
      <trkpt lat="43.938" lon="7.4002">
        <ele>936.8</ele>
        <time>1982-03-26T12:39:21Z</time>
      </trkpt>
      <trkpt lat="43.938" lon="7.40019">
        <ele>937.6</ele>
        <time>1982-03-26T12:39:22Z</time>
      </trkpt>
      <trkpt lat="43.938" lon="7.40018">
        <ele>937.4</ele>
        <time>1982-03-26T12:39:23Z</time>
      </trkpt>
      <trkpt lat="43.93797" lon="7.40016">
        <ele>937.9</ele>
        <time>1982-03-26T12:39:25Z</time>
      </trkpt>
      <trkpt lat="43.93796" lon="7.40015">
        <ele>938.3</ele>
        <time>1982-03-26T12:39:26Z</time>
      </trkpt>
      <trkpt lat="43.93795" lon="7.40014">
        <ele>938.3</ele>
        <time>1982-03-26T12:39:27Z</time>
      </trkpt>
      <trkpt lat="43.93794" lon="7.40012">
        <ele>938.1</ele>
        <time>1982-03-26T12:39:28Z</time>
      </trkpt>
      <trkpt lat="43.93793" lon="7.40011">
        <ele>938.1</ele>
        <time>1982-03-26T12:39:29Z</time>
      </trkpt>
      <trkpt lat="43.93793" lon="7.4001">
        <ele>937.7</ele>
        <time>1982-03-26T12:39:30Z</time>
      </trkpt>
      <trkpt lat="43.93792" lon="7.40009">
        <ele>937.9</ele>
        <time>1982-03-26T12:39:31Z</time>
      </trkpt>
      <trkpt lat="43.93791" lon="7.40009">
        <ele>937.5</ele>
        <time>1982-03-26T12:39:32Z</time>
      </trkpt>
      <trkpt lat="43.93789" lon="7.40008">
        <ele>937.4</ele>
        <time>1982-03-26T12:39:33Z</time>
      </trkpt>
      <trkpt lat="43.93788" lon="7.40008">
        <ele>937.7</ele>
        <time>1982-03-26T12:39:34Z</time>
      </trkpt>
      <trkpt lat="43.93787" lon="7.40008">
        <ele>938.4</ele>
        <time>1982-03-26T12:39:35Z</time>
      </trkpt>
      <trkpt lat="43.93786" lon="7.40008">
        <ele>938.6</ele>
        <time>1982-03-26T12:39:36Z</time>
      </trkpt>
      <trkpt lat="43.93785" lon="7.40007">
        <ele>938.8</ele>
        <time>1982-03-26T12:39:37Z</time>
      </trkpt>
      <trkpt lat="43.93783" lon="7.40007">
        <ele>938.9</ele>
        <time>1982-03-26T12:39:38Z</time>
      </trkpt>
      <trkpt lat="43.93782" lon="7.40007">
        <ele>939.5</ele>
        <time>1982-03-26T12:39:39Z</time>
      </trkpt>
      <trkpt lat="43.9378" lon="7.40006">
        <ele>939.7</ele>
        <time>1982-03-26T12:39:40Z</time>
      </trkpt>
      <trkpt lat="43.93779" lon="7.40006">
        <ele>939.8</ele>
        <time>1982-03-26T12:39:41Z</time>
      </trkpt>
      <trkpt lat="43.93778" lon="7.40006">
        <ele>939.7</ele>
        <time>1982-03-26T12:39:42Z</time>
      </trkpt>
      <trkpt lat="43.93776" lon="7.40006">
        <ele>939.9</ele>
        <time>1982-03-26T12:39:43Z</time>
      </trkpt>
      <trkpt lat="43.93775" lon="7.40005">
        <ele>939.7</ele>
        <time>1982-03-26T12:39:44Z</time>
      </trkpt>
      <trkpt lat="43.93774" lon="7.40005">
        <ele>939.9</ele>
        <time>1982-03-26T12:39:45Z</time>
      </trkpt>
      <trkpt lat="43.93773" lon="7.40005">
        <ele>940.3</ele>
        <time>1982-03-26T12:39:46Z</time>
      </trkpt>
      <trkpt lat="43.93772" lon="7.40006">
        <ele>940.5</ele>
        <time>1982-03-26T12:39:47Z</time>
      </trkpt>
      <trkpt lat="43.9377" lon="7.40006">
        <ele>940.1</ele>
        <time>1982-03-26T12:39:48Z</time>
      </trkpt>
      <trkpt lat="43.93769" lon="7.40007">
        <ele>940.1</ele>
        <time>1982-03-26T12:39:49Z</time>
      </trkpt>
      <trkpt lat="43.93768" lon="7.40007">
        <ele>940</ele>
        <time>1982-03-26T12:39:50Z</time>
      </trkpt>
      <trkpt lat="43.93766" lon="7.40007">
        <ele>939.7</ele>
        <time>1982-03-26T12:39:51Z</time>
      </trkpt>
      <trkpt lat="43.93764" lon="7.40007">
        <ele>940.4</ele>
        <time>1982-03-26T12:39:52Z</time>
      </trkpt>
      <trkpt lat="43.93763" lon="7.40008">
        <ele>940.6</ele>
        <time>1982-03-26T12:39:53Z</time>
      </trkpt>
      <trkpt lat="43.93761" lon="7.40008">
        <ele>941.1</ele>
        <time>1982-03-26T12:39:54Z</time>
      </trkpt>
      <trkpt lat="43.93759" lon="7.40009">
        <ele>941</ele>
        <time>1982-03-26T12:39:55Z</time>
      </trkpt>
      <trkpt lat="43.93758" lon="7.40009">
        <ele>941.7</ele>
        <time>1982-03-26T12:39:56Z</time>
      </trkpt>
      <trkpt lat="43.93757" lon="7.40009">
        <ele>941.5</ele>
        <time>1982-03-26T12:39:57Z</time>
      </trkpt>
      <trkpt lat="43.93755" lon="7.40009">
        <ele>940.9</ele>
        <time>1982-03-26T12:39:58Z</time>
      </trkpt>
      <trkpt lat="43.93754" lon="7.4001">
        <ele>942</ele>
        <time>1982-03-26T12:39:59Z</time>
      </trkpt>
      <trkpt lat="43.93753" lon="7.4001">
        <ele>942.8</ele>
        <time>1982-03-26T12:40:00Z</time>
      </trkpt>
      <trkpt lat="43.93751" lon="7.40009">
        <ele>942.8</ele>
        <time>1982-03-26T12:40:01Z</time>
      </trkpt>
      <trkpt lat="43.9375" lon="7.40009">
        <ele>943.9</ele>
        <time>1982-03-26T12:40:02Z</time>
      </trkpt>
      <trkpt lat="43.93749" lon="7.40009">
        <ele>944.4</ele>
        <time>1982-03-26T12:40:03Z</time>
      </trkpt>
      <trkpt lat="43.93747" lon="7.40009">
        <ele>944.4</ele>
        <time>1982-03-26T12:40:04Z</time>
      </trkpt>
      <trkpt lat="43.93746" lon="7.40009">
        <ele>944.1</ele>
        <time>1982-03-26T12:40:05Z</time>
      </trkpt>
      <trkpt lat="43.93745" lon="7.40009">
        <ele>944.2</ele>
        <time>1982-03-26T12:40:06Z</time>
      </trkpt>
      <trkpt lat="43.93744" lon="7.4001">
        <ele>945</ele>
        <time>1982-03-26T12:40:07Z</time>
      </trkpt>
      <trkpt lat="43.93743" lon="7.40011">
        <ele>944.7</ele>
        <time>1982-03-26T12:40:08Z</time>
      </trkpt>
      <trkpt lat="43.93742" lon="7.40012">
        <ele>944.4</ele>
        <time>1982-03-26T12:40:09Z</time>
      </trkpt>
      <trkpt lat="43.9374" lon="7.40012">
        <ele>945</ele>
        <time>1982-03-26T12:40:10Z</time>
      </trkpt>
      <trkpt lat="43.93739" lon="7.40014">
        <ele>945.4</ele>
        <time>1982-03-26T12:40:11Z</time>
      </trkpt>
      <trkpt lat="43.93738" lon="7.40015">
        <ele>946.6</ele>
        <time>1982-03-26T12:40:12Z</time>
      </trkpt>
      <trkpt lat="43.93737" lon="7.40016">
        <ele>947.3</ele>
        <time>1982-03-26T12:40:13Z</time>
      </trkpt>
      <trkpt lat="43.93736" lon="7.40017">
        <ele>947</ele>
        <time>1982-03-26T12:40:14Z</time>
      </trkpt>
      <trkpt lat="43.93735" lon="7.40017">
        <ele>947.2</ele>
        <time>1982-03-26T12:40:15Z</time>
      </trkpt>
      <trkpt lat="43.93733" lon="7.40019">
        <ele>947.4</ele>
        <time>1982-03-26T12:40:16Z</time>
      </trkpt>
      <trkpt lat="43.93732" lon="7.4002">
        <ele>947.6</ele>
        <time>1982-03-26T12:40:17Z</time>
      </trkpt>
      <trkpt lat="43.9373" lon="7.40021">
        <ele>948.2</ele>
        <time>1982-03-26T12:40:18Z</time>
      </trkpt>
      <trkpt lat="43.93729" lon="7.40022">
        <ele>948.9</ele>
        <time>1982-03-26T12:40:19Z</time>
      </trkpt>
      <trkpt lat="43.93728" lon="7.40023">
        <ele>949.2</ele>
        <time>1982-03-26T12:40:20Z</time>
      </trkpt>
      <trkpt lat="43.93727" lon="7.40023">
        <ele>949.5</ele>
        <time>1982-03-26T12:40:21Z</time>
      </trkpt>
      <trkpt lat="43.93725" lon="7.40024">
        <ele>949.3</ele>
        <time>1982-03-26T12:40:22Z</time>
      </trkpt>
      <trkpt lat="43.93724" lon="7.40024">
        <ele>949.6</ele>
        <time>1982-03-26T12:40:23Z</time>
      </trkpt>
      <trkpt lat="43.93723" lon="7.40025">
        <ele>949.6</ele>
        <time>1982-03-26T12:40:24Z</time>
      </trkpt>
      <trkpt lat="43.93722" lon="7.40025">
        <ele>949.8</ele>
        <time>1982-03-26T12:40:25Z</time>
      </trkpt>
      <trkpt lat="43.9372" lon="7.40025">
        <ele>950.1</ele>
        <time>1982-03-26T12:40:26Z</time>
      </trkpt>
      <trkpt lat="43.93719" lon="7.40026">
        <ele>950.6</ele>
        <time>1982-03-26T12:40:27Z</time>
      </trkpt>
      <trkpt lat="43.93717" lon="7.40026">
        <ele>950.8</ele>
        <time>1982-03-26T12:40:28Z</time>
      </trkpt>
      <trkpt lat="43.93716" lon="7.40026">
        <ele>950.6</ele>
        <time>1982-03-26T12:40:29Z</time>
      </trkpt>
      <trkpt lat="43.93714" lon="7.40026">
        <ele>950.1</ele>
        <time>1982-03-26T12:40:30Z</time>
      </trkpt>
      <trkpt lat="43.93713" lon="7.40026">
        <ele>949.4</ele>
        <time>1982-03-26T12:40:31Z</time>
      </trkpt>
      <trkpt lat="43.93711" lon="7.40027">
        <ele>949.7</ele>
        <time>1982-03-26T12:40:32Z</time>
      </trkpt>
      <trkpt lat="43.9371" lon="7.40028">
        <ele>949.7</ele>
        <time>1982-03-26T12:40:33Z</time>
      </trkpt>
      <trkpt lat="43.93709" lon="7.40029">
        <ele>950.7</ele>
        <time>1982-03-26T12:40:34Z</time>
      </trkpt>
      <trkpt lat="43.93708" lon="7.4003">
        <ele>951.5</ele>
        <time>1982-03-26T12:40:35Z</time>
      </trkpt>
      <trkpt lat="43.93707" lon="7.40031">
        <ele>952.2</ele>
        <time>1982-03-26T12:40:36Z</time>
      </trkpt>
      <trkpt lat="43.93706" lon="7.40032">
        <ele>951.5</ele>
        <time>1982-03-26T12:40:37Z</time>
      </trkpt>
      <trkpt lat="43.93704" lon="7.40032">
        <ele>951.4</ele>
        <time>1982-03-26T12:40:38Z</time>
      </trkpt>
      <trkpt lat="43.93703" lon="7.40033">
        <ele>951.1</ele>
        <time>1982-03-26T12:40:39Z</time>
      </trkpt>
      <trkpt lat="43.93702" lon="7.40034">
        <ele>951.4</ele>
        <time>1982-03-26T12:40:40Z</time>
      </trkpt>
      <trkpt lat="43.937" lon="7.40035">
        <ele>951.5</ele>
        <time>1982-03-26T12:40:41Z</time>
      </trkpt>
      <trkpt lat="43.93698" lon="7.40036">
        <ele>951.4</ele>
        <time>1982-03-26T12:40:42Z</time>
      </trkpt>
      <trkpt lat="43.93697" lon="7.40036">
        <ele>951.2</ele>
        <time>1982-03-26T12:40:43Z</time>
      </trkpt>
      <trkpt lat="43.93696" lon="7.40037">
        <ele>950.4</ele>
        <time>1982-03-26T12:40:44Z</time>
      </trkpt>
      <trkpt lat="43.93695" lon="7.40037">
        <ele>949.9</ele>
        <time>1982-03-26T12:40:45Z</time>
      </trkpt>
      <trkpt lat="43.93694" lon="7.40037">
        <ele>950.2</ele>
        <time>1982-03-26T12:40:46Z</time>
      </trkpt>
      <trkpt lat="43.93692" lon="7.40038">
        <ele>950.6</ele>
        <time>1982-03-26T12:40:47Z</time>
      </trkpt>
      <trkpt lat="43.93691" lon="7.40038">
        <ele>950.6</ele>
        <time>1982-03-26T12:40:48Z</time>
      </trkpt>
      <trkpt lat="43.93691" lon="7.40039">
        <ele>951.5</ele>
        <time>1982-03-26T12:40:49Z</time>
      </trkpt>
      <trkpt lat="43.93691" lon="7.4004">
        <ele>952.6</ele>
        <time>1982-03-26T12:40:50Z</time>
      </trkpt>
      <trkpt lat="43.9369" lon="7.40041">
        <ele>953.5</ele>
        <time>1982-03-26T12:40:51Z</time>
      </trkpt>
      <trkpt lat="43.93689" lon="7.40042">
        <ele>955.7</ele>
        <time>1982-03-26T12:40:52Z</time>
      </trkpt>
      <trkpt lat="43.93688" lon="7.40042">
        <ele>956.4</ele>
        <time>1982-03-26T12:40:53Z</time>
      </trkpt>
      <trkpt lat="43.93687" lon="7.40042">
        <ele>956.2</ele>
        <time>1982-03-26T12:40:54Z</time>
      </trkpt>
      <trkpt lat="43.93684" lon="7.40043">
        <ele>956.2</ele>
        <time>1982-03-26T12:40:56Z</time>
      </trkpt>
      <trkpt lat="43.93683" lon="7.40044">
        <ele>955.9</ele>
        <time>1982-03-26T12:40:57Z</time>
      </trkpt>
      <trkpt lat="43.93682" lon="7.40044">
        <ele>956</ele>
        <time>1982-03-26T12:40:58Z</time>
      </trkpt>
      <trkpt lat="43.9368" lon="7.40045">
        <ele>956.5</ele>
        <time>1982-03-26T12:40:59Z</time>
      </trkpt>
      <trkpt lat="43.93679" lon="7.40045">
        <ele>955.9</ele>
        <time>1982-03-26T12:41:00Z</time>
      </trkpt>
      <trkpt lat="43.93678" lon="7.40047">
        <ele>956</ele>
        <time>1982-03-26T12:41:01Z</time>
      </trkpt>
      <trkpt lat="43.93676" lon="7.40048">
        <ele>956</ele>
        <time>1982-03-26T12:41:02Z</time>
      </trkpt>
      <trkpt lat="43.93675" lon="7.40049">
        <ele>955.8</ele>
        <time>1982-03-26T12:41:03Z</time>
      </trkpt>
      <trkpt lat="43.93673" lon="7.4005">
        <ele>955.4</ele>
        <time>1982-03-26T12:41:04Z</time>
      </trkpt>
      <trkpt lat="43.93672" lon="7.40053">
        <ele>955.8</ele>
        <time>1982-03-26T12:41:05Z</time>
      </trkpt>
      <trkpt lat="43.93671" lon="7.40053">
        <ele>956.1</ele>
        <time>1982-03-26T12:41:06Z</time>
      </trkpt>
      <trkpt lat="43.9367" lon="7.40056">
        <ele>956.3</ele>
        <time>1982-03-26T12:41:07Z</time>
      </trkpt>
      <trkpt lat="43.93669" lon="7.40056">
        <ele>956.1</ele>
        <time>1982-03-26T12:41:08Z</time>
      </trkpt>
      <trkpt lat="43.93668" lon="7.40058">
        <ele>955.5</ele>
        <time>1982-03-26T12:41:09Z</time>
      </trkpt>
      <trkpt lat="43.93667" lon="7.4006">
        <ele>955.4</ele>
        <time>1982-03-26T12:41:10Z</time>
      </trkpt>
      <trkpt lat="43.93665" lon="7.40061">
        <ele>954.5</ele>
        <time>1982-03-26T12:41:11Z</time>
      </trkpt>
      <trkpt lat="43.93663" lon="7.40062">
        <ele>953.5</ele>
        <time>1982-03-26T12:41:12Z</time>
      </trkpt>
      <trkpt lat="43.93662" lon="7.40064">
        <ele>952.9</ele>
        <time>1982-03-26T12:41:13Z</time>
      </trkpt>
      <trkpt lat="43.9366" lon="7.40066">
        <ele>951.8</ele>
        <time>1982-03-26T12:41:14Z</time>
      </trkpt>
      <trkpt lat="43.93658" lon="7.40067">
        <ele>951.1</ele>
        <time>1982-03-26T12:41:15Z</time>
      </trkpt>
      <trkpt lat="43.93656" lon="7.40068">
        <ele>950.5</ele>
        <time>1982-03-26T12:41:16Z</time>
      </trkpt>
      <trkpt lat="43.93655" lon="7.4007">
        <ele>950.4</ele>
        <time>1982-03-26T12:41:17Z</time>
      </trkpt>
      <trkpt lat="43.93653" lon="7.40071">
        <ele>950.2</ele>
        <time>1982-03-26T12:41:18Z</time>
      </trkpt>
      <trkpt lat="43.93652" lon="7.40073">
        <ele>950.4</ele>
        <time>1982-03-26T12:41:19Z</time>
      </trkpt>
      <trkpt lat="43.9365" lon="7.40074">
        <ele>950.4</ele>
        <time>1982-03-26T12:41:20Z</time>
      </trkpt>
      <trkpt lat="43.93649" lon="7.40076">
        <ele>949.8</ele>
        <time>1982-03-26T12:41:21Z</time>
      </trkpt>
      <trkpt lat="43.93647" lon="7.40077">
        <ele>948.6</ele>
        <time>1982-03-26T12:41:22Z</time>
      </trkpt>
      <trkpt lat="43.93646" lon="7.40078">
        <ele>948.5</ele>
        <time>1982-03-26T12:41:23Z</time>
      </trkpt>
      <trkpt lat="43.93645" lon="7.40081">
        <ele>949</ele>
        <time>1982-03-26T12:41:24Z</time>
      </trkpt>
      <trkpt lat="43.93645" lon="7.40084">
        <ele>949.4</ele>
        <time>1982-03-26T12:41:25Z</time>
      </trkpt>
      <trkpt lat="43.93645" lon="7.40086">
        <ele>949.7</ele>
        <time>1982-03-26T12:41:26Z</time>
      </trkpt>
      <trkpt lat="43.93644" lon="7.40089">
        <ele>950.3</ele>
        <time>1982-03-26T12:41:27Z</time>
      </trkpt>
      <trkpt lat="43.93644" lon="7.40092">
        <ele>950.8</ele>
        <time>1982-03-26T12:41:28Z</time>
      </trkpt>
      <trkpt lat="43.93642" lon="7.40093">
        <ele>950.9</ele>
        <time>1982-03-26T12:41:29Z</time>
      </trkpt>
      <trkpt lat="43.93641" lon="7.40096">
        <ele>951.7</ele>
        <time>1982-03-26T12:41:30Z</time>
      </trkpt>
      <trkpt lat="43.9364" lon="7.40097">
        <ele>951.8</ele>
        <time>1982-03-26T12:41:31Z</time>
      </trkpt>
      <trkpt lat="43.93639" lon="7.40098">
        <ele>951.8</ele>
        <time>1982-03-26T12:41:32Z</time>
      </trkpt>
      <trkpt lat="43.93638" lon="7.401">
        <ele>952.6</ele>
        <time>1982-03-26T12:41:33Z</time>
      </trkpt>
      <trkpt lat="43.93636" lon="7.40103">
        <ele>953.1</ele>
        <time>1982-03-26T12:41:34Z</time>
      </trkpt>
      <trkpt lat="43.93635" lon="7.40105">
        <ele>952.6</ele>
        <time>1982-03-26T12:41:35Z</time>
      </trkpt>
      <trkpt lat="43.93633" lon="7.40106">
        <ele>952.1</ele>
        <time>1982-03-26T12:41:36Z</time>
      </trkpt>
      <trkpt lat="43.93632" lon="7.40109">
        <ele>951.6</ele>
        <time>1982-03-26T12:41:37Z</time>
      </trkpt>
      <trkpt lat="43.93631" lon="7.4011">
        <ele>951.6</ele>
        <time>1982-03-26T12:41:38Z</time>
      </trkpt>
      <trkpt lat="43.9363" lon="7.40113">
        <ele>951.7</ele>
        <time>1982-03-26T12:41:39Z</time>
      </trkpt>
      <trkpt lat="43.93629" lon="7.40118">
        <ele>951.7</ele>
        <time>1982-03-26T12:41:40Z</time>
      </trkpt>
      <trkpt lat="43.93626" lon="7.40118">
        <ele>952</ele>
        <time>1982-03-26T12:41:41Z</time>
      </trkpt>
      <trkpt lat="43.93624" lon="7.4012">
        <ele>951.8</ele>
        <time>1982-03-26T12:41:42Z</time>
      </trkpt>
      <trkpt lat="43.93623" lon="7.40121">
        <ele>951.8</ele>
        <time>1982-03-26T12:41:43Z</time>
      </trkpt>
      <trkpt lat="43.93624" lon="7.40124">
        <ele>951.5</ele>
        <time>1982-03-26T12:41:44Z</time>
      </trkpt>
      <trkpt lat="43.93621" lon="7.40126">
        <ele>951.4</ele>
        <time>1982-03-26T12:41:45Z</time>
      </trkpt>
      <trkpt lat="43.9362" lon="7.40131">
        <ele>951.8</ele>
        <time>1982-03-26T12:41:46Z</time>
      </trkpt>
      <trkpt lat="43.93618" lon="7.40134">
        <ele>952.3</ele>
        <time>1982-03-26T12:41:47Z</time>
      </trkpt>
      <trkpt lat="43.93614" lon="7.40135">
        <ele>952.6</ele>
        <time>1982-03-26T12:41:48Z</time>
      </trkpt>
      <trkpt lat="43.93611" lon="7.40139">
        <ele>953.1</ele>
        <time>1982-03-26T12:41:49Z</time>
      </trkpt>
      <trkpt lat="43.93611" lon="7.40138">
        <ele>952.9</ele>
        <time>1982-03-26T12:41:50Z</time>
      </trkpt>
      <trkpt lat="43.93608" lon="7.40139">
        <ele>953.5</ele>
        <time>1982-03-26T12:41:52Z</time>
      </trkpt>
      <trkpt lat="43.93606" lon="7.40142">
        <ele>953.8</ele>
        <time>1982-03-26T12:41:53Z</time>
      </trkpt>
      <trkpt lat="43.93605" lon="7.40144">
        <ele>953.8</ele>
        <time>1982-03-26T12:41:54Z</time>
      </trkpt>
      <trkpt lat="43.93607" lon="7.40149">
        <ele>954.1</ele>
        <time>1982-03-26T12:41:55Z</time>
      </trkpt>
      <trkpt lat="43.93607" lon="7.40154">
        <ele>954.5</ele>
        <time>1982-03-26T12:41:56Z</time>
      </trkpt>
      <trkpt lat="43.93608" lon="7.40154">
        <ele>954.1</ele>
        <time>1982-03-26T12:41:57Z</time>
      </trkpt>
      <trkpt lat="43.93607" lon="7.40155">
        <ele>953.6</ele>
        <time>1982-03-26T12:41:58Z</time>
      </trkpt>
      <trkpt lat="43.93606" lon="7.40155">
        <ele>953.3</ele>
        <time>1982-03-26T12:41:59Z</time>
      </trkpt>
      <trkpt lat="43.93602" lon="7.40156">
        <ele>953.9</ele>
        <time>1982-03-26T12:42:00Z</time>
      </trkpt>
      <trkpt lat="43.93601" lon="7.40161">
        <ele>953.8</ele>
        <time>1982-03-26T12:42:01Z</time>
      </trkpt>
      <trkpt lat="43.93601" lon="7.40161">
        <ele>953.4</ele>
        <time>1982-03-26T12:42:02Z</time>
      </trkpt>
      <trkpt lat="43.936" lon="7.40166">
        <ele>953.9</ele>
        <time>1982-03-26T12:42:04Z</time>
      </trkpt>
      <trkpt lat="43.936" lon="7.40171">
        <ele>955.2</ele>
        <time>1982-03-26T12:42:05Z</time>
      </trkpt>
      <trkpt lat="43.93599" lon="7.40172">
        <ele>955</ele>
        <time>1982-03-26T12:42:06Z</time>
      </trkpt>
      <trkpt lat="43.936" lon="7.40175">
        <ele>956</ele>
        <time>1982-03-26T12:42:07Z</time>
      </trkpt>
      <trkpt lat="43.93602" lon="7.4018">
        <ele>957.2</ele>
        <time>1982-03-26T12:42:08Z</time>
      </trkpt>
      <trkpt lat="43.93603" lon="7.40184">
        <ele>957.4</ele>
        <time>1982-03-26T12:42:09Z</time>
      </trkpt>
      <trkpt lat="43.93601" lon="7.40185">
        <ele>957.6</ele>
        <time>1982-03-26T12:42:10Z</time>
      </trkpt>
      <trkpt lat="43.93597" lon="7.40186">
        <ele>958.3</ele>
        <time>1982-03-26T12:42:11Z</time>
      </trkpt>
      <trkpt lat="43.93599" lon="7.40189">
        <ele>958.7</ele>
        <time>1982-03-26T12:42:12Z</time>
      </trkpt>
      <trkpt lat="43.93596" lon="7.40188">
        <ele>959</ele>
        <time>1982-03-26T12:42:13Z</time>
      </trkpt>
      <trkpt lat="43.93599" lon="7.40187">
        <ele>958.1</ele>
        <time>1982-03-26T12:42:14Z</time>
      </trkpt>
      <trkpt lat="43.93598" lon="7.40185">
        <ele>959.1</ele>
        <time>1982-03-26T12:42:15Z</time>
      </trkpt>
      <trkpt lat="43.936" lon="7.40185">
        <ele>960.4</ele>
        <time>1982-03-26T12:42:16Z</time>
      </trkpt>
      <trkpt lat="43.93602" lon="7.40188">
        <ele>961.9</ele>
        <time>1982-03-26T12:42:17Z</time>
      </trkpt>
      <trkpt lat="43.93596" lon="7.40191">
        <ele>961.9</ele>
        <time>1982-03-26T12:42:18Z</time>
      </trkpt>
      <trkpt lat="43.93597" lon="7.40191">
        <ele>961.3</ele>
        <time>1982-03-26T12:42:19Z</time>
      </trkpt>
      <trkpt lat="43.93598" lon="7.40202">
        <ele>962.3</ele>
        <time>1982-03-26T12:42:21Z</time>
      </trkpt>
      <trkpt lat="43.93596" lon="7.40204">
        <ele>962.2</ele>
        <time>1982-03-26T12:42:22Z</time>
      </trkpt>
      <trkpt lat="43.93593" lon="7.40205">
        <ele>961.9</ele>
        <time>1982-03-26T12:42:23Z</time>
      </trkpt>
      <trkpt lat="43.93593" lon="7.40204">
        <ele>961.4</ele>
        <time>1982-03-26T12:42:24Z</time>
      </trkpt>
      <trkpt lat="43.9359" lon="7.40205">
        <ele>962.3</ele>
        <time>1982-03-26T12:42:25Z</time>
      </trkpt>
      <trkpt lat="43.93587" lon="7.40205">
        <ele>961</ele>
        <time>1982-03-26T12:42:26Z</time>
      </trkpt>
      <trkpt lat="43.93585" lon="7.40205">
        <ele>960.3</ele>
        <time>1982-03-26T12:42:27Z</time>
      </trkpt>
      <trkpt lat="43.93586" lon="7.40214">
        <ele>960.5</ele>
        <time>1982-03-26T12:42:28Z</time>
      </trkpt>
      <trkpt lat="43.93583" lon="7.40216">
        <ele>960.1</ele>
        <time>1982-03-26T12:42:29Z</time>
      </trkpt>
      <trkpt lat="43.93585" lon="7.4022">
        <ele>960.8</ele>
        <time>1982-03-26T12:42:30Z</time>
      </trkpt>
      <trkpt lat="43.93581" lon="7.40221">
        <ele>960.8</ele>
        <time>1982-03-26T12:42:31Z</time>
      </trkpt>
      <trkpt lat="43.93575" lon="7.40221">
        <ele>961.5</ele>
        <time>1982-03-26T12:42:32Z</time>
      </trkpt>
      <trkpt lat="43.93577" lon="7.40224">
        <ele>962.9</ele>
        <time>1982-03-26T12:42:33Z</time>
      </trkpt>
      <trkpt lat="43.93578" lon="7.40227">
        <ele>963.9</ele>
        <time>1982-03-26T12:42:34Z</time>
      </trkpt>
      <trkpt lat="43.93578" lon="7.40232">
        <ele>963.4</ele>
        <time>1982-03-26T12:42:35Z</time>
      </trkpt>
      <trkpt lat="43.9358" lon="7.40236">
        <ele>964.2</ele>
        <time>1982-03-26T12:42:36Z</time>
      </trkpt>
      <trkpt lat="43.93581" lon="7.40236">
        <ele>964.2</ele>
        <time>1982-03-26T12:42:37Z</time>
      </trkpt>
      <trkpt lat="43.93582" lon="7.4024">
        <ele>964.2</ele>
        <time>1982-03-26T12:42:38Z</time>
      </trkpt>
      <trkpt lat="43.93585" lon="7.40242">
        <ele>964.9</ele>
        <time>1982-03-26T12:42:39Z</time>
      </trkpt>
      <trkpt lat="43.93584" lon="7.40245">
        <ele>965.3</ele>
        <time>1982-03-26T12:42:40Z</time>
      </trkpt>
      <trkpt lat="43.93583" lon="7.40247">
        <ele>966</ele>
        <time>1982-03-26T12:42:41Z</time>
      </trkpt>
      <trkpt lat="43.9358" lon="7.40249">
        <ele>966.7</ele>
        <time>1982-03-26T12:42:42Z</time>
      </trkpt>
      <trkpt lat="43.9358" lon="7.4025">
        <ele>967.2</ele>
        <time>1982-03-26T12:42:43Z</time>
      </trkpt>
      <trkpt lat="43.9358" lon="7.40257">
        <ele>967.8</ele>
        <time>1982-03-26T12:42:45Z</time>
      </trkpt>
      <trkpt lat="43.93579" lon="7.40258">
        <ele>967.5</ele>
        <time>1982-03-26T12:42:46Z</time>
      </trkpt>
      <trkpt lat="43.93577" lon="7.40262">
        <ele>968.9</ele>
        <time>1982-03-26T12:42:47Z</time>
      </trkpt>
      <trkpt lat="43.93573" lon="7.40268">
        <ele>969.6</ele>
        <time>1982-03-26T12:42:50Z</time>
      </trkpt>
      <trkpt lat="43.93576" lon="7.4027">
        <ele>969.6</ele>
        <time>1982-03-26T12:42:50Z</time>
      </trkpt>
      <trkpt lat="43.93574" lon="7.40271">
        <ele>970.3</ele>
        <time>1982-03-26T12:42:51Z</time>
      </trkpt>
      <trkpt lat="43.93575" lon="7.40271">
        <ele>970.6</ele>
        <time>1982-03-26T12:42:52Z</time>
      </trkpt>
      <trkpt lat="43.93574" lon="7.40273">
        <ele>970.8</ele>
        <time>1982-03-26T12:42:53Z</time>
      </trkpt>
      <trkpt lat="43.93573" lon="7.40274">
        <ele>971.3</ele>
        <time>1982-03-26T12:42:54Z</time>
      </trkpt>
      <trkpt lat="43.93572" lon="7.40276">
        <ele>972.2</ele>
        <time>1982-03-26T12:42:55Z</time>
      </trkpt>
      <trkpt lat="43.93573" lon="7.40281">
        <ele>973.6</ele>
        <time>1982-03-26T12:42:56Z</time>
      </trkpt>
      <trkpt lat="43.93572" lon="7.40285">
        <ele>974.4</ele>
        <time>1982-03-26T12:42:57Z</time>
      </trkpt>
      <trkpt lat="43.93571" lon="7.40287">
        <ele>976</ele>
        <time>1982-03-26T12:42:58Z</time>
      </trkpt>
      <trkpt lat="43.93572" lon="7.40289">
        <ele>975.4</ele>
        <time>1982-03-26T12:42:59Z</time>
      </trkpt>
      <trkpt lat="43.93571" lon="7.40289">
        <ele>975.1</ele>
        <time>1982-03-26T12:43:00Z</time>
      </trkpt>
      <trkpt lat="43.93574" lon="7.40296">
        <ele>976.3</ele>
        <time>1982-03-26T12:43:02Z</time>
      </trkpt>
      <trkpt lat="43.93571" lon="7.40298">
        <ele>976.5</ele>
        <time>1982-03-26T12:43:03Z</time>
      </trkpt>
      <trkpt lat="43.93571" lon="7.40302">
        <ele>976.8</ele>
        <time>1982-03-26T12:43:04Z</time>
      </trkpt>
      <trkpt lat="43.93571" lon="7.40302">
        <ele>975.4</ele>
        <time>1982-03-26T12:43:05Z</time>
      </trkpt>
      <trkpt lat="43.93573" lon="7.40306">
        <ele>976.2</ele>
        <time>1982-03-26T12:43:06Z</time>
      </trkpt>
      <trkpt lat="43.93572" lon="7.40306">
        <ele>975.9</ele>
        <time>1982-03-26T12:43:07Z</time>
      </trkpt>
      <trkpt lat="43.93572" lon="7.40308">
        <ele>976.7</ele>
        <time>1982-03-26T12:43:08Z</time>
      </trkpt>
      <trkpt lat="43.93574" lon="7.40309">
        <ele>976.1</ele>
        <time>1982-03-26T12:43:09Z</time>
      </trkpt>
      <trkpt lat="43.93575" lon="7.40312">
        <ele>976.3</ele>
        <time>1982-03-26T12:43:10Z</time>
      </trkpt>
      <trkpt lat="43.9357" lon="7.40313">
        <ele>975.3</ele>
        <time>1982-03-26T12:43:11Z</time>
      </trkpt>
      <trkpt lat="43.9357" lon="7.40314">
        <ele>976.2</ele>
        <time>1982-03-26T12:43:12Z</time>
      </trkpt>
      <trkpt lat="43.93563" lon="7.40315">
        <ele>974.8</ele>
        <time>1982-03-26T12:43:13Z</time>
      </trkpt>
      <trkpt lat="43.93563" lon="7.40316">
        <ele>975.9</ele>
        <time>1982-03-26T12:43:14Z</time>
      </trkpt>
      <trkpt lat="43.93566" lon="7.40323">
        <ele>976.6</ele>
        <time>1982-03-26T12:43:15Z</time>
      </trkpt>
      <trkpt lat="43.93565" lon="7.40325">
        <ele>975.8</ele>
        <time>1982-03-26T12:43:16Z</time>
      </trkpt>
      <trkpt lat="43.93567" lon="7.40328">
        <ele>976</ele>
        <time>1982-03-26T12:43:17Z</time>
      </trkpt>
      <trkpt lat="43.93569" lon="7.40333">
        <ele>976.8</ele>
        <time>1982-03-26T12:43:18Z</time>
      </trkpt>
      <trkpt lat="43.93564" lon="7.40335">
        <ele>976.6</ele>
        <time>1982-03-26T12:43:19Z</time>
      </trkpt>
      <trkpt lat="43.93565" lon="7.40339">
        <ele>977.4</ele>
        <time>1982-03-26T12:43:20Z</time>
      </trkpt>
      <trkpt lat="43.93562" lon="7.40345">
        <ele>978.6</ele>
        <time>1982-03-26T12:43:21Z</time>
      </trkpt>
      <trkpt lat="43.93556" lon="7.40347">
        <ele>979.7</ele>
        <time>1982-03-26T12:43:22Z</time>
      </trkpt>
      <trkpt lat="43.93558" lon="7.40351">
        <ele>979.5</ele>
        <time>1982-03-26T12:43:23Z</time>
      </trkpt>
      <trkpt lat="43.93559" lon="7.4035">
        <ele>978.8</ele>
        <time>1982-03-26T12:43:24Z</time>
      </trkpt>
      <trkpt lat="43.93556" lon="7.40353">
        <ele>978</ele>
        <time>1982-03-26T12:43:25Z</time>
      </trkpt>
      <trkpt lat="43.93556" lon="7.40356">
        <ele>977.8</ele>
        <time>1982-03-26T12:43:26Z</time>
      </trkpt>
      <trkpt lat="43.93556" lon="7.40357">
        <ele>977.8</ele>
        <time>1982-03-26T12:43:27Z</time>
      </trkpt>
      <trkpt lat="43.93553" lon="7.40361">
        <ele>976.9</ele>
        <time>1982-03-26T12:43:29Z</time>
      </trkpt>
      <trkpt lat="43.93555" lon="7.40365">
        <ele>977</ele>
        <time>1982-03-26T12:43:30Z</time>
      </trkpt>
      <trkpt lat="43.93557" lon="7.4037">
        <ele>977.8</ele>
        <time>1982-03-26T12:43:31Z</time>
      </trkpt>
      <trkpt lat="43.93558" lon="7.40375">
        <ele>977.8</ele>
        <time>1982-03-26T12:43:32Z</time>
      </trkpt>
      <trkpt lat="43.9356" lon="7.40379">
        <ele>980.7</ele>
        <time>1982-03-26T12:43:33Z</time>
      </trkpt>
      <trkpt lat="43.93559" lon="7.40384">
        <ele>981.4</ele>
        <time>1982-03-26T12:43:34Z</time>
      </trkpt>
      <trkpt lat="43.93559" lon="7.40386">
        <ele>982.4</ele>
        <time>1982-03-26T12:43:35Z</time>
      </trkpt>
      <trkpt lat="43.93557" lon="7.40389">
        <ele>981.8</ele>
        <time>1982-03-26T12:43:36Z</time>
      </trkpt>
      <trkpt lat="43.93557" lon="7.40392">
        <ele>982.5</ele>
        <time>1982-03-26T12:43:37Z</time>
      </trkpt>
      <trkpt lat="43.93555" lon="7.40393">
        <ele>981.1</ele>
        <time>1982-03-26T12:43:38Z</time>
      </trkpt>
      <trkpt lat="43.93557" lon="7.40393">
        <ele>979.3</ele>
        <time>1982-03-26T12:43:39Z</time>
      </trkpt>
      <trkpt lat="43.93556" lon="7.40396">
        <ele>978.9</ele>
        <time>1982-03-26T12:43:40Z</time>
      </trkpt>
      <trkpt lat="43.93556" lon="7.40395">
        <ele>978.5</ele>
        <time>1982-03-26T12:43:41Z</time>
      </trkpt>
      <trkpt lat="43.93555" lon="7.40403">
        <ele>977.8</ele>
        <time>1982-03-26T12:43:43Z</time>
      </trkpt>
      <trkpt lat="43.93554" lon="7.40406">
        <ele>979</ele>
        <time>1982-03-26T12:43:44Z</time>
      </trkpt>
      <trkpt lat="43.9355" lon="7.40408">
        <ele>978.4</ele>
        <time>1982-03-26T12:43:45Z</time>
      </trkpt>
      <trkpt lat="43.93555" lon="7.40414">
        <ele>978.6</ele>
        <time>1982-03-26T12:43:46Z</time>
      </trkpt>
      <trkpt lat="43.93554" lon="7.40419">
        <ele>979.2</ele>
        <time>1982-03-26T12:43:47Z</time>
      </trkpt>
      <trkpt lat="43.93556" lon="7.40425">
        <ele>981.3</ele>
        <time>1982-03-26T12:43:48Z</time>
      </trkpt>
      <trkpt lat="43.93555" lon="7.40426">
        <ele>982.1</ele>
        <time>1982-03-26T12:43:49Z</time>
      </trkpt>
      <trkpt lat="43.93553" lon="7.40427">
        <ele>983.4</ele>
        <time>1982-03-26T12:43:50Z</time>
      </trkpt>
      <trkpt lat="43.93553" lon="7.40431">
        <ele>983.3</ele>
        <time>1982-03-26T12:43:51Z</time>
      </trkpt>
      <trkpt lat="43.93558" lon="7.40439">
        <ele>985.4</ele>
        <time>1982-03-26T12:43:52Z</time>
      </trkpt>
      <trkpt lat="43.93561" lon="7.40441">
        <ele>989</ele>
        <time>1982-03-26T12:43:53Z</time>
      </trkpt>
      <trkpt lat="43.93563" lon="7.40445">
        <ele>990.5</ele>
        <time>1982-03-26T12:43:54Z</time>
      </trkpt>
      <trkpt lat="43.93561" lon="7.40445">
        <ele>990.4</ele>
        <time>1982-03-26T12:43:55Z</time>
      </trkpt>
      <trkpt lat="43.93557" lon="7.40449">
        <ele>989.7</ele>
        <time>1982-03-26T12:43:56Z</time>
      </trkpt>
      <trkpt lat="43.93559" lon="7.40451">
        <ele>989.1</ele>
        <time>1982-03-26T12:43:57Z</time>
      </trkpt>
      <trkpt lat="43.93561" lon="7.40453">
        <ele>989.2</ele>
        <time>1982-03-26T12:43:58Z</time>
      </trkpt>
      <trkpt lat="43.9356" lon="7.40454">
        <ele>990.2</ele>
        <time>1982-03-26T12:43:59Z</time>
      </trkpt>
      <trkpt lat="43.93558" lon="7.40455">
        <ele>990.4</ele>
        <time>1982-03-26T12:44:00Z</time>
      </trkpt>
      <trkpt lat="43.9356" lon="7.40459">
        <ele>991.1</ele>
        <time>1982-03-26T12:44:01Z</time>
      </trkpt>
      <trkpt lat="43.93559" lon="7.40463">
        <ele>991.9</ele>
        <time>1982-03-26T12:44:02Z</time>
      </trkpt>
      <trkpt lat="43.93561" lon="7.40467">
        <ele>992.1</ele>
        <time>1982-03-26T12:44:03Z</time>
      </trkpt>
      <trkpt lat="43.93563" lon="7.40467">
        <ele>991.6</ele>
        <time>1982-03-26T12:44:04Z</time>
      </trkpt>
      <trkpt lat="43.93565" lon="7.4047">
        <ele>991.2</ele>
        <time>1982-03-26T12:44:05Z</time>
      </trkpt>
      <trkpt lat="43.93568" lon="7.4047">
        <ele>990.9</ele>
        <time>1982-03-26T12:44:06Z</time>
      </trkpt>
      <trkpt lat="43.9357" lon="7.40473">
        <ele>991</ele>
        <time>1982-03-26T12:44:07Z</time>
      </trkpt>
      <trkpt lat="43.93569" lon="7.40477">
        <ele>990.5</ele>
        <time>1982-03-26T12:44:08Z</time>
      </trkpt>
      <trkpt lat="43.93566" lon="7.40478">
        <ele>990.2</ele>
        <time>1982-03-26T12:44:09Z</time>
      </trkpt>
      <trkpt lat="43.93565" lon="7.40482">
        <ele>990.6</ele>
        <time>1982-03-26T12:44:10Z</time>
      </trkpt>
      <trkpt lat="43.93565" lon="7.40485">
        <ele>990.6</ele>
        <time>1982-03-26T12:44:11Z</time>
      </trkpt>
      <trkpt lat="43.93565" lon="7.40489">
        <ele>991.9</ele>
        <time>1982-03-26T12:44:12Z</time>
      </trkpt>
      <trkpt lat="43.9357" lon="7.4049">
        <ele>991.9</ele>
        <time>1982-03-26T12:44:13Z</time>
      </trkpt>
      <trkpt lat="43.93572" lon="7.40495">
        <ele>993</ele>
        <time>1982-03-26T12:44:14Z</time>
      </trkpt>
      <trkpt lat="43.93573" lon="7.40494">
        <ele>991.5</ele>
        <time>1982-03-26T12:44:15Z</time>
      </trkpt>
      <trkpt lat="43.93575" lon="7.40494">
        <ele>991.3</ele>
        <time>1982-03-26T12:44:16Z</time>
      </trkpt>
      <trkpt lat="43.93576" lon="7.40496">
        <ele>991</ele>
        <time>1982-03-26T12:44:17Z</time>
      </trkpt>
      <trkpt lat="43.93582" lon="7.40498">
        <ele>990.4</ele>
        <time>1982-03-26T12:44:18Z</time>
      </trkpt>
      <trkpt lat="43.93582" lon="7.405">
        <ele>990.4</ele>
        <time>1982-03-26T12:44:19Z</time>
      </trkpt>
      <trkpt lat="43.93582" lon="7.40504">
        <ele>989.9</ele>
        <time>1982-03-26T12:44:20Z</time>
      </trkpt>
      <trkpt lat="43.9358" lon="7.40505">
        <ele>989.6</ele>
        <time>1982-03-26T12:44:21Z</time>
      </trkpt>
      <trkpt lat="43.93579" lon="7.40508">
        <ele>989.8</ele>
        <time>1982-03-26T12:44:22Z</time>
      </trkpt>
      <trkpt lat="43.93579" lon="7.40512">
        <ele>990.4</ele>
        <time>1982-03-26T12:44:23Z</time>
      </trkpt>
      <trkpt lat="43.9358" lon="7.40513">
        <ele>990</ele>
        <time>1982-03-26T12:44:24Z</time>
      </trkpt>
      <trkpt lat="43.93578" lon="7.40516">
        <ele>990.1</ele>
        <time>1982-03-26T12:44:25Z</time>
      </trkpt>
      <trkpt lat="43.93576" lon="7.40521">
        <ele>990.7</ele>
        <time>1982-03-26T12:44:26Z</time>
      </trkpt>
      <trkpt lat="43.93573" lon="7.40523">
        <ele>990.6</ele>
        <time>1982-03-26T12:44:27Z</time>
      </trkpt>
      <trkpt lat="43.93574" lon="7.40523">
        <ele>989.9</ele>
        <time>1982-03-26T12:44:28Z</time>
      </trkpt>
      <trkpt lat="43.93575" lon="7.40527">
        <ele>989.5</ele>
        <time>1982-03-26T12:44:29Z</time>
      </trkpt>
      <trkpt lat="43.93575" lon="7.4053">
        <ele>989.5</ele>
        <time>1982-03-26T12:44:30Z</time>
      </trkpt>
      <trkpt lat="43.93574" lon="7.40531">
        <ele>987.8</ele>
        <time>1982-03-26T12:44:31Z</time>
      </trkpt>
      <trkpt lat="43.93572" lon="7.40533">
        <ele>987.9</ele>
        <time>1982-03-26T12:44:32Z</time>
      </trkpt>
      <trkpt lat="43.93573" lon="7.40537">
        <ele>988.8</ele>
        <time>1982-03-26T12:44:33Z</time>
      </trkpt>
      <trkpt lat="43.93573" lon="7.40539">
        <ele>989.3</ele>
        <time>1982-03-26T12:44:34Z</time>
      </trkpt>
      <trkpt lat="43.93574" lon="7.40542">
        <ele>989.8</ele>
        <time>1982-03-26T12:44:35Z</time>
      </trkpt>
      <trkpt lat="43.93574" lon="7.40541">
        <ele>988.1</ele>
        <time>1982-03-26T12:44:36Z</time>
      </trkpt>
      <trkpt lat="43.93575" lon="7.40542">
        <ele>988</ele>
        <time>1982-03-26T12:44:37Z</time>
      </trkpt>
      <trkpt lat="43.9358" lon="7.40544">
        <ele>988.5</ele>
        <time>1982-03-26T12:44:39Z</time>
      </trkpt>
      <trkpt lat="43.93579" lon="7.40546">
        <ele>988.2</ele>
        <time>1982-03-26T12:44:40Z</time>
      </trkpt>
      <trkpt lat="43.93579" lon="7.40548">
        <ele>988.2</ele>
        <time>1982-03-26T12:44:41Z</time>
      </trkpt>
      <trkpt lat="43.93581" lon="7.40549">
        <ele>989.4</ele>
        <time>1982-03-26T12:44:42Z</time>
      </trkpt>
      <trkpt lat="43.9358" lon="7.40552">
        <ele>988.3</ele>
        <time>1982-03-26T12:44:43Z</time>
      </trkpt>
      <trkpt lat="43.93581" lon="7.40553">
        <ele>988.2</ele>
        <time>1982-03-26T12:44:44Z</time>
      </trkpt>
      <trkpt lat="43.93579" lon="7.40554">
        <ele>988.1</ele>
        <time>1982-03-26T12:44:45Z</time>
      </trkpt>
      <trkpt lat="43.93579" lon="7.40556">
        <ele>987.5</ele>
        <time>1982-03-26T12:44:46Z</time>
      </trkpt>
      <trkpt lat="43.9358" lon="7.40557">
        <ele>988.2</ele>
        <time>1982-03-26T12:44:47Z</time>
      </trkpt>
      <trkpt lat="43.9358" lon="7.4056">
        <ele>988.3</ele>
        <time>1982-03-26T12:44:48Z</time>
      </trkpt>
      <trkpt lat="43.9358" lon="7.40565">
        <ele>988.6</ele>
        <time>1982-03-26T12:44:49Z</time>
      </trkpt>
      <trkpt lat="43.93582" lon="7.40564">
        <ele>989.9</ele>
        <time>1982-03-26T12:44:50Z</time>
      </trkpt>
      <trkpt lat="43.93583" lon="7.40564">
        <ele>989.6</ele>
        <time>1982-03-26T12:44:51Z</time>
      </trkpt>
      <trkpt lat="43.93583" lon="7.40564">
        <ele>989.6</ele>
        <time>1982-03-26T12:44:51Z</time>
      </trkpt>
      <trkpt lat="43.93583" lon="7.40564">
        <ele>990.2</ele>
        <time>1982-03-26T12:44:53Z</time>
      </trkpt>
      <trkpt lat="43.93583" lon="7.40564">
        <ele>990.2</ele>
        <time>1982-03-26T12:44:53Z</time>
      </trkpt>
      <trkpt lat="43.93584" lon="7.40564">
        <ele>992</ele>
        <time>1982-03-26T12:44:55Z</time>
      </trkpt>
      <trkpt lat="43.93584" lon="7.40564">
        <ele>992.9</ele>
        <time>1982-03-26T12:44:56Z</time>
      </trkpt>
      <trkpt lat="43.93585" lon="7.40564">
        <ele>993.8</ele>
        <time>1982-03-26T12:44:57Z</time>
      </trkpt>
      <trkpt lat="43.93585" lon="7.40564">
        <ele>993.8</ele>
        <time>1982-03-26T12:44:57Z</time>
      </trkpt>
      <trkpt lat="43.93586" lon="7.40564">
        <ele>994.5</ele>
        <time>1982-03-26T12:44:59Z</time>
      </trkpt>
      <trkpt lat="43.93586" lon="7.40564">
        <ele>995.6</ele>
        <time>1982-03-26T12:45:00Z</time>
      </trkpt>
      <trkpt lat="43.93586" lon="7.40564">
        <ele>995.8</ele>
        <time>1982-03-26T12:45:01Z</time>
      </trkpt>
      <trkpt lat="43.93586" lon="7.40564">
        <ele>995.8</ele>
        <time>1982-03-26T12:45:22Z</time>
      </trkpt>
      <trkpt lat="43.93586" lon="7.40564">
        <ele>996.2</ele>
        <time>1982-03-26T12:45:24Z</time>
      </trkpt>
      <trkpt lat="43.93586" lon="7.40564">
        <ele>996.2</ele>
        <time>1982-03-26T12:45:39Z</time>
      </trkpt>
      <trkpt lat="43.93587" lon="7.40564">
        <ele>996.7</ele>
        <time>1982-03-26T12:45:40Z</time>
      </trkpt>
      <trkpt lat="43.93587" lon="7.40564">
        <ele>996.7</ele>
        <time>1982-03-26T12:45:44Z</time>
      </trkpt>
      <trkpt lat="43.93589" lon="7.4057">
        <ele>997.5</ele>
        <time>1982-03-26T12:45:46Z</time>
      </trkpt>
      <trkpt lat="43.93587" lon="7.40574">
        <ele>996.9</ele>
        <time>1982-03-26T12:45:47Z</time>
      </trkpt>
      <trkpt lat="43.93587" lon="7.40574">
        <ele>997.1</ele>
        <time>1982-03-26T12:45:48Z</time>
      </trkpt>
      <trkpt lat="43.93589" lon="7.4058">
        <ele>995.6</ele>
        <time>1982-03-26T12:45:50Z</time>
      </trkpt>
      <trkpt lat="43.93588" lon="7.40584">
        <ele>994.5</ele>
        <time>1982-03-26T12:45:51Z</time>
      </trkpt>
      <trkpt lat="43.93588" lon="7.40588">
        <ele>993.9</ele>
        <time>1982-03-26T12:45:52Z</time>
      </trkpt>
      <trkpt lat="43.93592" lon="7.40592">
        <ele>996.3</ele>
        <time>1982-03-26T12:45:53Z</time>
      </trkpt>
      <trkpt lat="43.93594" lon="7.40595">
        <ele>995.2</ele>
        <time>1982-03-26T12:45:54Z</time>
      </trkpt>
      <trkpt lat="43.93594" lon="7.40598">
        <ele>993.4</ele>
        <time>1982-03-26T12:45:55Z</time>
      </trkpt>
      <trkpt lat="43.93594" lon="7.406">
        <ele>992.3</ele>
        <time>1982-03-26T12:45:56Z</time>
      </trkpt>
      <trkpt lat="43.93595" lon="7.40603">
        <ele>991.9</ele>
        <time>1982-03-26T12:45:57Z</time>
      </trkpt>
      <trkpt lat="43.93593" lon="7.40604">
        <ele>989.5</ele>
        <time>1982-03-26T12:45:58Z</time>
      </trkpt>
      <trkpt lat="43.93593" lon="7.40605">
        <ele>989.7</ele>
        <time>1982-03-26T12:45:59Z</time>
      </trkpt>
      <trkpt lat="43.93594" lon="7.40612">
        <ele>989</ele>
        <time>1982-03-26T12:46:01Z</time>
      </trkpt>
      <trkpt lat="43.93596" lon="7.40615">
        <ele>988.6</ele>
        <time>1982-03-26T12:46:02Z</time>
      </trkpt>
      <trkpt lat="43.93598" lon="7.40618">
        <ele>988.4</ele>
        <time>1982-03-26T12:46:03Z</time>
      </trkpt>
      <trkpt lat="43.93597" lon="7.4062">
        <ele>985.3</ele>
        <time>1982-03-26T12:46:04Z</time>
      </trkpt>
      <trkpt lat="43.93597" lon="7.40622">
        <ele>983.6</ele>
        <time>1982-03-26T12:46:05Z</time>
      </trkpt>
      <trkpt lat="43.93597" lon="7.40624">
        <ele>982</ele>
        <time>1982-03-26T12:46:06Z</time>
      </trkpt>
      <trkpt lat="43.93597" lon="7.40626">
        <ele>981.5</ele>
        <time>1982-03-26T12:46:07Z</time>
      </trkpt>
      <trkpt lat="43.93598" lon="7.40627">
        <ele>981</ele>
        <time>1982-03-26T12:46:08Z</time>
      </trkpt>
      <trkpt lat="43.93598" lon="7.40629">
        <ele>980.2</ele>
        <time>1982-03-26T12:46:09Z</time>
      </trkpt>
      <trkpt lat="43.93601" lon="7.4063">
        <ele>980.1</ele>
        <time>1982-03-26T12:46:10Z</time>
      </trkpt>
      <trkpt lat="43.93601" lon="7.40632">
        <ele>978.8</ele>
        <time>1982-03-26T12:46:11Z</time>
      </trkpt>
      <trkpt lat="43.93601" lon="7.40633">
        <ele>978.7</ele>
        <time>1982-03-26T12:46:12Z</time>
      </trkpt>
      <trkpt lat="43.93603" lon="7.40634">
        <ele>980</ele>
        <time>1982-03-26T12:46:13Z</time>
      </trkpt>
      <trkpt lat="43.93604" lon="7.40636">
        <ele>980.7</ele>
        <time>1982-03-26T12:46:14Z</time>
      </trkpt>
      <trkpt lat="43.93606" lon="7.40638">
        <ele>980.2</ele>
        <time>1982-03-26T12:46:15Z</time>
      </trkpt>
      <trkpt lat="43.93607" lon="7.4064">
        <ele>979.8</ele>
        <time>1982-03-26T12:46:16Z</time>
      </trkpt>
      <trkpt lat="43.93608" lon="7.40642">
        <ele>979.1</ele>
        <time>1982-03-26T12:46:17Z</time>
      </trkpt>
      <trkpt lat="43.93609" lon="7.40643">
        <ele>978.3</ele>
        <time>1982-03-26T12:46:18Z</time>
      </trkpt>
      <trkpt lat="43.9361" lon="7.40645">
        <ele>978.2</ele>
        <time>1982-03-26T12:46:19Z</time>
      </trkpt>
      <trkpt lat="43.93612" lon="7.40646">
        <ele>979</ele>
        <time>1982-03-26T12:46:20Z</time>
      </trkpt>
      <trkpt lat="43.93613" lon="7.40648">
        <ele>979.2</ele>
        <time>1982-03-26T12:46:21Z</time>
      </trkpt>
      <trkpt lat="43.93614" lon="7.40649">
        <ele>980.2</ele>
        <time>1982-03-26T12:46:22Z</time>
      </trkpt>
      <trkpt lat="43.93616" lon="7.40651">
        <ele>980.1</ele>
        <time>1982-03-26T12:46:23Z</time>
      </trkpt>
      <trkpt lat="43.93617" lon="7.40653">
        <ele>980</ele>
        <time>1982-03-26T12:46:24Z</time>
      </trkpt>
      <trkpt lat="43.93618" lon="7.40654">
        <ele>979.5</ele>
        <time>1982-03-26T12:46:25Z</time>
      </trkpt>
      <trkpt lat="43.93619" lon="7.40656">
        <ele>980.1</ele>
        <time>1982-03-26T12:46:26Z</time>
      </trkpt>
      <trkpt lat="43.9362" lon="7.40657">
        <ele>979.7</ele>
        <time>1982-03-26T12:46:27Z</time>
      </trkpt>
      <trkpt lat="43.93621" lon="7.40658">
        <ele>980.1</ele>
        <time>1982-03-26T12:46:28Z</time>
      </trkpt>
      <trkpt lat="43.93621" lon="7.4066">
        <ele>979.5</ele>
        <time>1982-03-26T12:46:29Z</time>
      </trkpt>
      <trkpt lat="43.93622" lon="7.40661">
        <ele>979.5</ele>
        <time>1982-03-26T12:46:30Z</time>
      </trkpt>
      <trkpt lat="43.93623" lon="7.40663">
        <ele>979.4</ele>
        <time>1982-03-26T12:46:31Z</time>
      </trkpt>
      <trkpt lat="43.93624" lon="7.40664">
        <ele>979.1</ele>
        <time>1982-03-26T12:46:32Z</time>
      </trkpt>
      <trkpt lat="43.93626" lon="7.40666">
        <ele>980.1</ele>
        <time>1982-03-26T12:46:33Z</time>
      </trkpt>
      <trkpt lat="43.93626" lon="7.40667">
        <ele>979.5</ele>
        <time>1982-03-26T12:46:34Z</time>
      </trkpt>
      <trkpt lat="43.93627" lon="7.40669">
        <ele>979.2</ele>
        <time>1982-03-26T12:46:35Z</time>
      </trkpt>
      <trkpt lat="43.93628" lon="7.4067">
        <ele>978.6</ele>
        <time>1982-03-26T12:46:36Z</time>
      </trkpt>
      <trkpt lat="43.93629" lon="7.40671">
        <ele>978.6</ele>
        <time>1982-03-26T12:46:37Z</time>
      </trkpt>
      <trkpt lat="43.9363" lon="7.40673">
        <ele>978.6</ele>
        <time>1982-03-26T12:46:38Z</time>
      </trkpt>
      <trkpt lat="43.93631" lon="7.40674">
        <ele>978.2</ele>
        <time>1982-03-26T12:46:39Z</time>
      </trkpt>
      <trkpt lat="43.93632" lon="7.40675">
        <ele>978.1</ele>
        <time>1982-03-26T12:46:40Z</time>
      </trkpt>
      <trkpt lat="43.93633" lon="7.40677">
        <ele>977.7</ele>
        <time>1982-03-26T12:46:41Z</time>
      </trkpt>
      <trkpt lat="43.93635" lon="7.40679">
        <ele>977.8</ele>
        <time>1982-03-26T12:46:42Z</time>
      </trkpt>
      <trkpt lat="43.93636" lon="7.4068">
        <ele>977.9</ele>
        <time>1982-03-26T12:46:43Z</time>
      </trkpt>
      <trkpt lat="43.93637" lon="7.40681">
        <ele>977.9</ele>
        <time>1982-03-26T12:46:44Z</time>
      </trkpt>
      <trkpt lat="43.93639" lon="7.40683">
        <ele>978</ele>
        <time>1982-03-26T12:46:45Z</time>
      </trkpt>
      <trkpt lat="43.9364" lon="7.40685">
        <ele>978.3</ele>
        <time>1982-03-26T12:46:46Z</time>
      </trkpt>
      <trkpt lat="43.93642" lon="7.40686">
        <ele>978.4</ele>
        <time>1982-03-26T12:46:47Z</time>
      </trkpt>
      <trkpt lat="43.93643" lon="7.40688">
        <ele>978.6</ele>
        <time>1982-03-26T12:46:48Z</time>
      </trkpt>
      <trkpt lat="43.93644" lon="7.40689">
        <ele>978.6</ele>
        <time>1982-03-26T12:46:49Z</time>
      </trkpt>
      <trkpt lat="43.93645" lon="7.4069">
        <ele>978.6</ele>
        <time>1982-03-26T12:46:50Z</time>
      </trkpt>
      <trkpt lat="43.93646" lon="7.40692">
        <ele>978.4</ele>
        <time>1982-03-26T12:46:51Z</time>
      </trkpt>
      <trkpt lat="43.93648" lon="7.40693">
        <ele>978.8</ele>
        <time>1982-03-26T12:46:52Z</time>
      </trkpt>
      <trkpt lat="43.93649" lon="7.40695">
        <ele>979</ele>
        <time>1982-03-26T12:46:53Z</time>
      </trkpt>
      <trkpt lat="43.9365" lon="7.40696">
        <ele>979</ele>
        <time>1982-03-26T12:46:54Z</time>
      </trkpt>
      <trkpt lat="43.93651" lon="7.40698">
        <ele>979.1</ele>
        <time>1982-03-26T12:46:55Z</time>
      </trkpt>
      <trkpt lat="43.93652" lon="7.407">
        <ele>979.5</ele>
        <time>1982-03-26T12:46:56Z</time>
      </trkpt>
      <trkpt lat="43.93653" lon="7.40702">
        <ele>979.7</ele>
        <time>1982-03-26T12:46:57Z</time>
      </trkpt>
      <trkpt lat="43.93653" lon="7.40704">
        <ele>979.9</ele>
        <time>1982-03-26T12:46:58Z</time>
      </trkpt>
      <trkpt lat="43.93654" lon="7.40706">
        <ele>980.1</ele>
        <time>1982-03-26T12:46:59Z</time>
      </trkpt>
      <trkpt lat="43.93655" lon="7.40708">
        <ele>980.5</ele>
        <time>1982-03-26T12:47:00Z</time>
      </trkpt>
      <trkpt lat="43.93655" lon="7.4071">
        <ele>980.8</ele>
        <time>1982-03-26T12:47:01Z</time>
      </trkpt>
      <trkpt lat="43.93655" lon="7.40712">
        <ele>981.2</ele>
        <time>1982-03-26T12:47:02Z</time>
      </trkpt>
      <trkpt lat="43.93655" lon="7.40714">
        <ele>981.4</ele>
        <time>1982-03-26T12:47:03Z</time>
      </trkpt>
      <trkpt lat="43.93654" lon="7.40716">
        <ele>981.5</ele>
        <time>1982-03-26T12:47:04Z</time>
      </trkpt>
      <trkpt lat="43.93654" lon="7.40719">
        <ele>981.8</ele>
        <time>1982-03-26T12:47:05Z</time>
      </trkpt>
      <trkpt lat="43.93654" lon="7.40721">
        <ele>982.2</ele>
        <time>1982-03-26T12:47:06Z</time>
      </trkpt>
      <trkpt lat="43.93653" lon="7.40722">
        <ele>982.4</ele>
        <time>1982-03-26T12:47:07Z</time>
      </trkpt>
      <trkpt lat="43.93651" lon="7.40723">
        <ele>982.5</ele>
        <time>1982-03-26T12:47:08Z</time>
      </trkpt>
      <trkpt lat="43.9365" lon="7.40724">
        <ele>982.6</ele>
        <time>1982-03-26T12:47:09Z</time>
      </trkpt>
      <trkpt lat="43.93649" lon="7.40724">
        <ele>982.7</ele>
        <time>1982-03-26T12:47:10Z</time>
      </trkpt>
      <trkpt lat="43.93648" lon="7.40724">
        <ele>982.5</ele>
        <time>1982-03-26T12:47:11Z</time>
      </trkpt>
      <trkpt lat="43.93647" lon="7.40724">
        <ele>982.3</ele>
        <time>1982-03-26T12:47:12Z</time>
      </trkpt>
      <trkpt lat="43.93645" lon="7.40723">
        <ele>982.7</ele>
        <time>1982-03-26T12:47:13Z</time>
      </trkpt>
      <trkpt lat="43.93645" lon="7.40723">
        <ele>982.7</ele>
        <time>1982-03-26T12:47:14Z</time>
      </trkpt>
      <trkpt lat="43.93643" lon="7.40722">
        <ele>982.6</ele>
        <time>1982-03-26T12:47:16Z</time>
      </trkpt>
      <trkpt lat="43.93642" lon="7.40721">
        <ele>982.8</ele>
        <time>1982-03-26T12:47:17Z</time>
      </trkpt>
      <trkpt lat="43.93642" lon="7.4072">
        <ele>982.8</ele>
        <time>1982-03-26T12:47:19Z</time>
      </trkpt>
      <trkpt lat="43.93641" lon="7.40719">
        <ele>982.8</ele>
        <time>1982-03-26T12:47:21Z</time>
      </trkpt>
      <trkpt lat="43.93641" lon="7.40719">
        <ele>982.7</ele>
        <time>1982-03-26T12:47:22Z</time>
      </trkpt>
      <trkpt lat="43.93641" lon="7.40719">
        <ele>982.7</ele>
        <time>1982-03-26T12:47:26Z</time>
      </trkpt>
      <trkpt lat="43.9364" lon="7.4072">
        <ele>982</ele>
        <time>1982-03-26T12:47:28Z</time>
      </trkpt>
      <trkpt lat="43.9364" lon="7.40719">
        <ele>982.4</ele>
        <time>1982-03-26T12:47:29Z</time>
      </trkpt>
      <trkpt lat="43.9364" lon="7.40719">
        <ele>982.4</ele>
        <time>1982-03-26T12:48:01Z</time>
      </trkpt>
      <trkpt lat="43.93639" lon="7.40719">
        <ele>982.5</ele>
        <time>1982-03-26T12:48:03Z</time>
      </trkpt>
      <trkpt lat="43.93639" lon="7.40719">
        <ele>982.7</ele>
        <time>1982-03-26T12:48:04Z</time>
      </trkpt>
      <trkpt lat="43.93639" lon="7.40719">
        <ele>982.7</ele>
        <time>1982-03-26T12:52:19Z</time>
      </trkpt>
      <trkpt lat="43.93639" lon="7.40718">
        <ele>984</ele>
        <time>1982-03-26T12:52:21Z</time>
      </trkpt>
      <trkpt lat="43.9364" lon="7.40719">
        <ele>983.8</ele>
        <time>1982-03-26T12:52:22Z</time>
      </trkpt>
      <trkpt lat="43.9364" lon="7.40719">
        <ele>983.8</ele>
        <time>1982-03-26T12:52:26Z</time>
      </trkpt>
      <trkpt lat="43.9364" lon="7.40719">
        <ele>983.6</ele>
        <time>1982-03-26T12:52:28Z</time>
      </trkpt>
      <trkpt lat="43.9364" lon="7.40719">
        <ele>983.6</ele>
        <time>1982-03-26T12:52:28Z</time>
      </trkpt>
      <trkpt lat="43.93641" lon="7.40719">
        <ele>983.4</ele>
        <time>1982-03-26T12:52:30Z</time>
      </trkpt>
      <trkpt lat="43.93641" lon="7.40719">
        <ele>983.4</ele>
        <time>1982-03-26T12:52:31Z</time>
      </trkpt>
      <trkpt lat="43.93642" lon="7.4072">
        <ele>983.1</ele>
        <time>1982-03-26T12:52:33Z</time>
      </trkpt>
      <trkpt lat="43.93643" lon="7.40722">
        <ele>982.6</ele>
        <time>1982-03-26T12:52:34Z</time>
      </trkpt>
      <trkpt lat="43.93646" lon="7.40723">
        <ele>982.3</ele>
        <time>1982-03-26T12:52:35Z</time>
      </trkpt>
      <trkpt lat="43.93649" lon="7.40723">
        <ele>981.6</ele>
        <time>1982-03-26T12:52:36Z</time>
      </trkpt>
      <trkpt lat="43.93651" lon="7.40723">
        <ele>981.9</ele>
        <time>1982-03-26T12:52:37Z</time>
      </trkpt>
      <trkpt lat="43.93653" lon="7.40724">
        <ele>982</ele>
        <time>1982-03-26T12:52:38Z</time>
      </trkpt>
      <trkpt lat="43.93655" lon="7.40725">
        <ele>981.8</ele>
        <time>1982-03-26T12:52:39Z</time>
      </trkpt>
      <trkpt lat="43.93656" lon="7.40727">
        <ele>981.3</ele>
        <time>1982-03-26T12:52:40Z</time>
      </trkpt>
      <trkpt lat="43.93658" lon="7.4073">
        <ele>981.3</ele>
        <time>1982-03-26T12:52:41Z</time>
      </trkpt>
      <trkpt lat="43.93659" lon="7.40733">
        <ele>980.3</ele>
        <time>1982-03-26T12:52:42Z</time>
      </trkpt>
      <trkpt lat="43.9366" lon="7.40737">
        <ele>979.8</ele>
        <time>1982-03-26T12:52:43Z</time>
      </trkpt>
      <trkpt lat="43.93662" lon="7.4074">
        <ele>979.2</ele>
        <time>1982-03-26T12:52:44Z</time>
      </trkpt>
      <trkpt lat="43.93665" lon="7.40743">
        <ele>978.5</ele>
        <time>1982-03-26T12:52:45Z</time>
      </trkpt>
      <trkpt lat="43.93668" lon="7.40746">
        <ele>977.4</ele>
        <time>1982-03-26T12:52:46Z</time>
      </trkpt>
      <trkpt lat="43.93671" lon="7.40749">
        <ele>977.1</ele>
        <time>1982-03-26T12:52:47Z</time>
      </trkpt>
      <trkpt lat="43.93673" lon="7.40752">
        <ele>976.9</ele>
        <time>1982-03-26T12:52:48Z</time>
      </trkpt>
      <trkpt lat="43.93674" lon="7.40753">
        <ele>976.9</ele>
        <time>1982-03-26T12:52:49Z</time>
      </trkpt>
      <trkpt lat="43.93674" lon="7.40753">
        <ele>977.3</ele>
        <time>1982-03-26T12:52:50Z</time>
      </trkpt>
      <trkpt lat="43.93674" lon="7.40753">
        <ele>977.3</ele>
        <time>1982-03-26T12:53:30Z</time>
      </trkpt>
      <trkpt lat="43.93675" lon="7.40756">
        <ele>977.7</ele>
        <time>1982-03-26T12:53:32Z</time>
      </trkpt>
      <trkpt lat="43.93677" lon="7.40759">
        <ele>977</ele>
        <time>1982-03-26T12:53:33Z</time>
      </trkpt>
      <trkpt lat="43.93679" lon="7.4076">
        <ele>976.6</ele>
        <time>1982-03-26T12:53:34Z</time>
      </trkpt>
      <trkpt lat="43.93682" lon="7.40764">
        <ele>976.3</ele>
        <time>1982-03-26T12:53:35Z</time>
      </trkpt>
      <trkpt lat="43.93685" lon="7.40767">
        <ele>975.1</ele>
        <time>1982-03-26T12:53:36Z</time>
      </trkpt>
      <trkpt lat="43.93687" lon="7.40771">
        <ele>974.6</ele>
        <time>1982-03-26T12:53:37Z</time>
      </trkpt>
      <trkpt lat="43.9369" lon="7.40775">
        <ele>974.9</ele>
        <time>1982-03-26T12:53:38Z</time>
      </trkpt>
      <trkpt lat="43.93694" lon="7.40779">
        <ele>975.5</ele>
        <time>1982-03-26T12:53:39Z</time>
      </trkpt>
      <trkpt lat="43.93696" lon="7.40782">
        <ele>975.4</ele>
        <time>1982-03-26T12:53:40Z</time>
      </trkpt>
      <trkpt lat="43.93696" lon="7.40785">
        <ele>974.5</ele>
        <time>1982-03-26T12:53:41Z</time>
      </trkpt>
      <trkpt lat="43.93697" lon="7.40787">
        <ele>974.2</ele>
        <time>1982-03-26T12:53:42Z</time>
      </trkpt>
      <trkpt lat="43.93698" lon="7.40789">
        <ele>974.2</ele>
        <time>1982-03-26T12:53:43Z</time>
      </trkpt>
      <trkpt lat="43.93701" lon="7.40792">
        <ele>972.7</ele>
        <time>1982-03-26T12:53:44Z</time>
      </trkpt>
      <trkpt lat="43.93704" lon="7.40793">
        <ele>971.7</ele>
        <time>1982-03-26T12:53:45Z</time>
      </trkpt>
      <trkpt lat="43.93707" lon="7.40795">
        <ele>970.9</ele>
        <time>1982-03-26T12:53:47Z</time>
      </trkpt>
      <trkpt lat="43.9371" lon="7.40798">
        <ele>971.3</ele>
        <time>1982-03-26T12:53:47Z</time>
      </trkpt>
      <trkpt lat="43.93713" lon="7.40801">
        <ele>970.8</ele>
        <time>1982-03-26T12:53:48Z</time>
      </trkpt>
      <trkpt lat="43.93716" lon="7.40804">
        <ele>970.9</ele>
        <time>1982-03-26T12:53:49Z</time>
      </trkpt>
      <trkpt lat="43.93719" lon="7.40809">
        <ele>969.7</ele>
        <time>1982-03-26T12:53:50Z</time>
      </trkpt>
      <trkpt lat="43.93723" lon="7.40813">
        <ele>969</ele>
        <time>1982-03-26T12:53:51Z</time>
      </trkpt>
      <trkpt lat="43.93726" lon="7.40816">
        <ele>969.2</ele>
        <time>1982-03-26T12:53:52Z</time>
      </trkpt>
      <trkpt lat="43.93729" lon="7.40818">
        <ele>967.7</ele>
        <time>1982-03-26T12:53:53Z</time>
      </trkpt>
      <trkpt lat="43.93731" lon="7.40821">
        <ele>967.4</ele>
        <time>1982-03-26T12:53:54Z</time>
      </trkpt>
      <trkpt lat="43.93734" lon="7.40823">
        <ele>967.5</ele>
        <time>1982-03-26T12:53:55Z</time>
      </trkpt>
      <trkpt lat="43.93736" lon="7.40825">
        <ele>967.5</ele>
        <time>1982-03-26T12:53:56Z</time>
      </trkpt>
      <trkpt lat="43.93739" lon="7.40828">
        <ele>967.5</ele>
        <time>1982-03-26T12:53:57Z</time>
      </trkpt>
      <trkpt lat="43.9374" lon="7.40832">
        <ele>967.5</ele>
        <time>1982-03-26T12:53:58Z</time>
      </trkpt>
      <trkpt lat="43.93743" lon="7.40836">
        <ele>967.5</ele>
        <time>1982-03-26T12:53:59Z</time>
      </trkpt>
      <trkpt lat="43.93744" lon="7.40838">
        <ele>967.7</ele>
        <time>1982-03-26T12:54:00Z</time>
      </trkpt>
      <trkpt lat="43.93745" lon="7.40838">
        <ele>967.3</ele>
        <time>1982-03-26T12:54:01Z</time>
      </trkpt>
      <trkpt lat="43.93747" lon="7.40842">
        <ele>967.8</ele>
        <time>1982-03-26T12:54:03Z</time>
      </trkpt>
      <trkpt lat="43.93749" lon="7.40844">
        <ele>967.9</ele>
        <time>1982-03-26T12:54:04Z</time>
      </trkpt>
      <trkpt lat="43.93751" lon="7.40847">
        <ele>967.7</ele>
        <time>1982-03-26T12:54:05Z</time>
      </trkpt>
      <trkpt lat="43.93752" lon="7.4085">
        <ele>967.9</ele>
        <time>1982-03-26T12:54:06Z</time>
      </trkpt>
      <trkpt lat="43.93754" lon="7.4085">
        <ele>967.1</ele>
        <time>1982-03-26T12:54:07Z</time>
      </trkpt>
      <trkpt lat="43.93756" lon="7.40851">
        <ele>966</ele>
        <time>1982-03-26T12:54:08Z</time>
      </trkpt>
      <trkpt lat="43.93758" lon="7.40854">
        <ele>965.3</ele>
        <time>1982-03-26T12:54:09Z</time>
      </trkpt>
      <trkpt lat="43.9376" lon="7.40857">
        <ele>965.3</ele>
        <time>1982-03-26T12:54:10Z</time>
      </trkpt>
      <trkpt lat="43.93761" lon="7.40859">
        <ele>965.4</ele>
        <time>1982-03-26T12:54:11Z</time>
      </trkpt>
      <trkpt lat="43.93763" lon="7.4086">
        <ele>964</ele>
        <time>1982-03-26T12:54:12Z</time>
      </trkpt>
      <trkpt lat="43.93764" lon="7.40862">
        <ele>963.4</ele>
        <time>1982-03-26T12:54:13Z</time>
      </trkpt>
      <trkpt lat="43.93765" lon="7.40864">
        <ele>963.3</ele>
        <time>1982-03-26T12:54:14Z</time>
      </trkpt>
      <trkpt lat="43.93766" lon="7.40865">
        <ele>964</ele>
        <time>1982-03-26T12:54:15Z</time>
      </trkpt>
      <trkpt lat="43.93768" lon="7.40866">
        <ele>963</ele>
        <time>1982-03-26T12:54:16Z</time>
      </trkpt>
      <trkpt lat="43.93769" lon="7.40867">
        <ele>962.6</ele>
        <time>1982-03-26T12:54:17Z</time>
      </trkpt>
      <trkpt lat="43.93772" lon="7.40869">
        <ele>962.1</ele>
        <time>1982-03-26T12:54:18Z</time>
      </trkpt>
      <trkpt lat="43.93773" lon="7.40872">
        <ele>962.2</ele>
        <time>1982-03-26T12:54:19Z</time>
      </trkpt>
      <trkpt lat="43.93775" lon="7.40874">
        <ele>961.4</ele>
        <time>1982-03-26T12:54:20Z</time>
      </trkpt>
      <trkpt lat="43.93777" lon="7.40875">
        <ele>961.3</ele>
        <time>1982-03-26T12:54:21Z</time>
      </trkpt>
      <trkpt lat="43.93778" lon="7.40878">
        <ele>961.7</ele>
        <time>1982-03-26T12:54:22Z</time>
      </trkpt>
      <trkpt lat="43.93779" lon="7.40881">
        <ele>960.9</ele>
        <time>1982-03-26T12:54:23Z</time>
      </trkpt>
      <trkpt lat="43.93781" lon="7.40884">
        <ele>960.4</ele>
        <time>1982-03-26T12:54:24Z</time>
      </trkpt>
      <trkpt lat="43.93783" lon="7.40887">
        <ele>960.3</ele>
        <time>1982-03-26T12:54:25Z</time>
      </trkpt>
      <trkpt lat="43.93785" lon="7.40889">
        <ele>958.8</ele>
        <time>1982-03-26T12:54:26Z</time>
      </trkpt>
      <trkpt lat="43.93787" lon="7.40891">
        <ele>958.5</ele>
        <time>1982-03-26T12:54:27Z</time>
      </trkpt>
      <trkpt lat="43.93788" lon="7.40893">
        <ele>958.3</ele>
        <time>1982-03-26T12:54:28Z</time>
      </trkpt>
      <trkpt lat="43.93789" lon="7.40895">
        <ele>958.8</ele>
        <time>1982-03-26T12:54:29Z</time>
      </trkpt>
      <trkpt lat="43.9379" lon="7.40897">
        <ele>958.8</ele>
        <time>1982-03-26T12:54:30Z</time>
      </trkpt>
      <trkpt lat="43.93791" lon="7.40899">
        <ele>958.5</ele>
        <time>1982-03-26T12:54:31Z</time>
      </trkpt>
      <trkpt lat="43.93792" lon="7.409">
        <ele>958.2</ele>
        <time>1982-03-26T12:54:32Z</time>
      </trkpt>
      <trkpt lat="43.93793" lon="7.40901">
        <ele>958.4</ele>
        <time>1982-03-26T12:54:33Z</time>
      </trkpt>
      <trkpt lat="43.93795" lon="7.40902">
        <ele>958.4</ele>
        <time>1982-03-26T12:54:34Z</time>
      </trkpt>
      <trkpt lat="43.93797" lon="7.40903">
        <ele>958.3</ele>
        <time>1982-03-26T12:54:35Z</time>
      </trkpt>
      <trkpt lat="43.93798" lon="7.40904">
        <ele>958.9</ele>
        <time>1982-03-26T12:54:36Z</time>
      </trkpt>
      <trkpt lat="43.938" lon="7.40905">
        <ele>958.9</ele>
        <time>1982-03-26T12:54:37Z</time>
      </trkpt>
      <trkpt lat="43.93801" lon="7.40906">
        <ele>959.5</ele>
        <time>1982-03-26T12:54:38Z</time>
      </trkpt>
      <trkpt lat="43.93802" lon="7.40907">
        <ele>958.2</ele>
        <time>1982-03-26T12:54:39Z</time>
      </trkpt>
      <trkpt lat="43.93802" lon="7.40909">
        <ele>956.5</ele>
        <time>1982-03-26T12:54:40Z</time>
      </trkpt>
      <trkpt lat="43.93803" lon="7.4091">
        <ele>955.1</ele>
        <time>1982-03-26T12:54:41Z</time>
      </trkpt>
      <trkpt lat="43.93805" lon="7.40912">
        <ele>954.5</ele>
        <time>1982-03-26T12:54:42Z</time>
      </trkpt>
      <trkpt lat="43.93806" lon="7.40915">
        <ele>954.7</ele>
        <time>1982-03-26T12:54:43Z</time>
      </trkpt>
      <trkpt lat="43.93807" lon="7.40917">
        <ele>954</ele>
        <time>1982-03-26T12:54:44Z</time>
      </trkpt>
      <trkpt lat="43.93808" lon="7.40919">
        <ele>953.2</ele>
        <time>1982-03-26T12:54:45Z</time>
      </trkpt>
      <trkpt lat="43.93809" lon="7.40922">
        <ele>953.2</ele>
        <time>1982-03-26T12:54:46Z</time>
      </trkpt>
      <trkpt lat="43.93809" lon="7.40924">
        <ele>953</ele>
        <time>1982-03-26T12:54:47Z</time>
      </trkpt>
      <trkpt lat="43.9381" lon="7.40926">
        <ele>953.1</ele>
        <time>1982-03-26T12:54:48Z</time>
      </trkpt>
      <trkpt lat="43.93811" lon="7.40929">
        <ele>953.2</ele>
        <time>1982-03-26T12:54:49Z</time>
      </trkpt>
      <trkpt lat="43.93813" lon="7.40932">
        <ele>953.5</ele>
        <time>1982-03-26T12:54:50Z</time>
      </trkpt>
      <trkpt lat="43.93816" lon="7.40936">
        <ele>952.4</ele>
        <time>1982-03-26T12:54:51Z</time>
      </trkpt>
      <trkpt lat="43.93818" lon="7.40938">
        <ele>952.5</ele>
        <time>1982-03-26T12:54:52Z</time>
      </trkpt>
      <trkpt lat="43.9382" lon="7.4094">
        <ele>951.1</ele>
        <time>1982-03-26T12:54:53Z</time>
      </trkpt>
      <trkpt lat="43.93821" lon="7.40943">
        <ele>949.8</ele>
        <time>1982-03-26T12:54:54Z</time>
      </trkpt>
      <trkpt lat="43.93823" lon="7.40944">
        <ele>949</ele>
        <time>1982-03-26T12:54:55Z</time>
      </trkpt>
      <trkpt lat="43.93823" lon="7.40947">
        <ele>948.4</ele>
        <time>1982-03-26T12:54:56Z</time>
      </trkpt>
      <trkpt lat="43.93825" lon="7.40953">
        <ele>948.1</ele>
        <time>1982-03-26T12:54:57Z</time>
      </trkpt>
      <trkpt lat="43.93826" lon="7.4096">
        <ele>947.2</ele>
        <time>1982-03-26T12:54:58Z</time>
      </trkpt>
      <trkpt lat="43.93827" lon="7.40963">
        <ele>942.9</ele>
        <time>1982-03-26T12:54:59Z</time>
      </trkpt>
      <trkpt lat="43.93829" lon="7.40967">
        <ele>941</ele>
        <time>1982-03-26T12:55:00Z</time>
      </trkpt>
      <trkpt lat="43.9383" lon="7.40971">
        <ele>939.2</ele>
        <time>1982-03-26T12:55:01Z</time>
      </trkpt>
      <trkpt lat="43.93832" lon="7.40974">
        <ele>939.2</ele>
        <time>1982-03-26T12:55:02Z</time>
      </trkpt>
      <trkpt lat="43.93833" lon="7.40978">
        <ele>939.6</ele>
        <time>1982-03-26T12:55:03Z</time>
      </trkpt>
      <trkpt lat="43.93832" lon="7.40983">
        <ele>941.4</ele>
        <time>1982-03-26T12:55:04Z</time>
      </trkpt>
      <trkpt lat="43.93833" lon="7.40988">
        <ele>941</ele>
        <time>1982-03-26T12:55:05Z</time>
      </trkpt>
      <trkpt lat="43.93833" lon="7.40992">
        <ele>941</ele>
        <time>1982-03-26T12:55:06Z</time>
      </trkpt>
      <trkpt lat="43.93834" lon="7.40997">
        <ele>940.5</ele>
        <time>1982-03-26T12:55:07Z</time>
      </trkpt>
      <trkpt lat="43.93833" lon="7.41002">
        <ele>940.3</ele>
        <time>1982-03-26T12:55:08Z</time>
      </trkpt>
      <trkpt lat="43.93835" lon="7.41006">
        <ele>941.3</ele>
        <time>1982-03-26T12:55:09Z</time>
      </trkpt>
      <trkpt lat="43.93834" lon="7.41008">
        <ele>940.7</ele>
        <time>1982-03-26T12:55:10Z</time>
      </trkpt>
      <trkpt lat="43.93833" lon="7.41012">
        <ele>941.6</ele>
        <time>1982-03-26T12:55:11Z</time>
      </trkpt>
      <trkpt lat="43.93834" lon="7.41014">
        <ele>942.4</ele>
        <time>1982-03-26T12:55:12Z</time>
      </trkpt>
      <trkpt lat="43.93834" lon="7.41013">
        <ele>942.7</ele>
        <time>1982-03-26T12:55:13Z</time>
      </trkpt>
      <trkpt lat="43.93837" lon="7.41017">
        <ele>942.4</ele>
        <time>1982-03-26T12:55:15Z</time>
      </trkpt>
      <trkpt lat="43.93838" lon="7.41019">
        <ele>941.9</ele>
        <time>1982-03-26T12:55:16Z</time>
      </trkpt>
      <trkpt lat="43.93838" lon="7.41021">
        <ele>941.4</ele>
        <time>1982-03-26T12:55:17Z</time>
      </trkpt>
      <trkpt lat="43.93839" lon="7.41023">
        <ele>940.6</ele>
        <time>1982-03-26T12:55:18Z</time>
      </trkpt>
      <trkpt lat="43.93839" lon="7.41024">
        <ele>940</ele>
        <time>1982-03-26T12:55:19Z</time>
      </trkpt>
      <trkpt lat="43.9384" lon="7.41026">
        <ele>939.1</ele>
        <time>1982-03-26T12:55:21Z</time>
      </trkpt>
      <trkpt lat="43.93841" lon="7.41027">
        <ele>938.3</ele>
        <time>1982-03-26T12:55:22Z</time>
      </trkpt>
      <trkpt lat="43.93843" lon="7.41027">
        <ele>937.3</ele>
        <time>1982-03-26T12:55:23Z</time>
      </trkpt>
      <trkpt lat="43.93845" lon="7.41028">
        <ele>937.8</ele>
        <time>1982-03-26T12:55:24Z</time>
      </trkpt>
      <trkpt lat="43.93846" lon="7.41029">
        <ele>937.1</ele>
        <time>1982-03-26T12:55:25Z</time>
      </trkpt>
      <trkpt lat="43.93848" lon="7.41031">
        <ele>937</ele>
        <time>1982-03-26T12:55:26Z</time>
      </trkpt>
      <trkpt lat="43.93849" lon="7.4103">
        <ele>937.9</ele>
        <time>1982-03-26T12:55:27Z</time>
      </trkpt>
      <trkpt lat="43.9385" lon="7.4103">
        <ele>939.4</ele>
        <time>1982-03-26T12:55:28Z</time>
      </trkpt>
      <trkpt lat="43.93851" lon="7.41031">
        <ele>941.3</ele>
        <time>1982-03-26T12:55:29Z</time>
      </trkpt>
      <trkpt lat="43.93852" lon="7.41033">
        <ele>942</ele>
        <time>1982-03-26T12:55:30Z</time>
      </trkpt>
      <trkpt lat="43.93854" lon="7.41035">
        <ele>941.7</ele>
        <time>1982-03-26T12:55:31Z</time>
      </trkpt>
      <trkpt lat="43.93856" lon="7.41037">
        <ele>941.7</ele>
        <time>1982-03-26T12:55:32Z</time>
      </trkpt>
      <trkpt lat="43.93856" lon="7.41039">
        <ele>942.1</ele>
        <time>1982-03-26T12:55:33Z</time>
      </trkpt>
      <trkpt lat="43.93852" lon="7.4104">
        <ele>942.9</ele>
        <time>1982-03-26T12:55:34Z</time>
      </trkpt>
      <trkpt lat="43.93852" lon="7.41041">
        <ele>942.8</ele>
        <time>1982-03-26T12:55:35Z</time>
      </trkpt>
      <trkpt lat="43.93851" lon="7.41043">
        <ele>942.5</ele>
        <time>1982-03-26T12:55:36Z</time>
      </trkpt>
      <trkpt lat="43.93851" lon="7.41043">
        <ele>941.8</ele>
        <time>1982-03-26T12:55:37Z</time>
      </trkpt>
      <trkpt lat="43.93851" lon="7.41043">
        <ele>941.8</ele>
        <time>1982-03-26T12:55:38Z</time>
      </trkpt>
      <trkpt lat="43.93851" lon="7.41043">
        <ele>941.5</ele>
        <time>1982-03-26T12:55:40Z</time>
      </trkpt>
      <trkpt lat="43.93851" lon="7.41043">
        <ele>941.5</ele>
        <time>1982-03-26T12:55:43Z</time>
      </trkpt>
      <trkpt lat="43.93851" lon="7.41042">
        <ele>941.4</ele>
        <time>1982-03-26T12:55:46Z</time>
      </trkpt>
      <trkpt lat="43.93851" lon="7.41046">
        <ele>940.5</ele>
        <time>1982-03-26T12:55:49Z</time>
      </trkpt>
      <trkpt lat="43.93851" lon="7.41047">
        <ele>939.2</ele>
        <time>1982-03-26T12:55:50Z</time>
      </trkpt>
      <trkpt lat="43.9385" lon="7.41047">
        <ele>937.8</ele>
        <time>1982-03-26T12:55:51Z</time>
      </trkpt>
      <trkpt lat="43.9385" lon="7.41048">
        <ele>938.6</ele>
        <time>1982-03-26T12:55:52Z</time>
      </trkpt>
      <trkpt lat="43.93849" lon="7.41048">
        <ele>937.8</ele>
        <time>1982-03-26T12:55:53Z</time>
      </trkpt>
      <trkpt lat="43.93849" lon="7.41048">
        <ele>937.5</ele>
        <time>1982-03-26T12:55:54Z</time>
      </trkpt>
      <trkpt lat="43.93849" lon="7.41048">
        <ele>937.5</ele>
        <time>1982-03-26T12:55:55Z</time>
      </trkpt>
      <trkpt lat="43.93848" lon="7.41049">
        <ele>938.1</ele>
        <time>1982-03-26T12:55:57Z</time>
      </trkpt>
      <trkpt lat="43.93848" lon="7.4105">
        <ele>937.9</ele>
        <time>1982-03-26T12:55:58Z</time>
      </trkpt>
      <trkpt lat="43.93846" lon="7.41053">
        <ele>936.4</ele>
        <time>1982-03-26T12:56:00Z</time>
      </trkpt>
      <trkpt lat="43.93847" lon="7.41054">
        <ele>935.6</ele>
        <time>1982-03-26T12:56:01Z</time>
      </trkpt>
      <trkpt lat="43.93847" lon="7.41055">
        <ele>934.9</ele>
        <time>1982-03-26T12:56:02Z</time>
      </trkpt>
      <trkpt lat="43.93847" lon="7.41055">
        <ele>935</ele>
        <time>1982-03-26T12:56:04Z</time>
      </trkpt>
      <trkpt lat="43.93847" lon="7.41054">
        <ele>934.3</ele>
        <time>1982-03-26T12:56:06Z</time>
      </trkpt>
      <trkpt lat="43.93847" lon="7.41054">
        <ele>934.3</ele>
        <time>1982-03-26T12:56:08Z</time>
      </trkpt>
      <trkpt lat="43.93851" lon="7.41061">
        <ele>933.6</ele>
        <time>1982-03-26T12:56:10Z</time>
      </trkpt>
      <trkpt lat="43.93853" lon="7.41062">
        <ele>933.2</ele>
        <time>1982-03-26T12:56:11Z</time>
      </trkpt>
      <trkpt lat="43.93855" lon="7.41065">
        <ele>932.9</ele>
        <time>1982-03-26T12:56:12Z</time>
      </trkpt>
      <trkpt lat="43.93856" lon="7.41067">
        <ele>935.5</ele>
        <time>1982-03-26T12:56:13Z</time>
      </trkpt>
      <trkpt lat="43.93857" lon="7.41068">
        <ele>936.3</ele>
        <time>1982-03-26T12:56:14Z</time>
      </trkpt>
      <trkpt lat="43.93858" lon="7.41068">
        <ele>937.1</ele>
        <time>1982-03-26T12:56:15Z</time>
      </trkpt>
      <trkpt lat="43.93858" lon="7.41068">
        <ele>937.9</ele>
        <time>1982-03-26T12:56:16Z</time>
      </trkpt>
      <trkpt lat="43.9386" lon="7.41075">
        <ele>937.6</ele>
        <time>1982-03-26T12:56:18Z</time>
      </trkpt>
      <trkpt lat="43.93861" lon="7.41077">
        <ele>937.8</ele>
        <time>1982-03-26T12:56:19Z</time>
      </trkpt>
      <trkpt lat="43.93862" lon="7.41079">
        <ele>936.5</ele>
        <time>1982-03-26T12:56:20Z</time>
      </trkpt>
      <trkpt lat="43.93864" lon="7.4108">
        <ele>935.3</ele>
        <time>1982-03-26T12:56:21Z</time>
      </trkpt>
      <trkpt lat="43.93865" lon="7.41081">
        <ele>934.5</ele>
        <time>1982-03-26T12:56:22Z</time>
      </trkpt>
      <trkpt lat="43.93866" lon="7.41083">
        <ele>933.9</ele>
        <time>1982-03-26T12:56:23Z</time>
      </trkpt>
      <trkpt lat="43.93867" lon="7.41083">
        <ele>934.1</ele>
        <time>1982-03-26T12:56:24Z</time>
      </trkpt>
      <trkpt lat="43.93868" lon="7.41084">
        <ele>934</ele>
        <time>1982-03-26T12:56:25Z</time>
      </trkpt>
      <trkpt lat="43.9387" lon="7.41087">
        <ele>933.5</ele>
        <time>1982-03-26T12:56:26Z</time>
      </trkpt>
      <trkpt lat="43.9387" lon="7.41089">
        <ele>933.1</ele>
        <time>1982-03-26T12:56:27Z</time>
      </trkpt>
      <trkpt lat="43.93869" lon="7.41091">
        <ele>932.8</ele>
        <time>1982-03-26T12:56:28Z</time>
      </trkpt>
      <trkpt lat="43.93868" lon="7.41091">
        <ele>932.4</ele>
        <time>1982-03-26T12:56:29Z</time>
      </trkpt>
      <trkpt lat="43.93867" lon="7.41092">
        <ele>932.1</ele>
        <time>1982-03-26T12:56:31Z</time>
      </trkpt>
      <trkpt lat="43.93866" lon="7.41091">
        <ele>931.8</ele>
        <time>1982-03-26T12:56:32Z</time>
      </trkpt>
      <trkpt lat="43.93865" lon="7.4109">
        <ele>931.1</ele>
        <time>1982-03-26T12:56:33Z</time>
      </trkpt>
      <trkpt lat="43.93864" lon="7.41091">
        <ele>931.5</ele>
        <time>1982-03-26T12:56:34Z</time>
      </trkpt>
      <trkpt lat="43.93862" lon="7.41093">
        <ele>930.5</ele>
        <time>1982-03-26T12:56:36Z</time>
      </trkpt>
      <trkpt lat="43.9386" lon="7.41094">
        <ele>930</ele>
        <time>1982-03-26T12:56:37Z</time>
      </trkpt>
      <trkpt lat="43.93856" lon="7.41094">
        <ele>927.4</ele>
        <time>1982-03-26T12:56:38Z</time>
      </trkpt>
      <trkpt lat="43.93854" lon="7.41094">
        <ele>925.2</ele>
        <time>1982-03-26T12:56:39Z</time>
      </trkpt>
      <trkpt lat="43.93853" lon="7.41094">
        <ele>923.1</ele>
        <time>1982-03-26T12:56:40Z</time>
      </trkpt>
      <trkpt lat="43.93852" lon="7.41096">
        <ele>921.3</ele>
        <time>1982-03-26T12:56:41Z</time>
      </trkpt>
      <trkpt lat="43.93851" lon="7.41098">
        <ele>920.4</ele>
        <time>1982-03-26T12:56:42Z</time>
      </trkpt>
      <trkpt lat="43.93852" lon="7.41098">
        <ele>921.3</ele>
        <time>1982-03-26T12:56:43Z</time>
      </trkpt>
      <trkpt lat="43.93853" lon="7.41099">
        <ele>920.6</ele>
        <time>1982-03-26T12:56:44Z</time>
      </trkpt>
      <trkpt lat="43.93854" lon="7.411">
        <ele>919.9</ele>
        <time>1982-03-26T12:56:45Z</time>
      </trkpt>
      <trkpt lat="43.93855" lon="7.41101">
        <ele>919.3</ele>
        <time>1982-03-26T12:56:46Z</time>
      </trkpt>
      <trkpt lat="43.93855" lon="7.41101">
        <ele>919.1</ele>
        <time>1982-03-26T12:56:47Z</time>
      </trkpt>
      <trkpt lat="43.93855" lon="7.41101">
        <ele>919.1</ele>
        <time>1982-03-26T12:58:12Z</time>
      </trkpt>
      <trkpt lat="43.93858" lon="7.41101">
        <ele>919.9</ele>
        <time>1982-03-26T12:58:14Z</time>
      </trkpt>
      <trkpt lat="43.93859" lon="7.41103">
        <ele>920.1</ele>
        <time>1982-03-26T12:58:15Z</time>
      </trkpt>
      <trkpt lat="43.93859" lon="7.41105">
        <ele>920.2</ele>
        <time>1982-03-26T12:58:16Z</time>
      </trkpt>
      <trkpt lat="43.9386" lon="7.41106">
        <ele>920.3</ele>
        <time>1982-03-26T12:58:17Z</time>
      </trkpt>
      <trkpt lat="43.93858" lon="7.41107">
        <ele>919.8</ele>
        <time>1982-03-26T12:58:18Z</time>
      </trkpt>
      <trkpt lat="43.93858" lon="7.41107">
        <ele>918.7</ele>
        <time>1982-03-26T12:58:19Z</time>
      </trkpt>
      <trkpt lat="43.93859" lon="7.41108">
        <ele>918.7</ele>
        <time>1982-03-26T12:58:20Z</time>
      </trkpt>
      <trkpt lat="43.93859" lon="7.41108">
        <ele>918.7</ele>
        <time>1982-03-26T12:58:21Z</time>
      </trkpt>
      <trkpt lat="43.93859" lon="7.41108">
        <ele>918.2</ele>
        <time>1982-03-26T12:58:23Z</time>
      </trkpt>
      <trkpt lat="43.9386" lon="7.4111">
        <ele>917.3</ele>
        <time>1982-03-26T12:58:25Z</time>
      </trkpt>
      <trkpt lat="43.93862" lon="7.41112">
        <ele>917</ele>
        <time>1982-03-26T12:58:26Z</time>
      </trkpt>
      <trkpt lat="43.93865" lon="7.41113">
        <ele>916.2</ele>
        <time>1982-03-26T12:58:27Z</time>
      </trkpt>
      <trkpt lat="43.93867" lon="7.41114">
        <ele>914.6</ele>
        <time>1982-03-26T12:58:28Z</time>
      </trkpt>
      <trkpt lat="43.93869" lon="7.41117">
        <ele>915.1</ele>
        <time>1982-03-26T12:58:29Z</time>
      </trkpt>
      <trkpt lat="43.93872" lon="7.4112">
        <ele>915.5</ele>
        <time>1982-03-26T12:58:30Z</time>
      </trkpt>
      <trkpt lat="43.93873" lon="7.41122">
        <ele>915</ele>
        <time>1982-03-26T12:58:31Z</time>
      </trkpt>
      <trkpt lat="43.93875" lon="7.41124">
        <ele>913.4</ele>
        <time>1982-03-26T12:58:32Z</time>
      </trkpt>
      <trkpt lat="43.93877" lon="7.41125">
        <ele>912.4</ele>
        <time>1982-03-26T12:58:33Z</time>
      </trkpt>
      <trkpt lat="43.93878" lon="7.41128">
        <ele>912.1</ele>
        <time>1982-03-26T12:58:34Z</time>
      </trkpt>
      <trkpt lat="43.93879" lon="7.41128">
        <ele>912.8</ele>
        <time>1982-03-26T12:58:35Z</time>
      </trkpt>
      <trkpt lat="43.9388" lon="7.41129">
        <ele>912.1</ele>
        <time>1982-03-26T12:58:36Z</time>
      </trkpt>
      <trkpt lat="43.93882" lon="7.41132">
        <ele>911.2</ele>
        <time>1982-03-26T12:58:37Z</time>
      </trkpt>
      <trkpt lat="43.93885" lon="7.41133">
        <ele>911.2</ele>
        <time>1982-03-26T12:58:38Z</time>
      </trkpt>
      <trkpt lat="43.93886" lon="7.41134">
        <ele>910.2</ele>
        <time>1982-03-26T12:58:39Z</time>
      </trkpt>
      <trkpt lat="43.93887" lon="7.41136">
        <ele>910.1</ele>
        <time>1982-03-26T12:58:40Z</time>
      </trkpt>
      <trkpt lat="43.93888" lon="7.41138">
        <ele>908.8</ele>
        <time>1982-03-26T12:58:41Z</time>
      </trkpt>
      <trkpt lat="43.93888" lon="7.41141">
        <ele>907.8</ele>
        <time>1982-03-26T12:58:42Z</time>
      </trkpt>
      <trkpt lat="43.9389" lon="7.41142">
        <ele>905.9</ele>
        <time>1982-03-26T12:58:43Z</time>
      </trkpt>
      <trkpt lat="43.93891" lon="7.41144">
        <ele>905.5</ele>
        <time>1982-03-26T12:58:44Z</time>
      </trkpt>
      <trkpt lat="43.93891" lon="7.41147">
        <ele>906</ele>
        <time>1982-03-26T12:58:45Z</time>
      </trkpt>
      <trkpt lat="43.9389" lon="7.41149">
        <ele>906.1</ele>
        <time>1982-03-26T12:58:46Z</time>
      </trkpt>
      <trkpt lat="43.9389" lon="7.4115">
        <ele>906.2</ele>
        <time>1982-03-26T12:58:47Z</time>
      </trkpt>
      <trkpt lat="43.9389" lon="7.4115">
        <ele>906.3</ele>
        <time>1982-03-26T12:58:49Z</time>
      </trkpt>
      <trkpt lat="43.93887" lon="7.41152">
        <ele>906.3</ele>
        <time>1982-03-26T12:58:51Z</time>
      </trkpt>
      <trkpt lat="43.93886" lon="7.41154">
        <ele>905.8</ele>
        <time>1982-03-26T12:58:52Z</time>
      </trkpt>
      <trkpt lat="43.93887" lon="7.41155">
        <ele>903.1</ele>
        <time>1982-03-26T12:58:53Z</time>
      </trkpt>
      <trkpt lat="43.93888" lon="7.41157">
        <ele>902</ele>
        <time>1982-03-26T12:58:54Z</time>
      </trkpt>
      <trkpt lat="43.93888" lon="7.41159">
        <ele>901</ele>
        <time>1982-03-26T12:58:55Z</time>
      </trkpt>
      <trkpt lat="43.9389" lon="7.41161">
        <ele>900.3</ele>
        <time>1982-03-26T12:58:56Z</time>
      </trkpt>
      <trkpt lat="43.9389" lon="7.41161">
        <ele>898.5</ele>
        <time>1982-03-26T12:58:57Z</time>
      </trkpt>
      <trkpt lat="43.9389" lon="7.41161">
        <ele>899.1</ele>
        <time>1982-03-26T12:58:58Z</time>
      </trkpt>
      <trkpt lat="43.93891" lon="7.41162">
        <ele>899.8</ele>
        <time>1982-03-26T12:59:00Z</time>
      </trkpt>
      <trkpt lat="43.93891" lon="7.41162">
        <ele>899.8</ele>
        <time>1982-03-26T12:59:02Z</time>
      </trkpt>
      <trkpt lat="43.93891" lon="7.41162">
        <ele>900.2</ele>
        <time>1982-03-26T12:59:04Z</time>
      </trkpt>
      <trkpt lat="43.93891" lon="7.41162">
        <ele>900.2</ele>
        <time>1982-03-26T12:59:04Z</time>
      </trkpt>
      <trkpt lat="43.9389" lon="7.41161">
        <ele>901.1</ele>
        <time>1982-03-26T12:59:06Z</time>
      </trkpt>
      <trkpt lat="43.9389" lon="7.41161">
        <ele>901.1</ele>
        <time>1982-03-26T12:59:26Z</time>
      </trkpt>
      <trkpt lat="43.9389" lon="7.41162">
        <ele>901.5</ele>
        <time>1982-03-26T12:59:28Z</time>
      </trkpt>
      <trkpt lat="43.9389" lon="7.41162">
        <ele>901.5</ele>
        <time>1982-03-26T13:01:07Z</time>
      </trkpt>
      <trkpt lat="43.93893" lon="7.41163">
        <ele>900.2</ele>
        <time>1982-03-26T13:01:09Z</time>
      </trkpt>
      <trkpt lat="43.93895" lon="7.41162">
        <ele>899.3</ele>
        <time>1982-03-26T13:01:10Z</time>
      </trkpt>
      <trkpt lat="43.93897" lon="7.41163">
        <ele>898.6</ele>
        <time>1982-03-26T13:01:11Z</time>
      </trkpt>
      <trkpt lat="43.93897" lon="7.41162">
        <ele>898.6</ele>
        <time>1982-03-26T13:01:12Z</time>
      </trkpt>
      <trkpt lat="43.93899" lon="7.4116">
        <ele>897.2</ele>
        <time>1982-03-26T13:01:14Z</time>
      </trkpt>
      <trkpt lat="43.939" lon="7.41159">
        <ele>896.9</ele>
        <time>1982-03-26T13:01:15Z</time>
      </trkpt>
      <trkpt lat="43.93901" lon="7.41158">
        <ele>896.1</ele>
        <time>1982-03-26T13:01:16Z</time>
      </trkpt>
      <trkpt lat="43.93901" lon="7.41159">
        <ele>896.3</ele>
        <time>1982-03-26T13:01:17Z</time>
      </trkpt>
      <trkpt lat="43.93901" lon="7.41159">
        <ele>896.3</ele>
        <time>1982-03-26T13:01:19Z</time>
      </trkpt>
      <trkpt lat="43.93902" lon="7.4116">
        <ele>896.2</ele>
        <time>1982-03-26T13:01:21Z</time>
      </trkpt>
      <trkpt lat="43.93902" lon="7.41161">
        <ele>896.2</ele>
        <time>1982-03-26T13:01:24Z</time>
      </trkpt>
      <trkpt lat="43.93904" lon="7.41162">
        <ele>894.3</ele>
        <time>1982-03-26T13:01:27Z</time>
      </trkpt>
      <trkpt lat="43.93904" lon="7.41162">
        <ele>894.2</ele>
        <time>1982-03-26T13:01:28Z</time>
      </trkpt>
      <trkpt lat="43.93904" lon="7.41163">
        <ele>892.5</ele>
        <time>1982-03-26T13:01:30Z</time>
      </trkpt>
      <trkpt lat="43.93905" lon="7.41164">
        <ele>892</ele>
        <time>1982-03-26T13:01:31Z</time>
      </trkpt>
      <trkpt lat="43.93906" lon="7.41164">
        <ele>892.3</ele>
        <time>1982-03-26T13:01:32Z</time>
      </trkpt>
      <trkpt lat="43.93907" lon="7.41165">
        <ele>892.3</ele>
        <time>1982-03-26T13:01:34Z</time>
      </trkpt>
      <trkpt lat="43.93908" lon="7.41166">
        <ele>891.9</ele>
        <time>1982-03-26T13:01:35Z</time>
      </trkpt>
      <trkpt lat="43.93908" lon="7.41165">
        <ele>893</ele>
        <time>1982-03-26T13:01:36Z</time>
      </trkpt>
      <trkpt lat="43.93908" lon="7.41165">
        <ele>892.7</ele>
        <time>1982-03-26T13:01:37Z</time>
      </trkpt>
      <trkpt lat="43.93908" lon="7.41165">
        <ele>892.7</ele>
        <time>1982-03-26T13:01:37Z</time>
      </trkpt>
      <trkpt lat="43.93908" lon="7.41165">
        <ele>891.4</ele>
        <time>1982-03-26T13:01:39Z</time>
      </trkpt>
      <trkpt lat="43.93908" lon="7.41165">
        <ele>890.7</ele>
        <time>1982-03-26T13:01:40Z</time>
      </trkpt>
      <trkpt lat="43.93908" lon="7.41165">
        <ele>890.7</ele>
        <time>1982-03-26T13:01:41Z</time>
      </trkpt>
      <trkpt lat="43.93909" lon="7.41165">
        <ele>890.3</ele>
        <time>1982-03-26T13:01:43Z</time>
      </trkpt>
      <trkpt lat="43.93912" lon="7.41165">
        <ele>887.3</ele>
        <time>1982-03-26T13:01:45Z</time>
      </trkpt>
      <trkpt lat="43.93913" lon="7.41165">
        <ele>887.3</ele>
        <time>1982-03-26T13:01:46Z</time>
      </trkpt>
      <trkpt lat="43.93914" lon="7.41165">
        <ele>886.9</ele>
        <time>1982-03-26T13:01:47Z</time>
      </trkpt>
      <trkpt lat="43.93915" lon="7.41166">
        <ele>887.2</ele>
        <time>1982-03-26T13:01:48Z</time>
      </trkpt>
      <trkpt lat="43.93915" lon="7.41167">
        <ele>886.6</ele>
        <time>1982-03-26T13:01:49Z</time>
      </trkpt>
      <trkpt lat="43.93915" lon="7.41167">
        <ele>886.6</ele>
        <time>1982-03-26T13:01:50Z</time>
      </trkpt>
      <trkpt lat="43.93915" lon="7.41167">
        <ele>886.4</ele>
        <time>1982-03-26T13:01:52Z</time>
      </trkpt>
      <trkpt lat="43.93915" lon="7.41167">
        <ele>886.4</ele>
        <time>1982-03-26T13:01:58Z</time>
      </trkpt>
      <trkpt lat="43.93915" lon="7.41168">
        <ele>886.1</ele>
        <time>1982-03-26T13:02:01Z</time>
      </trkpt>
      <trkpt lat="43.93914" lon="7.41171">
        <ele>887.7</ele>
        <time>1982-03-26T13:02:04Z</time>
      </trkpt>
      <trkpt lat="43.93914" lon="7.41172">
        <ele>887.8</ele>
        <time>1982-03-26T13:02:06Z</time>
      </trkpt>
      <trkpt lat="43.93915" lon="7.41171">
        <ele>887.8</ele>
        <time>1982-03-26T13:02:09Z</time>
      </trkpt>
      <trkpt lat="43.93917" lon="7.41172">
        <ele>886.6</ele>
        <time>1982-03-26T13:02:11Z</time>
      </trkpt>
      <trkpt lat="43.93917" lon="7.41172">
        <ele>886.7</ele>
        <time>1982-03-26T13:02:12Z</time>
      </trkpt>
      <trkpt lat="43.93917" lon="7.41172">
        <ele>886.7</ele>
        <time>1982-03-26T13:02:17Z</time>
      </trkpt>
      <trkpt lat="43.93917" lon="7.41173">
        <ele>885.9</ele>
        <time>1982-03-26T13:02:19Z</time>
      </trkpt>
      <trkpt lat="43.93917" lon="7.41173">
        <ele>886.2</ele>
        <time>1982-03-26T13:02:20Z</time>
      </trkpt>
      <trkpt lat="43.93917" lon="7.41173">
        <ele>886.2</ele>
        <time>1982-03-26T13:02:22Z</time>
      </trkpt>
      <trkpt lat="43.93917" lon="7.41174">
        <ele>886.7</ele>
        <time>1982-03-26T13:02:25Z</time>
      </trkpt>
      <trkpt lat="43.93918" lon="7.41174">
        <ele>886.9</ele>
        <time>1982-03-26T13:02:27Z</time>
      </trkpt>
      <trkpt lat="43.93919" lon="7.41173">
        <ele>886.6</ele>
        <time>1982-03-26T13:02:28Z</time>
      </trkpt>
      <trkpt lat="43.9392" lon="7.41172">
        <ele>886.2</ele>
        <time>1982-03-26T13:02:29Z</time>
      </trkpt>
      <trkpt lat="43.93921" lon="7.41172">
        <ele>885.8</ele>
        <time>1982-03-26T13:02:30Z</time>
      </trkpt>
      <trkpt lat="43.93922" lon="7.4117">
        <ele>885.6</ele>
        <time>1982-03-26T13:02:31Z</time>
      </trkpt>
      <trkpt lat="43.93923" lon="7.4117">
        <ele>885.5</ele>
        <time>1982-03-26T13:02:32Z</time>
      </trkpt>
      <trkpt lat="43.93923" lon="7.41172">
        <ele>884.9</ele>
        <time>1982-03-26T13:02:33Z</time>
      </trkpt>
      <trkpt lat="43.93922" lon="7.41171">
        <ele>885.9</ele>
        <time>1982-03-26T13:02:34Z</time>
      </trkpt>
      <trkpt lat="43.93923" lon="7.41172">
        <ele>885.9</ele>
        <time>1982-03-26T13:02:37Z</time>
      </trkpt>
      <trkpt lat="43.93924" lon="7.41173">
        <ele>885.4</ele>
        <time>1982-03-26T13:02:40Z</time>
      </trkpt>
      <trkpt lat="43.93924" lon="7.41172">
        <ele>885.8</ele>
        <time>1982-03-26T13:02:41Z</time>
      </trkpt>
      <trkpt lat="43.93924" lon="7.41172">
        <ele>885.8</ele>
        <time>1982-03-26T13:02:41Z</time>
      </trkpt>
      <trkpt lat="43.93923" lon="7.41171">
        <ele>885.6</ele>
        <time>1982-03-26T13:02:43Z</time>
      </trkpt>
      <trkpt lat="43.93923" lon="7.41171">
        <ele>885.6</ele>
        <time>1982-03-26T13:02:43Z</time>
      </trkpt>
      <trkpt lat="43.93925" lon="7.41172">
        <ele>884.6</ele>
        <time>1982-03-26T13:02:45Z</time>
      </trkpt>
      <trkpt lat="43.93926" lon="7.41172">
        <ele>884.8</ele>
        <time>1982-03-26T13:02:46Z</time>
      </trkpt>
      <trkpt lat="43.93926" lon="7.41173">
        <ele>884.7</ele>
        <time>1982-03-26T13:02:47Z</time>
      </trkpt>
      <trkpt lat="43.93926" lon="7.41173">
        <ele>884.7</ele>
        <time>1982-03-26T13:02:48Z</time>
      </trkpt>
      <trkpt lat="43.93927" lon="7.41176">
        <ele>884.2</ele>
        <time>1982-03-26T13:02:50Z</time>
      </trkpt>
      <trkpt lat="43.93929" lon="7.41176">
        <ele>883.7</ele>
        <time>1982-03-26T13:02:51Z</time>
      </trkpt>
      <trkpt lat="43.9393" lon="7.41176">
        <ele>883.4</ele>
        <time>1982-03-26T13:02:52Z</time>
      </trkpt>
      <trkpt lat="43.93929" lon="7.41175">
        <ele>881.7</ele>
        <time>1982-03-26T13:02:53Z</time>
      </trkpt>
      <trkpt lat="43.93929" lon="7.41175">
        <ele>882.4</ele>
        <time>1982-03-26T13:02:55Z</time>
      </trkpt>
      <trkpt lat="43.93929" lon="7.41174">
        <ele>882.9</ele>
        <time>1982-03-26T13:02:58Z</time>
      </trkpt>
      <trkpt lat="43.9393" lon="7.41174">
        <ele>883.7</ele>
        <time>1982-03-26T13:03:01Z</time>
      </trkpt>
      <trkpt lat="43.93932" lon="7.41173">
        <ele>882.7</ele>
        <time>1982-03-26T13:03:02Z</time>
      </trkpt>
      <trkpt lat="43.93934" lon="7.41171">
        <ele>880</ele>
        <time>1982-03-26T13:03:03Z</time>
      </trkpt>
      <trkpt lat="43.93936" lon="7.41169">
        <ele>879.4</ele>
        <time>1982-03-26T13:03:04Z</time>
      </trkpt>
      <trkpt lat="43.93937" lon="7.41167">
        <ele>878.6</ele>
        <time>1982-03-26T13:03:05Z</time>
      </trkpt>
      <trkpt lat="43.93938" lon="7.41166">
        <ele>877.9</ele>
        <time>1982-03-26T13:03:06Z</time>
      </trkpt>
      <trkpt lat="43.9394" lon="7.41165">
        <ele>878.1</ele>
        <time>1982-03-26T13:03:07Z</time>
      </trkpt>
      <trkpt lat="43.93942" lon="7.41164">
        <ele>877.2</ele>
        <time>1982-03-26T13:03:08Z</time>
      </trkpt>
      <trkpt lat="43.93944" lon="7.41163">
        <ele>876.9</ele>
        <time>1982-03-26T13:03:09Z</time>
      </trkpt>
      <trkpt lat="43.93946" lon="7.41162">
        <ele>876.9</ele>
        <time>1982-03-26T13:03:10Z</time>
      </trkpt>
      <trkpt lat="43.93946" lon="7.41156">
        <ele>876.9</ele>
        <time>1982-03-26T13:03:11Z</time>
      </trkpt>
      <trkpt lat="43.93942" lon="7.41156">
        <ele>875.8</ele>
        <time>1982-03-26T13:03:12Z</time>
      </trkpt>
      <trkpt lat="43.93942" lon="7.41154">
        <ele>875.1</ele>
        <time>1982-03-26T13:03:13Z</time>
      </trkpt>
      <trkpt lat="43.93942" lon="7.41152">
        <ele>874.5</ele>
        <time>1982-03-26T13:03:14Z</time>
      </trkpt>
      <trkpt lat="43.93942" lon="7.41153">
        <ele>874</ele>
        <time>1982-03-26T13:03:15Z</time>
      </trkpt>
      <trkpt lat="43.93945" lon="7.4115">
        <ele>873.1</ele>
        <time>1982-03-26T13:03:17Z</time>
      </trkpt>
      <trkpt lat="43.93946" lon="7.41151">
        <ele>872.7</ele>
        <time>1982-03-26T13:03:18Z</time>
      </trkpt>
      <trkpt lat="43.93947" lon="7.41151">
        <ele>872.8</ele>
        <time>1982-03-26T13:03:19Z</time>
      </trkpt>
      <trkpt lat="43.93947" lon="7.41151">
        <ele>872.8</ele>
        <time>1982-03-26T13:03:19Z</time>
      </trkpt>
      <trkpt lat="43.93948" lon="7.41151">
        <ele>872.1</ele>
        <time>1982-03-26T13:03:21Z</time>
      </trkpt>
      <trkpt lat="43.93952" lon="7.41152">
        <ele>871.1</ele>
        <time>1982-03-26T13:03:22Z</time>
      </trkpt>
      <trkpt lat="43.93955" lon="7.41152">
        <ele>870.4</ele>
        <time>1982-03-26T13:03:23Z</time>
      </trkpt>
      <trkpt lat="43.93955" lon="7.41152">
        <ele>870.3</ele>
        <time>1982-03-26T13:03:24Z</time>
      </trkpt>
      <trkpt lat="43.93954" lon="7.4115">
        <ele>870.6</ele>
        <time>1982-03-26T13:03:26Z</time>
      </trkpt>
      <trkpt lat="43.93957" lon="7.41147">
        <ele>870</ele>
        <time>1982-03-26T13:03:27Z</time>
      </trkpt>
      <trkpt lat="43.93961" lon="7.41146">
        <ele>870.2</ele>
        <time>1982-03-26T13:03:28Z</time>
      </trkpt>
      <trkpt lat="43.93963" lon="7.41143">
        <ele>869.4</ele>
        <time>1982-03-26T13:03:29Z</time>
      </trkpt>
      <trkpt lat="43.93965" lon="7.41142">
        <ele>869.5</ele>
        <time>1982-03-26T13:03:30Z</time>
      </trkpt>
      <trkpt lat="43.93965" lon="7.41143">
        <ele>869.9</ele>
        <time>1982-03-26T13:03:31Z</time>
      </trkpt>
      <trkpt lat="43.93965" lon="7.41142">
        <ele>870.5</ele>
        <time>1982-03-26T13:03:33Z</time>
      </trkpt>
      <trkpt lat="43.93967" lon="7.41143">
        <ele>871.6</ele>
        <time>1982-03-26T13:03:35Z</time>
      </trkpt>
      <trkpt lat="43.93969" lon="7.41142">
        <ele>872.6</ele>
        <time>1982-03-26T13:03:36Z</time>
      </trkpt>
      <trkpt lat="43.93969" lon="7.41142">
        <ele>872.9</ele>
        <time>1982-03-26T13:03:38Z</time>
      </trkpt>
      <trkpt lat="43.93968" lon="7.41141">
        <ele>872</ele>
        <time>1982-03-26T13:03:40Z</time>
      </trkpt>
      <trkpt lat="43.93967" lon="7.4114">
        <ele>871.7</ele>
        <time>1982-03-26T13:03:41Z</time>
      </trkpt>
      <trkpt lat="43.93966" lon="7.41139">
        <ele>871.2</ele>
        <time>1982-03-26T13:03:42Z</time>
      </trkpt>
      <trkpt lat="43.93966" lon="7.41139">
        <ele>871.3</ele>
        <time>1982-03-26T13:03:43Z</time>
      </trkpt>
      <trkpt lat="43.93967" lon="7.41136">
        <ele>869.6</ele>
        <time>1982-03-26T13:03:45Z</time>
      </trkpt>
      <trkpt lat="43.93968" lon="7.41135">
        <ele>869.1</ele>
        <time>1982-03-26T13:03:46Z</time>
      </trkpt>
      <trkpt lat="43.93968" lon="7.41135">
        <ele>868.5</ele>
        <time>1982-03-26T13:03:47Z</time>
      </trkpt>
      <trkpt lat="43.93969" lon="7.41134">
        <ele>868.6</ele>
        <time>1982-03-26T13:03:48Z</time>
      </trkpt>
      <trkpt lat="43.9397" lon="7.41134">
        <ele>869</ele>
        <time>1982-03-26T13:03:49Z</time>
      </trkpt>
      <trkpt lat="43.93971" lon="7.41133">
        <ele>868.8</ele>
        <time>1982-03-26T13:03:51Z</time>
      </trkpt>
      <trkpt lat="43.93972" lon="7.41132">
        <ele>870</ele>
        <time>1982-03-26T13:03:52Z</time>
      </trkpt>
      <trkpt lat="43.93971" lon="7.41132">
        <ele>869.6</ele>
        <time>1982-03-26T13:03:53Z</time>
      </trkpt>
      <trkpt lat="43.93973" lon="7.41131">
        <ele>869</ele>
        <time>1982-03-26T13:03:55Z</time>
      </trkpt>
      <trkpt lat="43.93972" lon="7.4113">
        <ele>867.9</ele>
        <time>1982-03-26T13:03:56Z</time>
      </trkpt>
      <trkpt lat="43.93973" lon="7.4113">
        <ele>868.2</ele>
        <time>1982-03-26T13:03:57Z</time>
      </trkpt>
      <trkpt lat="43.93972" lon="7.41128">
        <ele>867.2</ele>
        <time>1982-03-26T13:03:59Z</time>
      </trkpt>
      <trkpt lat="43.93972" lon="7.41128">
        <ele>866.9</ele>
        <time>1982-03-26T13:04:00Z</time>
      </trkpt>
      <trkpt lat="43.93972" lon="7.41128">
        <ele>866.9</ele>
        <time>1982-03-26T13:04:04Z</time>
      </trkpt>
      <trkpt lat="43.93974" lon="7.41124">
        <ele>866.4</ele>
        <time>1982-03-26T13:04:06Z</time>
      </trkpt>
      <trkpt lat="43.93975" lon="7.41122">
        <ele>865.3</ele>
        <time>1982-03-26T13:04:07Z</time>
      </trkpt>
      <trkpt lat="43.93976" lon="7.4112">
        <ele>864.9</ele>
        <time>1982-03-26T13:04:08Z</time>
      </trkpt>
      <trkpt lat="43.93977" lon="7.41118">
        <ele>865.1</ele>
        <time>1982-03-26T13:04:09Z</time>
      </trkpt>
      <trkpt lat="43.93978" lon="7.41116">
        <ele>863.9</ele>
        <time>1982-03-26T13:04:10Z</time>
      </trkpt>
      <trkpt lat="43.93979" lon="7.41115">
        <ele>863.1</ele>
        <time>1982-03-26T13:04:11Z</time>
      </trkpt>
      <trkpt lat="43.9398" lon="7.41113">
        <ele>861.8</ele>
        <time>1982-03-26T13:04:12Z</time>
      </trkpt>
      <trkpt lat="43.93981" lon="7.41111">
        <ele>861.8</ele>
        <time>1982-03-26T13:04:13Z</time>
      </trkpt>
      <trkpt lat="43.93983" lon="7.41109">
        <ele>861.3</ele>
        <time>1982-03-26T13:04:14Z</time>
      </trkpt>
      <trkpt lat="43.93985" lon="7.41107">
        <ele>861.7</ele>
        <time>1982-03-26T13:04:15Z</time>
      </trkpt>
      <trkpt lat="43.93984" lon="7.41103">
        <ele>861.2</ele>
        <time>1982-03-26T13:04:16Z</time>
      </trkpt>
      <trkpt lat="43.93985" lon="7.411">
        <ele>861.5</ele>
        <time>1982-03-26T13:04:17Z</time>
      </trkpt>
      <trkpt lat="43.93986" lon="7.41098">
        <ele>860.8</ele>
        <time>1982-03-26T13:04:18Z</time>
      </trkpt>
      <trkpt lat="43.93986" lon="7.41095">
        <ele>859.7</ele>
        <time>1982-03-26T13:04:19Z</time>
      </trkpt>
      <trkpt lat="43.93986" lon="7.41092">
        <ele>858.6</ele>
        <time>1982-03-26T13:04:20Z</time>
      </trkpt>
      <trkpt lat="43.93989" lon="7.41092">
        <ele>858.4</ele>
        <time>1982-03-26T13:04:21Z</time>
      </trkpt>
      <trkpt lat="43.9399" lon="7.41093">
        <ele>857.6</ele>
        <time>1982-03-26T13:04:22Z</time>
      </trkpt>
      <trkpt lat="43.9399" lon="7.41094">
        <ele>856.8</ele>
        <time>1982-03-26T13:04:23Z</time>
      </trkpt>
      <trkpt lat="43.9399" lon="7.41094">
        <ele>856.6</ele>
        <time>1982-03-26T13:04:24Z</time>
      </trkpt>
      <trkpt lat="43.93989" lon="7.41095">
        <ele>856.2</ele>
        <time>1982-03-26T13:04:25Z</time>
      </trkpt>
      <trkpt lat="43.93991" lon="7.411">
        <ele>855.5</ele>
        <time>1982-03-26T13:04:27Z</time>
      </trkpt>
      <trkpt lat="43.93991" lon="7.41103">
        <ele>854.8</ele>
        <time>1982-03-26T13:04:28Z</time>
      </trkpt>
      <trkpt lat="43.93992" lon="7.41107">
        <ele>854.4</ele>
        <time>1982-03-26T13:04:29Z</time>
      </trkpt>
      <trkpt lat="43.93993" lon="7.41111">
        <ele>854</ele>
        <time>1982-03-26T13:04:30Z</time>
      </trkpt>
      <trkpt lat="43.93994" lon="7.41114">
        <ele>853.5</ele>
        <time>1982-03-26T13:04:31Z</time>
      </trkpt>
      <trkpt lat="43.93993" lon="7.41116">
        <ele>854.3</ele>
        <time>1982-03-26T13:04:32Z</time>
      </trkpt>
      <trkpt lat="43.93992" lon="7.4112">
        <ele>854.6</ele>
        <time>1982-03-26T13:04:33Z</time>
      </trkpt>
      <trkpt lat="43.9399" lon="7.41123">
        <ele>853.7</ele>
        <time>1982-03-26T13:04:34Z</time>
      </trkpt>
      <trkpt lat="43.93989" lon="7.41126">
        <ele>853.2</ele>
        <time>1982-03-26T13:04:35Z</time>
      </trkpt>
      <trkpt lat="43.93988" lon="7.41128">
        <ele>852.3</ele>
        <time>1982-03-26T13:04:36Z</time>
      </trkpt>
      <trkpt lat="43.93988" lon="7.4113">
        <ele>851.9</ele>
        <time>1982-03-26T13:04:37Z</time>
      </trkpt>
      <trkpt lat="43.93988" lon="7.4113">
        <ele>852</ele>
        <time>1982-03-26T13:04:38Z</time>
      </trkpt>
      <trkpt lat="43.93993" lon="7.41126">
        <ele>852.5</ele>
        <time>1982-03-26T13:04:40Z</time>
      </trkpt>
      <trkpt lat="43.93995" lon="7.41125">
        <ele>852.2</ele>
        <time>1982-03-26T13:04:41Z</time>
      </trkpt>
      <trkpt lat="43.93996" lon="7.41124">
        <ele>851.8</ele>
        <time>1982-03-26T13:04:42Z</time>
      </trkpt>
      <trkpt lat="43.93997" lon="7.41123">
        <ele>851.8</ele>
        <time>1982-03-26T13:04:43Z</time>
      </trkpt>
      <trkpt lat="43.93998" lon="7.41122">
        <ele>852</ele>
        <time>1982-03-26T13:04:44Z</time>
      </trkpt>
      <trkpt lat="43.93999" lon="7.4112">
        <ele>852.2</ele>
        <time>1982-03-26T13:04:45Z</time>
      </trkpt>
      <trkpt lat="43.94" lon="7.41119">
        <ele>851.4</ele>
        <time>1982-03-26T13:04:46Z</time>
      </trkpt>
      <trkpt lat="43.94" lon="7.41118">
        <ele>851.1</ele>
        <time>1982-03-26T13:04:48Z</time>
      </trkpt>
      <trkpt lat="43.94001" lon="7.41118">
        <ele>850.4</ele>
        <time>1982-03-26T13:04:50Z</time>
      </trkpt>
      <trkpt lat="43.94002" lon="7.41118">
        <ele>850.1</ele>
        <time>1982-03-26T13:04:51Z</time>
      </trkpt>
      <trkpt lat="43.94002" lon="7.41118">
        <ele>850.1</ele>
        <time>1982-03-26T13:04:51Z</time>
      </trkpt>
      <trkpt lat="43.94003" lon="7.41118">
        <ele>849.9</ele>
        <time>1982-03-26T13:04:53Z</time>
      </trkpt>
      <trkpt lat="43.94004" lon="7.41116">
        <ele>848.7</ele>
        <time>1982-03-26T13:04:56Z</time>
      </trkpt>
      <trkpt lat="43.94004" lon="7.41116">
        <ele>848.9</ele>
        <time>1982-03-26T13:04:56Z</time>
      </trkpt>
      <trkpt lat="43.94005" lon="7.41116">
        <ele>849</ele>
        <time>1982-03-26T13:04:57Z</time>
      </trkpt>
      <trkpt lat="43.94005" lon="7.41116">
        <ele>849</ele>
        <time>1982-03-26T13:04:59Z</time>
      </trkpt>
      <trkpt lat="43.94006" lon="7.41115">
        <ele>848.7</ele>
        <time>1982-03-26T13:05:01Z</time>
      </trkpt>
      <trkpt lat="43.94006" lon="7.41114">
        <ele>847.9</ele>
        <time>1982-03-26T13:05:02Z</time>
      </trkpt>
      <trkpt lat="43.94005" lon="7.41113">
        <ele>847.3</ele>
        <time>1982-03-26T13:05:03Z</time>
      </trkpt>
      <trkpt lat="43.94005" lon="7.41113">
        <ele>847.3</ele>
        <time>1982-03-26T13:05:03Z</time>
      </trkpt>
      <trkpt lat="43.94006" lon="7.41113">
        <ele>847</ele>
        <time>1982-03-26T13:05:06Z</time>
      </trkpt>
      <trkpt lat="43.94006" lon="7.41113">
        <ele>847.5</ele>
        <time>1982-03-26T13:05:08Z</time>
      </trkpt>
      <trkpt lat="43.94006" lon="7.41113">
        <ele>847.5</ele>
        <time>1982-03-26T13:05:09Z</time>
      </trkpt>
      <trkpt lat="43.94007" lon="7.41113">
        <ele>847.5</ele>
        <time>1982-03-26T13:05:11Z</time>
      </trkpt>
      <trkpt lat="43.94008" lon="7.41113">
        <ele>847.9</ele>
        <time>1982-03-26T13:05:12Z</time>
      </trkpt>
      <trkpt lat="43.94007" lon="7.41113">
        <ele>846.8</ele>
        <time>1982-03-26T13:05:13Z</time>
      </trkpt>
      <trkpt lat="43.94007" lon="7.41113">
        <ele>846.8</ele>
        <time>1982-03-26T13:05:14Z</time>
      </trkpt>
      <trkpt lat="43.94007" lon="7.41113">
        <ele>846.8</ele>
        <time>1982-03-26T13:05:16Z</time>
      </trkpt>
      <trkpt lat="43.94006" lon="7.41114">
        <ele>846.9</ele>
        <time>1982-03-26T13:05:18Z</time>
      </trkpt>
      <trkpt lat="43.94006" lon="7.41113">
        <ele>847</ele>
        <time>1982-03-26T13:05:19Z</time>
      </trkpt>
      <trkpt lat="43.94006" lon="7.41113">
        <ele>847</ele>
        <time>1982-03-26T13:05:26Z</time>
      </trkpt>
      <trkpt lat="43.94007" lon="7.41113">
        <ele>847.5</ele>
        <time>1982-03-26T13:05:28Z</time>
      </trkpt>
      <trkpt lat="43.94007" lon="7.41113">
        <ele>847.5</ele>
        <time>1982-03-26T13:05:52Z</time>
      </trkpt>
      <trkpt lat="43.94007" lon="7.41113">
        <ele>847.6</ele>
        <time>1982-03-26T13:05:54Z</time>
      </trkpt>
      <trkpt lat="43.94007" lon="7.41113">
        <ele>847.6</ele>
        <time>1982-03-26T13:06:00Z</time>
      </trkpt>
      <trkpt lat="43.94008" lon="7.4111">
        <ele>846.6</ele>
        <time>1982-03-26T13:06:02Z</time>
      </trkpt>
      <trkpt lat="43.94009" lon="7.41109">
        <ele>846.2</ele>
        <time>1982-03-26T13:06:03Z</time>
      </trkpt>
      <trkpt lat="43.9401" lon="7.41107">
        <ele>844.6</ele>
        <time>1982-03-26T13:06:05Z</time>
      </trkpt>
      <trkpt lat="43.9401" lon="7.41106">
        <ele>844.1</ele>
        <time>1982-03-26T13:06:06Z</time>
      </trkpt>
      <trkpt lat="43.9401" lon="7.41105">
        <ele>844.3</ele>
        <time>1982-03-26T13:06:07Z</time>
      </trkpt>
      <trkpt lat="43.94011" lon="7.41103">
        <ele>843.4</ele>
        <time>1982-03-26T13:06:08Z</time>
      </trkpt>
      <trkpt lat="43.94011" lon="7.41102">
        <ele>842.9</ele>
        <time>1982-03-26T13:06:09Z</time>
      </trkpt>
      <trkpt lat="43.9401" lon="7.411">
        <ele>842</ele>
        <time>1982-03-26T13:06:11Z</time>
      </trkpt>
      <trkpt lat="43.9401" lon="7.41099">
        <ele>841.9</ele>
        <time>1982-03-26T13:06:12Z</time>
      </trkpt>
      <trkpt lat="43.94011" lon="7.41098">
        <ele>841.3</ele>
        <time>1982-03-26T13:06:14Z</time>
      </trkpt>
      <trkpt lat="43.94012" lon="7.41098">
        <ele>841.2</ele>
        <time>1982-03-26T13:06:15Z</time>
      </trkpt>
      <trkpt lat="43.94012" lon="7.41098">
        <ele>841.2</ele>
        <time>1982-03-26T13:06:35Z</time>
      </trkpt>
      <trkpt lat="43.94013" lon="7.41101">
        <ele>840.1</ele>
        <time>1982-03-26T13:06:37Z</time>
      </trkpt>
      <trkpt lat="43.94013" lon="7.41102">
        <ele>840.1</ele>
        <time>1982-03-26T13:06:38Z</time>
      </trkpt>
      <trkpt lat="43.94013" lon="7.41102">
        <ele>840.1</ele>
        <time>1982-03-26T13:06:42Z</time>
      </trkpt>
      <trkpt lat="43.94014" lon="7.41103">
        <ele>840.2</ele>
        <time>1982-03-26T13:06:44Z</time>
      </trkpt>
      <trkpt lat="43.94015" lon="7.41104">
        <ele>839.4</ele>
        <time>1982-03-26T13:06:45Z</time>
      </trkpt>
      <trkpt lat="43.94015" lon="7.41104">
        <ele>838.6</ele>
        <time>1982-03-26T13:06:46Z</time>
      </trkpt>
      <trkpt lat="43.94016" lon="7.41106">
        <ele>837.6</ele>
        <time>1982-03-26T13:06:48Z</time>
      </trkpt>
      <trkpt lat="43.94016" lon="7.41106">
        <ele>837.3</ele>
        <time>1982-03-26T13:06:50Z</time>
      </trkpt>
      <trkpt lat="43.94016" lon="7.41107">
        <ele>836.3</ele>
        <time>1982-03-26T13:06:52Z</time>
      </trkpt>
      <trkpt lat="43.94017" lon="7.41106">
        <ele>836.5</ele>
        <time>1982-03-26T13:06:53Z</time>
      </trkpt>
      <trkpt lat="43.94017" lon="7.41107">
        <ele>836.6</ele>
        <time>1982-03-26T13:06:54Z</time>
      </trkpt>
      <trkpt lat="43.94017" lon="7.41107">
        <ele>836.6</ele>
        <time>1982-03-26T13:06:58Z</time>
      </trkpt>
      <trkpt lat="43.94018" lon="7.41107">
        <ele>836.9</ele>
        <time>1982-03-26T13:07:00Z</time>
      </trkpt>
      <trkpt lat="43.94018" lon="7.41107">
        <ele>836.9</ele>
        <time>1982-03-26T13:07:00Z</time>
      </trkpt>
      <trkpt lat="43.94018" lon="7.41107">
        <ele>837.2</ele>
        <time>1982-03-26T13:07:02Z</time>
      </trkpt>
      <trkpt lat="43.94018" lon="7.41107">
        <ele>837.2</ele>
        <time>1982-03-26T13:07:05Z</time>
      </trkpt>
      <trkpt lat="43.9402" lon="7.41108">
        <ele>835.5</ele>
        <time>1982-03-26T13:07:07Z</time>
      </trkpt>
      <trkpt lat="43.9402" lon="7.41108">
        <ele>835.6</ele>
        <time>1982-03-26T13:07:08Z</time>
      </trkpt>
      <trkpt lat="43.9402" lon="7.41108">
        <ele>835.6</ele>
        <time>1982-03-26T13:07:09Z</time>
      </trkpt>
      <trkpt lat="43.94021" lon="7.41108">
        <ele>835.6</ele>
        <time>1982-03-26T13:07:11Z</time>
      </trkpt>
      <trkpt lat="43.94021" lon="7.41108">
        <ele>835.6</ele>
        <time>1982-03-26T13:07:12Z</time>
      </trkpt>
      <trkpt lat="43.94021" lon="7.41107">
        <ele>836</ele>
        <time>1982-03-26T13:07:14Z</time>
      </trkpt>
      <trkpt lat="43.94021" lon="7.41107">
        <ele>836</ele>
        <time>1982-03-26T13:07:14Z</time>
      </trkpt>
      <trkpt lat="43.94022" lon="7.41108">
        <ele>836</ele>
        <time>1982-03-26T13:07:17Z</time>
      </trkpt>
      <trkpt lat="43.94026" lon="7.41112">
        <ele>833.9</ele>
        <time>1982-03-26T13:07:20Z</time>
      </trkpt>
      <trkpt lat="43.94028" lon="7.41113">
        <ele>833.8</ele>
        <time>1982-03-26T13:07:21Z</time>
      </trkpt>
      <trkpt lat="43.9403" lon="7.41113">
        <ele>833.8</ele>
        <time>1982-03-26T13:07:22Z</time>
      </trkpt>
      <trkpt lat="43.94032" lon="7.41112">
        <ele>833.7</ele>
        <time>1982-03-26T13:07:23Z</time>
      </trkpt>
      <trkpt lat="43.94034" lon="7.41114">
        <ele>834</ele>
        <time>1982-03-26T13:07:24Z</time>
      </trkpt>
      <trkpt lat="43.94035" lon="7.41114">
        <ele>834.4</ele>
        <time>1982-03-26T13:07:25Z</time>
      </trkpt>
      <trkpt lat="43.94037" lon="7.41113">
        <ele>833.9</ele>
        <time>1982-03-26T13:07:26Z</time>
      </trkpt>
      <trkpt lat="43.9404" lon="7.41112">
        <ele>833.4</ele>
        <time>1982-03-26T13:07:27Z</time>
      </trkpt>
      <trkpt lat="43.9404" lon="7.41112">
        <ele>833.3</ele>
        <time>1982-03-26T13:07:28Z</time>
      </trkpt>
      <trkpt lat="43.94041" lon="7.41112">
        <ele>834.4</ele>
        <time>1982-03-26T13:07:30Z</time>
      </trkpt>
      <trkpt lat="43.94043" lon="7.41113">
        <ele>834.7</ele>
        <time>1982-03-26T13:07:32Z</time>
      </trkpt>
      <trkpt lat="43.94043" lon="7.41113">
        <ele>834.6</ele>
        <time>1982-03-26T13:07:32Z</time>
      </trkpt>
      <trkpt lat="43.94045" lon="7.4111">
        <ele>833.5</ele>
        <time>1982-03-26T13:07:34Z</time>
      </trkpt>
      <trkpt lat="43.94047" lon="7.41112">
        <ele>832.9</ele>
        <time>1982-03-26T13:07:35Z</time>
      </trkpt>
      <trkpt lat="43.94048" lon="7.41113">
        <ele>833.1</ele>
        <time>1982-03-26T13:07:36Z</time>
      </trkpt>
      <trkpt lat="43.94049" lon="7.41115">
        <ele>832.4</ele>
        <time>1982-03-26T13:07:37Z</time>
      </trkpt>
      <trkpt lat="43.9405" lon="7.41116">
        <ele>832.5</ele>
        <time>1982-03-26T13:07:39Z</time>
      </trkpt>
      <trkpt lat="43.94052" lon="7.41118">
        <ele>832.2</ele>
        <time>1982-03-26T13:07:41Z</time>
      </trkpt>
      <trkpt lat="43.94052" lon="7.41118">
        <ele>832.3</ele>
        <time>1982-03-26T13:07:42Z</time>
      </trkpt>
      <trkpt lat="43.94052" lon="7.41118">
        <ele>832.3</ele>
        <time>1982-03-26T13:07:42Z</time>
      </trkpt>
      <trkpt lat="43.94053" lon="7.41118">
        <ele>832.5</ele>
        <time>1982-03-26T13:07:46Z</time>
      </trkpt>
      <trkpt lat="43.94057" lon="7.41122">
        <ele>832.2</ele>
        <time>1982-03-26T13:07:49Z</time>
      </trkpt>
      <trkpt lat="43.94058" lon="7.41123">
        <ele>832.5</ele>
        <time>1982-03-26T13:07:50Z</time>
      </trkpt>
      <trkpt lat="43.94059" lon="7.41125">
        <ele>831.5</ele>
        <time>1982-03-26T13:07:51Z</time>
      </trkpt>
      <trkpt lat="43.9406" lon="7.41126">
        <ele>831.4</ele>
        <time>1982-03-26T13:07:52Z</time>
      </trkpt>
      <trkpt lat="43.94061" lon="7.41127">
        <ele>831.6</ele>
        <time>1982-03-26T13:07:53Z</time>
      </trkpt>
      <trkpt lat="43.94063" lon="7.41129">
        <ele>830.9</ele>
        <time>1982-03-26T13:07:54Z</time>
      </trkpt>
      <trkpt lat="43.94063" lon="7.41129">
        <ele>829.9</ele>
        <time>1982-03-26T13:07:55Z</time>
      </trkpt>
      <trkpt lat="43.94063" lon="7.41129">
        <ele>829.3</ele>
        <time>1982-03-26T13:07:56Z</time>
      </trkpt>
      <trkpt lat="43.94063" lon="7.4113">
        <ele>829.1</ele>
        <time>1982-03-26T13:07:58Z</time>
      </trkpt>
      <trkpt lat="43.94063" lon="7.4113">
        <ele>829.1</ele>
        <time>1982-03-26T13:08:00Z</time>
      </trkpt>
      <trkpt lat="43.94063" lon="7.41131">
        <ele>829.5</ele>
        <time>1982-03-26T13:08:02Z</time>
      </trkpt>
      <trkpt lat="43.94063" lon="7.41131">
        <ele>829.5</ele>
        <time>1982-03-26T13:08:03Z</time>
      </trkpt>
      <trkpt lat="43.94063" lon="7.41131">
        <ele>829.2</ele>
        <time>1982-03-26T13:08:05Z</time>
      </trkpt>
      <trkpt lat="43.94063" lon="7.41131">
        <ele>829.2</ele>
        <time>1982-03-26T13:08:05Z</time>
      </trkpt>
      <trkpt lat="43.94064" lon="7.4113">
        <ele>829.3</ele>
        <time>1982-03-26T13:08:07Z</time>
      </trkpt>
      <trkpt lat="43.94064" lon="7.41131">
        <ele>829.1</ele>
        <time>1982-03-26T13:08:08Z</time>
      </trkpt>
      <trkpt lat="43.94064" lon="7.41131">
        <ele>829.1</ele>
        <time>1982-03-26T13:08:09Z</time>
      </trkpt>
      <trkpt lat="43.94066" lon="7.41132">
        <ele>828.1</ele>
        <time>1982-03-26T13:08:11Z</time>
      </trkpt>
      <trkpt lat="43.94066" lon="7.41133">
        <ele>828.2</ele>
        <time>1982-03-26T13:08:12Z</time>
      </trkpt>
      <trkpt lat="43.94066" lon="7.41133">
        <ele>828.2</ele>
        <time>1982-03-26T13:08:14Z</time>
      </trkpt>
      <trkpt lat="43.94066" lon="7.41134">
        <ele>828.5</ele>
        <time>1982-03-26T13:08:16Z</time>
      </trkpt>
      <trkpt lat="43.94066" lon="7.41134">
        <ele>828.7</ele>
        <time>1982-03-26T13:08:17Z</time>
      </trkpt>
      <trkpt lat="43.94066" lon="7.41134">
        <ele>828.7</ele>
        <time>1982-03-26T13:08:22Z</time>
      </trkpt>
      <trkpt lat="43.94066" lon="7.41135">
        <ele>829.2</ele>
        <time>1982-03-26T13:08:24Z</time>
      </trkpt>
      <trkpt lat="43.94066" lon="7.41135">
        <ele>829.2</ele>
        <time>1982-03-26T13:08:30Z</time>
      </trkpt>
      <trkpt lat="43.94067" lon="7.41135">
        <ele>829.6</ele>
        <time>1982-03-26T13:08:32Z</time>
      </trkpt>
      <trkpt lat="43.94067" lon="7.41135">
        <ele>829.6</ele>
        <time>1982-03-26T13:08:37Z</time>
      </trkpt>
      <trkpt lat="43.94069" lon="7.41136">
        <ele>830.8</ele>
        <time>1982-03-26T13:08:39Z</time>
      </trkpt>
      <trkpt lat="43.94071" lon="7.41136">
        <ele>830.6</ele>
        <time>1982-03-26T13:08:40Z</time>
      </trkpt>
      <trkpt lat="43.94071" lon="7.41135">
        <ele>830.6</ele>
        <time>1982-03-26T13:08:41Z</time>
      </trkpt>
      <trkpt lat="43.94071" lon="7.41135">
        <ele>830.6</ele>
        <time>1982-03-26T13:08:44Z</time>
      </trkpt>
      <trkpt lat="43.94072" lon="7.41136">
        <ele>830.8</ele>
        <time>1982-03-26T13:08:46Z</time>
      </trkpt>
      <trkpt lat="43.94072" lon="7.41136">
        <ele>830.8</ele>
        <time>1982-03-26T13:08:46Z</time>
      </trkpt>
      <trkpt lat="43.94073" lon="7.41136">
        <ele>831.9</ele>
        <time>1982-03-26T13:08:48Z</time>
      </trkpt>
      <trkpt lat="43.94073" lon="7.41136">
        <ele>831.7</ele>
        <time>1982-03-26T13:08:49Z</time>
      </trkpt>
      <trkpt lat="43.94073" lon="7.41136">
        <ele>831.7</ele>
        <time>1982-03-26T13:08:56Z</time>
      </trkpt>
      <trkpt lat="43.94074" lon="7.41137">
        <ele>831.7</ele>
        <time>1982-03-26T13:08:58Z</time>
      </trkpt>
      <trkpt lat="43.94074" lon="7.41137">
        <ele>831.9</ele>
        <time>1982-03-26T13:08:59Z</time>
      </trkpt>
      <trkpt lat="43.94074" lon="7.41137">
        <ele>831.9</ele>
        <time>1982-03-26T13:09:13Z</time>
      </trkpt>
      <trkpt lat="43.94075" lon="7.41137">
        <ele>832.5</ele>
        <time>1982-03-26T13:09:15Z</time>
      </trkpt>
      <trkpt lat="43.94075" lon="7.41137">
        <ele>832.5</ele>
        <time>1982-03-26T13:09:18Z</time>
      </trkpt>
      <trkpt lat="43.94075" lon="7.41138">
        <ele>832.9</ele>
        <time>1982-03-26T13:09:20Z</time>
      </trkpt>
      <trkpt lat="43.94075" lon="7.41138">
        <ele>832.9</ele>
        <time>1982-03-26T13:09:24Z</time>
      </trkpt>
      <trkpt lat="43.94076" lon="7.41138">
        <ele>833.4</ele>
        <time>1982-03-26T13:09:26Z</time>
      </trkpt>
      <trkpt lat="43.94076" lon="7.41138">
        <ele>833.4</ele>
        <time>1982-03-26T13:09:57Z</time>
      </trkpt>
      <trkpt lat="43.94076" lon="7.41138">
        <ele>833.9</ele>
        <time>1982-03-26T13:09:59Z</time>
      </trkpt>
      <trkpt lat="43.94076" lon="7.41138">
        <ele>833.9</ele>
        <time>1982-03-26T13:10:37Z</time>
      </trkpt>
      <trkpt lat="43.94076" lon="7.41138">
        <ele>834.4</ele>
        <time>1982-03-26T13:10:39Z</time>
      </trkpt>
      <trkpt lat="43.94076" lon="7.41138">
        <ele>834.4</ele>
        <time>1982-03-26T13:11:22Z</time>
      </trkpt>
      <trkpt lat="43.94079" lon="7.4114">
        <ele>834.1</ele>
        <time>1982-03-26T13:11:24Z</time>
      </trkpt>
      <trkpt lat="43.94079" lon="7.4114">
        <ele>834.1</ele>
        <time>1982-03-26T13:11:25Z</time>
      </trkpt>
      <trkpt lat="43.94082" lon="7.41139">
        <ele>834.6</ele>
        <time>1982-03-26T13:11:27Z</time>
      </trkpt>
      <trkpt lat="43.94083" lon="7.41139">
        <ele>836</ele>
        <time>1982-03-26T13:11:28Z</time>
      </trkpt>
      <trkpt lat="43.94084" lon="7.4114">
        <ele>837.4</ele>
        <time>1982-03-26T13:11:29Z</time>
      </trkpt>
      <trkpt lat="43.94085" lon="7.4114">
        <ele>837.8</ele>
        <time>1982-03-26T13:11:30Z</time>
      </trkpt>
      <trkpt lat="43.94087" lon="7.41141">
        <ele>839</ele>
        <time>1982-03-26T13:11:32Z</time>
      </trkpt>
      <trkpt lat="43.94087" lon="7.41141">
        <ele>839.8</ele>
        <time>1982-03-26T13:11:33Z</time>
      </trkpt>
      <trkpt lat="43.94087" lon="7.41141">
        <ele>839.8</ele>
        <time>1982-03-26T13:11:33Z</time>
      </trkpt>
      <trkpt lat="43.94087" lon="7.4114">
        <ele>840.2</ele>
        <time>1982-03-26T13:11:36Z</time>
      </trkpt>
      <trkpt lat="43.94088" lon="7.41139">
        <ele>840.5</ele>
        <time>1982-03-26T13:11:38Z</time>
      </trkpt>
      <trkpt lat="43.94088" lon="7.41138">
        <ele>840.6</ele>
        <time>1982-03-26T13:11:39Z</time>
      </trkpt>
      <trkpt lat="43.94089" lon="7.41137">
        <ele>841.3</ele>
        <time>1982-03-26T13:11:41Z</time>
      </trkpt>
      <trkpt lat="43.94089" lon="7.41136">
        <ele>840.4</ele>
        <time>1982-03-26T13:11:42Z</time>
      </trkpt>
      <trkpt lat="43.94088" lon="7.41135">
        <ele>838.4</ele>
        <time>1982-03-26T13:11:43Z</time>
      </trkpt>
      <trkpt lat="43.94088" lon="7.41134">
        <ele>838.4</ele>
        <time>1982-03-26T13:11:44Z</time>
      </trkpt>
      <trkpt lat="43.94088" lon="7.41134">
        <ele>838.4</ele>
        <time>1982-03-26T13:11:46Z</time>
      </trkpt>
      <trkpt lat="43.94089" lon="7.41133">
        <ele>838.4</ele>
        <time>1982-03-26T13:11:48Z</time>
      </trkpt>
      <trkpt lat="43.94089" lon="7.41132">
        <ele>838.5</ele>
        <time>1982-03-26T13:11:50Z</time>
      </trkpt>
      <trkpt lat="43.94091" lon="7.41129">
        <ele>838.2</ele>
        <time>1982-03-26T13:11:52Z</time>
      </trkpt>
      <trkpt lat="43.94091" lon="7.41128">
        <ele>837.6</ele>
        <time>1982-03-26T13:11:53Z</time>
      </trkpt>
      <trkpt lat="43.94092" lon="7.41127">
        <ele>838.1</ele>
        <time>1982-03-26T13:11:54Z</time>
      </trkpt>
      <trkpt lat="43.94093" lon="7.41127">
        <ele>838.4</ele>
        <time>1982-03-26T13:11:55Z</time>
      </trkpt>
      <trkpt lat="43.94094" lon="7.41125">
        <ele>838.4</ele>
        <time>1982-03-26T13:11:57Z</time>
      </trkpt>
      <trkpt lat="43.94094" lon="7.41124">
        <ele>838.5</ele>
        <time>1982-03-26T13:11:58Z</time>
      </trkpt>
      <trkpt lat="43.94095" lon="7.41123">
        <ele>838</ele>
        <time>1982-03-26T13:12:00Z</time>
      </trkpt>
      <trkpt lat="43.94095" lon="7.41123">
        <ele>838.2</ele>
        <time>1982-03-26T13:12:01Z</time>
      </trkpt>
      <trkpt lat="43.94095" lon="7.41121">
        <ele>838</ele>
        <time>1982-03-26T13:12:03Z</time>
      </trkpt>
      <trkpt lat="43.94096" lon="7.4112">
        <ele>838.3</ele>
        <time>1982-03-26T13:12:04Z</time>
      </trkpt>
      <trkpt lat="43.94096" lon="7.41119">
        <ele>836.7</ele>
        <time>1982-03-26T13:12:06Z</time>
      </trkpt>
      <trkpt lat="43.94097" lon="7.41118">
        <ele>837.5</ele>
        <time>1982-03-26T13:12:07Z</time>
      </trkpt>
      <trkpt lat="43.94097" lon="7.41116">
        <ele>838.2</ele>
        <time>1982-03-26T13:12:08Z</time>
      </trkpt>
      <trkpt lat="43.94097" lon="7.41115">
        <ele>838.2</ele>
        <time>1982-03-26T13:12:09Z</time>
      </trkpt>
      <trkpt lat="43.94097" lon="7.41114">
        <ele>838.3</ele>
        <time>1982-03-26T13:12:10Z</time>
      </trkpt>
      <trkpt lat="43.94098" lon="7.41113">
        <ele>837.9</ele>
        <time>1982-03-26T13:12:11Z</time>
      </trkpt>
      <trkpt lat="43.94099" lon="7.41112">
        <ele>837.2</ele>
        <time>1982-03-26T13:12:13Z</time>
      </trkpt>
      <trkpt lat="43.94099" lon="7.4111">
        <ele>837.2</ele>
        <time>1982-03-26T13:12:14Z</time>
      </trkpt>
      <trkpt lat="43.94099" lon="7.41109">
        <ele>837.9</ele>
        <time>1982-03-26T13:12:15Z</time>
      </trkpt>
      <trkpt lat="43.94099" lon="7.41109">
        <ele>837.5</ele>
        <time>1982-03-26T13:12:16Z</time>
      </trkpt>
      <trkpt lat="43.94099" lon="7.41109">
        <ele>837.5</ele>
        <time>1982-03-26T13:12:21Z</time>
      </trkpt>
      <trkpt lat="43.94099" lon="7.41109">
        <ele>837.7</ele>
        <time>1982-03-26T13:12:23Z</time>
      </trkpt>
      <trkpt lat="43.94099" lon="7.41109">
        <ele>837.7</ele>
        <time>1982-03-26T13:12:32Z</time>
      </trkpt>
      <trkpt lat="43.94099" lon="7.4111">
        <ele>838.6</ele>
        <time>1982-03-26T13:12:34Z</time>
      </trkpt>
      <trkpt lat="43.94099" lon="7.41111">
        <ele>838.8</ele>
        <time>1982-03-26T13:12:37Z</time>
      </trkpt>
      <trkpt lat="43.941" lon="7.41112">
        <ele>840</ele>
        <time>1982-03-26T13:12:40Z</time>
      </trkpt>
      <trkpt lat="43.941" lon="7.41113">
        <ele>840.2</ele>
        <time>1982-03-26T13:12:41Z</time>
      </trkpt>
      <trkpt lat="43.94101" lon="7.41114">
        <ele>840.2</ele>
        <time>1982-03-26T13:12:42Z</time>
      </trkpt>
      <trkpt lat="43.941" lon="7.41115">
        <ele>841.8</ele>
        <time>1982-03-26T13:12:44Z</time>
      </trkpt>
      <trkpt lat="43.94099" lon="7.41116">
        <ele>842.6</ele>
        <time>1982-03-26T13:12:45Z</time>
      </trkpt>
      <trkpt lat="43.94099" lon="7.41116">
        <ele>842.6</ele>
        <time>1982-03-26T13:12:45Z</time>
      </trkpt>
      <trkpt lat="43.941" lon="7.41116">
        <ele>843.3</ele>
        <time>1982-03-26T13:12:47Z</time>
      </trkpt>
      <trkpt lat="43.941" lon="7.41117">
        <ele>843.5</ele>
        <time>1982-03-26T13:12:48Z</time>
      </trkpt>
      <trkpt lat="43.941" lon="7.41117">
        <ele>843.5</ele>
        <time>1982-03-26T13:12:51Z</time>
      </trkpt>
      <trkpt lat="43.941" lon="7.41118">
        <ele>843.7</ele>
        <time>1982-03-26T13:12:53Z</time>
      </trkpt>
      <trkpt lat="43.941" lon="7.41118">
        <ele>843.7</ele>
        <time>1982-03-26T13:12:54Z</time>
      </trkpt>
      <trkpt lat="43.941" lon="7.41119">
        <ele>843.5</ele>
        <time>1982-03-26T13:12:56Z</time>
      </trkpt>
      <trkpt lat="43.941" lon="7.41119">
        <ele>843.5</ele>
        <time>1982-03-26T13:13:07Z</time>
      </trkpt>
      <trkpt lat="43.94099" lon="7.4112">
        <ele>844.4</ele>
        <time>1982-03-26T13:13:09Z</time>
      </trkpt>
      <trkpt lat="43.94099" lon="7.4112">
        <ele>845.1</ele>
        <time>1982-03-26T13:13:10Z</time>
      </trkpt>
      <trkpt lat="43.94099" lon="7.4112">
        <ele>845.1</ele>
        <time>1982-03-26T13:13:12Z</time>
      </trkpt>
      <trkpt lat="43.94099" lon="7.4112">
        <ele>845.2</ele>
        <time>1982-03-26T13:13:14Z</time>
      </trkpt>
      <trkpt lat="43.94099" lon="7.4112">
        <ele>845.2</ele>
        <time>1982-03-26T13:13:23Z</time>
      </trkpt>
      <trkpt lat="43.941" lon="7.41123">
        <ele>845.4</ele>
        <time>1982-03-26T13:13:25Z</time>
      </trkpt>
      <trkpt lat="43.94101" lon="7.41125">
        <ele>844.8</ele>
        <time>1982-03-26T13:13:26Z</time>
      </trkpt>
      <trkpt lat="43.94101" lon="7.41126">
        <ele>844.9</ele>
        <time>1982-03-26T13:13:27Z</time>
      </trkpt>
      <trkpt lat="43.94101" lon="7.41128">
        <ele>844.5</ele>
        <time>1982-03-26T13:13:28Z</time>
      </trkpt>
      <trkpt lat="43.94101" lon="7.41129">
        <ele>844.4</ele>
        <time>1982-03-26T13:13:29Z</time>
      </trkpt>
      <trkpt lat="43.941" lon="7.41131">
        <ele>843.9</ele>
        <time>1982-03-26T13:13:30Z</time>
      </trkpt>
      <trkpt lat="43.941" lon="7.41132">
        <ele>843.9</ele>
        <time>1982-03-26T13:13:31Z</time>
      </trkpt>
      <trkpt lat="43.94099" lon="7.41132">
        <ele>843.9</ele>
        <time>1982-03-26T13:13:32Z</time>
      </trkpt>
      <trkpt lat="43.941" lon="7.41135">
        <ele>843.4</ele>
        <time>1982-03-26T13:13:34Z</time>
      </trkpt>
      <trkpt lat="43.941" lon="7.41135">
        <ele>843.4</ele>
        <time>1982-03-26T13:13:35Z</time>
      </trkpt>
      <trkpt lat="43.941" lon="7.41138">
        <ele>842.5</ele>
        <time>1982-03-26T13:13:37Z</time>
      </trkpt>
      <trkpt lat="43.941" lon="7.41139">
        <ele>842.5</ele>
        <time>1982-03-26T13:13:38Z</time>
      </trkpt>
      <trkpt lat="43.941" lon="7.41139">
        <ele>842.5</ele>
        <time>1982-03-26T13:13:38Z</time>
      </trkpt>
      <trkpt lat="43.941" lon="7.41141">
        <ele>842.8</ele>
        <time>1982-03-26T13:13:40Z</time>
      </trkpt>
      <trkpt lat="43.94101" lon="7.41143">
        <ele>843</ele>
        <time>1982-03-26T13:13:41Z</time>
      </trkpt>
      <trkpt lat="43.94101" lon="7.41144">
        <ele>843.4</ele>
        <time>1982-03-26T13:13:42Z</time>
      </trkpt>
      <trkpt lat="43.94102" lon="7.41145">
        <ele>842.6</ele>
        <time>1982-03-26T13:13:43Z</time>
      </trkpt>
      <trkpt lat="43.94102" lon="7.41146">
        <ele>843</ele>
        <time>1982-03-26T13:13:45Z</time>
      </trkpt>
      <trkpt lat="43.94102" lon="7.41146">
        <ele>843.1</ele>
        <time>1982-03-26T13:13:46Z</time>
      </trkpt>
      <trkpt lat="43.94103" lon="7.41147">
        <ele>843.9</ele>
        <time>1982-03-26T13:13:48Z</time>
      </trkpt>
      <trkpt lat="43.94103" lon="7.41148">
        <ele>844.2</ele>
        <time>1982-03-26T13:13:49Z</time>
      </trkpt>
      <trkpt lat="43.94104" lon="7.41149">
        <ele>844.4</ele>
        <time>1982-03-26T13:13:51Z</time>
      </trkpt>
      <trkpt lat="43.94104" lon="7.41151">
        <ele>844.5</ele>
        <time>1982-03-26T13:13:52Z</time>
      </trkpt>
      <trkpt lat="43.94105" lon="7.41151">
        <ele>844.7</ele>
        <time>1982-03-26T13:13:53Z</time>
      </trkpt>
      <trkpt lat="43.94105" lon="7.41152">
        <ele>844.7</ele>
        <time>1982-03-26T13:13:55Z</time>
      </trkpt>
      <trkpt lat="43.94105" lon="7.41152">
        <ele>844.8</ele>
        <time>1982-03-26T13:13:56Z</time>
      </trkpt>
      <trkpt lat="43.94105" lon="7.41152">
        <ele>844.8</ele>
        <time>1982-03-26T13:14:00Z</time>
      </trkpt>
      <trkpt lat="43.94106" lon="7.41156">
        <ele>845.5</ele>
        <time>1982-03-26T13:14:02Z</time>
      </trkpt>
      <trkpt lat="43.94106" lon="7.41157">
        <ele>845.8</ele>
        <time>1982-03-26T13:14:03Z</time>
      </trkpt>
      <trkpt lat="43.94107" lon="7.41159">
        <ele>845.8</ele>
        <time>1982-03-26T13:14:04Z</time>
      </trkpt>
      <trkpt lat="43.94107" lon="7.4116">
        <ele>846.2</ele>
        <time>1982-03-26T13:14:05Z</time>
      </trkpt>
      <trkpt lat="43.94107" lon="7.41161">
        <ele>846.5</ele>
        <time>1982-03-26T13:14:06Z</time>
      </trkpt>
      <trkpt lat="43.94108" lon="7.41162">
        <ele>846.2</ele>
        <time>1982-03-26T13:14:08Z</time>
      </trkpt>
      <trkpt lat="43.94108" lon="7.41163">
        <ele>846.3</ele>
        <time>1982-03-26T13:14:09Z</time>
      </trkpt>
      <trkpt lat="43.94109" lon="7.41164">
        <ele>847.2</ele>
        <time>1982-03-26T13:14:11Z</time>
      </trkpt>
      <trkpt lat="43.94109" lon="7.41165">
        <ele>848</ele>
        <time>1982-03-26T13:14:12Z</time>
      </trkpt>
      <trkpt lat="43.94109" lon="7.41166">
        <ele>849.1</ele>
        <time>1982-03-26T13:14:13Z</time>
      </trkpt>
      <trkpt lat="43.9411" lon="7.41166">
        <ele>850.1</ele>
        <time>1982-03-26T13:14:14Z</time>
      </trkpt>
      <trkpt lat="43.94111" lon="7.41167">
        <ele>851.1</ele>
        <time>1982-03-26T13:14:15Z</time>
      </trkpt>
      <trkpt lat="43.94111" lon="7.41168">
        <ele>851.3</ele>
        <time>1982-03-26T13:14:16Z</time>
      </trkpt>
      <trkpt lat="43.94111" lon="7.41169">
        <ele>851.3</ele>
        <time>1982-03-26T13:14:17Z</time>
      </trkpt>
      <trkpt lat="43.94112" lon="7.41171">
        <ele>851.1</ele>
        <time>1982-03-26T13:14:19Z</time>
      </trkpt>
      <trkpt lat="43.94112" lon="7.41172">
        <ele>851.1</ele>
        <time>1982-03-26T13:14:20Z</time>
      </trkpt>
      <trkpt lat="43.94114" lon="7.41175">
        <ele>851</ele>
        <time>1982-03-26T13:14:22Z</time>
      </trkpt>
      <trkpt lat="43.94115" lon="7.41177">
        <ele>851.1</ele>
        <time>1982-03-26T13:14:23Z</time>
      </trkpt>
      <trkpt lat="43.94116" lon="7.4118">
        <ele>850.7</ele>
        <time>1982-03-26T13:14:24Z</time>
      </trkpt>
      <trkpt lat="43.94117" lon="7.41182">
        <ele>850.1</ele>
        <time>1982-03-26T13:14:25Z</time>
      </trkpt>
      <trkpt lat="43.94118" lon="7.41183">
        <ele>850.1</ele>
        <time>1982-03-26T13:14:26Z</time>
      </trkpt>
      <trkpt lat="43.94118" lon="7.41184">
        <ele>850.1</ele>
        <time>1982-03-26T13:14:27Z</time>
      </trkpt>
      <trkpt lat="43.9412" lon="7.41192">
        <ele>847.8</ele>
        <time>1982-03-26T13:14:29Z</time>
      </trkpt>
      <trkpt lat="43.94121" lon="7.41194">
        <ele>847.9</ele>
        <time>1982-03-26T13:14:30Z</time>
      </trkpt>
      <trkpt lat="43.94122" lon="7.41195">
        <ele>848</ele>
        <time>1982-03-26T13:14:31Z</time>
      </trkpt>
      <trkpt lat="43.94123" lon="7.41196">
        <ele>848</ele>
        <time>1982-03-26T13:14:32Z</time>
      </trkpt>
      <trkpt lat="43.94123" lon="7.41199">
        <ele>848.1</ele>
        <time>1982-03-26T13:14:33Z</time>
      </trkpt>
      <trkpt lat="43.94123" lon="7.412">
        <ele>847.9</ele>
        <time>1982-03-26T13:14:34Z</time>
      </trkpt>
      <trkpt lat="43.94124" lon="7.41203">
        <ele>847.6</ele>
        <time>1982-03-26T13:14:35Z</time>
      </trkpt>
      <trkpt lat="43.94123" lon="7.41204">
        <ele>847.9</ele>
        <time>1982-03-26T13:14:36Z</time>
      </trkpt>
      <trkpt lat="43.94123" lon="7.41205">
        <ele>847.7</ele>
        <time>1982-03-26T13:14:37Z</time>
      </trkpt>
      <trkpt lat="43.94122" lon="7.41207">
        <ele>847.5</ele>
        <time>1982-03-26T13:14:38Z</time>
      </trkpt>
      <trkpt lat="43.94122" lon="7.41207">
        <ele>847.3</ele>
        <time>1982-03-26T13:14:39Z</time>
      </trkpt>
      <trkpt lat="43.94126" lon="7.41205">
        <ele>847.4</ele>
        <time>1982-03-26T13:14:41Z</time>
      </trkpt>
      <trkpt lat="43.94126" lon="7.41204">
        <ele>848.1</ele>
        <time>1982-03-26T13:14:42Z</time>
      </trkpt>
      <trkpt lat="43.94127" lon="7.41203">
        <ele>848.2</ele>
        <time>1982-03-26T13:14:43Z</time>
      </trkpt>
      <trkpt lat="43.94127" lon="7.41203">
        <ele>848.2</ele>
        <time>1982-03-26T13:16:13Z</time>
      </trkpt>
      <trkpt lat="43.94136" lon="7.41197">
        <ele>847.8</ele>
        <time>1982-03-26T13:16:17Z</time>
      </trkpt>
      <trkpt lat="43.94133" lon="7.41202">
        <ele>850.2</ele>
        <time>1982-03-26T13:16:18Z</time>
      </trkpt>
      <trkpt lat="43.94132" lon="7.41198">
        <ele>851.1</ele>
        <time>1982-03-26T13:16:19Z</time>
      </trkpt>
      <trkpt lat="43.94138" lon="7.41189">
        <ele>850.8</ele>
        <time>1982-03-26T13:16:20Z</time>
      </trkpt>
      <trkpt lat="43.94139" lon="7.41184">
        <ele>848.7</ele>
        <time>1982-03-26T13:16:21Z</time>
      </trkpt>
      <trkpt lat="43.94136" lon="7.41204">
        <ele>850</ele>
        <time>1982-03-26T13:16:22Z</time>
      </trkpt>
      <trkpt lat="43.94134" lon="7.41212">
        <ele>853</ele>
        <time>1982-03-26T13:16:23Z</time>
      </trkpt>
      <trkpt lat="43.94132" lon="7.41214">
        <ele>852.8</ele>
        <time>1982-03-26T13:16:24Z</time>
      </trkpt>
      <trkpt lat="43.94136" lon="7.41223">
        <ele>847.5</ele>
        <time>1982-03-26T13:16:26Z</time>
      </trkpt>
      <trkpt lat="43.94135" lon="7.41222">
        <ele>846.6</ele>
        <time>1982-03-26T13:16:27Z</time>
      </trkpt>
      <trkpt lat="43.94135" lon="7.41223">
        <ele>847</ele>
        <time>1982-03-26T13:16:28Z</time>
      </trkpt>
      <trkpt lat="43.94135" lon="7.41224">
        <ele>847.4</ele>
        <time>1982-03-26T13:16:29Z</time>
      </trkpt>
      <trkpt lat="43.94136" lon="7.41225">
        <ele>847.4</ele>
        <time>1982-03-26T13:16:30Z</time>
      </trkpt>
      <trkpt lat="43.94135" lon="7.41227">
        <ele>847.6</ele>
        <time>1982-03-26T13:16:33Z</time>
      </trkpt>
      <trkpt lat="43.94135" lon="7.41228">
        <ele>847.6</ele>
        <time>1982-03-26T13:16:33Z</time>
      </trkpt>
      <trkpt lat="43.94134" lon="7.41231">
        <ele>847.6</ele>
        <time>1982-03-26T13:16:36Z</time>
      </trkpt>
      <trkpt lat="43.94134" lon="7.41232">
        <ele>847.6</ele>
        <time>1982-03-26T13:16:36Z</time>
      </trkpt>
      <trkpt lat="43.94133" lon="7.41233">
        <ele>847.6</ele>
        <time>1982-03-26T13:16:38Z</time>
      </trkpt>
      <trkpt lat="43.94132" lon="7.41233">
        <ele>847.6</ele>
        <time>1982-03-26T13:16:41Z</time>
      </trkpt>
      <trkpt lat="43.94132" lon="7.41234">
        <ele>847.6</ele>
        <time>1982-03-26T13:16:42Z</time>
      </trkpt>
      <trkpt lat="43.94132" lon="7.41234">
        <ele>847.6</ele>
        <time>1982-03-26T13:16:42Z</time>
      </trkpt>
      <trkpt lat="43.9413" lon="7.41235">
        <ele>847.6</ele>
        <time>1982-03-26T13:16:45Z</time>
      </trkpt>
      <trkpt lat="43.9413" lon="7.41235">
        <ele>847.5</ele>
        <time>1982-03-26T13:16:45Z</time>
      </trkpt>
      <trkpt lat="43.9413" lon="7.41235">
        <ele>847.5</ele>
        <time>1982-03-26T13:16:45Z</time>
      </trkpt>
      <trkpt lat="43.94128" lon="7.41232">
        <ele>847.6</ele>
        <time>1982-03-26T13:16:48Z</time>
      </trkpt>
      <trkpt lat="43.94129" lon="7.41227">
        <ele>847.6</ele>
        <time>1982-03-26T13:16:50Z</time>
      </trkpt>
      <trkpt lat="43.94128" lon="7.41224">
        <ele>847.6</ele>
        <time>1982-03-26T13:16:51Z</time>
      </trkpt>
      <trkpt lat="43.94127" lon="7.41219">
        <ele>847.6</ele>
        <time>1982-03-26T13:16:53Z</time>
      </trkpt>
      <trkpt lat="43.94131" lon="7.41221">
        <ele>847.6</ele>
        <time>1982-03-26T13:16:53Z</time>
      </trkpt>
      <trkpt lat="43.94131" lon="7.41221">
        <ele>847.6</ele>
        <time>1982-03-26T13:16:56Z</time>
      </trkpt>
      <trkpt lat="43.94131" lon="7.41221">
        <ele>847.6</ele>
        <time>1982-03-26T13:16:56Z</time>
      </trkpt>
      <trkpt lat="43.94127" lon="7.41209">
        <ele>850.1</ele>
        <time>1982-03-26T13:17:03Z</time>
      </trkpt>
      <trkpt lat="43.94118" lon="7.41211">
        <ele>852.3</ele>
        <time>1982-03-26T13:17:04Z</time>
      </trkpt>
      <trkpt lat="43.94114" lon="7.41213">
        <ele>852.9</ele>
        <time>1982-03-26T13:17:05Z</time>
      </trkpt>
      <trkpt lat="43.94137" lon="7.41232">
        <ele>850.4</ele>
        <time>1982-03-26T13:17:08Z</time>
      </trkpt>
      <trkpt lat="43.94137" lon="7.41232">
        <ele>850.4</ele>
        <time>1982-03-26T13:17:08Z</time>
      </trkpt>
      <trkpt lat="43.94135" lon="7.41238">
        <ele>849.3</ele>
        <time>1982-03-26T13:17:10Z</time>
      </trkpt>
      <trkpt lat="43.9414" lon="7.41248">
        <ele>849.8</ele>
        <time>1982-03-26T13:17:12Z</time>
      </trkpt>
      <trkpt lat="43.94132" lon="7.41252">
        <ele>845.9</ele>
        <time>1982-03-26T13:17:14Z</time>
      </trkpt>
      <trkpt lat="43.94122" lon="7.4125">
        <ele>843.1</ele>
        <time>1982-03-26T13:17:16Z</time>
      </trkpt>
      <trkpt lat="43.94116" lon="7.41253">
        <ele>842.1</ele>
        <time>1982-03-26T13:17:18Z</time>
      </trkpt>
      <trkpt lat="43.94113" lon="7.41255">
        <ele>841.6</ele>
        <time>1982-03-26T13:17:18Z</time>
      </trkpt>
    </trkseg>
  </trk>
</gpx>